<?xml version="1.0" encoding="UTF-8" standalone="no" ?>
<gpx xmlns="http://www.topografix.com/GPX/1/1" xmlns:xsi="http://www.w3.org/2001/XMLSchema-instance" xsi:schemaLocation="http://www.topografix.com/GPX/1/1 http://www.topografix.com/GPX/1/1/gpx.xsd" version="1.1" creator="VisuGPX - https://www.visugpx.com">
  <metadata>
    <name>ETANG NOIR DE CABALLEIRE 19 JUILLET 2021</name>
    <desc><![CDATA[Trace AlpineQuest 19/07/2021 9:44:10 AM]]></desc>
  </metadata>
  <trk>
    <name><![CDATA[ETANG NOIR DE CABALLEIRE 19 JUILLET 2021_1]]></name>
    <trkseg>
      <trkpt lat="42.64936" lon="1.70335">
        <ele>1644.089</ele>
        <time>2021-07-19T07:44:10Z</time>
      </trkpt>
      <trkpt lat="42.64947" lon="1.70342">
        <ele>1692.1</ele>
        <time>2021-07-19T07:44:13Z</time>
      </trkpt>
      <trkpt lat="42.64944" lon="1.70339">
        <ele>1689.668</ele>
        <time>2021-07-19T07:44:15Z</time>
      </trkpt>
      <trkpt lat="42.64944" lon="1.70336">
        <ele>1696.68</ele>
        <time>2021-07-19T07:44:17Z</time>
      </trkpt>
      <trkpt lat="42.64944" lon="1.70333">
        <ele>1697.616</ele>
        <time>2021-07-19T07:44:19Z</time>
      </trkpt>
      <trkpt lat="42.64945" lon="1.70331">
        <ele>1698.718</ele>
        <time>2021-07-19T07:44:21Z</time>
      </trkpt>
      <trkpt lat="42.64945" lon="1.70329">
        <ele>1698.337</ele>
        <time>2021-07-19T07:44:23Z</time>
      </trkpt>
      <trkpt lat="42.64946" lon="1.70326">
        <ele>1697.462</ele>
        <time>2021-07-19T07:44:25Z</time>
      </trkpt>
      <trkpt lat="42.64946" lon="1.70326">
        <ele>1697.411</ele>
        <time>2021-07-19T07:44:27Z</time>
      </trkpt>
      <trkpt lat="42.64946" lon="1.70326">
        <ele>1697.47</ele>
        <time>2021-07-19T07:44:29Z</time>
      </trkpt>
      <trkpt lat="42.64946" lon="1.70326">
        <ele>1697.514</ele>
        <time>2021-07-19T07:44:31Z</time>
      </trkpt>
      <trkpt lat="42.64946" lon="1.70326">
        <ele>1698.43</ele>
        <time>2021-07-19T07:44:33Z</time>
      </trkpt>
      <trkpt lat="42.64946" lon="1.70326">
        <ele>1698.416</ele>
        <time>2021-07-19T07:44:35Z</time>
      </trkpt>
      <trkpt lat="42.64946" lon="1.70326">
        <ele>1698.396</ele>
        <time>2021-07-19T07:44:37Z</time>
      </trkpt>
      <trkpt lat="42.64946" lon="1.70324">
        <ele>1696.947</ele>
        <time>2021-07-19T07:44:39Z</time>
      </trkpt>
      <trkpt lat="42.64947" lon="1.70323">
        <ele>1697.728</ele>
        <time>2021-07-19T07:44:41Z</time>
      </trkpt>
      <trkpt lat="42.64947" lon="1.70321">
        <ele>1697.887</ele>
        <time>2021-07-19T07:44:43Z</time>
      </trkpt>
      <trkpt lat="42.64948" lon="1.70318">
        <ele>1697.238</ele>
        <time>2021-07-19T07:44:45Z</time>
      </trkpt>
      <trkpt lat="42.64949" lon="1.70316">
        <ele>1696.397</ele>
        <time>2021-07-19T07:44:47Z</time>
      </trkpt>
      <trkpt lat="42.64949" lon="1.70316">
        <ele>1698.23</ele>
        <time>2021-07-19T07:44:49Z</time>
      </trkpt>
      <trkpt lat="42.6495" lon="1.70315">
        <ele>1697.596</ele>
        <time>2021-07-19T07:44:51Z</time>
      </trkpt>
      <trkpt lat="42.64949" lon="1.70315">
        <ele>1697.865</ele>
        <time>2021-07-19T07:44:53Z</time>
      </trkpt>
      <trkpt lat="42.6495" lon="1.70315">
        <ele>1698.711</ele>
        <time>2021-07-19T07:44:55Z</time>
      </trkpt>
      <trkpt lat="42.6495" lon="1.70314">
        <ele>1698.942</ele>
        <time>2021-07-19T07:44:57Z</time>
      </trkpt>
      <trkpt lat="42.6495" lon="1.70314">
        <ele>1698.922</ele>
        <time>2021-07-19T07:44:59Z</time>
      </trkpt>
      <trkpt lat="42.6495" lon="1.70314">
        <ele>1699.34</ele>
        <time>2021-07-19T07:45:01Z</time>
      </trkpt>
      <trkpt lat="42.64951" lon="1.70313">
        <ele>1699.763</ele>
        <time>2021-07-19T07:45:03Z</time>
      </trkpt>
      <trkpt lat="42.64953" lon="1.70312">
        <ele>1700.134</ele>
        <time>2021-07-19T07:45:05Z</time>
      </trkpt>
      <trkpt lat="42.64954" lon="1.70309">
        <ele>1699.659</ele>
        <time>2021-07-19T07:45:07Z</time>
      </trkpt>
      <trkpt lat="42.64954" lon="1.70308">
        <ele>1700.175</ele>
        <time>2021-07-19T07:45:09Z</time>
      </trkpt>
      <trkpt lat="42.64955" lon="1.70305">
        <ele>1700.545</ele>
        <time>2021-07-19T07:45:11Z</time>
      </trkpt>
      <trkpt lat="42.64956" lon="1.70302">
        <ele>1699.565</ele>
        <time>2021-07-19T07:45:13Z</time>
      </trkpt>
      <trkpt lat="42.64957" lon="1.703">
        <ele>1699.886</ele>
        <time>2021-07-19T07:45:15Z</time>
      </trkpt>
      <trkpt lat="42.64958" lon="1.70297">
        <ele>1700.583</ele>
        <time>2021-07-19T07:45:17Z</time>
      </trkpt>
      <trkpt lat="42.64958" lon="1.70294">
        <ele>1701.234</ele>
        <time>2021-07-19T07:45:19Z</time>
      </trkpt>
      <trkpt lat="42.64956" lon="1.70292">
        <ele>1701.436</ele>
        <time>2021-07-19T07:45:21Z</time>
      </trkpt>
      <trkpt lat="42.64953" lon="1.70291">
        <ele>1701.878</ele>
        <time>2021-07-19T07:45:23Z</time>
      </trkpt>
      <trkpt lat="42.64952" lon="1.7029">
        <ele>1701.072</ele>
        <time>2021-07-19T07:45:25Z</time>
      </trkpt>
      <trkpt lat="42.64949" lon="1.70289">
        <ele>1702.72</ele>
        <time>2021-07-19T07:45:27Z</time>
      </trkpt>
      <trkpt lat="42.64947" lon="1.70288">
        <ele>1702.05</ele>
        <time>2021-07-19T07:45:29Z</time>
      </trkpt>
      <trkpt lat="42.64946" lon="1.70288">
        <ele>1701.839</ele>
        <time>2021-07-19T07:45:31Z</time>
      </trkpt>
      <trkpt lat="42.64945" lon="1.70287">
        <ele>1702.025</ele>
        <time>2021-07-19T07:45:33Z</time>
      </trkpt>
      <trkpt lat="42.64943" lon="1.70285">
        <ele>1702.684</ele>
        <time>2021-07-19T07:45:35Z</time>
      </trkpt>
      <trkpt lat="42.64943" lon="1.70282">
        <ele>1702.954</ele>
        <time>2021-07-19T07:45:37Z</time>
      </trkpt>
      <trkpt lat="42.64942" lon="1.70279">
        <ele>1702.551</ele>
        <time>2021-07-19T07:45:39Z</time>
      </trkpt>
      <trkpt lat="42.64941" lon="1.70277">
        <ele>1701.775</ele>
        <time>2021-07-19T07:45:41Z</time>
      </trkpt>
      <trkpt lat="42.64941" lon="1.70274">
        <ele>1701.796</ele>
        <time>2021-07-19T07:45:43Z</time>
      </trkpt>
      <trkpt lat="42.64941" lon="1.70271">
        <ele>1701.342</ele>
        <time>2021-07-19T07:45:45Z</time>
      </trkpt>
      <trkpt lat="42.6494" lon="1.70268">
        <ele>1700.621</ele>
        <time>2021-07-19T07:45:47Z</time>
      </trkpt>
      <trkpt lat="42.64939" lon="1.70267">
        <ele>1700.321</ele>
        <time>2021-07-19T07:45:49Z</time>
      </trkpt>
      <trkpt lat="42.64937" lon="1.70266">
        <ele>1700.162</ele>
        <time>2021-07-19T07:45:51Z</time>
      </trkpt>
      <trkpt lat="42.64936" lon="1.70263">
        <ele>1699.785</ele>
        <time>2021-07-19T07:45:53Z</time>
      </trkpt>
      <trkpt lat="42.64935" lon="1.70261">
        <ele>1699.184</ele>
        <time>2021-07-19T07:45:55Z</time>
      </trkpt>
      <trkpt lat="42.64935" lon="1.70258">
        <ele>1699.817</ele>
        <time>2021-07-19T07:45:57Z</time>
      </trkpt>
      <trkpt lat="42.64935" lon="1.70256">
        <ele>1699.182</ele>
        <time>2021-07-19T07:45:59Z</time>
      </trkpt>
      <trkpt lat="42.64935" lon="1.70253">
        <ele>1698.954</ele>
        <time>2021-07-19T07:46:01Z</time>
      </trkpt>
      <trkpt lat="42.64934" lon="1.70251">
        <ele>1699.924</ele>
        <time>2021-07-19T07:46:03Z</time>
      </trkpt>
      <trkpt lat="42.64934" lon="1.70249">
        <ele>1701.276</ele>
        <time>2021-07-19T07:46:05Z</time>
      </trkpt>
      <trkpt lat="42.64932" lon="1.70247">
        <ele>1701.348</ele>
        <time>2021-07-19T07:46:07Z</time>
      </trkpt>
      <trkpt lat="42.64932" lon="1.70246">
        <ele>1703.483</ele>
        <time>2021-07-19T07:46:09Z</time>
      </trkpt>
      <trkpt lat="42.6493" lon="1.70245">
        <ele>1702.908</ele>
        <time>2021-07-19T07:46:11Z</time>
      </trkpt>
      <trkpt lat="42.64929" lon="1.70246">
        <ele>1702.5</ele>
        <time>2021-07-19T07:46:13Z</time>
      </trkpt>
      <trkpt lat="42.64929" lon="1.70246">
        <ele>1702.454</ele>
        <time>2021-07-19T07:46:15Z</time>
      </trkpt>
      <trkpt lat="42.64929" lon="1.70246">
        <ele>1701.897</ele>
        <time>2021-07-19T07:46:17Z</time>
      </trkpt>
      <trkpt lat="42.64929" lon="1.70246">
        <ele>1701.885</ele>
        <time>2021-07-19T07:46:19Z</time>
      </trkpt>
      <trkpt lat="42.64929" lon="1.70247">
        <ele>1701.485</ele>
        <time>2021-07-19T07:46:21Z</time>
      </trkpt>
      <trkpt lat="42.6493" lon="1.70247">
        <ele>1701.952</ele>
        <time>2021-07-19T07:46:23Z</time>
      </trkpt>
      <trkpt lat="42.64931" lon="1.70245">
        <ele>1702.425</ele>
        <time>2021-07-19T07:46:25Z</time>
      </trkpt>
      <trkpt lat="42.64932" lon="1.70242">
        <ele>1702.387</ele>
        <time>2021-07-19T07:46:27Z</time>
      </trkpt>
      <trkpt lat="42.64933" lon="1.7024">
        <ele>1701.197</ele>
        <time>2021-07-19T07:46:29Z</time>
      </trkpt>
      <trkpt lat="42.64931" lon="1.70238">
        <ele>1700.604</ele>
        <time>2021-07-19T07:46:31Z</time>
      </trkpt>
      <trkpt lat="42.64932" lon="1.70237">
        <ele>1701.768</ele>
        <time>2021-07-19T07:46:33Z</time>
      </trkpt>
      <trkpt lat="42.64933" lon="1.70235">
        <ele>1702.932</ele>
        <time>2021-07-19T07:46:35Z</time>
      </trkpt>
      <trkpt lat="42.64937" lon="1.70233">
        <ele>1701.958</ele>
        <time>2021-07-19T07:46:37Z</time>
      </trkpt>
      <trkpt lat="42.64938" lon="1.70232">
        <ele>1702.651</ele>
        <time>2021-07-19T07:46:39Z</time>
      </trkpt>
      <trkpt lat="42.64939" lon="1.7023">
        <ele>1702.558</ele>
        <time>2021-07-19T07:46:41Z</time>
      </trkpt>
      <trkpt lat="42.6494" lon="1.70228">
        <ele>1703.643</ele>
        <time>2021-07-19T07:46:43Z</time>
      </trkpt>
      <trkpt lat="42.6494" lon="1.70225">
        <ele>1702.819</ele>
        <time>2021-07-19T07:46:45Z</time>
      </trkpt>
      <trkpt lat="42.64941" lon="1.70222">
        <ele>1702.365</ele>
        <time>2021-07-19T07:46:47Z</time>
      </trkpt>
      <trkpt lat="42.64943" lon="1.7022">
        <ele>1706.09</ele>
        <time>2021-07-19T07:46:49Z</time>
      </trkpt>
      <trkpt lat="42.64945" lon="1.7022">
        <ele>1707.562</ele>
        <time>2021-07-19T07:46:51Z</time>
      </trkpt>
      <trkpt lat="42.64946" lon="1.70219">
        <ele>1709.073</ele>
        <time>2021-07-19T07:46:53Z</time>
      </trkpt>
      <trkpt lat="42.64947" lon="1.70217">
        <ele>1708.795</ele>
        <time>2021-07-19T07:46:55Z</time>
      </trkpt>
      <trkpt lat="42.64947" lon="1.70216">
        <ele>1711.303</ele>
        <time>2021-07-19T07:46:57Z</time>
      </trkpt>
      <trkpt lat="42.64947" lon="1.70214">
        <ele>1713.42</ele>
        <time>2021-07-19T07:46:59Z</time>
      </trkpt>
      <trkpt lat="42.64947" lon="1.70213">
        <ele>1713.468</ele>
        <time>2021-07-19T07:47:01Z</time>
      </trkpt>
      <trkpt lat="42.64946" lon="1.70212">
        <ele>1713.024</ele>
        <time>2021-07-19T07:47:03Z</time>
      </trkpt>
      <trkpt lat="42.64945" lon="1.70211">
        <ele>1714.317</ele>
        <time>2021-07-19T07:47:05Z</time>
      </trkpt>
      <trkpt lat="42.64945" lon="1.70212">
        <ele>1713.969</ele>
        <time>2021-07-19T07:47:07Z</time>
      </trkpt>
      <trkpt lat="42.64945" lon="1.70212">
        <ele>1713.961</ele>
        <time>2021-07-19T07:47:09Z</time>
      </trkpt>
      <trkpt lat="42.64945" lon="1.70212">
        <ele>1713.976</ele>
        <time>2021-07-19T07:47:11Z</time>
      </trkpt>
      <trkpt lat="42.64945" lon="1.70212">
        <ele>1713.971</ele>
        <time>2021-07-19T07:47:13Z</time>
      </trkpt>
      <trkpt lat="42.64945" lon="1.70212">
        <ele>1714.149</ele>
        <time>2021-07-19T07:47:15Z</time>
      </trkpt>
      <trkpt lat="42.64945" lon="1.70212">
        <ele>1714.148</ele>
        <time>2021-07-19T07:47:17Z</time>
      </trkpt>
      <trkpt lat="42.64945" lon="1.70212">
        <ele>1714.129</ele>
        <time>2021-07-19T07:47:19Z</time>
      </trkpt>
      <trkpt lat="42.64945" lon="1.70212">
        <ele>1714.117</ele>
        <time>2021-07-19T07:47:21Z</time>
      </trkpt>
      <trkpt lat="42.64945" lon="1.70212">
        <ele>1714.103</ele>
        <time>2021-07-19T07:47:23Z</time>
      </trkpt>
      <trkpt lat="42.64945" lon="1.70212">
        <ele>1714.079</ele>
        <time>2021-07-19T07:47:25Z</time>
      </trkpt>
      <trkpt lat="42.64945" lon="1.70212">
        <ele>1714.047</ele>
        <time>2021-07-19T07:47:27Z</time>
      </trkpt>
      <trkpt lat="42.64945" lon="1.70212">
        <ele>1714.054</ele>
        <time>2021-07-19T07:47:29Z</time>
      </trkpt>
      <trkpt lat="42.64945" lon="1.70212">
        <ele>1714.058</ele>
        <time>2021-07-19T07:47:31Z</time>
      </trkpt>
      <trkpt lat="42.64945" lon="1.70212">
        <ele>1714.048</ele>
        <time>2021-07-19T07:47:33Z</time>
      </trkpt>
      <trkpt lat="42.64945" lon="1.70212">
        <ele>1714.056</ele>
        <time>2021-07-19T07:47:35Z</time>
      </trkpt>
      <trkpt lat="42.64945" lon="1.70212">
        <ele>1714.065</ele>
        <time>2021-07-19T07:47:37Z</time>
      </trkpt>
      <trkpt lat="42.64945" lon="1.70212">
        <ele>1714.058</ele>
        <time>2021-07-19T07:47:39Z</time>
      </trkpt>
      <trkpt lat="42.64945" lon="1.70212">
        <ele>1714.06</ele>
        <time>2021-07-19T07:47:41Z</time>
      </trkpt>
      <trkpt lat="42.64945" lon="1.70213">
        <ele>1715.183</ele>
        <time>2021-07-19T07:47:43Z</time>
      </trkpt>
      <trkpt lat="42.64945" lon="1.70213">
        <ele>1715.141</ele>
        <time>2021-07-19T07:47:45Z</time>
      </trkpt>
      <trkpt lat="42.64942" lon="1.70218">
        <ele>1715.116</ele>
        <time>2021-07-19T07:47:47Z</time>
      </trkpt>
      <trkpt lat="42.64941" lon="1.70216">
        <ele>1713.66</ele>
        <time>2021-07-19T07:47:49Z</time>
      </trkpt>
      <trkpt lat="42.6494" lon="1.70214">
        <ele>1712.135</ele>
        <time>2021-07-19T07:47:51Z</time>
      </trkpt>
      <trkpt lat="42.64938" lon="1.70212">
        <ele>1705.792</ele>
        <time>2021-07-19T07:47:53Z</time>
      </trkpt>
      <trkpt lat="42.64937" lon="1.70211">
        <ele>1702.7</ele>
        <time>2021-07-19T07:47:55Z</time>
      </trkpt>
      <trkpt lat="42.64947" lon="1.7021">
        <ele>1709.918</ele>
        <time>2021-07-19T07:47:57Z</time>
      </trkpt>
      <trkpt lat="42.64948" lon="1.70209">
        <ele>1710.18</ele>
        <time>2021-07-19T07:47:59Z</time>
      </trkpt>
      <trkpt lat="42.64948" lon="1.70209">
        <ele>1710.186</ele>
        <time>2021-07-19T07:48:01Z</time>
      </trkpt>
      <trkpt lat="42.64948" lon="1.70209">
        <ele>1710.187</ele>
        <time>2021-07-19T07:48:03Z</time>
      </trkpt>
      <trkpt lat="42.64948" lon="1.70209">
        <ele>1710.161</ele>
        <time>2021-07-19T07:48:05Z</time>
      </trkpt>
      <trkpt lat="42.64948" lon="1.70209">
        <ele>1710.134</ele>
        <time>2021-07-19T07:48:07Z</time>
      </trkpt>
      <trkpt lat="42.64948" lon="1.70209">
        <ele>1710.079</ele>
        <time>2021-07-19T07:48:09Z</time>
      </trkpt>
      <trkpt lat="42.64948" lon="1.70209">
        <ele>1709.953</ele>
        <time>2021-07-19T07:48:11Z</time>
      </trkpt>
      <trkpt lat="42.64948" lon="1.70209">
        <ele>1709.826</ele>
        <time>2021-07-19T07:48:13Z</time>
      </trkpt>
      <trkpt lat="42.64948" lon="1.70209">
        <ele>1709.702</ele>
        <time>2021-07-19T07:48:15Z</time>
      </trkpt>
      <trkpt lat="42.64948" lon="1.70209">
        <ele>1709.609</ele>
        <time>2021-07-19T07:48:17Z</time>
      </trkpt>
      <trkpt lat="42.64948" lon="1.70209">
        <ele>1709.535</ele>
        <time>2021-07-19T07:48:19Z</time>
      </trkpt>
      <trkpt lat="42.64948" lon="1.70209">
        <ele>1710.76</ele>
        <time>2021-07-19T07:48:21Z</time>
      </trkpt>
      <trkpt lat="42.64948" lon="1.7021">
        <ele>1710.716</ele>
        <time>2021-07-19T07:48:23Z</time>
      </trkpt>
      <trkpt lat="42.64948" lon="1.7021">
        <ele>1710.743</ele>
        <time>2021-07-19T07:48:25Z</time>
      </trkpt>
      <trkpt lat="42.64948" lon="1.7021">
        <ele>1710.672</ele>
        <time>2021-07-19T07:48:27Z</time>
      </trkpt>
      <trkpt lat="42.64948" lon="1.7021">
        <ele>1710.626</ele>
        <time>2021-07-19T07:48:29Z</time>
      </trkpt>
      <trkpt lat="42.64948" lon="1.7021">
        <ele>1710.613</ele>
        <time>2021-07-19T07:48:31Z</time>
      </trkpt>
      <trkpt lat="42.64948" lon="1.7021">
        <ele>1710.603</ele>
        <time>2021-07-19T07:48:33Z</time>
      </trkpt>
      <trkpt lat="42.64948" lon="1.7021">
        <ele>1710.569</ele>
        <time>2021-07-19T07:48:35Z</time>
      </trkpt>
      <trkpt lat="42.64948" lon="1.7021">
        <ele>1710.546</ele>
        <time>2021-07-19T07:48:37Z</time>
      </trkpt>
      <trkpt lat="42.64948" lon="1.7021">
        <ele>1710.457</ele>
        <time>2021-07-19T07:48:39Z</time>
      </trkpt>
      <trkpt lat="42.64948" lon="1.7021">
        <ele>1710.38</ele>
        <time>2021-07-19T07:48:41Z</time>
      </trkpt>
      <trkpt lat="42.64948" lon="1.7021">
        <ele>1710.326</ele>
        <time>2021-07-19T07:48:43Z</time>
      </trkpt>
      <trkpt lat="42.64948" lon="1.7021">
        <ele>1710.236</ele>
        <time>2021-07-19T07:48:45Z</time>
      </trkpt>
      <trkpt lat="42.64948" lon="1.70211">
        <ele>1710.646</ele>
        <time>2021-07-19T07:48:47Z</time>
      </trkpt>
      <trkpt lat="42.64947" lon="1.70211">
        <ele>1710.891</ele>
        <time>2021-07-19T07:48:49Z</time>
      </trkpt>
      <trkpt lat="42.64946" lon="1.70209">
        <ele>1712.261</ele>
        <time>2021-07-19T07:48:51Z</time>
      </trkpt>
      <trkpt lat="42.64943" lon="1.70209">
        <ele>1712.583</ele>
        <time>2021-07-19T07:48:53Z</time>
      </trkpt>
      <trkpt lat="42.64941" lon="1.7021">
        <ele>1712.545</ele>
        <time>2021-07-19T07:48:55Z</time>
      </trkpt>
      <trkpt lat="42.64939" lon="1.7021">
        <ele>1712.564</ele>
        <time>2021-07-19T07:48:57Z</time>
      </trkpt>
      <trkpt lat="42.64937" lon="1.70211">
        <ele>1711.756</ele>
        <time>2021-07-19T07:48:59Z</time>
      </trkpt>
      <trkpt lat="42.64935" lon="1.70211">
        <ele>1711.238</ele>
        <time>2021-07-19T07:49:01Z</time>
      </trkpt>
      <trkpt lat="42.64933" lon="1.7021">
        <ele>1711.008</ele>
        <time>2021-07-19T07:49:03Z</time>
      </trkpt>
      <trkpt lat="42.64931" lon="1.7021">
        <ele>1712.78</ele>
        <time>2021-07-19T07:49:05Z</time>
      </trkpt>
      <trkpt lat="42.6493" lon="1.7021">
        <ele>1713.437</ele>
        <time>2021-07-19T07:49:07Z</time>
      </trkpt>
      <trkpt lat="42.64928" lon="1.7021">
        <ele>1712.548</ele>
        <time>2021-07-19T07:49:09Z</time>
      </trkpt>
      <trkpt lat="42.64928" lon="1.70214">
        <ele>1709.736</ele>
        <time>2021-07-19T07:49:11Z</time>
      </trkpt>
      <trkpt lat="42.64927" lon="1.70217">
        <ele>1708.754</ele>
        <time>2021-07-19T07:49:13Z</time>
      </trkpt>
      <trkpt lat="42.64925" lon="1.70217">
        <ele>1707.622</ele>
        <time>2021-07-19T07:49:15Z</time>
      </trkpt>
      <trkpt lat="42.64924" lon="1.70217">
        <ele>1706.51</ele>
        <time>2021-07-19T07:49:17Z</time>
      </trkpt>
      <trkpt lat="42.64922" lon="1.70218">
        <ele>1705.974</ele>
        <time>2021-07-19T07:49:19Z</time>
      </trkpt>
      <trkpt lat="42.6492" lon="1.70218">
        <ele>1705.955</ele>
        <time>2021-07-19T07:49:21Z</time>
      </trkpt>
      <trkpt lat="42.64919" lon="1.70218">
        <ele>1706.264</ele>
        <time>2021-07-19T07:49:23Z</time>
      </trkpt>
      <trkpt lat="42.64917" lon="1.70217">
        <ele>1706.29</ele>
        <time>2021-07-19T07:49:25Z</time>
      </trkpt>
      <trkpt lat="42.64917" lon="1.70214">
        <ele>1706.07</ele>
        <time>2021-07-19T07:49:27Z</time>
      </trkpt>
      <trkpt lat="42.64916" lon="1.70212">
        <ele>1705.371</ele>
        <time>2021-07-19T07:49:29Z</time>
      </trkpt>
      <trkpt lat="42.64915" lon="1.70209">
        <ele>1704.977</ele>
        <time>2021-07-19T07:49:31Z</time>
      </trkpt>
      <trkpt lat="42.64914" lon="1.70206">
        <ele>1704.787</ele>
        <time>2021-07-19T07:49:33Z</time>
      </trkpt>
      <trkpt lat="42.64913" lon="1.70204">
        <ele>1702.579</ele>
        <time>2021-07-19T07:49:35Z</time>
      </trkpt>
      <trkpt lat="42.64912" lon="1.70201">
        <ele>1702.337</ele>
        <time>2021-07-19T07:49:37Z</time>
      </trkpt>
      <trkpt lat="42.6491" lon="1.70198">
        <ele>1704.514</ele>
        <time>2021-07-19T07:49:39Z</time>
      </trkpt>
      <trkpt lat="42.64909" lon="1.70195">
        <ele>1703.903</ele>
        <time>2021-07-19T07:49:41Z</time>
      </trkpt>
      <trkpt lat="42.64908" lon="1.70193">
        <ele>1704.971</ele>
        <time>2021-07-19T07:49:43Z</time>
      </trkpt>
      <trkpt lat="42.64907" lon="1.70192">
        <ele>1703.96</ele>
        <time>2021-07-19T07:49:45Z</time>
      </trkpt>
      <trkpt lat="42.64906" lon="1.70191">
        <ele>1703.162</ele>
        <time>2021-07-19T07:49:47Z</time>
      </trkpt>
      <trkpt lat="42.64905" lon="1.7019">
        <ele>1702.94</ele>
        <time>2021-07-19T07:49:49Z</time>
      </trkpt>
      <trkpt lat="42.64903" lon="1.70189">
        <ele>1701.935</ele>
        <time>2021-07-19T07:49:51Z</time>
      </trkpt>
      <trkpt lat="42.64903" lon="1.70188">
        <ele>1701.125</ele>
        <time>2021-07-19T07:49:53Z</time>
      </trkpt>
      <trkpt lat="42.64902" lon="1.70187">
        <ele>1699.791</ele>
        <time>2021-07-19T07:49:55Z</time>
      </trkpt>
      <trkpt lat="42.64901" lon="1.70186">
        <ele>1699.007</ele>
        <time>2021-07-19T07:49:57Z</time>
      </trkpt>
      <trkpt lat="42.649" lon="1.70185">
        <ele>1699.438</ele>
        <time>2021-07-19T07:49:59Z</time>
      </trkpt>
      <trkpt lat="42.64899" lon="1.70183">
        <ele>1698.381</ele>
        <time>2021-07-19T07:50:01Z</time>
      </trkpt>
      <trkpt lat="42.64897" lon="1.70182">
        <ele>1697.692</ele>
        <time>2021-07-19T07:50:03Z</time>
      </trkpt>
      <trkpt lat="42.64897" lon="1.7018">
        <ele>1698.129</ele>
        <time>2021-07-19T07:50:05Z</time>
      </trkpt>
      <trkpt lat="42.64897" lon="1.70181">
        <ele>1697.348</ele>
        <time>2021-07-19T07:50:07Z</time>
      </trkpt>
      <trkpt lat="42.64897" lon="1.70181">
        <ele>1697.839</ele>
        <time>2021-07-19T07:50:09Z</time>
      </trkpt>
      <trkpt lat="42.64897" lon="1.7018">
        <ele>1697.816</ele>
        <time>2021-07-19T07:50:11Z</time>
      </trkpt>
      <trkpt lat="42.64897" lon="1.7018">
        <ele>1699.978</ele>
        <time>2021-07-19T07:50:13Z</time>
      </trkpt>
      <trkpt lat="42.64896" lon="1.7018">
        <ele>1700.751</ele>
        <time>2021-07-19T07:50:15Z</time>
      </trkpt>
      <trkpt lat="42.64895" lon="1.70179">
        <ele>1699.974</ele>
        <time>2021-07-19T07:50:17Z</time>
      </trkpt>
      <trkpt lat="42.64894" lon="1.70178">
        <ele>1699.767</ele>
        <time>2021-07-19T07:50:19Z</time>
      </trkpt>
      <trkpt lat="42.64894" lon="1.70176">
        <ele>1698.541</ele>
        <time>2021-07-19T07:50:21Z</time>
      </trkpt>
      <trkpt lat="42.64893" lon="1.70174">
        <ele>1698.37</ele>
        <time>2021-07-19T07:50:23Z</time>
      </trkpt>
      <trkpt lat="42.64893" lon="1.70174">
        <ele>1698.346</ele>
        <time>2021-07-19T07:50:25Z</time>
      </trkpt>
      <trkpt lat="42.64893" lon="1.70174">
        <ele>1698.337</ele>
        <time>2021-07-19T07:50:27Z</time>
      </trkpt>
      <trkpt lat="42.64893" lon="1.70173">
        <ele>1697.648</ele>
        <time>2021-07-19T07:50:29Z</time>
      </trkpt>
      <trkpt lat="42.64892" lon="1.70171">
        <ele>1699.172</ele>
        <time>2021-07-19T07:50:31Z</time>
      </trkpt>
      <trkpt lat="42.64891" lon="1.7017">
        <ele>1699.627</ele>
        <time>2021-07-19T07:50:33Z</time>
      </trkpt>
      <trkpt lat="42.64891" lon="1.70168">
        <ele>1700.016</ele>
        <time>2021-07-19T07:50:35Z</time>
      </trkpt>
      <trkpt lat="42.6489" lon="1.70166">
        <ele>1699.858</ele>
        <time>2021-07-19T07:50:37Z</time>
      </trkpt>
      <trkpt lat="42.64889" lon="1.70163">
        <ele>1700.472</ele>
        <time>2021-07-19T07:50:39Z</time>
      </trkpt>
      <trkpt lat="42.64888" lon="1.7016">
        <ele>1700.38</ele>
        <time>2021-07-19T07:50:41Z</time>
      </trkpt>
      <trkpt lat="42.64888" lon="1.70161">
        <ele>1699.208</ele>
        <time>2021-07-19T07:50:43Z</time>
      </trkpt>
      <trkpt lat="42.64888" lon="1.70161">
        <ele>1699.254</ele>
        <time>2021-07-19T07:50:45Z</time>
      </trkpt>
      <trkpt lat="42.64888" lon="1.70161">
        <ele>1700.305</ele>
        <time>2021-07-19T07:50:47Z</time>
      </trkpt>
      <trkpt lat="42.64888" lon="1.7016">
        <ele>1700.731</ele>
        <time>2021-07-19T07:50:49Z</time>
      </trkpt>
      <trkpt lat="42.64887" lon="1.70158">
        <ele>1700.78</ele>
        <time>2021-07-19T07:50:51Z</time>
      </trkpt>
      <trkpt lat="42.64885" lon="1.70155">
        <ele>1701.325</ele>
        <time>2021-07-19T07:50:53Z</time>
      </trkpt>
      <trkpt lat="42.64883" lon="1.70154">
        <ele>1700.782</ele>
        <time>2021-07-19T07:50:55Z</time>
      </trkpt>
      <trkpt lat="42.64881" lon="1.70151">
        <ele>1701.978</ele>
        <time>2021-07-19T07:50:57Z</time>
      </trkpt>
      <trkpt lat="42.6488" lon="1.70149">
        <ele>1704.272</ele>
        <time>2021-07-19T07:50:59Z</time>
      </trkpt>
      <trkpt lat="42.64879" lon="1.70147">
        <ele>1705.934</ele>
        <time>2021-07-19T07:51:01Z</time>
      </trkpt>
      <trkpt lat="42.64879" lon="1.70147">
        <ele>1705.379</ele>
        <time>2021-07-19T07:51:03Z</time>
      </trkpt>
      <trkpt lat="42.64877" lon="1.70147">
        <ele>1705.348</ele>
        <time>2021-07-19T07:51:05Z</time>
      </trkpt>
      <trkpt lat="42.64875" lon="1.70146">
        <ele>1704.95</ele>
        <time>2021-07-19T07:51:07Z</time>
      </trkpt>
      <trkpt lat="42.64873" lon="1.70143">
        <ele>1704.521</ele>
        <time>2021-07-19T07:51:09Z</time>
      </trkpt>
      <trkpt lat="42.64871" lon="1.70141">
        <ele>1704.533</ele>
        <time>2021-07-19T07:51:11Z</time>
      </trkpt>
      <trkpt lat="42.64869" lon="1.7014">
        <ele>1703.947</ele>
        <time>2021-07-19T07:51:13Z</time>
      </trkpt>
      <trkpt lat="42.64867" lon="1.7014">
        <ele>1703.876</ele>
        <time>2021-07-19T07:51:15Z</time>
      </trkpt>
      <trkpt lat="42.64865" lon="1.70138">
        <ele>1703.887</ele>
        <time>2021-07-19T07:51:17Z</time>
      </trkpt>
      <trkpt lat="42.64864" lon="1.70136">
        <ele>1704.223</ele>
        <time>2021-07-19T07:51:19Z</time>
      </trkpt>
      <trkpt lat="42.64863" lon="1.70133">
        <ele>1703.672</ele>
        <time>2021-07-19T07:51:21Z</time>
      </trkpt>
      <trkpt lat="42.64862" lon="1.7013">
        <ele>1704.619</ele>
        <time>2021-07-19T07:51:23Z</time>
      </trkpt>
      <trkpt lat="42.6486" lon="1.70128">
        <ele>1704.882</ele>
        <time>2021-07-19T07:51:25Z</time>
      </trkpt>
      <trkpt lat="42.64859" lon="1.70125">
        <ele>1706.339</ele>
        <time>2021-07-19T07:51:27Z</time>
      </trkpt>
      <trkpt lat="42.64858" lon="1.70122">
        <ele>1705.873</ele>
        <time>2021-07-19T07:51:29Z</time>
      </trkpt>
      <trkpt lat="42.64857" lon="1.70119">
        <ele>1705.613</ele>
        <time>2021-07-19T07:51:31Z</time>
      </trkpt>
      <trkpt lat="42.64856" lon="1.70117">
        <ele>1705.705</ele>
        <time>2021-07-19T07:51:33Z</time>
      </trkpt>
      <trkpt lat="42.64855" lon="1.70114">
        <ele>1705.98</ele>
        <time>2021-07-19T07:51:35Z</time>
      </trkpt>
      <trkpt lat="42.64855" lon="1.70112">
        <ele>1704.289</ele>
        <time>2021-07-19T07:51:37Z</time>
      </trkpt>
      <trkpt lat="42.64854" lon="1.7011">
        <ele>1702.84</ele>
        <time>2021-07-19T07:51:39Z</time>
      </trkpt>
      <trkpt lat="42.64854" lon="1.70107">
        <ele>1702.642</ele>
        <time>2021-07-19T07:51:41Z</time>
      </trkpt>
      <trkpt lat="42.64853" lon="1.70105">
        <ele>1701.76</ele>
        <time>2021-07-19T07:51:43Z</time>
      </trkpt>
      <trkpt lat="42.64852" lon="1.70103">
        <ele>1701.659</ele>
        <time>2021-07-19T07:51:45Z</time>
      </trkpt>
      <trkpt lat="42.6485" lon="1.70101">
        <ele>1700.612</ele>
        <time>2021-07-19T07:51:47Z</time>
      </trkpt>
      <trkpt lat="42.64849" lon="1.70099">
        <ele>1701.371</ele>
        <time>2021-07-19T07:51:49Z</time>
      </trkpt>
      <trkpt lat="42.64849" lon="1.70097">
        <ele>1700.6</ele>
        <time>2021-07-19T07:51:51Z</time>
      </trkpt>
      <trkpt lat="42.64848" lon="1.70095">
        <ele>1700.246</ele>
        <time>2021-07-19T07:51:53Z</time>
      </trkpt>
      <trkpt lat="42.64847" lon="1.70093">
        <ele>1701.219</ele>
        <time>2021-07-19T07:51:55Z</time>
      </trkpt>
      <trkpt lat="42.64845" lon="1.70091">
        <ele>1702.736</ele>
        <time>2021-07-19T07:51:57Z</time>
      </trkpt>
      <trkpt lat="42.64844" lon="1.70089">
        <ele>1702.468</ele>
        <time>2021-07-19T07:51:59Z</time>
      </trkpt>
      <trkpt lat="42.64842" lon="1.70087">
        <ele>1702.614</ele>
        <time>2021-07-19T07:52:01Z</time>
      </trkpt>
      <trkpt lat="42.64841" lon="1.70086">
        <ele>1702.257</ele>
        <time>2021-07-19T07:52:03Z</time>
      </trkpt>
      <trkpt lat="42.64839" lon="1.70085">
        <ele>1703.097</ele>
        <time>2021-07-19T07:52:05Z</time>
      </trkpt>
      <trkpt lat="42.64837" lon="1.70084">
        <ele>1702.98</ele>
        <time>2021-07-19T07:52:07Z</time>
      </trkpt>
      <trkpt lat="42.64836" lon="1.70083">
        <ele>1703.181</ele>
        <time>2021-07-19T07:52:09Z</time>
      </trkpt>
      <trkpt lat="42.64835" lon="1.7008">
        <ele>1702.984</ele>
        <time>2021-07-19T07:52:11Z</time>
      </trkpt>
      <trkpt lat="42.64834" lon="1.70078">
        <ele>1703.827</ele>
        <time>2021-07-19T07:52:13Z</time>
      </trkpt>
      <trkpt lat="42.64833" lon="1.70077">
        <ele>1704.583</ele>
        <time>2021-07-19T07:52:15Z</time>
      </trkpt>
      <trkpt lat="42.64831" lon="1.70077">
        <ele>1703.735</ele>
        <time>2021-07-19T07:52:17Z</time>
      </trkpt>
      <trkpt lat="42.6483" lon="1.70076">
        <ele>1704.305</ele>
        <time>2021-07-19T07:52:19Z</time>
      </trkpt>
      <trkpt lat="42.64829" lon="1.70076">
        <ele>1705.575</ele>
        <time>2021-07-19T07:52:21Z</time>
      </trkpt>
      <trkpt lat="42.64828" lon="1.70075">
        <ele>1706.666</ele>
        <time>2021-07-19T07:52:23Z</time>
      </trkpt>
      <trkpt lat="42.64827" lon="1.70074">
        <ele>1708.431</ele>
        <time>2021-07-19T07:52:25Z</time>
      </trkpt>
      <trkpt lat="42.64825" lon="1.70073">
        <ele>1708.169</ele>
        <time>2021-07-19T07:52:27Z</time>
      </trkpt>
      <trkpt lat="42.64824" lon="1.70072">
        <ele>1707.399</ele>
        <time>2021-07-19T07:52:29Z</time>
      </trkpt>
      <trkpt lat="42.64824" lon="1.70071">
        <ele>1707.256</ele>
        <time>2021-07-19T07:52:31Z</time>
      </trkpt>
      <trkpt lat="42.64823" lon="1.7007">
        <ele>1707.696</ele>
        <time>2021-07-19T07:52:33Z</time>
      </trkpt>
      <trkpt lat="42.64823" lon="1.7007">
        <ele>1707.933</ele>
        <time>2021-07-19T07:52:35Z</time>
      </trkpt>
      <trkpt lat="42.64823" lon="1.7007">
        <ele>1707.198</ele>
        <time>2021-07-19T07:52:37Z</time>
      </trkpt>
      <trkpt lat="42.64821" lon="1.7007">
        <ele>1706.65</ele>
        <time>2021-07-19T07:52:39Z</time>
      </trkpt>
      <trkpt lat="42.6482" lon="1.70071">
        <ele>1707.968</ele>
        <time>2021-07-19T07:52:41Z</time>
      </trkpt>
      <trkpt lat="42.64818" lon="1.70071">
        <ele>1709.282</ele>
        <time>2021-07-19T07:52:43Z</time>
      </trkpt>
      <trkpt lat="42.64817" lon="1.7007">
        <ele>1709.686</ele>
        <time>2021-07-19T07:52:45Z</time>
      </trkpt>
      <trkpt lat="42.64816" lon="1.7007">
        <ele>1710.218</ele>
        <time>2021-07-19T07:52:47Z</time>
      </trkpt>
      <trkpt lat="42.64814" lon="1.7007">
        <ele>1710.273</ele>
        <time>2021-07-19T07:52:49Z</time>
      </trkpt>
      <trkpt lat="42.64812" lon="1.7007">
        <ele>1709.976</ele>
        <time>2021-07-19T07:52:51Z</time>
      </trkpt>
      <trkpt lat="42.64811" lon="1.7007">
        <ele>1710.757</ele>
        <time>2021-07-19T07:52:53Z</time>
      </trkpt>
      <trkpt lat="42.64809" lon="1.7007">
        <ele>1710.793</ele>
        <time>2021-07-19T07:52:55Z</time>
      </trkpt>
      <trkpt lat="42.64808" lon="1.7007">
        <ele>1711.563</ele>
        <time>2021-07-19T07:52:57Z</time>
      </trkpt>
      <trkpt lat="42.64806" lon="1.7007">
        <ele>1710.642</ele>
        <time>2021-07-19T07:52:59Z</time>
      </trkpt>
      <trkpt lat="42.64804" lon="1.70069">
        <ele>1710.129</ele>
        <time>2021-07-19T07:53:01Z</time>
      </trkpt>
      <trkpt lat="42.64802" lon="1.70068">
        <ele>1709.038</ele>
        <time>2021-07-19T07:53:03Z</time>
      </trkpt>
      <trkpt lat="42.648" lon="1.70069">
        <ele>1709.061</ele>
        <time>2021-07-19T07:53:05Z</time>
      </trkpt>
      <trkpt lat="42.64799" lon="1.70069">
        <ele>1708.042</ele>
        <time>2021-07-19T07:53:07Z</time>
      </trkpt>
      <trkpt lat="42.64797" lon="1.7007">
        <ele>1711.063</ele>
        <time>2021-07-19T07:53:09Z</time>
      </trkpt>
      <trkpt lat="42.64796" lon="1.70069">
        <ele>1712.007</ele>
        <time>2021-07-19T07:53:11Z</time>
      </trkpt>
      <trkpt lat="42.64795" lon="1.70068">
        <ele>1711.956</ele>
        <time>2021-07-19T07:53:13Z</time>
      </trkpt>
      <trkpt lat="42.64793" lon="1.70067">
        <ele>1710.607</ele>
        <time>2021-07-19T07:53:15Z</time>
      </trkpt>
      <trkpt lat="42.64791" lon="1.70065">
        <ele>1711.526</ele>
        <time>2021-07-19T07:53:17Z</time>
      </trkpt>
      <trkpt lat="42.64789" lon="1.70066">
        <ele>1712.898</ele>
        <time>2021-07-19T07:53:19Z</time>
      </trkpt>
      <trkpt lat="42.64788" lon="1.70066">
        <ele>1713.363</ele>
        <time>2021-07-19T07:53:21Z</time>
      </trkpt>
      <trkpt lat="42.64786" lon="1.70066">
        <ele>1713.716</ele>
        <time>2021-07-19T07:53:23Z</time>
      </trkpt>
      <trkpt lat="42.64785" lon="1.70065">
        <ele>1712.43</ele>
        <time>2021-07-19T07:53:25Z</time>
      </trkpt>
      <trkpt lat="42.64783" lon="1.70063">
        <ele>1712.076</ele>
        <time>2021-07-19T07:53:27Z</time>
      </trkpt>
      <trkpt lat="42.64781" lon="1.70062">
        <ele>1712.198</ele>
        <time>2021-07-19T07:53:29Z</time>
      </trkpt>
      <trkpt lat="42.64779" lon="1.70063">
        <ele>1711.075</ele>
        <time>2021-07-19T07:53:31Z</time>
      </trkpt>
      <trkpt lat="42.64777" lon="1.70063">
        <ele>1710.352</ele>
        <time>2021-07-19T07:53:33Z</time>
      </trkpt>
      <trkpt lat="42.64775" lon="1.70063">
        <ele>1709.841</ele>
        <time>2021-07-19T07:53:35Z</time>
      </trkpt>
      <trkpt lat="42.64773" lon="1.70065">
        <ele>1709.407</ele>
        <time>2021-07-19T07:53:37Z</time>
      </trkpt>
      <trkpt lat="42.64772" lon="1.70066">
        <ele>1709.127</ele>
        <time>2021-07-19T07:53:39Z</time>
      </trkpt>
      <trkpt lat="42.6477" lon="1.70067">
        <ele>1709.238</ele>
        <time>2021-07-19T07:53:41Z</time>
      </trkpt>
      <trkpt lat="42.64768" lon="1.70067">
        <ele>1708.547</ele>
        <time>2021-07-19T07:53:43Z</time>
      </trkpt>
      <trkpt lat="42.64766" lon="1.70067">
        <ele>1709.886</ele>
        <time>2021-07-19T07:53:45Z</time>
      </trkpt>
      <trkpt lat="42.64764" lon="1.70068">
        <ele>1709.797</ele>
        <time>2021-07-19T07:53:47Z</time>
      </trkpt>
      <trkpt lat="42.64762" lon="1.70068">
        <ele>1709.339</ele>
        <time>2021-07-19T07:53:49Z</time>
      </trkpt>
      <trkpt lat="42.6476" lon="1.70067">
        <ele>1710.109</ele>
        <time>2021-07-19T07:53:51Z</time>
      </trkpt>
      <trkpt lat="42.64758" lon="1.70067">
        <ele>1709.424</ele>
        <time>2021-07-19T07:53:53Z</time>
      </trkpt>
      <trkpt lat="42.64755" lon="1.70067">
        <ele>1709.52</ele>
        <time>2021-07-19T07:53:55Z</time>
      </trkpt>
      <trkpt lat="42.64754" lon="1.70067">
        <ele>1709.143</ele>
        <time>2021-07-19T07:53:57Z</time>
      </trkpt>
      <trkpt lat="42.64752" lon="1.70066">
        <ele>1708.687</ele>
        <time>2021-07-19T07:53:59Z</time>
      </trkpt>
      <trkpt lat="42.6475" lon="1.70066">
        <ele>1710.345</ele>
        <time>2021-07-19T07:54:01Z</time>
      </trkpt>
      <trkpt lat="42.64748" lon="1.70066">
        <ele>1712.762</ele>
        <time>2021-07-19T07:54:03Z</time>
      </trkpt>
      <trkpt lat="42.64746" lon="1.70065">
        <ele>1712.045</ele>
        <time>2021-07-19T07:54:05Z</time>
      </trkpt>
      <trkpt lat="42.64744" lon="1.70065">
        <ele>1711.743</ele>
        <time>2021-07-19T07:54:07Z</time>
      </trkpt>
      <trkpt lat="42.64742" lon="1.70064">
        <ele>1712.548</ele>
        <time>2021-07-19T07:54:09Z</time>
      </trkpt>
      <trkpt lat="42.6474" lon="1.70063">
        <ele>1712.33</ele>
        <time>2021-07-19T07:54:11Z</time>
      </trkpt>
      <trkpt lat="42.64738" lon="1.70061">
        <ele>1712.509</ele>
        <time>2021-07-19T07:54:13Z</time>
      </trkpt>
      <trkpt lat="42.64737" lon="1.7006">
        <ele>1711.478</ele>
        <time>2021-07-19T07:54:15Z</time>
      </trkpt>
      <trkpt lat="42.64736" lon="1.7006">
        <ele>1711.159</ele>
        <time>2021-07-19T07:54:17Z</time>
      </trkpt>
      <trkpt lat="42.64734" lon="1.70062">
        <ele>1710.407</ele>
        <time>2021-07-19T07:54:19Z</time>
      </trkpt>
      <trkpt lat="42.64732" lon="1.70061">
        <ele>1709.952</ele>
        <time>2021-07-19T07:54:21Z</time>
      </trkpt>
      <trkpt lat="42.6473" lon="1.70061">
        <ele>1710.142</ele>
        <time>2021-07-19T07:54:23Z</time>
      </trkpt>
      <trkpt lat="42.64728" lon="1.7006">
        <ele>1709.618</ele>
        <time>2021-07-19T07:54:25Z</time>
      </trkpt>
      <trkpt lat="42.64726" lon="1.70061">
        <ele>1711.34</ele>
        <time>2021-07-19T07:54:27Z</time>
      </trkpt>
      <trkpt lat="42.64724" lon="1.7006">
        <ele>1712.158</ele>
        <time>2021-07-19T07:54:29Z</time>
      </trkpt>
      <trkpt lat="42.64723" lon="1.7006">
        <ele>1711.244</ele>
        <time>2021-07-19T07:54:31Z</time>
      </trkpt>
      <trkpt lat="42.6472" lon="1.70059">
        <ele>1710.481</ele>
        <time>2021-07-19T07:54:33Z</time>
      </trkpt>
      <trkpt lat="42.64718" lon="1.70059">
        <ele>1709.951</ele>
        <time>2021-07-19T07:54:35Z</time>
      </trkpt>
      <trkpt lat="42.64716" lon="1.70059">
        <ele>1711.918</ele>
        <time>2021-07-19T07:54:37Z</time>
      </trkpt>
      <trkpt lat="42.64714" lon="1.70058">
        <ele>1711.853</ele>
        <time>2021-07-19T07:54:39Z</time>
      </trkpt>
      <trkpt lat="42.64712" lon="1.70058">
        <ele>1712.319</ele>
        <time>2021-07-19T07:54:41Z</time>
      </trkpt>
      <trkpt lat="42.6471" lon="1.70058">
        <ele>1711.906</ele>
        <time>2021-07-19T07:54:43Z</time>
      </trkpt>
      <trkpt lat="42.64708" lon="1.70057">
        <ele>1712.801</ele>
        <time>2021-07-19T07:54:45Z</time>
      </trkpt>
      <trkpt lat="42.64706" lon="1.70057">
        <ele>1713.479</ele>
        <time>2021-07-19T07:54:47Z</time>
      </trkpt>
      <trkpt lat="42.64703" lon="1.70057">
        <ele>1712.413</ele>
        <time>2021-07-19T07:54:49Z</time>
      </trkpt>
      <trkpt lat="42.64701" lon="1.70056">
        <ele>1710.936</ele>
        <time>2021-07-19T07:54:51Z</time>
      </trkpt>
      <trkpt lat="42.64699" lon="1.70055">
        <ele>1710.197</ele>
        <time>2021-07-19T07:54:53Z</time>
      </trkpt>
      <trkpt lat="42.64696" lon="1.70054">
        <ele>1709.774</ele>
        <time>2021-07-19T07:54:55Z</time>
      </trkpt>
      <trkpt lat="42.64694" lon="1.70053">
        <ele>1710.502</ele>
        <time>2021-07-19T07:54:57Z</time>
      </trkpt>
      <trkpt lat="42.64692" lon="1.70053">
        <ele>1709.779</ele>
        <time>2021-07-19T07:54:59Z</time>
      </trkpt>
      <trkpt lat="42.6469" lon="1.70053">
        <ele>1709.665</ele>
        <time>2021-07-19T07:55:01Z</time>
      </trkpt>
      <trkpt lat="42.64688" lon="1.70053">
        <ele>1710.278</ele>
        <time>2021-07-19T07:55:03Z</time>
      </trkpt>
      <trkpt lat="42.64685" lon="1.70053">
        <ele>1710.23</ele>
        <time>2021-07-19T07:55:05Z</time>
      </trkpt>
      <trkpt lat="42.64683" lon="1.70053">
        <ele>1710.579</ele>
        <time>2021-07-19T07:55:07Z</time>
      </trkpt>
      <trkpt lat="42.64681" lon="1.70052">
        <ele>1710.474</ele>
        <time>2021-07-19T07:55:09Z</time>
      </trkpt>
      <trkpt lat="42.64679" lon="1.70051">
        <ele>1710.569</ele>
        <time>2021-07-19T07:55:11Z</time>
      </trkpt>
      <trkpt lat="42.64677" lon="1.7005">
        <ele>1710.293</ele>
        <time>2021-07-19T07:55:13Z</time>
      </trkpt>
      <trkpt lat="42.64674" lon="1.7005">
        <ele>1709.507</ele>
        <time>2021-07-19T07:55:15Z</time>
      </trkpt>
      <trkpt lat="42.64672" lon="1.70049">
        <ele>1708.97</ele>
        <time>2021-07-19T07:55:17Z</time>
      </trkpt>
      <trkpt lat="42.6467" lon="1.70048">
        <ele>1709.852</ele>
        <time>2021-07-19T07:55:19Z</time>
      </trkpt>
      <trkpt lat="42.64668" lon="1.70048">
        <ele>1709.536</ele>
        <time>2021-07-19T07:55:21Z</time>
      </trkpt>
      <trkpt lat="42.64666" lon="1.70046">
        <ele>1709.394</ele>
        <time>2021-07-19T07:55:23Z</time>
      </trkpt>
      <trkpt lat="42.64663" lon="1.70045">
        <ele>1708.401</ele>
        <time>2021-07-19T07:55:25Z</time>
      </trkpt>
      <trkpt lat="42.64661" lon="1.70044">
        <ele>1708.185</ele>
        <time>2021-07-19T07:55:27Z</time>
      </trkpt>
      <trkpt lat="42.64659" lon="1.70042">
        <ele>1709.959</ele>
        <time>2021-07-19T07:55:29Z</time>
      </trkpt>
      <trkpt lat="42.64657" lon="1.70041">
        <ele>1709.578</ele>
        <time>2021-07-19T07:55:31Z</time>
      </trkpt>
      <trkpt lat="42.64656" lon="1.70038">
        <ele>1710.351</ele>
        <time>2021-07-19T07:55:33Z</time>
      </trkpt>
      <trkpt lat="42.64654" lon="1.70035">
        <ele>1711.902</ele>
        <time>2021-07-19T07:55:35Z</time>
      </trkpt>
      <trkpt lat="42.64652" lon="1.70033">
        <ele>1713.931</ele>
        <time>2021-07-19T07:55:37Z</time>
      </trkpt>
      <trkpt lat="42.64651" lon="1.70034">
        <ele>1714.744</ele>
        <time>2021-07-19T07:55:39Z</time>
      </trkpt>
      <trkpt lat="42.64649" lon="1.70034">
        <ele>1715.066</ele>
        <time>2021-07-19T07:55:41Z</time>
      </trkpt>
      <trkpt lat="42.64647" lon="1.70034">
        <ele>1715.922</ele>
        <time>2021-07-19T07:55:43Z</time>
      </trkpt>
      <trkpt lat="42.64645" lon="1.70035">
        <ele>1717.91</ele>
        <time>2021-07-19T07:55:45Z</time>
      </trkpt>
      <trkpt lat="42.64643" lon="1.70036">
        <ele>1716.816</ele>
        <time>2021-07-19T07:55:47Z</time>
      </trkpt>
      <trkpt lat="42.64641" lon="1.70036">
        <ele>1716.11</ele>
        <time>2021-07-19T07:55:49Z</time>
      </trkpt>
      <trkpt lat="42.6464" lon="1.70035">
        <ele>1716.288</ele>
        <time>2021-07-19T07:55:51Z</time>
      </trkpt>
      <trkpt lat="42.64638" lon="1.70036">
        <ele>1715.77</ele>
        <time>2021-07-19T07:55:53Z</time>
      </trkpt>
      <trkpt lat="42.64636" lon="1.70036">
        <ele>1715.927</ele>
        <time>2021-07-19T07:55:55Z</time>
      </trkpt>
      <trkpt lat="42.64636" lon="1.70036">
        <ele>1715.718</ele>
        <time>2021-07-19T07:55:57Z</time>
      </trkpt>
      <trkpt lat="42.64636" lon="1.70036">
        <ele>1715.689</ele>
        <time>2021-07-19T07:55:59Z</time>
      </trkpt>
      <trkpt lat="42.64636" lon="1.70036">
        <ele>1716.561</ele>
        <time>2021-07-19T07:56:01Z</time>
      </trkpt>
      <trkpt lat="42.64634" lon="1.70036">
        <ele>1715.977</ele>
        <time>2021-07-19T07:56:03Z</time>
      </trkpt>
      <trkpt lat="42.64633" lon="1.70035">
        <ele>1716.321</ele>
        <time>2021-07-19T07:56:05Z</time>
      </trkpt>
      <trkpt lat="42.64631" lon="1.70036">
        <ele>1718.197</ele>
        <time>2021-07-19T07:56:07Z</time>
      </trkpt>
      <trkpt lat="42.64629" lon="1.70036">
        <ele>1717.484</ele>
        <time>2021-07-19T07:56:09Z</time>
      </trkpt>
      <trkpt lat="42.64628" lon="1.70036">
        <ele>1716.847</ele>
        <time>2021-07-19T07:56:11Z</time>
      </trkpt>
      <trkpt lat="42.64627" lon="1.70037">
        <ele>1716.46</ele>
        <time>2021-07-19T07:56:13Z</time>
      </trkpt>
      <trkpt lat="42.64626" lon="1.70036">
        <ele>1718.096</ele>
        <time>2021-07-19T07:56:15Z</time>
      </trkpt>
      <trkpt lat="42.64625" lon="1.70035">
        <ele>1718.894</ele>
        <time>2021-07-19T07:56:17Z</time>
      </trkpt>
      <trkpt lat="42.64623" lon="1.70036">
        <ele>1718.529</ele>
        <time>2021-07-19T07:56:19Z</time>
      </trkpt>
      <trkpt lat="42.64622" lon="1.70036">
        <ele>1719.396</ele>
        <time>2021-07-19T07:56:21Z</time>
      </trkpt>
      <trkpt lat="42.6462" lon="1.70036">
        <ele>1719.589</ele>
        <time>2021-07-19T07:56:23Z</time>
      </trkpt>
      <trkpt lat="42.64618" lon="1.70036">
        <ele>1719.902</ele>
        <time>2021-07-19T07:56:25Z</time>
      </trkpt>
      <trkpt lat="42.64618" lon="1.70036">
        <ele>1718.376</ele>
        <time>2021-07-19T07:56:27Z</time>
      </trkpt>
      <trkpt lat="42.64617" lon="1.70036">
        <ele>1720.213</ele>
        <time>2021-07-19T07:56:29Z</time>
      </trkpt>
      <trkpt lat="42.64616" lon="1.70038">
        <ele>1719.563</ele>
        <time>2021-07-19T07:56:31Z</time>
      </trkpt>
      <trkpt lat="42.64615" lon="1.70038">
        <ele>1718.862</ele>
        <time>2021-07-19T07:56:33Z</time>
      </trkpt>
      <trkpt lat="42.64614" lon="1.70039">
        <ele>1716.759</ele>
        <time>2021-07-19T07:56:35Z</time>
      </trkpt>
      <trkpt lat="42.64613" lon="1.7004">
        <ele>1716.522</ele>
        <time>2021-07-19T07:56:37Z</time>
      </trkpt>
      <trkpt lat="42.64612" lon="1.70042">
        <ele>1715.742</ele>
        <time>2021-07-19T07:56:39Z</time>
      </trkpt>
      <trkpt lat="42.6461" lon="1.70043">
        <ele>1715.25</ele>
        <time>2021-07-19T07:56:41Z</time>
      </trkpt>
      <trkpt lat="42.64609" lon="1.70044">
        <ele>1714.132</ele>
        <time>2021-07-19T07:56:43Z</time>
      </trkpt>
      <trkpt lat="42.64607" lon="1.70047">
        <ele>1713.037</ele>
        <time>2021-07-19T07:56:45Z</time>
      </trkpt>
      <trkpt lat="42.64606" lon="1.70049">
        <ele>1713.079</ele>
        <time>2021-07-19T07:56:47Z</time>
      </trkpt>
      <trkpt lat="42.64604" lon="1.70052">
        <ele>1712.328</ele>
        <time>2021-07-19T07:56:49Z</time>
      </trkpt>
      <trkpt lat="42.64603" lon="1.70053">
        <ele>1712.608</ele>
        <time>2021-07-19T07:56:51Z</time>
      </trkpt>
      <trkpt lat="42.64601" lon="1.70054">
        <ele>1711.344</ele>
        <time>2021-07-19T07:56:53Z</time>
      </trkpt>
      <trkpt lat="42.64599" lon="1.70054">
        <ele>1711.439</ele>
        <time>2021-07-19T07:56:55Z</time>
      </trkpt>
      <trkpt lat="42.64598" lon="1.70053">
        <ele>1711.714</ele>
        <time>2021-07-19T07:56:57Z</time>
      </trkpt>
      <trkpt lat="42.64596" lon="1.70051">
        <ele>1711.808</ele>
        <time>2021-07-19T07:56:59Z</time>
      </trkpt>
      <trkpt lat="42.64595" lon="1.7005">
        <ele>1714.115</ele>
        <time>2021-07-19T07:57:01Z</time>
      </trkpt>
      <trkpt lat="42.64594" lon="1.70048">
        <ele>1715.507</ele>
        <time>2021-07-19T07:57:03Z</time>
      </trkpt>
      <trkpt lat="42.64592" lon="1.70049">
        <ele>1714.668</ele>
        <time>2021-07-19T07:57:05Z</time>
      </trkpt>
      <trkpt lat="42.64591" lon="1.70049">
        <ele>1715.768</ele>
        <time>2021-07-19T07:57:07Z</time>
      </trkpt>
      <trkpt lat="42.64589" lon="1.7005">
        <ele>1715.782</ele>
        <time>2021-07-19T07:57:09Z</time>
      </trkpt>
      <trkpt lat="42.64589" lon="1.70053">
        <ele>1715.18</ele>
        <time>2021-07-19T07:57:11Z</time>
      </trkpt>
      <trkpt lat="42.6459" lon="1.70053">
        <ele>1714.867</ele>
        <time>2021-07-19T07:57:13Z</time>
      </trkpt>
      <trkpt lat="42.64589" lon="1.70054">
        <ele>1716.209</ele>
        <time>2021-07-19T07:57:15Z</time>
      </trkpt>
      <trkpt lat="42.64588" lon="1.70054">
        <ele>1716.669</ele>
        <time>2021-07-19T07:57:17Z</time>
      </trkpt>
      <trkpt lat="42.64587" lon="1.70053">
        <ele>1716.281</ele>
        <time>2021-07-19T07:57:19Z</time>
      </trkpt>
      <trkpt lat="42.64585" lon="1.70053">
        <ele>1717.665</ele>
        <time>2021-07-19T07:57:21Z</time>
      </trkpt>
      <trkpt lat="42.64584" lon="1.70053">
        <ele>1716.237</ele>
        <time>2021-07-19T07:57:23Z</time>
      </trkpt>
      <trkpt lat="42.64582" lon="1.70052">
        <ele>1715.326</ele>
        <time>2021-07-19T07:57:25Z</time>
      </trkpt>
      <trkpt lat="42.6458" lon="1.70052">
        <ele>1714.819</ele>
        <time>2021-07-19T07:57:27Z</time>
      </trkpt>
      <trkpt lat="42.64578" lon="1.70053">
        <ele>1716.939</ele>
        <time>2021-07-19T07:57:29Z</time>
      </trkpt>
      <trkpt lat="42.64577" lon="1.70053">
        <ele>1714.976</ele>
        <time>2021-07-19T07:57:31Z</time>
      </trkpt>
      <trkpt lat="42.64575" lon="1.70054">
        <ele>1714.853</ele>
        <time>2021-07-19T07:57:33Z</time>
      </trkpt>
      <trkpt lat="42.64574" lon="1.70055">
        <ele>1714.061</ele>
        <time>2021-07-19T07:57:35Z</time>
      </trkpt>
      <trkpt lat="42.64572" lon="1.70056">
        <ele>1713.393</ele>
        <time>2021-07-19T07:57:37Z</time>
      </trkpt>
      <trkpt lat="42.6457" lon="1.70056">
        <ele>1712.27</ele>
        <time>2021-07-19T07:57:39Z</time>
      </trkpt>
      <trkpt lat="42.64568" lon="1.70056">
        <ele>1712.245</ele>
        <time>2021-07-19T07:57:41Z</time>
      </trkpt>
      <trkpt lat="42.64567" lon="1.70057">
        <ele>1711.862</ele>
        <time>2021-07-19T07:57:43Z</time>
      </trkpt>
      <trkpt lat="42.64565" lon="1.70058">
        <ele>1712.007</ele>
        <time>2021-07-19T07:57:45Z</time>
      </trkpt>
      <trkpt lat="42.64562" lon="1.70059">
        <ele>1712.026</ele>
        <time>2021-07-19T07:57:47Z</time>
      </trkpt>
      <trkpt lat="42.6456" lon="1.70059">
        <ele>1715.084</ele>
        <time>2021-07-19T07:57:49Z</time>
      </trkpt>
      <trkpt lat="42.64558" lon="1.7006">
        <ele>1713.857</ele>
        <time>2021-07-19T07:57:51Z</time>
      </trkpt>
      <trkpt lat="42.64556" lon="1.70059">
        <ele>1714.03</ele>
        <time>2021-07-19T07:57:53Z</time>
      </trkpt>
      <trkpt lat="42.64554" lon="1.70059">
        <ele>1714.228</ele>
        <time>2021-07-19T07:57:55Z</time>
      </trkpt>
      <trkpt lat="42.64552" lon="1.70059">
        <ele>1714.072</ele>
        <time>2021-07-19T07:57:57Z</time>
      </trkpt>
      <trkpt lat="42.64549" lon="1.70059">
        <ele>1715.631</ele>
        <time>2021-07-19T07:57:59Z</time>
      </trkpt>
      <trkpt lat="42.64547" lon="1.70058">
        <ele>1714.983</ele>
        <time>2021-07-19T07:58:01Z</time>
      </trkpt>
      <trkpt lat="42.64545" lon="1.70059">
        <ele>1714.072</ele>
        <time>2021-07-19T07:58:03Z</time>
      </trkpt>
      <trkpt lat="42.64543" lon="1.70059">
        <ele>1713.947</ele>
        <time>2021-07-19T07:58:05Z</time>
      </trkpt>
      <trkpt lat="42.6454" lon="1.70059">
        <ele>1713.875</ele>
        <time>2021-07-19T07:58:07Z</time>
      </trkpt>
      <trkpt lat="42.64538" lon="1.70058">
        <ele>1713.231</ele>
        <time>2021-07-19T07:58:09Z</time>
      </trkpt>
      <trkpt lat="42.64536" lon="1.70056">
        <ele>1711.653</ele>
        <time>2021-07-19T07:58:11Z</time>
      </trkpt>
      <trkpt lat="42.64534" lon="1.70055">
        <ele>1713.18</ele>
        <time>2021-07-19T07:58:13Z</time>
      </trkpt>
      <trkpt lat="42.64531" lon="1.70055">
        <ele>1713.909</ele>
        <time>2021-07-19T07:58:15Z</time>
      </trkpt>
      <trkpt lat="42.64529" lon="1.70054">
        <ele>1713.569</ele>
        <time>2021-07-19T07:58:17Z</time>
      </trkpt>
      <trkpt lat="42.64527" lon="1.70054">
        <ele>1714.402</ele>
        <time>2021-07-19T07:58:19Z</time>
      </trkpt>
      <trkpt lat="42.64524" lon="1.70053">
        <ele>1714.339</ele>
        <time>2021-07-19T07:58:21Z</time>
      </trkpt>
      <trkpt lat="42.64521" lon="1.70051">
        <ele>1715.081</ele>
        <time>2021-07-19T07:58:23Z</time>
      </trkpt>
      <trkpt lat="42.64519" lon="1.70049">
        <ele>1715.373</ele>
        <time>2021-07-19T07:58:25Z</time>
      </trkpt>
      <trkpt lat="42.64517" lon="1.70048">
        <ele>1716.675</ele>
        <time>2021-07-19T07:58:27Z</time>
      </trkpt>
      <trkpt lat="42.64515" lon="1.70046">
        <ele>1719.196</ele>
        <time>2021-07-19T07:58:29Z</time>
      </trkpt>
      <trkpt lat="42.64512" lon="1.70045">
        <ele>1719.234</ele>
        <time>2021-07-19T07:58:31Z</time>
      </trkpt>
      <trkpt lat="42.6451" lon="1.70046">
        <ele>1719.243</ele>
        <time>2021-07-19T07:58:33Z</time>
      </trkpt>
      <trkpt lat="42.64508" lon="1.70046">
        <ele>1719.987</ele>
        <time>2021-07-19T07:58:35Z</time>
      </trkpt>
      <trkpt lat="42.64506" lon="1.70045">
        <ele>1719.993</ele>
        <time>2021-07-19T07:58:37Z</time>
      </trkpt>
      <trkpt lat="42.64504" lon="1.70045">
        <ele>1719.844</ele>
        <time>2021-07-19T07:58:39Z</time>
      </trkpt>
      <trkpt lat="42.64502" lon="1.70045">
        <ele>1721.49</ele>
        <time>2021-07-19T07:58:41Z</time>
      </trkpt>
      <trkpt lat="42.645" lon="1.70045">
        <ele>1720.368</ele>
        <time>2021-07-19T07:58:43Z</time>
      </trkpt>
      <trkpt lat="42.64498" lon="1.70045">
        <ele>1720.761</ele>
        <time>2021-07-19T07:58:45Z</time>
      </trkpt>
      <trkpt lat="42.64495" lon="1.70045">
        <ele>1720.791</ele>
        <time>2021-07-19T07:58:47Z</time>
      </trkpt>
      <trkpt lat="42.64493" lon="1.70045">
        <ele>1721.034</ele>
        <time>2021-07-19T07:58:49Z</time>
      </trkpt>
      <trkpt lat="42.64491" lon="1.70043">
        <ele>1720.967</ele>
        <time>2021-07-19T07:58:51Z</time>
      </trkpt>
      <trkpt lat="42.64489" lon="1.70043">
        <ele>1721.615</ele>
        <time>2021-07-19T07:58:53Z</time>
      </trkpt>
      <trkpt lat="42.64487" lon="1.70043">
        <ele>1721.489</ele>
        <time>2021-07-19T07:58:55Z</time>
      </trkpt>
      <trkpt lat="42.64484" lon="1.70043">
        <ele>1722.378</ele>
        <time>2021-07-19T07:58:57Z</time>
      </trkpt>
      <trkpt lat="42.64482" lon="1.70041">
        <ele>1723.114</ele>
        <time>2021-07-19T07:58:59Z</time>
      </trkpt>
      <trkpt lat="42.64479" lon="1.70039">
        <ele>1723.498</ele>
        <time>2021-07-19T07:59:01Z</time>
      </trkpt>
      <trkpt lat="42.64477" lon="1.70036">
        <ele>1724.108</ele>
        <time>2021-07-19T07:59:03Z</time>
      </trkpt>
      <trkpt lat="42.64475" lon="1.70035">
        <ele>1726.779</ele>
        <time>2021-07-19T07:59:05Z</time>
      </trkpt>
      <trkpt lat="42.64473" lon="1.70033">
        <ele>1726.962</ele>
        <time>2021-07-19T07:59:07Z</time>
      </trkpt>
      <trkpt lat="42.64471" lon="1.70033">
        <ele>1728.57</ele>
        <time>2021-07-19T07:59:09Z</time>
      </trkpt>
      <trkpt lat="42.6447" lon="1.70033">
        <ele>1729.593</ele>
        <time>2021-07-19T07:59:11Z</time>
      </trkpt>
      <trkpt lat="42.64468" lon="1.70032">
        <ele>1729.367</ele>
        <time>2021-07-19T07:59:13Z</time>
      </trkpt>
      <trkpt lat="42.64467" lon="1.7003">
        <ele>1729.784</ele>
        <time>2021-07-19T07:59:15Z</time>
      </trkpt>
      <trkpt lat="42.64465" lon="1.70029">
        <ele>1730.048</ele>
        <time>2021-07-19T07:59:17Z</time>
      </trkpt>
      <trkpt lat="42.64463" lon="1.7003">
        <ele>1729.395</ele>
        <time>2021-07-19T07:59:19Z</time>
      </trkpt>
      <trkpt lat="42.64461" lon="1.7003">
        <ele>1729.033</ele>
        <time>2021-07-19T07:59:21Z</time>
      </trkpt>
      <trkpt lat="42.64459" lon="1.7003">
        <ele>1727.857</ele>
        <time>2021-07-19T07:59:23Z</time>
      </trkpt>
      <trkpt lat="42.64457" lon="1.70029">
        <ele>1727.093</ele>
        <time>2021-07-19T07:59:25Z</time>
      </trkpt>
      <trkpt lat="42.64455" lon="1.70028">
        <ele>1725.736</ele>
        <time>2021-07-19T07:59:27Z</time>
      </trkpt>
      <trkpt lat="42.64453" lon="1.70027">
        <ele>1726.343</ele>
        <time>2021-07-19T07:59:29Z</time>
      </trkpt>
      <trkpt lat="42.64451" lon="1.70028">
        <ele>1725.804</ele>
        <time>2021-07-19T07:59:31Z</time>
      </trkpt>
      <trkpt lat="42.64449" lon="1.70028">
        <ele>1725.427</ele>
        <time>2021-07-19T07:59:33Z</time>
      </trkpt>
      <trkpt lat="42.64447" lon="1.70029">
        <ele>1725.679</ele>
        <time>2021-07-19T07:59:35Z</time>
      </trkpt>
      <trkpt lat="42.64445" lon="1.70029">
        <ele>1726.18</ele>
        <time>2021-07-19T07:59:37Z</time>
      </trkpt>
      <trkpt lat="42.64442" lon="1.70028">
        <ele>1725.737</ele>
        <time>2021-07-19T07:59:39Z</time>
      </trkpt>
      <trkpt lat="42.6444" lon="1.70026">
        <ele>1725.392</ele>
        <time>2021-07-19T07:59:41Z</time>
      </trkpt>
      <trkpt lat="42.64438" lon="1.70024">
        <ele>1726.505</ele>
        <time>2021-07-19T07:59:43Z</time>
      </trkpt>
      <trkpt lat="42.64437" lon="1.70023">
        <ele>1726.194</ele>
        <time>2021-07-19T07:59:45Z</time>
      </trkpt>
      <trkpt lat="42.64435" lon="1.70022">
        <ele>1726.553</ele>
        <time>2021-07-19T07:59:47Z</time>
      </trkpt>
      <trkpt lat="42.64433" lon="1.7002">
        <ele>1727.401</ele>
        <time>2021-07-19T07:59:49Z</time>
      </trkpt>
      <trkpt lat="42.64431" lon="1.70018">
        <ele>1728.356</ele>
        <time>2021-07-19T07:59:51Z</time>
      </trkpt>
      <trkpt lat="42.64429" lon="1.70017">
        <ele>1728.685</ele>
        <time>2021-07-19T07:59:53Z</time>
      </trkpt>
      <trkpt lat="42.64427" lon="1.70016">
        <ele>1728.94</ele>
        <time>2021-07-19T07:59:55Z</time>
      </trkpt>
      <trkpt lat="42.64425" lon="1.70014">
        <ele>1729.676</ele>
        <time>2021-07-19T07:59:57Z</time>
      </trkpt>
      <trkpt lat="42.64423" lon="1.70012">
        <ele>1730.858</ele>
        <time>2021-07-19T07:59:59Z</time>
      </trkpt>
      <trkpt lat="42.64421" lon="1.70009">
        <ele>1731.239</ele>
        <time>2021-07-19T08:00:01Z</time>
      </trkpt>
      <trkpt lat="42.64419" lon="1.70007">
        <ele>1731.602</ele>
        <time>2021-07-19T08:00:03Z</time>
      </trkpt>
      <trkpt lat="42.64416" lon="1.70005">
        <ele>1732.482</ele>
        <time>2021-07-19T08:00:05Z</time>
      </trkpt>
      <trkpt lat="42.64414" lon="1.70003">
        <ele>1733.591</ele>
        <time>2021-07-19T08:00:07Z</time>
      </trkpt>
      <trkpt lat="42.64413" lon="1.70003">
        <ele>1733.767</ele>
        <time>2021-07-19T08:00:09Z</time>
      </trkpt>
      <trkpt lat="42.64411" lon="1.70003">
        <ele>1733.946</ele>
        <time>2021-07-19T08:00:11Z</time>
      </trkpt>
      <trkpt lat="42.6441" lon="1.70002">
        <ele>1733.36</ele>
        <time>2021-07-19T08:00:13Z</time>
      </trkpt>
      <trkpt lat="42.64409" lon="1.70001">
        <ele>1734.532</ele>
        <time>2021-07-19T08:00:15Z</time>
      </trkpt>
      <trkpt lat="42.64407" lon="1.7">
        <ele>1735.636</ele>
        <time>2021-07-19T08:00:17Z</time>
      </trkpt>
      <trkpt lat="42.64406" lon="1.69998">
        <ele>1735.47</ele>
        <time>2021-07-19T08:00:19Z</time>
      </trkpt>
      <trkpt lat="42.64404" lon="1.69998">
        <ele>1735.33</ele>
        <time>2021-07-19T08:00:21Z</time>
      </trkpt>
      <trkpt lat="42.64402" lon="1.69997">
        <ele>1736.873</ele>
        <time>2021-07-19T08:00:23Z</time>
      </trkpt>
      <trkpt lat="42.64401" lon="1.69996">
        <ele>1737.243</ele>
        <time>2021-07-19T08:00:25Z</time>
      </trkpt>
      <trkpt lat="42.644" lon="1.69993">
        <ele>1737.288</ele>
        <time>2021-07-19T08:00:27Z</time>
      </trkpt>
      <trkpt lat="42.644" lon="1.69992">
        <ele>1736.354</ele>
        <time>2021-07-19T08:00:29Z</time>
      </trkpt>
      <trkpt lat="42.64399" lon="1.69991">
        <ele>1736.135</ele>
        <time>2021-07-19T08:00:31Z</time>
      </trkpt>
      <trkpt lat="42.644" lon="1.69989">
        <ele>1734.302</ele>
        <time>2021-07-19T08:00:33Z</time>
      </trkpt>
      <trkpt lat="42.644" lon="1.69989">
        <ele>1733.778</ele>
        <time>2021-07-19T08:00:35Z</time>
      </trkpt>
      <trkpt lat="42.64398" lon="1.69989">
        <ele>1734.095</ele>
        <time>2021-07-19T08:00:37Z</time>
      </trkpt>
      <trkpt lat="42.64397" lon="1.69988">
        <ele>1733.928</ele>
        <time>2021-07-19T08:00:39Z</time>
      </trkpt>
      <trkpt lat="42.64395" lon="1.69987">
        <ele>1734.419</ele>
        <time>2021-07-19T08:00:41Z</time>
      </trkpt>
      <trkpt lat="42.64394" lon="1.69985">
        <ele>1734.404</ele>
        <time>2021-07-19T08:00:43Z</time>
      </trkpt>
      <trkpt lat="42.64392" lon="1.69984">
        <ele>1734.246</ele>
        <time>2021-07-19T08:00:45Z</time>
      </trkpt>
      <trkpt lat="42.64391" lon="1.69982">
        <ele>1734.682</ele>
        <time>2021-07-19T08:00:47Z</time>
      </trkpt>
      <trkpt lat="42.6439" lon="1.69981">
        <ele>1735.026</ele>
        <time>2021-07-19T08:00:49Z</time>
      </trkpt>
      <trkpt lat="42.64388" lon="1.6998">
        <ele>1734.439</ele>
        <time>2021-07-19T08:00:51Z</time>
      </trkpt>
      <trkpt lat="42.64387" lon="1.6998">
        <ele>1734.266</ele>
        <time>2021-07-19T08:00:53Z</time>
      </trkpt>
      <trkpt lat="42.64385" lon="1.6998">
        <ele>1734.943</ele>
        <time>2021-07-19T08:00:55Z</time>
      </trkpt>
      <trkpt lat="42.64383" lon="1.69978">
        <ele>1735.811</ele>
        <time>2021-07-19T08:00:57Z</time>
      </trkpt>
      <trkpt lat="42.6438" lon="1.69978">
        <ele>1736.935</ele>
        <time>2021-07-19T08:00:59Z</time>
      </trkpt>
      <trkpt lat="42.64378" lon="1.69979">
        <ele>1737.281</ele>
        <time>2021-07-19T08:01:01Z</time>
      </trkpt>
      <trkpt lat="42.64375" lon="1.69978">
        <ele>1738.304</ele>
        <time>2021-07-19T08:01:03Z</time>
      </trkpt>
      <trkpt lat="42.64372" lon="1.69978">
        <ele>1737.773</ele>
        <time>2021-07-19T08:01:05Z</time>
      </trkpt>
      <trkpt lat="42.6437" lon="1.69978">
        <ele>1738.201</ele>
        <time>2021-07-19T08:01:07Z</time>
      </trkpt>
      <trkpt lat="42.64368" lon="1.69979">
        <ele>1737.966</ele>
        <time>2021-07-19T08:01:09Z</time>
      </trkpt>
      <trkpt lat="42.64366" lon="1.69977">
        <ele>1737.33</ele>
        <time>2021-07-19T08:01:11Z</time>
      </trkpt>
      <trkpt lat="42.64364" lon="1.69976">
        <ele>1738.211</ele>
        <time>2021-07-19T08:01:13Z</time>
      </trkpt>
      <trkpt lat="42.64362" lon="1.69976">
        <ele>1738.947</ele>
        <time>2021-07-19T08:01:15Z</time>
      </trkpt>
      <trkpt lat="42.6436" lon="1.69976">
        <ele>1739.701</ele>
        <time>2021-07-19T08:01:17Z</time>
      </trkpt>
      <trkpt lat="42.64357" lon="1.69975">
        <ele>1739.467</ele>
        <time>2021-07-19T08:01:19Z</time>
      </trkpt>
      <trkpt lat="42.64355" lon="1.69974">
        <ele>1740.242</ele>
        <time>2021-07-19T08:01:21Z</time>
      </trkpt>
      <trkpt lat="42.64352" lon="1.69974">
        <ele>1740.084</ele>
        <time>2021-07-19T08:01:23Z</time>
      </trkpt>
      <trkpt lat="42.6435" lon="1.69973">
        <ele>1740.993</ele>
        <time>2021-07-19T08:01:25Z</time>
      </trkpt>
      <trkpt lat="42.64349" lon="1.69971">
        <ele>1742.366</ele>
        <time>2021-07-19T08:01:27Z</time>
      </trkpt>
      <trkpt lat="42.64347" lon="1.6997">
        <ele>1742.749</ele>
        <time>2021-07-19T08:01:29Z</time>
      </trkpt>
      <trkpt lat="42.64345" lon="1.69969">
        <ele>1742.734</ele>
        <time>2021-07-19T08:01:31Z</time>
      </trkpt>
      <trkpt lat="42.64344" lon="1.69968">
        <ele>1743.474</ele>
        <time>2021-07-19T08:01:33Z</time>
      </trkpt>
      <trkpt lat="42.64341" lon="1.69968">
        <ele>1743.091</ele>
        <time>2021-07-19T08:01:35Z</time>
      </trkpt>
      <trkpt lat="42.6434" lon="1.69967">
        <ele>1743.321</ele>
        <time>2021-07-19T08:01:37Z</time>
      </trkpt>
      <trkpt lat="42.64337" lon="1.69966">
        <ele>1743.487</ele>
        <time>2021-07-19T08:01:39Z</time>
      </trkpt>
      <trkpt lat="42.64335" lon="1.69965">
        <ele>1743.245</ele>
        <time>2021-07-19T08:01:41Z</time>
      </trkpt>
      <trkpt lat="42.64333" lon="1.69964">
        <ele>1743.901</ele>
        <time>2021-07-19T08:01:43Z</time>
      </trkpt>
      <trkpt lat="42.64332" lon="1.69962">
        <ele>1744.921</ele>
        <time>2021-07-19T08:01:45Z</time>
      </trkpt>
      <trkpt lat="42.6433" lon="1.69962">
        <ele>1745.381</ele>
        <time>2021-07-19T08:01:47Z</time>
      </trkpt>
      <trkpt lat="42.64327" lon="1.69961">
        <ele>1745.414</ele>
        <time>2021-07-19T08:01:49Z</time>
      </trkpt>
      <trkpt lat="42.64325" lon="1.6996">
        <ele>1744.929</ele>
        <time>2021-07-19T08:01:51Z</time>
      </trkpt>
      <trkpt lat="42.64323" lon="1.6996">
        <ele>1745.765</ele>
        <time>2021-07-19T08:01:53Z</time>
      </trkpt>
      <trkpt lat="42.64321" lon="1.69959">
        <ele>1746.656</ele>
        <time>2021-07-19T08:01:55Z</time>
      </trkpt>
      <trkpt lat="42.64318" lon="1.69958">
        <ele>1746.266</ele>
        <time>2021-07-19T08:01:57Z</time>
      </trkpt>
      <trkpt lat="42.64316" lon="1.69957">
        <ele>1745.748</ele>
        <time>2021-07-19T08:01:59Z</time>
      </trkpt>
      <trkpt lat="42.64314" lon="1.69956">
        <ele>1746.339</ele>
        <time>2021-07-19T08:02:01Z</time>
      </trkpt>
      <trkpt lat="42.64312" lon="1.69954">
        <ele>1746.147</ele>
        <time>2021-07-19T08:02:03Z</time>
      </trkpt>
      <trkpt lat="42.6431" lon="1.69952">
        <ele>1746.541</ele>
        <time>2021-07-19T08:02:05Z</time>
      </trkpt>
      <trkpt lat="42.64308" lon="1.69951">
        <ele>1747.12</ele>
        <time>2021-07-19T08:02:07Z</time>
      </trkpt>
      <trkpt lat="42.64306" lon="1.69949">
        <ele>1746.49</ele>
        <time>2021-07-19T08:02:09Z</time>
      </trkpt>
      <trkpt lat="42.64304" lon="1.69947">
        <ele>1745.192</ele>
        <time>2021-07-19T08:02:11Z</time>
      </trkpt>
      <trkpt lat="42.64303" lon="1.69945">
        <ele>1745.502</ele>
        <time>2021-07-19T08:02:13Z</time>
      </trkpt>
      <trkpt lat="42.64301" lon="1.69944">
        <ele>1744.792</ele>
        <time>2021-07-19T08:02:15Z</time>
      </trkpt>
      <trkpt lat="42.64299" lon="1.69942">
        <ele>1745.013</ele>
        <time>2021-07-19T08:02:17Z</time>
      </trkpt>
      <trkpt lat="42.64297" lon="1.69941">
        <ele>1744.73</ele>
        <time>2021-07-19T08:02:19Z</time>
      </trkpt>
      <trkpt lat="42.64295" lon="1.69941">
        <ele>1742.993</ele>
        <time>2021-07-19T08:02:21Z</time>
      </trkpt>
      <trkpt lat="42.64293" lon="1.69941">
        <ele>1742.655</ele>
        <time>2021-07-19T08:02:23Z</time>
      </trkpt>
      <trkpt lat="42.64292" lon="1.69938">
        <ele>1742.296</ele>
        <time>2021-07-19T08:02:25Z</time>
      </trkpt>
      <trkpt lat="42.6429" lon="1.69936">
        <ele>1741.509</ele>
        <time>2021-07-19T08:02:27Z</time>
      </trkpt>
      <trkpt lat="42.64289" lon="1.69935">
        <ele>1741.207</ele>
        <time>2021-07-19T08:02:29Z</time>
      </trkpt>
      <trkpt lat="42.64287" lon="1.69933">
        <ele>1740.995</ele>
        <time>2021-07-19T08:02:31Z</time>
      </trkpt>
      <trkpt lat="42.64285" lon="1.69932">
        <ele>1742.357</ele>
        <time>2021-07-19T08:02:33Z</time>
      </trkpt>
      <trkpt lat="42.64283" lon="1.69931">
        <ele>1742.171</ele>
        <time>2021-07-19T08:02:35Z</time>
      </trkpt>
      <trkpt lat="42.64282" lon="1.69931">
        <ele>1741.03</ele>
        <time>2021-07-19T08:02:37Z</time>
      </trkpt>
      <trkpt lat="42.64281" lon="1.69932">
        <ele>1740.432</ele>
        <time>2021-07-19T08:02:39Z</time>
      </trkpt>
      <trkpt lat="42.64279" lon="1.69931">
        <ele>1740.608</ele>
        <time>2021-07-19T08:02:41Z</time>
      </trkpt>
      <trkpt lat="42.64278" lon="1.69929">
        <ele>1740.498</ele>
        <time>2021-07-19T08:02:43Z</time>
      </trkpt>
      <trkpt lat="42.64276" lon="1.69929">
        <ele>1740.196</ele>
        <time>2021-07-19T08:02:45Z</time>
      </trkpt>
      <trkpt lat="42.64274" lon="1.69928">
        <ele>1740.338</ele>
        <time>2021-07-19T08:02:47Z</time>
      </trkpt>
      <trkpt lat="42.64272" lon="1.69927">
        <ele>1741.342</ele>
        <time>2021-07-19T08:02:49Z</time>
      </trkpt>
      <trkpt lat="42.6427" lon="1.69925">
        <ele>1741.135</ele>
        <time>2021-07-19T08:02:51Z</time>
      </trkpt>
      <trkpt lat="42.64269" lon="1.69924">
        <ele>1741.194</ele>
        <time>2021-07-19T08:02:53Z</time>
      </trkpt>
      <trkpt lat="42.64268" lon="1.69923">
        <ele>1739.809</ele>
        <time>2021-07-19T08:02:55Z</time>
      </trkpt>
      <trkpt lat="42.64266" lon="1.69921">
        <ele>1739.454</ele>
        <time>2021-07-19T08:02:57Z</time>
      </trkpt>
      <trkpt lat="42.64263" lon="1.69921">
        <ele>1740.049</ele>
        <time>2021-07-19T08:02:59Z</time>
      </trkpt>
      <trkpt lat="42.64261" lon="1.69921">
        <ele>1740.659</ele>
        <time>2021-07-19T08:03:01Z</time>
      </trkpt>
      <trkpt lat="42.6426" lon="1.6992">
        <ele>1741.469</ele>
        <time>2021-07-19T08:03:03Z</time>
      </trkpt>
      <trkpt lat="42.64259" lon="1.6992">
        <ele>1742.379</ele>
        <time>2021-07-19T08:03:05Z</time>
      </trkpt>
      <trkpt lat="42.64259" lon="1.69922">
        <ele>1743.651</ele>
        <time>2021-07-19T08:03:07Z</time>
      </trkpt>
      <trkpt lat="42.64259" lon="1.69925">
        <ele>1741.67</ele>
        <time>2021-07-19T08:03:09Z</time>
      </trkpt>
      <trkpt lat="42.64255" lon="1.69925">
        <ele>1742.255</ele>
        <time>2021-07-19T08:03:11Z</time>
      </trkpt>
      <trkpt lat="42.64254" lon="1.69923">
        <ele>1742.311</ele>
        <time>2021-07-19T08:03:13Z</time>
      </trkpt>
      <trkpt lat="42.64252" lon="1.69922">
        <ele>1742.231</ele>
        <time>2021-07-19T08:03:15Z</time>
      </trkpt>
      <trkpt lat="42.64251" lon="1.69921">
        <ele>1743.047</ele>
        <time>2021-07-19T08:03:17Z</time>
      </trkpt>
      <trkpt lat="42.6425" lon="1.69919">
        <ele>1743.23</ele>
        <time>2021-07-19T08:03:19Z</time>
      </trkpt>
      <trkpt lat="42.64249" lon="1.69917">
        <ele>1744.608</ele>
        <time>2021-07-19T08:03:21Z</time>
      </trkpt>
      <trkpt lat="42.64247" lon="1.69915">
        <ele>1745.225</ele>
        <time>2021-07-19T08:03:23Z</time>
      </trkpt>
      <trkpt lat="42.64246" lon="1.69914">
        <ele>1744.303</ele>
        <time>2021-07-19T08:03:25Z</time>
      </trkpt>
      <trkpt lat="42.64244" lon="1.69913">
        <ele>1743.847</ele>
        <time>2021-07-19T08:03:27Z</time>
      </trkpt>
      <trkpt lat="42.64243" lon="1.69913">
        <ele>1744.375</ele>
        <time>2021-07-19T08:03:29Z</time>
      </trkpt>
      <trkpt lat="42.64241" lon="1.69912">
        <ele>1744.445</ele>
        <time>2021-07-19T08:03:31Z</time>
      </trkpt>
      <trkpt lat="42.64239" lon="1.69911">
        <ele>1745.19</ele>
        <time>2021-07-19T08:03:33Z</time>
      </trkpt>
      <trkpt lat="42.64238" lon="1.6991">
        <ele>1744.912</ele>
        <time>2021-07-19T08:03:35Z</time>
      </trkpt>
      <trkpt lat="42.64236" lon="1.69909">
        <ele>1746.03</ele>
        <time>2021-07-19T08:03:37Z</time>
      </trkpt>
      <trkpt lat="42.64234" lon="1.69908">
        <ele>1746.794</ele>
        <time>2021-07-19T08:03:39Z</time>
      </trkpt>
      <trkpt lat="42.64233" lon="1.69906">
        <ele>1747.815</ele>
        <time>2021-07-19T08:03:41Z</time>
      </trkpt>
      <trkpt lat="42.64233" lon="1.69904">
        <ele>1748.385</ele>
        <time>2021-07-19T08:03:43Z</time>
      </trkpt>
      <trkpt lat="42.64232" lon="1.69903">
        <ele>1748.291</ele>
        <time>2021-07-19T08:03:45Z</time>
      </trkpt>
      <trkpt lat="42.64231" lon="1.699">
        <ele>1747.846</ele>
        <time>2021-07-19T08:03:47Z</time>
      </trkpt>
      <trkpt lat="42.6423" lon="1.69899">
        <ele>1748.65</ele>
        <time>2021-07-19T08:03:49Z</time>
      </trkpt>
      <trkpt lat="42.64229" lon="1.69897">
        <ele>1749.725</ele>
        <time>2021-07-19T08:03:51Z</time>
      </trkpt>
      <trkpt lat="42.64227" lon="1.69896">
        <ele>1750.846</ele>
        <time>2021-07-19T08:03:53Z</time>
      </trkpt>
      <trkpt lat="42.64226" lon="1.69895">
        <ele>1751.832</ele>
        <time>2021-07-19T08:03:55Z</time>
      </trkpt>
      <trkpt lat="42.64225" lon="1.69894">
        <ele>1752.674</ele>
        <time>2021-07-19T08:03:57Z</time>
      </trkpt>
      <trkpt lat="42.64223" lon="1.69894">
        <ele>1752.694</ele>
        <time>2021-07-19T08:03:59Z</time>
      </trkpt>
      <trkpt lat="42.64222" lon="1.69893">
        <ele>1752.718</ele>
        <time>2021-07-19T08:04:01Z</time>
      </trkpt>
      <trkpt lat="42.6422" lon="1.69894">
        <ele>1753.165</ele>
        <time>2021-07-19T08:04:03Z</time>
      </trkpt>
      <trkpt lat="42.64218" lon="1.69893">
        <ele>1753.433</ele>
        <time>2021-07-19T08:04:05Z</time>
      </trkpt>
      <trkpt lat="42.64216" lon="1.69892">
        <ele>1753.277</ele>
        <time>2021-07-19T08:04:07Z</time>
      </trkpt>
      <trkpt lat="42.64214" lon="1.6989">
        <ele>1753.742</ele>
        <time>2021-07-19T08:04:09Z</time>
      </trkpt>
      <trkpt lat="42.64213" lon="1.69889">
        <ele>1755.135</ele>
        <time>2021-07-19T08:04:11Z</time>
      </trkpt>
      <trkpt lat="42.64212" lon="1.69887">
        <ele>1756.068</ele>
        <time>2021-07-19T08:04:13Z</time>
      </trkpt>
      <trkpt lat="42.64211" lon="1.69885">
        <ele>1756.668</ele>
        <time>2021-07-19T08:04:15Z</time>
      </trkpt>
      <trkpt lat="42.64209" lon="1.69884">
        <ele>1757.77</ele>
        <time>2021-07-19T08:04:17Z</time>
      </trkpt>
      <trkpt lat="42.64208" lon="1.69883">
        <ele>1758.797</ele>
        <time>2021-07-19T08:04:19Z</time>
      </trkpt>
      <trkpt lat="42.64208" lon="1.69882">
        <ele>1759.537</ele>
        <time>2021-07-19T08:04:21Z</time>
      </trkpt>
      <trkpt lat="42.64207" lon="1.69881">
        <ele>1758.643</ele>
        <time>2021-07-19T08:04:23Z</time>
      </trkpt>
      <trkpt lat="42.64205" lon="1.6988">
        <ele>1758.823</ele>
        <time>2021-07-19T08:04:25Z</time>
      </trkpt>
      <trkpt lat="42.64203" lon="1.69879">
        <ele>1758.404</ele>
        <time>2021-07-19T08:04:27Z</time>
      </trkpt>
      <trkpt lat="42.64202" lon="1.69878">
        <ele>1758.789</ele>
        <time>2021-07-19T08:04:29Z</time>
      </trkpt>
      <trkpt lat="42.642" lon="1.69876">
        <ele>1759.604</ele>
        <time>2021-07-19T08:04:31Z</time>
      </trkpt>
      <trkpt lat="42.64199" lon="1.69875">
        <ele>1759.223</ele>
        <time>2021-07-19T08:04:33Z</time>
      </trkpt>
      <trkpt lat="42.64198" lon="1.69875">
        <ele>1760.357</ele>
        <time>2021-07-19T08:04:35Z</time>
      </trkpt>
      <trkpt lat="42.64196" lon="1.69873">
        <ele>1761.456</ele>
        <time>2021-07-19T08:04:37Z</time>
      </trkpt>
      <trkpt lat="42.64194" lon="1.69871">
        <ele>1761.765</ele>
        <time>2021-07-19T08:04:39Z</time>
      </trkpt>
      <trkpt lat="42.64192" lon="1.6987">
        <ele>1761.624</ele>
        <time>2021-07-19T08:04:41Z</time>
      </trkpt>
      <trkpt lat="42.64191" lon="1.69869">
        <ele>1762.406</ele>
        <time>2021-07-19T08:04:43Z</time>
      </trkpt>
      <trkpt lat="42.6419" lon="1.69867">
        <ele>1762.414</ele>
        <time>2021-07-19T08:04:45Z</time>
      </trkpt>
      <trkpt lat="42.64189" lon="1.69864">
        <ele>1760.855</ele>
        <time>2021-07-19T08:04:47Z</time>
      </trkpt>
      <trkpt lat="42.64189" lon="1.69862">
        <ele>1760.804</ele>
        <time>2021-07-19T08:04:49Z</time>
      </trkpt>
      <trkpt lat="42.64188" lon="1.6986">
        <ele>1761.727</ele>
        <time>2021-07-19T08:04:51Z</time>
      </trkpt>
      <trkpt lat="42.64187" lon="1.69859">
        <ele>1762.516</ele>
        <time>2021-07-19T08:04:53Z</time>
      </trkpt>
      <trkpt lat="42.64186" lon="1.69857">
        <ele>1761.579</ele>
        <time>2021-07-19T08:04:55Z</time>
      </trkpt>
      <trkpt lat="42.64185" lon="1.69856">
        <ele>1762.436</ele>
        <time>2021-07-19T08:04:57Z</time>
      </trkpt>
      <trkpt lat="42.64184" lon="1.69855">
        <ele>1762.629</ele>
        <time>2021-07-19T08:04:59Z</time>
      </trkpt>
      <trkpt lat="42.64183" lon="1.69853">
        <ele>1763.353</ele>
        <time>2021-07-19T08:05:01Z</time>
      </trkpt>
      <trkpt lat="42.64182" lon="1.69852">
        <ele>1766.148</ele>
        <time>2021-07-19T08:05:03Z</time>
      </trkpt>
      <trkpt lat="42.6418" lon="1.69852">
        <ele>1766.77</ele>
        <time>2021-07-19T08:05:05Z</time>
      </trkpt>
      <trkpt lat="42.64179" lon="1.69851">
        <ele>1765.935</ele>
        <time>2021-07-19T08:05:07Z</time>
      </trkpt>
      <trkpt lat="42.64177" lon="1.69851">
        <ele>1766.238</ele>
        <time>2021-07-19T08:05:09Z</time>
      </trkpt>
      <trkpt lat="42.64176" lon="1.6985">
        <ele>1767.369</ele>
        <time>2021-07-19T08:05:11Z</time>
      </trkpt>
      <trkpt lat="42.64174" lon="1.6985">
        <ele>1768.954</ele>
        <time>2021-07-19T08:05:13Z</time>
      </trkpt>
      <trkpt lat="42.64173" lon="1.69849">
        <ele>1769.687</ele>
        <time>2021-07-19T08:05:15Z</time>
      </trkpt>
      <trkpt lat="42.64172" lon="1.69848">
        <ele>1769.758</ele>
        <time>2021-07-19T08:05:17Z</time>
      </trkpt>
      <trkpt lat="42.64171" lon="1.69847">
        <ele>1769.779</ele>
        <time>2021-07-19T08:05:19Z</time>
      </trkpt>
      <trkpt lat="42.64169" lon="1.69846">
        <ele>1769.297</ele>
        <time>2021-07-19T08:05:21Z</time>
      </trkpt>
      <trkpt lat="42.64167" lon="1.69845">
        <ele>1769.407</ele>
        <time>2021-07-19T08:05:23Z</time>
      </trkpt>
      <trkpt lat="42.64166" lon="1.69843">
        <ele>1769.962</ele>
        <time>2021-07-19T08:05:25Z</time>
      </trkpt>
      <trkpt lat="42.64165" lon="1.69842">
        <ele>1771.482</ele>
        <time>2021-07-19T08:05:27Z</time>
      </trkpt>
      <trkpt lat="42.64165" lon="1.6984">
        <ele>1770.065</ele>
        <time>2021-07-19T08:05:29Z</time>
      </trkpt>
      <trkpt lat="42.64164" lon="1.69838">
        <ele>1770.414</ele>
        <time>2021-07-19T08:05:31Z</time>
      </trkpt>
      <trkpt lat="42.64163" lon="1.69837">
        <ele>1770.367</ele>
        <time>2021-07-19T08:05:33Z</time>
      </trkpt>
      <trkpt lat="42.64162" lon="1.69836">
        <ele>1770.736</ele>
        <time>2021-07-19T08:05:35Z</time>
      </trkpt>
      <trkpt lat="42.64161" lon="1.69835">
        <ele>1772.259</ele>
        <time>2021-07-19T08:05:37Z</time>
      </trkpt>
      <trkpt lat="42.6416" lon="1.69834">
        <ele>1772</ele>
        <time>2021-07-19T08:05:39Z</time>
      </trkpt>
      <trkpt lat="42.6416" lon="1.69832">
        <ele>1771.718</ele>
        <time>2021-07-19T08:05:41Z</time>
      </trkpt>
      <trkpt lat="42.64159" lon="1.69831">
        <ele>1772.212</ele>
        <time>2021-07-19T08:05:43Z</time>
      </trkpt>
      <trkpt lat="42.64158" lon="1.6983">
        <ele>1771.97</ele>
        <time>2021-07-19T08:05:45Z</time>
      </trkpt>
      <trkpt lat="42.64156" lon="1.69829">
        <ele>1772.978</ele>
        <time>2021-07-19T08:05:47Z</time>
      </trkpt>
      <trkpt lat="42.64155" lon="1.69827">
        <ele>1772.459</ele>
        <time>2021-07-19T08:05:49Z</time>
      </trkpt>
      <trkpt lat="42.64154" lon="1.69826">
        <ele>1772.021</ele>
        <time>2021-07-19T08:05:51Z</time>
      </trkpt>
      <trkpt lat="42.64154" lon="1.69824">
        <ele>1771.853</ele>
        <time>2021-07-19T08:05:53Z</time>
      </trkpt>
      <trkpt lat="42.64153" lon="1.69824">
        <ele>1771.913</ele>
        <time>2021-07-19T08:05:55Z</time>
      </trkpt>
      <trkpt lat="42.64153" lon="1.69824">
        <ele>1771.902</ele>
        <time>2021-07-19T08:05:57Z</time>
      </trkpt>
      <trkpt lat="42.64153" lon="1.69824">
        <ele>1771.902</ele>
        <time>2021-07-19T08:05:59Z</time>
      </trkpt>
      <trkpt lat="42.64153" lon="1.69824">
        <ele>1771.897</ele>
        <time>2021-07-19T08:06:01Z</time>
      </trkpt>
      <trkpt lat="42.64153" lon="1.69824">
        <ele>1771.892</ele>
        <time>2021-07-19T08:06:03Z</time>
      </trkpt>
      <trkpt lat="42.64152" lon="1.69824">
        <ele>1772.087</ele>
        <time>2021-07-19T08:06:05Z</time>
      </trkpt>
      <trkpt lat="42.64152" lon="1.69824">
        <ele>1771.834</ele>
        <time>2021-07-19T08:06:07Z</time>
      </trkpt>
      <trkpt lat="42.64152" lon="1.69823">
        <ele>1772.246</ele>
        <time>2021-07-19T08:06:09Z</time>
      </trkpt>
      <trkpt lat="42.64151" lon="1.69823">
        <ele>1773.914</ele>
        <time>2021-07-19T08:06:11Z</time>
      </trkpt>
      <trkpt lat="42.6415" lon="1.69823">
        <ele>1774.918</ele>
        <time>2021-07-19T08:06:13Z</time>
      </trkpt>
      <trkpt lat="42.64148" lon="1.69823">
        <ele>1774.862</ele>
        <time>2021-07-19T08:06:15Z</time>
      </trkpt>
      <trkpt lat="42.64147" lon="1.69823">
        <ele>1776.564</ele>
        <time>2021-07-19T08:06:17Z</time>
      </trkpt>
      <trkpt lat="42.64146" lon="1.69822">
        <ele>1774.713</ele>
        <time>2021-07-19T08:06:19Z</time>
      </trkpt>
      <trkpt lat="42.64146" lon="1.69822">
        <ele>1774.778</ele>
        <time>2021-07-19T08:06:21Z</time>
      </trkpt>
      <trkpt lat="42.64146" lon="1.69822">
        <ele>1774.773</ele>
        <time>2021-07-19T08:06:23Z</time>
      </trkpt>
      <trkpt lat="42.64146" lon="1.69822">
        <ele>1774.876</ele>
        <time>2021-07-19T08:06:25Z</time>
      </trkpt>
      <trkpt lat="42.64144" lon="1.69821">
        <ele>1776.195</ele>
        <time>2021-07-19T08:06:27Z</time>
      </trkpt>
      <trkpt lat="42.64143" lon="1.6982">
        <ele>1776.856</ele>
        <time>2021-07-19T08:06:29Z</time>
      </trkpt>
      <trkpt lat="42.64142" lon="1.69819">
        <ele>1776.696</ele>
        <time>2021-07-19T08:06:31Z</time>
      </trkpt>
      <trkpt lat="42.6414" lon="1.69819">
        <ele>1775.795</ele>
        <time>2021-07-19T08:06:33Z</time>
      </trkpt>
      <trkpt lat="42.64139" lon="1.69818">
        <ele>1775.7</ele>
        <time>2021-07-19T08:06:35Z</time>
      </trkpt>
      <trkpt lat="42.64137" lon="1.69817">
        <ele>1776.396</ele>
        <time>2021-07-19T08:06:37Z</time>
      </trkpt>
      <trkpt lat="42.64136" lon="1.69816">
        <ele>1777.244</ele>
        <time>2021-07-19T08:06:39Z</time>
      </trkpt>
      <trkpt lat="42.64135" lon="1.69815">
        <ele>1776.732</ele>
        <time>2021-07-19T08:06:41Z</time>
      </trkpt>
      <trkpt lat="42.64133" lon="1.69814">
        <ele>1777.181</ele>
        <time>2021-07-19T08:06:43Z</time>
      </trkpt>
      <trkpt lat="42.64132" lon="1.69812">
        <ele>1777.823</ele>
        <time>2021-07-19T08:06:45Z</time>
      </trkpt>
      <trkpt lat="42.64131" lon="1.69812">
        <ele>1777.158</ele>
        <time>2021-07-19T08:06:47Z</time>
      </trkpt>
      <trkpt lat="42.6413" lon="1.6981">
        <ele>1777.833</ele>
        <time>2021-07-19T08:06:49Z</time>
      </trkpt>
      <trkpt lat="42.64129" lon="1.69809">
        <ele>1778.456</ele>
        <time>2021-07-19T08:06:51Z</time>
      </trkpt>
      <trkpt lat="42.64128" lon="1.69807">
        <ele>1778.022</ele>
        <time>2021-07-19T08:06:53Z</time>
      </trkpt>
      <trkpt lat="42.64127" lon="1.69806">
        <ele>1777.353</ele>
        <time>2021-07-19T08:06:55Z</time>
      </trkpt>
      <trkpt lat="42.64125" lon="1.69805">
        <ele>1778.052</ele>
        <time>2021-07-19T08:06:57Z</time>
      </trkpt>
      <trkpt lat="42.64124" lon="1.69805">
        <ele>1778.722</ele>
        <time>2021-07-19T08:06:59Z</time>
      </trkpt>
      <trkpt lat="42.64122" lon="1.69804">
        <ele>1778.558</ele>
        <time>2021-07-19T08:07:01Z</time>
      </trkpt>
      <trkpt lat="42.64121" lon="1.69802">
        <ele>1779.7</ele>
        <time>2021-07-19T08:07:03Z</time>
      </trkpt>
      <trkpt lat="42.6412" lon="1.69801">
        <ele>1780.431</ele>
        <time>2021-07-19T08:07:05Z</time>
      </trkpt>
      <trkpt lat="42.64118" lon="1.698">
        <ele>1780.01</ele>
        <time>2021-07-19T08:07:07Z</time>
      </trkpt>
      <trkpt lat="42.64117" lon="1.698">
        <ele>1779.376</ele>
        <time>2021-07-19T08:07:09Z</time>
      </trkpt>
      <trkpt lat="42.64116" lon="1.69798">
        <ele>1778.626</ele>
        <time>2021-07-19T08:07:11Z</time>
      </trkpt>
      <trkpt lat="42.64114" lon="1.69796">
        <ele>1778.71</ele>
        <time>2021-07-19T08:07:13Z</time>
      </trkpt>
      <trkpt lat="42.64112" lon="1.69795">
        <ele>1778.712</ele>
        <time>2021-07-19T08:07:15Z</time>
      </trkpt>
      <trkpt lat="42.64111" lon="1.69793">
        <ele>1779.074</ele>
        <time>2021-07-19T08:07:17Z</time>
      </trkpt>
      <trkpt lat="42.64109" lon="1.69791">
        <ele>1780.064</ele>
        <time>2021-07-19T08:07:19Z</time>
      </trkpt>
      <trkpt lat="42.64108" lon="1.69789">
        <ele>1780.102</ele>
        <time>2021-07-19T08:07:21Z</time>
      </trkpt>
      <trkpt lat="42.64106" lon="1.69788">
        <ele>1781.079</ele>
        <time>2021-07-19T08:07:23Z</time>
      </trkpt>
      <trkpt lat="42.64105" lon="1.69786">
        <ele>1781.717</ele>
        <time>2021-07-19T08:07:25Z</time>
      </trkpt>
      <trkpt lat="42.64103" lon="1.69784">
        <ele>1782.488</ele>
        <time>2021-07-19T08:07:27Z</time>
      </trkpt>
      <trkpt lat="42.64101" lon="1.69783">
        <ele>1783.108</ele>
        <time>2021-07-19T08:07:29Z</time>
      </trkpt>
      <trkpt lat="42.64099" lon="1.69782">
        <ele>1783.252</ele>
        <time>2021-07-19T08:07:31Z</time>
      </trkpt>
      <trkpt lat="42.64098" lon="1.6978">
        <ele>1783.71</ele>
        <time>2021-07-19T08:07:33Z</time>
      </trkpt>
      <trkpt lat="42.64098" lon="1.69778">
        <ele>1784.279</ele>
        <time>2021-07-19T08:07:35Z</time>
      </trkpt>
      <trkpt lat="42.64097" lon="1.69775">
        <ele>1785.944</ele>
        <time>2021-07-19T08:07:37Z</time>
      </trkpt>
      <trkpt lat="42.64097" lon="1.69772">
        <ele>1786.112</ele>
        <time>2021-07-19T08:07:39Z</time>
      </trkpt>
      <trkpt lat="42.64096" lon="1.6977">
        <ele>1786.749</ele>
        <time>2021-07-19T08:07:41Z</time>
      </trkpt>
      <trkpt lat="42.64096" lon="1.69767">
        <ele>1786.663</ele>
        <time>2021-07-19T08:07:43Z</time>
      </trkpt>
      <trkpt lat="42.64095" lon="1.69764">
        <ele>1786.902</ele>
        <time>2021-07-19T08:07:45Z</time>
      </trkpt>
      <trkpt lat="42.64093" lon="1.69763">
        <ele>1787.953</ele>
        <time>2021-07-19T08:07:47Z</time>
      </trkpt>
      <trkpt lat="42.64092" lon="1.69761">
        <ele>1788.383</ele>
        <time>2021-07-19T08:07:49Z</time>
      </trkpt>
      <trkpt lat="42.64091" lon="1.69758">
        <ele>1788.056</ele>
        <time>2021-07-19T08:07:51Z</time>
      </trkpt>
      <trkpt lat="42.6409" lon="1.69756">
        <ele>1789.964</ele>
        <time>2021-07-19T08:07:53Z</time>
      </trkpt>
      <trkpt lat="42.6409" lon="1.69755">
        <ele>1790.86</ele>
        <time>2021-07-19T08:07:55Z</time>
      </trkpt>
      <trkpt lat="42.6409" lon="1.69753">
        <ele>1791.375</ele>
        <time>2021-07-19T08:07:57Z</time>
      </trkpt>
      <trkpt lat="42.64089" lon="1.69751">
        <ele>1792.209</ele>
        <time>2021-07-19T08:07:59Z</time>
      </trkpt>
      <trkpt lat="42.64089" lon="1.69749">
        <ele>1791.604</ele>
        <time>2021-07-19T08:08:01Z</time>
      </trkpt>
      <trkpt lat="42.64088" lon="1.69747">
        <ele>1791.807</ele>
        <time>2021-07-19T08:08:03Z</time>
      </trkpt>
      <trkpt lat="42.64088" lon="1.69744">
        <ele>1791.939</ele>
        <time>2021-07-19T08:08:05Z</time>
      </trkpt>
      <trkpt lat="42.64088" lon="1.69743">
        <ele>1792.231</ele>
        <time>2021-07-19T08:08:07Z</time>
      </trkpt>
      <trkpt lat="42.64087" lon="1.69741">
        <ele>1792.335</ele>
        <time>2021-07-19T08:08:09Z</time>
      </trkpt>
      <trkpt lat="42.64086" lon="1.69739">
        <ele>1791.755</ele>
        <time>2021-07-19T08:08:11Z</time>
      </trkpt>
      <trkpt lat="42.64085" lon="1.69738">
        <ele>1792.5</ele>
        <time>2021-07-19T08:08:13Z</time>
      </trkpt>
      <trkpt lat="42.64084" lon="1.69736">
        <ele>1791.91</ele>
        <time>2021-07-19T08:08:15Z</time>
      </trkpt>
      <trkpt lat="42.64083" lon="1.69735">
        <ele>1792.929</ele>
        <time>2021-07-19T08:08:17Z</time>
      </trkpt>
      <trkpt lat="42.64082" lon="1.69733">
        <ele>1793.158</ele>
        <time>2021-07-19T08:08:19Z</time>
      </trkpt>
      <trkpt lat="42.64082" lon="1.69731">
        <ele>1792.684</ele>
        <time>2021-07-19T08:08:21Z</time>
      </trkpt>
      <trkpt lat="42.64081" lon="1.69729">
        <ele>1793.084</ele>
        <time>2021-07-19T08:08:23Z</time>
      </trkpt>
      <trkpt lat="42.64079" lon="1.69728">
        <ele>1794.001</ele>
        <time>2021-07-19T08:08:25Z</time>
      </trkpt>
      <trkpt lat="42.64079" lon="1.69727">
        <ele>1794.327</ele>
        <time>2021-07-19T08:08:27Z</time>
      </trkpt>
      <trkpt lat="42.64078" lon="1.69725">
        <ele>1794.735</ele>
        <time>2021-07-19T08:08:29Z</time>
      </trkpt>
      <trkpt lat="42.64077" lon="1.69725">
        <ele>1794.841</ele>
        <time>2021-07-19T08:08:31Z</time>
      </trkpt>
      <trkpt lat="42.64076" lon="1.69724">
        <ele>1795.07</ele>
        <time>2021-07-19T08:08:33Z</time>
      </trkpt>
      <trkpt lat="42.64075" lon="1.69722">
        <ele>1795.041</ele>
        <time>2021-07-19T08:08:35Z</time>
      </trkpt>
      <trkpt lat="42.64076" lon="1.6972">
        <ele>1794.816</ele>
        <time>2021-07-19T08:08:37Z</time>
      </trkpt>
      <trkpt lat="42.64074" lon="1.69718">
        <ele>1795.362</ele>
        <time>2021-07-19T08:08:39Z</time>
      </trkpt>
      <trkpt lat="42.64073" lon="1.69717">
        <ele>1796.039</ele>
        <time>2021-07-19T08:08:41Z</time>
      </trkpt>
      <trkpt lat="42.64073" lon="1.69715">
        <ele>1796.897</ele>
        <time>2021-07-19T08:08:43Z</time>
      </trkpt>
      <trkpt lat="42.64072" lon="1.69713">
        <ele>1796.92</ele>
        <time>2021-07-19T08:08:45Z</time>
      </trkpt>
      <trkpt lat="42.64071" lon="1.69712">
        <ele>1796.054</ele>
        <time>2021-07-19T08:08:47Z</time>
      </trkpt>
      <trkpt lat="42.6407" lon="1.69711">
        <ele>1795.372</ele>
        <time>2021-07-19T08:08:49Z</time>
      </trkpt>
      <trkpt lat="42.64069" lon="1.69709">
        <ele>1795.206</ele>
        <time>2021-07-19T08:08:51Z</time>
      </trkpt>
      <trkpt lat="42.64068" lon="1.69708">
        <ele>1795.354</ele>
        <time>2021-07-19T08:08:53Z</time>
      </trkpt>
      <trkpt lat="42.64067" lon="1.69706">
        <ele>1796.616</ele>
        <time>2021-07-19T08:08:55Z</time>
      </trkpt>
      <trkpt lat="42.64067" lon="1.69704">
        <ele>1796.95</ele>
        <time>2021-07-19T08:08:57Z</time>
      </trkpt>
      <trkpt lat="42.64066" lon="1.69703">
        <ele>1796.469</ele>
        <time>2021-07-19T08:08:59Z</time>
      </trkpt>
      <trkpt lat="42.64066" lon="1.69703">
        <ele>1796.403</ele>
        <time>2021-07-19T08:09:01Z</time>
      </trkpt>
      <trkpt lat="42.64066" lon="1.69703">
        <ele>1796.632</ele>
        <time>2021-07-19T08:09:03Z</time>
      </trkpt>
      <trkpt lat="42.64068" lon="1.69705">
        <ele>1795.213</ele>
        <time>2021-07-19T08:09:05Z</time>
      </trkpt>
      <trkpt lat="42.64069" lon="1.69705">
        <ele>1795.232</ele>
        <time>2021-07-19T08:09:07Z</time>
      </trkpt>
      <trkpt lat="42.64069" lon="1.69705">
        <ele>1795.232</ele>
        <time>2021-07-19T08:09:09Z</time>
      </trkpt>
      <trkpt lat="42.64069" lon="1.69705">
        <ele>1795.602</ele>
        <time>2021-07-19T08:09:11Z</time>
      </trkpt>
      <trkpt lat="42.64068" lon="1.69704">
        <ele>1796.148</ele>
        <time>2021-07-19T08:09:13Z</time>
      </trkpt>
      <trkpt lat="42.64068" lon="1.69704">
        <ele>1796.141</ele>
        <time>2021-07-19T08:09:15Z</time>
      </trkpt>
      <trkpt lat="42.64068" lon="1.69704">
        <ele>1796.143</ele>
        <time>2021-07-19T08:09:17Z</time>
      </trkpt>
      <trkpt lat="42.64068" lon="1.69704">
        <ele>1796.662</ele>
        <time>2021-07-19T08:09:19Z</time>
      </trkpt>
      <trkpt lat="42.64068" lon="1.69704">
        <ele>1796.663</ele>
        <time>2021-07-19T08:09:21Z</time>
      </trkpt>
      <trkpt lat="42.64068" lon="1.69704">
        <ele>1796.664</ele>
        <time>2021-07-19T08:09:23Z</time>
      </trkpt>
      <trkpt lat="42.64068" lon="1.69704">
        <ele>1796.655</ele>
        <time>2021-07-19T08:09:25Z</time>
      </trkpt>
      <trkpt lat="42.64068" lon="1.69704">
        <ele>1796.662</ele>
        <time>2021-07-19T08:09:27Z</time>
      </trkpt>
      <trkpt lat="42.64068" lon="1.69704">
        <ele>1796.66</ele>
        <time>2021-07-19T08:09:29Z</time>
      </trkpt>
      <trkpt lat="42.64068" lon="1.69704">
        <ele>1796.656</ele>
        <time>2021-07-19T08:09:31Z</time>
      </trkpt>
      <trkpt lat="42.64068" lon="1.69704">
        <ele>1796.652</ele>
        <time>2021-07-19T08:09:33Z</time>
      </trkpt>
      <trkpt lat="42.64068" lon="1.69704">
        <ele>1796.66</ele>
        <time>2021-07-19T08:09:35Z</time>
      </trkpt>
      <trkpt lat="42.64068" lon="1.69704">
        <ele>1796.648</ele>
        <time>2021-07-19T08:09:37Z</time>
      </trkpt>
      <trkpt lat="42.64068" lon="1.69704">
        <ele>1797.517</ele>
        <time>2021-07-19T08:09:39Z</time>
      </trkpt>
      <trkpt lat="42.64067" lon="1.69704">
        <ele>1798.043</ele>
        <time>2021-07-19T08:09:41Z</time>
      </trkpt>
      <trkpt lat="42.64067" lon="1.69704">
        <ele>1798.191</ele>
        <time>2021-07-19T08:09:43Z</time>
      </trkpt>
      <trkpt lat="42.64067" lon="1.69704">
        <ele>1798.59</ele>
        <time>2021-07-19T08:09:45Z</time>
      </trkpt>
      <trkpt lat="42.64067" lon="1.69704">
        <ele>1798.762</ele>
        <time>2021-07-19T08:09:47Z</time>
      </trkpt>
      <trkpt lat="42.64067" lon="1.69704">
        <ele>1798.593</ele>
        <time>2021-07-19T08:09:49Z</time>
      </trkpt>
      <trkpt lat="42.64067" lon="1.69705">
        <ele>1799.01</ele>
        <time>2021-07-19T08:09:51Z</time>
      </trkpt>
      <trkpt lat="42.64067" lon="1.69707">
        <ele>1799.043</ele>
        <time>2021-07-19T08:09:53Z</time>
      </trkpt>
      <trkpt lat="42.64067" lon="1.69708">
        <ele>1798.943</ele>
        <time>2021-07-19T08:09:55Z</time>
      </trkpt>
      <trkpt lat="42.64067" lon="1.69708">
        <ele>1798.971</ele>
        <time>2021-07-19T08:09:57Z</time>
      </trkpt>
      <trkpt lat="42.64068" lon="1.69707">
        <ele>1799.427</ele>
        <time>2021-07-19T08:09:59Z</time>
      </trkpt>
      <trkpt lat="42.64068" lon="1.69707">
        <ele>1799.143</ele>
        <time>2021-07-19T08:10:01Z</time>
      </trkpt>
      <trkpt lat="42.64068" lon="1.69707">
        <ele>1799.116</ele>
        <time>2021-07-19T08:10:03Z</time>
      </trkpt>
      <trkpt lat="42.64068" lon="1.69707">
        <ele>1799.114</ele>
        <time>2021-07-19T08:10:05Z</time>
      </trkpt>
      <trkpt lat="42.64068" lon="1.69707">
        <ele>1799.119</ele>
        <time>2021-07-19T08:10:07Z</time>
      </trkpt>
      <trkpt lat="42.64068" lon="1.69707">
        <ele>1799.118</ele>
        <time>2021-07-19T08:10:09Z</time>
      </trkpt>
      <trkpt lat="42.64068" lon="1.69707">
        <ele>1799.103</ele>
        <time>2021-07-19T08:10:11Z</time>
      </trkpt>
      <trkpt lat="42.64068" lon="1.69707">
        <ele>1799.1</ele>
        <time>2021-07-19T08:10:13Z</time>
      </trkpt>
      <trkpt lat="42.64068" lon="1.69707">
        <ele>1799.095</ele>
        <time>2021-07-19T08:10:15Z</time>
      </trkpt>
      <trkpt lat="42.64068" lon="1.69707">
        <ele>1799.095</ele>
        <time>2021-07-19T08:10:17Z</time>
      </trkpt>
      <trkpt lat="42.64068" lon="1.69707">
        <ele>1799.086</ele>
        <time>2021-07-19T08:10:19Z</time>
      </trkpt>
      <trkpt lat="42.64068" lon="1.69707">
        <ele>1799.083</ele>
        <time>2021-07-19T08:10:21Z</time>
      </trkpt>
      <trkpt lat="42.64068" lon="1.69707">
        <ele>1799.081</ele>
        <time>2021-07-19T08:10:23Z</time>
      </trkpt>
      <trkpt lat="42.64068" lon="1.69707">
        <ele>1799.081</ele>
        <time>2021-07-19T08:10:25Z</time>
      </trkpt>
      <trkpt lat="42.64068" lon="1.69707">
        <ele>1799.082</ele>
        <time>2021-07-19T08:10:27Z</time>
      </trkpt>
      <trkpt lat="42.64068" lon="1.69707">
        <ele>1799.076</ele>
        <time>2021-07-19T08:10:29Z</time>
      </trkpt>
      <trkpt lat="42.64068" lon="1.69707">
        <ele>1799.074</ele>
        <time>2021-07-19T08:10:31Z</time>
      </trkpt>
      <trkpt lat="42.64068" lon="1.69707">
        <ele>1799.078</ele>
        <time>2021-07-19T08:10:33Z</time>
      </trkpt>
      <trkpt lat="42.64068" lon="1.69707">
        <ele>1799.19</ele>
        <time>2021-07-19T08:10:35Z</time>
      </trkpt>
      <trkpt lat="42.64067" lon="1.69706">
        <ele>1799.445</ele>
        <time>2021-07-19T08:10:37Z</time>
      </trkpt>
      <trkpt lat="42.64066" lon="1.69704">
        <ele>1798.964</ele>
        <time>2021-07-19T08:10:39Z</time>
      </trkpt>
      <trkpt lat="42.64066" lon="1.69702">
        <ele>1799.573</ele>
        <time>2021-07-19T08:10:41Z</time>
      </trkpt>
      <trkpt lat="42.64065" lon="1.697">
        <ele>1801.093</ele>
        <time>2021-07-19T08:10:43Z</time>
      </trkpt>
      <trkpt lat="42.64064" lon="1.69699">
        <ele>1801.942</ele>
        <time>2021-07-19T08:10:45Z</time>
      </trkpt>
      <trkpt lat="42.64064" lon="1.69699">
        <ele>1801.653</ele>
        <time>2021-07-19T08:10:47Z</time>
      </trkpt>
      <trkpt lat="42.64064" lon="1.69699">
        <ele>1801.645</ele>
        <time>2021-07-19T08:10:49Z</time>
      </trkpt>
      <trkpt lat="42.64064" lon="1.69699">
        <ele>1801.648</ele>
        <time>2021-07-19T08:10:51Z</time>
      </trkpt>
      <trkpt lat="42.64064" lon="1.69699">
        <ele>1801.646</ele>
        <time>2021-07-19T08:10:53Z</time>
      </trkpt>
      <trkpt lat="42.64064" lon="1.69699">
        <ele>1801.653</ele>
        <time>2021-07-19T08:10:55Z</time>
      </trkpt>
      <trkpt lat="42.64064" lon="1.69699">
        <ele>1801.431</ele>
        <time>2021-07-19T08:10:57Z</time>
      </trkpt>
      <trkpt lat="42.64064" lon="1.69699">
        <ele>1801.426</ele>
        <time>2021-07-19T08:10:59Z</time>
      </trkpt>
      <trkpt lat="42.64064" lon="1.69699">
        <ele>1801.42</ele>
        <time>2021-07-19T08:11:01Z</time>
      </trkpt>
      <trkpt lat="42.64064" lon="1.69699">
        <ele>1801.423</ele>
        <time>2021-07-19T08:11:03Z</time>
      </trkpt>
      <trkpt lat="42.64064" lon="1.69699">
        <ele>1801.421</ele>
        <time>2021-07-19T08:11:05Z</time>
      </trkpt>
      <trkpt lat="42.64064" lon="1.69699">
        <ele>1801.414</ele>
        <time>2021-07-19T08:11:07Z</time>
      </trkpt>
      <trkpt lat="42.64064" lon="1.69699">
        <ele>1801.415</ele>
        <time>2021-07-19T08:11:09Z</time>
      </trkpt>
      <trkpt lat="42.64064" lon="1.69699">
        <ele>1801.412</ele>
        <time>2021-07-19T08:11:11Z</time>
      </trkpt>
      <trkpt lat="42.64064" lon="1.69699">
        <ele>1801.411</ele>
        <time>2021-07-19T08:11:13Z</time>
      </trkpt>
      <trkpt lat="42.64064" lon="1.69699">
        <ele>1801.406</ele>
        <time>2021-07-19T08:11:15Z</time>
      </trkpt>
      <trkpt lat="42.64064" lon="1.69699">
        <ele>1801.402</ele>
        <time>2021-07-19T08:11:17Z</time>
      </trkpt>
      <trkpt lat="42.64064" lon="1.697">
        <ele>1801.141</ele>
        <time>2021-07-19T08:11:19Z</time>
      </trkpt>
      <trkpt lat="42.64063" lon="1.697">
        <ele>1801.138</ele>
        <time>2021-07-19T08:11:21Z</time>
      </trkpt>
      <trkpt lat="42.64063" lon="1.697">
        <ele>1801.131</ele>
        <time>2021-07-19T08:11:23Z</time>
      </trkpt>
      <trkpt lat="42.64064" lon="1.697">
        <ele>1802.079</ele>
        <time>2021-07-19T08:11:25Z</time>
      </trkpt>
      <trkpt lat="42.64063" lon="1.697">
        <ele>1802.113</ele>
        <time>2021-07-19T08:11:27Z</time>
      </trkpt>
      <trkpt lat="42.64063" lon="1.697">
        <ele>1802.108</ele>
        <time>2021-07-19T08:11:29Z</time>
      </trkpt>
      <trkpt lat="42.64063" lon="1.697">
        <ele>1802.106</ele>
        <time>2021-07-19T08:11:31Z</time>
      </trkpt>
      <trkpt lat="42.64064" lon="1.697">
        <ele>1802.114</ele>
        <time>2021-07-19T08:11:33Z</time>
      </trkpt>
      <trkpt lat="42.64064" lon="1.697">
        <ele>1802.11</ele>
        <time>2021-07-19T08:11:35Z</time>
      </trkpt>
      <trkpt lat="42.64064" lon="1.697">
        <ele>1802.109</ele>
        <time>2021-07-19T08:11:37Z</time>
      </trkpt>
      <trkpt lat="42.64064" lon="1.697">
        <ele>1802.103</ele>
        <time>2021-07-19T08:11:39Z</time>
      </trkpt>
      <trkpt lat="42.64064" lon="1.697">
        <ele>1802.109</ele>
        <time>2021-07-19T08:11:41Z</time>
      </trkpt>
      <trkpt lat="42.64063" lon="1.697">
        <ele>1802.105</ele>
        <time>2021-07-19T08:11:43Z</time>
      </trkpt>
      <trkpt lat="42.64063" lon="1.697">
        <ele>1802.102</ele>
        <time>2021-07-19T08:11:45Z</time>
      </trkpt>
      <trkpt lat="42.64064" lon="1.697">
        <ele>1802.103</ele>
        <time>2021-07-19T08:11:47Z</time>
      </trkpt>
      <trkpt lat="42.64064" lon="1.697">
        <ele>1802.101</ele>
        <time>2021-07-19T08:11:49Z</time>
      </trkpt>
      <trkpt lat="42.64064" lon="1.697">
        <ele>1802.1</ele>
        <time>2021-07-19T08:11:51Z</time>
      </trkpt>
      <trkpt lat="42.64064" lon="1.697">
        <ele>1802.085</ele>
        <time>2021-07-19T08:11:53Z</time>
      </trkpt>
      <trkpt lat="42.64064" lon="1.697">
        <ele>1802.094</ele>
        <time>2021-07-19T08:11:55Z</time>
      </trkpt>
      <trkpt lat="42.64064" lon="1.697">
        <ele>1802.108</ele>
        <time>2021-07-19T08:11:57Z</time>
      </trkpt>
      <trkpt lat="42.64064" lon="1.697">
        <ele>1802.102</ele>
        <time>2021-07-19T08:11:59Z</time>
      </trkpt>
      <trkpt lat="42.64064" lon="1.697">
        <ele>1802.104</ele>
        <time>2021-07-19T08:12:01Z</time>
      </trkpt>
      <trkpt lat="42.64064" lon="1.697">
        <ele>1802.111</ele>
        <time>2021-07-19T08:12:03Z</time>
      </trkpt>
      <trkpt lat="42.64064" lon="1.69701">
        <ele>1802.518</ele>
        <time>2021-07-19T08:12:05Z</time>
      </trkpt>
      <trkpt lat="42.64064" lon="1.69701">
        <ele>1802.615</ele>
        <time>2021-07-19T08:12:07Z</time>
      </trkpt>
      <trkpt lat="42.64064" lon="1.69701">
        <ele>1802.599</ele>
        <time>2021-07-19T08:12:09Z</time>
      </trkpt>
      <trkpt lat="42.64064" lon="1.69699">
        <ele>1802.661</ele>
        <time>2021-07-19T08:12:11Z</time>
      </trkpt>
      <trkpt lat="42.64063" lon="1.69698">
        <ele>1802.871</ele>
        <time>2021-07-19T08:12:13Z</time>
      </trkpt>
      <trkpt lat="42.64062" lon="1.69696">
        <ele>1803.075</ele>
        <time>2021-07-19T08:12:15Z</time>
      </trkpt>
      <trkpt lat="42.64062" lon="1.69695">
        <ele>1803.241</ele>
        <time>2021-07-19T08:12:17Z</time>
      </trkpt>
      <trkpt lat="42.64061" lon="1.69693">
        <ele>1803.471</ele>
        <time>2021-07-19T08:12:19Z</time>
      </trkpt>
      <trkpt lat="42.64061" lon="1.69692">
        <ele>1803.639</ele>
        <time>2021-07-19T08:12:21Z</time>
      </trkpt>
      <trkpt lat="42.64061" lon="1.69691">
        <ele>1803.878</ele>
        <time>2021-07-19T08:12:23Z</time>
      </trkpt>
      <trkpt lat="42.64062" lon="1.69689">
        <ele>1804.698</ele>
        <time>2021-07-19T08:12:25Z</time>
      </trkpt>
      <trkpt lat="42.6406" lon="1.69687">
        <ele>1804.946</ele>
        <time>2021-07-19T08:12:27Z</time>
      </trkpt>
      <trkpt lat="42.6406" lon="1.69686">
        <ele>1805.867</ele>
        <time>2021-07-19T08:12:29Z</time>
      </trkpt>
      <trkpt lat="42.64059" lon="1.69684">
        <ele>1806.07</ele>
        <time>2021-07-19T08:12:31Z</time>
      </trkpt>
      <trkpt lat="42.64058" lon="1.69683">
        <ele>1806.016</ele>
        <time>2021-07-19T08:12:33Z</time>
      </trkpt>
      <trkpt lat="42.64056" lon="1.69682">
        <ele>1806.713</ele>
        <time>2021-07-19T08:12:35Z</time>
      </trkpt>
      <trkpt lat="42.64056" lon="1.6968">
        <ele>1806.076</ele>
        <time>2021-07-19T08:12:37Z</time>
      </trkpt>
      <trkpt lat="42.64055" lon="1.69678">
        <ele>1805.664</ele>
        <time>2021-07-19T08:12:39Z</time>
      </trkpt>
      <trkpt lat="42.64055" lon="1.69676">
        <ele>1805.888</ele>
        <time>2021-07-19T08:12:41Z</time>
      </trkpt>
      <trkpt lat="42.64054" lon="1.69674">
        <ele>1805.835</ele>
        <time>2021-07-19T08:12:43Z</time>
      </trkpt>
      <trkpt lat="42.64053" lon="1.69673">
        <ele>1806.423</ele>
        <time>2021-07-19T08:12:45Z</time>
      </trkpt>
      <trkpt lat="42.64053" lon="1.69671">
        <ele>1806.537</ele>
        <time>2021-07-19T08:12:47Z</time>
      </trkpt>
      <trkpt lat="42.64052" lon="1.69669">
        <ele>1806.272</ele>
        <time>2021-07-19T08:12:49Z</time>
      </trkpt>
      <trkpt lat="42.64051" lon="1.69667">
        <ele>1806.705</ele>
        <time>2021-07-19T08:12:51Z</time>
      </trkpt>
      <trkpt lat="42.64051" lon="1.69664">
        <ele>1807.342</ele>
        <time>2021-07-19T08:12:53Z</time>
      </trkpt>
      <trkpt lat="42.64052" lon="1.69663">
        <ele>1807.306</ele>
        <time>2021-07-19T08:12:55Z</time>
      </trkpt>
      <trkpt lat="42.64051" lon="1.69661">
        <ele>1807.336</ele>
        <time>2021-07-19T08:12:57Z</time>
      </trkpt>
      <trkpt lat="42.6405" lon="1.6966">
        <ele>1807.271</ele>
        <time>2021-07-19T08:12:59Z</time>
      </trkpt>
      <trkpt lat="42.6405" lon="1.69659">
        <ele>1807.349</ele>
        <time>2021-07-19T08:13:01Z</time>
      </trkpt>
      <trkpt lat="42.64051" lon="1.69657">
        <ele>1807.742</ele>
        <time>2021-07-19T08:13:03Z</time>
      </trkpt>
      <trkpt lat="42.6405" lon="1.69656">
        <ele>1806.941</ele>
        <time>2021-07-19T08:13:05Z</time>
      </trkpt>
      <trkpt lat="42.64049" lon="1.69654">
        <ele>1807.508</ele>
        <time>2021-07-19T08:13:07Z</time>
      </trkpt>
      <trkpt lat="42.64047" lon="1.69652">
        <ele>1806.616</ele>
        <time>2021-07-19T08:13:09Z</time>
      </trkpt>
      <trkpt lat="42.64046" lon="1.6965">
        <ele>1807.336</ele>
        <time>2021-07-19T08:13:11Z</time>
      </trkpt>
      <trkpt lat="42.64045" lon="1.69647">
        <ele>1808.121</ele>
        <time>2021-07-19T08:13:13Z</time>
      </trkpt>
      <trkpt lat="42.64045" lon="1.69645">
        <ele>1808.092</ele>
        <time>2021-07-19T08:13:15Z</time>
      </trkpt>
      <trkpt lat="42.64044" lon="1.69643">
        <ele>1809.353</ele>
        <time>2021-07-19T08:13:17Z</time>
      </trkpt>
      <trkpt lat="42.64043" lon="1.69641">
        <ele>1809.021</ele>
        <time>2021-07-19T08:13:19Z</time>
      </trkpt>
      <trkpt lat="42.64043" lon="1.69639">
        <ele>1809</ele>
        <time>2021-07-19T08:13:21Z</time>
      </trkpt>
      <trkpt lat="42.64044" lon="1.69636">
        <ele>1809.815</ele>
        <time>2021-07-19T08:13:23Z</time>
      </trkpt>
      <trkpt lat="42.64043" lon="1.69634">
        <ele>1809.83</ele>
        <time>2021-07-19T08:13:25Z</time>
      </trkpt>
      <trkpt lat="42.64043" lon="1.69632">
        <ele>1809.769</ele>
        <time>2021-07-19T08:13:27Z</time>
      </trkpt>
      <trkpt lat="42.64042" lon="1.6963">
        <ele>1809.597</ele>
        <time>2021-07-19T08:13:29Z</time>
      </trkpt>
      <trkpt lat="42.64041" lon="1.69629">
        <ele>1809.742</ele>
        <time>2021-07-19T08:13:31Z</time>
      </trkpt>
      <trkpt lat="42.6404" lon="1.69627">
        <ele>1810.093</ele>
        <time>2021-07-19T08:13:33Z</time>
      </trkpt>
      <trkpt lat="42.64039" lon="1.69625">
        <ele>1810.975</ele>
        <time>2021-07-19T08:13:35Z</time>
      </trkpt>
      <trkpt lat="42.64038" lon="1.69624">
        <ele>1810.353</ele>
        <time>2021-07-19T08:13:37Z</time>
      </trkpt>
      <trkpt lat="42.64037" lon="1.69623">
        <ele>1809.647</ele>
        <time>2021-07-19T08:13:39Z</time>
      </trkpt>
      <trkpt lat="42.64036" lon="1.6962">
        <ele>1811.362</ele>
        <time>2021-07-19T08:13:41Z</time>
      </trkpt>
      <trkpt lat="42.64035" lon="1.69617">
        <ele>1811.814</ele>
        <time>2021-07-19T08:13:43Z</time>
      </trkpt>
      <trkpt lat="42.64035" lon="1.69615">
        <ele>1812.1</ele>
        <time>2021-07-19T08:13:45Z</time>
      </trkpt>
      <trkpt lat="42.64034" lon="1.69612">
        <ele>1812.53</ele>
        <time>2021-07-19T08:13:47Z</time>
      </trkpt>
      <trkpt lat="42.64032" lon="1.6961">
        <ele>1812.861</ele>
        <time>2021-07-19T08:13:49Z</time>
      </trkpt>
      <trkpt lat="42.64031" lon="1.69608">
        <ele>1812.902</ele>
        <time>2021-07-19T08:13:51Z</time>
      </trkpt>
      <trkpt lat="42.64031" lon="1.69607">
        <ele>1812.935</ele>
        <time>2021-07-19T08:13:53Z</time>
      </trkpt>
      <trkpt lat="42.64029" lon="1.69606">
        <ele>1813.229</ele>
        <time>2021-07-19T08:13:55Z</time>
      </trkpt>
      <trkpt lat="42.64028" lon="1.69605">
        <ele>1813.468</ele>
        <time>2021-07-19T08:13:57Z</time>
      </trkpt>
      <trkpt lat="42.64027" lon="1.69604">
        <ele>1812.85</ele>
        <time>2021-07-19T08:13:59Z</time>
      </trkpt>
      <trkpt lat="42.64026" lon="1.69603">
        <ele>1813.293</ele>
        <time>2021-07-19T08:14:01Z</time>
      </trkpt>
      <trkpt lat="42.64025" lon="1.69601">
        <ele>1814.097</ele>
        <time>2021-07-19T08:14:03Z</time>
      </trkpt>
      <trkpt lat="42.64024" lon="1.69599">
        <ele>1815.049</ele>
        <time>2021-07-19T08:14:05Z</time>
      </trkpt>
      <trkpt lat="42.64023" lon="1.69597">
        <ele>1815.326</ele>
        <time>2021-07-19T08:14:07Z</time>
      </trkpt>
      <trkpt lat="42.64023" lon="1.69596">
        <ele>1815.72</ele>
        <time>2021-07-19T08:14:09Z</time>
      </trkpt>
      <trkpt lat="42.64022" lon="1.69593">
        <ele>1816.257</ele>
        <time>2021-07-19T08:14:11Z</time>
      </trkpt>
      <trkpt lat="42.64021" lon="1.69591">
        <ele>1817.174</ele>
        <time>2021-07-19T08:14:13Z</time>
      </trkpt>
      <trkpt lat="42.6402" lon="1.6959">
        <ele>1816.697</ele>
        <time>2021-07-19T08:14:15Z</time>
      </trkpt>
      <trkpt lat="42.64019" lon="1.69588">
        <ele>1817.201</ele>
        <time>2021-07-19T08:14:17Z</time>
      </trkpt>
      <trkpt lat="42.64017" lon="1.69586">
        <ele>1816.578</ele>
        <time>2021-07-19T08:14:19Z</time>
      </trkpt>
      <trkpt lat="42.64016" lon="1.69584">
        <ele>1817.236</ele>
        <time>2021-07-19T08:14:21Z</time>
      </trkpt>
      <trkpt lat="42.64016" lon="1.69582">
        <ele>1817.463</ele>
        <time>2021-07-19T08:14:23Z</time>
      </trkpt>
      <trkpt lat="42.64016" lon="1.6958">
        <ele>1818.432</ele>
        <time>2021-07-19T08:14:25Z</time>
      </trkpt>
      <trkpt lat="42.64015" lon="1.69578">
        <ele>1818.582</ele>
        <time>2021-07-19T08:14:27Z</time>
      </trkpt>
      <trkpt lat="42.64014" lon="1.69576">
        <ele>1818.559</ele>
        <time>2021-07-19T08:14:29Z</time>
      </trkpt>
      <trkpt lat="42.64013" lon="1.69574">
        <ele>1819.317</ele>
        <time>2021-07-19T08:14:31Z</time>
      </trkpt>
      <trkpt lat="42.64013" lon="1.69572">
        <ele>1819.611</ele>
        <time>2021-07-19T08:14:33Z</time>
      </trkpt>
      <trkpt lat="42.64013" lon="1.6957">
        <ele>1820.144</ele>
        <time>2021-07-19T08:14:35Z</time>
      </trkpt>
      <trkpt lat="42.64013" lon="1.69569">
        <ele>1820.605</ele>
        <time>2021-07-19T08:14:37Z</time>
      </trkpt>
      <trkpt lat="42.64013" lon="1.69566">
        <ele>1820.538</ele>
        <time>2021-07-19T08:14:39Z</time>
      </trkpt>
      <trkpt lat="42.64014" lon="1.69565">
        <ele>1820.355</ele>
        <time>2021-07-19T08:14:41Z</time>
      </trkpt>
      <trkpt lat="42.64014" lon="1.69563">
        <ele>1820.233</ele>
        <time>2021-07-19T08:14:43Z</time>
      </trkpt>
      <trkpt lat="42.64014" lon="1.69561">
        <ele>1820.919</ele>
        <time>2021-07-19T08:14:45Z</time>
      </trkpt>
      <trkpt lat="42.64014" lon="1.69559">
        <ele>1821.577</ele>
        <time>2021-07-19T08:14:47Z</time>
      </trkpt>
      <trkpt lat="42.64013" lon="1.69558">
        <ele>1822.143</ele>
        <time>2021-07-19T08:14:49Z</time>
      </trkpt>
      <trkpt lat="42.64012" lon="1.69556">
        <ele>1822.253</ele>
        <time>2021-07-19T08:14:51Z</time>
      </trkpt>
      <trkpt lat="42.64011" lon="1.69556">
        <ele>1822.059</ele>
        <time>2021-07-19T08:14:53Z</time>
      </trkpt>
      <trkpt lat="42.64009" lon="1.69556">
        <ele>1821.818</ele>
        <time>2021-07-19T08:14:55Z</time>
      </trkpt>
      <trkpt lat="42.64008" lon="1.69555">
        <ele>1821.36</ele>
        <time>2021-07-19T08:14:57Z</time>
      </trkpt>
      <trkpt lat="42.64007" lon="1.69554">
        <ele>1821.663</ele>
        <time>2021-07-19T08:14:59Z</time>
      </trkpt>
      <trkpt lat="42.64007" lon="1.69552">
        <ele>1821.722</ele>
        <time>2021-07-19T08:15:01Z</time>
      </trkpt>
      <trkpt lat="42.64007" lon="1.69551">
        <ele>1821.786</ele>
        <time>2021-07-19T08:15:03Z</time>
      </trkpt>
      <trkpt lat="42.64006" lon="1.6955">
        <ele>1821.719</ele>
        <time>2021-07-19T08:15:05Z</time>
      </trkpt>
      <trkpt lat="42.64006" lon="1.69548">
        <ele>1821.639</ele>
        <time>2021-07-19T08:15:07Z</time>
      </trkpt>
      <trkpt lat="42.64006" lon="1.69546">
        <ele>1822.034</ele>
        <time>2021-07-19T08:15:09Z</time>
      </trkpt>
      <trkpt lat="42.64007" lon="1.69545">
        <ele>1822.556</ele>
        <time>2021-07-19T08:15:11Z</time>
      </trkpt>
      <trkpt lat="42.64007" lon="1.69544">
        <ele>1822.78</ele>
        <time>2021-07-19T08:15:13Z</time>
      </trkpt>
      <trkpt lat="42.64007" lon="1.69544">
        <ele>1822.774</ele>
        <time>2021-07-19T08:15:15Z</time>
      </trkpt>
      <trkpt lat="42.64007" lon="1.69544">
        <ele>1822.769</ele>
        <time>2021-07-19T08:15:17Z</time>
      </trkpt>
      <trkpt lat="42.64007" lon="1.69544">
        <ele>1822.772</ele>
        <time>2021-07-19T08:15:19Z</time>
      </trkpt>
      <trkpt lat="42.64007" lon="1.69544">
        <ele>1822.951</ele>
        <time>2021-07-19T08:15:21Z</time>
      </trkpt>
      <trkpt lat="42.64007" lon="1.69543">
        <ele>1822.976</ele>
        <time>2021-07-19T08:15:23Z</time>
      </trkpt>
      <trkpt lat="42.64007" lon="1.69543">
        <ele>1823.023</ele>
        <time>2021-07-19T08:15:25Z</time>
      </trkpt>
      <trkpt lat="42.64006" lon="1.69543">
        <ele>1822.875</ele>
        <time>2021-07-19T08:15:27Z</time>
      </trkpt>
      <trkpt lat="42.64006" lon="1.69543">
        <ele>1822.759</ele>
        <time>2021-07-19T08:15:29Z</time>
      </trkpt>
      <trkpt lat="42.64005" lon="1.69542">
        <ele>1823.438</ele>
        <time>2021-07-19T08:15:31Z</time>
      </trkpt>
      <trkpt lat="42.64004" lon="1.69541">
        <ele>1823.657</ele>
        <time>2021-07-19T08:15:33Z</time>
      </trkpt>
      <trkpt lat="42.64001" lon="1.69544">
        <ele>1823.707</ele>
        <time>2021-07-19T08:15:35Z</time>
      </trkpt>
      <trkpt lat="42.64002" lon="1.6954">
        <ele>1824.489</ele>
        <time>2021-07-19T08:15:37Z</time>
      </trkpt>
      <trkpt lat="42.64001" lon="1.69536">
        <ele>1824.529</ele>
        <time>2021-07-19T08:15:39Z</time>
      </trkpt>
      <trkpt lat="42.64001" lon="1.69534">
        <ele>1824.373</ele>
        <time>2021-07-19T08:15:41Z</time>
      </trkpt>
      <trkpt lat="42.64" lon="1.69533">
        <ele>1824.984</ele>
        <time>2021-07-19T08:15:43Z</time>
      </trkpt>
      <trkpt lat="42.63999" lon="1.69531">
        <ele>1825.443</ele>
        <time>2021-07-19T08:15:45Z</time>
      </trkpt>
      <trkpt lat="42.63999" lon="1.69529">
        <ele>1826.117</ele>
        <time>2021-07-19T08:15:47Z</time>
      </trkpt>
      <trkpt lat="42.63999" lon="1.69527">
        <ele>1826.404</ele>
        <time>2021-07-19T08:15:49Z</time>
      </trkpt>
      <trkpt lat="42.63999" lon="1.69525">
        <ele>1826.741</ele>
        <time>2021-07-19T08:15:51Z</time>
      </trkpt>
      <trkpt lat="42.63999" lon="1.69523">
        <ele>1826.811</ele>
        <time>2021-07-19T08:15:53Z</time>
      </trkpt>
      <trkpt lat="42.63999" lon="1.69522">
        <ele>1827.673</ele>
        <time>2021-07-19T08:15:55Z</time>
      </trkpt>
      <trkpt lat="42.63999" lon="1.6952">
        <ele>1827.839</ele>
        <time>2021-07-19T08:15:57Z</time>
      </trkpt>
      <trkpt lat="42.63998" lon="1.69518">
        <ele>1828.036</ele>
        <time>2021-07-19T08:15:59Z</time>
      </trkpt>
      <trkpt lat="42.63997" lon="1.69518">
        <ele>1828.354</ele>
        <time>2021-07-19T08:16:01Z</time>
      </trkpt>
      <trkpt lat="42.63997" lon="1.69516">
        <ele>1827.332</ele>
        <time>2021-07-19T08:16:03Z</time>
      </trkpt>
      <trkpt lat="42.63998" lon="1.69514">
        <ele>1826.389</ele>
        <time>2021-07-19T08:16:05Z</time>
      </trkpt>
      <trkpt lat="42.63998" lon="1.69511">
        <ele>1826.074</ele>
        <time>2021-07-19T08:16:07Z</time>
      </trkpt>
      <trkpt lat="42.63998" lon="1.69508">
        <ele>1826.013</ele>
        <time>2021-07-19T08:16:09Z</time>
      </trkpt>
      <trkpt lat="42.63997" lon="1.69505">
        <ele>1826.804</ele>
        <time>2021-07-19T08:16:11Z</time>
      </trkpt>
      <trkpt lat="42.63995" lon="1.69503">
        <ele>1826.443</ele>
        <time>2021-07-19T08:16:13Z</time>
      </trkpt>
      <trkpt lat="42.63993" lon="1.69502">
        <ele>1826.551</ele>
        <time>2021-07-19T08:16:15Z</time>
      </trkpt>
      <trkpt lat="42.63991" lon="1.69501">
        <ele>1826.535</ele>
        <time>2021-07-19T08:16:17Z</time>
      </trkpt>
      <trkpt lat="42.63989" lon="1.69499">
        <ele>1826.584</ele>
        <time>2021-07-19T08:16:19Z</time>
      </trkpt>
      <trkpt lat="42.63988" lon="1.69498">
        <ele>1826.979</ele>
        <time>2021-07-19T08:16:21Z</time>
      </trkpt>
      <trkpt lat="42.63987" lon="1.69497">
        <ele>1826.951</ele>
        <time>2021-07-19T08:16:23Z</time>
      </trkpt>
      <trkpt lat="42.63985" lon="1.69499">
        <ele>1827.96</ele>
        <time>2021-07-19T08:16:25Z</time>
      </trkpt>
      <trkpt lat="42.63983" lon="1.695">
        <ele>1827.625</ele>
        <time>2021-07-19T08:16:27Z</time>
      </trkpt>
      <trkpt lat="42.63982" lon="1.69499">
        <ele>1828.135</ele>
        <time>2021-07-19T08:16:29Z</time>
      </trkpt>
      <trkpt lat="42.6398" lon="1.69499">
        <ele>1827.366</ele>
        <time>2021-07-19T08:16:31Z</time>
      </trkpt>
      <trkpt lat="42.63979" lon="1.69501">
        <ele>1826.437</ele>
        <time>2021-07-19T08:16:33Z</time>
      </trkpt>
      <trkpt lat="42.63979" lon="1.69498">
        <ele>1827.875</ele>
        <time>2021-07-19T08:16:35Z</time>
      </trkpt>
      <trkpt lat="42.63979" lon="1.69498">
        <ele>1827.872</ele>
        <time>2021-07-19T08:16:37Z</time>
      </trkpt>
      <trkpt lat="42.63979" lon="1.69497">
        <ele>1828.899</ele>
        <time>2021-07-19T08:16:39Z</time>
      </trkpt>
      <trkpt lat="42.63978" lon="1.69495">
        <ele>1828.354</ele>
        <time>2021-07-19T08:16:41Z</time>
      </trkpt>
      <trkpt lat="42.63977" lon="1.69494">
        <ele>1828.58</ele>
        <time>2021-07-19T08:16:43Z</time>
      </trkpt>
      <trkpt lat="42.63976" lon="1.69493">
        <ele>1828.117</ele>
        <time>2021-07-19T08:16:45Z</time>
      </trkpt>
      <trkpt lat="42.63976" lon="1.6949">
        <ele>1828.517</ele>
        <time>2021-07-19T08:16:47Z</time>
      </trkpt>
      <trkpt lat="42.63975" lon="1.69488">
        <ele>1829.224</ele>
        <time>2021-07-19T08:16:49Z</time>
      </trkpt>
      <trkpt lat="42.63974" lon="1.69486">
        <ele>1830.282</ele>
        <time>2021-07-19T08:16:51Z</time>
      </trkpt>
      <trkpt lat="42.63972" lon="1.69486">
        <ele>1829.749</ele>
        <time>2021-07-19T08:16:53Z</time>
      </trkpt>
      <trkpt lat="42.6397" lon="1.69485">
        <ele>1829.623</ele>
        <time>2021-07-19T08:16:55Z</time>
      </trkpt>
      <trkpt lat="42.63968" lon="1.69484">
        <ele>1830.056</ele>
        <time>2021-07-19T08:16:57Z</time>
      </trkpt>
      <trkpt lat="42.63966" lon="1.69482">
        <ele>1830.838</ele>
        <time>2021-07-19T08:16:59Z</time>
      </trkpt>
      <trkpt lat="42.63965" lon="1.6948">
        <ele>1831.072</ele>
        <time>2021-07-19T08:17:01Z</time>
      </trkpt>
      <trkpt lat="42.63964" lon="1.69478">
        <ele>1831.589</ele>
        <time>2021-07-19T08:17:03Z</time>
      </trkpt>
      <trkpt lat="42.63962" lon="1.69477">
        <ele>1832.541</ele>
        <time>2021-07-19T08:17:05Z</time>
      </trkpt>
      <trkpt lat="42.6396" lon="1.69474">
        <ele>1833.638</ele>
        <time>2021-07-19T08:17:07Z</time>
      </trkpt>
      <trkpt lat="42.63959" lon="1.69472">
        <ele>1833.922</ele>
        <time>2021-07-19T08:17:09Z</time>
      </trkpt>
      <trkpt lat="42.63958" lon="1.69471">
        <ele>1834.102</ele>
        <time>2021-07-19T08:17:11Z</time>
      </trkpt>
      <trkpt lat="42.63957" lon="1.6947">
        <ele>1834.626</ele>
        <time>2021-07-19T08:17:13Z</time>
      </trkpt>
      <trkpt lat="42.63956" lon="1.69468">
        <ele>1834.586</ele>
        <time>2021-07-19T08:17:15Z</time>
      </trkpt>
      <trkpt lat="42.63954" lon="1.69467">
        <ele>1835.561</ele>
        <time>2021-07-19T08:17:17Z</time>
      </trkpt>
      <trkpt lat="42.63954" lon="1.69465">
        <ele>1835.272</ele>
        <time>2021-07-19T08:17:19Z</time>
      </trkpt>
      <trkpt lat="42.63954" lon="1.69465">
        <ele>1835.381</ele>
        <time>2021-07-19T08:17:21Z</time>
      </trkpt>
      <trkpt lat="42.63954" lon="1.69465">
        <ele>1835.372</ele>
        <time>2021-07-19T08:17:23Z</time>
      </trkpt>
      <trkpt lat="42.63954" lon="1.69465">
        <ele>1835.211</ele>
        <time>2021-07-19T08:17:25Z</time>
      </trkpt>
      <trkpt lat="42.63953" lon="1.69464">
        <ele>1835.469</ele>
        <time>2021-07-19T08:17:27Z</time>
      </trkpt>
      <trkpt lat="42.63955" lon="1.6946">
        <ele>1835.589</ele>
        <time>2021-07-19T08:17:29Z</time>
      </trkpt>
      <trkpt lat="42.63954" lon="1.69459">
        <ele>1834.9</ele>
        <time>2021-07-19T08:17:31Z</time>
      </trkpt>
      <trkpt lat="42.63954" lon="1.69457">
        <ele>1835.28</ele>
        <time>2021-07-19T08:17:33Z</time>
      </trkpt>
      <trkpt lat="42.63953" lon="1.69455">
        <ele>1835.709</ele>
        <time>2021-07-19T08:17:35Z</time>
      </trkpt>
      <trkpt lat="42.63952" lon="1.69453">
        <ele>1836.124</ele>
        <time>2021-07-19T08:17:37Z</time>
      </trkpt>
      <trkpt lat="42.63951" lon="1.69452">
        <ele>1836.006</ele>
        <time>2021-07-19T08:17:39Z</time>
      </trkpt>
      <trkpt lat="42.6395" lon="1.6945">
        <ele>1836.38</ele>
        <time>2021-07-19T08:17:41Z</time>
      </trkpt>
      <trkpt lat="42.63948" lon="1.69449">
        <ele>1835.968</ele>
        <time>2021-07-19T08:17:43Z</time>
      </trkpt>
      <trkpt lat="42.63947" lon="1.69447">
        <ele>1835.593</ele>
        <time>2021-07-19T08:17:45Z</time>
      </trkpt>
      <trkpt lat="42.63947" lon="1.69445">
        <ele>1834.942</ele>
        <time>2021-07-19T08:17:47Z</time>
      </trkpt>
      <trkpt lat="42.63945" lon="1.69443">
        <ele>1835.136</ele>
        <time>2021-07-19T08:17:49Z</time>
      </trkpt>
      <trkpt lat="42.63944" lon="1.69441">
        <ele>1836.143</ele>
        <time>2021-07-19T08:17:51Z</time>
      </trkpt>
      <trkpt lat="42.63943" lon="1.69438">
        <ele>1835.931</ele>
        <time>2021-07-19T08:17:53Z</time>
      </trkpt>
      <trkpt lat="42.63943" lon="1.69436">
        <ele>1836.136</ele>
        <time>2021-07-19T08:17:55Z</time>
      </trkpt>
      <trkpt lat="42.63943" lon="1.69433">
        <ele>1836.05</ele>
        <time>2021-07-19T08:17:57Z</time>
      </trkpt>
      <trkpt lat="42.63943" lon="1.6943">
        <ele>1836.1</ele>
        <time>2021-07-19T08:17:59Z</time>
      </trkpt>
      <trkpt lat="42.63943" lon="1.69427">
        <ele>1836.423</ele>
        <time>2021-07-19T08:18:01Z</time>
      </trkpt>
      <trkpt lat="42.63943" lon="1.69424">
        <ele>1836.682</ele>
        <time>2021-07-19T08:18:03Z</time>
      </trkpt>
      <trkpt lat="42.63943" lon="1.69423">
        <ele>1836.487</ele>
        <time>2021-07-19T08:18:05Z</time>
      </trkpt>
      <trkpt lat="42.63942" lon="1.69421">
        <ele>1837.06</ele>
        <time>2021-07-19T08:18:07Z</time>
      </trkpt>
      <trkpt lat="42.63941" lon="1.6942">
        <ele>1838.017</ele>
        <time>2021-07-19T08:18:09Z</time>
      </trkpt>
      <trkpt lat="42.6394" lon="1.69417">
        <ele>1838.05</ele>
        <time>2021-07-19T08:18:11Z</time>
      </trkpt>
      <trkpt lat="42.63941" lon="1.69414">
        <ele>1837.752</ele>
        <time>2021-07-19T08:18:13Z</time>
      </trkpt>
      <trkpt lat="42.63942" lon="1.6941">
        <ele>1836.847</ele>
        <time>2021-07-19T08:18:15Z</time>
      </trkpt>
      <trkpt lat="42.6394" lon="1.69406">
        <ele>1838.798</ele>
        <time>2021-07-19T08:18:17Z</time>
      </trkpt>
      <trkpt lat="42.63939" lon="1.69404">
        <ele>1839.367</ele>
        <time>2021-07-19T08:18:19Z</time>
      </trkpt>
      <trkpt lat="42.63938" lon="1.69402">
        <ele>1840.69</ele>
        <time>2021-07-19T08:18:21Z</time>
      </trkpt>
      <trkpt lat="42.63937" lon="1.69401">
        <ele>1840.261</ele>
        <time>2021-07-19T08:18:23Z</time>
      </trkpt>
      <trkpt lat="42.63937" lon="1.694">
        <ele>1840.222</ele>
        <time>2021-07-19T08:18:25Z</time>
      </trkpt>
      <trkpt lat="42.63937" lon="1.69401">
        <ele>1839.226</ele>
        <time>2021-07-19T08:18:27Z</time>
      </trkpt>
      <trkpt lat="42.63936" lon="1.69402">
        <ele>1839.6</ele>
        <time>2021-07-19T08:18:29Z</time>
      </trkpt>
      <trkpt lat="42.63936" lon="1.69402">
        <ele>1839.601</ele>
        <time>2021-07-19T08:18:31Z</time>
      </trkpt>
      <trkpt lat="42.63936" lon="1.69402">
        <ele>1839.589</ele>
        <time>2021-07-19T08:18:33Z</time>
      </trkpt>
      <trkpt lat="42.63936" lon="1.69402">
        <ele>1839.663</ele>
        <time>2021-07-19T08:18:35Z</time>
      </trkpt>
      <trkpt lat="42.63936" lon="1.69402">
        <ele>1839.39</ele>
        <time>2021-07-19T08:18:37Z</time>
      </trkpt>
      <trkpt lat="42.63936" lon="1.69403">
        <ele>1840.305</ele>
        <time>2021-07-19T08:18:39Z</time>
      </trkpt>
      <trkpt lat="42.63935" lon="1.69403">
        <ele>1840.339</ele>
        <time>2021-07-19T08:18:41Z</time>
      </trkpt>
      <trkpt lat="42.63935" lon="1.69401">
        <ele>1841.305</ele>
        <time>2021-07-19T08:18:43Z</time>
      </trkpt>
      <trkpt lat="42.63934" lon="1.69399">
        <ele>1840.915</ele>
        <time>2021-07-19T08:18:45Z</time>
      </trkpt>
      <trkpt lat="42.63933" lon="1.69396">
        <ele>1840.973</ele>
        <time>2021-07-19T08:18:47Z</time>
      </trkpt>
      <trkpt lat="42.63933" lon="1.69394">
        <ele>1841.11</ele>
        <time>2021-07-19T08:18:49Z</time>
      </trkpt>
      <trkpt lat="42.63933" lon="1.69393">
        <ele>1841.338</ele>
        <time>2021-07-19T08:18:51Z</time>
      </trkpt>
      <trkpt lat="42.63932" lon="1.69393">
        <ele>1841.348</ele>
        <time>2021-07-19T08:18:53Z</time>
      </trkpt>
      <trkpt lat="42.63932" lon="1.69393">
        <ele>1841.237</ele>
        <time>2021-07-19T08:18:55Z</time>
      </trkpt>
      <trkpt lat="42.63932" lon="1.69394">
        <ele>1840.468</ele>
        <time>2021-07-19T08:18:57Z</time>
      </trkpt>
      <trkpt lat="42.63931" lon="1.69393">
        <ele>1840.036</ele>
        <time>2021-07-19T08:18:59Z</time>
      </trkpt>
      <trkpt lat="42.6393" lon="1.69391">
        <ele>1839.054</ele>
        <time>2021-07-19T08:19:01Z</time>
      </trkpt>
      <trkpt lat="42.63929" lon="1.69389">
        <ele>1838.548</ele>
        <time>2021-07-19T08:19:03Z</time>
      </trkpt>
      <trkpt lat="42.63929" lon="1.69387">
        <ele>1838.986</ele>
        <time>2021-07-19T08:19:05Z</time>
      </trkpt>
      <trkpt lat="42.63929" lon="1.69385">
        <ele>1839.506</ele>
        <time>2021-07-19T08:19:07Z</time>
      </trkpt>
      <trkpt lat="42.63928" lon="1.69383">
        <ele>1839.53</ele>
        <time>2021-07-19T08:19:09Z</time>
      </trkpt>
      <trkpt lat="42.63927" lon="1.69382">
        <ele>1839.065</ele>
        <time>2021-07-19T08:19:11Z</time>
      </trkpt>
      <trkpt lat="42.63926" lon="1.6938">
        <ele>1837.881</ele>
        <time>2021-07-19T08:19:13Z</time>
      </trkpt>
      <trkpt lat="42.63925" lon="1.69379">
        <ele>1838.092</ele>
        <time>2021-07-19T08:19:15Z</time>
      </trkpt>
      <trkpt lat="42.63925" lon="1.69376">
        <ele>1838.465</ele>
        <time>2021-07-19T08:19:17Z</time>
      </trkpt>
      <trkpt lat="42.63923" lon="1.69374">
        <ele>1839.411</ele>
        <time>2021-07-19T08:19:19Z</time>
      </trkpt>
      <trkpt lat="42.63922" lon="1.69373">
        <ele>1839.355</ele>
        <time>2021-07-19T08:19:21Z</time>
      </trkpt>
      <trkpt lat="42.63921" lon="1.6937">
        <ele>1839.396</ele>
        <time>2021-07-19T08:19:23Z</time>
      </trkpt>
      <trkpt lat="42.6392" lon="1.69369">
        <ele>1838.992</ele>
        <time>2021-07-19T08:19:25Z</time>
      </trkpt>
      <trkpt lat="42.63919" lon="1.69367">
        <ele>1839.161</ele>
        <time>2021-07-19T08:19:27Z</time>
      </trkpt>
      <trkpt lat="42.63918" lon="1.69364">
        <ele>1839.722</ele>
        <time>2021-07-19T08:19:29Z</time>
      </trkpt>
      <trkpt lat="42.63918" lon="1.69362">
        <ele>1840.595</ele>
        <time>2021-07-19T08:19:31Z</time>
      </trkpt>
      <trkpt lat="42.63917" lon="1.6936">
        <ele>1840.591</ele>
        <time>2021-07-19T08:19:33Z</time>
      </trkpt>
      <trkpt lat="42.63917" lon="1.69358">
        <ele>1839.648</ele>
        <time>2021-07-19T08:19:35Z</time>
      </trkpt>
      <trkpt lat="42.63916" lon="1.69355">
        <ele>1841.949</ele>
        <time>2021-07-19T08:19:37Z</time>
      </trkpt>
      <trkpt lat="42.63916" lon="1.69352">
        <ele>1843.13</ele>
        <time>2021-07-19T08:19:39Z</time>
      </trkpt>
      <trkpt lat="42.63915" lon="1.69349">
        <ele>1843.861</ele>
        <time>2021-07-19T08:19:41Z</time>
      </trkpt>
      <trkpt lat="42.63915" lon="1.69347">
        <ele>1845.039</ele>
        <time>2021-07-19T08:19:43Z</time>
      </trkpt>
      <trkpt lat="42.63915" lon="1.69344">
        <ele>1846.559</ele>
        <time>2021-07-19T08:19:45Z</time>
      </trkpt>
      <trkpt lat="42.63914" lon="1.69341">
        <ele>1847.062</ele>
        <time>2021-07-19T08:19:47Z</time>
      </trkpt>
      <trkpt lat="42.63913" lon="1.69338">
        <ele>1847.354</ele>
        <time>2021-07-19T08:19:49Z</time>
      </trkpt>
      <trkpt lat="42.63912" lon="1.69337">
        <ele>1847.273</ele>
        <time>2021-07-19T08:19:51Z</time>
      </trkpt>
      <trkpt lat="42.63913" lon="1.69334">
        <ele>1847.422</ele>
        <time>2021-07-19T08:19:53Z</time>
      </trkpt>
      <trkpt lat="42.63912" lon="1.69332">
        <ele>1846.956</ele>
        <time>2021-07-19T08:19:55Z</time>
      </trkpt>
      <trkpt lat="42.6391" lon="1.6933">
        <ele>1846.542</ele>
        <time>2021-07-19T08:19:57Z</time>
      </trkpt>
      <trkpt lat="42.63909" lon="1.69328">
        <ele>1846.212</ele>
        <time>2021-07-19T08:19:59Z</time>
      </trkpt>
      <trkpt lat="42.63909" lon="1.69326">
        <ele>1846.834</ele>
        <time>2021-07-19T08:20:01Z</time>
      </trkpt>
      <trkpt lat="42.63908" lon="1.69324">
        <ele>1847.363</ele>
        <time>2021-07-19T08:20:03Z</time>
      </trkpt>
      <trkpt lat="42.63908" lon="1.69322">
        <ele>1846.855</ele>
        <time>2021-07-19T08:20:05Z</time>
      </trkpt>
      <trkpt lat="42.63908" lon="1.69319">
        <ele>1847.418</ele>
        <time>2021-07-19T08:20:07Z</time>
      </trkpt>
      <trkpt lat="42.63907" lon="1.69317">
        <ele>1848.088</ele>
        <time>2021-07-19T08:20:09Z</time>
      </trkpt>
      <trkpt lat="42.63906" lon="1.69315">
        <ele>1847.453</ele>
        <time>2021-07-19T08:20:11Z</time>
      </trkpt>
      <trkpt lat="42.63906" lon="1.69312">
        <ele>1847.278</ele>
        <time>2021-07-19T08:20:13Z</time>
      </trkpt>
      <trkpt lat="42.63906" lon="1.6931">
        <ele>1848.25</ele>
        <time>2021-07-19T08:20:15Z</time>
      </trkpt>
      <trkpt lat="42.63905" lon="1.69308">
        <ele>1848.816</ele>
        <time>2021-07-19T08:20:17Z</time>
      </trkpt>
      <trkpt lat="42.63904" lon="1.69306">
        <ele>1849.219</ele>
        <time>2021-07-19T08:20:19Z</time>
      </trkpt>
      <trkpt lat="42.63903" lon="1.69304">
        <ele>1849.21</ele>
        <time>2021-07-19T08:20:21Z</time>
      </trkpt>
      <trkpt lat="42.63902" lon="1.69303">
        <ele>1847.938</ele>
        <time>2021-07-19T08:20:23Z</time>
      </trkpt>
      <trkpt lat="42.63901" lon="1.69301">
        <ele>1846.347</ele>
        <time>2021-07-19T08:20:25Z</time>
      </trkpt>
      <trkpt lat="42.63899" lon="1.693">
        <ele>1845.428</ele>
        <time>2021-07-19T08:20:27Z</time>
      </trkpt>
      <trkpt lat="42.63898" lon="1.69298">
        <ele>1845.101</ele>
        <time>2021-07-19T08:20:29Z</time>
      </trkpt>
      <trkpt lat="42.63897" lon="1.69296">
        <ele>1845.704</ele>
        <time>2021-07-19T08:20:31Z</time>
      </trkpt>
      <trkpt lat="42.63896" lon="1.69293">
        <ele>1845.546</ele>
        <time>2021-07-19T08:20:33Z</time>
      </trkpt>
      <trkpt lat="42.63894" lon="1.69291">
        <ele>1845.32</ele>
        <time>2021-07-19T08:20:35Z</time>
      </trkpt>
      <trkpt lat="42.63893" lon="1.69289">
        <ele>1845.412</ele>
        <time>2021-07-19T08:20:37Z</time>
      </trkpt>
      <trkpt lat="42.63892" lon="1.69287">
        <ele>1845.296</ele>
        <time>2021-07-19T08:20:39Z</time>
      </trkpt>
      <trkpt lat="42.63891" lon="1.69284">
        <ele>1846.221</ele>
        <time>2021-07-19T08:20:41Z</time>
      </trkpt>
      <trkpt lat="42.6389" lon="1.69281">
        <ele>1847.303</ele>
        <time>2021-07-19T08:20:43Z</time>
      </trkpt>
      <trkpt lat="42.63889" lon="1.69277">
        <ele>1848.54</ele>
        <time>2021-07-19T08:20:45Z</time>
      </trkpt>
      <trkpt lat="42.63887" lon="1.69275">
        <ele>1848.791</ele>
        <time>2021-07-19T08:20:47Z</time>
      </trkpt>
      <trkpt lat="42.63886" lon="1.69274">
        <ele>1848.419</ele>
        <time>2021-07-19T08:20:49Z</time>
      </trkpt>
      <trkpt lat="42.63884" lon="1.69272">
        <ele>1848.837</ele>
        <time>2021-07-19T08:20:51Z</time>
      </trkpt>
      <trkpt lat="42.63883" lon="1.69269">
        <ele>1849.534</ele>
        <time>2021-07-19T08:20:53Z</time>
      </trkpt>
      <trkpt lat="42.63881" lon="1.69267">
        <ele>1850.345</ele>
        <time>2021-07-19T08:20:55Z</time>
      </trkpt>
      <trkpt lat="42.6388" lon="1.69264">
        <ele>1850.644</ele>
        <time>2021-07-19T08:20:57Z</time>
      </trkpt>
      <trkpt lat="42.63879" lon="1.69262">
        <ele>1850.41</ele>
        <time>2021-07-19T08:20:59Z</time>
      </trkpt>
      <trkpt lat="42.63877" lon="1.6926">
        <ele>1850.268</ele>
        <time>2021-07-19T08:21:01Z</time>
      </trkpt>
      <trkpt lat="42.63876" lon="1.69258">
        <ele>1850.445</ele>
        <time>2021-07-19T08:21:03Z</time>
      </trkpt>
      <trkpt lat="42.63875" lon="1.69256">
        <ele>1850.829</ele>
        <time>2021-07-19T08:21:05Z</time>
      </trkpt>
      <trkpt lat="42.63874" lon="1.69252">
        <ele>1851.436</ele>
        <time>2021-07-19T08:21:07Z</time>
      </trkpt>
      <trkpt lat="42.63874" lon="1.6925">
        <ele>1851.921</ele>
        <time>2021-07-19T08:21:09Z</time>
      </trkpt>
      <trkpt lat="42.63873" lon="1.69248">
        <ele>1852.134</ele>
        <time>2021-07-19T08:21:11Z</time>
      </trkpt>
      <trkpt lat="42.63872" lon="1.69245">
        <ele>1852.216</ele>
        <time>2021-07-19T08:21:13Z</time>
      </trkpt>
      <trkpt lat="42.63872" lon="1.69242">
        <ele>1853.14</ele>
        <time>2021-07-19T08:21:15Z</time>
      </trkpt>
      <trkpt lat="42.63871" lon="1.69239">
        <ele>1853.478</ele>
        <time>2021-07-19T08:21:17Z</time>
      </trkpt>
      <trkpt lat="42.6387" lon="1.69236">
        <ele>1854.111</ele>
        <time>2021-07-19T08:21:19Z</time>
      </trkpt>
      <trkpt lat="42.63869" lon="1.69233">
        <ele>1854.647</ele>
        <time>2021-07-19T08:21:21Z</time>
      </trkpt>
      <trkpt lat="42.63869" lon="1.6923">
        <ele>1855.182</ele>
        <time>2021-07-19T08:21:23Z</time>
      </trkpt>
      <trkpt lat="42.63869" lon="1.69228">
        <ele>1855.831</ele>
        <time>2021-07-19T08:21:25Z</time>
      </trkpt>
      <trkpt lat="42.63869" lon="1.69226">
        <ele>1855.827</ele>
        <time>2021-07-19T08:21:27Z</time>
      </trkpt>
      <trkpt lat="42.63869" lon="1.69222">
        <ele>1856.615</ele>
        <time>2021-07-19T08:21:29Z</time>
      </trkpt>
      <trkpt lat="42.63869" lon="1.69219">
        <ele>1857.28</ele>
        <time>2021-07-19T08:21:31Z</time>
      </trkpt>
      <trkpt lat="42.63869" lon="1.69217">
        <ele>1857.562</ele>
        <time>2021-07-19T08:21:33Z</time>
      </trkpt>
      <trkpt lat="42.63869" lon="1.69215">
        <ele>1857.653</ele>
        <time>2021-07-19T08:21:35Z</time>
      </trkpt>
      <trkpt lat="42.63868" lon="1.69212">
        <ele>1858.123</ele>
        <time>2021-07-19T08:21:37Z</time>
      </trkpt>
      <trkpt lat="42.63868" lon="1.6921">
        <ele>1858.419</ele>
        <time>2021-07-19T08:21:39Z</time>
      </trkpt>
      <trkpt lat="42.63866" lon="1.69208">
        <ele>1858.125</ele>
        <time>2021-07-19T08:21:41Z</time>
      </trkpt>
      <trkpt lat="42.63866" lon="1.69206">
        <ele>1858.446</ele>
        <time>2021-07-19T08:21:43Z</time>
      </trkpt>
      <trkpt lat="42.63864" lon="1.69204">
        <ele>1859.143</ele>
        <time>2021-07-19T08:21:45Z</time>
      </trkpt>
      <trkpt lat="42.63862" lon="1.69201">
        <ele>1860.185</ele>
        <time>2021-07-19T08:21:47Z</time>
      </trkpt>
      <trkpt lat="42.63861" lon="1.69199">
        <ele>1861.296</ele>
        <time>2021-07-19T08:21:49Z</time>
      </trkpt>
      <trkpt lat="42.63859" lon="1.69197">
        <ele>1861.275</ele>
        <time>2021-07-19T08:21:51Z</time>
      </trkpt>
      <trkpt lat="42.63857" lon="1.69195">
        <ele>1861.876</ele>
        <time>2021-07-19T08:21:53Z</time>
      </trkpt>
      <trkpt lat="42.63856" lon="1.69193">
        <ele>1862.4</ele>
        <time>2021-07-19T08:21:55Z</time>
      </trkpt>
      <trkpt lat="42.63855" lon="1.69191">
        <ele>1863.175</ele>
        <time>2021-07-19T08:21:57Z</time>
      </trkpt>
      <trkpt lat="42.63854" lon="1.69188">
        <ele>1862.63</ele>
        <time>2021-07-19T08:21:59Z</time>
      </trkpt>
      <trkpt lat="42.63853" lon="1.69186">
        <ele>1863.024</ele>
        <time>2021-07-19T08:22:01Z</time>
      </trkpt>
      <trkpt lat="42.63851" lon="1.69184">
        <ele>1863.442</ele>
        <time>2021-07-19T08:22:03Z</time>
      </trkpt>
      <trkpt lat="42.6385" lon="1.69183">
        <ele>1864.609</ele>
        <time>2021-07-19T08:22:05Z</time>
      </trkpt>
      <trkpt lat="42.6385" lon="1.69183">
        <ele>1864.456</ele>
        <time>2021-07-19T08:22:07Z</time>
      </trkpt>
      <trkpt lat="42.6385" lon="1.69183">
        <ele>1864.441</ele>
        <time>2021-07-19T08:22:09Z</time>
      </trkpt>
      <trkpt lat="42.6385" lon="1.69183">
        <ele>1864.431</ele>
        <time>2021-07-19T08:22:11Z</time>
      </trkpt>
      <trkpt lat="42.6385" lon="1.69183">
        <ele>1864.427</ele>
        <time>2021-07-19T08:22:13Z</time>
      </trkpt>
      <trkpt lat="42.6385" lon="1.69183">
        <ele>1864.414</ele>
        <time>2021-07-19T08:22:15Z</time>
      </trkpt>
      <trkpt lat="42.6385" lon="1.69183">
        <ele>1864.404</ele>
        <time>2021-07-19T08:22:17Z</time>
      </trkpt>
      <trkpt lat="42.6385" lon="1.69183">
        <ele>1864.405</ele>
        <time>2021-07-19T08:22:19Z</time>
      </trkpt>
      <trkpt lat="42.6385" lon="1.69183">
        <ele>1864.403</ele>
        <time>2021-07-19T08:22:21Z</time>
      </trkpt>
      <trkpt lat="42.6385" lon="1.69183">
        <ele>1864.399</ele>
        <time>2021-07-19T08:22:23Z</time>
      </trkpt>
      <trkpt lat="42.6385" lon="1.69183">
        <ele>1864.397</ele>
        <time>2021-07-19T08:22:25Z</time>
      </trkpt>
      <trkpt lat="42.6385" lon="1.69184">
        <ele>1864.484</ele>
        <time>2021-07-19T08:22:27Z</time>
      </trkpt>
      <trkpt lat="42.6385" lon="1.69184">
        <ele>1864.465</ele>
        <time>2021-07-19T08:22:29Z</time>
      </trkpt>
      <trkpt lat="42.6385" lon="1.69184">
        <ele>1864.452</ele>
        <time>2021-07-19T08:22:31Z</time>
      </trkpt>
      <trkpt lat="42.6385" lon="1.69184">
        <ele>1864.456</ele>
        <time>2021-07-19T08:22:33Z</time>
      </trkpt>
      <trkpt lat="42.6385" lon="1.69184">
        <ele>1864.442</ele>
        <time>2021-07-19T08:22:35Z</time>
      </trkpt>
      <trkpt lat="42.6385" lon="1.69184">
        <ele>1864.42</ele>
        <time>2021-07-19T08:22:37Z</time>
      </trkpt>
      <trkpt lat="42.6385" lon="1.69184">
        <ele>1864.411</ele>
        <time>2021-07-19T08:22:39Z</time>
      </trkpt>
      <trkpt lat="42.6385" lon="1.69184">
        <ele>1864.417</ele>
        <time>2021-07-19T08:22:41Z</time>
      </trkpt>
      <trkpt lat="42.6385" lon="1.69183">
        <ele>1863.6</ele>
        <time>2021-07-19T08:22:43Z</time>
      </trkpt>
      <trkpt lat="42.63848" lon="1.69184">
        <ele>1863.619</ele>
        <time>2021-07-19T08:22:45Z</time>
      </trkpt>
      <trkpt lat="42.63847" lon="1.69182">
        <ele>1864.179</ele>
        <time>2021-07-19T08:22:47Z</time>
      </trkpt>
      <trkpt lat="42.63846" lon="1.6918">
        <ele>1865.019</ele>
        <time>2021-07-19T08:22:49Z</time>
      </trkpt>
      <trkpt lat="42.63846" lon="1.6918">
        <ele>1865.801</ele>
        <time>2021-07-19T08:22:51Z</time>
      </trkpt>
      <trkpt lat="42.63846" lon="1.6918">
        <ele>1865.795</ele>
        <time>2021-07-19T08:22:53Z</time>
      </trkpt>
      <trkpt lat="42.63846" lon="1.6918">
        <ele>1865.49</ele>
        <time>2021-07-19T08:22:55Z</time>
      </trkpt>
      <trkpt lat="42.63845" lon="1.69181">
        <ele>1864.766</ele>
        <time>2021-07-19T08:22:57Z</time>
      </trkpt>
      <trkpt lat="42.63844" lon="1.6918">
        <ele>1864.806</ele>
        <time>2021-07-19T08:22:59Z</time>
      </trkpt>
      <trkpt lat="42.63843" lon="1.69179">
        <ele>1864.502</ele>
        <time>2021-07-19T08:23:01Z</time>
      </trkpt>
      <trkpt lat="42.63842" lon="1.69178">
        <ele>1863.561</ele>
        <time>2021-07-19T08:23:03Z</time>
      </trkpt>
      <trkpt lat="42.63841" lon="1.69177">
        <ele>1863.024</ele>
        <time>2021-07-19T08:23:05Z</time>
      </trkpt>
      <trkpt lat="42.6384" lon="1.69176">
        <ele>1863.309</ele>
        <time>2021-07-19T08:23:07Z</time>
      </trkpt>
      <trkpt lat="42.63839" lon="1.69175">
        <ele>1862.674</ele>
        <time>2021-07-19T08:23:09Z</time>
      </trkpt>
      <trkpt lat="42.63838" lon="1.69173">
        <ele>1862.449</ele>
        <time>2021-07-19T08:23:11Z</time>
      </trkpt>
      <trkpt lat="42.63837" lon="1.69171">
        <ele>1863.526</ele>
        <time>2021-07-19T08:23:13Z</time>
      </trkpt>
      <trkpt lat="42.63836" lon="1.69169">
        <ele>1863.484</ele>
        <time>2021-07-19T08:23:15Z</time>
      </trkpt>
      <trkpt lat="42.63835" lon="1.69168">
        <ele>1864.68</ele>
        <time>2021-07-19T08:23:17Z</time>
      </trkpt>
      <trkpt lat="42.63834" lon="1.69166">
        <ele>1865.237</ele>
        <time>2021-07-19T08:23:19Z</time>
      </trkpt>
      <trkpt lat="42.63833" lon="1.69165">
        <ele>1864.958</ele>
        <time>2021-07-19T08:23:21Z</time>
      </trkpt>
      <trkpt lat="42.63832" lon="1.69163">
        <ele>1864.978</ele>
        <time>2021-07-19T08:23:23Z</time>
      </trkpt>
      <trkpt lat="42.63831" lon="1.69161">
        <ele>1864.249</ele>
        <time>2021-07-19T08:23:25Z</time>
      </trkpt>
      <trkpt lat="42.6383" lon="1.69158">
        <ele>1865.045</ele>
        <time>2021-07-19T08:23:27Z</time>
      </trkpt>
      <trkpt lat="42.63829" lon="1.69156">
        <ele>1865.113</ele>
        <time>2021-07-19T08:23:29Z</time>
      </trkpt>
      <trkpt lat="42.63828" lon="1.69154">
        <ele>1866.094</ele>
        <time>2021-07-19T08:23:31Z</time>
      </trkpt>
      <trkpt lat="42.63826" lon="1.69152">
        <ele>1866.478</ele>
        <time>2021-07-19T08:23:33Z</time>
      </trkpt>
      <trkpt lat="42.63826" lon="1.69149">
        <ele>1866.005</ele>
        <time>2021-07-19T08:23:35Z</time>
      </trkpt>
      <trkpt lat="42.63825" lon="1.69147">
        <ele>1866.179</ele>
        <time>2021-07-19T08:23:37Z</time>
      </trkpt>
      <trkpt lat="42.63824" lon="1.69145">
        <ele>1866.106</ele>
        <time>2021-07-19T08:23:39Z</time>
      </trkpt>
      <trkpt lat="42.63823" lon="1.69144">
        <ele>1866.371</ele>
        <time>2021-07-19T08:23:41Z</time>
      </trkpt>
      <trkpt lat="42.63822" lon="1.69142">
        <ele>1867.09</ele>
        <time>2021-07-19T08:23:43Z</time>
      </trkpt>
      <trkpt lat="42.63821" lon="1.69141">
        <ele>1866.803</ele>
        <time>2021-07-19T08:23:45Z</time>
      </trkpt>
      <trkpt lat="42.63821" lon="1.69141">
        <ele>1866.494</ele>
        <time>2021-07-19T08:23:47Z</time>
      </trkpt>
      <trkpt lat="42.6382" lon="1.69139">
        <ele>1867.01</ele>
        <time>2021-07-19T08:23:49Z</time>
      </trkpt>
      <trkpt lat="42.6382" lon="1.69137">
        <ele>1867.106</ele>
        <time>2021-07-19T08:23:51Z</time>
      </trkpt>
      <trkpt lat="42.6382" lon="1.69134">
        <ele>1867.062</ele>
        <time>2021-07-19T08:23:53Z</time>
      </trkpt>
      <trkpt lat="42.63819" lon="1.69132">
        <ele>1866.999</ele>
        <time>2021-07-19T08:23:55Z</time>
      </trkpt>
      <trkpt lat="42.63817" lon="1.69131">
        <ele>1867.279</ele>
        <time>2021-07-19T08:23:57Z</time>
      </trkpt>
      <trkpt lat="42.63816" lon="1.69131">
        <ele>1867.714</ele>
        <time>2021-07-19T08:23:59Z</time>
      </trkpt>
      <trkpt lat="42.63814" lon="1.6913">
        <ele>1867.767</ele>
        <time>2021-07-19T08:24:01Z</time>
      </trkpt>
      <trkpt lat="42.63813" lon="1.69128">
        <ele>1868.359</ele>
        <time>2021-07-19T08:24:03Z</time>
      </trkpt>
      <trkpt lat="42.63812" lon="1.69126">
        <ele>1868.941</ele>
        <time>2021-07-19T08:24:05Z</time>
      </trkpt>
      <trkpt lat="42.63811" lon="1.69123">
        <ele>1868.895</ele>
        <time>2021-07-19T08:24:07Z</time>
      </trkpt>
      <trkpt lat="42.6381" lon="1.69121">
        <ele>1869.285</ele>
        <time>2021-07-19T08:24:09Z</time>
      </trkpt>
      <trkpt lat="42.63808" lon="1.69119">
        <ele>1869.495</ele>
        <time>2021-07-19T08:24:11Z</time>
      </trkpt>
      <trkpt lat="42.63807" lon="1.69117">
        <ele>1870.126</ele>
        <time>2021-07-19T08:24:13Z</time>
      </trkpt>
      <trkpt lat="42.63805" lon="1.69116">
        <ele>1870.179</ele>
        <time>2021-07-19T08:24:15Z</time>
      </trkpt>
      <trkpt lat="42.63804" lon="1.69114">
        <ele>1870.503</ele>
        <time>2021-07-19T08:24:17Z</time>
      </trkpt>
      <trkpt lat="42.63803" lon="1.69112">
        <ele>1870.451</ele>
        <time>2021-07-19T08:24:19Z</time>
      </trkpt>
      <trkpt lat="42.63803" lon="1.69109">
        <ele>1871.054</ele>
        <time>2021-07-19T08:24:21Z</time>
      </trkpt>
      <trkpt lat="42.63802" lon="1.69106">
        <ele>1871.52</ele>
        <time>2021-07-19T08:24:23Z</time>
      </trkpt>
      <trkpt lat="42.63801" lon="1.69103">
        <ele>1871.782</ele>
        <time>2021-07-19T08:24:25Z</time>
      </trkpt>
      <trkpt lat="42.63799" lon="1.69101">
        <ele>1872.193</ele>
        <time>2021-07-19T08:24:27Z</time>
      </trkpt>
      <trkpt lat="42.63797" lon="1.69098">
        <ele>1872.334</ele>
        <time>2021-07-19T08:24:29Z</time>
      </trkpt>
      <trkpt lat="42.63795" lon="1.69096">
        <ele>1873.344</ele>
        <time>2021-07-19T08:24:31Z</time>
      </trkpt>
      <trkpt lat="42.63793" lon="1.69092">
        <ele>1874.451</ele>
        <time>2021-07-19T08:24:33Z</time>
      </trkpt>
      <trkpt lat="42.6379" lon="1.6909">
        <ele>1875.9</ele>
        <time>2021-07-19T08:24:35Z</time>
      </trkpt>
      <trkpt lat="42.63789" lon="1.69088">
        <ele>1877.222</ele>
        <time>2021-07-19T08:24:37Z</time>
      </trkpt>
      <trkpt lat="42.63788" lon="1.69087">
        <ele>1876.145</ele>
        <time>2021-07-19T08:24:39Z</time>
      </trkpt>
      <trkpt lat="42.63788" lon="1.69085">
        <ele>1875.867</ele>
        <time>2021-07-19T08:24:41Z</time>
      </trkpt>
      <trkpt lat="42.63787" lon="1.69084">
        <ele>1875.832</ele>
        <time>2021-07-19T08:24:43Z</time>
      </trkpt>
      <trkpt lat="42.63785" lon="1.69083">
        <ele>1876.843</ele>
        <time>2021-07-19T08:24:45Z</time>
      </trkpt>
      <trkpt lat="42.63784" lon="1.69083">
        <ele>1876.566</ele>
        <time>2021-07-19T08:24:47Z</time>
      </trkpt>
      <trkpt lat="42.63783" lon="1.69082">
        <ele>1876.456</ele>
        <time>2021-07-19T08:24:49Z</time>
      </trkpt>
      <trkpt lat="42.63781" lon="1.6908">
        <ele>1876.086</ele>
        <time>2021-07-19T08:24:51Z</time>
      </trkpt>
      <trkpt lat="42.6378" lon="1.69079">
        <ele>1876.056</ele>
        <time>2021-07-19T08:24:53Z</time>
      </trkpt>
      <trkpt lat="42.63778" lon="1.69077">
        <ele>1875.49</ele>
        <time>2021-07-19T08:24:55Z</time>
      </trkpt>
      <trkpt lat="42.63777" lon="1.69076">
        <ele>1876.478</ele>
        <time>2021-07-19T08:24:57Z</time>
      </trkpt>
      <trkpt lat="42.63776" lon="1.69075">
        <ele>1876.974</ele>
        <time>2021-07-19T08:24:59Z</time>
      </trkpt>
      <trkpt lat="42.63775" lon="1.69074">
        <ele>1878.043</ele>
        <time>2021-07-19T08:25:01Z</time>
      </trkpt>
      <trkpt lat="42.63775" lon="1.69074">
        <ele>1878.116</ele>
        <time>2021-07-19T08:25:03Z</time>
      </trkpt>
      <trkpt lat="42.63774" lon="1.69073">
        <ele>1878.62</ele>
        <time>2021-07-19T08:25:05Z</time>
      </trkpt>
      <trkpt lat="42.63774" lon="1.69072">
        <ele>1879.065</ele>
        <time>2021-07-19T08:25:07Z</time>
      </trkpt>
      <trkpt lat="42.63774" lon="1.69073">
        <ele>1879.06</ele>
        <time>2021-07-19T08:25:09Z</time>
      </trkpt>
      <trkpt lat="42.63775" lon="1.69073">
        <ele>1878.292</ele>
        <time>2021-07-19T08:25:11Z</time>
      </trkpt>
      <trkpt lat="42.63777" lon="1.69072">
        <ele>1878.38</ele>
        <time>2021-07-19T08:25:13Z</time>
      </trkpt>
      <trkpt lat="42.63779" lon="1.69071">
        <ele>1877.9</ele>
        <time>2021-07-19T08:25:15Z</time>
      </trkpt>
      <trkpt lat="42.63778" lon="1.69071">
        <ele>1877.915</ele>
        <time>2021-07-19T08:25:17Z</time>
      </trkpt>
      <trkpt lat="42.63778" lon="1.69068">
        <ele>1877.789</ele>
        <time>2021-07-19T08:25:19Z</time>
      </trkpt>
      <trkpt lat="42.63778" lon="1.69066">
        <ele>1877.294</ele>
        <time>2021-07-19T08:25:21Z</time>
      </trkpt>
      <trkpt lat="42.63778" lon="1.69063">
        <ele>1876.34</ele>
        <time>2021-07-19T08:25:23Z</time>
      </trkpt>
      <trkpt lat="42.63778" lon="1.69061">
        <ele>1877.369</ele>
        <time>2021-07-19T08:25:25Z</time>
      </trkpt>
      <trkpt lat="42.63778" lon="1.69059">
        <ele>1877.514</ele>
        <time>2021-07-19T08:25:27Z</time>
      </trkpt>
      <trkpt lat="42.63778" lon="1.69057">
        <ele>1878.156</ele>
        <time>2021-07-19T08:25:29Z</time>
      </trkpt>
      <trkpt lat="42.63779" lon="1.69055">
        <ele>1878.414</ele>
        <time>2021-07-19T08:25:31Z</time>
      </trkpt>
      <trkpt lat="42.63779" lon="1.69054">
        <ele>1878.803</ele>
        <time>2021-07-19T08:25:33Z</time>
      </trkpt>
      <trkpt lat="42.6378" lon="1.69052">
        <ele>1878.335</ele>
        <time>2021-07-19T08:25:35Z</time>
      </trkpt>
      <trkpt lat="42.6378" lon="1.6905">
        <ele>1878.509</ele>
        <time>2021-07-19T08:25:37Z</time>
      </trkpt>
      <trkpt lat="42.6378" lon="1.69047">
        <ele>1879.123</ele>
        <time>2021-07-19T08:25:39Z</time>
      </trkpt>
      <trkpt lat="42.63781" lon="1.69045">
        <ele>1879.418</ele>
        <time>2021-07-19T08:25:41Z</time>
      </trkpt>
      <trkpt lat="42.6378" lon="1.69043">
        <ele>1879.329</ele>
        <time>2021-07-19T08:25:43Z</time>
      </trkpt>
      <trkpt lat="42.63779" lon="1.6904">
        <ele>1879.893</ele>
        <time>2021-07-19T08:25:45Z</time>
      </trkpt>
      <trkpt lat="42.63779" lon="1.69038">
        <ele>1880.148</ele>
        <time>2021-07-19T08:25:47Z</time>
      </trkpt>
      <trkpt lat="42.6378" lon="1.69037">
        <ele>1880.784</ele>
        <time>2021-07-19T08:25:49Z</time>
      </trkpt>
      <trkpt lat="42.6378" lon="1.69037">
        <ele>1880.829</ele>
        <time>2021-07-19T08:25:51Z</time>
      </trkpt>
      <trkpt lat="42.6378" lon="1.69037">
        <ele>1880.823</ele>
        <time>2021-07-19T08:25:53Z</time>
      </trkpt>
      <trkpt lat="42.6378" lon="1.69037">
        <ele>1880.813</ele>
        <time>2021-07-19T08:25:55Z</time>
      </trkpt>
      <trkpt lat="42.6378" lon="1.69037">
        <ele>1880.815</ele>
        <time>2021-07-19T08:25:57Z</time>
      </trkpt>
      <trkpt lat="42.6378" lon="1.69037">
        <ele>1880.81</ele>
        <time>2021-07-19T08:25:59Z</time>
      </trkpt>
      <trkpt lat="42.6378" lon="1.69037">
        <ele>1880.802</ele>
        <time>2021-07-19T08:26:01Z</time>
      </trkpt>
      <trkpt lat="42.6378" lon="1.69037">
        <ele>1880.802</ele>
        <time>2021-07-19T08:26:03Z</time>
      </trkpt>
      <trkpt lat="42.6378" lon="1.69037">
        <ele>1880.796</ele>
        <time>2021-07-19T08:26:05Z</time>
      </trkpt>
      <trkpt lat="42.6378" lon="1.69037">
        <ele>1880.791</ele>
        <time>2021-07-19T08:26:07Z</time>
      </trkpt>
      <trkpt lat="42.6378" lon="1.69037">
        <ele>1880.786</ele>
        <time>2021-07-19T08:26:09Z</time>
      </trkpt>
      <trkpt lat="42.63779" lon="1.69036">
        <ele>1881.032</ele>
        <time>2021-07-19T08:26:11Z</time>
      </trkpt>
      <trkpt lat="42.63779" lon="1.69036">
        <ele>1881.035</ele>
        <time>2021-07-19T08:26:13Z</time>
      </trkpt>
      <trkpt lat="42.63779" lon="1.69036">
        <ele>1881.033</ele>
        <time>2021-07-19T08:26:15Z</time>
      </trkpt>
      <trkpt lat="42.63779" lon="1.69036">
        <ele>1880.694</ele>
        <time>2021-07-19T08:26:17Z</time>
      </trkpt>
      <trkpt lat="42.6378" lon="1.69034">
        <ele>1880.692</ele>
        <time>2021-07-19T08:26:19Z</time>
      </trkpt>
      <trkpt lat="42.6378" lon="1.69033">
        <ele>1880.235</ele>
        <time>2021-07-19T08:26:21Z</time>
      </trkpt>
      <trkpt lat="42.6378" lon="1.69031">
        <ele>1880.626</ele>
        <time>2021-07-19T08:26:23Z</time>
      </trkpt>
      <trkpt lat="42.63778" lon="1.69029">
        <ele>1880.836</ele>
        <time>2021-07-19T08:26:25Z</time>
      </trkpt>
      <trkpt lat="42.63777" lon="1.69026">
        <ele>1880.927</ele>
        <time>2021-07-19T08:26:27Z</time>
      </trkpt>
      <trkpt lat="42.63777" lon="1.69024">
        <ele>1880.051</ele>
        <time>2021-07-19T08:26:29Z</time>
      </trkpt>
      <trkpt lat="42.63777" lon="1.69022">
        <ele>1880.42</ele>
        <time>2021-07-19T08:26:31Z</time>
      </trkpt>
      <trkpt lat="42.63777" lon="1.6902">
        <ele>1880.698</ele>
        <time>2021-07-19T08:26:33Z</time>
      </trkpt>
      <trkpt lat="42.63777" lon="1.69018">
        <ele>1881.016</ele>
        <time>2021-07-19T08:26:35Z</time>
      </trkpt>
      <trkpt lat="42.63777" lon="1.69016">
        <ele>1881.178</ele>
        <time>2021-07-19T08:26:37Z</time>
      </trkpt>
      <trkpt lat="42.63777" lon="1.69015">
        <ele>1881.377</ele>
        <time>2021-07-19T08:26:39Z</time>
      </trkpt>
      <trkpt lat="42.63778" lon="1.69014">
        <ele>1881.834</ele>
        <time>2021-07-19T08:26:41Z</time>
      </trkpt>
      <trkpt lat="42.63778" lon="1.69013">
        <ele>1881.836</ele>
        <time>2021-07-19T08:26:43Z</time>
      </trkpt>
      <trkpt lat="42.63778" lon="1.69011">
        <ele>1882.059</ele>
        <time>2021-07-19T08:26:45Z</time>
      </trkpt>
      <trkpt lat="42.63778" lon="1.6901">
        <ele>1882.396</ele>
        <time>2021-07-19T08:26:47Z</time>
      </trkpt>
      <trkpt lat="42.63778" lon="1.6901">
        <ele>1882.388</ele>
        <time>2021-07-19T08:26:49Z</time>
      </trkpt>
      <trkpt lat="42.63778" lon="1.6901">
        <ele>1882.384</ele>
        <time>2021-07-19T08:26:51Z</time>
      </trkpt>
      <trkpt lat="42.63778" lon="1.69009">
        <ele>1882.476</ele>
        <time>2021-07-19T08:26:53Z</time>
      </trkpt>
      <trkpt lat="42.63779" lon="1.69007">
        <ele>1882.241</ele>
        <time>2021-07-19T08:26:55Z</time>
      </trkpt>
      <trkpt lat="42.63778" lon="1.69005">
        <ele>1882.384</ele>
        <time>2021-07-19T08:26:57Z</time>
      </trkpt>
      <trkpt lat="42.63778" lon="1.69003">
        <ele>1882.448</ele>
        <time>2021-07-19T08:26:59Z</time>
      </trkpt>
      <trkpt lat="42.63778" lon="1.69001">
        <ele>1882.654</ele>
        <time>2021-07-19T08:27:01Z</time>
      </trkpt>
      <trkpt lat="42.63778" lon="1.69">
        <ele>1882.51</ele>
        <time>2021-07-19T08:27:03Z</time>
      </trkpt>
      <trkpt lat="42.6378" lon="1.68998">
        <ele>1882.897</ele>
        <time>2021-07-19T08:27:05Z</time>
      </trkpt>
      <trkpt lat="42.63778" lon="1.69">
        <ele>1882.529</ele>
        <time>2021-07-19T08:27:07Z</time>
      </trkpt>
      <trkpt lat="42.63778" lon="1.69">
        <ele>1882.539</ele>
        <time>2021-07-19T08:27:09Z</time>
      </trkpt>
      <trkpt lat="42.63778" lon="1.69">
        <ele>1882.542</ele>
        <time>2021-07-19T08:27:11Z</time>
      </trkpt>
      <trkpt lat="42.63778" lon="1.69">
        <ele>1882.537</ele>
        <time>2021-07-19T08:27:13Z</time>
      </trkpt>
      <trkpt lat="42.63778" lon="1.69">
        <ele>1882.547</ele>
        <time>2021-07-19T08:27:15Z</time>
      </trkpt>
      <trkpt lat="42.63778" lon="1.69">
        <ele>1882.554</ele>
        <time>2021-07-19T08:27:17Z</time>
      </trkpt>
      <trkpt lat="42.63778" lon="1.69">
        <ele>1882.548</ele>
        <time>2021-07-19T08:27:19Z</time>
      </trkpt>
      <trkpt lat="42.63778" lon="1.69">
        <ele>1882.557</ele>
        <time>2021-07-19T08:27:21Z</time>
      </trkpt>
      <trkpt lat="42.63778" lon="1.69">
        <ele>1882.551</ele>
        <time>2021-07-19T08:27:23Z</time>
      </trkpt>
      <trkpt lat="42.63778" lon="1.69">
        <ele>1882.549</ele>
        <time>2021-07-19T08:27:25Z</time>
      </trkpt>
      <trkpt lat="42.63778" lon="1.69">
        <ele>1882.545</ele>
        <time>2021-07-19T08:27:27Z</time>
      </trkpt>
      <trkpt lat="42.63778" lon="1.69">
        <ele>1882.544</ele>
        <time>2021-07-19T08:27:29Z</time>
      </trkpt>
      <trkpt lat="42.63778" lon="1.69">
        <ele>1882.532</ele>
        <time>2021-07-19T08:27:31Z</time>
      </trkpt>
      <trkpt lat="42.63778" lon="1.69">
        <ele>1882.445</ele>
        <time>2021-07-19T08:27:33Z</time>
      </trkpt>
      <trkpt lat="42.63778" lon="1.69">
        <ele>1882.44</ele>
        <time>2021-07-19T08:27:35Z</time>
      </trkpt>
      <trkpt lat="42.63778" lon="1.69">
        <ele>1882.436</ele>
        <time>2021-07-19T08:27:37Z</time>
      </trkpt>
      <trkpt lat="42.63778" lon="1.69">
        <ele>1882.429</ele>
        <time>2021-07-19T08:27:39Z</time>
      </trkpt>
      <trkpt lat="42.63778" lon="1.69">
        <ele>1882.421</ele>
        <time>2021-07-19T08:27:41Z</time>
      </trkpt>
      <trkpt lat="42.63778" lon="1.69">
        <ele>1882.426</ele>
        <time>2021-07-19T08:27:43Z</time>
      </trkpt>
      <trkpt lat="42.63778" lon="1.69">
        <ele>1882.43</ele>
        <time>2021-07-19T08:27:45Z</time>
      </trkpt>
      <trkpt lat="42.63778" lon="1.69">
        <ele>1882.422</ele>
        <time>2021-07-19T08:27:47Z</time>
      </trkpt>
      <trkpt lat="42.63778" lon="1.69">
        <ele>1882.41</ele>
        <time>2021-07-19T08:27:49Z</time>
      </trkpt>
      <trkpt lat="42.63778" lon="1.69">
        <ele>1882.414</ele>
        <time>2021-07-19T08:27:51Z</time>
      </trkpt>
      <trkpt lat="42.63778" lon="1.69">
        <ele>1882.42</ele>
        <time>2021-07-19T08:27:53Z</time>
      </trkpt>
      <trkpt lat="42.63778" lon="1.69">
        <ele>1882.423</ele>
        <time>2021-07-19T08:27:55Z</time>
      </trkpt>
      <trkpt lat="42.63778" lon="1.69">
        <ele>1882.422</ele>
        <time>2021-07-19T08:27:57Z</time>
      </trkpt>
      <trkpt lat="42.63778" lon="1.69">
        <ele>1882.415</ele>
        <time>2021-07-19T08:27:59Z</time>
      </trkpt>
      <trkpt lat="42.63778" lon="1.69">
        <ele>1882.41</ele>
        <time>2021-07-19T08:28:01Z</time>
      </trkpt>
      <trkpt lat="42.63778" lon="1.69">
        <ele>1882.41</ele>
        <time>2021-07-19T08:28:03Z</time>
      </trkpt>
      <trkpt lat="42.63778" lon="1.69">
        <ele>1882.401</ele>
        <time>2021-07-19T08:28:05Z</time>
      </trkpt>
      <trkpt lat="42.63778" lon="1.69">
        <ele>1882.398</ele>
        <time>2021-07-19T08:28:07Z</time>
      </trkpt>
      <trkpt lat="42.63778" lon="1.69">
        <ele>1882.395</ele>
        <time>2021-07-19T08:28:09Z</time>
      </trkpt>
      <trkpt lat="42.63778" lon="1.69">
        <ele>1882.403</ele>
        <time>2021-07-19T08:28:11Z</time>
      </trkpt>
      <trkpt lat="42.63778" lon="1.69">
        <ele>1882.406</ele>
        <time>2021-07-19T08:28:13Z</time>
      </trkpt>
      <trkpt lat="42.63778" lon="1.68999">
        <ele>1882.538</ele>
        <time>2021-07-19T08:28:15Z</time>
      </trkpt>
      <trkpt lat="42.63778" lon="1.68997">
        <ele>1882.507</ele>
        <time>2021-07-19T08:28:17Z</time>
      </trkpt>
      <trkpt lat="42.63777" lon="1.68996">
        <ele>1882.677</ele>
        <time>2021-07-19T08:28:19Z</time>
      </trkpt>
      <trkpt lat="42.63778" lon="1.68996">
        <ele>1882.67</ele>
        <time>2021-07-19T08:28:21Z</time>
      </trkpt>
      <trkpt lat="42.63778" lon="1.68996">
        <ele>1882.672</ele>
        <time>2021-07-19T08:28:23Z</time>
      </trkpt>
      <trkpt lat="42.63778" lon="1.68996">
        <ele>1882.675</ele>
        <time>2021-07-19T08:28:25Z</time>
      </trkpt>
      <trkpt lat="42.63778" lon="1.68996">
        <ele>1882.671</ele>
        <time>2021-07-19T08:28:27Z</time>
      </trkpt>
      <trkpt lat="42.63778" lon="1.68996">
        <ele>1882.67</ele>
        <time>2021-07-19T08:28:29Z</time>
      </trkpt>
      <trkpt lat="42.63778" lon="1.68996">
        <ele>1882.656</ele>
        <time>2021-07-19T08:28:31Z</time>
      </trkpt>
      <trkpt lat="42.63778" lon="1.68996">
        <ele>1882.65</ele>
        <time>2021-07-19T08:28:33Z</time>
      </trkpt>
      <trkpt lat="42.63778" lon="1.68996">
        <ele>1882.651</ele>
        <time>2021-07-19T08:28:35Z</time>
      </trkpt>
      <trkpt lat="42.63778" lon="1.68996">
        <ele>1882.646</ele>
        <time>2021-07-19T08:28:37Z</time>
      </trkpt>
      <trkpt lat="42.63778" lon="1.68996">
        <ele>1882.635</ele>
        <time>2021-07-19T08:28:39Z</time>
      </trkpt>
      <trkpt lat="42.63778" lon="1.68996">
        <ele>1882.629</ele>
        <time>2021-07-19T08:28:41Z</time>
      </trkpt>
      <trkpt lat="42.63778" lon="1.68996">
        <ele>1882.634</ele>
        <time>2021-07-19T08:28:43Z</time>
      </trkpt>
      <trkpt lat="42.63778" lon="1.68996">
        <ele>1882.635</ele>
        <time>2021-07-19T08:28:45Z</time>
      </trkpt>
      <trkpt lat="42.63778" lon="1.68996">
        <ele>1882.634</ele>
        <time>2021-07-19T08:28:47Z</time>
      </trkpt>
      <trkpt lat="42.63778" lon="1.68996">
        <ele>1882.619</ele>
        <time>2021-07-19T08:28:49Z</time>
      </trkpt>
      <trkpt lat="42.63778" lon="1.68996">
        <ele>1882.606</ele>
        <time>2021-07-19T08:28:51Z</time>
      </trkpt>
      <trkpt lat="42.63778" lon="1.68996">
        <ele>1882.607</ele>
        <time>2021-07-19T08:28:53Z</time>
      </trkpt>
      <trkpt lat="42.63778" lon="1.68996">
        <ele>1882.606</ele>
        <time>2021-07-19T08:28:55Z</time>
      </trkpt>
      <trkpt lat="42.63778" lon="1.68996">
        <ele>1882.593</ele>
        <time>2021-07-19T08:28:57Z</time>
      </trkpt>
      <trkpt lat="42.63778" lon="1.68996">
        <ele>1882.585</ele>
        <time>2021-07-19T08:28:59Z</time>
      </trkpt>
      <trkpt lat="42.63778" lon="1.68996">
        <ele>1882.587</ele>
        <time>2021-07-19T08:29:01Z</time>
      </trkpt>
      <trkpt lat="42.63778" lon="1.68996">
        <ele>1882.589</ele>
        <time>2021-07-19T08:29:03Z</time>
      </trkpt>
      <trkpt lat="42.63778" lon="1.68996">
        <ele>1882.584</ele>
        <time>2021-07-19T08:29:05Z</time>
      </trkpt>
      <trkpt lat="42.63778" lon="1.68996">
        <ele>1882.584</ele>
        <time>2021-07-19T08:29:07Z</time>
      </trkpt>
      <trkpt lat="42.63778" lon="1.68996">
        <ele>1882.805</ele>
        <time>2021-07-19T08:29:09Z</time>
      </trkpt>
      <trkpt lat="42.63778" lon="1.68996">
        <ele>1882.803</ele>
        <time>2021-07-19T08:29:11Z</time>
      </trkpt>
      <trkpt lat="42.63778" lon="1.68996">
        <ele>1882.808</ele>
        <time>2021-07-19T08:29:13Z</time>
      </trkpt>
      <trkpt lat="42.63778" lon="1.68996">
        <ele>1882.811</ele>
        <time>2021-07-19T08:29:15Z</time>
      </trkpt>
      <trkpt lat="42.63778" lon="1.68996">
        <ele>1882.813</ele>
        <time>2021-07-19T08:29:17Z</time>
      </trkpt>
      <trkpt lat="42.63778" lon="1.68996">
        <ele>1883.152</ele>
        <time>2021-07-19T08:29:19Z</time>
      </trkpt>
      <trkpt lat="42.63778" lon="1.68996">
        <ele>1882.785</ele>
        <time>2021-07-19T08:29:21Z</time>
      </trkpt>
      <trkpt lat="42.63777" lon="1.68996">
        <ele>1882.772</ele>
        <time>2021-07-19T08:29:23Z</time>
      </trkpt>
      <trkpt lat="42.63777" lon="1.68996">
        <ele>1882.762</ele>
        <time>2021-07-19T08:29:25Z</time>
      </trkpt>
      <trkpt lat="42.63777" lon="1.68996">
        <ele>1882.761</ele>
        <time>2021-07-19T08:29:27Z</time>
      </trkpt>
      <trkpt lat="42.63777" lon="1.68996">
        <ele>1882.283</ele>
        <time>2021-07-19T08:29:29Z</time>
      </trkpt>
      <trkpt lat="42.63777" lon="1.68996">
        <ele>1882.281</ele>
        <time>2021-07-19T08:29:31Z</time>
      </trkpt>
      <trkpt lat="42.63777" lon="1.68996">
        <ele>1882.286</ele>
        <time>2021-07-19T08:29:33Z</time>
      </trkpt>
      <trkpt lat="42.63777" lon="1.68996">
        <ele>1882.293</ele>
        <time>2021-07-19T08:29:35Z</time>
      </trkpt>
      <trkpt lat="42.63777" lon="1.68996">
        <ele>1882.295</ele>
        <time>2021-07-19T08:29:37Z</time>
      </trkpt>
      <trkpt lat="42.63777" lon="1.68996">
        <ele>1882.299</ele>
        <time>2021-07-19T08:29:39Z</time>
      </trkpt>
      <trkpt lat="42.63777" lon="1.68996">
        <ele>1882.293</ele>
        <time>2021-07-19T08:29:41Z</time>
      </trkpt>
      <trkpt lat="42.63777" lon="1.68996">
        <ele>1882.291</ele>
        <time>2021-07-19T08:29:43Z</time>
      </trkpt>
      <trkpt lat="42.63777" lon="1.68995">
        <ele>1882.393</ele>
        <time>2021-07-19T08:29:45Z</time>
      </trkpt>
      <trkpt lat="42.63777" lon="1.68995">
        <ele>1882.451</ele>
        <time>2021-07-19T08:29:47Z</time>
      </trkpt>
      <trkpt lat="42.63777" lon="1.68995">
        <ele>1882.447</ele>
        <time>2021-07-19T08:29:49Z</time>
      </trkpt>
      <trkpt lat="42.63777" lon="1.68995">
        <ele>1882.445</ele>
        <time>2021-07-19T08:29:51Z</time>
      </trkpt>
      <trkpt lat="42.63777" lon="1.68995">
        <ele>1882.445</ele>
        <time>2021-07-19T08:29:53Z</time>
      </trkpt>
      <trkpt lat="42.63777" lon="1.68995">
        <ele>1882.446</ele>
        <time>2021-07-19T08:29:55Z</time>
      </trkpt>
      <trkpt lat="42.63777" lon="1.68995">
        <ele>1882.44</ele>
        <time>2021-07-19T08:29:57Z</time>
      </trkpt>
      <trkpt lat="42.63777" lon="1.68995">
        <ele>1882.436</ele>
        <time>2021-07-19T08:29:59Z</time>
      </trkpt>
      <trkpt lat="42.63777" lon="1.68995">
        <ele>1882.426</ele>
        <time>2021-07-19T08:30:01Z</time>
      </trkpt>
      <trkpt lat="42.63777" lon="1.68995">
        <ele>1882.431</ele>
        <time>2021-07-19T08:30:03Z</time>
      </trkpt>
      <trkpt lat="42.63777" lon="1.68995">
        <ele>1882.424</ele>
        <time>2021-07-19T08:30:05Z</time>
      </trkpt>
      <trkpt lat="42.63777" lon="1.68995">
        <ele>1882.418</ele>
        <time>2021-07-19T08:30:07Z</time>
      </trkpt>
      <trkpt lat="42.63777" lon="1.68995">
        <ele>1882.41</ele>
        <time>2021-07-19T08:30:09Z</time>
      </trkpt>
      <trkpt lat="42.63777" lon="1.68995">
        <ele>1882.403</ele>
        <time>2021-07-19T08:30:11Z</time>
      </trkpt>
      <trkpt lat="42.63777" lon="1.68995">
        <ele>1882.408</ele>
        <time>2021-07-19T08:30:13Z</time>
      </trkpt>
      <trkpt lat="42.63777" lon="1.68995">
        <ele>1882.406</ele>
        <time>2021-07-19T08:30:15Z</time>
      </trkpt>
      <trkpt lat="42.63777" lon="1.68995">
        <ele>1882.411</ele>
        <time>2021-07-19T08:30:17Z</time>
      </trkpt>
      <trkpt lat="42.63777" lon="1.68995">
        <ele>1882.241</ele>
        <time>2021-07-19T08:30:19Z</time>
      </trkpt>
      <trkpt lat="42.63777" lon="1.68995">
        <ele>1882.237</ele>
        <time>2021-07-19T08:30:21Z</time>
      </trkpt>
      <trkpt lat="42.63777" lon="1.68996">
        <ele>1881.909</ele>
        <time>2021-07-19T08:30:23Z</time>
      </trkpt>
      <trkpt lat="42.63777" lon="1.68996">
        <ele>1881.876</ele>
        <time>2021-07-19T08:30:25Z</time>
      </trkpt>
      <trkpt lat="42.63777" lon="1.68996">
        <ele>1881.873</ele>
        <time>2021-07-19T08:30:27Z</time>
      </trkpt>
      <trkpt lat="42.63777" lon="1.68996">
        <ele>1881.866</ele>
        <time>2021-07-19T08:30:29Z</time>
      </trkpt>
      <trkpt lat="42.63777" lon="1.68996">
        <ele>1881.854</ele>
        <time>2021-07-19T08:30:31Z</time>
      </trkpt>
      <trkpt lat="42.63777" lon="1.68996">
        <ele>1881.674</ele>
        <time>2021-07-19T08:30:33Z</time>
      </trkpt>
      <trkpt lat="42.63777" lon="1.68996">
        <ele>1881.873</ele>
        <time>2021-07-19T08:30:35Z</time>
      </trkpt>
      <trkpt lat="42.63777" lon="1.68996">
        <ele>1881.884</ele>
        <time>2021-07-19T08:30:37Z</time>
      </trkpt>
      <trkpt lat="42.63777" lon="1.68996">
        <ele>1881.889</ele>
        <time>2021-07-19T08:30:39Z</time>
      </trkpt>
      <trkpt lat="42.63777" lon="1.68996">
        <ele>1881.89</ele>
        <time>2021-07-19T08:30:41Z</time>
      </trkpt>
      <trkpt lat="42.63777" lon="1.68996">
        <ele>1881.894</ele>
        <time>2021-07-19T08:30:43Z</time>
      </trkpt>
      <trkpt lat="42.63777" lon="1.68996">
        <ele>1881.9</ele>
        <time>2021-07-19T08:30:45Z</time>
      </trkpt>
      <trkpt lat="42.63777" lon="1.68996">
        <ele>1881.902</ele>
        <time>2021-07-19T08:30:47Z</time>
      </trkpt>
      <trkpt lat="42.63777" lon="1.68996">
        <ele>1881.895</ele>
        <time>2021-07-19T08:30:49Z</time>
      </trkpt>
      <trkpt lat="42.63777" lon="1.68996">
        <ele>1881.885</ele>
        <time>2021-07-19T08:30:51Z</time>
      </trkpt>
      <trkpt lat="42.63777" lon="1.68996">
        <ele>1881.885</ele>
        <time>2021-07-19T08:30:53Z</time>
      </trkpt>
      <trkpt lat="42.63777" lon="1.68996">
        <ele>1881.887</ele>
        <time>2021-07-19T08:30:55Z</time>
      </trkpt>
      <trkpt lat="42.63777" lon="1.68996">
        <ele>1881.886</ele>
        <time>2021-07-19T08:30:57Z</time>
      </trkpt>
      <trkpt lat="42.63777" lon="1.68996">
        <ele>1881.884</ele>
        <time>2021-07-19T08:30:59Z</time>
      </trkpt>
      <trkpt lat="42.63777" lon="1.68996">
        <ele>1881.878</ele>
        <time>2021-07-19T08:31:01Z</time>
      </trkpt>
      <trkpt lat="42.63777" lon="1.68996">
        <ele>1881.87</ele>
        <time>2021-07-19T08:31:03Z</time>
      </trkpt>
      <trkpt lat="42.63777" lon="1.68996">
        <ele>1881.872</ele>
        <time>2021-07-19T08:31:05Z</time>
      </trkpt>
      <trkpt lat="42.63777" lon="1.68996">
        <ele>1881.875</ele>
        <time>2021-07-19T08:31:07Z</time>
      </trkpt>
      <trkpt lat="42.63777" lon="1.68996">
        <ele>1881.882</ele>
        <time>2021-07-19T08:31:09Z</time>
      </trkpt>
      <trkpt lat="42.63777" lon="1.68996">
        <ele>1881.876</ele>
        <time>2021-07-19T08:31:11Z</time>
      </trkpt>
      <trkpt lat="42.63777" lon="1.68996">
        <ele>1881.873</ele>
        <time>2021-07-19T08:31:13Z</time>
      </trkpt>
      <trkpt lat="42.63777" lon="1.68996">
        <ele>1881.879</ele>
        <time>2021-07-19T08:31:15Z</time>
      </trkpt>
      <trkpt lat="42.63777" lon="1.68996">
        <ele>1881.73</ele>
        <time>2021-07-19T08:31:17Z</time>
      </trkpt>
      <trkpt lat="42.63777" lon="1.68993">
        <ele>1881.852</ele>
        <time>2021-07-19T08:31:19Z</time>
      </trkpt>
      <trkpt lat="42.63777" lon="1.6899">
        <ele>1881.923</ele>
        <time>2021-07-19T08:31:21Z</time>
      </trkpt>
      <trkpt lat="42.63777" lon="1.68988">
        <ele>1881.832</ele>
        <time>2021-07-19T08:31:23Z</time>
      </trkpt>
      <trkpt lat="42.63777" lon="1.68986">
        <ele>1881.891</ele>
        <time>2021-07-19T08:31:25Z</time>
      </trkpt>
      <trkpt lat="42.63778" lon="1.68984">
        <ele>1882.172</ele>
        <time>2021-07-19T08:31:27Z</time>
      </trkpt>
      <trkpt lat="42.63778" lon="1.68981">
        <ele>1882.479</ele>
        <time>2021-07-19T08:31:29Z</time>
      </trkpt>
      <trkpt lat="42.63777" lon="1.68979">
        <ele>1882.955</ele>
        <time>2021-07-19T08:31:31Z</time>
      </trkpt>
      <trkpt lat="42.63777" lon="1.68977">
        <ele>1884.108</ele>
        <time>2021-07-19T08:31:33Z</time>
      </trkpt>
      <trkpt lat="42.63777" lon="1.68977">
        <ele>1883.402</ele>
        <time>2021-07-19T08:31:35Z</time>
      </trkpt>
      <trkpt lat="42.63778" lon="1.68977">
        <ele>1883.372</ele>
        <time>2021-07-19T08:31:37Z</time>
      </trkpt>
      <trkpt lat="42.63778" lon="1.68977">
        <ele>1883.373</ele>
        <time>2021-07-19T08:31:39Z</time>
      </trkpt>
      <trkpt lat="42.63778" lon="1.68977">
        <ele>1883.379</ele>
        <time>2021-07-19T08:31:41Z</time>
      </trkpt>
      <trkpt lat="42.63778" lon="1.68977">
        <ele>1883.374</ele>
        <time>2021-07-19T08:31:43Z</time>
      </trkpt>
      <trkpt lat="42.63778" lon="1.68977">
        <ele>1883.371</ele>
        <time>2021-07-19T08:31:45Z</time>
      </trkpt>
      <trkpt lat="42.63778" lon="1.68977">
        <ele>1883.361</ele>
        <time>2021-07-19T08:31:47Z</time>
      </trkpt>
      <trkpt lat="42.63778" lon="1.68977">
        <ele>1883.353</ele>
        <time>2021-07-19T08:31:49Z</time>
      </trkpt>
      <trkpt lat="42.63778" lon="1.68977">
        <ele>1883.349</ele>
        <time>2021-07-19T08:31:51Z</time>
      </trkpt>
      <trkpt lat="42.63778" lon="1.68977">
        <ele>1883.338</ele>
        <time>2021-07-19T08:31:53Z</time>
      </trkpt>
      <trkpt lat="42.63778" lon="1.68977">
        <ele>1883.338</ele>
        <time>2021-07-19T08:31:55Z</time>
      </trkpt>
      <trkpt lat="42.63778" lon="1.68977">
        <ele>1883.327</ele>
        <time>2021-07-19T08:31:57Z</time>
      </trkpt>
      <trkpt lat="42.63778" lon="1.68977">
        <ele>1883.32</ele>
        <time>2021-07-19T08:31:59Z</time>
      </trkpt>
      <trkpt lat="42.63778" lon="1.68977">
        <ele>1883.325</ele>
        <time>2021-07-19T08:32:01Z</time>
      </trkpt>
      <trkpt lat="42.63778" lon="1.68977">
        <ele>1883.324</ele>
        <time>2021-07-19T08:32:03Z</time>
      </trkpt>
      <trkpt lat="42.63778" lon="1.68977">
        <ele>1883.318</ele>
        <time>2021-07-19T08:32:05Z</time>
      </trkpt>
      <trkpt lat="42.63778" lon="1.68977">
        <ele>1883.323</ele>
        <time>2021-07-19T08:32:07Z</time>
      </trkpt>
      <trkpt lat="42.63778" lon="1.68977">
        <ele>1883.319</ele>
        <time>2021-07-19T08:32:09Z</time>
      </trkpt>
      <trkpt lat="42.63778" lon="1.68977">
        <ele>1883.316</ele>
        <time>2021-07-19T08:32:11Z</time>
      </trkpt>
      <trkpt lat="42.63778" lon="1.68977">
        <ele>1883.321</ele>
        <time>2021-07-19T08:32:13Z</time>
      </trkpt>
      <trkpt lat="42.63778" lon="1.68977">
        <ele>1883.327</ele>
        <time>2021-07-19T08:32:15Z</time>
      </trkpt>
      <trkpt lat="42.63778" lon="1.68977">
        <ele>1883.333</ele>
        <time>2021-07-19T08:32:17Z</time>
      </trkpt>
      <trkpt lat="42.63778" lon="1.68977">
        <ele>1883.338</ele>
        <time>2021-07-19T08:32:19Z</time>
      </trkpt>
      <trkpt lat="42.63778" lon="1.68977">
        <ele>1883.34</ele>
        <time>2021-07-19T08:32:21Z</time>
      </trkpt>
      <trkpt lat="42.63778" lon="1.68978">
        <ele>1883.028</ele>
        <time>2021-07-19T08:32:23Z</time>
      </trkpt>
      <trkpt lat="42.63779" lon="1.68979">
        <ele>1883.75</ele>
        <time>2021-07-19T08:32:25Z</time>
      </trkpt>
      <trkpt lat="42.6378" lon="1.68978">
        <ele>1882.279</ele>
        <time>2021-07-19T08:32:27Z</time>
      </trkpt>
      <trkpt lat="42.63781" lon="1.68978">
        <ele>1882.821</ele>
        <time>2021-07-19T08:32:29Z</time>
      </trkpt>
      <trkpt lat="42.63782" lon="1.68978">
        <ele>1882.843</ele>
        <time>2021-07-19T08:32:31Z</time>
      </trkpt>
      <trkpt lat="42.63783" lon="1.68978">
        <ele>1882.661</ele>
        <time>2021-07-19T08:32:33Z</time>
      </trkpt>
      <trkpt lat="42.63784" lon="1.68978">
        <ele>1882.91</ele>
        <time>2021-07-19T08:32:35Z</time>
      </trkpt>
      <trkpt lat="42.63785" lon="1.68978">
        <ele>1883.046</ele>
        <time>2021-07-19T08:32:37Z</time>
      </trkpt>
      <trkpt lat="42.63786" lon="1.68978">
        <ele>1883.664</ele>
        <time>2021-07-19T08:32:39Z</time>
      </trkpt>
      <trkpt lat="42.63787" lon="1.68978">
        <ele>1884.402</ele>
        <time>2021-07-19T08:32:41Z</time>
      </trkpt>
      <trkpt lat="42.63789" lon="1.68978">
        <ele>1884.066</ele>
        <time>2021-07-19T08:32:43Z</time>
      </trkpt>
      <trkpt lat="42.63789" lon="1.68979">
        <ele>1884.551</ele>
        <time>2021-07-19T08:32:45Z</time>
      </trkpt>
      <trkpt lat="42.6379" lon="1.68978">
        <ele>1884.768</ele>
        <time>2021-07-19T08:32:47Z</time>
      </trkpt>
      <trkpt lat="42.63792" lon="1.68979">
        <ele>1885.838</ele>
        <time>2021-07-19T08:32:49Z</time>
      </trkpt>
      <trkpt lat="42.63793" lon="1.68978">
        <ele>1885.733</ele>
        <time>2021-07-19T08:32:51Z</time>
      </trkpt>
      <trkpt lat="42.63794" lon="1.68978">
        <ele>1886.174</ele>
        <time>2021-07-19T08:32:53Z</time>
      </trkpt>
      <trkpt lat="42.63796" lon="1.68978">
        <ele>1886.735</ele>
        <time>2021-07-19T08:32:55Z</time>
      </trkpt>
      <trkpt lat="42.63797" lon="1.68977">
        <ele>1886.653</ele>
        <time>2021-07-19T08:32:57Z</time>
      </trkpt>
      <trkpt lat="42.63799" lon="1.68978">
        <ele>1886.035</ele>
        <time>2021-07-19T08:32:59Z</time>
      </trkpt>
      <trkpt lat="42.638" lon="1.68979">
        <ele>1885.544</ele>
        <time>2021-07-19T08:33:01Z</time>
      </trkpt>
      <trkpt lat="42.63802" lon="1.6898">
        <ele>1885.295</ele>
        <time>2021-07-19T08:33:03Z</time>
      </trkpt>
      <trkpt lat="42.63803" lon="1.68981">
        <ele>1885.261</ele>
        <time>2021-07-19T08:33:05Z</time>
      </trkpt>
      <trkpt lat="42.63804" lon="1.68981">
        <ele>1884.676</ele>
        <time>2021-07-19T08:33:07Z</time>
      </trkpt>
      <trkpt lat="42.63806" lon="1.68982">
        <ele>1884.162</ele>
        <time>2021-07-19T08:33:09Z</time>
      </trkpt>
      <trkpt lat="42.63807" lon="1.68983">
        <ele>1884.431</ele>
        <time>2021-07-19T08:33:11Z</time>
      </trkpt>
      <trkpt lat="42.63808" lon="1.68985">
        <ele>1884.313</ele>
        <time>2021-07-19T08:33:13Z</time>
      </trkpt>
      <trkpt lat="42.6381" lon="1.68986">
        <ele>1883.954</ele>
        <time>2021-07-19T08:33:15Z</time>
      </trkpt>
      <trkpt lat="42.63811" lon="1.68986">
        <ele>1884.709</ele>
        <time>2021-07-19T08:33:17Z</time>
      </trkpt>
      <trkpt lat="42.63811" lon="1.68985">
        <ele>1884.551</ele>
        <time>2021-07-19T08:33:19Z</time>
      </trkpt>
      <trkpt lat="42.63811" lon="1.68985">
        <ele>1884.554</ele>
        <time>2021-07-19T08:33:21Z</time>
      </trkpt>
      <trkpt lat="42.63812" lon="1.68985">
        <ele>1884.461</ele>
        <time>2021-07-19T08:33:23Z</time>
      </trkpt>
      <trkpt lat="42.63813" lon="1.68984">
        <ele>1883.499</ele>
        <time>2021-07-19T08:33:25Z</time>
      </trkpt>
      <trkpt lat="42.63814" lon="1.68985">
        <ele>1883.484</ele>
        <time>2021-07-19T08:33:27Z</time>
      </trkpt>
      <trkpt lat="42.63815" lon="1.68986">
        <ele>1883.416</ele>
        <time>2021-07-19T08:33:29Z</time>
      </trkpt>
      <trkpt lat="42.63817" lon="1.68986">
        <ele>1883.441</ele>
        <time>2021-07-19T08:33:31Z</time>
      </trkpt>
      <trkpt lat="42.63818" lon="1.68986">
        <ele>1883.584</ele>
        <time>2021-07-19T08:33:33Z</time>
      </trkpt>
      <trkpt lat="42.63819" lon="1.68987">
        <ele>1883.813</ele>
        <time>2021-07-19T08:33:35Z</time>
      </trkpt>
      <trkpt lat="42.63821" lon="1.68988">
        <ele>1883.637</ele>
        <time>2021-07-19T08:33:37Z</time>
      </trkpt>
      <trkpt lat="42.63822" lon="1.6899">
        <ele>1883.375</ele>
        <time>2021-07-19T08:33:39Z</time>
      </trkpt>
      <trkpt lat="42.63824" lon="1.6899">
        <ele>1883.677</ele>
        <time>2021-07-19T08:33:41Z</time>
      </trkpt>
      <trkpt lat="42.63826" lon="1.6899">
        <ele>1883.714</ele>
        <time>2021-07-19T08:33:43Z</time>
      </trkpt>
      <trkpt lat="42.63828" lon="1.68989">
        <ele>1883.744</ele>
        <time>2021-07-19T08:33:45Z</time>
      </trkpt>
      <trkpt lat="42.63828" lon="1.68988">
        <ele>1883.149</ele>
        <time>2021-07-19T08:33:47Z</time>
      </trkpt>
      <trkpt lat="42.63827" lon="1.68988">
        <ele>1883.141</ele>
        <time>2021-07-19T08:33:49Z</time>
      </trkpt>
      <trkpt lat="42.63827" lon="1.68988">
        <ele>1883.143</ele>
        <time>2021-07-19T08:33:51Z</time>
      </trkpt>
      <trkpt lat="42.63827" lon="1.68988">
        <ele>1883.144</ele>
        <time>2021-07-19T08:33:53Z</time>
      </trkpt>
      <trkpt lat="42.63827" lon="1.68988">
        <ele>1883.141</ele>
        <time>2021-07-19T08:33:55Z</time>
      </trkpt>
      <trkpt lat="42.63829" lon="1.68988">
        <ele>1883.997</ele>
        <time>2021-07-19T08:33:57Z</time>
      </trkpt>
      <trkpt lat="42.63829" lon="1.68988">
        <ele>1884.018</ele>
        <time>2021-07-19T08:33:59Z</time>
      </trkpt>
      <trkpt lat="42.63831" lon="1.68988">
        <ele>1884.033</ele>
        <time>2021-07-19T08:34:01Z</time>
      </trkpt>
      <trkpt lat="42.63832" lon="1.68989">
        <ele>1883.556</ele>
        <time>2021-07-19T08:34:03Z</time>
      </trkpt>
      <trkpt lat="42.63833" lon="1.68989">
        <ele>1883.436</ele>
        <time>2021-07-19T08:34:05Z</time>
      </trkpt>
      <trkpt lat="42.63834" lon="1.68989">
        <ele>1883.695</ele>
        <time>2021-07-19T08:34:07Z</time>
      </trkpt>
      <trkpt lat="42.63836" lon="1.6899">
        <ele>1883.688</ele>
        <time>2021-07-19T08:34:09Z</time>
      </trkpt>
      <trkpt lat="42.63837" lon="1.6899">
        <ele>1883.773</ele>
        <time>2021-07-19T08:34:11Z</time>
      </trkpt>
      <trkpt lat="42.63838" lon="1.6899">
        <ele>1883.954</ele>
        <time>2021-07-19T08:34:13Z</time>
      </trkpt>
      <trkpt lat="42.63839" lon="1.68991">
        <ele>1884.463</ele>
        <time>2021-07-19T08:34:15Z</time>
      </trkpt>
      <trkpt lat="42.63841" lon="1.68991">
        <ele>1884.989</ele>
        <time>2021-07-19T08:34:17Z</time>
      </trkpt>
      <trkpt lat="42.63842" lon="1.68991">
        <ele>1885.164</ele>
        <time>2021-07-19T08:34:19Z</time>
      </trkpt>
      <trkpt lat="42.63843" lon="1.68992">
        <ele>1885.704</ele>
        <time>2021-07-19T08:34:21Z</time>
      </trkpt>
      <trkpt lat="42.63844" lon="1.68993">
        <ele>1885.718</ele>
        <time>2021-07-19T08:34:23Z</time>
      </trkpt>
      <trkpt lat="42.63845" lon="1.68993">
        <ele>1886.086</ele>
        <time>2021-07-19T08:34:25Z</time>
      </trkpt>
      <trkpt lat="42.63846" lon="1.68993">
        <ele>1886.287</ele>
        <time>2021-07-19T08:34:27Z</time>
      </trkpt>
      <trkpt lat="42.63847" lon="1.68993">
        <ele>1886.371</ele>
        <time>2021-07-19T08:34:29Z</time>
      </trkpt>
      <trkpt lat="42.63848" lon="1.68994">
        <ele>1887.516</ele>
        <time>2021-07-19T08:34:31Z</time>
      </trkpt>
      <trkpt lat="42.63848" lon="1.68995">
        <ele>1887.643</ele>
        <time>2021-07-19T08:34:33Z</time>
      </trkpt>
      <trkpt lat="42.63848" lon="1.68996">
        <ele>1888.012</ele>
        <time>2021-07-19T08:34:35Z</time>
      </trkpt>
      <trkpt lat="42.63849" lon="1.68998">
        <ele>1889.106</ele>
        <time>2021-07-19T08:34:37Z</time>
      </trkpt>
      <trkpt lat="42.6385" lon="1.68998">
        <ele>1889.159</ele>
        <time>2021-07-19T08:34:39Z</time>
      </trkpt>
      <trkpt lat="42.63851" lon="1.68999">
        <ele>1888.973</ele>
        <time>2021-07-19T08:34:41Z</time>
      </trkpt>
      <trkpt lat="42.63851" lon="1.69001">
        <ele>1888.491</ele>
        <time>2021-07-19T08:34:43Z</time>
      </trkpt>
      <trkpt lat="42.63852" lon="1.69003">
        <ele>1888.33</ele>
        <time>2021-07-19T08:34:45Z</time>
      </trkpt>
      <trkpt lat="42.63853" lon="1.69004">
        <ele>1887.55</ele>
        <time>2021-07-19T08:34:47Z</time>
      </trkpt>
      <trkpt lat="42.63854" lon="1.69005">
        <ele>1887</ele>
        <time>2021-07-19T08:34:49Z</time>
      </trkpt>
      <trkpt lat="42.63856" lon="1.69007">
        <ele>1887.045</ele>
        <time>2021-07-19T08:34:51Z</time>
      </trkpt>
      <trkpt lat="42.63857" lon="1.69009">
        <ele>1888.175</ele>
        <time>2021-07-19T08:34:53Z</time>
      </trkpt>
      <trkpt lat="42.63857" lon="1.6901">
        <ele>1888.703</ele>
        <time>2021-07-19T08:34:55Z</time>
      </trkpt>
      <trkpt lat="42.63857" lon="1.6901">
        <ele>1888.707</ele>
        <time>2021-07-19T08:34:57Z</time>
      </trkpt>
      <trkpt lat="42.63858" lon="1.69009">
        <ele>1888.421</ele>
        <time>2021-07-19T08:34:59Z</time>
      </trkpt>
      <trkpt lat="42.63859" lon="1.6901">
        <ele>1888.43</ele>
        <time>2021-07-19T08:35:01Z</time>
      </trkpt>
      <trkpt lat="42.6386" lon="1.69009">
        <ele>1888.994</ele>
        <time>2021-07-19T08:35:03Z</time>
      </trkpt>
      <trkpt lat="42.63862" lon="1.69009">
        <ele>1889.147</ele>
        <time>2021-07-19T08:35:05Z</time>
      </trkpt>
      <trkpt lat="42.63862" lon="1.69009">
        <ele>1889.033</ele>
        <time>2021-07-19T08:35:07Z</time>
      </trkpt>
      <trkpt lat="42.63863" lon="1.69009">
        <ele>1889.058</ele>
        <time>2021-07-19T08:35:09Z</time>
      </trkpt>
      <trkpt lat="42.63863" lon="1.69009">
        <ele>1889.063</ele>
        <time>2021-07-19T08:35:11Z</time>
      </trkpt>
      <trkpt lat="42.63863" lon="1.69009">
        <ele>1889.068</ele>
        <time>2021-07-19T08:35:13Z</time>
      </trkpt>
      <trkpt lat="42.63863" lon="1.69009">
        <ele>1889.074</ele>
        <time>2021-07-19T08:35:15Z</time>
      </trkpt>
      <trkpt lat="42.63864" lon="1.69008">
        <ele>1889.283</ele>
        <time>2021-07-19T08:35:17Z</time>
      </trkpt>
      <trkpt lat="42.63865" lon="1.69008">
        <ele>1889.76</ele>
        <time>2021-07-19T08:35:19Z</time>
      </trkpt>
      <trkpt lat="42.63867" lon="1.69008">
        <ele>1889.905</ele>
        <time>2021-07-19T08:35:21Z</time>
      </trkpt>
      <trkpt lat="42.63868" lon="1.69008">
        <ele>1890.291</ele>
        <time>2021-07-19T08:35:23Z</time>
      </trkpt>
      <trkpt lat="42.63868" lon="1.69008">
        <ele>1890.053</ele>
        <time>2021-07-19T08:35:25Z</time>
      </trkpt>
      <trkpt lat="42.6387" lon="1.69008">
        <ele>1890.615</ele>
        <time>2021-07-19T08:35:27Z</time>
      </trkpt>
      <trkpt lat="42.63871" lon="1.69008">
        <ele>1891.132</ele>
        <time>2021-07-19T08:35:29Z</time>
      </trkpt>
      <trkpt lat="42.63872" lon="1.69008">
        <ele>1891.435</ele>
        <time>2021-07-19T08:35:31Z</time>
      </trkpt>
      <trkpt lat="42.63873" lon="1.69007">
        <ele>1892.778</ele>
        <time>2021-07-19T08:35:33Z</time>
      </trkpt>
      <trkpt lat="42.63874" lon="1.69006">
        <ele>1892.777</ele>
        <time>2021-07-19T08:35:35Z</time>
      </trkpt>
      <trkpt lat="42.63875" lon="1.69006">
        <ele>1892.972</ele>
        <time>2021-07-19T08:35:37Z</time>
      </trkpt>
      <trkpt lat="42.63876" lon="1.69006">
        <ele>1893.188</ele>
        <time>2021-07-19T08:35:39Z</time>
      </trkpt>
      <trkpt lat="42.63877" lon="1.69006">
        <ele>1892.825</ele>
        <time>2021-07-19T08:35:41Z</time>
      </trkpt>
      <trkpt lat="42.63878" lon="1.69006">
        <ele>1892.923</ele>
        <time>2021-07-19T08:35:43Z</time>
      </trkpt>
      <trkpt lat="42.63879" lon="1.69005">
        <ele>1893.738</ele>
        <time>2021-07-19T08:35:45Z</time>
      </trkpt>
      <trkpt lat="42.6388" lon="1.69005">
        <ele>1894.482</ele>
        <time>2021-07-19T08:35:47Z</time>
      </trkpt>
      <trkpt lat="42.63881" lon="1.69005">
        <ele>1895.38</ele>
        <time>2021-07-19T08:35:49Z</time>
      </trkpt>
      <trkpt lat="42.63881" lon="1.69005">
        <ele>1895.854</ele>
        <time>2021-07-19T08:35:51Z</time>
      </trkpt>
      <trkpt lat="42.63883" lon="1.69004">
        <ele>1896.815</ele>
        <time>2021-07-19T08:35:53Z</time>
      </trkpt>
      <trkpt lat="42.63883" lon="1.69004">
        <ele>1896.61</ele>
        <time>2021-07-19T08:35:55Z</time>
      </trkpt>
      <trkpt lat="42.63884" lon="1.69004">
        <ele>1896.825</ele>
        <time>2021-07-19T08:35:57Z</time>
      </trkpt>
      <trkpt lat="42.63885" lon="1.69004">
        <ele>1897.738</ele>
        <time>2021-07-19T08:35:59Z</time>
      </trkpt>
      <trkpt lat="42.63886" lon="1.69003">
        <ele>1898.035</ele>
        <time>2021-07-19T08:36:01Z</time>
      </trkpt>
      <trkpt lat="42.63887" lon="1.69003">
        <ele>1898.681</ele>
        <time>2021-07-19T08:36:03Z</time>
      </trkpt>
      <trkpt lat="42.63888" lon="1.69003">
        <ele>1899.556</ele>
        <time>2021-07-19T08:36:05Z</time>
      </trkpt>
      <trkpt lat="42.63888" lon="1.69003">
        <ele>1899.816</ele>
        <time>2021-07-19T08:36:07Z</time>
      </trkpt>
      <trkpt lat="42.63888" lon="1.69003">
        <ele>1899.822</ele>
        <time>2021-07-19T08:36:09Z</time>
      </trkpt>
      <trkpt lat="42.63888" lon="1.69002">
        <ele>1900.089</ele>
        <time>2021-07-19T08:36:11Z</time>
      </trkpt>
      <trkpt lat="42.6389" lon="1.69002">
        <ele>1900.743</ele>
        <time>2021-07-19T08:36:13Z</time>
      </trkpt>
      <trkpt lat="42.6389" lon="1.69">
        <ele>1901.535</ele>
        <time>2021-07-19T08:36:15Z</time>
      </trkpt>
      <trkpt lat="42.6389" lon="1.69">
        <ele>1902.255</ele>
        <time>2021-07-19T08:36:17Z</time>
      </trkpt>
      <trkpt lat="42.63891" lon="1.68999">
        <ele>1902.942</ele>
        <time>2021-07-19T08:36:19Z</time>
      </trkpt>
      <trkpt lat="42.63892" lon="1.68999">
        <ele>1903.384</ele>
        <time>2021-07-19T08:36:21Z</time>
      </trkpt>
      <trkpt lat="42.63893" lon="1.68998">
        <ele>1903.64</ele>
        <time>2021-07-19T08:36:23Z</time>
      </trkpt>
      <trkpt lat="42.63893" lon="1.68997">
        <ele>1903.94</ele>
        <time>2021-07-19T08:36:25Z</time>
      </trkpt>
      <trkpt lat="42.63894" lon="1.68996">
        <ele>1904.053</ele>
        <time>2021-07-19T08:36:27Z</time>
      </trkpt>
      <trkpt lat="42.63894" lon="1.68995">
        <ele>1904.331</ele>
        <time>2021-07-19T08:36:29Z</time>
      </trkpt>
      <trkpt lat="42.63894" lon="1.68994">
        <ele>1904.136</ele>
        <time>2021-07-19T08:36:31Z</time>
      </trkpt>
      <trkpt lat="42.63894" lon="1.68993">
        <ele>1904.2</ele>
        <time>2021-07-19T08:36:33Z</time>
      </trkpt>
      <trkpt lat="42.63894" lon="1.68992">
        <ele>1903.883</ele>
        <time>2021-07-19T08:36:35Z</time>
      </trkpt>
      <trkpt lat="42.63895" lon="1.68992">
        <ele>1904.431</ele>
        <time>2021-07-19T08:36:37Z</time>
      </trkpt>
      <trkpt lat="42.63896" lon="1.68991">
        <ele>1904.883</ele>
        <time>2021-07-19T08:36:39Z</time>
      </trkpt>
      <trkpt lat="42.63897" lon="1.6899">
        <ele>1905.921</ele>
        <time>2021-07-19T08:36:41Z</time>
      </trkpt>
      <trkpt lat="42.63898" lon="1.68989">
        <ele>1905.799</ele>
        <time>2021-07-19T08:36:43Z</time>
      </trkpt>
      <trkpt lat="42.63898" lon="1.68988">
        <ele>1906.382</ele>
        <time>2021-07-19T08:36:45Z</time>
      </trkpt>
      <trkpt lat="42.63898" lon="1.68987">
        <ele>1906.82</ele>
        <time>2021-07-19T08:36:47Z</time>
      </trkpt>
      <trkpt lat="42.63899" lon="1.68986">
        <ele>1907.241</ele>
        <time>2021-07-19T08:36:49Z</time>
      </trkpt>
      <trkpt lat="42.63899" lon="1.68985">
        <ele>1908.111</ele>
        <time>2021-07-19T08:36:51Z</time>
      </trkpt>
      <trkpt lat="42.639" lon="1.68984">
        <ele>1908.523</ele>
        <time>2021-07-19T08:36:53Z</time>
      </trkpt>
      <trkpt lat="42.639" lon="1.68984">
        <ele>1909.241</ele>
        <time>2021-07-19T08:36:55Z</time>
      </trkpt>
      <trkpt lat="42.63901" lon="1.68984">
        <ele>1909.716</ele>
        <time>2021-07-19T08:36:57Z</time>
      </trkpt>
      <trkpt lat="42.63901" lon="1.68984">
        <ele>1910.309</ele>
        <time>2021-07-19T08:36:59Z</time>
      </trkpt>
      <trkpt lat="42.63902" lon="1.68983">
        <ele>1911.13</ele>
        <time>2021-07-19T08:37:01Z</time>
      </trkpt>
      <trkpt lat="42.63902" lon="1.68983">
        <ele>1910.896</ele>
        <time>2021-07-19T08:37:03Z</time>
      </trkpt>
      <trkpt lat="42.63902" lon="1.68983">
        <ele>1910.956</ele>
        <time>2021-07-19T08:37:05Z</time>
      </trkpt>
      <trkpt lat="42.63902" lon="1.68981">
        <ele>1911.677</ele>
        <time>2021-07-19T08:37:07Z</time>
      </trkpt>
      <trkpt lat="42.63902" lon="1.68981">
        <ele>1912.139</ele>
        <time>2021-07-19T08:37:09Z</time>
      </trkpt>
      <trkpt lat="42.63902" lon="1.68979">
        <ele>1912.62</ele>
        <time>2021-07-19T08:37:11Z</time>
      </trkpt>
      <trkpt lat="42.63902" lon="1.68978">
        <ele>1912.941</ele>
        <time>2021-07-19T08:37:13Z</time>
      </trkpt>
      <trkpt lat="42.63902" lon="1.68977">
        <ele>1913.717</ele>
        <time>2021-07-19T08:37:15Z</time>
      </trkpt>
      <trkpt lat="42.63903" lon="1.68976">
        <ele>1913.554</ele>
        <time>2021-07-19T08:37:17Z</time>
      </trkpt>
      <trkpt lat="42.63902" lon="1.68977">
        <ele>1913.577</ele>
        <time>2021-07-19T08:37:19Z</time>
      </trkpt>
      <trkpt lat="42.63902" lon="1.68977">
        <ele>1913.569</ele>
        <time>2021-07-19T08:37:21Z</time>
      </trkpt>
      <trkpt lat="42.63902" lon="1.68977">
        <ele>1913.557</ele>
        <time>2021-07-19T08:37:23Z</time>
      </trkpt>
      <trkpt lat="42.63903" lon="1.68977">
        <ele>1913.506</ele>
        <time>2021-07-19T08:37:25Z</time>
      </trkpt>
      <trkpt lat="42.63904" lon="1.68977">
        <ele>1914.142</ele>
        <time>2021-07-19T08:37:27Z</time>
      </trkpt>
      <trkpt lat="42.63904" lon="1.68977">
        <ele>1914.092</ele>
        <time>2021-07-19T08:37:29Z</time>
      </trkpt>
      <trkpt lat="42.63905" lon="1.68976">
        <ele>1914.059</ele>
        <time>2021-07-19T08:37:31Z</time>
      </trkpt>
      <trkpt lat="42.63906" lon="1.68977">
        <ele>1914.413</ele>
        <time>2021-07-19T08:37:33Z</time>
      </trkpt>
      <trkpt lat="42.63907" lon="1.68978">
        <ele>1914.221</ele>
        <time>2021-07-19T08:37:35Z</time>
      </trkpt>
      <trkpt lat="42.63907" lon="1.68978">
        <ele>1914.039</ele>
        <time>2021-07-19T08:37:37Z</time>
      </trkpt>
      <trkpt lat="42.63908" lon="1.68979">
        <ele>1914.449</ele>
        <time>2021-07-19T08:37:39Z</time>
      </trkpt>
      <trkpt lat="42.63909" lon="1.6898">
        <ele>1914.974</ele>
        <time>2021-07-19T08:37:41Z</time>
      </trkpt>
      <trkpt lat="42.6391" lon="1.6898">
        <ele>1915.339</ele>
        <time>2021-07-19T08:37:43Z</time>
      </trkpt>
      <trkpt lat="42.63911" lon="1.68981">
        <ele>1915.745</ele>
        <time>2021-07-19T08:37:45Z</time>
      </trkpt>
      <trkpt lat="42.63912" lon="1.68981">
        <ele>1916.19</ele>
        <time>2021-07-19T08:37:47Z</time>
      </trkpt>
      <trkpt lat="42.63913" lon="1.68983">
        <ele>1916.801</ele>
        <time>2021-07-19T08:37:49Z</time>
      </trkpt>
      <trkpt lat="42.63915" lon="1.68984">
        <ele>1917.753</ele>
        <time>2021-07-19T08:37:51Z</time>
      </trkpt>
      <trkpt lat="42.63916" lon="1.68985">
        <ele>1918.452</ele>
        <time>2021-07-19T08:37:53Z</time>
      </trkpt>
      <trkpt lat="42.63917" lon="1.68986">
        <ele>1919.553</ele>
        <time>2021-07-19T08:37:55Z</time>
      </trkpt>
      <trkpt lat="42.63918" lon="1.68988">
        <ele>1920</ele>
        <time>2021-07-19T08:37:57Z</time>
      </trkpt>
      <trkpt lat="42.63918" lon="1.68989">
        <ele>1920.087</ele>
        <time>2021-07-19T08:37:59Z</time>
      </trkpt>
      <trkpt lat="42.63918" lon="1.68989">
        <ele>1921.072</ele>
        <time>2021-07-19T08:38:01Z</time>
      </trkpt>
      <trkpt lat="42.63918" lon="1.68991">
        <ele>1923.301</ele>
        <time>2021-07-19T08:38:03Z</time>
      </trkpt>
      <trkpt lat="42.63918" lon="1.68993">
        <ele>1923.916</ele>
        <time>2021-07-19T08:38:05Z</time>
      </trkpt>
      <trkpt lat="42.63919" lon="1.68992">
        <ele>1923.237</ele>
        <time>2021-07-19T08:38:07Z</time>
      </trkpt>
      <trkpt lat="42.6392" lon="1.68993">
        <ele>1923.089</ele>
        <time>2021-07-19T08:38:09Z</time>
      </trkpt>
      <trkpt lat="42.63921" lon="1.68995">
        <ele>1923.051</ele>
        <time>2021-07-19T08:38:11Z</time>
      </trkpt>
      <trkpt lat="42.63921" lon="1.68996">
        <ele>1923.332</ele>
        <time>2021-07-19T08:38:13Z</time>
      </trkpt>
      <trkpt lat="42.63923" lon="1.68998">
        <ele>1923.059</ele>
        <time>2021-07-19T08:38:15Z</time>
      </trkpt>
      <trkpt lat="42.63924" lon="1.68999">
        <ele>1923.591</ele>
        <time>2021-07-19T08:38:17Z</time>
      </trkpt>
      <trkpt lat="42.63925" lon="1.69">
        <ele>1923.892</ele>
        <time>2021-07-19T08:38:19Z</time>
      </trkpt>
      <trkpt lat="42.63925" lon="1.69002">
        <ele>1923.966</ele>
        <time>2021-07-19T08:38:21Z</time>
      </trkpt>
      <trkpt lat="42.63925" lon="1.69004">
        <ele>1924.287</ele>
        <time>2021-07-19T08:38:23Z</time>
      </trkpt>
      <trkpt lat="42.63926" lon="1.69006">
        <ele>1924.094</ele>
        <time>2021-07-19T08:38:25Z</time>
      </trkpt>
      <trkpt lat="42.63926" lon="1.69007">
        <ele>1924.296</ele>
        <time>2021-07-19T08:38:27Z</time>
      </trkpt>
      <trkpt lat="42.63927" lon="1.69009">
        <ele>1925.019</ele>
        <time>2021-07-19T08:38:29Z</time>
      </trkpt>
      <trkpt lat="42.63928" lon="1.6901">
        <ele>1925.843</ele>
        <time>2021-07-19T08:38:31Z</time>
      </trkpt>
      <trkpt lat="42.63929" lon="1.69011">
        <ele>1926.39</ele>
        <time>2021-07-19T08:38:33Z</time>
      </trkpt>
      <trkpt lat="42.6393" lon="1.69011">
        <ele>1926.861</ele>
        <time>2021-07-19T08:38:35Z</time>
      </trkpt>
      <trkpt lat="42.63931" lon="1.69011">
        <ele>1927.226</ele>
        <time>2021-07-19T08:38:37Z</time>
      </trkpt>
      <trkpt lat="42.63932" lon="1.69012">
        <ele>1927.973</ele>
        <time>2021-07-19T08:38:39Z</time>
      </trkpt>
      <trkpt lat="42.63933" lon="1.69014">
        <ele>1928.776</ele>
        <time>2021-07-19T08:38:41Z</time>
      </trkpt>
      <trkpt lat="42.63933" lon="1.69015">
        <ele>1928.986</ele>
        <time>2021-07-19T08:38:43Z</time>
      </trkpt>
      <trkpt lat="42.63933" lon="1.69015">
        <ele>1928.643</ele>
        <time>2021-07-19T08:38:45Z</time>
      </trkpt>
      <trkpt lat="42.63934" lon="1.69016">
        <ele>1929.153</ele>
        <time>2021-07-19T08:38:47Z</time>
      </trkpt>
      <trkpt lat="42.63934" lon="1.69016">
        <ele>1929.293</ele>
        <time>2021-07-19T08:38:49Z</time>
      </trkpt>
      <trkpt lat="42.63936" lon="1.69015">
        <ele>1929.909</ele>
        <time>2021-07-19T08:38:51Z</time>
      </trkpt>
      <trkpt lat="42.63936" lon="1.69015">
        <ele>1929.836</ele>
        <time>2021-07-19T08:38:53Z</time>
      </trkpt>
      <trkpt lat="42.63936" lon="1.69016">
        <ele>1930.224</ele>
        <time>2021-07-19T08:38:55Z</time>
      </trkpt>
      <trkpt lat="42.63937" lon="1.69016">
        <ele>1930.204</ele>
        <time>2021-07-19T08:38:57Z</time>
      </trkpt>
      <trkpt lat="42.63937" lon="1.69017">
        <ele>1930.128</ele>
        <time>2021-07-19T08:38:59Z</time>
      </trkpt>
      <trkpt lat="42.63938" lon="1.69019">
        <ele>1930.727</ele>
        <time>2021-07-19T08:39:01Z</time>
      </trkpt>
      <trkpt lat="42.63939" lon="1.69021">
        <ele>1931.038</ele>
        <time>2021-07-19T08:39:03Z</time>
      </trkpt>
      <trkpt lat="42.6394" lon="1.69022">
        <ele>1931.093</ele>
        <time>2021-07-19T08:39:05Z</time>
      </trkpt>
      <trkpt lat="42.63941" lon="1.69023">
        <ele>1932.214</ele>
        <time>2021-07-19T08:39:07Z</time>
      </trkpt>
      <trkpt lat="42.63942" lon="1.69024">
        <ele>1932.379</ele>
        <time>2021-07-19T08:39:09Z</time>
      </trkpt>
      <trkpt lat="42.63943" lon="1.69025">
        <ele>1933.279</ele>
        <time>2021-07-19T08:39:11Z</time>
      </trkpt>
      <trkpt lat="42.63944" lon="1.69024">
        <ele>1933.81</ele>
        <time>2021-07-19T08:39:13Z</time>
      </trkpt>
      <trkpt lat="42.63944" lon="1.69024">
        <ele>1933.812</ele>
        <time>2021-07-19T08:39:15Z</time>
      </trkpt>
      <trkpt lat="42.63944" lon="1.69024">
        <ele>1933.805</ele>
        <time>2021-07-19T08:39:17Z</time>
      </trkpt>
      <trkpt lat="42.63944" lon="1.69024">
        <ele>1933.806</ele>
        <time>2021-07-19T08:39:19Z</time>
      </trkpt>
      <trkpt lat="42.63944" lon="1.69024">
        <ele>1933.857</ele>
        <time>2021-07-19T08:39:21Z</time>
      </trkpt>
      <trkpt lat="42.63945" lon="1.69024">
        <ele>1933.672</ele>
        <time>2021-07-19T08:39:23Z</time>
      </trkpt>
      <trkpt lat="42.63946" lon="1.69023">
        <ele>1934.233</ele>
        <time>2021-07-19T08:39:25Z</time>
      </trkpt>
      <trkpt lat="42.63947" lon="1.69022">
        <ele>1934.315</ele>
        <time>2021-07-19T08:39:27Z</time>
      </trkpt>
      <trkpt lat="42.63948" lon="1.69024">
        <ele>1934.819</ele>
        <time>2021-07-19T08:39:29Z</time>
      </trkpt>
      <trkpt lat="42.63949" lon="1.69025">
        <ele>1934.867</ele>
        <time>2021-07-19T08:39:31Z</time>
      </trkpt>
      <trkpt lat="42.63949" lon="1.69026">
        <ele>1934.993</ele>
        <time>2021-07-19T08:39:33Z</time>
      </trkpt>
      <trkpt lat="42.63949" lon="1.69026">
        <ele>1934.982</ele>
        <time>2021-07-19T08:39:35Z</time>
      </trkpt>
      <trkpt lat="42.63949" lon="1.69026">
        <ele>1934.982</ele>
        <time>2021-07-19T08:39:37Z</time>
      </trkpt>
      <trkpt lat="42.63949" lon="1.69026">
        <ele>1934.983</ele>
        <time>2021-07-19T08:39:39Z</time>
      </trkpt>
      <trkpt lat="42.63949" lon="1.69026">
        <ele>1934.984</ele>
        <time>2021-07-19T08:39:41Z</time>
      </trkpt>
      <trkpt lat="42.6395" lon="1.69026">
        <ele>1934.988</ele>
        <time>2021-07-19T08:39:43Z</time>
      </trkpt>
      <trkpt lat="42.6395" lon="1.69026">
        <ele>1935.191</ele>
        <time>2021-07-19T08:39:45Z</time>
      </trkpt>
      <trkpt lat="42.6395" lon="1.69026">
        <ele>1935.466</ele>
        <time>2021-07-19T08:39:47Z</time>
      </trkpt>
      <trkpt lat="42.63951" lon="1.69027">
        <ele>1935.682</ele>
        <time>2021-07-19T08:39:49Z</time>
      </trkpt>
      <trkpt lat="42.63952" lon="1.69028">
        <ele>1935.213</ele>
        <time>2021-07-19T08:39:51Z</time>
      </trkpt>
      <trkpt lat="42.63953" lon="1.69029">
        <ele>1935.524</ele>
        <time>2021-07-19T08:39:53Z</time>
      </trkpt>
      <trkpt lat="42.63954" lon="1.69029">
        <ele>1935.371</ele>
        <time>2021-07-19T08:39:55Z</time>
      </trkpt>
      <trkpt lat="42.63955" lon="1.69029">
        <ele>1935.487</ele>
        <time>2021-07-19T08:39:57Z</time>
      </trkpt>
      <trkpt lat="42.63957" lon="1.69029">
        <ele>1935.556</ele>
        <time>2021-07-19T08:39:59Z</time>
      </trkpt>
      <trkpt lat="42.63958" lon="1.69029">
        <ele>1936.398</ele>
        <time>2021-07-19T08:40:01Z</time>
      </trkpt>
      <trkpt lat="42.63959" lon="1.69029">
        <ele>1936.875</ele>
        <time>2021-07-19T08:40:03Z</time>
      </trkpt>
      <trkpt lat="42.6396" lon="1.6903">
        <ele>1937.899</ele>
        <time>2021-07-19T08:40:05Z</time>
      </trkpt>
      <trkpt lat="42.63961" lon="1.69032">
        <ele>1938.486</ele>
        <time>2021-07-19T08:40:07Z</time>
      </trkpt>
      <trkpt lat="42.63962" lon="1.69032">
        <ele>1938.579</ele>
        <time>2021-07-19T08:40:09Z</time>
      </trkpt>
      <trkpt lat="42.63963" lon="1.69033">
        <ele>1939.023</ele>
        <time>2021-07-19T08:40:11Z</time>
      </trkpt>
      <trkpt lat="42.63964" lon="1.69035">
        <ele>1939.68</ele>
        <time>2021-07-19T08:40:13Z</time>
      </trkpt>
      <trkpt lat="42.63965" lon="1.69035">
        <ele>1940.003</ele>
        <time>2021-07-19T08:40:15Z</time>
      </trkpt>
      <trkpt lat="42.63966" lon="1.69036">
        <ele>1940.68</ele>
        <time>2021-07-19T08:40:17Z</time>
      </trkpt>
      <trkpt lat="42.63966" lon="1.69037">
        <ele>1940.813</ele>
        <time>2021-07-19T08:40:19Z</time>
      </trkpt>
      <trkpt lat="42.63966" lon="1.69037">
        <ele>1940.821</ele>
        <time>2021-07-19T08:40:21Z</time>
      </trkpt>
      <trkpt lat="42.63966" lon="1.69037">
        <ele>1940.829</ele>
        <time>2021-07-19T08:40:23Z</time>
      </trkpt>
      <trkpt lat="42.63966" lon="1.69037">
        <ele>1940.838</ele>
        <time>2021-07-19T08:40:25Z</time>
      </trkpt>
      <trkpt lat="42.63966" lon="1.69037">
        <ele>1940.829</ele>
        <time>2021-07-19T08:40:27Z</time>
      </trkpt>
      <trkpt lat="42.63966" lon="1.69037">
        <ele>1940.836</ele>
        <time>2021-07-19T08:40:29Z</time>
      </trkpt>
      <trkpt lat="42.63966" lon="1.69037">
        <ele>1940.84</ele>
        <time>2021-07-19T08:40:31Z</time>
      </trkpt>
      <trkpt lat="42.63966" lon="1.69037">
        <ele>1940.843</ele>
        <time>2021-07-19T08:40:33Z</time>
      </trkpt>
      <trkpt lat="42.63966" lon="1.69037">
        <ele>1940.835</ele>
        <time>2021-07-19T08:40:35Z</time>
      </trkpt>
      <trkpt lat="42.63966" lon="1.69037">
        <ele>1940.826</ele>
        <time>2021-07-19T08:40:37Z</time>
      </trkpt>
      <trkpt lat="42.63966" lon="1.69037">
        <ele>1940.826</ele>
        <time>2021-07-19T08:40:39Z</time>
      </trkpt>
      <trkpt lat="42.63966" lon="1.69037">
        <ele>1940.83</ele>
        <time>2021-07-19T08:40:41Z</time>
      </trkpt>
      <trkpt lat="42.63966" lon="1.69037">
        <ele>1940.823</ele>
        <time>2021-07-19T08:40:43Z</time>
      </trkpt>
      <trkpt lat="42.63966" lon="1.69037">
        <ele>1940.834</ele>
        <time>2021-07-19T08:40:45Z</time>
      </trkpt>
      <trkpt lat="42.63966" lon="1.69037">
        <ele>1940.836</ele>
        <time>2021-07-19T08:40:47Z</time>
      </trkpt>
      <trkpt lat="42.63966" lon="1.69037">
        <ele>1940.821</ele>
        <time>2021-07-19T08:40:49Z</time>
      </trkpt>
      <trkpt lat="42.63966" lon="1.69037">
        <ele>1940.817</ele>
        <time>2021-07-19T08:40:51Z</time>
      </trkpt>
      <trkpt lat="42.63966" lon="1.69037">
        <ele>1940.816</ele>
        <time>2021-07-19T08:40:53Z</time>
      </trkpt>
      <trkpt lat="42.63966" lon="1.69037">
        <ele>1940.81</ele>
        <time>2021-07-19T08:40:55Z</time>
      </trkpt>
      <trkpt lat="42.63966" lon="1.69037">
        <ele>1940.803</ele>
        <time>2021-07-19T08:40:57Z</time>
      </trkpt>
      <trkpt lat="42.63966" lon="1.69037">
        <ele>1940.791</ele>
        <time>2021-07-19T08:40:59Z</time>
      </trkpt>
      <trkpt lat="42.63966" lon="1.69037">
        <ele>1940.797</ele>
        <time>2021-07-19T08:41:01Z</time>
      </trkpt>
      <trkpt lat="42.63966" lon="1.69037">
        <ele>1940.805</ele>
        <time>2021-07-19T08:41:03Z</time>
      </trkpt>
      <trkpt lat="42.63966" lon="1.69037">
        <ele>1940.801</ele>
        <time>2021-07-19T08:41:05Z</time>
      </trkpt>
      <trkpt lat="42.63966" lon="1.69037">
        <ele>1940.797</ele>
        <time>2021-07-19T08:41:07Z</time>
      </trkpt>
      <trkpt lat="42.63966" lon="1.69037">
        <ele>1940.768</ele>
        <time>2021-07-19T08:41:09Z</time>
      </trkpt>
      <trkpt lat="42.63966" lon="1.69037">
        <ele>1940.764</ele>
        <time>2021-07-19T08:41:11Z</time>
      </trkpt>
      <trkpt lat="42.63966" lon="1.69037">
        <ele>1940.756</ele>
        <time>2021-07-19T08:41:13Z</time>
      </trkpt>
      <trkpt lat="42.63966" lon="1.69037">
        <ele>1940.751</ele>
        <time>2021-07-19T08:41:15Z</time>
      </trkpt>
      <trkpt lat="42.63966" lon="1.69037">
        <ele>1940.743</ele>
        <time>2021-07-19T08:41:17Z</time>
      </trkpt>
      <trkpt lat="42.63966" lon="1.69037">
        <ele>1940.747</ele>
        <time>2021-07-19T08:41:19Z</time>
      </trkpt>
      <trkpt lat="42.63966" lon="1.69037">
        <ele>1940.753</ele>
        <time>2021-07-19T08:41:21Z</time>
      </trkpt>
      <trkpt lat="42.63966" lon="1.69037">
        <ele>1940.744</ele>
        <time>2021-07-19T08:41:23Z</time>
      </trkpt>
      <trkpt lat="42.63966" lon="1.69037">
        <ele>1940.739</ele>
        <time>2021-07-19T08:41:25Z</time>
      </trkpt>
      <trkpt lat="42.63966" lon="1.69037">
        <ele>1940.742</ele>
        <time>2021-07-19T08:41:27Z</time>
      </trkpt>
      <trkpt lat="42.63966" lon="1.69037">
        <ele>1940.745</ele>
        <time>2021-07-19T08:41:29Z</time>
      </trkpt>
      <trkpt lat="42.63966" lon="1.69037">
        <ele>1940.744</ele>
        <time>2021-07-19T08:41:31Z</time>
      </trkpt>
      <trkpt lat="42.63966" lon="1.69037">
        <ele>1940.745</ele>
        <time>2021-07-19T08:41:33Z</time>
      </trkpt>
      <trkpt lat="42.63966" lon="1.69037">
        <ele>1940.736</ele>
        <time>2021-07-19T08:41:35Z</time>
      </trkpt>
      <trkpt lat="42.63966" lon="1.69037">
        <ele>1940.736</ele>
        <time>2021-07-19T08:41:37Z</time>
      </trkpt>
      <trkpt lat="42.63966" lon="1.69037">
        <ele>1940.729</ele>
        <time>2021-07-19T08:41:39Z</time>
      </trkpt>
      <trkpt lat="42.63966" lon="1.69037">
        <ele>1940.721</ele>
        <time>2021-07-19T08:41:41Z</time>
      </trkpt>
      <trkpt lat="42.63966" lon="1.69037">
        <ele>1940.723</ele>
        <time>2021-07-19T08:41:43Z</time>
      </trkpt>
      <trkpt lat="42.63966" lon="1.69037">
        <ele>1940.732</ele>
        <time>2021-07-19T08:41:45Z</time>
      </trkpt>
      <trkpt lat="42.63966" lon="1.69037">
        <ele>1940.732</ele>
        <time>2021-07-19T08:41:47Z</time>
      </trkpt>
      <trkpt lat="42.63966" lon="1.69037">
        <ele>1940.733</ele>
        <time>2021-07-19T08:41:49Z</time>
      </trkpt>
      <trkpt lat="42.63966" lon="1.69037">
        <ele>1940.734</ele>
        <time>2021-07-19T08:41:51Z</time>
      </trkpt>
      <trkpt lat="42.63966" lon="1.69037">
        <ele>1940.719</ele>
        <time>2021-07-19T08:41:53Z</time>
      </trkpt>
      <trkpt lat="42.63966" lon="1.69037">
        <ele>1940.718</ele>
        <time>2021-07-19T08:41:55Z</time>
      </trkpt>
      <trkpt lat="42.63966" lon="1.69037">
        <ele>1940.713</ele>
        <time>2021-07-19T08:41:57Z</time>
      </trkpt>
      <trkpt lat="42.63966" lon="1.69037">
        <ele>1940.709</ele>
        <time>2021-07-19T08:41:59Z</time>
      </trkpt>
      <trkpt lat="42.63966" lon="1.69037">
        <ele>1940.712</ele>
        <time>2021-07-19T08:42:01Z</time>
      </trkpt>
      <trkpt lat="42.63967" lon="1.69038">
        <ele>1941.126</ele>
        <time>2021-07-19T08:42:03Z</time>
      </trkpt>
      <trkpt lat="42.63968" lon="1.69038">
        <ele>1941.636</ele>
        <time>2021-07-19T08:42:05Z</time>
      </trkpt>
      <trkpt lat="42.63968" lon="1.69039">
        <ele>1941.271</ele>
        <time>2021-07-19T08:42:07Z</time>
      </trkpt>
      <trkpt lat="42.63968" lon="1.6904">
        <ele>1941.83</ele>
        <time>2021-07-19T08:42:09Z</time>
      </trkpt>
      <trkpt lat="42.63968" lon="1.6904">
        <ele>1941.805</ele>
        <time>2021-07-19T08:42:11Z</time>
      </trkpt>
      <trkpt lat="42.63968" lon="1.69041">
        <ele>1941.8</ele>
        <time>2021-07-19T08:42:13Z</time>
      </trkpt>
      <trkpt lat="42.63968" lon="1.69041">
        <ele>1941.791</ele>
        <time>2021-07-19T08:42:15Z</time>
      </trkpt>
      <trkpt lat="42.63968" lon="1.6904">
        <ele>1941.782</ele>
        <time>2021-07-19T08:42:17Z</time>
      </trkpt>
      <trkpt lat="42.63968" lon="1.69041">
        <ele>1941.781</ele>
        <time>2021-07-19T08:42:19Z</time>
      </trkpt>
      <trkpt lat="42.63968" lon="1.69041">
        <ele>1941.778</ele>
        <time>2021-07-19T08:42:20Z</time>
      </trkpt>
      <trkpt lat="42.63969" lon="1.69041">
        <ele>1941.664</ele>
        <time>2021-07-19T08:42:23Z</time>
      </trkpt>
      <trkpt lat="42.63969" lon="1.69042">
        <ele>1942.273</ele>
        <time>2021-07-19T08:42:25Z</time>
      </trkpt>
      <trkpt lat="42.63969" lon="1.69043">
        <ele>1942.415</ele>
        <time>2021-07-19T08:42:27Z</time>
      </trkpt>
      <trkpt lat="42.6397" lon="1.69043">
        <ele>1942.539</ele>
        <time>2021-07-19T08:42:29Z</time>
      </trkpt>
      <trkpt lat="42.6397" lon="1.69043">
        <ele>1943.044</ele>
        <time>2021-07-19T08:42:31Z</time>
      </trkpt>
      <trkpt lat="42.63971" lon="1.69044">
        <ele>1942.727</ele>
        <time>2021-07-19T08:42:33Z</time>
      </trkpt>
      <trkpt lat="42.63972" lon="1.69045">
        <ele>1942.677</ele>
        <time>2021-07-19T08:42:35Z</time>
      </trkpt>
      <trkpt lat="42.63974" lon="1.69045">
        <ele>1943.713</ele>
        <time>2021-07-19T08:42:37Z</time>
      </trkpt>
      <trkpt lat="42.63974" lon="1.69045">
        <ele>1944.133</ele>
        <time>2021-07-19T08:42:39Z</time>
      </trkpt>
      <trkpt lat="42.63975" lon="1.69046">
        <ele>1944.005</ele>
        <time>2021-07-19T08:42:41Z</time>
      </trkpt>
      <trkpt lat="42.63977" lon="1.69046">
        <ele>1944.021</ele>
        <time>2021-07-19T08:42:43Z</time>
      </trkpt>
      <trkpt lat="42.63978" lon="1.69047">
        <ele>1944.491</ele>
        <time>2021-07-19T08:42:45Z</time>
      </trkpt>
      <trkpt lat="42.63979" lon="1.69047">
        <ele>1944.822</ele>
        <time>2021-07-19T08:42:47Z</time>
      </trkpt>
      <trkpt lat="42.6398" lon="1.69048">
        <ele>1944.39</ele>
        <time>2021-07-19T08:42:49Z</time>
      </trkpt>
      <trkpt lat="42.63981" lon="1.69049">
        <ele>1944.815</ele>
        <time>2021-07-19T08:42:51Z</time>
      </trkpt>
      <trkpt lat="42.63982" lon="1.6905">
        <ele>1945.13</ele>
        <time>2021-07-19T08:42:53Z</time>
      </trkpt>
      <trkpt lat="42.63983" lon="1.69052">
        <ele>1946.083</ele>
        <time>2021-07-19T08:42:55Z</time>
      </trkpt>
      <trkpt lat="42.63984" lon="1.69054">
        <ele>1946.872</ele>
        <time>2021-07-19T08:42:57Z</time>
      </trkpt>
      <trkpt lat="42.63985" lon="1.69056">
        <ele>1946.701</ele>
        <time>2021-07-19T08:42:59Z</time>
      </trkpt>
      <trkpt lat="42.63986" lon="1.69056">
        <ele>1947.548</ele>
        <time>2021-07-19T08:43:01Z</time>
      </trkpt>
      <trkpt lat="42.63987" lon="1.69057">
        <ele>1947.412</ele>
        <time>2021-07-19T08:43:03Z</time>
      </trkpt>
      <trkpt lat="42.63989" lon="1.69058">
        <ele>1947.213</ele>
        <time>2021-07-19T08:43:05Z</time>
      </trkpt>
      <trkpt lat="42.6399" lon="1.69059">
        <ele>1946.94</ele>
        <time>2021-07-19T08:43:07Z</time>
      </trkpt>
      <trkpt lat="42.63991" lon="1.6906">
        <ele>1947.114</ele>
        <time>2021-07-19T08:43:09Z</time>
      </trkpt>
      <trkpt lat="42.63993" lon="1.69059">
        <ele>1947.252</ele>
        <time>2021-07-19T08:43:11Z</time>
      </trkpt>
      <trkpt lat="42.63994" lon="1.69059">
        <ele>1947.611</ele>
        <time>2021-07-19T08:43:13Z</time>
      </trkpt>
      <trkpt lat="42.63996" lon="1.6906">
        <ele>1947.616</ele>
        <time>2021-07-19T08:43:15Z</time>
      </trkpt>
      <trkpt lat="42.63997" lon="1.6906">
        <ele>1947.735</ele>
        <time>2021-07-19T08:43:17Z</time>
      </trkpt>
      <trkpt lat="42.63998" lon="1.69061">
        <ele>1948.014</ele>
        <time>2021-07-19T08:43:19Z</time>
      </trkpt>
      <trkpt lat="42.64" lon="1.69063">
        <ele>1948.373</ele>
        <time>2021-07-19T08:43:21Z</time>
      </trkpt>
      <trkpt lat="42.64001" lon="1.69064">
        <ele>1948.025</ele>
        <time>2021-07-19T08:43:23Z</time>
      </trkpt>
      <trkpt lat="42.64002" lon="1.69065">
        <ele>1948.173</ele>
        <time>2021-07-19T08:43:25Z</time>
      </trkpt>
      <trkpt lat="42.64003" lon="1.69066">
        <ele>1947.898</ele>
        <time>2021-07-19T08:43:27Z</time>
      </trkpt>
      <trkpt lat="42.64004" lon="1.69067">
        <ele>1948.172</ele>
        <time>2021-07-19T08:43:29Z</time>
      </trkpt>
      <trkpt lat="42.64005" lon="1.69068">
        <ele>1948.345</ele>
        <time>2021-07-19T08:43:31Z</time>
      </trkpt>
      <trkpt lat="42.64006" lon="1.69069">
        <ele>1949.14</ele>
        <time>2021-07-19T08:43:33Z</time>
      </trkpt>
      <trkpt lat="42.64008" lon="1.69069">
        <ele>1950.062</ele>
        <time>2021-07-19T08:43:35Z</time>
      </trkpt>
      <trkpt lat="42.64009" lon="1.69069">
        <ele>1950.203</ele>
        <time>2021-07-19T08:43:37Z</time>
      </trkpt>
      <trkpt lat="42.6401" lon="1.6907">
        <ele>1950.644</ele>
        <time>2021-07-19T08:43:39Z</time>
      </trkpt>
      <trkpt lat="42.64012" lon="1.69071">
        <ele>1950.96</ele>
        <time>2021-07-19T08:43:41Z</time>
      </trkpt>
      <trkpt lat="42.64013" lon="1.69072">
        <ele>1951.743</ele>
        <time>2021-07-19T08:43:43Z</time>
      </trkpt>
      <trkpt lat="42.64013" lon="1.69072">
        <ele>1951.881</ele>
        <time>2021-07-19T08:43:45Z</time>
      </trkpt>
      <trkpt lat="42.64014" lon="1.69074">
        <ele>1951.843</ele>
        <time>2021-07-19T08:43:47Z</time>
      </trkpt>
      <trkpt lat="42.64015" lon="1.69075">
        <ele>1952.346</ele>
        <time>2021-07-19T08:43:49Z</time>
      </trkpt>
      <trkpt lat="42.64015" lon="1.69076">
        <ele>1952.547</ele>
        <time>2021-07-19T08:43:51Z</time>
      </trkpt>
      <trkpt lat="42.64016" lon="1.69076">
        <ele>1952.649</ele>
        <time>2021-07-19T08:43:53Z</time>
      </trkpt>
      <trkpt lat="42.64017" lon="1.69077">
        <ele>1953.164</ele>
        <time>2021-07-19T08:43:55Z</time>
      </trkpt>
      <trkpt lat="42.64018" lon="1.69078">
        <ele>1953.268</ele>
        <time>2021-07-19T08:43:57Z</time>
      </trkpt>
      <trkpt lat="42.64019" lon="1.69078">
        <ele>1952.692</ele>
        <time>2021-07-19T08:43:59Z</time>
      </trkpt>
      <trkpt lat="42.6402" lon="1.69079">
        <ele>1953.592</ele>
        <time>2021-07-19T08:44:01Z</time>
      </trkpt>
      <trkpt lat="42.64021" lon="1.6908">
        <ele>1953.195</ele>
        <time>2021-07-19T08:44:03Z</time>
      </trkpt>
      <trkpt lat="42.64022" lon="1.69081">
        <ele>1953.547</ele>
        <time>2021-07-19T08:44:05Z</time>
      </trkpt>
      <trkpt lat="42.64023" lon="1.69082">
        <ele>1954.194</ele>
        <time>2021-07-19T08:44:07Z</time>
      </trkpt>
      <trkpt lat="42.64024" lon="1.69083">
        <ele>1954.586</ele>
        <time>2021-07-19T08:44:09Z</time>
      </trkpt>
      <trkpt lat="42.64025" lon="1.69084">
        <ele>1954.428</ele>
        <time>2021-07-19T08:44:11Z</time>
      </trkpt>
      <trkpt lat="42.64026" lon="1.69085">
        <ele>1954.742</ele>
        <time>2021-07-19T08:44:13Z</time>
      </trkpt>
      <trkpt lat="42.64027" lon="1.69086">
        <ele>1954.949</ele>
        <time>2021-07-19T08:44:15Z</time>
      </trkpt>
      <trkpt lat="42.64028" lon="1.69087">
        <ele>1955.19</ele>
        <time>2021-07-19T08:44:17Z</time>
      </trkpt>
      <trkpt lat="42.64029" lon="1.69088">
        <ele>1955.75</ele>
        <time>2021-07-19T08:44:19Z</time>
      </trkpt>
      <trkpt lat="42.6403" lon="1.69088">
        <ele>1956.054</ele>
        <time>2021-07-19T08:44:21Z</time>
      </trkpt>
      <trkpt lat="42.64031" lon="1.6909">
        <ele>1956.935</ele>
        <time>2021-07-19T08:44:23Z</time>
      </trkpt>
      <trkpt lat="42.64032" lon="1.69091">
        <ele>1958.063</ele>
        <time>2021-07-19T08:44:25Z</time>
      </trkpt>
      <trkpt lat="42.64033" lon="1.69091">
        <ele>1958.673</ele>
        <time>2021-07-19T08:44:27Z</time>
      </trkpt>
      <trkpt lat="42.64034" lon="1.69093">
        <ele>1958.79</ele>
        <time>2021-07-19T08:44:29Z</time>
      </trkpt>
      <trkpt lat="42.64034" lon="1.69094">
        <ele>1959.374</ele>
        <time>2021-07-19T08:44:31Z</time>
      </trkpt>
      <trkpt lat="42.64035" lon="1.69095">
        <ele>1959.685</ele>
        <time>2021-07-19T08:44:33Z</time>
      </trkpt>
      <trkpt lat="42.64036" lon="1.69096">
        <ele>1960.279</ele>
        <time>2021-07-19T08:44:35Z</time>
      </trkpt>
      <trkpt lat="42.64036" lon="1.69097">
        <ele>1960.783</ele>
        <time>2021-07-19T08:44:37Z</time>
      </trkpt>
      <trkpt lat="42.64036" lon="1.69097">
        <ele>1960.773</ele>
        <time>2021-07-19T08:44:39Z</time>
      </trkpt>
      <trkpt lat="42.64037" lon="1.69099">
        <ele>1961.411</ele>
        <time>2021-07-19T08:44:41Z</time>
      </trkpt>
      <trkpt lat="42.64038" lon="1.691">
        <ele>1961.836</ele>
        <time>2021-07-19T08:44:43Z</time>
      </trkpt>
      <trkpt lat="42.64039" lon="1.69101">
        <ele>1961.911</ele>
        <time>2021-07-19T08:44:45Z</time>
      </trkpt>
      <trkpt lat="42.6404" lon="1.69101">
        <ele>1962.602</ele>
        <time>2021-07-19T08:44:47Z</time>
      </trkpt>
      <trkpt lat="42.64041" lon="1.69102">
        <ele>1962.759</ele>
        <time>2021-07-19T08:44:49Z</time>
      </trkpt>
      <trkpt lat="42.64042" lon="1.69103">
        <ele>1963.197</ele>
        <time>2021-07-19T08:44:51Z</time>
      </trkpt>
      <trkpt lat="42.64043" lon="1.69105">
        <ele>1963.72</ele>
        <time>2021-07-19T08:44:53Z</time>
      </trkpt>
      <trkpt lat="42.64043" lon="1.69106">
        <ele>1964.331</ele>
        <time>2021-07-19T08:44:55Z</time>
      </trkpt>
      <trkpt lat="42.64044" lon="1.69107">
        <ele>1964.103</ele>
        <time>2021-07-19T08:44:57Z</time>
      </trkpt>
      <trkpt lat="42.64045" lon="1.69109">
        <ele>1964.303</ele>
        <time>2021-07-19T08:44:59Z</time>
      </trkpt>
      <trkpt lat="42.64046" lon="1.6911">
        <ele>1964.635</ele>
        <time>2021-07-19T08:45:01Z</time>
      </trkpt>
      <trkpt lat="42.64048" lon="1.6911">
        <ele>1964.364</ele>
        <time>2021-07-19T08:45:03Z</time>
      </trkpt>
      <trkpt lat="42.64048" lon="1.6911">
        <ele>1964.703</ele>
        <time>2021-07-19T08:45:05Z</time>
      </trkpt>
      <trkpt lat="42.64048" lon="1.6911">
        <ele>1964.702</ele>
        <time>2021-07-19T08:45:07Z</time>
      </trkpt>
      <trkpt lat="42.64049" lon="1.6911">
        <ele>1965.04</ele>
        <time>2021-07-19T08:45:09Z</time>
      </trkpt>
      <trkpt lat="42.6405" lon="1.6911">
        <ele>1964.84</ele>
        <time>2021-07-19T08:45:11Z</time>
      </trkpt>
      <trkpt lat="42.64051" lon="1.69112">
        <ele>1965.092</ele>
        <time>2021-07-19T08:45:13Z</time>
      </trkpt>
      <trkpt lat="42.64053" lon="1.69112">
        <ele>1965.157</ele>
        <time>2021-07-19T08:45:15Z</time>
      </trkpt>
      <trkpt lat="42.64054" lon="1.69113">
        <ele>1965.597</ele>
        <time>2021-07-19T08:45:17Z</time>
      </trkpt>
      <trkpt lat="42.64055" lon="1.69113">
        <ele>1965.683</ele>
        <time>2021-07-19T08:45:19Z</time>
      </trkpt>
      <trkpt lat="42.64056" lon="1.69113">
        <ele>1966.334</ele>
        <time>2021-07-19T08:45:21Z</time>
      </trkpt>
      <trkpt lat="42.64057" lon="1.69113">
        <ele>1966.409</ele>
        <time>2021-07-19T08:45:23Z</time>
      </trkpt>
      <trkpt lat="42.64058" lon="1.69113">
        <ele>1967.163</ele>
        <time>2021-07-19T08:45:25Z</time>
      </trkpt>
      <trkpt lat="42.64059" lon="1.69113">
        <ele>1967.193</ele>
        <time>2021-07-19T08:45:27Z</time>
      </trkpt>
      <trkpt lat="42.6406" lon="1.69113">
        <ele>1967.715</ele>
        <time>2021-07-19T08:45:29Z</time>
      </trkpt>
      <trkpt lat="42.64061" lon="1.69113">
        <ele>1968.435</ele>
        <time>2021-07-19T08:45:31Z</time>
      </trkpt>
      <trkpt lat="42.64062" lon="1.69113">
        <ele>1968.421</ele>
        <time>2021-07-19T08:45:33Z</time>
      </trkpt>
      <trkpt lat="42.64063" lon="1.69112">
        <ele>1969.071</ele>
        <time>2021-07-19T08:45:35Z</time>
      </trkpt>
      <trkpt lat="42.64064" lon="1.69112">
        <ele>1969.365</ele>
        <time>2021-07-19T08:45:37Z</time>
      </trkpt>
      <trkpt lat="42.64066" lon="1.69113">
        <ele>1969.946</ele>
        <time>2021-07-19T08:45:39Z</time>
      </trkpt>
      <trkpt lat="42.64067" lon="1.69114">
        <ele>1969.9</ele>
        <time>2021-07-19T08:45:41Z</time>
      </trkpt>
      <trkpt lat="42.64067" lon="1.69115">
        <ele>1969.939</ele>
        <time>2021-07-19T08:45:43Z</time>
      </trkpt>
      <trkpt lat="42.64068" lon="1.69117">
        <ele>1969.508</ele>
        <time>2021-07-19T08:45:45Z</time>
      </trkpt>
      <trkpt lat="42.6407" lon="1.69118">
        <ele>1969.853</ele>
        <time>2021-07-19T08:45:47Z</time>
      </trkpt>
      <trkpt lat="42.64071" lon="1.69118">
        <ele>1970.151</ele>
        <time>2021-07-19T08:45:49Z</time>
      </trkpt>
      <trkpt lat="42.64072" lon="1.69119">
        <ele>1970.69</ele>
        <time>2021-07-19T08:45:51Z</time>
      </trkpt>
      <trkpt lat="42.64072" lon="1.69121">
        <ele>1970.515</ele>
        <time>2021-07-19T08:45:53Z</time>
      </trkpt>
      <trkpt lat="42.64073" lon="1.69122">
        <ele>1971.208</ele>
        <time>2021-07-19T08:45:55Z</time>
      </trkpt>
      <trkpt lat="42.64074" lon="1.69123">
        <ele>1971.718</ele>
        <time>2021-07-19T08:45:57Z</time>
      </trkpt>
      <trkpt lat="42.64075" lon="1.69125">
        <ele>1971.899</ele>
        <time>2021-07-19T08:45:59Z</time>
      </trkpt>
      <trkpt lat="42.64076" lon="1.69125">
        <ele>1972.051</ele>
        <time>2021-07-19T08:46:01Z</time>
      </trkpt>
      <trkpt lat="42.64076" lon="1.69126">
        <ele>1972.053</ele>
        <time>2021-07-19T08:46:03Z</time>
      </trkpt>
      <trkpt lat="42.64076" lon="1.69126">
        <ele>1972.214</ele>
        <time>2021-07-19T08:46:05Z</time>
      </trkpt>
      <trkpt lat="42.64076" lon="1.69125">
        <ele>1972.222</ele>
        <time>2021-07-19T08:46:07Z</time>
      </trkpt>
      <trkpt lat="42.64076" lon="1.69125">
        <ele>1972.227</ele>
        <time>2021-07-19T08:46:09Z</time>
      </trkpt>
      <trkpt lat="42.64076" lon="1.69125">
        <ele>1972.232</ele>
        <time>2021-07-19T08:46:11Z</time>
      </trkpt>
      <trkpt lat="42.64076" lon="1.69125">
        <ele>1972.238</ele>
        <time>2021-07-19T08:46:13Z</time>
      </trkpt>
      <trkpt lat="42.64076" lon="1.69125">
        <ele>1972.243</ele>
        <time>2021-07-19T08:46:15Z</time>
      </trkpt>
      <trkpt lat="42.64076" lon="1.69125">
        <ele>1972.243</ele>
        <time>2021-07-19T08:46:17Z</time>
      </trkpt>
      <trkpt lat="42.64076" lon="1.69125">
        <ele>1972.248</ele>
        <time>2021-07-19T08:46:19Z</time>
      </trkpt>
      <trkpt lat="42.64076" lon="1.69125">
        <ele>1972.254</ele>
        <time>2021-07-19T08:46:21Z</time>
      </trkpt>
      <trkpt lat="42.64076" lon="1.69125">
        <ele>1972.246</ele>
        <time>2021-07-19T08:46:23Z</time>
      </trkpt>
      <trkpt lat="42.64076" lon="1.69125">
        <ele>1972.255</ele>
        <time>2021-07-19T08:46:25Z</time>
      </trkpt>
      <trkpt lat="42.64076" lon="1.69125">
        <ele>1972.247</ele>
        <time>2021-07-19T08:46:27Z</time>
      </trkpt>
      <trkpt lat="42.64076" lon="1.69125">
        <ele>1972.242</ele>
        <time>2021-07-19T08:46:29Z</time>
      </trkpt>
      <trkpt lat="42.64076" lon="1.69125">
        <ele>1972.242</ele>
        <time>2021-07-19T08:46:31Z</time>
      </trkpt>
      <trkpt lat="42.64076" lon="1.69125">
        <ele>1972.244</ele>
        <time>2021-07-19T08:46:33Z</time>
      </trkpt>
      <trkpt lat="42.64076" lon="1.69125">
        <ele>1972.252</ele>
        <time>2021-07-19T08:46:35Z</time>
      </trkpt>
      <trkpt lat="42.64076" lon="1.69125">
        <ele>1972.243</ele>
        <time>2021-07-19T08:46:37Z</time>
      </trkpt>
      <trkpt lat="42.64076" lon="1.69125">
        <ele>1972.238</ele>
        <time>2021-07-19T08:46:39Z</time>
      </trkpt>
      <trkpt lat="42.64076" lon="1.69125">
        <ele>1972.245</ele>
        <time>2021-07-19T08:46:41Z</time>
      </trkpt>
      <trkpt lat="42.64076" lon="1.69125">
        <ele>1972.237</ele>
        <time>2021-07-19T08:46:43Z</time>
      </trkpt>
      <trkpt lat="42.64076" lon="1.69125">
        <ele>1972.229</ele>
        <time>2021-07-19T08:46:45Z</time>
      </trkpt>
      <trkpt lat="42.64076" lon="1.69125">
        <ele>1972.232</ele>
        <time>2021-07-19T08:46:47Z</time>
      </trkpt>
      <trkpt lat="42.64076" lon="1.69125">
        <ele>1972.218</ele>
        <time>2021-07-19T08:46:49Z</time>
      </trkpt>
      <trkpt lat="42.64076" lon="1.69125">
        <ele>1972.21</ele>
        <time>2021-07-19T08:46:51Z</time>
      </trkpt>
      <trkpt lat="42.64076" lon="1.69125">
        <ele>1972.212</ele>
        <time>2021-07-19T08:46:53Z</time>
      </trkpt>
      <trkpt lat="42.64076" lon="1.69125">
        <ele>1972.21</ele>
        <time>2021-07-19T08:46:55Z</time>
      </trkpt>
      <trkpt lat="42.64076" lon="1.69125">
        <ele>1972.213</ele>
        <time>2021-07-19T08:46:57Z</time>
      </trkpt>
      <trkpt lat="42.64076" lon="1.69125">
        <ele>1972.209</ele>
        <time>2021-07-19T08:46:59Z</time>
      </trkpt>
      <trkpt lat="42.64076" lon="1.69125">
        <ele>1972.2</ele>
        <time>2021-07-19T08:47:01Z</time>
      </trkpt>
      <trkpt lat="42.64076" lon="1.69125">
        <ele>1972.207</ele>
        <time>2021-07-19T08:47:03Z</time>
      </trkpt>
      <trkpt lat="42.64076" lon="1.69125">
        <ele>1972.198</ele>
        <time>2021-07-19T08:47:05Z</time>
      </trkpt>
      <trkpt lat="42.64076" lon="1.69125">
        <ele>1972.201</ele>
        <time>2021-07-19T08:47:07Z</time>
      </trkpt>
      <trkpt lat="42.64076" lon="1.69125">
        <ele>1972.201</ele>
        <time>2021-07-19T08:47:09Z</time>
      </trkpt>
      <trkpt lat="42.64076" lon="1.69125">
        <ele>1972.198</ele>
        <time>2021-07-19T08:47:11Z</time>
      </trkpt>
      <trkpt lat="42.64076" lon="1.69125">
        <ele>1972.187</ele>
        <time>2021-07-19T08:47:13Z</time>
      </trkpt>
      <trkpt lat="42.64076" lon="1.69125">
        <ele>1972.183</ele>
        <time>2021-07-19T08:47:15Z</time>
      </trkpt>
      <trkpt lat="42.64076" lon="1.69125">
        <ele>1971.674</ele>
        <time>2021-07-19T08:47:17Z</time>
      </trkpt>
      <trkpt lat="42.64076" lon="1.69125">
        <ele>1971.682</ele>
        <time>2021-07-19T08:47:19Z</time>
      </trkpt>
      <trkpt lat="42.64076" lon="1.69125">
        <ele>1971.662</ele>
        <time>2021-07-19T08:47:21Z</time>
      </trkpt>
      <trkpt lat="42.64076" lon="1.69125">
        <ele>1971.662</ele>
        <time>2021-07-19T08:47:23Z</time>
      </trkpt>
      <trkpt lat="42.64076" lon="1.69125">
        <ele>1971.655</ele>
        <time>2021-07-19T08:47:25Z</time>
      </trkpt>
      <trkpt lat="42.64076" lon="1.69125">
        <ele>1971.653</ele>
        <time>2021-07-19T08:47:27Z</time>
      </trkpt>
      <trkpt lat="42.64076" lon="1.69125">
        <ele>1971.648</ele>
        <time>2021-07-19T08:47:29Z</time>
      </trkpt>
      <trkpt lat="42.64076" lon="1.69125">
        <ele>1971.652</ele>
        <time>2021-07-19T08:47:31Z</time>
      </trkpt>
      <trkpt lat="42.64076" lon="1.69125">
        <ele>1971.641</ele>
        <time>2021-07-19T08:47:33Z</time>
      </trkpt>
      <trkpt lat="42.64076" lon="1.69125">
        <ele>1971.645</ele>
        <time>2021-07-19T08:47:35Z</time>
      </trkpt>
      <trkpt lat="42.64076" lon="1.69125">
        <ele>1971.64</ele>
        <time>2021-07-19T08:47:37Z</time>
      </trkpt>
      <trkpt lat="42.64076" lon="1.69125">
        <ele>1971.645</ele>
        <time>2021-07-19T08:47:39Z</time>
      </trkpt>
      <trkpt lat="42.64076" lon="1.69125">
        <ele>1971.637</ele>
        <time>2021-07-19T08:47:41Z</time>
      </trkpt>
      <trkpt lat="42.64076" lon="1.69125">
        <ele>1971.631</ele>
        <time>2021-07-19T08:47:43Z</time>
      </trkpt>
      <trkpt lat="42.64076" lon="1.69125">
        <ele>1971.628</ele>
        <time>2021-07-19T08:47:45Z</time>
      </trkpt>
      <trkpt lat="42.64076" lon="1.69125">
        <ele>1971.614</ele>
        <time>2021-07-19T08:47:47Z</time>
      </trkpt>
      <trkpt lat="42.64076" lon="1.69125">
        <ele>1971.614</ele>
        <time>2021-07-19T08:47:49Z</time>
      </trkpt>
      <trkpt lat="42.64076" lon="1.69125">
        <ele>1971.611</ele>
        <time>2021-07-19T08:47:51Z</time>
      </trkpt>
      <trkpt lat="42.64076" lon="1.69125">
        <ele>1971.604</ele>
        <time>2021-07-19T08:47:53Z</time>
      </trkpt>
      <trkpt lat="42.64076" lon="1.69125">
        <ele>1971.597</ele>
        <time>2021-07-19T08:47:55Z</time>
      </trkpt>
      <trkpt lat="42.64076" lon="1.69125">
        <ele>1971.592</ele>
        <time>2021-07-19T08:47:57Z</time>
      </trkpt>
      <trkpt lat="42.64076" lon="1.69125">
        <ele>1971.596</ele>
        <time>2021-07-19T08:47:59Z</time>
      </trkpt>
      <trkpt lat="42.64076" lon="1.69125">
        <ele>1971.581</ele>
        <time>2021-07-19T08:48:01Z</time>
      </trkpt>
      <trkpt lat="42.64076" lon="1.69125">
        <ele>1971.592</ele>
        <time>2021-07-19T08:48:03Z</time>
      </trkpt>
      <trkpt lat="42.64076" lon="1.69125">
        <ele>1971.753</ele>
        <time>2021-07-19T08:48:05Z</time>
      </trkpt>
      <trkpt lat="42.64076" lon="1.69126">
        <ele>1971.808</ele>
        <time>2021-07-19T08:48:07Z</time>
      </trkpt>
      <trkpt lat="42.64077" lon="1.69126">
        <ele>1971.981</ele>
        <time>2021-07-19T08:48:09Z</time>
      </trkpt>
      <trkpt lat="42.64078" lon="1.69127">
        <ele>1972.209</ele>
        <time>2021-07-19T08:48:11Z</time>
      </trkpt>
      <trkpt lat="42.6408" lon="1.69127">
        <ele>1972.709</ele>
        <time>2021-07-19T08:48:13Z</time>
      </trkpt>
      <trkpt lat="42.64081" lon="1.69128">
        <ele>1972.939</ele>
        <time>2021-07-19T08:48:15Z</time>
      </trkpt>
      <trkpt lat="42.64082" lon="1.69128">
        <ele>1973.641</ele>
        <time>2021-07-19T08:48:17Z</time>
      </trkpt>
      <trkpt lat="42.64084" lon="1.69128">
        <ele>1974.255</ele>
        <time>2021-07-19T08:48:19Z</time>
      </trkpt>
      <trkpt lat="42.64085" lon="1.69128">
        <ele>1974.669</ele>
        <time>2021-07-19T08:48:21Z</time>
      </trkpt>
      <trkpt lat="42.64086" lon="1.69128">
        <ele>1974.715</ele>
        <time>2021-07-19T08:48:23Z</time>
      </trkpt>
      <trkpt lat="42.64087" lon="1.69129">
        <ele>1975.593</ele>
        <time>2021-07-19T08:48:25Z</time>
      </trkpt>
      <trkpt lat="42.64087" lon="1.69129">
        <ele>1975.606</ele>
        <time>2021-07-19T08:48:27Z</time>
      </trkpt>
      <trkpt lat="42.64088" lon="1.69129">
        <ele>1976.113</ele>
        <time>2021-07-19T08:48:29Z</time>
      </trkpt>
      <trkpt lat="42.64089" lon="1.69129">
        <ele>1976.69</ele>
        <time>2021-07-19T08:48:31Z</time>
      </trkpt>
      <trkpt lat="42.6409" lon="1.6913">
        <ele>1977.298</ele>
        <time>2021-07-19T08:48:33Z</time>
      </trkpt>
      <trkpt lat="42.6409" lon="1.6913">
        <ele>1977.899</ele>
        <time>2021-07-19T08:48:35Z</time>
      </trkpt>
      <trkpt lat="42.64091" lon="1.6913">
        <ele>1978.271</ele>
        <time>2021-07-19T08:48:37Z</time>
      </trkpt>
      <trkpt lat="42.64092" lon="1.69131">
        <ele>1978.72</ele>
        <time>2021-07-19T08:48:39Z</time>
      </trkpt>
      <trkpt lat="42.64093" lon="1.69131">
        <ele>1979.94</ele>
        <time>2021-07-19T08:48:41Z</time>
      </trkpt>
      <trkpt lat="42.64094" lon="1.69131">
        <ele>1980.494</ele>
        <time>2021-07-19T08:48:43Z</time>
      </trkpt>
      <trkpt lat="42.64094" lon="1.69132">
        <ele>1981.123</ele>
        <time>2021-07-19T08:48:45Z</time>
      </trkpt>
      <trkpt lat="42.64095" lon="1.69133">
        <ele>1981.211</ele>
        <time>2021-07-19T08:48:47Z</time>
      </trkpt>
      <trkpt lat="42.64096" lon="1.69134">
        <ele>1981.824</ele>
        <time>2021-07-19T08:48:49Z</time>
      </trkpt>
      <trkpt lat="42.64097" lon="1.69135">
        <ele>1982.308</ele>
        <time>2021-07-19T08:48:51Z</time>
      </trkpt>
      <trkpt lat="42.64098" lon="1.69136">
        <ele>1983.255</ele>
        <time>2021-07-19T08:48:53Z</time>
      </trkpt>
      <trkpt lat="42.64098" lon="1.69137">
        <ele>1983.67</ele>
        <time>2021-07-19T08:48:55Z</time>
      </trkpt>
      <trkpt lat="42.64098" lon="1.69137">
        <ele>1983.738</ele>
        <time>2021-07-19T08:48:57Z</time>
      </trkpt>
      <trkpt lat="42.64099" lon="1.69138">
        <ele>1984.08</ele>
        <time>2021-07-19T08:48:59Z</time>
      </trkpt>
      <trkpt lat="42.641" lon="1.69139">
        <ele>1984.486</ele>
        <time>2021-07-19T08:49:01Z</time>
      </trkpt>
      <trkpt lat="42.64102" lon="1.69139">
        <ele>1984.639</ele>
        <time>2021-07-19T08:49:03Z</time>
      </trkpt>
      <trkpt lat="42.64103" lon="1.69139">
        <ele>1984.951</ele>
        <time>2021-07-19T08:49:05Z</time>
      </trkpt>
      <trkpt lat="42.64104" lon="1.69138">
        <ele>1985.18</ele>
        <time>2021-07-19T08:49:07Z</time>
      </trkpt>
      <trkpt lat="42.64104" lon="1.69138">
        <ele>1985.463</ele>
        <time>2021-07-19T08:49:09Z</time>
      </trkpt>
      <trkpt lat="42.64105" lon="1.6914">
        <ele>1985.828</ele>
        <time>2021-07-19T08:49:11Z</time>
      </trkpt>
      <trkpt lat="42.64106" lon="1.6914">
        <ele>1986.641</ele>
        <time>2021-07-19T08:49:13Z</time>
      </trkpt>
      <trkpt lat="42.64107" lon="1.69141">
        <ele>1986.931</ele>
        <time>2021-07-19T08:49:15Z</time>
      </trkpt>
      <trkpt lat="42.64107" lon="1.69141">
        <ele>1987.42</ele>
        <time>2021-07-19T08:49:17Z</time>
      </trkpt>
      <trkpt lat="42.64108" lon="1.69142">
        <ele>1987.653</ele>
        <time>2021-07-19T08:49:19Z</time>
      </trkpt>
      <trkpt lat="42.64108" lon="1.69143">
        <ele>1988.252</ele>
        <time>2021-07-19T08:49:21Z</time>
      </trkpt>
      <trkpt lat="42.64109" lon="1.69144">
        <ele>1988.755</ele>
        <time>2021-07-19T08:49:23Z</time>
      </trkpt>
      <trkpt lat="42.6411" lon="1.69145">
        <ele>1989.152</ele>
        <time>2021-07-19T08:49:25Z</time>
      </trkpt>
      <trkpt lat="42.64111" lon="1.69145">
        <ele>1989.351</ele>
        <time>2021-07-19T08:49:27Z</time>
      </trkpt>
      <trkpt lat="42.64113" lon="1.69145">
        <ele>1989.332</ele>
        <time>2021-07-19T08:49:29Z</time>
      </trkpt>
      <trkpt lat="42.64114" lon="1.69145">
        <ele>1990.017</ele>
        <time>2021-07-19T08:49:31Z</time>
      </trkpt>
      <trkpt lat="42.64115" lon="1.69145">
        <ele>1990.356</ele>
        <time>2021-07-19T08:49:33Z</time>
      </trkpt>
      <trkpt lat="42.64116" lon="1.69145">
        <ele>1991.011</ele>
        <time>2021-07-19T08:49:35Z</time>
      </trkpt>
      <trkpt lat="42.64117" lon="1.69146">
        <ele>1991.284</ele>
        <time>2021-07-19T08:49:37Z</time>
      </trkpt>
      <trkpt lat="42.64118" lon="1.69147">
        <ele>1991.771</ele>
        <time>2021-07-19T08:49:39Z</time>
      </trkpt>
      <trkpt lat="42.64119" lon="1.69147">
        <ele>1992.092</ele>
        <time>2021-07-19T08:49:41Z</time>
      </trkpt>
      <trkpt lat="42.6412" lon="1.69148">
        <ele>1992.575</ele>
        <time>2021-07-19T08:49:43Z</time>
      </trkpt>
      <trkpt lat="42.64121" lon="1.69149">
        <ele>1992.743</ele>
        <time>2021-07-19T08:49:45Z</time>
      </trkpt>
      <trkpt lat="42.64121" lon="1.69149">
        <ele>1993.307</ele>
        <time>2021-07-19T08:49:47Z</time>
      </trkpt>
      <trkpt lat="42.64122" lon="1.69149">
        <ele>1993.309</ele>
        <time>2021-07-19T08:49:49Z</time>
      </trkpt>
      <trkpt lat="42.64123" lon="1.69149">
        <ele>1994.113</ele>
        <time>2021-07-19T08:49:51Z</time>
      </trkpt>
      <trkpt lat="42.64124" lon="1.69149">
        <ele>1994.058</ele>
        <time>2021-07-19T08:49:53Z</time>
      </trkpt>
      <trkpt lat="42.64124" lon="1.6915">
        <ele>1993.873</ele>
        <time>2021-07-19T08:49:55Z</time>
      </trkpt>
      <trkpt lat="42.64125" lon="1.69151">
        <ele>1994.617</ele>
        <time>2021-07-19T08:49:57Z</time>
      </trkpt>
      <trkpt lat="42.64125" lon="1.69151">
        <ele>1995.096</ele>
        <time>2021-07-19T08:49:59Z</time>
      </trkpt>
      <trkpt lat="42.64126" lon="1.69151">
        <ele>1996.153</ele>
        <time>2021-07-19T08:50:01Z</time>
      </trkpt>
      <trkpt lat="42.64127" lon="1.69152">
        <ele>1996.36</ele>
        <time>2021-07-19T08:50:03Z</time>
      </trkpt>
      <trkpt lat="42.64128" lon="1.69153">
        <ele>1996.262</ele>
        <time>2021-07-19T08:50:05Z</time>
      </trkpt>
      <trkpt lat="42.64129" lon="1.69153">
        <ele>1996.447</ele>
        <time>2021-07-19T08:50:07Z</time>
      </trkpt>
      <trkpt lat="42.6413" lon="1.69154">
        <ele>1997.443</ele>
        <time>2021-07-19T08:50:09Z</time>
      </trkpt>
      <trkpt lat="42.6413" lon="1.69154">
        <ele>1997.865</ele>
        <time>2021-07-19T08:50:11Z</time>
      </trkpt>
      <trkpt lat="42.6413" lon="1.69154">
        <ele>1998.207</ele>
        <time>2021-07-19T08:50:13Z</time>
      </trkpt>
      <trkpt lat="42.64131" lon="1.69154">
        <ele>1998.737</ele>
        <time>2021-07-19T08:50:15Z</time>
      </trkpt>
      <trkpt lat="42.64132" lon="1.69155">
        <ele>1999.045</ele>
        <time>2021-07-19T08:50:17Z</time>
      </trkpt>
      <trkpt lat="42.64133" lon="1.69155">
        <ele>1999.412</ele>
        <time>2021-07-19T08:50:19Z</time>
      </trkpt>
      <trkpt lat="42.64134" lon="1.69157">
        <ele>1999.792</ele>
        <time>2021-07-19T08:50:21Z</time>
      </trkpt>
      <trkpt lat="42.64134" lon="1.69158">
        <ele>1999.788</ele>
        <time>2021-07-19T08:50:23Z</time>
      </trkpt>
      <trkpt lat="42.64134" lon="1.69158">
        <ele>2000.446</ele>
        <time>2021-07-19T08:50:25Z</time>
      </trkpt>
      <trkpt lat="42.64135" lon="1.6916">
        <ele>2000.695</ele>
        <time>2021-07-19T08:50:27Z</time>
      </trkpt>
      <trkpt lat="42.64136" lon="1.69161">
        <ele>2000.845</ele>
        <time>2021-07-19T08:50:29Z</time>
      </trkpt>
      <trkpt lat="42.64137" lon="1.69161">
        <ele>2000.384</ele>
        <time>2021-07-19T08:50:31Z</time>
      </trkpt>
      <trkpt lat="42.64139" lon="1.69162">
        <ele>2000.742</ele>
        <time>2021-07-19T08:50:33Z</time>
      </trkpt>
      <trkpt lat="42.6414" lon="1.69162">
        <ele>2000.646</ele>
        <time>2021-07-19T08:50:35Z</time>
      </trkpt>
      <trkpt lat="42.64141" lon="1.69162">
        <ele>2000.615</ele>
        <time>2021-07-19T08:50:37Z</time>
      </trkpt>
      <trkpt lat="42.64142" lon="1.69163">
        <ele>2000.692</ele>
        <time>2021-07-19T08:50:39Z</time>
      </trkpt>
      <trkpt lat="42.64143" lon="1.69164">
        <ele>2001.308</ele>
        <time>2021-07-19T08:50:41Z</time>
      </trkpt>
      <trkpt lat="42.64144" lon="1.69165">
        <ele>2002.009</ele>
        <time>2021-07-19T08:50:43Z</time>
      </trkpt>
      <trkpt lat="42.64145" lon="1.69166">
        <ele>2001.968</ele>
        <time>2021-07-19T08:50:45Z</time>
      </trkpt>
      <trkpt lat="42.64146" lon="1.69166">
        <ele>2001.838</ele>
        <time>2021-07-19T08:50:47Z</time>
      </trkpt>
      <trkpt lat="42.64148" lon="1.69166">
        <ele>2001.958</ele>
        <time>2021-07-19T08:50:49Z</time>
      </trkpt>
      <trkpt lat="42.64149" lon="1.69167">
        <ele>2002.709</ele>
        <time>2021-07-19T08:50:51Z</time>
      </trkpt>
      <trkpt lat="42.6415" lon="1.69167">
        <ele>2003.066</ele>
        <time>2021-07-19T08:50:53Z</time>
      </trkpt>
      <trkpt lat="42.6415" lon="1.69168">
        <ele>2003.767</ele>
        <time>2021-07-19T08:50:55Z</time>
      </trkpt>
      <trkpt lat="42.64151" lon="1.69169">
        <ele>2003.921</ele>
        <time>2021-07-19T08:50:57Z</time>
      </trkpt>
      <trkpt lat="42.64152" lon="1.6917">
        <ele>2004.371</ele>
        <time>2021-07-19T08:50:59Z</time>
      </trkpt>
      <trkpt lat="42.64153" lon="1.69171">
        <ele>2004.696</ele>
        <time>2021-07-19T08:51:01Z</time>
      </trkpt>
      <trkpt lat="42.64155" lon="1.69173">
        <ele>2004.558</ele>
        <time>2021-07-19T08:51:03Z</time>
      </trkpt>
      <trkpt lat="42.64156" lon="1.69173">
        <ele>2004.859</ele>
        <time>2021-07-19T08:51:05Z</time>
      </trkpt>
      <trkpt lat="42.64156" lon="1.69173">
        <ele>2005.389</ele>
        <time>2021-07-19T08:51:07Z</time>
      </trkpt>
      <trkpt lat="42.64156" lon="1.69173">
        <ele>2005.388</ele>
        <time>2021-07-19T08:51:09Z</time>
      </trkpt>
      <trkpt lat="42.64156" lon="1.69173">
        <ele>2005.388</ele>
        <time>2021-07-19T08:51:11Z</time>
      </trkpt>
      <trkpt lat="42.64157" lon="1.69174">
        <ele>2005.63</ele>
        <time>2021-07-19T08:51:13Z</time>
      </trkpt>
      <trkpt lat="42.64159" lon="1.69175">
        <ele>2006.012</ele>
        <time>2021-07-19T08:51:15Z</time>
      </trkpt>
      <trkpt lat="42.6416" lon="1.69176">
        <ele>2006.494</ele>
        <time>2021-07-19T08:51:17Z</time>
      </trkpt>
      <trkpt lat="42.64161" lon="1.69177">
        <ele>2006.363</ele>
        <time>2021-07-19T08:51:19Z</time>
      </trkpt>
      <trkpt lat="42.64162" lon="1.69178">
        <ele>2007.398</ele>
        <time>2021-07-19T08:51:21Z</time>
      </trkpt>
      <trkpt lat="42.64163" lon="1.69178">
        <ele>2007.872</ele>
        <time>2021-07-19T08:51:23Z</time>
      </trkpt>
      <trkpt lat="42.64164" lon="1.69179">
        <ele>2007.637</ele>
        <time>2021-07-19T08:51:25Z</time>
      </trkpt>
      <trkpt lat="42.64165" lon="1.69181">
        <ele>2008.174</ele>
        <time>2021-07-19T08:51:27Z</time>
      </trkpt>
      <trkpt lat="42.64166" lon="1.69183">
        <ele>2008.325</ele>
        <time>2021-07-19T08:51:29Z</time>
      </trkpt>
      <trkpt lat="42.64168" lon="1.69184">
        <ele>2008.335</ele>
        <time>2021-07-19T08:51:31Z</time>
      </trkpt>
      <trkpt lat="42.64169" lon="1.69186">
        <ele>2008.575</ele>
        <time>2021-07-19T08:51:33Z</time>
      </trkpt>
      <trkpt lat="42.6417" lon="1.69188">
        <ele>2008.35</ele>
        <time>2021-07-19T08:51:35Z</time>
      </trkpt>
      <trkpt lat="42.64171" lon="1.6919">
        <ele>2008.534</ele>
        <time>2021-07-19T08:51:37Z</time>
      </trkpt>
      <trkpt lat="42.64172" lon="1.69192">
        <ele>2008.537</ele>
        <time>2021-07-19T08:51:39Z</time>
      </trkpt>
      <trkpt lat="42.64174" lon="1.69193">
        <ele>2009.128</ele>
        <time>2021-07-19T08:51:41Z</time>
      </trkpt>
      <trkpt lat="42.64175" lon="1.69195">
        <ele>2009.351</ele>
        <time>2021-07-19T08:51:43Z</time>
      </trkpt>
      <trkpt lat="42.64176" lon="1.69196">
        <ele>2009.758</ele>
        <time>2021-07-19T08:51:45Z</time>
      </trkpt>
      <trkpt lat="42.64177" lon="1.69197">
        <ele>2010.169</ele>
        <time>2021-07-19T08:51:47Z</time>
      </trkpt>
      <trkpt lat="42.64178" lon="1.69198">
        <ele>2010.399</ele>
        <time>2021-07-19T08:51:49Z</time>
      </trkpt>
      <trkpt lat="42.64179" lon="1.69201">
        <ele>2010.862</ele>
        <time>2021-07-19T08:51:51Z</time>
      </trkpt>
      <trkpt lat="42.6418" lon="1.69202">
        <ele>2011.126</ele>
        <time>2021-07-19T08:51:53Z</time>
      </trkpt>
      <trkpt lat="42.64181" lon="1.69202">
        <ele>2011.218</ele>
        <time>2021-07-19T08:51:55Z</time>
      </trkpt>
      <trkpt lat="42.64181" lon="1.69202">
        <ele>2011.215</ele>
        <time>2021-07-19T08:51:57Z</time>
      </trkpt>
      <trkpt lat="42.64181" lon="1.69202">
        <ele>2011.228</ele>
        <time>2021-07-19T08:51:59Z</time>
      </trkpt>
      <trkpt lat="42.64181" lon="1.69202">
        <ele>2011.237</ele>
        <time>2021-07-19T08:52:01Z</time>
      </trkpt>
      <trkpt lat="42.64181" lon="1.69202">
        <ele>2011.238</ele>
        <time>2021-07-19T08:52:03Z</time>
      </trkpt>
      <trkpt lat="42.64181" lon="1.69202">
        <ele>2011.233</ele>
        <time>2021-07-19T08:52:05Z</time>
      </trkpt>
      <trkpt lat="42.64181" lon="1.69202">
        <ele>2011.235</ele>
        <time>2021-07-19T08:52:07Z</time>
      </trkpt>
      <trkpt lat="42.64181" lon="1.69202">
        <ele>2011.242</ele>
        <time>2021-07-19T08:52:09Z</time>
      </trkpt>
      <trkpt lat="42.64181" lon="1.69202">
        <ele>2011.239</ele>
        <time>2021-07-19T08:52:11Z</time>
      </trkpt>
      <trkpt lat="42.64181" lon="1.69202">
        <ele>2011.243</ele>
        <time>2021-07-19T08:52:13Z</time>
      </trkpt>
      <trkpt lat="42.64181" lon="1.69202">
        <ele>2011.244</ele>
        <time>2021-07-19T08:52:15Z</time>
      </trkpt>
      <trkpt lat="42.64181" lon="1.69202">
        <ele>2011.25</ele>
        <time>2021-07-19T08:52:17Z</time>
      </trkpt>
      <trkpt lat="42.64181" lon="1.69202">
        <ele>2011.246</ele>
        <time>2021-07-19T08:52:19Z</time>
      </trkpt>
      <trkpt lat="42.64181" lon="1.69202">
        <ele>2011.253</ele>
        <time>2021-07-19T08:52:21Z</time>
      </trkpt>
      <trkpt lat="42.64181" lon="1.69202">
        <ele>2011.252</ele>
        <time>2021-07-19T08:52:23Z</time>
      </trkpt>
      <trkpt lat="42.64181" lon="1.69202">
        <ele>2011.254</ele>
        <time>2021-07-19T08:52:25Z</time>
      </trkpt>
      <trkpt lat="42.64181" lon="1.69202">
        <ele>2011.257</ele>
        <time>2021-07-19T08:52:27Z</time>
      </trkpt>
      <trkpt lat="42.64181" lon="1.69202">
        <ele>2011.26</ele>
        <time>2021-07-19T08:52:29Z</time>
      </trkpt>
      <trkpt lat="42.64181" lon="1.69202">
        <ele>2011.253</ele>
        <time>2021-07-19T08:52:31Z</time>
      </trkpt>
      <trkpt lat="42.64181" lon="1.69202">
        <ele>2011.249</ele>
        <time>2021-07-19T08:52:33Z</time>
      </trkpt>
      <trkpt lat="42.64181" lon="1.69202">
        <ele>2011.256</ele>
        <time>2021-07-19T08:52:35Z</time>
      </trkpt>
      <trkpt lat="42.64181" lon="1.69202">
        <ele>2011.257</ele>
        <time>2021-07-19T08:52:37Z</time>
      </trkpt>
      <trkpt lat="42.64181" lon="1.69202">
        <ele>2011.254</ele>
        <time>2021-07-19T08:52:39Z</time>
      </trkpt>
      <trkpt lat="42.64181" lon="1.69202">
        <ele>2011.251</ele>
        <time>2021-07-19T08:52:41Z</time>
      </trkpt>
      <trkpt lat="42.64181" lon="1.69202">
        <ele>2011.247</ele>
        <time>2021-07-19T08:52:43Z</time>
      </trkpt>
      <trkpt lat="42.64181" lon="1.69202">
        <ele>2011.254</ele>
        <time>2021-07-19T08:52:45Z</time>
      </trkpt>
      <trkpt lat="42.64181" lon="1.69202">
        <ele>2011.253</ele>
        <time>2021-07-19T08:52:47Z</time>
      </trkpt>
      <trkpt lat="42.64181" lon="1.69202">
        <ele>2011.259</ele>
        <time>2021-07-19T08:52:49Z</time>
      </trkpt>
      <trkpt lat="42.64181" lon="1.69202">
        <ele>2011.262</ele>
        <time>2021-07-19T08:52:51Z</time>
      </trkpt>
      <trkpt lat="42.64181" lon="1.69202">
        <ele>2011.259</ele>
        <time>2021-07-19T08:52:53Z</time>
      </trkpt>
      <trkpt lat="42.64181" lon="1.69202">
        <ele>2011.263</ele>
        <time>2021-07-19T08:52:55Z</time>
      </trkpt>
      <trkpt lat="42.64181" lon="1.69202">
        <ele>2011.255</ele>
        <time>2021-07-19T08:52:57Z</time>
      </trkpt>
      <trkpt lat="42.64181" lon="1.69202">
        <ele>2011.259</ele>
        <time>2021-07-19T08:52:59Z</time>
      </trkpt>
      <trkpt lat="42.64181" lon="1.69202">
        <ele>2011.257</ele>
        <time>2021-07-19T08:53:01Z</time>
      </trkpt>
      <trkpt lat="42.64181" lon="1.69202">
        <ele>2011.264</ele>
        <time>2021-07-19T08:53:03Z</time>
      </trkpt>
      <trkpt lat="42.64181" lon="1.69202">
        <ele>2011.267</ele>
        <time>2021-07-19T08:53:05Z</time>
      </trkpt>
      <trkpt lat="42.64181" lon="1.69202">
        <ele>2011.086</ele>
        <time>2021-07-19T08:53:07Z</time>
      </trkpt>
      <trkpt lat="42.64181" lon="1.69203">
        <ele>2011.286</ele>
        <time>2021-07-19T08:53:09Z</time>
      </trkpt>
      <trkpt lat="42.64181" lon="1.69203">
        <ele>2011.287</ele>
        <time>2021-07-19T08:53:11Z</time>
      </trkpt>
      <trkpt lat="42.64181" lon="1.69203">
        <ele>2010.993</ele>
        <time>2021-07-19T08:53:13Z</time>
      </trkpt>
      <trkpt lat="42.64181" lon="1.69203">
        <ele>2010.776</ele>
        <time>2021-07-19T08:53:15Z</time>
      </trkpt>
      <trkpt lat="42.64181" lon="1.69203">
        <ele>2010.784</ele>
        <time>2021-07-19T08:53:17Z</time>
      </trkpt>
      <trkpt lat="42.64181" lon="1.69203">
        <ele>2010.787</ele>
        <time>2021-07-19T08:53:19Z</time>
      </trkpt>
      <trkpt lat="42.64181" lon="1.69203">
        <ele>2010.78</ele>
        <time>2021-07-19T08:53:21Z</time>
      </trkpt>
      <trkpt lat="42.64181" lon="1.69203">
        <ele>2010.786</ele>
        <time>2021-07-19T08:53:23Z</time>
      </trkpt>
      <trkpt lat="42.64181" lon="1.69203">
        <ele>2010.79</ele>
        <time>2021-07-19T08:53:25Z</time>
      </trkpt>
      <trkpt lat="42.64181" lon="1.69203">
        <ele>2010.791</ele>
        <time>2021-07-19T08:53:27Z</time>
      </trkpt>
      <trkpt lat="42.64181" lon="1.69203">
        <ele>2010.787</ele>
        <time>2021-07-19T08:53:29Z</time>
      </trkpt>
      <trkpt lat="42.64181" lon="1.69203">
        <ele>2010.786</ele>
        <time>2021-07-19T08:53:31Z</time>
      </trkpt>
      <trkpt lat="42.64181" lon="1.69203">
        <ele>2010.791</ele>
        <time>2021-07-19T08:53:33Z</time>
      </trkpt>
      <trkpt lat="42.64181" lon="1.69203">
        <ele>2010.788</ele>
        <time>2021-07-19T08:53:35Z</time>
      </trkpt>
      <trkpt lat="42.64181" lon="1.69203">
        <ele>2010.793</ele>
        <time>2021-07-19T08:53:37Z</time>
      </trkpt>
      <trkpt lat="42.64181" lon="1.69203">
        <ele>2010.789</ele>
        <time>2021-07-19T08:53:39Z</time>
      </trkpt>
      <trkpt lat="42.64181" lon="1.69203">
        <ele>2010.785</ele>
        <time>2021-07-19T08:53:41Z</time>
      </trkpt>
      <trkpt lat="42.64181" lon="1.69203">
        <ele>2010.785</ele>
        <time>2021-07-19T08:53:43Z</time>
      </trkpt>
      <trkpt lat="42.64181" lon="1.69203">
        <ele>2010.784</ele>
        <time>2021-07-19T08:53:45Z</time>
      </trkpt>
      <trkpt lat="42.64181" lon="1.69203">
        <ele>2010.78</ele>
        <time>2021-07-19T08:53:47Z</time>
      </trkpt>
      <trkpt lat="42.64181" lon="1.69203">
        <ele>2010.783</ele>
        <time>2021-07-19T08:53:49Z</time>
      </trkpt>
      <trkpt lat="42.64181" lon="1.69203">
        <ele>2010.782</ele>
        <time>2021-07-19T08:53:51Z</time>
      </trkpt>
      <trkpt lat="42.64181" lon="1.69203">
        <ele>2010.79</ele>
        <time>2021-07-19T08:53:53Z</time>
      </trkpt>
      <trkpt lat="42.64181" lon="1.69203">
        <ele>2010.789</ele>
        <time>2021-07-19T08:53:55Z</time>
      </trkpt>
      <trkpt lat="42.64181" lon="1.69203">
        <ele>2010.786</ele>
        <time>2021-07-19T08:53:57Z</time>
      </trkpt>
      <trkpt lat="42.64181" lon="1.69203">
        <ele>2010.794</ele>
        <time>2021-07-19T08:53:59Z</time>
      </trkpt>
      <trkpt lat="42.64181" lon="1.69203">
        <ele>2010.797</ele>
        <time>2021-07-19T08:54:01Z</time>
      </trkpt>
      <trkpt lat="42.64181" lon="1.69203">
        <ele>2010.796</ele>
        <time>2021-07-19T08:54:03Z</time>
      </trkpt>
      <trkpt lat="42.64181" lon="1.69203">
        <ele>2010.794</ele>
        <time>2021-07-19T08:54:05Z</time>
      </trkpt>
      <trkpt lat="42.64181" lon="1.69203">
        <ele>2010.791</ele>
        <time>2021-07-19T08:54:07Z</time>
      </trkpt>
      <trkpt lat="42.64181" lon="1.69203">
        <ele>2010.786</ele>
        <time>2021-07-19T08:54:09Z</time>
      </trkpt>
      <trkpt lat="42.64181" lon="1.69203">
        <ele>2010.785</ele>
        <time>2021-07-19T08:54:11Z</time>
      </trkpt>
      <trkpt lat="42.64181" lon="1.69203">
        <ele>2010.788</ele>
        <time>2021-07-19T08:54:13Z</time>
      </trkpt>
      <trkpt lat="42.64181" lon="1.69203">
        <ele>2010.788</ele>
        <time>2021-07-19T08:54:15Z</time>
      </trkpt>
      <trkpt lat="42.64181" lon="1.69203">
        <ele>2010.784</ele>
        <time>2021-07-19T08:54:17Z</time>
      </trkpt>
      <trkpt lat="42.64181" lon="1.69203">
        <ele>2010.784</ele>
        <time>2021-07-19T08:54:19Z</time>
      </trkpt>
      <trkpt lat="42.64181" lon="1.69203">
        <ele>2010.776</ele>
        <time>2021-07-19T08:54:21Z</time>
      </trkpt>
      <trkpt lat="42.64181" lon="1.69202">
        <ele>2010.768</ele>
        <time>2021-07-19T08:54:23Z</time>
      </trkpt>
      <trkpt lat="42.64181" lon="1.69202">
        <ele>2010.77</ele>
        <time>2021-07-19T08:54:25Z</time>
      </trkpt>
      <trkpt lat="42.64181" lon="1.69202">
        <ele>2010.769</ele>
        <time>2021-07-19T08:54:27Z</time>
      </trkpt>
      <trkpt lat="42.64181" lon="1.69202">
        <ele>2010.765</ele>
        <time>2021-07-19T08:54:29Z</time>
      </trkpt>
      <trkpt lat="42.64181" lon="1.69202">
        <ele>2010.771</ele>
        <time>2021-07-19T08:54:31Z</time>
      </trkpt>
      <trkpt lat="42.64181" lon="1.69202">
        <ele>2010.775</ele>
        <time>2021-07-19T08:54:33Z</time>
      </trkpt>
      <trkpt lat="42.64181" lon="1.69202">
        <ele>2010.773</ele>
        <time>2021-07-19T08:54:35Z</time>
      </trkpt>
      <trkpt lat="42.64181" lon="1.69203">
        <ele>2010.776</ele>
        <time>2021-07-19T08:54:37Z</time>
      </trkpt>
      <trkpt lat="42.64181" lon="1.69203">
        <ele>2010.781</ele>
        <time>2021-07-19T08:54:39Z</time>
      </trkpt>
      <trkpt lat="42.64181" lon="1.69202">
        <ele>2010.377</ele>
        <time>2021-07-19T08:54:41Z</time>
      </trkpt>
      <trkpt lat="42.64181" lon="1.69202">
        <ele>2010.371</ele>
        <time>2021-07-19T08:54:43Z</time>
      </trkpt>
      <trkpt lat="42.64182" lon="1.69203">
        <ele>2010.171</ele>
        <time>2021-07-19T08:54:45Z</time>
      </trkpt>
      <trkpt lat="42.64182" lon="1.69203">
        <ele>2010.176</ele>
        <time>2021-07-19T08:54:47Z</time>
      </trkpt>
      <trkpt lat="42.64182" lon="1.69203">
        <ele>2010.177</ele>
        <time>2021-07-19T08:54:49Z</time>
      </trkpt>
      <trkpt lat="42.64182" lon="1.69203">
        <ele>2010.105</ele>
        <time>2021-07-19T08:54:51Z</time>
      </trkpt>
      <trkpt lat="42.64183" lon="1.69204">
        <ele>2010.1</ele>
        <time>2021-07-19T08:54:53Z</time>
      </trkpt>
      <trkpt lat="42.64184" lon="1.69205">
        <ele>2010.187</ele>
        <time>2021-07-19T08:54:55Z</time>
      </trkpt>
      <trkpt lat="42.64185" lon="1.69206">
        <ele>2010.35</ele>
        <time>2021-07-19T08:54:57Z</time>
      </trkpt>
      <trkpt lat="42.64186" lon="1.69206">
        <ele>2010.607</ele>
        <time>2021-07-19T08:54:59Z</time>
      </trkpt>
      <trkpt lat="42.64186" lon="1.69207">
        <ele>2010.637</ele>
        <time>2021-07-19T08:55:01Z</time>
      </trkpt>
      <trkpt lat="42.64187" lon="1.69208">
        <ele>2011.378</ele>
        <time>2021-07-19T08:55:03Z</time>
      </trkpt>
      <trkpt lat="42.64188" lon="1.69209">
        <ele>2011.645</ele>
        <time>2021-07-19T08:55:05Z</time>
      </trkpt>
      <trkpt lat="42.64189" lon="1.6921">
        <ele>2011.82</ele>
        <time>2021-07-19T08:55:07Z</time>
      </trkpt>
      <trkpt lat="42.6419" lon="1.69211">
        <ele>2012.527</ele>
        <time>2021-07-19T08:55:09Z</time>
      </trkpt>
      <trkpt lat="42.64191" lon="1.69211">
        <ele>2012.73</ele>
        <time>2021-07-19T08:55:11Z</time>
      </trkpt>
      <trkpt lat="42.64192" lon="1.69212">
        <ele>2012.775</ele>
        <time>2021-07-19T08:55:13Z</time>
      </trkpt>
      <trkpt lat="42.64193" lon="1.69213">
        <ele>2013.064</ele>
        <time>2021-07-19T08:55:15Z</time>
      </trkpt>
      <trkpt lat="42.64194" lon="1.69213">
        <ele>2013.523</ele>
        <time>2021-07-19T08:55:17Z</time>
      </trkpt>
      <trkpt lat="42.64195" lon="1.69214">
        <ele>2014.026</ele>
        <time>2021-07-19T08:55:19Z</time>
      </trkpt>
      <trkpt lat="42.64196" lon="1.69215">
        <ele>2013.957</ele>
        <time>2021-07-19T08:55:21Z</time>
      </trkpt>
      <trkpt lat="42.64197" lon="1.69216">
        <ele>2014.445</ele>
        <time>2021-07-19T08:55:23Z</time>
      </trkpt>
      <trkpt lat="42.64198" lon="1.69217">
        <ele>2014.61</ele>
        <time>2021-07-19T08:55:25Z</time>
      </trkpt>
      <trkpt lat="42.64199" lon="1.69218">
        <ele>2014.287</ele>
        <time>2021-07-19T08:55:27Z</time>
      </trkpt>
      <trkpt lat="42.642" lon="1.69219">
        <ele>2014.459</ele>
        <time>2021-07-19T08:55:29Z</time>
      </trkpt>
      <trkpt lat="42.64201" lon="1.6922">
        <ele>2014.319</ele>
        <time>2021-07-19T08:55:31Z</time>
      </trkpt>
      <trkpt lat="42.64202" lon="1.69222">
        <ele>2014.507</ele>
        <time>2021-07-19T08:55:33Z</time>
      </trkpt>
      <trkpt lat="42.64203" lon="1.69223">
        <ele>2014.812</ele>
        <time>2021-07-19T08:55:35Z</time>
      </trkpt>
      <trkpt lat="42.64204" lon="1.69224">
        <ele>2015.216</ele>
        <time>2021-07-19T08:55:37Z</time>
      </trkpt>
      <trkpt lat="42.64205" lon="1.69224">
        <ele>2015.922</ele>
        <time>2021-07-19T08:55:39Z</time>
      </trkpt>
      <trkpt lat="42.64206" lon="1.69225">
        <ele>2015.903</ele>
        <time>2021-07-19T08:55:41Z</time>
      </trkpt>
      <trkpt lat="42.64207" lon="1.69226">
        <ele>2015.968</ele>
        <time>2021-07-19T08:55:43Z</time>
      </trkpt>
      <trkpt lat="42.64208" lon="1.69227">
        <ele>2016.2</ele>
        <time>2021-07-19T08:55:45Z</time>
      </trkpt>
      <trkpt lat="42.6421" lon="1.69228">
        <ele>2016.51</ele>
        <time>2021-07-19T08:55:47Z</time>
      </trkpt>
      <trkpt lat="42.64211" lon="1.69229">
        <ele>2016.951</ele>
        <time>2021-07-19T08:55:49Z</time>
      </trkpt>
      <trkpt lat="42.64212" lon="1.6923">
        <ele>2017.489</ele>
        <time>2021-07-19T08:55:51Z</time>
      </trkpt>
      <trkpt lat="42.64212" lon="1.69231">
        <ele>2018.097</ele>
        <time>2021-07-19T08:55:53Z</time>
      </trkpt>
      <trkpt lat="42.64213" lon="1.69232">
        <ele>2018.621</ele>
        <time>2021-07-19T08:55:55Z</time>
      </trkpt>
      <trkpt lat="42.64214" lon="1.69233">
        <ele>2018.457</ele>
        <time>2021-07-19T08:55:57Z</time>
      </trkpt>
      <trkpt lat="42.64215" lon="1.69234">
        <ele>2018.582</ele>
        <time>2021-07-19T08:55:59Z</time>
      </trkpt>
      <trkpt lat="42.64216" lon="1.69234">
        <ele>2019.066</ele>
        <time>2021-07-19T08:56:01Z</time>
      </trkpt>
      <trkpt lat="42.64217" lon="1.69235">
        <ele>2019.183</ele>
        <time>2021-07-19T08:56:03Z</time>
      </trkpt>
      <trkpt lat="42.64218" lon="1.69237">
        <ele>2019.709</ele>
        <time>2021-07-19T08:56:05Z</time>
      </trkpt>
      <trkpt lat="42.64218" lon="1.69237">
        <ele>2019.794</ele>
        <time>2021-07-19T08:56:07Z</time>
      </trkpt>
      <trkpt lat="42.64219" lon="1.69238">
        <ele>2020.235</ele>
        <time>2021-07-19T08:56:09Z</time>
      </trkpt>
      <trkpt lat="42.64219" lon="1.69239">
        <ele>2020.499</ele>
        <time>2021-07-19T08:56:11Z</time>
      </trkpt>
      <trkpt lat="42.6422" lon="1.69241">
        <ele>2020.711</ele>
        <time>2021-07-19T08:56:13Z</time>
      </trkpt>
      <trkpt lat="42.64221" lon="1.69242">
        <ele>2021.51</ele>
        <time>2021-07-19T08:56:15Z</time>
      </trkpt>
      <trkpt lat="42.64222" lon="1.69243">
        <ele>2022.576</ele>
        <time>2021-07-19T08:56:17Z</time>
      </trkpt>
      <trkpt lat="42.64223" lon="1.69244">
        <ele>2023.908</ele>
        <time>2021-07-19T08:56:19Z</time>
      </trkpt>
      <trkpt lat="42.64224" lon="1.69244">
        <ele>2024</ele>
        <time>2021-07-19T08:56:21Z</time>
      </trkpt>
      <trkpt lat="42.64225" lon="1.69243">
        <ele>2024.167</ele>
        <time>2021-07-19T08:56:23Z</time>
      </trkpt>
      <trkpt lat="42.64226" lon="1.69243">
        <ele>2023.997</ele>
        <time>2021-07-19T08:56:25Z</time>
      </trkpt>
      <trkpt lat="42.64226" lon="1.69244">
        <ele>2024.606</ele>
        <time>2021-07-19T08:56:27Z</time>
      </trkpt>
      <trkpt lat="42.64227" lon="1.69246">
        <ele>2024.714</ele>
        <time>2021-07-19T08:56:29Z</time>
      </trkpt>
      <trkpt lat="42.64227" lon="1.69247">
        <ele>2024.716</ele>
        <time>2021-07-19T08:56:31Z</time>
      </trkpt>
      <trkpt lat="42.64228" lon="1.69247">
        <ele>2025.084</ele>
        <time>2021-07-19T08:56:33Z</time>
      </trkpt>
      <trkpt lat="42.64229" lon="1.69247">
        <ele>2025.322</ele>
        <time>2021-07-19T08:56:35Z</time>
      </trkpt>
      <trkpt lat="42.6423" lon="1.69247">
        <ele>2025.837</ele>
        <time>2021-07-19T08:56:37Z</time>
      </trkpt>
      <trkpt lat="42.6423" lon="1.69249">
        <ele>2026.466</ele>
        <time>2021-07-19T08:56:39Z</time>
      </trkpt>
      <trkpt lat="42.64231" lon="1.69249">
        <ele>2026.538</ele>
        <time>2021-07-19T08:56:41Z</time>
      </trkpt>
      <trkpt lat="42.64232" lon="1.6925">
        <ele>2026.723</ele>
        <time>2021-07-19T08:56:43Z</time>
      </trkpt>
      <trkpt lat="42.64232" lon="1.6925">
        <ele>2026.927</ele>
        <time>2021-07-19T08:56:45Z</time>
      </trkpt>
      <trkpt lat="42.64233" lon="1.69251">
        <ele>2027.125</ele>
        <time>2021-07-19T08:56:47Z</time>
      </trkpt>
      <trkpt lat="42.64234" lon="1.69251">
        <ele>2027.461</ele>
        <time>2021-07-19T08:56:49Z</time>
      </trkpt>
      <trkpt lat="42.64235" lon="1.69252">
        <ele>2027.621</ele>
        <time>2021-07-19T08:56:51Z</time>
      </trkpt>
      <trkpt lat="42.64236" lon="1.69252">
        <ele>2027.662</ele>
        <time>2021-07-19T08:56:53Z</time>
      </trkpt>
      <trkpt lat="42.64237" lon="1.69252">
        <ele>2028.135</ele>
        <time>2021-07-19T08:56:55Z</time>
      </trkpt>
      <trkpt lat="42.64237" lon="1.69253">
        <ele>2028.42</ele>
        <time>2021-07-19T08:56:57Z</time>
      </trkpt>
      <trkpt lat="42.64238" lon="1.69253">
        <ele>2028.559</ele>
        <time>2021-07-19T08:56:59Z</time>
      </trkpt>
      <trkpt lat="42.64239" lon="1.69254">
        <ele>2029.384</ele>
        <time>2021-07-19T08:57:01Z</time>
      </trkpt>
      <trkpt lat="42.64239" lon="1.69255">
        <ele>2029.863</ele>
        <time>2021-07-19T08:57:03Z</time>
      </trkpt>
      <trkpt lat="42.6424" lon="1.69255">
        <ele>2030.004</ele>
        <time>2021-07-19T08:57:05Z</time>
      </trkpt>
      <trkpt lat="42.64241" lon="1.69256">
        <ele>2030.736</ele>
        <time>2021-07-19T08:57:07Z</time>
      </trkpt>
      <trkpt lat="42.64242" lon="1.69256">
        <ele>2031.138</ele>
        <time>2021-07-19T08:57:09Z</time>
      </trkpt>
      <trkpt lat="42.64242" lon="1.69257">
        <ele>2031.349</ele>
        <time>2021-07-19T08:57:11Z</time>
      </trkpt>
      <trkpt lat="42.64242" lon="1.69258">
        <ele>2031.556</ele>
        <time>2021-07-19T08:57:13Z</time>
      </trkpt>
      <trkpt lat="42.64243" lon="1.69259">
        <ele>2031.244</ele>
        <time>2021-07-19T08:57:15Z</time>
      </trkpt>
      <trkpt lat="42.64243" lon="1.6926">
        <ele>2031.118</ele>
        <time>2021-07-19T08:57:17Z</time>
      </trkpt>
      <trkpt lat="42.64244" lon="1.69261">
        <ele>2031.524</ele>
        <time>2021-07-19T08:57:19Z</time>
      </trkpt>
      <trkpt lat="42.64246" lon="1.69262">
        <ele>2032.263</ele>
        <time>2021-07-19T08:57:21Z</time>
      </trkpt>
      <trkpt lat="42.64247" lon="1.69262">
        <ele>2032.647</ele>
        <time>2021-07-19T08:57:23Z</time>
      </trkpt>
      <trkpt lat="42.64247" lon="1.69262">
        <ele>2032.849</ele>
        <time>2021-07-19T08:57:25Z</time>
      </trkpt>
      <trkpt lat="42.64247" lon="1.69262">
        <ele>2032.425</ele>
        <time>2021-07-19T08:57:27Z</time>
      </trkpt>
      <trkpt lat="42.64248" lon="1.69262">
        <ele>2032.338</ele>
        <time>2021-07-19T08:57:29Z</time>
      </trkpt>
      <trkpt lat="42.64248" lon="1.69262">
        <ele>2033.647</ele>
        <time>2021-07-19T08:57:31Z</time>
      </trkpt>
      <trkpt lat="42.64249" lon="1.69262">
        <ele>2034.397</ele>
        <time>2021-07-19T08:57:33Z</time>
      </trkpt>
      <trkpt lat="42.6425" lon="1.69262">
        <ele>2034.617</ele>
        <time>2021-07-19T08:57:35Z</time>
      </trkpt>
      <trkpt lat="42.64251" lon="1.69261">
        <ele>2034.516</ele>
        <time>2021-07-19T08:57:37Z</time>
      </trkpt>
      <trkpt lat="42.64251" lon="1.69261">
        <ele>2034.516</ele>
        <time>2021-07-19T08:57:39Z</time>
      </trkpt>
      <trkpt lat="42.64251" lon="1.69262">
        <ele>2034.488</ele>
        <time>2021-07-19T08:57:41Z</time>
      </trkpt>
      <trkpt lat="42.64252" lon="1.69262">
        <ele>2034.421</ele>
        <time>2021-07-19T08:57:43Z</time>
      </trkpt>
      <trkpt lat="42.64253" lon="1.69264">
        <ele>2034.392</ele>
        <time>2021-07-19T08:57:45Z</time>
      </trkpt>
      <trkpt lat="42.64253" lon="1.69265">
        <ele>2034.768</ele>
        <time>2021-07-19T08:57:47Z</time>
      </trkpt>
      <trkpt lat="42.64254" lon="1.69265">
        <ele>2035.102</ele>
        <time>2021-07-19T08:57:49Z</time>
      </trkpt>
      <trkpt lat="42.64254" lon="1.69266">
        <ele>2035.58</ele>
        <time>2021-07-19T08:57:51Z</time>
      </trkpt>
      <trkpt lat="42.64255" lon="1.69268">
        <ele>2035.846</ele>
        <time>2021-07-19T08:57:53Z</time>
      </trkpt>
      <trkpt lat="42.64256" lon="1.69269">
        <ele>2035.573</ele>
        <time>2021-07-19T08:57:55Z</time>
      </trkpt>
      <trkpt lat="42.64256" lon="1.6927">
        <ele>2036.265</ele>
        <time>2021-07-19T08:57:57Z</time>
      </trkpt>
      <trkpt lat="42.64256" lon="1.6927">
        <ele>2036.079</ele>
        <time>2021-07-19T08:57:59Z</time>
      </trkpt>
      <trkpt lat="42.64256" lon="1.6927">
        <ele>2036.076</ele>
        <time>2021-07-19T08:58:01Z</time>
      </trkpt>
      <trkpt lat="42.64258" lon="1.6927">
        <ele>2035.861</ele>
        <time>2021-07-19T08:58:03Z</time>
      </trkpt>
      <trkpt lat="42.64259" lon="1.69271">
        <ele>2036.603</ele>
        <time>2021-07-19T08:58:05Z</time>
      </trkpt>
      <trkpt lat="42.6426" lon="1.69272">
        <ele>2036.18</ele>
        <time>2021-07-19T08:58:07Z</time>
      </trkpt>
      <trkpt lat="42.64261" lon="1.69274">
        <ele>2037.544</ele>
        <time>2021-07-19T08:58:09Z</time>
      </trkpt>
      <trkpt lat="42.64262" lon="1.69276">
        <ele>2037.645</ele>
        <time>2021-07-19T08:58:11Z</time>
      </trkpt>
      <trkpt lat="42.64263" lon="1.69277">
        <ele>2037.107</ele>
        <time>2021-07-19T08:58:13Z</time>
      </trkpt>
      <trkpt lat="42.64264" lon="1.69278">
        <ele>2037.767</ele>
        <time>2021-07-19T08:58:15Z</time>
      </trkpt>
      <trkpt lat="42.64264" lon="1.69279">
        <ele>2037.995</ele>
        <time>2021-07-19T08:58:17Z</time>
      </trkpt>
      <trkpt lat="42.64264" lon="1.69279">
        <ele>2038.007</ele>
        <time>2021-07-19T08:58:19Z</time>
      </trkpt>
      <trkpt lat="42.64265" lon="1.6928">
        <ele>2038.273</ele>
        <time>2021-07-19T08:58:21Z</time>
      </trkpt>
      <trkpt lat="42.64265" lon="1.69281">
        <ele>2039.056</ele>
        <time>2021-07-19T08:58:23Z</time>
      </trkpt>
      <trkpt lat="42.64267" lon="1.69283">
        <ele>2039.512</ele>
        <time>2021-07-19T08:58:25Z</time>
      </trkpt>
      <trkpt lat="42.64268" lon="1.69285">
        <ele>2039.809</ele>
        <time>2021-07-19T08:58:27Z</time>
      </trkpt>
      <trkpt lat="42.64269" lon="1.69286">
        <ele>2040.415</ele>
        <time>2021-07-19T08:58:29Z</time>
      </trkpt>
      <trkpt lat="42.6427" lon="1.69288">
        <ele>2040.913</ele>
        <time>2021-07-19T08:58:31Z</time>
      </trkpt>
      <trkpt lat="42.6427" lon="1.69288">
        <ele>2041.311</ele>
        <time>2021-07-19T08:58:33Z</time>
      </trkpt>
      <trkpt lat="42.6427" lon="1.69288">
        <ele>2041.312</ele>
        <time>2021-07-19T08:58:35Z</time>
      </trkpt>
      <trkpt lat="42.6427" lon="1.69288">
        <ele>2041.315</ele>
        <time>2021-07-19T08:58:37Z</time>
      </trkpt>
      <trkpt lat="42.6427" lon="1.69288">
        <ele>2041.318</ele>
        <time>2021-07-19T08:58:39Z</time>
      </trkpt>
      <trkpt lat="42.6427" lon="1.69288">
        <ele>2041.326</ele>
        <time>2021-07-19T08:58:41Z</time>
      </trkpt>
      <trkpt lat="42.64271" lon="1.6929">
        <ele>2041.377</ele>
        <time>2021-07-19T08:58:43Z</time>
      </trkpt>
      <trkpt lat="42.64272" lon="1.69291">
        <ele>2041.492</ele>
        <time>2021-07-19T08:58:45Z</time>
      </trkpt>
      <trkpt lat="42.64273" lon="1.69293">
        <ele>2041.718</ele>
        <time>2021-07-19T08:58:47Z</time>
      </trkpt>
      <trkpt lat="42.64273" lon="1.69296">
        <ele>2041.631</ele>
        <time>2021-07-19T08:58:49Z</time>
      </trkpt>
      <trkpt lat="42.64274" lon="1.69297">
        <ele>2041.929</ele>
        <time>2021-07-19T08:58:51Z</time>
      </trkpt>
      <trkpt lat="42.64276" lon="1.69298">
        <ele>2042.001</ele>
        <time>2021-07-19T08:58:53Z</time>
      </trkpt>
      <trkpt lat="42.64276" lon="1.69297">
        <ele>2042.063</ele>
        <time>2021-07-19T08:58:55Z</time>
      </trkpt>
      <trkpt lat="42.64276" lon="1.69297">
        <ele>2042.067</ele>
        <time>2021-07-19T08:58:57Z</time>
      </trkpt>
      <trkpt lat="42.64276" lon="1.69297">
        <ele>2042.073</ele>
        <time>2021-07-19T08:58:59Z</time>
      </trkpt>
      <trkpt lat="42.64276" lon="1.69297">
        <ele>2042.08</ele>
        <time>2021-07-19T08:59:01Z</time>
      </trkpt>
      <trkpt lat="42.64276" lon="1.69297">
        <ele>2042.086</ele>
        <time>2021-07-19T08:59:03Z</time>
      </trkpt>
      <trkpt lat="42.64276" lon="1.69297">
        <ele>2042.096</ele>
        <time>2021-07-19T08:59:05Z</time>
      </trkpt>
      <trkpt lat="42.64276" lon="1.69297">
        <ele>2042.105</ele>
        <time>2021-07-19T08:59:07Z</time>
      </trkpt>
      <trkpt lat="42.64276" lon="1.69298">
        <ele>2042.686</ele>
        <time>2021-07-19T08:59:09Z</time>
      </trkpt>
      <trkpt lat="42.64276" lon="1.69298">
        <ele>2042.709</ele>
        <time>2021-07-19T08:59:11Z</time>
      </trkpt>
      <trkpt lat="42.64276" lon="1.69298">
        <ele>2042.724</ele>
        <time>2021-07-19T08:59:13Z</time>
      </trkpt>
      <trkpt lat="42.64276" lon="1.69298">
        <ele>2042.733</ele>
        <time>2021-07-19T08:59:15Z</time>
      </trkpt>
      <trkpt lat="42.64276" lon="1.69298">
        <ele>2042.745</ele>
        <time>2021-07-19T08:59:17Z</time>
      </trkpt>
      <trkpt lat="42.64276" lon="1.69298">
        <ele>2042.746</ele>
        <time>2021-07-19T08:59:19Z</time>
      </trkpt>
      <trkpt lat="42.64276" lon="1.69298">
        <ele>2042.752</ele>
        <time>2021-07-19T08:59:21Z</time>
      </trkpt>
      <trkpt lat="42.64276" lon="1.69298">
        <ele>2042.766</ele>
        <time>2021-07-19T08:59:23Z</time>
      </trkpt>
      <trkpt lat="42.64276" lon="1.69298">
        <ele>2042.783</ele>
        <time>2021-07-19T08:59:25Z</time>
      </trkpt>
      <trkpt lat="42.64276" lon="1.69298">
        <ele>2042.799</ele>
        <time>2021-07-19T08:59:27Z</time>
      </trkpt>
      <trkpt lat="42.64276" lon="1.69298">
        <ele>2042.814</ele>
        <time>2021-07-19T08:59:29Z</time>
      </trkpt>
      <trkpt lat="42.64276" lon="1.69298">
        <ele>2042.82</ele>
        <time>2021-07-19T08:59:31Z</time>
      </trkpt>
      <trkpt lat="42.64276" lon="1.69298">
        <ele>2042.829</ele>
        <time>2021-07-19T08:59:33Z</time>
      </trkpt>
      <trkpt lat="42.64276" lon="1.69298">
        <ele>2042.835</ele>
        <time>2021-07-19T08:59:35Z</time>
      </trkpt>
      <trkpt lat="42.64276" lon="1.69298">
        <ele>2042.843</ele>
        <time>2021-07-19T08:59:37Z</time>
      </trkpt>
      <trkpt lat="42.64276" lon="1.69298">
        <ele>2042.851</ele>
        <time>2021-07-19T08:59:39Z</time>
      </trkpt>
      <trkpt lat="42.64276" lon="1.69298">
        <ele>2042.854</ele>
        <time>2021-07-19T08:59:41Z</time>
      </trkpt>
      <trkpt lat="42.64276" lon="1.69298">
        <ele>2042.858</ele>
        <time>2021-07-19T08:59:43Z</time>
      </trkpt>
      <trkpt lat="42.64276" lon="1.69298">
        <ele>2042.868</ele>
        <time>2021-07-19T08:59:45Z</time>
      </trkpt>
      <trkpt lat="42.64276" lon="1.69298">
        <ele>2042.867</ele>
        <time>2021-07-19T08:59:47Z</time>
      </trkpt>
      <trkpt lat="42.64276" lon="1.69298">
        <ele>2042.884</ele>
        <time>2021-07-19T08:59:49Z</time>
      </trkpt>
      <trkpt lat="42.64276" lon="1.69298">
        <ele>2042.696</ele>
        <time>2021-07-19T08:59:51Z</time>
      </trkpt>
      <trkpt lat="42.64276" lon="1.69298">
        <ele>2042.681</ele>
        <time>2021-07-19T08:59:53Z</time>
      </trkpt>
      <trkpt lat="42.64276" lon="1.69298">
        <ele>2042.675</ele>
        <time>2021-07-19T08:59:55Z</time>
      </trkpt>
      <trkpt lat="42.64276" lon="1.69298">
        <ele>2042.673</ele>
        <time>2021-07-19T08:59:57Z</time>
      </trkpt>
      <trkpt lat="42.64276" lon="1.69299">
        <ele>2043.044</ele>
        <time>2021-07-19T08:59:59Z</time>
      </trkpt>
      <trkpt lat="42.64277" lon="1.693">
        <ele>2043.804</ele>
        <time>2021-07-19T09:00:01Z</time>
      </trkpt>
      <trkpt lat="42.64278" lon="1.693">
        <ele>2043.372</ele>
        <time>2021-07-19T09:00:03Z</time>
      </trkpt>
      <trkpt lat="42.64279" lon="1.69302">
        <ele>2042.798</ele>
        <time>2021-07-19T09:00:05Z</time>
      </trkpt>
      <trkpt lat="42.6428" lon="1.69304">
        <ele>2042.957</ele>
        <time>2021-07-19T09:00:07Z</time>
      </trkpt>
      <trkpt lat="42.64281" lon="1.69306">
        <ele>2043.005</ele>
        <time>2021-07-19T09:00:09Z</time>
      </trkpt>
      <trkpt lat="42.64282" lon="1.69308">
        <ele>2043.476</ele>
        <time>2021-07-19T09:00:11Z</time>
      </trkpt>
      <trkpt lat="42.64282" lon="1.69308">
        <ele>2043.378</ele>
        <time>2021-07-19T09:00:13Z</time>
      </trkpt>
      <trkpt lat="42.64282" lon="1.69308">
        <ele>2043.378</ele>
        <time>2021-07-19T09:00:15Z</time>
      </trkpt>
      <trkpt lat="42.64282" lon="1.69308">
        <ele>2043.377</ele>
        <time>2021-07-19T09:00:17Z</time>
      </trkpt>
      <trkpt lat="42.64282" lon="1.69308">
        <ele>2043.367</ele>
        <time>2021-07-19T09:00:19Z</time>
      </trkpt>
      <trkpt lat="42.64282" lon="1.69308">
        <ele>2042.959</ele>
        <time>2021-07-19T09:00:21Z</time>
      </trkpt>
      <trkpt lat="42.64282" lon="1.69308">
        <ele>2042.966</ele>
        <time>2021-07-19T09:00:23Z</time>
      </trkpt>
      <trkpt lat="42.64282" lon="1.69308">
        <ele>2042.968</ele>
        <time>2021-07-19T09:00:25Z</time>
      </trkpt>
      <trkpt lat="42.64282" lon="1.69308">
        <ele>2042.967</ele>
        <time>2021-07-19T09:00:27Z</time>
      </trkpt>
      <trkpt lat="42.64282" lon="1.69308">
        <ele>2042.966</ele>
        <time>2021-07-19T09:00:29Z</time>
      </trkpt>
      <trkpt lat="42.64282" lon="1.69308">
        <ele>2042.961</ele>
        <time>2021-07-19T09:00:31Z</time>
      </trkpt>
      <trkpt lat="42.64282" lon="1.69308">
        <ele>2042.96</ele>
        <time>2021-07-19T09:00:33Z</time>
      </trkpt>
      <trkpt lat="42.64282" lon="1.69308">
        <ele>2042.962</ele>
        <time>2021-07-19T09:00:35Z</time>
      </trkpt>
      <trkpt lat="42.64282" lon="1.69308">
        <ele>2042.961</ele>
        <time>2021-07-19T09:00:37Z</time>
      </trkpt>
      <trkpt lat="42.64282" lon="1.69308">
        <ele>2042.961</ele>
        <time>2021-07-19T09:00:39Z</time>
      </trkpt>
      <trkpt lat="42.64282" lon="1.69308">
        <ele>2042.957</ele>
        <time>2021-07-19T09:00:41Z</time>
      </trkpt>
      <trkpt lat="42.64282" lon="1.69308">
        <ele>2042.956</ele>
        <time>2021-07-19T09:00:43Z</time>
      </trkpt>
      <trkpt lat="42.64282" lon="1.69308">
        <ele>2042.953</ele>
        <time>2021-07-19T09:00:45Z</time>
      </trkpt>
      <trkpt lat="42.64282" lon="1.69308">
        <ele>2042.952</ele>
        <time>2021-07-19T09:00:47Z</time>
      </trkpt>
      <trkpt lat="42.64282" lon="1.69308">
        <ele>2042.953</ele>
        <time>2021-07-19T09:00:49Z</time>
      </trkpt>
      <trkpt lat="42.64282" lon="1.69308">
        <ele>2042.837</ele>
        <time>2021-07-19T09:00:51Z</time>
      </trkpt>
      <trkpt lat="42.64282" lon="1.69307">
        <ele>2042.825</ele>
        <time>2021-07-19T09:00:53Z</time>
      </trkpt>
      <trkpt lat="42.64282" lon="1.69308">
        <ele>2042.638</ele>
        <time>2021-07-19T09:00:55Z</time>
      </trkpt>
      <trkpt lat="42.64281" lon="1.69308">
        <ele>2042.262</ele>
        <time>2021-07-19T09:00:57Z</time>
      </trkpt>
      <trkpt lat="42.64282" lon="1.69309">
        <ele>2042.488</ele>
        <time>2021-07-19T09:00:59Z</time>
      </trkpt>
      <trkpt lat="42.64283" lon="1.6931">
        <ele>2042.636</ele>
        <time>2021-07-19T09:01:01Z</time>
      </trkpt>
      <trkpt lat="42.64284" lon="1.69311">
        <ele>2043.09</ele>
        <time>2021-07-19T09:01:03Z</time>
      </trkpt>
      <trkpt lat="42.64284" lon="1.69311">
        <ele>2043.262</ele>
        <time>2021-07-19T09:01:05Z</time>
      </trkpt>
      <trkpt lat="42.64285" lon="1.6931">
        <ele>2042.869</ele>
        <time>2021-07-19T09:01:07Z</time>
      </trkpt>
      <trkpt lat="42.64286" lon="1.6931">
        <ele>2039.966</ele>
        <time>2021-07-19T09:01:09Z</time>
      </trkpt>
      <trkpt lat="42.64288" lon="1.69311">
        <ele>2039.37</ele>
        <time>2021-07-19T09:01:11Z</time>
      </trkpt>
      <trkpt lat="42.64288" lon="1.69314">
        <ele>2039.522</ele>
        <time>2021-07-19T09:01:13Z</time>
      </trkpt>
      <trkpt lat="42.64288" lon="1.69316">
        <ele>2039.378</ele>
        <time>2021-07-19T09:01:15Z</time>
      </trkpt>
      <trkpt lat="42.64288" lon="1.69319">
        <ele>2041.202</ele>
        <time>2021-07-19T09:01:17Z</time>
      </trkpt>
      <trkpt lat="42.64288" lon="1.6932">
        <ele>2041.53</ele>
        <time>2021-07-19T09:01:19Z</time>
      </trkpt>
      <trkpt lat="42.64288" lon="1.69322">
        <ele>2042.038</ele>
        <time>2021-07-19T09:01:21Z</time>
      </trkpt>
      <trkpt lat="42.64289" lon="1.69324">
        <ele>2042.351</ele>
        <time>2021-07-19T09:01:23Z</time>
      </trkpt>
      <trkpt lat="42.64291" lon="1.69326">
        <ele>2042.502</ele>
        <time>2021-07-19T09:01:25Z</time>
      </trkpt>
      <trkpt lat="42.64292" lon="1.69327">
        <ele>2043.071</ele>
        <time>2021-07-19T09:01:27Z</time>
      </trkpt>
      <trkpt lat="42.64293" lon="1.69329">
        <ele>2043.23</ele>
        <time>2021-07-19T09:01:29Z</time>
      </trkpt>
      <trkpt lat="42.64294" lon="1.69332">
        <ele>2042.558</ele>
        <time>2021-07-19T09:01:31Z</time>
      </trkpt>
      <trkpt lat="42.64295" lon="1.69334">
        <ele>2042.253</ele>
        <time>2021-07-19T09:01:33Z</time>
      </trkpt>
      <trkpt lat="42.64296" lon="1.69336">
        <ele>2042.35</ele>
        <time>2021-07-19T09:01:35Z</time>
      </trkpt>
      <trkpt lat="42.64297" lon="1.69338">
        <ele>2042.114</ele>
        <time>2021-07-19T09:01:37Z</time>
      </trkpt>
      <trkpt lat="42.64298" lon="1.6934">
        <ele>2042.096</ele>
        <time>2021-07-19T09:01:39Z</time>
      </trkpt>
      <trkpt lat="42.64299" lon="1.69342">
        <ele>2041.996</ele>
        <time>2021-07-19T09:01:41Z</time>
      </trkpt>
      <trkpt lat="42.643" lon="1.69344">
        <ele>2041.857</ele>
        <time>2021-07-19T09:01:43Z</time>
      </trkpt>
      <trkpt lat="42.64301" lon="1.69346">
        <ele>2041.697</ele>
        <time>2021-07-19T09:01:45Z</time>
      </trkpt>
      <trkpt lat="42.64302" lon="1.69349">
        <ele>2041.606</ele>
        <time>2021-07-19T09:01:47Z</time>
      </trkpt>
      <trkpt lat="42.64303" lon="1.69351">
        <ele>2041.471</ele>
        <time>2021-07-19T09:01:49Z</time>
      </trkpt>
      <trkpt lat="42.64304" lon="1.69353">
        <ele>2040.911</ele>
        <time>2021-07-19T09:01:51Z</time>
      </trkpt>
      <trkpt lat="42.64305" lon="1.69354">
        <ele>2041.043</ele>
        <time>2021-07-19T09:01:53Z</time>
      </trkpt>
      <trkpt lat="42.64307" lon="1.69356">
        <ele>2040.901</ele>
        <time>2021-07-19T09:01:55Z</time>
      </trkpt>
      <trkpt lat="42.64308" lon="1.69358">
        <ele>2040.823</ele>
        <time>2021-07-19T09:01:57Z</time>
      </trkpt>
      <trkpt lat="42.64309" lon="1.6936">
        <ele>2040.784</ele>
        <time>2021-07-19T09:01:59Z</time>
      </trkpt>
      <trkpt lat="42.6431" lon="1.69362">
        <ele>2040.478</ele>
        <time>2021-07-19T09:02:01Z</time>
      </trkpt>
      <trkpt lat="42.64311" lon="1.69364">
        <ele>2040.471</ele>
        <time>2021-07-19T09:02:03Z</time>
      </trkpt>
      <trkpt lat="42.64312" lon="1.69366">
        <ele>2040.137</ele>
        <time>2021-07-19T09:02:05Z</time>
      </trkpt>
      <trkpt lat="42.64314" lon="1.69368">
        <ele>2039.86</ele>
        <time>2021-07-19T09:02:07Z</time>
      </trkpt>
      <trkpt lat="42.64315" lon="1.69369">
        <ele>2040.59</ele>
        <time>2021-07-19T09:02:09Z</time>
      </trkpt>
      <trkpt lat="42.64315" lon="1.6937">
        <ele>2040.605</ele>
        <time>2021-07-19T09:02:11Z</time>
      </trkpt>
      <trkpt lat="42.64316" lon="1.69373">
        <ele>2040.277</ele>
        <time>2021-07-19T09:02:13Z</time>
      </trkpt>
      <trkpt lat="42.64317" lon="1.69375">
        <ele>2040.497</ele>
        <time>2021-07-19T09:02:15Z</time>
      </trkpt>
      <trkpt lat="42.64318" lon="1.69377">
        <ele>2040.145</ele>
        <time>2021-07-19T09:02:17Z</time>
      </trkpt>
      <trkpt lat="42.64318" lon="1.69379">
        <ele>2040.196</ele>
        <time>2021-07-19T09:02:19Z</time>
      </trkpt>
      <trkpt lat="42.6432" lon="1.69381">
        <ele>2040.415</ele>
        <time>2021-07-19T09:02:21Z</time>
      </trkpt>
      <trkpt lat="42.6432" lon="1.69383">
        <ele>2041.004</ele>
        <time>2021-07-19T09:02:23Z</time>
      </trkpt>
      <trkpt lat="42.64321" lon="1.69385">
        <ele>2041.136</ele>
        <time>2021-07-19T09:02:25Z</time>
      </trkpt>
      <trkpt lat="42.64322" lon="1.69387">
        <ele>2041.142</ele>
        <time>2021-07-19T09:02:27Z</time>
      </trkpt>
      <trkpt lat="42.64323" lon="1.69389">
        <ele>2042.12</ele>
        <time>2021-07-19T09:02:29Z</time>
      </trkpt>
      <trkpt lat="42.64323" lon="1.69389">
        <ele>2041.887</ele>
        <time>2021-07-19T09:02:31Z</time>
      </trkpt>
      <trkpt lat="42.64325" lon="1.6939">
        <ele>2041.414</ele>
        <time>2021-07-19T09:02:33Z</time>
      </trkpt>
      <trkpt lat="42.64326" lon="1.69392">
        <ele>2040.851</ele>
        <time>2021-07-19T09:02:35Z</time>
      </trkpt>
      <trkpt lat="42.64327" lon="1.69394">
        <ele>2040.492</ele>
        <time>2021-07-19T09:02:37Z</time>
      </trkpt>
      <trkpt lat="42.64328" lon="1.69396">
        <ele>2040.345</ele>
        <time>2021-07-19T09:02:39Z</time>
      </trkpt>
      <trkpt lat="42.6433" lon="1.69398">
        <ele>2040.504</ele>
        <time>2021-07-19T09:02:41Z</time>
      </trkpt>
      <trkpt lat="42.64331" lon="1.69399">
        <ele>2040.151</ele>
        <time>2021-07-19T09:02:43Z</time>
      </trkpt>
      <trkpt lat="42.64333" lon="1.69401">
        <ele>2040.077</ele>
        <time>2021-07-19T09:02:45Z</time>
      </trkpt>
      <trkpt lat="42.64334" lon="1.69402">
        <ele>2039.949</ele>
        <time>2021-07-19T09:02:47Z</time>
      </trkpt>
      <trkpt lat="42.64335" lon="1.69404">
        <ele>2039.908</ele>
        <time>2021-07-19T09:02:49Z</time>
      </trkpt>
      <trkpt lat="42.64338" lon="1.69405">
        <ele>2039.971</ele>
        <time>2021-07-19T09:02:52Z</time>
      </trkpt>
      <trkpt lat="42.6434" lon="1.69407">
        <ele>2039.793</ele>
        <time>2021-07-19T09:02:54Z</time>
      </trkpt>
      <trkpt lat="42.64341" lon="1.69409">
        <ele>2039.986</ele>
        <time>2021-07-19T09:02:56Z</time>
      </trkpt>
      <trkpt lat="42.64342" lon="1.69412">
        <ele>2039.84</ele>
        <time>2021-07-19T09:02:58Z</time>
      </trkpt>
      <trkpt lat="42.64343" lon="1.69413">
        <ele>2039.455</ele>
        <time>2021-07-19T09:03:00Z</time>
      </trkpt>
      <trkpt lat="42.64344" lon="1.69414">
        <ele>2039.365</ele>
        <time>2021-07-19T09:03:02Z</time>
      </trkpt>
      <trkpt lat="42.64345" lon="1.69415">
        <ele>2039.745</ele>
        <time>2021-07-19T09:03:04Z</time>
      </trkpt>
      <trkpt lat="42.64345" lon="1.69416">
        <ele>2039.872</ele>
        <time>2021-07-19T09:03:06Z</time>
      </trkpt>
      <trkpt lat="42.64345" lon="1.69416">
        <ele>2039.869</ele>
        <time>2021-07-19T09:03:08Z</time>
      </trkpt>
      <trkpt lat="42.64345" lon="1.69416">
        <ele>2039.838</ele>
        <time>2021-07-19T09:03:10Z</time>
      </trkpt>
      <trkpt lat="42.64345" lon="1.69416">
        <ele>2039.842</ele>
        <time>2021-07-19T09:03:12Z</time>
      </trkpt>
      <trkpt lat="42.64345" lon="1.69416">
        <ele>2039.593</ele>
        <time>2021-07-19T09:03:14Z</time>
      </trkpt>
      <trkpt lat="42.64345" lon="1.69416">
        <ele>2039.374</ele>
        <time>2021-07-19T09:03:16Z</time>
      </trkpt>
      <trkpt lat="42.64344" lon="1.69416">
        <ele>2039.376</ele>
        <time>2021-07-19T09:03:18Z</time>
      </trkpt>
      <trkpt lat="42.64344" lon="1.69416">
        <ele>2039.372</ele>
        <time>2021-07-19T09:03:20Z</time>
      </trkpt>
      <trkpt lat="42.64348" lon="1.69413">
        <ele>2038.403</ele>
        <time>2021-07-19T09:03:22Z</time>
      </trkpt>
      <trkpt lat="42.64348" lon="1.69414">
        <ele>2037.988</ele>
        <time>2021-07-19T09:03:24Z</time>
      </trkpt>
      <trkpt lat="42.64348" lon="1.69414">
        <ele>2037.999</ele>
        <time>2021-07-19T09:03:26Z</time>
      </trkpt>
      <trkpt lat="42.64348" lon="1.69414">
        <ele>2038.002</ele>
        <time>2021-07-19T09:03:28Z</time>
      </trkpt>
      <trkpt lat="42.64348" lon="1.69414">
        <ele>2038.001</ele>
        <time>2021-07-19T09:03:30Z</time>
      </trkpt>
      <trkpt lat="42.64348" lon="1.69414">
        <ele>2038.004</ele>
        <time>2021-07-19T09:03:32Z</time>
      </trkpt>
      <trkpt lat="42.64348" lon="1.69414">
        <ele>2037.82</ele>
        <time>2021-07-19T09:03:34Z</time>
      </trkpt>
      <trkpt lat="42.64347" lon="1.69414">
        <ele>2037.826</ele>
        <time>2021-07-19T09:03:36Z</time>
      </trkpt>
      <trkpt lat="42.64348" lon="1.69414">
        <ele>2037.941</ele>
        <time>2021-07-19T09:03:38Z</time>
      </trkpt>
      <trkpt lat="42.64348" lon="1.69414">
        <ele>2037.937</ele>
        <time>2021-07-19T09:03:40Z</time>
      </trkpt>
      <trkpt lat="42.64348" lon="1.69414">
        <ele>2037.926</ele>
        <time>2021-07-19T09:03:42Z</time>
      </trkpt>
      <trkpt lat="42.64348" lon="1.69414">
        <ele>2037.924</ele>
        <time>2021-07-19T09:03:44Z</time>
      </trkpt>
      <trkpt lat="42.64348" lon="1.69414">
        <ele>2037.927</ele>
        <time>2021-07-19T09:03:46Z</time>
      </trkpt>
      <trkpt lat="42.64348" lon="1.69414">
        <ele>2037.936</ele>
        <time>2021-07-19T09:03:48Z</time>
      </trkpt>
      <trkpt lat="42.64348" lon="1.69414">
        <ele>2038.043</ele>
        <time>2021-07-19T09:03:50Z</time>
      </trkpt>
      <trkpt lat="42.64348" lon="1.69414">
        <ele>2038.026</ele>
        <time>2021-07-19T09:03:52Z</time>
      </trkpt>
      <trkpt lat="42.64347" lon="1.69414">
        <ele>2038.238</ele>
        <time>2021-07-19T09:03:54Z</time>
      </trkpt>
      <trkpt lat="42.64347" lon="1.69414">
        <ele>2038.243</ele>
        <time>2021-07-19T09:03:56Z</time>
      </trkpt>
      <trkpt lat="42.64347" lon="1.69414">
        <ele>2038.248</ele>
        <time>2021-07-19T09:03:58Z</time>
      </trkpt>
      <trkpt lat="42.64346" lon="1.69414">
        <ele>2038.368</ele>
        <time>2021-07-19T09:04:00Z</time>
      </trkpt>
      <trkpt lat="42.64346" lon="1.69414">
        <ele>2038.366</ele>
        <time>2021-07-19T09:04:02Z</time>
      </trkpt>
      <trkpt lat="42.64346" lon="1.69414">
        <ele>2038.36</ele>
        <time>2021-07-19T09:04:04Z</time>
      </trkpt>
      <trkpt lat="42.64346" lon="1.69414">
        <ele>2038.358</ele>
        <time>2021-07-19T09:04:06Z</time>
      </trkpt>
      <trkpt lat="42.64346" lon="1.69414">
        <ele>2038.35</ele>
        <time>2021-07-19T09:04:08Z</time>
      </trkpt>
      <trkpt lat="42.64346" lon="1.69414">
        <ele>2038.338</ele>
        <time>2021-07-19T09:04:10Z</time>
      </trkpt>
      <trkpt lat="42.64346" lon="1.69414">
        <ele>2038.341</ele>
        <time>2021-07-19T09:04:12Z</time>
      </trkpt>
      <trkpt lat="42.64346" lon="1.69414">
        <ele>2038.336</ele>
        <time>2021-07-19T09:04:14Z</time>
      </trkpt>
      <trkpt lat="42.64346" lon="1.69414">
        <ele>2038.245</ele>
        <time>2021-07-19T09:04:16Z</time>
      </trkpt>
      <trkpt lat="42.64346" lon="1.69414">
        <ele>2038.249</ele>
        <time>2021-07-19T09:04:18Z</time>
      </trkpt>
      <trkpt lat="42.64346" lon="1.69413">
        <ele>2037.914</ele>
        <time>2021-07-19T09:04:20Z</time>
      </trkpt>
      <trkpt lat="42.64346" lon="1.69412">
        <ele>2038.899</ele>
        <time>2021-07-19T09:04:22Z</time>
      </trkpt>
      <trkpt lat="42.64345" lon="1.69411">
        <ele>2038.971</ele>
        <time>2021-07-19T09:04:24Z</time>
      </trkpt>
      <trkpt lat="42.64344" lon="1.6941">
        <ele>2039.382</ele>
        <time>2021-07-19T09:04:26Z</time>
      </trkpt>
      <trkpt lat="42.64343" lon="1.6941">
        <ele>2039.392</ele>
        <time>2021-07-19T09:04:28Z</time>
      </trkpt>
      <trkpt lat="42.64343" lon="1.6941">
        <ele>2039.386</ele>
        <time>2021-07-19T09:04:30Z</time>
      </trkpt>
      <trkpt lat="42.64343" lon="1.69411">
        <ele>2038.82</ele>
        <time>2021-07-19T09:04:32Z</time>
      </trkpt>
      <trkpt lat="42.64343" lon="1.69411">
        <ele>2038.74</ele>
        <time>2021-07-19T09:04:34Z</time>
      </trkpt>
      <trkpt lat="42.64343" lon="1.69412">
        <ele>2038.724</ele>
        <time>2021-07-19T09:04:36Z</time>
      </trkpt>
      <trkpt lat="42.64343" lon="1.69412">
        <ele>2038.722</ele>
        <time>2021-07-19T09:04:38Z</time>
      </trkpt>
      <trkpt lat="42.64343" lon="1.69412">
        <ele>2038.721</ele>
        <time>2021-07-19T09:04:40Z</time>
      </trkpt>
      <trkpt lat="42.64344" lon="1.69412">
        <ele>2038.717</ele>
        <time>2021-07-19T09:04:42Z</time>
      </trkpt>
      <trkpt lat="42.64344" lon="1.69412">
        <ele>2039.122</ele>
        <time>2021-07-19T09:04:44Z</time>
      </trkpt>
      <trkpt lat="42.64344" lon="1.69412">
        <ele>2039.114</ele>
        <time>2021-07-19T09:04:46Z</time>
      </trkpt>
      <trkpt lat="42.64344" lon="1.69412">
        <ele>2039.111</ele>
        <time>2021-07-19T09:04:48Z</time>
      </trkpt>
      <trkpt lat="42.64344" lon="1.69412">
        <ele>2039.11</ele>
        <time>2021-07-19T09:04:50Z</time>
      </trkpt>
      <trkpt lat="42.64344" lon="1.69412">
        <ele>2039.111</ele>
        <time>2021-07-19T09:04:52Z</time>
      </trkpt>
      <trkpt lat="42.64344" lon="1.69412">
        <ele>2039.11</ele>
        <time>2021-07-19T09:04:54Z</time>
      </trkpt>
      <trkpt lat="42.64344" lon="1.69412">
        <ele>2039.114</ele>
        <time>2021-07-19T09:04:56Z</time>
      </trkpt>
      <trkpt lat="42.64344" lon="1.69412">
        <ele>2039.116</ele>
        <time>2021-07-19T09:04:58Z</time>
      </trkpt>
      <trkpt lat="42.64344" lon="1.69412">
        <ele>2039.116</ele>
        <time>2021-07-19T09:05:00Z</time>
      </trkpt>
      <trkpt lat="42.64344" lon="1.69412">
        <ele>2039.117</ele>
        <time>2021-07-19T09:05:02Z</time>
      </trkpt>
      <trkpt lat="42.64344" lon="1.69412">
        <ele>2039.11</ele>
        <time>2021-07-19T09:05:04Z</time>
      </trkpt>
      <trkpt lat="42.64344" lon="1.69412">
        <ele>2039.102</ele>
        <time>2021-07-19T09:05:06Z</time>
      </trkpt>
      <trkpt lat="42.64344" lon="1.69412">
        <ele>2039.102</ele>
        <time>2021-07-19T09:05:08Z</time>
      </trkpt>
      <trkpt lat="42.64344" lon="1.69412">
        <ele>2039.104</ele>
        <time>2021-07-19T09:05:10Z</time>
      </trkpt>
      <trkpt lat="42.64344" lon="1.69412">
        <ele>2039.107</ele>
        <time>2021-07-19T09:05:12Z</time>
      </trkpt>
      <trkpt lat="42.64344" lon="1.69412">
        <ele>2038.984</ele>
        <time>2021-07-19T09:05:14Z</time>
      </trkpt>
      <trkpt lat="42.64344" lon="1.69412">
        <ele>2039.258</ele>
        <time>2021-07-19T09:05:16Z</time>
      </trkpt>
      <trkpt lat="42.64343" lon="1.69412">
        <ele>2039.261</ele>
        <time>2021-07-19T09:05:18Z</time>
      </trkpt>
      <trkpt lat="42.64344" lon="1.69412">
        <ele>2039.42</ele>
        <time>2021-07-19T09:05:20Z</time>
      </trkpt>
      <trkpt lat="42.64344" lon="1.69412">
        <ele>2039.43</ele>
        <time>2021-07-19T09:05:22Z</time>
      </trkpt>
      <trkpt lat="42.64344" lon="1.69412">
        <ele>2039.424</ele>
        <time>2021-07-19T09:05:24Z</time>
      </trkpt>
      <trkpt lat="42.64344" lon="1.69412">
        <ele>2039.422</ele>
        <time>2021-07-19T09:05:26Z</time>
      </trkpt>
      <trkpt lat="42.64344" lon="1.69412">
        <ele>2039.421</ele>
        <time>2021-07-19T09:05:28Z</time>
      </trkpt>
      <trkpt lat="42.64344" lon="1.69412">
        <ele>2039.416</ele>
        <time>2021-07-19T09:05:30Z</time>
      </trkpt>
      <trkpt lat="42.64344" lon="1.69412">
        <ele>2039.411</ele>
        <time>2021-07-19T09:05:32Z</time>
      </trkpt>
      <trkpt lat="42.64344" lon="1.69412">
        <ele>2039.407</ele>
        <time>2021-07-19T09:05:34Z</time>
      </trkpt>
      <trkpt lat="42.64344" lon="1.69413">
        <ele>2039.934</ele>
        <time>2021-07-19T09:05:36Z</time>
      </trkpt>
      <trkpt lat="42.64344" lon="1.69413">
        <ele>2039.98</ele>
        <time>2021-07-19T09:05:38Z</time>
      </trkpt>
      <trkpt lat="42.64343" lon="1.69413">
        <ele>2040.036</ele>
        <time>2021-07-19T09:05:40Z</time>
      </trkpt>
      <trkpt lat="42.64343" lon="1.69413">
        <ele>2040.049</ele>
        <time>2021-07-19T09:05:42Z</time>
      </trkpt>
      <trkpt lat="42.64343" lon="1.69413">
        <ele>2039.961</ele>
        <time>2021-07-19T09:05:44Z</time>
      </trkpt>
      <trkpt lat="42.64344" lon="1.69413">
        <ele>2039.949</ele>
        <time>2021-07-19T09:05:46Z</time>
      </trkpt>
      <trkpt lat="42.64344" lon="1.69413">
        <ele>2039.942</ele>
        <time>2021-07-19T09:05:48Z</time>
      </trkpt>
      <trkpt lat="42.64344" lon="1.69413">
        <ele>2039.936</ele>
        <time>2021-07-19T09:05:50Z</time>
      </trkpt>
      <trkpt lat="42.64344" lon="1.69413">
        <ele>2039.934</ele>
        <time>2021-07-19T09:05:52Z</time>
      </trkpt>
      <trkpt lat="42.64344" lon="1.69413">
        <ele>2039.925</ele>
        <time>2021-07-19T09:05:54Z</time>
      </trkpt>
      <trkpt lat="42.64344" lon="1.69413">
        <ele>2040.237</ele>
        <time>2021-07-19T09:05:56Z</time>
      </trkpt>
      <trkpt lat="42.64344" lon="1.69413">
        <ele>2040.235</ele>
        <time>2021-07-19T09:05:58Z</time>
      </trkpt>
      <trkpt lat="42.64344" lon="1.69413">
        <ele>2040.23</ele>
        <time>2021-07-19T09:06:00Z</time>
      </trkpt>
      <trkpt lat="42.64344" lon="1.69413">
        <ele>2040.229</ele>
        <time>2021-07-19T09:06:02Z</time>
      </trkpt>
      <trkpt lat="42.64344" lon="1.69414">
        <ele>2040.627</ele>
        <time>2021-07-19T09:06:04Z</time>
      </trkpt>
      <trkpt lat="42.64345" lon="1.69414">
        <ele>2040.363</ele>
        <time>2021-07-19T09:06:06Z</time>
      </trkpt>
      <trkpt lat="42.64348" lon="1.69414">
        <ele>2040.405</ele>
        <time>2021-07-19T09:06:08Z</time>
      </trkpt>
      <trkpt lat="42.64349" lon="1.69415">
        <ele>2040.888</ele>
        <time>2021-07-19T09:06:10Z</time>
      </trkpt>
      <trkpt lat="42.64351" lon="1.69415">
        <ele>2041.078</ele>
        <time>2021-07-19T09:06:12Z</time>
      </trkpt>
      <trkpt lat="42.64354" lon="1.69416">
        <ele>2041.528</ele>
        <time>2021-07-19T09:06:14Z</time>
      </trkpt>
      <trkpt lat="42.64355" lon="1.69418">
        <ele>2042.051</ele>
        <time>2021-07-19T09:06:16Z</time>
      </trkpt>
      <trkpt lat="42.64357" lon="1.69419">
        <ele>2041.259</ele>
        <time>2021-07-19T09:06:18Z</time>
      </trkpt>
      <trkpt lat="42.64358" lon="1.6942">
        <ele>2040.423</ele>
        <time>2021-07-19T09:06:20Z</time>
      </trkpt>
      <trkpt lat="42.64359" lon="1.6942">
        <ele>2040.37</ele>
        <time>2021-07-19T09:06:22Z</time>
      </trkpt>
      <trkpt lat="42.6436" lon="1.69422">
        <ele>2040.011</ele>
        <time>2021-07-19T09:06:24Z</time>
      </trkpt>
      <trkpt lat="42.64362" lon="1.69423">
        <ele>2039.754</ele>
        <time>2021-07-19T09:06:26Z</time>
      </trkpt>
      <trkpt lat="42.64364" lon="1.69424">
        <ele>2039.96</ele>
        <time>2021-07-19T09:06:28Z</time>
      </trkpt>
      <trkpt lat="42.64365" lon="1.69425">
        <ele>2040.524</ele>
        <time>2021-07-19T09:06:30Z</time>
      </trkpt>
      <trkpt lat="42.64367" lon="1.69426">
        <ele>2040.873</ele>
        <time>2021-07-19T09:06:32Z</time>
      </trkpt>
      <trkpt lat="42.64368" lon="1.69426">
        <ele>2040.554</ele>
        <time>2021-07-19T09:06:34Z</time>
      </trkpt>
      <trkpt lat="42.6437" lon="1.69426">
        <ele>2039.863</ele>
        <time>2021-07-19T09:06:36Z</time>
      </trkpt>
      <trkpt lat="42.64372" lon="1.69425">
        <ele>2039.839</ele>
        <time>2021-07-19T09:06:38Z</time>
      </trkpt>
      <trkpt lat="42.64373" lon="1.69424">
        <ele>2039.595</ele>
        <time>2021-07-19T09:06:40Z</time>
      </trkpt>
      <trkpt lat="42.64375" lon="1.69423">
        <ele>2039.79</ele>
        <time>2021-07-19T09:06:42Z</time>
      </trkpt>
      <trkpt lat="42.64376" lon="1.69423">
        <ele>2039.941</ele>
        <time>2021-07-19T09:06:44Z</time>
      </trkpt>
      <trkpt lat="42.64377" lon="1.69423">
        <ele>2039.527</ele>
        <time>2021-07-19T09:06:46Z</time>
      </trkpt>
      <trkpt lat="42.64379" lon="1.69424">
        <ele>2039.238</ele>
        <time>2021-07-19T09:06:48Z</time>
      </trkpt>
      <trkpt lat="42.6438" lon="1.69423">
        <ele>2038.924</ele>
        <time>2021-07-19T09:06:50Z</time>
      </trkpt>
      <trkpt lat="42.64381" lon="1.69424">
        <ele>2039.199</ele>
        <time>2021-07-19T09:06:52Z</time>
      </trkpt>
      <trkpt lat="42.64382" lon="1.69424">
        <ele>2039.263</ele>
        <time>2021-07-19T09:06:54Z</time>
      </trkpt>
      <trkpt lat="42.64383" lon="1.69425">
        <ele>2039.264</ele>
        <time>2021-07-19T09:06:56Z</time>
      </trkpt>
      <trkpt lat="42.64385" lon="1.69425">
        <ele>2039.479</ele>
        <time>2021-07-19T09:06:58Z</time>
      </trkpt>
      <trkpt lat="42.64386" lon="1.69424">
        <ele>2039.783</ele>
        <time>2021-07-19T09:07:00Z</time>
      </trkpt>
      <trkpt lat="42.64387" lon="1.69424">
        <ele>2040.355</ele>
        <time>2021-07-19T09:07:02Z</time>
      </trkpt>
      <trkpt lat="42.64388" lon="1.69423">
        <ele>2040.709</ele>
        <time>2021-07-19T09:07:04Z</time>
      </trkpt>
      <trkpt lat="42.64389" lon="1.69424">
        <ele>2041.27</ele>
        <time>2021-07-19T09:07:06Z</time>
      </trkpt>
      <trkpt lat="42.6439" lon="1.69423">
        <ele>2041.459</ele>
        <time>2021-07-19T09:07:08Z</time>
      </trkpt>
      <trkpt lat="42.64391" lon="1.69423">
        <ele>2041.841</ele>
        <time>2021-07-19T09:07:10Z</time>
      </trkpt>
      <trkpt lat="42.64392" lon="1.69423">
        <ele>2041.203</ele>
        <time>2021-07-19T09:07:12Z</time>
      </trkpt>
      <trkpt lat="42.64394" lon="1.69423">
        <ele>2041.716</ele>
        <time>2021-07-19T09:07:14Z</time>
      </trkpt>
      <trkpt lat="42.64395" lon="1.69424">
        <ele>2042.416</ele>
        <time>2021-07-19T09:07:16Z</time>
      </trkpt>
      <trkpt lat="42.64396" lon="1.69425">
        <ele>2042.067</ele>
        <time>2021-07-19T09:07:18Z</time>
      </trkpt>
      <trkpt lat="42.64397" lon="1.69425">
        <ele>2042.431</ele>
        <time>2021-07-19T09:07:20Z</time>
      </trkpt>
      <trkpt lat="42.64398" lon="1.69425">
        <ele>2042.412</ele>
        <time>2021-07-19T09:07:22Z</time>
      </trkpt>
      <trkpt lat="42.64399" lon="1.69426">
        <ele>2042.841</ele>
        <time>2021-07-19T09:07:24Z</time>
      </trkpt>
      <trkpt lat="42.644" lon="1.69427">
        <ele>2043.078</ele>
        <time>2021-07-19T09:07:26Z</time>
      </trkpt>
      <trkpt lat="42.644" lon="1.69428">
        <ele>2043.017</ele>
        <time>2021-07-19T09:07:28Z</time>
      </trkpt>
      <trkpt lat="42.644" lon="1.69428">
        <ele>2043.019</ele>
        <time>2021-07-19T09:07:30Z</time>
      </trkpt>
      <trkpt lat="42.644" lon="1.69428">
        <ele>2043.022</ele>
        <time>2021-07-19T09:07:32Z</time>
      </trkpt>
      <trkpt lat="42.644" lon="1.69428">
        <ele>2043.018</ele>
        <time>2021-07-19T09:07:34Z</time>
      </trkpt>
      <trkpt lat="42.64401" lon="1.69427">
        <ele>2043.352</ele>
        <time>2021-07-19T09:07:36Z</time>
      </trkpt>
      <trkpt lat="42.64402" lon="1.69425">
        <ele>2043.289</ele>
        <time>2021-07-19T09:07:38Z</time>
      </trkpt>
      <trkpt lat="42.64403" lon="1.69425">
        <ele>2044.234</ele>
        <time>2021-07-19T09:07:40Z</time>
      </trkpt>
      <trkpt lat="42.64403" lon="1.69426">
        <ele>2044.067</ele>
        <time>2021-07-19T09:07:42Z</time>
      </trkpt>
      <trkpt lat="42.64403" lon="1.69426">
        <ele>2044.324</ele>
        <time>2021-07-19T09:07:44Z</time>
      </trkpt>
      <trkpt lat="42.64404" lon="1.69426">
        <ele>2044.495</ele>
        <time>2021-07-19T09:07:46Z</time>
      </trkpt>
      <trkpt lat="42.64405" lon="1.69426">
        <ele>2045.009</ele>
        <time>2021-07-19T09:07:48Z</time>
      </trkpt>
      <trkpt lat="42.64406" lon="1.69426">
        <ele>2044.637</ele>
        <time>2021-07-19T09:07:50Z</time>
      </trkpt>
      <trkpt lat="42.64407" lon="1.69427">
        <ele>2044.307</ele>
        <time>2021-07-19T09:07:52Z</time>
      </trkpt>
      <trkpt lat="42.64408" lon="1.69427">
        <ele>2043.81</ele>
        <time>2021-07-19T09:07:54Z</time>
      </trkpt>
      <trkpt lat="42.64409" lon="1.69428">
        <ele>2043.97</ele>
        <time>2021-07-19T09:07:56Z</time>
      </trkpt>
      <trkpt lat="42.6441" lon="1.69428">
        <ele>2043.726</ele>
        <time>2021-07-19T09:07:58Z</time>
      </trkpt>
      <trkpt lat="42.64411" lon="1.69429">
        <ele>2043.532</ele>
        <time>2021-07-19T09:08:00Z</time>
      </trkpt>
      <trkpt lat="42.64412" lon="1.69429">
        <ele>2043.925</ele>
        <time>2021-07-19T09:08:02Z</time>
      </trkpt>
      <trkpt lat="42.64413" lon="1.6943">
        <ele>2043.866</ele>
        <time>2021-07-19T09:08:04Z</time>
      </trkpt>
      <trkpt lat="42.64415" lon="1.6943">
        <ele>2044.304</ele>
        <time>2021-07-19T09:08:06Z</time>
      </trkpt>
      <trkpt lat="42.64416" lon="1.6943">
        <ele>2044.48</ele>
        <time>2021-07-19T09:08:08Z</time>
      </trkpt>
      <trkpt lat="42.64417" lon="1.69431">
        <ele>2044.912</ele>
        <time>2021-07-19T09:08:10Z</time>
      </trkpt>
      <trkpt lat="42.64418" lon="1.69431">
        <ele>2045.113</ele>
        <time>2021-07-19T09:08:12Z</time>
      </trkpt>
      <trkpt lat="42.64419" lon="1.69432">
        <ele>2045.088</ele>
        <time>2021-07-19T09:08:14Z</time>
      </trkpt>
      <trkpt lat="42.6442" lon="1.69433">
        <ele>2045.307</ele>
        <time>2021-07-19T09:08:16Z</time>
      </trkpt>
      <trkpt lat="42.64421" lon="1.69434">
        <ele>2045.113</ele>
        <time>2021-07-19T09:08:18Z</time>
      </trkpt>
      <trkpt lat="42.64422" lon="1.69435">
        <ele>2045.032</ele>
        <time>2021-07-19T09:08:20Z</time>
      </trkpt>
      <trkpt lat="42.64423" lon="1.69437">
        <ele>2044.948</ele>
        <time>2021-07-19T09:08:22Z</time>
      </trkpt>
      <trkpt lat="42.64424" lon="1.69439">
        <ele>2045.556</ele>
        <time>2021-07-19T09:08:24Z</time>
      </trkpt>
      <trkpt lat="42.64425" lon="1.69441">
        <ele>2045.928</ele>
        <time>2021-07-19T09:08:26Z</time>
      </trkpt>
      <trkpt lat="42.64426" lon="1.69442">
        <ele>2045.723</ele>
        <time>2021-07-19T09:08:28Z</time>
      </trkpt>
      <trkpt lat="42.64428" lon="1.69443">
        <ele>2045.477</ele>
        <time>2021-07-19T09:08:30Z</time>
      </trkpt>
      <trkpt lat="42.64429" lon="1.69443">
        <ele>2045.604</ele>
        <time>2021-07-19T09:08:32Z</time>
      </trkpt>
      <trkpt lat="42.64429" lon="1.69443">
        <ele>2046.099</ele>
        <time>2021-07-19T09:08:34Z</time>
      </trkpt>
      <trkpt lat="42.6443" lon="1.69442">
        <ele>2046.381</ele>
        <time>2021-07-19T09:08:36Z</time>
      </trkpt>
      <trkpt lat="42.64431" lon="1.69443">
        <ele>2046.883</ele>
        <time>2021-07-19T09:08:38Z</time>
      </trkpt>
      <trkpt lat="42.64433" lon="1.69444">
        <ele>2047.055</ele>
        <time>2021-07-19T09:08:40Z</time>
      </trkpt>
      <trkpt lat="42.64434" lon="1.69445">
        <ele>2047.49</ele>
        <time>2021-07-19T09:08:42Z</time>
      </trkpt>
      <trkpt lat="42.64435" lon="1.69446">
        <ele>2047.683</ele>
        <time>2021-07-19T09:08:44Z</time>
      </trkpt>
      <trkpt lat="42.64436" lon="1.69447">
        <ele>2047.887</ele>
        <time>2021-07-19T09:08:46Z</time>
      </trkpt>
      <trkpt lat="42.64437" lon="1.69448">
        <ele>2048.347</ele>
        <time>2021-07-19T09:08:48Z</time>
      </trkpt>
      <trkpt lat="42.64438" lon="1.69449">
        <ele>2048.632</ele>
        <time>2021-07-19T09:08:50Z</time>
      </trkpt>
      <trkpt lat="42.64439" lon="1.6945">
        <ele>2049.598</ele>
        <time>2021-07-19T09:08:52Z</time>
      </trkpt>
      <trkpt lat="42.6444" lon="1.6945">
        <ele>2049.724</ele>
        <time>2021-07-19T09:08:54Z</time>
      </trkpt>
      <trkpt lat="42.64441" lon="1.69451">
        <ele>2050.592</ele>
        <time>2021-07-19T09:08:56Z</time>
      </trkpt>
      <trkpt lat="42.64442" lon="1.69452">
        <ele>2050.884</ele>
        <time>2021-07-19T09:08:58Z</time>
      </trkpt>
      <trkpt lat="42.64443" lon="1.69453">
        <ele>2051.604</ele>
        <time>2021-07-19T09:09:00Z</time>
      </trkpt>
      <trkpt lat="42.64443" lon="1.69455">
        <ele>2051.77</ele>
        <time>2021-07-19T09:09:02Z</time>
      </trkpt>
      <trkpt lat="42.64444" lon="1.69456">
        <ele>2051.842</ele>
        <time>2021-07-19T09:09:04Z</time>
      </trkpt>
      <trkpt lat="42.64445" lon="1.69457">
        <ele>2051.793</ele>
        <time>2021-07-19T09:09:06Z</time>
      </trkpt>
      <trkpt lat="42.64446" lon="1.69458">
        <ele>2051.759</ele>
        <time>2021-07-19T09:09:08Z</time>
      </trkpt>
      <trkpt lat="42.64447" lon="1.69458">
        <ele>2052.208</ele>
        <time>2021-07-19T09:09:10Z</time>
      </trkpt>
      <trkpt lat="42.64448" lon="1.69458">
        <ele>2052.582</ele>
        <time>2021-07-19T09:09:12Z</time>
      </trkpt>
      <trkpt lat="42.64449" lon="1.69459">
        <ele>2052.953</ele>
        <time>2021-07-19T09:09:14Z</time>
      </trkpt>
      <trkpt lat="42.6445" lon="1.6946">
        <ele>2052.555</ele>
        <time>2021-07-19T09:09:16Z</time>
      </trkpt>
      <trkpt lat="42.64451" lon="1.6946">
        <ele>2052.596</ele>
        <time>2021-07-19T09:09:18Z</time>
      </trkpt>
      <trkpt lat="42.64451" lon="1.6946">
        <ele>2052.789</ele>
        <time>2021-07-19T09:09:20Z</time>
      </trkpt>
      <trkpt lat="42.64451" lon="1.6946">
        <ele>2052.79</ele>
        <time>2021-07-19T09:09:22Z</time>
      </trkpt>
      <trkpt lat="42.64452" lon="1.6946">
        <ele>2053.25</ele>
        <time>2021-07-19T09:09:24Z</time>
      </trkpt>
      <trkpt lat="42.64453" lon="1.6946">
        <ele>2053.317</ele>
        <time>2021-07-19T09:09:26Z</time>
      </trkpt>
      <trkpt lat="42.64454" lon="1.6946">
        <ele>2053.486</ele>
        <time>2021-07-19T09:09:28Z</time>
      </trkpt>
      <trkpt lat="42.64456" lon="1.6946">
        <ele>2053.209</ele>
        <time>2021-07-19T09:09:30Z</time>
      </trkpt>
      <trkpt lat="42.64456" lon="1.6946">
        <ele>2053.316</ele>
        <time>2021-07-19T09:09:32Z</time>
      </trkpt>
      <trkpt lat="42.64457" lon="1.6946">
        <ele>2054.08</ele>
        <time>2021-07-19T09:09:34Z</time>
      </trkpt>
      <trkpt lat="42.64457" lon="1.69461">
        <ele>2054.684</ele>
        <time>2021-07-19T09:09:36Z</time>
      </trkpt>
      <trkpt lat="42.64458" lon="1.69461">
        <ele>2054.746</ele>
        <time>2021-07-19T09:09:38Z</time>
      </trkpt>
      <trkpt lat="42.64459" lon="1.69461">
        <ele>2055.127</ele>
        <time>2021-07-19T09:09:40Z</time>
      </trkpt>
      <trkpt lat="42.6446" lon="1.69461">
        <ele>2054.796</ele>
        <time>2021-07-19T09:09:42Z</time>
      </trkpt>
      <trkpt lat="42.6446" lon="1.69461">
        <ele>2054.938</ele>
        <time>2021-07-19T09:09:44Z</time>
      </trkpt>
      <trkpt lat="42.64461" lon="1.6946">
        <ele>2055.91</ele>
        <time>2021-07-19T09:09:46Z</time>
      </trkpt>
      <trkpt lat="42.64461" lon="1.6946">
        <ele>2055.57</ele>
        <time>2021-07-19T09:09:48Z</time>
      </trkpt>
      <trkpt lat="42.64461" lon="1.6946">
        <ele>2055.55</ele>
        <time>2021-07-19T09:09:50Z</time>
      </trkpt>
      <trkpt lat="42.64461" lon="1.6946">
        <ele>2055.551</ele>
        <time>2021-07-19T09:09:52Z</time>
      </trkpt>
      <trkpt lat="42.64462" lon="1.6946">
        <ele>2055.55</ele>
        <time>2021-07-19T09:09:54Z</time>
      </trkpt>
      <trkpt lat="42.64462" lon="1.69461">
        <ele>2056.077</ele>
        <time>2021-07-19T09:09:56Z</time>
      </trkpt>
      <trkpt lat="42.64462" lon="1.69461">
        <ele>2056.089</ele>
        <time>2021-07-19T09:09:58Z</time>
      </trkpt>
      <trkpt lat="42.64463" lon="1.69461">
        <ele>2056.518</ele>
        <time>2021-07-19T09:10:00Z</time>
      </trkpt>
      <trkpt lat="42.64464" lon="1.69461">
        <ele>2056.451</ele>
        <time>2021-07-19T09:10:02Z</time>
      </trkpt>
      <trkpt lat="42.64464" lon="1.69461">
        <ele>2056.388</ele>
        <time>2021-07-19T09:10:04Z</time>
      </trkpt>
      <trkpt lat="42.64465" lon="1.69461">
        <ele>2056.789</ele>
        <time>2021-07-19T09:10:06Z</time>
      </trkpt>
      <trkpt lat="42.64466" lon="1.69461">
        <ele>2057.585</ele>
        <time>2021-07-19T09:10:08Z</time>
      </trkpt>
      <trkpt lat="42.64467" lon="1.69462">
        <ele>2058.284</ele>
        <time>2021-07-19T09:10:10Z</time>
      </trkpt>
      <trkpt lat="42.64468" lon="1.69463">
        <ele>2058.325</ele>
        <time>2021-07-19T09:10:12Z</time>
      </trkpt>
      <trkpt lat="42.6447" lon="1.69463">
        <ele>2058.876</ele>
        <time>2021-07-19T09:10:14Z</time>
      </trkpt>
      <trkpt lat="42.64471" lon="1.69463">
        <ele>2058.878</ele>
        <time>2021-07-19T09:10:16Z</time>
      </trkpt>
      <trkpt lat="42.64472" lon="1.69464">
        <ele>2058.975</ele>
        <time>2021-07-19T09:10:18Z</time>
      </trkpt>
      <trkpt lat="42.64473" lon="1.69464">
        <ele>2059.157</ele>
        <time>2021-07-19T09:10:20Z</time>
      </trkpt>
      <trkpt lat="42.64474" lon="1.69465">
        <ele>2059.695</ele>
        <time>2021-07-19T09:10:22Z</time>
      </trkpt>
      <trkpt lat="42.64475" lon="1.69466">
        <ele>2059.646</ele>
        <time>2021-07-19T09:10:24Z</time>
      </trkpt>
      <trkpt lat="42.64475" lon="1.69466">
        <ele>2059.606</ele>
        <time>2021-07-19T09:10:26Z</time>
      </trkpt>
      <trkpt lat="42.64475" lon="1.69467">
        <ele>2060.039</ele>
        <time>2021-07-19T09:10:28Z</time>
      </trkpt>
      <trkpt lat="42.64477" lon="1.69467">
        <ele>2060.139</ele>
        <time>2021-07-19T09:10:30Z</time>
      </trkpt>
      <trkpt lat="42.64477" lon="1.69468">
        <ele>2060.088</ele>
        <time>2021-07-19T09:10:32Z</time>
      </trkpt>
      <trkpt lat="42.64478" lon="1.69466">
        <ele>2060.866</ele>
        <time>2021-07-19T09:10:34Z</time>
      </trkpt>
      <trkpt lat="42.64478" lon="1.69466">
        <ele>2061.205</ele>
        <time>2021-07-19T09:10:36Z</time>
      </trkpt>
      <trkpt lat="42.64479" lon="1.69466">
        <ele>2061.78</ele>
        <time>2021-07-19T09:10:38Z</time>
      </trkpt>
      <trkpt lat="42.6448" lon="1.69465">
        <ele>2061.62</ele>
        <time>2021-07-19T09:10:40Z</time>
      </trkpt>
      <trkpt lat="42.6448" lon="1.69465">
        <ele>2061.672</ele>
        <time>2021-07-19T09:10:42Z</time>
      </trkpt>
      <trkpt lat="42.64482" lon="1.69466">
        <ele>2061.947</ele>
        <time>2021-07-19T09:10:44Z</time>
      </trkpt>
      <trkpt lat="42.64482" lon="1.69466">
        <ele>2062.161</ele>
        <time>2021-07-19T09:10:46Z</time>
      </trkpt>
      <trkpt lat="42.64483" lon="1.69466">
        <ele>2062.288</ele>
        <time>2021-07-19T09:10:48Z</time>
      </trkpt>
      <trkpt lat="42.64485" lon="1.69466">
        <ele>2062.427</ele>
        <time>2021-07-19T09:10:50Z</time>
      </trkpt>
      <trkpt lat="42.64485" lon="1.69465">
        <ele>2062.283</ele>
        <time>2021-07-19T09:10:52Z</time>
      </trkpt>
      <trkpt lat="42.64486" lon="1.69465">
        <ele>2062.377</ele>
        <time>2021-07-19T09:10:54Z</time>
      </trkpt>
      <trkpt lat="42.64487" lon="1.69464">
        <ele>2062.763</ele>
        <time>2021-07-19T09:10:56Z</time>
      </trkpt>
      <trkpt lat="42.64488" lon="1.69464">
        <ele>2062.866</ele>
        <time>2021-07-19T09:10:58Z</time>
      </trkpt>
      <trkpt lat="42.64489" lon="1.69463">
        <ele>2062.526</ele>
        <time>2021-07-19T09:11:00Z</time>
      </trkpt>
      <trkpt lat="42.6449" lon="1.69463">
        <ele>2062.092</ele>
        <time>2021-07-19T09:11:02Z</time>
      </trkpt>
      <trkpt lat="42.64491" lon="1.69463">
        <ele>2062.41</ele>
        <time>2021-07-19T09:11:04Z</time>
      </trkpt>
      <trkpt lat="42.64492" lon="1.69462">
        <ele>2062.71</ele>
        <time>2021-07-19T09:11:06Z</time>
      </trkpt>
      <trkpt lat="42.64494" lon="1.69462">
        <ele>2062.597</ele>
        <time>2021-07-19T09:11:08Z</time>
      </trkpt>
      <trkpt lat="42.64495" lon="1.69461">
        <ele>2062.965</ele>
        <time>2021-07-19T09:11:10Z</time>
      </trkpt>
      <trkpt lat="42.64496" lon="1.69461">
        <ele>2063.614</ele>
        <time>2021-07-19T09:11:12Z</time>
      </trkpt>
      <trkpt lat="42.64497" lon="1.6946">
        <ele>2063.085</ele>
        <time>2021-07-19T09:11:14Z</time>
      </trkpt>
      <trkpt lat="42.64497" lon="1.6946">
        <ele>2063.095</ele>
        <time>2021-07-19T09:11:16Z</time>
      </trkpt>
      <trkpt lat="42.64498" lon="1.6946">
        <ele>2063.689</ele>
        <time>2021-07-19T09:11:18Z</time>
      </trkpt>
      <trkpt lat="42.64499" lon="1.6946">
        <ele>2064.351</ele>
        <time>2021-07-19T09:11:20Z</time>
      </trkpt>
      <trkpt lat="42.645" lon="1.6946">
        <ele>2064.768</ele>
        <time>2021-07-19T09:11:22Z</time>
      </trkpt>
      <trkpt lat="42.64501" lon="1.6946">
        <ele>2065.521</ele>
        <time>2021-07-19T09:11:24Z</time>
      </trkpt>
      <trkpt lat="42.64502" lon="1.69459">
        <ele>2065.537</ele>
        <time>2021-07-19T09:11:26Z</time>
      </trkpt>
      <trkpt lat="42.64504" lon="1.69459">
        <ele>2066.26</ele>
        <time>2021-07-19T09:11:28Z</time>
      </trkpt>
      <trkpt lat="42.64504" lon="1.69459">
        <ele>2066.958</ele>
        <time>2021-07-19T09:11:30Z</time>
      </trkpt>
      <trkpt lat="42.64505" lon="1.69459">
        <ele>2066.897</ele>
        <time>2021-07-19T09:11:32Z</time>
      </trkpt>
      <trkpt lat="42.64505" lon="1.69459">
        <ele>2067.514</ele>
        <time>2021-07-19T09:11:34Z</time>
      </trkpt>
      <trkpt lat="42.64506" lon="1.69459">
        <ele>2067.694</ele>
        <time>2021-07-19T09:11:36Z</time>
      </trkpt>
      <trkpt lat="42.64506" lon="1.69459">
        <ele>2068.261</ele>
        <time>2021-07-19T09:11:38Z</time>
      </trkpt>
      <trkpt lat="42.64507" lon="1.69459">
        <ele>2068.357</ele>
        <time>2021-07-19T09:11:40Z</time>
      </trkpt>
      <trkpt lat="42.64507" lon="1.69459">
        <ele>2068.359</ele>
        <time>2021-07-19T09:11:42Z</time>
      </trkpt>
      <trkpt lat="42.64507" lon="1.69459">
        <ele>2068.363</ele>
        <time>2021-07-19T09:11:44Z</time>
      </trkpt>
      <trkpt lat="42.64507" lon="1.69459">
        <ele>2068.429</ele>
        <time>2021-07-19T09:11:46Z</time>
      </trkpt>
      <trkpt lat="42.64507" lon="1.69459">
        <ele>2068.144</ele>
        <time>2021-07-19T09:11:48Z</time>
      </trkpt>
      <trkpt lat="42.64507" lon="1.69459">
        <ele>2068.157</ele>
        <time>2021-07-19T09:11:50Z</time>
      </trkpt>
      <trkpt lat="42.64507" lon="1.69459">
        <ele>2067.611</ele>
        <time>2021-07-19T09:11:52Z</time>
      </trkpt>
      <trkpt lat="42.64507" lon="1.69459">
        <ele>2067.464</ele>
        <time>2021-07-19T09:11:54Z</time>
      </trkpt>
      <trkpt lat="42.64508" lon="1.69459">
        <ele>2067.205</ele>
        <time>2021-07-19T09:11:56Z</time>
      </trkpt>
      <trkpt lat="42.6451" lon="1.69459">
        <ele>2067.322</ele>
        <time>2021-07-19T09:11:58Z</time>
      </trkpt>
      <trkpt lat="42.64511" lon="1.69459">
        <ele>2067.8</ele>
        <time>2021-07-19T09:12:00Z</time>
      </trkpt>
      <trkpt lat="42.64512" lon="1.69458">
        <ele>2067.572</ele>
        <time>2021-07-19T09:12:02Z</time>
      </trkpt>
      <trkpt lat="42.64514" lon="1.69458">
        <ele>2067.857</ele>
        <time>2021-07-19T09:12:04Z</time>
      </trkpt>
      <trkpt lat="42.64515" lon="1.69458">
        <ele>2068.054</ele>
        <time>2021-07-19T09:12:06Z</time>
      </trkpt>
      <trkpt lat="42.64516" lon="1.69457">
        <ele>2068.024</ele>
        <time>2021-07-19T09:12:08Z</time>
      </trkpt>
      <trkpt lat="42.64516" lon="1.69457">
        <ele>2068.056</ele>
        <time>2021-07-19T09:12:10Z</time>
      </trkpt>
      <trkpt lat="42.64516" lon="1.69458">
        <ele>2068.426</ele>
        <time>2021-07-19T09:12:12Z</time>
      </trkpt>
      <trkpt lat="42.64517" lon="1.69458">
        <ele>2068.398</ele>
        <time>2021-07-19T09:12:14Z</time>
      </trkpt>
      <trkpt lat="42.64517" lon="1.69457">
        <ele>2068.6</ele>
        <time>2021-07-19T09:12:16Z</time>
      </trkpt>
      <trkpt lat="42.64518" lon="1.69457">
        <ele>2068.011</ele>
        <time>2021-07-19T09:12:18Z</time>
      </trkpt>
      <trkpt lat="42.6452" lon="1.69457">
        <ele>2067.417</ele>
        <time>2021-07-19T09:12:20Z</time>
      </trkpt>
      <trkpt lat="42.64521" lon="1.69458">
        <ele>2067.41</ele>
        <time>2021-07-19T09:12:22Z</time>
      </trkpt>
      <trkpt lat="42.64521" lon="1.69457">
        <ele>2067.462</ele>
        <time>2021-07-19T09:12:24Z</time>
      </trkpt>
      <trkpt lat="42.64522" lon="1.69457">
        <ele>2067.16</ele>
        <time>2021-07-19T09:12:26Z</time>
      </trkpt>
      <trkpt lat="42.64523" lon="1.69458">
        <ele>2067.421</ele>
        <time>2021-07-19T09:12:28Z</time>
      </trkpt>
      <trkpt lat="42.64524" lon="1.69457">
        <ele>2066.942</ele>
        <time>2021-07-19T09:12:30Z</time>
      </trkpt>
      <trkpt lat="42.64525" lon="1.69457">
        <ele>2066.978</ele>
        <time>2021-07-19T09:12:32Z</time>
      </trkpt>
      <trkpt lat="42.64525" lon="1.69457">
        <ele>2066.955</ele>
        <time>2021-07-19T09:12:34Z</time>
      </trkpt>
      <trkpt lat="42.64526" lon="1.69457">
        <ele>2067.103</ele>
        <time>2021-07-19T09:12:36Z</time>
      </trkpt>
      <trkpt lat="42.64527" lon="1.69456">
        <ele>2067.003</ele>
        <time>2021-07-19T09:12:38Z</time>
      </trkpt>
      <trkpt lat="42.64527" lon="1.69456">
        <ele>2066.556</ele>
        <time>2021-07-19T09:12:40Z</time>
      </trkpt>
      <trkpt lat="42.64528" lon="1.69456">
        <ele>2066.224</ele>
        <time>2021-07-19T09:12:42Z</time>
      </trkpt>
      <trkpt lat="42.6453" lon="1.69456">
        <ele>2065.781</ele>
        <time>2021-07-19T09:12:44Z</time>
      </trkpt>
      <trkpt lat="42.64531" lon="1.69455">
        <ele>2066.004</ele>
        <time>2021-07-19T09:12:46Z</time>
      </trkpt>
      <trkpt lat="42.64532" lon="1.69455">
        <ele>2066.042</ele>
        <time>2021-07-19T09:12:48Z</time>
      </trkpt>
      <trkpt lat="42.64533" lon="1.69455">
        <ele>2065.469</ele>
        <time>2021-07-19T09:12:50Z</time>
      </trkpt>
      <trkpt lat="42.64534" lon="1.69455">
        <ele>2065.18</ele>
        <time>2021-07-19T09:12:52Z</time>
      </trkpt>
      <trkpt lat="42.64534" lon="1.69455">
        <ele>2065.08</ele>
        <time>2021-07-19T09:12:54Z</time>
      </trkpt>
      <trkpt lat="42.64535" lon="1.69456">
        <ele>2065.614</ele>
        <time>2021-07-19T09:12:56Z</time>
      </trkpt>
      <trkpt lat="42.64537" lon="1.69456">
        <ele>2065.803</ele>
        <time>2021-07-19T09:12:58Z</time>
      </trkpt>
      <trkpt lat="42.64538" lon="1.69456">
        <ele>2065.851</ele>
        <time>2021-07-19T09:13:00Z</time>
      </trkpt>
      <trkpt lat="42.64539" lon="1.69456">
        <ele>2066.007</ele>
        <time>2021-07-19T09:13:02Z</time>
      </trkpt>
      <trkpt lat="42.64541" lon="1.69456">
        <ele>2066.132</ele>
        <time>2021-07-19T09:13:04Z</time>
      </trkpt>
      <trkpt lat="42.64541" lon="1.69456">
        <ele>2065.887</ele>
        <time>2021-07-19T09:13:06Z</time>
      </trkpt>
      <trkpt lat="42.64542" lon="1.69456">
        <ele>2065.883</ele>
        <time>2021-07-19T09:13:08Z</time>
      </trkpt>
      <trkpt lat="42.64542" lon="1.69456">
        <ele>2065.223</ele>
        <time>2021-07-19T09:13:10Z</time>
      </trkpt>
      <trkpt lat="42.64542" lon="1.69456">
        <ele>2065.216</ele>
        <time>2021-07-19T09:13:12Z</time>
      </trkpt>
      <trkpt lat="42.64542" lon="1.69456">
        <ele>2065.112</ele>
        <time>2021-07-19T09:13:14Z</time>
      </trkpt>
      <trkpt lat="42.64544" lon="1.69457">
        <ele>2064.666</ele>
        <time>2021-07-19T09:13:16Z</time>
      </trkpt>
      <trkpt lat="42.64544" lon="1.69457">
        <ele>2064.35</ele>
        <time>2021-07-19T09:13:18Z</time>
      </trkpt>
      <trkpt lat="42.64546" lon="1.69457">
        <ele>2063.948</ele>
        <time>2021-07-19T09:13:20Z</time>
      </trkpt>
      <trkpt lat="42.64547" lon="1.69456">
        <ele>2063.57</ele>
        <time>2021-07-19T09:13:22Z</time>
      </trkpt>
      <trkpt lat="42.64549" lon="1.69456">
        <ele>2063.528</ele>
        <time>2021-07-19T09:13:24Z</time>
      </trkpt>
      <trkpt lat="42.64551" lon="1.69456">
        <ele>2063.326</ele>
        <time>2021-07-19T09:13:26Z</time>
      </trkpt>
      <trkpt lat="42.64553" lon="1.69456">
        <ele>2063.612</ele>
        <time>2021-07-19T09:13:28Z</time>
      </trkpt>
      <trkpt lat="42.64555" lon="1.69456">
        <ele>2064.288</ele>
        <time>2021-07-19T09:13:30Z</time>
      </trkpt>
      <trkpt lat="42.64556" lon="1.69456">
        <ele>2064.253</ele>
        <time>2021-07-19T09:13:32Z</time>
      </trkpt>
      <trkpt lat="42.64557" lon="1.69455">
        <ele>2063.945</ele>
        <time>2021-07-19T09:13:34Z</time>
      </trkpt>
      <trkpt lat="42.64559" lon="1.69455">
        <ele>2064.569</ele>
        <time>2021-07-19T09:13:36Z</time>
      </trkpt>
      <trkpt lat="42.6456" lon="1.69455">
        <ele>2064.669</ele>
        <time>2021-07-19T09:13:38Z</time>
      </trkpt>
      <trkpt lat="42.64561" lon="1.69454">
        <ele>2065.051</ele>
        <time>2021-07-19T09:13:40Z</time>
      </trkpt>
      <trkpt lat="42.64561" lon="1.69453">
        <ele>2065.331</ele>
        <time>2021-07-19T09:13:42Z</time>
      </trkpt>
      <trkpt lat="42.64563" lon="1.69454">
        <ele>2065.175</ele>
        <time>2021-07-19T09:13:44Z</time>
      </trkpt>
      <trkpt lat="42.64565" lon="1.69454">
        <ele>2066.038</ele>
        <time>2021-07-19T09:13:46Z</time>
      </trkpt>
      <trkpt lat="42.64565" lon="1.69453">
        <ele>2065.838</ele>
        <time>2021-07-19T09:13:48Z</time>
      </trkpt>
      <trkpt lat="42.64566" lon="1.69453">
        <ele>2065.899</ele>
        <time>2021-07-19T09:13:50Z</time>
      </trkpt>
      <trkpt lat="42.64568" lon="1.69453">
        <ele>2065.792</ele>
        <time>2021-07-19T09:13:52Z</time>
      </trkpt>
      <trkpt lat="42.64569" lon="1.69453">
        <ele>2065.388</ele>
        <time>2021-07-19T09:13:54Z</time>
      </trkpt>
      <trkpt lat="42.64571" lon="1.69452">
        <ele>2065.631</ele>
        <time>2021-07-19T09:13:56Z</time>
      </trkpt>
      <trkpt lat="42.64572" lon="1.69452">
        <ele>2065.565</ele>
        <time>2021-07-19T09:13:58Z</time>
      </trkpt>
      <trkpt lat="42.64574" lon="1.69451">
        <ele>2065.601</ele>
        <time>2021-07-19T09:14:00Z</time>
      </trkpt>
      <trkpt lat="42.64575" lon="1.69451">
        <ele>2066.081</ele>
        <time>2021-07-19T09:14:02Z</time>
      </trkpt>
      <trkpt lat="42.64576" lon="1.6945">
        <ele>2066.007</ele>
        <time>2021-07-19T09:14:04Z</time>
      </trkpt>
      <trkpt lat="42.64578" lon="1.6945">
        <ele>2066.024</ele>
        <time>2021-07-19T09:14:06Z</time>
      </trkpt>
      <trkpt lat="42.64579" lon="1.69449">
        <ele>2066.148</ele>
        <time>2021-07-19T09:14:08Z</time>
      </trkpt>
      <trkpt lat="42.64581" lon="1.69449">
        <ele>2066.176</ele>
        <time>2021-07-19T09:14:10Z</time>
      </trkpt>
      <trkpt lat="42.64582" lon="1.69448">
        <ele>2066.671</ele>
        <time>2021-07-19T09:14:12Z</time>
      </trkpt>
      <trkpt lat="42.64583" lon="1.69448">
        <ele>2066.635</ele>
        <time>2021-07-19T09:14:14Z</time>
      </trkpt>
      <trkpt lat="42.64585" lon="1.69448">
        <ele>2066.556</ele>
        <time>2021-07-19T09:14:16Z</time>
      </trkpt>
      <trkpt lat="42.64586" lon="1.69448">
        <ele>2066.197</ele>
        <time>2021-07-19T09:14:18Z</time>
      </trkpt>
      <trkpt lat="42.64587" lon="1.69447">
        <ele>2066.409</ele>
        <time>2021-07-19T09:14:20Z</time>
      </trkpt>
      <trkpt lat="42.64589" lon="1.69446">
        <ele>2067.314</ele>
        <time>2021-07-19T09:14:22Z</time>
      </trkpt>
      <trkpt lat="42.6459" lon="1.69445">
        <ele>2067.513</ele>
        <time>2021-07-19T09:14:24Z</time>
      </trkpt>
      <trkpt lat="42.64592" lon="1.69445">
        <ele>2067.196</ele>
        <time>2021-07-19T09:14:26Z</time>
      </trkpt>
      <trkpt lat="42.64593" lon="1.69445">
        <ele>2066.637</ele>
        <time>2021-07-19T09:14:28Z</time>
      </trkpt>
      <trkpt lat="42.64594" lon="1.69445">
        <ele>2066.242</ele>
        <time>2021-07-19T09:14:30Z</time>
      </trkpt>
      <trkpt lat="42.64595" lon="1.69444">
        <ele>2066.39</ele>
        <time>2021-07-19T09:14:32Z</time>
      </trkpt>
      <trkpt lat="42.64597" lon="1.69443">
        <ele>2066.591</ele>
        <time>2021-07-19T09:14:34Z</time>
      </trkpt>
      <trkpt lat="42.64598" lon="1.69444">
        <ele>2066.536</ele>
        <time>2021-07-19T09:14:36Z</time>
      </trkpt>
      <trkpt lat="42.646" lon="1.69444">
        <ele>2066.753</ele>
        <time>2021-07-19T09:14:38Z</time>
      </trkpt>
      <trkpt lat="42.64601" lon="1.69444">
        <ele>2067.2</ele>
        <time>2021-07-19T09:14:40Z</time>
      </trkpt>
      <trkpt lat="42.64603" lon="1.69444">
        <ele>2068.226</ele>
        <time>2021-07-19T09:14:42Z</time>
      </trkpt>
      <trkpt lat="42.64605" lon="1.69443">
        <ele>2069.062</ele>
        <time>2021-07-19T09:14:44Z</time>
      </trkpt>
      <trkpt lat="42.64606" lon="1.69443">
        <ele>2069.407</ele>
        <time>2021-07-19T09:14:46Z</time>
      </trkpt>
      <trkpt lat="42.64607" lon="1.69442">
        <ele>2070.526</ele>
        <time>2021-07-19T09:14:48Z</time>
      </trkpt>
      <trkpt lat="42.64608" lon="1.69442">
        <ele>2071.087</ele>
        <time>2021-07-19T09:14:50Z</time>
      </trkpt>
      <trkpt lat="42.6461" lon="1.69441">
        <ele>2071.783</ele>
        <time>2021-07-19T09:14:52Z</time>
      </trkpt>
      <trkpt lat="42.64611" lon="1.6944">
        <ele>2072.364</ele>
        <time>2021-07-19T09:14:54Z</time>
      </trkpt>
      <trkpt lat="42.64612" lon="1.6944">
        <ele>2073.078</ele>
        <time>2021-07-19T09:14:56Z</time>
      </trkpt>
      <trkpt lat="42.64613" lon="1.6944">
        <ele>2073.758</ele>
        <time>2021-07-19T09:14:58Z</time>
      </trkpt>
      <trkpt lat="42.64614" lon="1.6944">
        <ele>2073.334</ele>
        <time>2021-07-19T09:15:00Z</time>
      </trkpt>
      <trkpt lat="42.64615" lon="1.6944">
        <ele>2073.256</ele>
        <time>2021-07-19T09:15:02Z</time>
      </trkpt>
      <trkpt lat="42.64616" lon="1.6944">
        <ele>2073.59</ele>
        <time>2021-07-19T09:15:04Z</time>
      </trkpt>
      <trkpt lat="42.64617" lon="1.69439">
        <ele>2073.605</ele>
        <time>2021-07-19T09:15:06Z</time>
      </trkpt>
      <trkpt lat="42.64618" lon="1.69439">
        <ele>2073.965</ele>
        <time>2021-07-19T09:15:08Z</time>
      </trkpt>
      <trkpt lat="42.64619" lon="1.69439">
        <ele>2074.399</ele>
        <time>2021-07-19T09:15:10Z</time>
      </trkpt>
      <trkpt lat="42.64619" lon="1.69439">
        <ele>2074.359</ele>
        <time>2021-07-19T09:15:12Z</time>
      </trkpt>
      <trkpt lat="42.64619" lon="1.69439">
        <ele>2074.351</ele>
        <time>2021-07-19T09:15:14Z</time>
      </trkpt>
      <trkpt lat="42.64619" lon="1.69439">
        <ele>2074.339</ele>
        <time>2021-07-19T09:15:16Z</time>
      </trkpt>
      <trkpt lat="42.64619" lon="1.69439">
        <ele>2074.33</ele>
        <time>2021-07-19T09:15:18Z</time>
      </trkpt>
      <trkpt lat="42.64619" lon="1.69439">
        <ele>2074.108</ele>
        <time>2021-07-19T09:15:20Z</time>
      </trkpt>
      <trkpt lat="42.64619" lon="1.69438">
        <ele>2074.236</ele>
        <time>2021-07-19T09:15:22Z</time>
      </trkpt>
      <trkpt lat="42.64619" lon="1.69438">
        <ele>2074.24</ele>
        <time>2021-07-19T09:15:24Z</time>
      </trkpt>
      <trkpt lat="42.64619" lon="1.69438">
        <ele>2074.238</ele>
        <time>2021-07-19T09:15:26Z</time>
      </trkpt>
      <trkpt lat="42.64619" lon="1.69438">
        <ele>2074.239</ele>
        <time>2021-07-19T09:15:28Z</time>
      </trkpt>
      <trkpt lat="42.64619" lon="1.69438">
        <ele>2074.234</ele>
        <time>2021-07-19T09:15:30Z</time>
      </trkpt>
      <trkpt lat="42.64619" lon="1.69438">
        <ele>2074.238</ele>
        <time>2021-07-19T09:15:32Z</time>
      </trkpt>
      <trkpt lat="42.64619" lon="1.69438">
        <ele>2074.239</ele>
        <time>2021-07-19T09:15:34Z</time>
      </trkpt>
      <trkpt lat="42.64619" lon="1.69438">
        <ele>2074.247</ele>
        <time>2021-07-19T09:15:36Z</time>
      </trkpt>
      <trkpt lat="42.64619" lon="1.69438">
        <ele>2074.246</ele>
        <time>2021-07-19T09:15:38Z</time>
      </trkpt>
      <trkpt lat="42.64619" lon="1.69438">
        <ele>2074.243</ele>
        <time>2021-07-19T09:15:40Z</time>
      </trkpt>
      <trkpt lat="42.64619" lon="1.69438">
        <ele>2074.243</ele>
        <time>2021-07-19T09:15:42Z</time>
      </trkpt>
      <trkpt lat="42.64619" lon="1.69438">
        <ele>2074.236</ele>
        <time>2021-07-19T09:15:44Z</time>
      </trkpt>
      <trkpt lat="42.64619" lon="1.69438">
        <ele>2074.235</ele>
        <time>2021-07-19T09:15:46Z</time>
      </trkpt>
      <trkpt lat="42.64619" lon="1.69438">
        <ele>2074.229</ele>
        <time>2021-07-19T09:15:48Z</time>
      </trkpt>
      <trkpt lat="42.64619" lon="1.69438">
        <ele>2074.233</ele>
        <time>2021-07-19T09:15:50Z</time>
      </trkpt>
      <trkpt lat="42.64619" lon="1.69438">
        <ele>2074.206</ele>
        <time>2021-07-19T09:15:52Z</time>
      </trkpt>
      <trkpt lat="42.64619" lon="1.69438">
        <ele>2074.182</ele>
        <time>2021-07-19T09:15:54Z</time>
      </trkpt>
      <trkpt lat="42.64619" lon="1.69438">
        <ele>2074.171</ele>
        <time>2021-07-19T09:15:56Z</time>
      </trkpt>
      <trkpt lat="42.64619" lon="1.69438">
        <ele>2073.907</ele>
        <time>2021-07-19T09:15:58Z</time>
      </trkpt>
      <trkpt lat="42.64619" lon="1.69438">
        <ele>2073.902</ele>
        <time>2021-07-19T09:16:00Z</time>
      </trkpt>
      <trkpt lat="42.64619" lon="1.69438">
        <ele>2073.899</ele>
        <time>2021-07-19T09:16:02Z</time>
      </trkpt>
      <trkpt lat="42.64619" lon="1.69438">
        <ele>2073.903</ele>
        <time>2021-07-19T09:16:04Z</time>
      </trkpt>
      <trkpt lat="42.64619" lon="1.69438">
        <ele>2073.894</ele>
        <time>2021-07-19T09:16:06Z</time>
      </trkpt>
      <trkpt lat="42.64619" lon="1.69438">
        <ele>2073.9</ele>
        <time>2021-07-19T09:16:08Z</time>
      </trkpt>
      <trkpt lat="42.64619" lon="1.69438">
        <ele>2073.902</ele>
        <time>2021-07-19T09:16:10Z</time>
      </trkpt>
      <trkpt lat="42.6462" lon="1.69438">
        <ele>2073.929</ele>
        <time>2021-07-19T09:16:12Z</time>
      </trkpt>
      <trkpt lat="42.64622" lon="1.69437">
        <ele>2073.804</ele>
        <time>2021-07-19T09:16:14Z</time>
      </trkpt>
      <trkpt lat="42.64623" lon="1.69435">
        <ele>2072.911</ele>
        <time>2021-07-19T09:16:16Z</time>
      </trkpt>
      <trkpt lat="42.64624" lon="1.69434">
        <ele>2072.558</ele>
        <time>2021-07-19T09:16:18Z</time>
      </trkpt>
      <trkpt lat="42.64625" lon="1.69432">
        <ele>2071.484</ele>
        <time>2021-07-19T09:16:20Z</time>
      </trkpt>
      <trkpt lat="42.64626" lon="1.6943">
        <ele>2070.796</ele>
        <time>2021-07-19T09:16:22Z</time>
      </trkpt>
      <trkpt lat="42.64627" lon="1.69429">
        <ele>2070.622</ele>
        <time>2021-07-19T09:16:24Z</time>
      </trkpt>
      <trkpt lat="42.64629" lon="1.69426">
        <ele>2070.001</ele>
        <time>2021-07-19T09:16:26Z</time>
      </trkpt>
      <trkpt lat="42.6463" lon="1.69424">
        <ele>2069.856</ele>
        <time>2021-07-19T09:16:28Z</time>
      </trkpt>
      <trkpt lat="42.64631" lon="1.69423">
        <ele>2069.827</ele>
        <time>2021-07-19T09:16:30Z</time>
      </trkpt>
      <trkpt lat="42.64632" lon="1.69422">
        <ele>2068.558</ele>
        <time>2021-07-19T09:16:32Z</time>
      </trkpt>
      <trkpt lat="42.64634" lon="1.69421">
        <ele>2068.691</ele>
        <time>2021-07-19T09:16:34Z</time>
      </trkpt>
      <trkpt lat="42.64635" lon="1.69419">
        <ele>2067.99</ele>
        <time>2021-07-19T09:16:36Z</time>
      </trkpt>
      <trkpt lat="42.64636" lon="1.69418">
        <ele>2067.865</ele>
        <time>2021-07-19T09:16:38Z</time>
      </trkpt>
      <trkpt lat="42.64637" lon="1.69417">
        <ele>2067.338</ele>
        <time>2021-07-19T09:16:40Z</time>
      </trkpt>
      <trkpt lat="42.64639" lon="1.69416">
        <ele>2067.359</ele>
        <time>2021-07-19T09:16:42Z</time>
      </trkpt>
      <trkpt lat="42.64641" lon="1.69415">
        <ele>2066.856</ele>
        <time>2021-07-19T09:16:44Z</time>
      </trkpt>
      <trkpt lat="42.64642" lon="1.69413">
        <ele>2066.236</ele>
        <time>2021-07-19T09:16:46Z</time>
      </trkpt>
      <trkpt lat="42.64643" lon="1.69412">
        <ele>2065.863</ele>
        <time>2021-07-19T09:16:48Z</time>
      </trkpt>
      <trkpt lat="42.64644" lon="1.69411">
        <ele>2065.066</ele>
        <time>2021-07-19T09:16:50Z</time>
      </trkpt>
      <trkpt lat="42.64645" lon="1.69409">
        <ele>2064.692</ele>
        <time>2021-07-19T09:16:52Z</time>
      </trkpt>
      <trkpt lat="42.64647" lon="1.69408">
        <ele>2065.022</ele>
        <time>2021-07-19T09:16:54Z</time>
      </trkpt>
      <trkpt lat="42.6465" lon="1.69407">
        <ele>2064.81</ele>
        <time>2021-07-19T09:16:56Z</time>
      </trkpt>
      <trkpt lat="42.64651" lon="1.69407">
        <ele>2064.158</ele>
        <time>2021-07-19T09:16:58Z</time>
      </trkpt>
      <trkpt lat="42.64653" lon="1.69406">
        <ele>2063.872</ele>
        <time>2021-07-19T09:17:00Z</time>
      </trkpt>
      <trkpt lat="42.64655" lon="1.69405">
        <ele>2063.488</ele>
        <time>2021-07-19T09:17:02Z</time>
      </trkpt>
      <trkpt lat="42.64657" lon="1.69404">
        <ele>2063.931</ele>
        <time>2021-07-19T09:17:04Z</time>
      </trkpt>
      <trkpt lat="42.64658" lon="1.69403">
        <ele>2063.142</ele>
        <time>2021-07-19T09:17:06Z</time>
      </trkpt>
      <trkpt lat="42.6466" lon="1.69402">
        <ele>2063.043</ele>
        <time>2021-07-19T09:17:08Z</time>
      </trkpt>
      <trkpt lat="42.64662" lon="1.69402">
        <ele>2063.025</ele>
        <time>2021-07-19T09:17:10Z</time>
      </trkpt>
      <trkpt lat="42.64663" lon="1.69401">
        <ele>2062.453</ele>
        <time>2021-07-19T09:17:12Z</time>
      </trkpt>
      <trkpt lat="42.64665" lon="1.694">
        <ele>2062.558</ele>
        <time>2021-07-19T09:17:14Z</time>
      </trkpt>
      <trkpt lat="42.64666" lon="1.69398">
        <ele>2062.853</ele>
        <time>2021-07-19T09:17:16Z</time>
      </trkpt>
      <trkpt lat="42.64667" lon="1.69397">
        <ele>2063.148</ele>
        <time>2021-07-19T09:17:18Z</time>
      </trkpt>
      <trkpt lat="42.64668" lon="1.69396">
        <ele>2063.282</ele>
        <time>2021-07-19T09:17:20Z</time>
      </trkpt>
      <trkpt lat="42.6467" lon="1.69396">
        <ele>2062.838</ele>
        <time>2021-07-19T09:17:22Z</time>
      </trkpt>
      <trkpt lat="42.64672" lon="1.69395">
        <ele>2062.378</ele>
        <time>2021-07-19T09:17:24Z</time>
      </trkpt>
      <trkpt lat="42.64673" lon="1.69394">
        <ele>2061.784</ele>
        <time>2021-07-19T09:17:26Z</time>
      </trkpt>
      <trkpt lat="42.64675" lon="1.69393">
        <ele>2060.934</ele>
        <time>2021-07-19T09:17:28Z</time>
      </trkpt>
      <trkpt lat="42.64676" lon="1.69392">
        <ele>2061.49</ele>
        <time>2021-07-19T09:17:30Z</time>
      </trkpt>
      <trkpt lat="42.64677" lon="1.69391">
        <ele>2060.862</ele>
        <time>2021-07-19T09:17:32Z</time>
      </trkpt>
      <trkpt lat="42.64679" lon="1.6939">
        <ele>2060.566</ele>
        <time>2021-07-19T09:17:34Z</time>
      </trkpt>
      <trkpt lat="42.64681" lon="1.6939">
        <ele>2060.406</ele>
        <time>2021-07-19T09:17:36Z</time>
      </trkpt>
      <trkpt lat="42.64682" lon="1.69388">
        <ele>2061.239</ele>
        <time>2021-07-19T09:17:38Z</time>
      </trkpt>
      <trkpt lat="42.64683" lon="1.69387">
        <ele>2061.854</ele>
        <time>2021-07-19T09:17:40Z</time>
      </trkpt>
      <trkpt lat="42.64685" lon="1.69386">
        <ele>2061.63</ele>
        <time>2021-07-19T09:17:42Z</time>
      </trkpt>
      <trkpt lat="42.64686" lon="1.69385">
        <ele>2061.514</ele>
        <time>2021-07-19T09:17:44Z</time>
      </trkpt>
      <trkpt lat="42.64688" lon="1.69384">
        <ele>2061.729</ele>
        <time>2021-07-19T09:17:46Z</time>
      </trkpt>
      <trkpt lat="42.6469" lon="1.69383">
        <ele>2061.38</ele>
        <time>2021-07-19T09:17:48Z</time>
      </trkpt>
      <trkpt lat="42.64691" lon="1.69382">
        <ele>2060.587</ele>
        <time>2021-07-19T09:17:50Z</time>
      </trkpt>
      <trkpt lat="42.64692" lon="1.6938">
        <ele>2061.112</ele>
        <time>2021-07-19T09:17:52Z</time>
      </trkpt>
      <trkpt lat="42.64694" lon="1.69379">
        <ele>2060.52</ele>
        <time>2021-07-19T09:17:54Z</time>
      </trkpt>
      <trkpt lat="42.64694" lon="1.69379">
        <ele>2060.001</ele>
        <time>2021-07-19T09:17:56Z</time>
      </trkpt>
      <trkpt lat="42.64695" lon="1.69379">
        <ele>2059.82</ele>
        <time>2021-07-19T09:17:58Z</time>
      </trkpt>
      <trkpt lat="42.64696" lon="1.69377">
        <ele>2059.078</ele>
        <time>2021-07-19T09:18:00Z</time>
      </trkpt>
      <trkpt lat="42.64698" lon="1.69376">
        <ele>2058.867</ele>
        <time>2021-07-19T09:18:02Z</time>
      </trkpt>
      <trkpt lat="42.64698" lon="1.69375">
        <ele>2059.466</ele>
        <time>2021-07-19T09:18:04Z</time>
      </trkpt>
      <trkpt lat="42.647" lon="1.69373">
        <ele>2059.621</ele>
        <time>2021-07-19T09:18:06Z</time>
      </trkpt>
      <trkpt lat="42.64701" lon="1.69372">
        <ele>2059.936</ele>
        <time>2021-07-19T09:18:08Z</time>
      </trkpt>
      <trkpt lat="42.64703" lon="1.69372">
        <ele>2059.883</ele>
        <time>2021-07-19T09:18:10Z</time>
      </trkpt>
      <trkpt lat="42.64704" lon="1.69371">
        <ele>2059.016</ele>
        <time>2021-07-19T09:18:12Z</time>
      </trkpt>
      <trkpt lat="42.64706" lon="1.6937">
        <ele>2058.723</ele>
        <time>2021-07-19T09:18:14Z</time>
      </trkpt>
      <trkpt lat="42.64708" lon="1.69369">
        <ele>2059.221</ele>
        <time>2021-07-19T09:18:16Z</time>
      </trkpt>
      <trkpt lat="42.64709" lon="1.69367">
        <ele>2058.771</ele>
        <time>2021-07-19T09:18:18Z</time>
      </trkpt>
      <trkpt lat="42.64711" lon="1.69366">
        <ele>2058.629</ele>
        <time>2021-07-19T09:18:20Z</time>
      </trkpt>
      <trkpt lat="42.64712" lon="1.69365">
        <ele>2057.377</ele>
        <time>2021-07-19T09:18:22Z</time>
      </trkpt>
      <trkpt lat="42.64714" lon="1.69363">
        <ele>2056.627</ele>
        <time>2021-07-19T09:18:24Z</time>
      </trkpt>
      <trkpt lat="42.64715" lon="1.69362">
        <ele>2056.874</ele>
        <time>2021-07-19T09:18:26Z</time>
      </trkpt>
      <trkpt lat="42.64717" lon="1.69361">
        <ele>2057.529</ele>
        <time>2021-07-19T09:18:28Z</time>
      </trkpt>
      <trkpt lat="42.64719" lon="1.6936">
        <ele>2058.12</ele>
        <time>2021-07-19T09:18:30Z</time>
      </trkpt>
      <trkpt lat="42.64721" lon="1.69358">
        <ele>2057.515</ele>
        <time>2021-07-19T09:18:32Z</time>
      </trkpt>
      <trkpt lat="42.64723" lon="1.69357">
        <ele>2058.36</ele>
        <time>2021-07-19T09:18:34Z</time>
      </trkpt>
      <trkpt lat="42.64725" lon="1.69356">
        <ele>2057.662</ele>
        <time>2021-07-19T09:18:36Z</time>
      </trkpt>
      <trkpt lat="42.64726" lon="1.69355">
        <ele>2057.449</ele>
        <time>2021-07-19T09:18:38Z</time>
      </trkpt>
      <trkpt lat="42.64728" lon="1.69353">
        <ele>2056.971</ele>
        <time>2021-07-19T09:18:40Z</time>
      </trkpt>
      <trkpt lat="42.64729" lon="1.69352">
        <ele>2057.871</ele>
        <time>2021-07-19T09:18:42Z</time>
      </trkpt>
      <trkpt lat="42.64731" lon="1.69351">
        <ele>2057.687</ele>
        <time>2021-07-19T09:18:44Z</time>
      </trkpt>
      <trkpt lat="42.64732" lon="1.69348">
        <ele>2057.547</ele>
        <time>2021-07-19T09:18:46Z</time>
      </trkpt>
      <trkpt lat="42.64734" lon="1.69347">
        <ele>2057.685</ele>
        <time>2021-07-19T09:18:48Z</time>
      </trkpt>
      <trkpt lat="42.64735" lon="1.69345">
        <ele>2057.782</ele>
        <time>2021-07-19T09:18:50Z</time>
      </trkpt>
      <trkpt lat="42.64737" lon="1.69343">
        <ele>2058.232</ele>
        <time>2021-07-19T09:18:52Z</time>
      </trkpt>
      <trkpt lat="42.64738" lon="1.69341">
        <ele>2058.031</ele>
        <time>2021-07-19T09:18:54Z</time>
      </trkpt>
      <trkpt lat="42.64739" lon="1.69339">
        <ele>2057.979</ele>
        <time>2021-07-19T09:18:56Z</time>
      </trkpt>
      <trkpt lat="42.6474" lon="1.69338">
        <ele>2057.827</ele>
        <time>2021-07-19T09:18:58Z</time>
      </trkpt>
      <trkpt lat="42.64742" lon="1.69336">
        <ele>2057.798</ele>
        <time>2021-07-19T09:19:00Z</time>
      </trkpt>
      <trkpt lat="42.64742" lon="1.69334">
        <ele>2058.111</ele>
        <time>2021-07-19T09:19:02Z</time>
      </trkpt>
      <trkpt lat="42.64744" lon="1.69333">
        <ele>2059.089</ele>
        <time>2021-07-19T09:19:04Z</time>
      </trkpt>
      <trkpt lat="42.64745" lon="1.69333">
        <ele>2059.791</ele>
        <time>2021-07-19T09:19:06Z</time>
      </trkpt>
      <trkpt lat="42.64747" lon="1.69333">
        <ele>2058.987</ele>
        <time>2021-07-19T09:19:08Z</time>
      </trkpt>
      <trkpt lat="42.64748" lon="1.69333">
        <ele>2059.168</ele>
        <time>2021-07-19T09:19:10Z</time>
      </trkpt>
      <trkpt lat="42.64749" lon="1.69333">
        <ele>2058.849</ele>
        <time>2021-07-19T09:19:12Z</time>
      </trkpt>
      <trkpt lat="42.6475" lon="1.69334">
        <ele>2059.247</ele>
        <time>2021-07-19T09:19:14Z</time>
      </trkpt>
      <trkpt lat="42.64751" lon="1.69334">
        <ele>2059.296</ele>
        <time>2021-07-19T09:19:16Z</time>
      </trkpt>
      <trkpt lat="42.64752" lon="1.69335">
        <ele>2059.168</ele>
        <time>2021-07-19T09:19:18Z</time>
      </trkpt>
      <trkpt lat="42.64754" lon="1.69335">
        <ele>2059.212</ele>
        <time>2021-07-19T09:19:20Z</time>
      </trkpt>
      <trkpt lat="42.64755" lon="1.69335">
        <ele>2058.661</ele>
        <time>2021-07-19T09:19:22Z</time>
      </trkpt>
      <trkpt lat="42.64756" lon="1.69335">
        <ele>2059.425</ele>
        <time>2021-07-19T09:19:24Z</time>
      </trkpt>
      <trkpt lat="42.64757" lon="1.69335">
        <ele>2059.543</ele>
        <time>2021-07-19T09:19:26Z</time>
      </trkpt>
      <trkpt lat="42.64759" lon="1.69335">
        <ele>2059.812</ele>
        <time>2021-07-19T09:19:28Z</time>
      </trkpt>
      <trkpt lat="42.6476" lon="1.69335">
        <ele>2059.827</ele>
        <time>2021-07-19T09:19:30Z</time>
      </trkpt>
      <trkpt lat="42.64762" lon="1.69335">
        <ele>2059.593</ele>
        <time>2021-07-19T09:19:32Z</time>
      </trkpt>
      <trkpt lat="42.64763" lon="1.69335">
        <ele>2058.844</ele>
        <time>2021-07-19T09:19:34Z</time>
      </trkpt>
      <trkpt lat="42.64765" lon="1.69334">
        <ele>2057.977</ele>
        <time>2021-07-19T09:19:36Z</time>
      </trkpt>
      <trkpt lat="42.64766" lon="1.69334">
        <ele>2057.895</ele>
        <time>2021-07-19T09:19:38Z</time>
      </trkpt>
      <trkpt lat="42.64768" lon="1.69334">
        <ele>2058.22</ele>
        <time>2021-07-19T09:19:40Z</time>
      </trkpt>
      <trkpt lat="42.6477" lon="1.69333">
        <ele>2059.124</ele>
        <time>2021-07-19T09:19:42Z</time>
      </trkpt>
      <trkpt lat="42.64772" lon="1.69333">
        <ele>2059.135</ele>
        <time>2021-07-19T09:19:44Z</time>
      </trkpt>
      <trkpt lat="42.64774" lon="1.69332">
        <ele>2059.035</ele>
        <time>2021-07-19T09:19:46Z</time>
      </trkpt>
      <trkpt lat="42.64776" lon="1.69332">
        <ele>2058.042</ele>
        <time>2021-07-19T09:19:48Z</time>
      </trkpt>
      <trkpt lat="42.64778" lon="1.69332">
        <ele>2058.504</ele>
        <time>2021-07-19T09:19:50Z</time>
      </trkpt>
      <trkpt lat="42.6478" lon="1.69331">
        <ele>2058.949</ele>
        <time>2021-07-19T09:19:52Z</time>
      </trkpt>
      <trkpt lat="42.64782" lon="1.69331">
        <ele>2058.871</ele>
        <time>2021-07-19T09:19:54Z</time>
      </trkpt>
      <trkpt lat="42.64783" lon="1.6933">
        <ele>2059.291</ele>
        <time>2021-07-19T09:19:56Z</time>
      </trkpt>
      <trkpt lat="42.64785" lon="1.6933">
        <ele>2059.377</ele>
        <time>2021-07-19T09:19:58Z</time>
      </trkpt>
      <trkpt lat="42.64787" lon="1.6933">
        <ele>2060.198</ele>
        <time>2021-07-19T09:20:00Z</time>
      </trkpt>
      <trkpt lat="42.64789" lon="1.69329">
        <ele>2061.395</ele>
        <time>2021-07-19T09:20:02Z</time>
      </trkpt>
      <trkpt lat="42.6479" lon="1.69329">
        <ele>2061.624</ele>
        <time>2021-07-19T09:20:04Z</time>
      </trkpt>
      <trkpt lat="42.64792" lon="1.69329">
        <ele>2061.19</ele>
        <time>2021-07-19T09:20:06Z</time>
      </trkpt>
      <trkpt lat="42.64794" lon="1.69329">
        <ele>2061.123</ele>
        <time>2021-07-19T09:20:08Z</time>
      </trkpt>
      <trkpt lat="42.64795" lon="1.69328">
        <ele>2061.23</ele>
        <time>2021-07-19T09:20:10Z</time>
      </trkpt>
      <trkpt lat="42.64797" lon="1.69328">
        <ele>2061.5</ele>
        <time>2021-07-19T09:20:12Z</time>
      </trkpt>
      <trkpt lat="42.64799" lon="1.69328">
        <ele>2061.837</ele>
        <time>2021-07-19T09:20:14Z</time>
      </trkpt>
      <trkpt lat="42.64801" lon="1.69327">
        <ele>2062.052</ele>
        <time>2021-07-19T09:20:16Z</time>
      </trkpt>
      <trkpt lat="42.64802" lon="1.69326">
        <ele>2062.013</ele>
        <time>2021-07-19T09:20:18Z</time>
      </trkpt>
      <trkpt lat="42.64804" lon="1.69326">
        <ele>2061.916</ele>
        <time>2021-07-19T09:20:20Z</time>
      </trkpt>
      <trkpt lat="42.64805" lon="1.69326">
        <ele>2062.183</ele>
        <time>2021-07-19T09:20:22Z</time>
      </trkpt>
      <trkpt lat="42.64807" lon="1.69326">
        <ele>2062.829</ele>
        <time>2021-07-19T09:20:24Z</time>
      </trkpt>
      <trkpt lat="42.64809" lon="1.69326">
        <ele>2063.572</ele>
        <time>2021-07-19T09:20:26Z</time>
      </trkpt>
      <trkpt lat="42.6481" lon="1.69325">
        <ele>2064.044</ele>
        <time>2021-07-19T09:20:28Z</time>
      </trkpt>
      <trkpt lat="42.64811" lon="1.69324">
        <ele>2064.747</ele>
        <time>2021-07-19T09:20:30Z</time>
      </trkpt>
      <trkpt lat="42.64812" lon="1.69325">
        <ele>2064.448</ele>
        <time>2021-07-19T09:20:32Z</time>
      </trkpt>
      <trkpt lat="42.64812" lon="1.69326">
        <ele>2063.686</ele>
        <time>2021-07-19T09:20:34Z</time>
      </trkpt>
      <trkpt lat="42.64814" lon="1.69326">
        <ele>2063.573</ele>
        <time>2021-07-19T09:20:36Z</time>
      </trkpt>
      <trkpt lat="42.64815" lon="1.69326">
        <ele>2063.813</ele>
        <time>2021-07-19T09:20:38Z</time>
      </trkpt>
      <trkpt lat="42.64816" lon="1.69327">
        <ele>2063.764</ele>
        <time>2021-07-19T09:20:40Z</time>
      </trkpt>
      <trkpt lat="42.64817" lon="1.69327">
        <ele>2064.58</ele>
        <time>2021-07-19T09:20:42Z</time>
      </trkpt>
      <trkpt lat="42.64818" lon="1.69327">
        <ele>2064.589</ele>
        <time>2021-07-19T09:20:44Z</time>
      </trkpt>
      <trkpt lat="42.6482" lon="1.69327">
        <ele>2064.056</ele>
        <time>2021-07-19T09:20:46Z</time>
      </trkpt>
      <trkpt lat="42.6482" lon="1.69329">
        <ele>2064.128</ele>
        <time>2021-07-19T09:20:48Z</time>
      </trkpt>
      <trkpt lat="42.64821" lon="1.6933">
        <ele>2064.309</ele>
        <time>2021-07-19T09:20:50Z</time>
      </trkpt>
      <trkpt lat="42.64821" lon="1.6933">
        <ele>2064.454</ele>
        <time>2021-07-19T09:20:52Z</time>
      </trkpt>
      <trkpt lat="42.64821" lon="1.6933">
        <ele>2063.851</ele>
        <time>2021-07-19T09:20:54Z</time>
      </trkpt>
      <trkpt lat="42.64822" lon="1.69332">
        <ele>2063.462</ele>
        <time>2021-07-19T09:20:56Z</time>
      </trkpt>
      <trkpt lat="42.64823" lon="1.69332">
        <ele>2062.98</ele>
        <time>2021-07-19T09:20:58Z</time>
      </trkpt>
      <trkpt lat="42.64825" lon="1.69333">
        <ele>2062.905</ele>
        <time>2021-07-19T09:21:00Z</time>
      </trkpt>
      <trkpt lat="42.64826" lon="1.69332">
        <ele>2062.532</ele>
        <time>2021-07-19T09:21:02Z</time>
      </trkpt>
      <trkpt lat="42.64827" lon="1.69333">
        <ele>2062.281</ele>
        <time>2021-07-19T09:21:04Z</time>
      </trkpt>
      <trkpt lat="42.64828" lon="1.69332">
        <ele>2062.01</ele>
        <time>2021-07-19T09:21:06Z</time>
      </trkpt>
      <trkpt lat="42.64829" lon="1.69333">
        <ele>2061.535</ele>
        <time>2021-07-19T09:21:08Z</time>
      </trkpt>
      <trkpt lat="42.64829" lon="1.69333">
        <ele>2061.131</ele>
        <time>2021-07-19T09:21:10Z</time>
      </trkpt>
      <trkpt lat="42.64831" lon="1.69334">
        <ele>2061.242</ele>
        <time>2021-07-19T09:21:12Z</time>
      </trkpt>
      <trkpt lat="42.64833" lon="1.69334">
        <ele>2060.648</ele>
        <time>2021-07-19T09:21:14Z</time>
      </trkpt>
      <trkpt lat="42.64834" lon="1.69335">
        <ele>2061.188</ele>
        <time>2021-07-19T09:21:16Z</time>
      </trkpt>
      <trkpt lat="42.64835" lon="1.69335">
        <ele>2061.433</ele>
        <time>2021-07-19T09:21:18Z</time>
      </trkpt>
      <trkpt lat="42.64837" lon="1.69336">
        <ele>2061.287</ele>
        <time>2021-07-19T09:21:20Z</time>
      </trkpt>
      <trkpt lat="42.64838" lon="1.69335">
        <ele>2061.091</ele>
        <time>2021-07-19T09:21:22Z</time>
      </trkpt>
      <trkpt lat="42.64839" lon="1.69333">
        <ele>2061.935</ele>
        <time>2021-07-19T09:21:24Z</time>
      </trkpt>
      <trkpt lat="42.64841" lon="1.69333">
        <ele>2062.188</ele>
        <time>2021-07-19T09:21:26Z</time>
      </trkpt>
      <trkpt lat="42.64842" lon="1.69331">
        <ele>2061.545</ele>
        <time>2021-07-19T09:21:28Z</time>
      </trkpt>
      <trkpt lat="42.64844" lon="1.6933">
        <ele>2061.881</ele>
        <time>2021-07-19T09:21:30Z</time>
      </trkpt>
      <trkpt lat="42.64845" lon="1.69328">
        <ele>2062.006</ele>
        <time>2021-07-19T09:21:32Z</time>
      </trkpt>
      <trkpt lat="42.64846" lon="1.69326">
        <ele>2062.066</ele>
        <time>2021-07-19T09:21:34Z</time>
      </trkpt>
      <trkpt lat="42.64848" lon="1.69322">
        <ele>2061.81</ele>
        <time>2021-07-19T09:21:36Z</time>
      </trkpt>
      <trkpt lat="42.64849" lon="1.69319">
        <ele>2062.222</ele>
        <time>2021-07-19T09:21:38Z</time>
      </trkpt>
      <trkpt lat="42.64849" lon="1.69319">
        <ele>2061.709</ele>
        <time>2021-07-19T09:21:40Z</time>
      </trkpt>
      <trkpt lat="42.64849" lon="1.69319">
        <ele>2061.685</ele>
        <time>2021-07-19T09:21:42Z</time>
      </trkpt>
      <trkpt lat="42.64849" lon="1.69319">
        <ele>2061.676</ele>
        <time>2021-07-19T09:21:44Z</time>
      </trkpt>
      <trkpt lat="42.64849" lon="1.69319">
        <ele>2061.652</ele>
        <time>2021-07-19T09:21:46Z</time>
      </trkpt>
      <trkpt lat="42.64849" lon="1.69319">
        <ele>2061.638</ele>
        <time>2021-07-19T09:21:48Z</time>
      </trkpt>
      <trkpt lat="42.64849" lon="1.69319">
        <ele>2061.618</ele>
        <time>2021-07-19T09:21:50Z</time>
      </trkpt>
      <trkpt lat="42.64849" lon="1.69319">
        <ele>2061.589</ele>
        <time>2021-07-19T09:21:52Z</time>
      </trkpt>
      <trkpt lat="42.64849" lon="1.69319">
        <ele>2061.68</ele>
        <time>2021-07-19T09:21:54Z</time>
      </trkpt>
      <trkpt lat="42.6485" lon="1.69318">
        <ele>2062.112</ele>
        <time>2021-07-19T09:21:56Z</time>
      </trkpt>
      <trkpt lat="42.64851" lon="1.69318">
        <ele>2061.35</ele>
        <time>2021-07-19T09:21:58Z</time>
      </trkpt>
      <trkpt lat="42.64852" lon="1.69318">
        <ele>2061.013</ele>
        <time>2021-07-19T09:22:00Z</time>
      </trkpt>
      <trkpt lat="42.64851" lon="1.69316">
        <ele>2062.472</ele>
        <time>2021-07-19T09:22:02Z</time>
      </trkpt>
      <trkpt lat="42.6485" lon="1.69316">
        <ele>2062.138</ele>
        <time>2021-07-19T09:22:04Z</time>
      </trkpt>
      <trkpt lat="42.6485" lon="1.69316">
        <ele>2061.955</ele>
        <time>2021-07-19T09:22:06Z</time>
      </trkpt>
      <trkpt lat="42.6485" lon="1.69315">
        <ele>2061.518</ele>
        <time>2021-07-19T09:22:08Z</time>
      </trkpt>
      <trkpt lat="42.64851" lon="1.69314">
        <ele>2061.011</ele>
        <time>2021-07-19T09:22:10Z</time>
      </trkpt>
      <trkpt lat="42.64852" lon="1.69314">
        <ele>2061.724</ele>
        <time>2021-07-19T09:22:12Z</time>
      </trkpt>
      <trkpt lat="42.64854" lon="1.69314">
        <ele>2061.462</ele>
        <time>2021-07-19T09:22:14Z</time>
      </trkpt>
      <trkpt lat="42.64855" lon="1.69315">
        <ele>2061.977</ele>
        <time>2021-07-19T09:22:16Z</time>
      </trkpt>
      <trkpt lat="42.64856" lon="1.69315">
        <ele>2062.042</ele>
        <time>2021-07-19T09:22:18Z</time>
      </trkpt>
      <trkpt lat="42.64857" lon="1.69315">
        <ele>2062.344</ele>
        <time>2021-07-19T09:22:20Z</time>
      </trkpt>
      <trkpt lat="42.64858" lon="1.69315">
        <ele>2061.808</ele>
        <time>2021-07-19T09:22:22Z</time>
      </trkpt>
      <trkpt lat="42.64859" lon="1.69315">
        <ele>2061.983</ele>
        <time>2021-07-19T09:22:24Z</time>
      </trkpt>
      <trkpt lat="42.6486" lon="1.69315">
        <ele>2062.365</ele>
        <time>2021-07-19T09:22:26Z</time>
      </trkpt>
      <trkpt lat="42.64861" lon="1.69314">
        <ele>2062.748</ele>
        <time>2021-07-19T09:22:28Z</time>
      </trkpt>
      <trkpt lat="42.64863" lon="1.69312">
        <ele>2062.975</ele>
        <time>2021-07-19T09:22:30Z</time>
      </trkpt>
      <trkpt lat="42.64864" lon="1.69312">
        <ele>2063.013</ele>
        <time>2021-07-19T09:22:32Z</time>
      </trkpt>
      <trkpt lat="42.64865" lon="1.69311">
        <ele>2063.375</ele>
        <time>2021-07-19T09:22:34Z</time>
      </trkpt>
      <trkpt lat="42.64866" lon="1.6931">
        <ele>2063.21</ele>
        <time>2021-07-19T09:22:36Z</time>
      </trkpt>
      <trkpt lat="42.64868" lon="1.69309">
        <ele>2063.333</ele>
        <time>2021-07-19T09:22:38Z</time>
      </trkpt>
      <trkpt lat="42.64869" lon="1.69308">
        <ele>2063.621</ele>
        <time>2021-07-19T09:22:40Z</time>
      </trkpt>
      <trkpt lat="42.64871" lon="1.69307">
        <ele>2063.96</ele>
        <time>2021-07-19T09:22:42Z</time>
      </trkpt>
      <trkpt lat="42.64872" lon="1.69307">
        <ele>2063.974</ele>
        <time>2021-07-19T09:22:44Z</time>
      </trkpt>
      <trkpt lat="42.64873" lon="1.69305">
        <ele>2063.498</ele>
        <time>2021-07-19T09:22:46Z</time>
      </trkpt>
      <trkpt lat="42.64875" lon="1.69304">
        <ele>2063.5</ele>
        <time>2021-07-19T09:22:48Z</time>
      </trkpt>
      <trkpt lat="42.64876" lon="1.69303">
        <ele>2063.322</ele>
        <time>2021-07-19T09:22:50Z</time>
      </trkpt>
      <trkpt lat="42.64877" lon="1.69301">
        <ele>2063.839</ele>
        <time>2021-07-19T09:22:52Z</time>
      </trkpt>
      <trkpt lat="42.64878" lon="1.693">
        <ele>2064.174</ele>
        <time>2021-07-19T09:22:54Z</time>
      </trkpt>
      <trkpt lat="42.64879" lon="1.69298">
        <ele>2064.834</ele>
        <time>2021-07-19T09:22:56Z</time>
      </trkpt>
      <trkpt lat="42.64881" lon="1.69297">
        <ele>2064.353</ele>
        <time>2021-07-19T09:22:58Z</time>
      </trkpt>
      <trkpt lat="42.64882" lon="1.69296">
        <ele>2063.904</ele>
        <time>2021-07-19T09:23:00Z</time>
      </trkpt>
      <trkpt lat="42.64884" lon="1.69295">
        <ele>2063.595</ele>
        <time>2021-07-19T09:23:02Z</time>
      </trkpt>
      <trkpt lat="42.64886" lon="1.69294">
        <ele>2064.56</ele>
        <time>2021-07-19T09:23:04Z</time>
      </trkpt>
      <trkpt lat="42.64888" lon="1.69293">
        <ele>2065.066</ele>
        <time>2021-07-19T09:23:06Z</time>
      </trkpt>
      <trkpt lat="42.64889" lon="1.69292">
        <ele>2064.586</ele>
        <time>2021-07-19T09:23:08Z</time>
      </trkpt>
      <trkpt lat="42.64891" lon="1.69293">
        <ele>2066.024</ele>
        <time>2021-07-19T09:23:10Z</time>
      </trkpt>
      <trkpt lat="42.64894" lon="1.69293">
        <ele>2067.578</ele>
        <time>2021-07-19T09:23:12Z</time>
      </trkpt>
      <trkpt lat="42.64895" lon="1.69292">
        <ele>2067.641</ele>
        <time>2021-07-19T09:23:14Z</time>
      </trkpt>
      <trkpt lat="42.64896" lon="1.69293">
        <ele>2068.744</ele>
        <time>2021-07-19T09:23:16Z</time>
      </trkpt>
      <trkpt lat="42.64898" lon="1.69292">
        <ele>2069.029</ele>
        <time>2021-07-19T09:23:18Z</time>
      </trkpt>
      <trkpt lat="42.64899" lon="1.69292">
        <ele>2069.179</ele>
        <time>2021-07-19T09:23:20Z</time>
      </trkpt>
      <trkpt lat="42.649" lon="1.69292">
        <ele>2070.104</ele>
        <time>2021-07-19T09:23:22Z</time>
      </trkpt>
      <trkpt lat="42.64901" lon="1.69292">
        <ele>2069.665</ele>
        <time>2021-07-19T09:23:24Z</time>
      </trkpt>
      <trkpt lat="42.64902" lon="1.69292">
        <ele>2069.826</ele>
        <time>2021-07-19T09:23:26Z</time>
      </trkpt>
      <trkpt lat="42.64903" lon="1.69292">
        <ele>2069.69</ele>
        <time>2021-07-19T09:23:28Z</time>
      </trkpt>
      <trkpt lat="42.64904" lon="1.69291">
        <ele>2069.754</ele>
        <time>2021-07-19T09:23:30Z</time>
      </trkpt>
      <trkpt lat="42.64904" lon="1.6929">
        <ele>2069.554</ele>
        <time>2021-07-19T09:23:32Z</time>
      </trkpt>
      <trkpt lat="42.64904" lon="1.6929">
        <ele>2069.551</ele>
        <time>2021-07-19T09:23:34Z</time>
      </trkpt>
      <trkpt lat="42.64904" lon="1.6929">
        <ele>2069.553</ele>
        <time>2021-07-19T09:23:36Z</time>
      </trkpt>
      <trkpt lat="42.64904" lon="1.6929">
        <ele>2069.566</ele>
        <time>2021-07-19T09:23:38Z</time>
      </trkpt>
      <trkpt lat="42.64904" lon="1.6929">
        <ele>2069.565</ele>
        <time>2021-07-19T09:23:40Z</time>
      </trkpt>
      <trkpt lat="42.64904" lon="1.6929">
        <ele>2069.558</ele>
        <time>2021-07-19T09:23:42Z</time>
      </trkpt>
      <trkpt lat="42.64904" lon="1.6929">
        <ele>2069.83</ele>
        <time>2021-07-19T09:23:44Z</time>
      </trkpt>
      <trkpt lat="42.64905" lon="1.69288">
        <ele>2070.233</ele>
        <time>2021-07-19T09:23:46Z</time>
      </trkpt>
      <trkpt lat="42.64906" lon="1.69286">
        <ele>2069.882</ele>
        <time>2021-07-19T09:23:48Z</time>
      </trkpt>
      <trkpt lat="42.64907" lon="1.69285">
        <ele>2069.716</ele>
        <time>2021-07-19T09:23:50Z</time>
      </trkpt>
      <trkpt lat="42.64909" lon="1.69284">
        <ele>2069.112</ele>
        <time>2021-07-19T09:23:52Z</time>
      </trkpt>
      <trkpt lat="42.6491" lon="1.69282">
        <ele>2069.516</ele>
        <time>2021-07-19T09:23:54Z</time>
      </trkpt>
      <trkpt lat="42.64912" lon="1.6928">
        <ele>2069.176</ele>
        <time>2021-07-19T09:23:56Z</time>
      </trkpt>
      <trkpt lat="42.64913" lon="1.69279">
        <ele>2069.049</ele>
        <time>2021-07-19T09:23:58Z</time>
      </trkpt>
      <trkpt lat="42.64915" lon="1.69279">
        <ele>2068.342</ele>
        <time>2021-07-19T09:24:00Z</time>
      </trkpt>
      <trkpt lat="42.64916" lon="1.69278">
        <ele>2067.838</ele>
        <time>2021-07-19T09:24:02Z</time>
      </trkpt>
      <trkpt lat="42.64917" lon="1.69278">
        <ele>2068.203</ele>
        <time>2021-07-19T09:24:04Z</time>
      </trkpt>
      <trkpt lat="42.64917" lon="1.69278">
        <ele>2068.146</ele>
        <time>2021-07-19T09:24:06Z</time>
      </trkpt>
      <trkpt lat="42.64919" lon="1.69278">
        <ele>2067.936</ele>
        <time>2021-07-19T09:24:08Z</time>
      </trkpt>
      <trkpt lat="42.6492" lon="1.69278">
        <ele>2067.337</ele>
        <time>2021-07-19T09:24:10Z</time>
      </trkpt>
      <trkpt lat="42.64921" lon="1.69278">
        <ele>2067.134</ele>
        <time>2021-07-19T09:24:12Z</time>
      </trkpt>
      <trkpt lat="42.64922" lon="1.69278">
        <ele>2066.616</ele>
        <time>2021-07-19T09:24:14Z</time>
      </trkpt>
      <trkpt lat="42.64924" lon="1.69278">
        <ele>2066.859</ele>
        <time>2021-07-19T09:24:16Z</time>
      </trkpt>
      <trkpt lat="42.64925" lon="1.69277">
        <ele>2066.939</ele>
        <time>2021-07-19T09:24:18Z</time>
      </trkpt>
      <trkpt lat="42.64926" lon="1.69275">
        <ele>2067.354</ele>
        <time>2021-07-19T09:24:20Z</time>
      </trkpt>
      <trkpt lat="42.64928" lon="1.69273">
        <ele>2067.618</ele>
        <time>2021-07-19T09:24:22Z</time>
      </trkpt>
      <trkpt lat="42.64929" lon="1.69273">
        <ele>2067.75</ele>
        <time>2021-07-19T09:24:24Z</time>
      </trkpt>
      <trkpt lat="42.64929" lon="1.69273">
        <ele>2067.413</ele>
        <time>2021-07-19T09:24:26Z</time>
      </trkpt>
      <trkpt lat="42.64931" lon="1.69272">
        <ele>2066.787</ele>
        <time>2021-07-19T09:24:28Z</time>
      </trkpt>
      <trkpt lat="42.64931" lon="1.69271">
        <ele>2066.664</ele>
        <time>2021-07-19T09:24:30Z</time>
      </trkpt>
      <trkpt lat="42.64931" lon="1.69269">
        <ele>2067.388</ele>
        <time>2021-07-19T09:24:32Z</time>
      </trkpt>
      <trkpt lat="42.64932" lon="1.69268">
        <ele>2066.864</ele>
        <time>2021-07-19T09:24:34Z</time>
      </trkpt>
      <trkpt lat="42.64934" lon="1.69268">
        <ele>2067.81</ele>
        <time>2021-07-19T09:24:36Z</time>
      </trkpt>
      <trkpt lat="42.64935" lon="1.69268">
        <ele>2067.927</ele>
        <time>2021-07-19T09:24:38Z</time>
      </trkpt>
      <trkpt lat="42.64936" lon="1.69268">
        <ele>2068.281</ele>
        <time>2021-07-19T09:24:40Z</time>
      </trkpt>
      <trkpt lat="42.64937" lon="1.69268">
        <ele>2068.297</ele>
        <time>2021-07-19T09:24:42Z</time>
      </trkpt>
      <trkpt lat="42.64938" lon="1.69269">
        <ele>2067.768</ele>
        <time>2021-07-19T09:24:44Z</time>
      </trkpt>
      <trkpt lat="42.6494" lon="1.69269">
        <ele>2067.271</ele>
        <time>2021-07-19T09:24:46Z</time>
      </trkpt>
      <trkpt lat="42.64941" lon="1.69268">
        <ele>2066.846</ele>
        <time>2021-07-19T09:24:48Z</time>
      </trkpt>
      <trkpt lat="42.6494" lon="1.69268">
        <ele>2066.315</ele>
        <time>2021-07-19T09:24:50Z</time>
      </trkpt>
      <trkpt lat="42.6494" lon="1.69268">
        <ele>2066.326</ele>
        <time>2021-07-19T09:24:52Z</time>
      </trkpt>
      <trkpt lat="42.64939" lon="1.69268">
        <ele>2066.337</ele>
        <time>2021-07-19T09:24:54Z</time>
      </trkpt>
      <trkpt lat="42.64939" lon="1.69268">
        <ele>2066.331</ele>
        <time>2021-07-19T09:24:56Z</time>
      </trkpt>
      <trkpt lat="42.64939" lon="1.69268">
        <ele>2066.323</ele>
        <time>2021-07-19T09:24:58Z</time>
      </trkpt>
      <trkpt lat="42.64939" lon="1.69268">
        <ele>2066.325</ele>
        <time>2021-07-19T09:25:00Z</time>
      </trkpt>
      <trkpt lat="42.64939" lon="1.69268">
        <ele>2066.292</ele>
        <time>2021-07-19T09:25:02Z</time>
      </trkpt>
      <trkpt lat="42.64939" lon="1.69268">
        <ele>2066.294</ele>
        <time>2021-07-19T09:25:04Z</time>
      </trkpt>
      <trkpt lat="42.6494" lon="1.69268">
        <ele>2066.261</ele>
        <time>2021-07-19T09:25:06Z</time>
      </trkpt>
      <trkpt lat="42.64942" lon="1.69267">
        <ele>2066.69</ele>
        <time>2021-07-19T09:25:08Z</time>
      </trkpt>
      <trkpt lat="42.64944" lon="1.69266">
        <ele>2066.881</ele>
        <time>2021-07-19T09:25:10Z</time>
      </trkpt>
      <trkpt lat="42.64946" lon="1.69265">
        <ele>2067.434</ele>
        <time>2021-07-19T09:25:12Z</time>
      </trkpt>
      <trkpt lat="42.64947" lon="1.69264">
        <ele>2067.538</ele>
        <time>2021-07-19T09:25:14Z</time>
      </trkpt>
      <trkpt lat="42.64947" lon="1.69262">
        <ele>2068.123</ele>
        <time>2021-07-19T09:25:16Z</time>
      </trkpt>
      <trkpt lat="42.64948" lon="1.6926">
        <ele>2068.039</ele>
        <time>2021-07-19T09:25:18Z</time>
      </trkpt>
      <trkpt lat="42.64949" lon="1.69259">
        <ele>2068.349</ele>
        <time>2021-07-19T09:25:20Z</time>
      </trkpt>
      <trkpt lat="42.6495" lon="1.69258">
        <ele>2068.109</ele>
        <time>2021-07-19T09:25:22Z</time>
      </trkpt>
      <trkpt lat="42.64951" lon="1.69256">
        <ele>2067.81</ele>
        <time>2021-07-19T09:25:24Z</time>
      </trkpt>
      <trkpt lat="42.64952" lon="1.69256">
        <ele>2067.788</ele>
        <time>2021-07-19T09:25:26Z</time>
      </trkpt>
      <trkpt lat="42.64953" lon="1.69255">
        <ele>2067.901</ele>
        <time>2021-07-19T09:25:28Z</time>
      </trkpt>
      <trkpt lat="42.64954" lon="1.69253">
        <ele>2068.173</ele>
        <time>2021-07-19T09:25:30Z</time>
      </trkpt>
      <trkpt lat="42.64954" lon="1.69252">
        <ele>2068.579</ele>
        <time>2021-07-19T09:25:32Z</time>
      </trkpt>
      <trkpt lat="42.64955" lon="1.6925">
        <ele>2068.847</ele>
        <time>2021-07-19T09:25:34Z</time>
      </trkpt>
      <trkpt lat="42.64956" lon="1.6925">
        <ele>2068.47</ele>
        <time>2021-07-19T09:25:36Z</time>
      </trkpt>
      <trkpt lat="42.64957" lon="1.6925">
        <ele>2068.213</ele>
        <time>2021-07-19T09:25:38Z</time>
      </trkpt>
      <trkpt lat="42.64958" lon="1.69251">
        <ele>2068.208</ele>
        <time>2021-07-19T09:25:40Z</time>
      </trkpt>
      <trkpt lat="42.64958" lon="1.69251">
        <ele>2068.212</ele>
        <time>2021-07-19T09:25:42Z</time>
      </trkpt>
      <trkpt lat="42.64958" lon="1.69252">
        <ele>2067.895</ele>
        <time>2021-07-19T09:25:44Z</time>
      </trkpt>
      <trkpt lat="42.64957" lon="1.69252">
        <ele>2067.874</ele>
        <time>2021-07-19T09:25:46Z</time>
      </trkpt>
      <trkpt lat="42.64957" lon="1.69252">
        <ele>2067.86</ele>
        <time>2021-07-19T09:25:48Z</time>
      </trkpt>
      <trkpt lat="42.64957" lon="1.69252">
        <ele>2067.843</ele>
        <time>2021-07-19T09:25:50Z</time>
      </trkpt>
      <trkpt lat="42.64957" lon="1.69252">
        <ele>2067.842</ele>
        <time>2021-07-19T09:25:52Z</time>
      </trkpt>
      <trkpt lat="42.64957" lon="1.69252">
        <ele>2067.836</ele>
        <time>2021-07-19T09:25:54Z</time>
      </trkpt>
      <trkpt lat="42.64957" lon="1.69252">
        <ele>2067.827</ele>
        <time>2021-07-19T09:25:56Z</time>
      </trkpt>
      <trkpt lat="42.64957" lon="1.69252">
        <ele>2067.81</ele>
        <time>2021-07-19T09:25:58Z</time>
      </trkpt>
      <trkpt lat="42.64957" lon="1.69252">
        <ele>2067.791</ele>
        <time>2021-07-19T09:26:00Z</time>
      </trkpt>
      <trkpt lat="42.64957" lon="1.69252">
        <ele>2067.779</ele>
        <time>2021-07-19T09:26:02Z</time>
      </trkpt>
      <trkpt lat="42.64957" lon="1.69252">
        <ele>2067.771</ele>
        <time>2021-07-19T09:26:04Z</time>
      </trkpt>
      <trkpt lat="42.64957" lon="1.69252">
        <ele>2067.767</ele>
        <time>2021-07-19T09:26:06Z</time>
      </trkpt>
      <trkpt lat="42.64957" lon="1.69252">
        <ele>2067.768</ele>
        <time>2021-07-19T09:26:08Z</time>
      </trkpt>
      <trkpt lat="42.64957" lon="1.69252">
        <ele>2067.77</ele>
        <time>2021-07-19T09:26:10Z</time>
      </trkpt>
      <trkpt lat="42.64957" lon="1.69252">
        <ele>2067.772</ele>
        <time>2021-07-19T09:26:12Z</time>
      </trkpt>
      <trkpt lat="42.64957" lon="1.69252">
        <ele>2067.747</ele>
        <time>2021-07-19T09:26:14Z</time>
      </trkpt>
      <trkpt lat="42.64957" lon="1.69252">
        <ele>2067.931</ele>
        <time>2021-07-19T09:26:16Z</time>
      </trkpt>
      <trkpt lat="42.64958" lon="1.69251">
        <ele>2068.304</ele>
        <time>2021-07-19T09:26:18Z</time>
      </trkpt>
      <trkpt lat="42.64959" lon="1.6925">
        <ele>2067.931</ele>
        <time>2021-07-19T09:26:20Z</time>
      </trkpt>
      <trkpt lat="42.6496" lon="1.69249">
        <ele>2068.078</ele>
        <time>2021-07-19T09:26:22Z</time>
      </trkpt>
      <trkpt lat="42.64961" lon="1.69248">
        <ele>2068.602</ele>
        <time>2021-07-19T09:26:24Z</time>
      </trkpt>
      <trkpt lat="42.64962" lon="1.69247">
        <ele>2068.61</ele>
        <time>2021-07-19T09:26:26Z</time>
      </trkpt>
      <trkpt lat="42.64963" lon="1.69246">
        <ele>2069.024</ele>
        <time>2021-07-19T09:26:28Z</time>
      </trkpt>
      <trkpt lat="42.64964" lon="1.69245">
        <ele>2069.981</ele>
        <time>2021-07-19T09:26:30Z</time>
      </trkpt>
      <trkpt lat="42.64965" lon="1.69245">
        <ele>2069.663</ele>
        <time>2021-07-19T09:26:32Z</time>
      </trkpt>
      <trkpt lat="42.64966" lon="1.69245">
        <ele>2069.778</ele>
        <time>2021-07-19T09:26:34Z</time>
      </trkpt>
      <trkpt lat="42.64966" lon="1.69246">
        <ele>2068.81</ele>
        <time>2021-07-19T09:26:36Z</time>
      </trkpt>
      <trkpt lat="42.64967" lon="1.69246">
        <ele>2070.188</ele>
        <time>2021-07-19T09:26:38Z</time>
      </trkpt>
      <trkpt lat="42.64968" lon="1.69246">
        <ele>2070.732</ele>
        <time>2021-07-19T09:26:40Z</time>
      </trkpt>
      <trkpt lat="42.64969" lon="1.69246">
        <ele>2070.065</ele>
        <time>2021-07-19T09:26:42Z</time>
      </trkpt>
      <trkpt lat="42.6497" lon="1.69245">
        <ele>2071.217</ele>
        <time>2021-07-19T09:26:44Z</time>
      </trkpt>
      <trkpt lat="42.6497" lon="1.69245">
        <ele>2071.305</ele>
        <time>2021-07-19T09:26:46Z</time>
      </trkpt>
      <trkpt lat="42.6497" lon="1.69245">
        <ele>2071.299</ele>
        <time>2021-07-19T09:26:48Z</time>
      </trkpt>
      <trkpt lat="42.6497" lon="1.69245">
        <ele>2070.967</ele>
        <time>2021-07-19T09:26:50Z</time>
      </trkpt>
      <trkpt lat="42.6497" lon="1.69245">
        <ele>2071.279</ele>
        <time>2021-07-19T09:26:52Z</time>
      </trkpt>
      <trkpt lat="42.64971" lon="1.69246">
        <ele>2072.326</ele>
        <time>2021-07-19T09:26:54Z</time>
      </trkpt>
      <trkpt lat="42.64972" lon="1.69246">
        <ele>2072.981</ele>
        <time>2021-07-19T09:26:56Z</time>
      </trkpt>
      <trkpt lat="42.64973" lon="1.69246">
        <ele>2072.633</ele>
        <time>2021-07-19T09:26:58Z</time>
      </trkpt>
      <trkpt lat="42.64974" lon="1.69245">
        <ele>2073.376</ele>
        <time>2021-07-19T09:27:00Z</time>
      </trkpt>
      <trkpt lat="42.64975" lon="1.69246">
        <ele>2073.279</ele>
        <time>2021-07-19T09:27:02Z</time>
      </trkpt>
      <trkpt lat="42.64976" lon="1.69246">
        <ele>2073.046</ele>
        <time>2021-07-19T09:27:04Z</time>
      </trkpt>
      <trkpt lat="42.64977" lon="1.69246">
        <ele>2073.934</ele>
        <time>2021-07-19T09:27:06Z</time>
      </trkpt>
      <trkpt lat="42.64978" lon="1.69245">
        <ele>2074.329</ele>
        <time>2021-07-19T09:27:08Z</time>
      </trkpt>
      <trkpt lat="42.6498" lon="1.69245">
        <ele>2075.191</ele>
        <time>2021-07-19T09:27:10Z</time>
      </trkpt>
      <trkpt lat="42.6498" lon="1.69245">
        <ele>2073.841</ele>
        <time>2021-07-19T09:27:12Z</time>
      </trkpt>
      <trkpt lat="42.64981" lon="1.69246">
        <ele>2073.953</ele>
        <time>2021-07-19T09:27:14Z</time>
      </trkpt>
      <trkpt lat="42.64982" lon="1.69246">
        <ele>2074.261</ele>
        <time>2021-07-19T09:27:16Z</time>
      </trkpt>
      <trkpt lat="42.64983" lon="1.69246">
        <ele>2074.388</ele>
        <time>2021-07-19T09:27:18Z</time>
      </trkpt>
      <trkpt lat="42.64984" lon="1.69245">
        <ele>2073.914</ele>
        <time>2021-07-19T09:27:20Z</time>
      </trkpt>
      <trkpt lat="42.64984" lon="1.69246">
        <ele>2074.57</ele>
        <time>2021-07-19T09:27:22Z</time>
      </trkpt>
      <trkpt lat="42.64984" lon="1.69247">
        <ele>2074.747</ele>
        <time>2021-07-19T09:27:24Z</time>
      </trkpt>
      <trkpt lat="42.64985" lon="1.69247">
        <ele>2074.716</ele>
        <time>2021-07-19T09:27:26Z</time>
      </trkpt>
      <trkpt lat="42.64986" lon="1.69247">
        <ele>2074.833</ele>
        <time>2021-07-19T09:27:28Z</time>
      </trkpt>
      <trkpt lat="42.64987" lon="1.69247">
        <ele>2074.567</ele>
        <time>2021-07-19T09:27:30Z</time>
      </trkpt>
      <trkpt lat="42.64988" lon="1.69247">
        <ele>2074.996</ele>
        <time>2021-07-19T09:27:32Z</time>
      </trkpt>
      <trkpt lat="42.64989" lon="1.69247">
        <ele>2074.875</ele>
        <time>2021-07-19T09:27:34Z</time>
      </trkpt>
      <trkpt lat="42.64991" lon="1.69248">
        <ele>2075.915</ele>
        <time>2021-07-19T09:27:36Z</time>
      </trkpt>
      <trkpt lat="42.64992" lon="1.69247">
        <ele>2076.319</ele>
        <time>2021-07-19T09:27:38Z</time>
      </trkpt>
      <trkpt lat="42.64993" lon="1.69247">
        <ele>2076.763</ele>
        <time>2021-07-19T09:27:40Z</time>
      </trkpt>
      <trkpt lat="42.64993" lon="1.69247">
        <ele>2076.71</ele>
        <time>2021-07-19T09:27:42Z</time>
      </trkpt>
      <trkpt lat="42.64994" lon="1.69247">
        <ele>2076.798</ele>
        <time>2021-07-19T09:27:44Z</time>
      </trkpt>
      <trkpt lat="42.64995" lon="1.69247">
        <ele>2077.318</ele>
        <time>2021-07-19T09:27:46Z</time>
      </trkpt>
      <trkpt lat="42.64996" lon="1.69247">
        <ele>2078.27</ele>
        <time>2021-07-19T09:27:48Z</time>
      </trkpt>
      <trkpt lat="42.64998" lon="1.69247">
        <ele>2078.045</ele>
        <time>2021-07-19T09:27:50Z</time>
      </trkpt>
      <trkpt lat="42.64999" lon="1.69247">
        <ele>2078.507</ele>
        <time>2021-07-19T09:27:52Z</time>
      </trkpt>
      <trkpt lat="42.65" lon="1.69248">
        <ele>2079.68</ele>
        <time>2021-07-19T09:27:54Z</time>
      </trkpt>
      <trkpt lat="42.65001" lon="1.69248">
        <ele>2079.573</ele>
        <time>2021-07-19T09:27:56Z</time>
      </trkpt>
      <trkpt lat="42.65002" lon="1.69249">
        <ele>2079.898</ele>
        <time>2021-07-19T09:27:58Z</time>
      </trkpt>
      <trkpt lat="42.65003" lon="1.69249">
        <ele>2079.94</ele>
        <time>2021-07-19T09:28:00Z</time>
      </trkpt>
      <trkpt lat="42.65005" lon="1.6925">
        <ele>2080.726</ele>
        <time>2021-07-19T09:28:02Z</time>
      </trkpt>
      <trkpt lat="42.65006" lon="1.6925">
        <ele>2081.625</ele>
        <time>2021-07-19T09:28:04Z</time>
      </trkpt>
      <trkpt lat="42.65007" lon="1.6925">
        <ele>2082.389</ele>
        <time>2021-07-19T09:28:06Z</time>
      </trkpt>
      <trkpt lat="42.65009" lon="1.6925">
        <ele>2082.698</ele>
        <time>2021-07-19T09:28:08Z</time>
      </trkpt>
      <trkpt lat="42.6501" lon="1.69251">
        <ele>2083.223</ele>
        <time>2021-07-19T09:28:10Z</time>
      </trkpt>
      <trkpt lat="42.65011" lon="1.69251">
        <ele>2084.012</ele>
        <time>2021-07-19T09:28:12Z</time>
      </trkpt>
      <trkpt lat="42.65013" lon="1.69251">
        <ele>2085.046</ele>
        <time>2021-07-19T09:28:14Z</time>
      </trkpt>
      <trkpt lat="42.65014" lon="1.69252">
        <ele>2085.85</ele>
        <time>2021-07-19T09:28:16Z</time>
      </trkpt>
      <trkpt lat="42.65015" lon="1.69253">
        <ele>2087.258</ele>
        <time>2021-07-19T09:28:18Z</time>
      </trkpt>
      <trkpt lat="42.65017" lon="1.69253">
        <ele>2087.046</ele>
        <time>2021-07-19T09:28:20Z</time>
      </trkpt>
      <trkpt lat="42.65018" lon="1.69252">
        <ele>2086.765</ele>
        <time>2021-07-19T09:28:22Z</time>
      </trkpt>
      <trkpt lat="42.6502" lon="1.69253">
        <ele>2086.925</ele>
        <time>2021-07-19T09:28:24Z</time>
      </trkpt>
      <trkpt lat="42.65021" lon="1.69253">
        <ele>2087.358</ele>
        <time>2021-07-19T09:28:26Z</time>
      </trkpt>
      <trkpt lat="42.65023" lon="1.69254">
        <ele>2087.722</ele>
        <time>2021-07-19T09:28:28Z</time>
      </trkpt>
      <trkpt lat="42.65024" lon="1.69254">
        <ele>2087.916</ele>
        <time>2021-07-19T09:28:30Z</time>
      </trkpt>
      <trkpt lat="42.65025" lon="1.69255">
        <ele>2088.473</ele>
        <time>2021-07-19T09:28:32Z</time>
      </trkpt>
      <trkpt lat="42.65027" lon="1.69255">
        <ele>2089.524</ele>
        <time>2021-07-19T09:28:34Z</time>
      </trkpt>
      <trkpt lat="42.65028" lon="1.69255">
        <ele>2089.542</ele>
        <time>2021-07-19T09:28:36Z</time>
      </trkpt>
      <trkpt lat="42.6503" lon="1.69255">
        <ele>2089.844</ele>
        <time>2021-07-19T09:28:38Z</time>
      </trkpt>
      <trkpt lat="42.65031" lon="1.69256">
        <ele>2089.866</ele>
        <time>2021-07-19T09:28:40Z</time>
      </trkpt>
      <trkpt lat="42.65032" lon="1.69256">
        <ele>2090.154</ele>
        <time>2021-07-19T09:28:42Z</time>
      </trkpt>
      <trkpt lat="42.65034" lon="1.69256">
        <ele>2090.252</ele>
        <time>2021-07-19T09:28:44Z</time>
      </trkpt>
      <trkpt lat="42.65035" lon="1.69256">
        <ele>2090.296</ele>
        <time>2021-07-19T09:28:46Z</time>
      </trkpt>
      <trkpt lat="42.65037" lon="1.69257">
        <ele>2091.09</ele>
        <time>2021-07-19T09:28:48Z</time>
      </trkpt>
      <trkpt lat="42.65038" lon="1.69256">
        <ele>2091.629</ele>
        <time>2021-07-19T09:28:50Z</time>
      </trkpt>
      <trkpt lat="42.6504" lon="1.69257">
        <ele>2092.024</ele>
        <time>2021-07-19T09:28:52Z</time>
      </trkpt>
      <trkpt lat="42.65041" lon="1.69257">
        <ele>2091.929</ele>
        <time>2021-07-19T09:28:54Z</time>
      </trkpt>
      <trkpt lat="42.65042" lon="1.69257">
        <ele>2092.659</ele>
        <time>2021-07-19T09:28:56Z</time>
      </trkpt>
      <trkpt lat="42.65043" lon="1.69257">
        <ele>2093.012</ele>
        <time>2021-07-19T09:28:58Z</time>
      </trkpt>
      <trkpt lat="42.65045" lon="1.69257">
        <ele>2092.99</ele>
        <time>2021-07-19T09:29:00Z</time>
      </trkpt>
      <trkpt lat="42.65046" lon="1.69257">
        <ele>2093.999</ele>
        <time>2021-07-19T09:29:02Z</time>
      </trkpt>
      <trkpt lat="42.65048" lon="1.69257">
        <ele>2094.649</ele>
        <time>2021-07-19T09:29:04Z</time>
      </trkpt>
      <trkpt lat="42.65049" lon="1.69257">
        <ele>2095.172</ele>
        <time>2021-07-19T09:29:06Z</time>
      </trkpt>
      <trkpt lat="42.6505" lon="1.69258">
        <ele>2095.542</ele>
        <time>2021-07-19T09:29:08Z</time>
      </trkpt>
      <trkpt lat="42.65052" lon="1.69258">
        <ele>2095.572</ele>
        <time>2021-07-19T09:29:10Z</time>
      </trkpt>
      <trkpt lat="42.65053" lon="1.69259">
        <ele>2096.293</ele>
        <time>2021-07-19T09:29:12Z</time>
      </trkpt>
      <trkpt lat="42.65054" lon="1.6926">
        <ele>2096.829</ele>
        <time>2021-07-19T09:29:14Z</time>
      </trkpt>
      <trkpt lat="42.65056" lon="1.69261">
        <ele>2096.721</ele>
        <time>2021-07-19T09:29:16Z</time>
      </trkpt>
      <trkpt lat="42.65057" lon="1.69262">
        <ele>2097.004</ele>
        <time>2021-07-19T09:29:18Z</time>
      </trkpt>
      <trkpt lat="42.65058" lon="1.69262">
        <ele>2097.45</ele>
        <time>2021-07-19T09:29:20Z</time>
      </trkpt>
      <trkpt lat="42.6506" lon="1.69263">
        <ele>2098.062</ele>
        <time>2021-07-19T09:29:22Z</time>
      </trkpt>
      <trkpt lat="42.6506" lon="1.69263">
        <ele>2098.518</ele>
        <time>2021-07-19T09:29:24Z</time>
      </trkpt>
      <trkpt lat="42.6506" lon="1.69263">
        <ele>2098.52</ele>
        <time>2021-07-19T09:29:26Z</time>
      </trkpt>
      <trkpt lat="42.65061" lon="1.69263">
        <ele>2098.214</ele>
        <time>2021-07-19T09:29:28Z</time>
      </trkpt>
      <trkpt lat="42.65062" lon="1.69264">
        <ele>2098.766</ele>
        <time>2021-07-19T09:29:30Z</time>
      </trkpt>
      <trkpt lat="42.65063" lon="1.69265">
        <ele>2100.394</ele>
        <time>2021-07-19T09:29:32Z</time>
      </trkpt>
      <trkpt lat="42.65064" lon="1.69266">
        <ele>2100.112</ele>
        <time>2021-07-19T09:29:34Z</time>
      </trkpt>
      <trkpt lat="42.65065" lon="1.69266">
        <ele>2101.498</ele>
        <time>2021-07-19T09:29:36Z</time>
      </trkpt>
      <trkpt lat="42.65066" lon="1.69267">
        <ele>2101.039</ele>
        <time>2021-07-19T09:29:38Z</time>
      </trkpt>
      <trkpt lat="42.65067" lon="1.69268">
        <ele>2102.024</ele>
        <time>2021-07-19T09:29:40Z</time>
      </trkpt>
      <trkpt lat="42.65067" lon="1.6927">
        <ele>2102.173</ele>
        <time>2021-07-19T09:29:42Z</time>
      </trkpt>
      <trkpt lat="42.65068" lon="1.69272">
        <ele>2101.928</ele>
        <time>2021-07-19T09:29:44Z</time>
      </trkpt>
      <trkpt lat="42.65069" lon="1.69272">
        <ele>2100.99</ele>
        <time>2021-07-19T09:29:46Z</time>
      </trkpt>
      <trkpt lat="42.6507" lon="1.69272">
        <ele>2100.901</ele>
        <time>2021-07-19T09:29:48Z</time>
      </trkpt>
      <trkpt lat="42.65071" lon="1.69271">
        <ele>2101.927</ele>
        <time>2021-07-19T09:29:50Z</time>
      </trkpt>
      <trkpt lat="42.65072" lon="1.69271">
        <ele>2102.412</ele>
        <time>2021-07-19T09:29:52Z</time>
      </trkpt>
      <trkpt lat="42.65072" lon="1.6927">
        <ele>2102.408</ele>
        <time>2021-07-19T09:29:54Z</time>
      </trkpt>
      <trkpt lat="42.65072" lon="1.6927">
        <ele>2102.391</ele>
        <time>2021-07-19T09:29:56Z</time>
      </trkpt>
      <trkpt lat="42.65073" lon="1.6927">
        <ele>2102.703</ele>
        <time>2021-07-19T09:29:58Z</time>
      </trkpt>
      <trkpt lat="42.65074" lon="1.6927">
        <ele>2102.786</ele>
        <time>2021-07-19T09:30:00Z</time>
      </trkpt>
      <trkpt lat="42.65075" lon="1.69271">
        <ele>2103.413</ele>
        <time>2021-07-19T09:30:02Z</time>
      </trkpt>
      <trkpt lat="42.65075" lon="1.69272">
        <ele>2103.811</ele>
        <time>2021-07-19T09:30:04Z</time>
      </trkpt>
      <trkpt lat="42.65076" lon="1.69272">
        <ele>2103.764</ele>
        <time>2021-07-19T09:30:06Z</time>
      </trkpt>
      <trkpt lat="42.65078" lon="1.69272">
        <ele>2103.534</ele>
        <time>2021-07-19T09:30:08Z</time>
      </trkpt>
      <trkpt lat="42.65078" lon="1.69271">
        <ele>2104.314</ele>
        <time>2021-07-19T09:30:10Z</time>
      </trkpt>
      <trkpt lat="42.65078" lon="1.69271">
        <ele>2104.423</ele>
        <time>2021-07-19T09:30:12Z</time>
      </trkpt>
      <trkpt lat="42.65078" lon="1.69271">
        <ele>2104.419</ele>
        <time>2021-07-19T09:30:14Z</time>
      </trkpt>
      <trkpt lat="42.65078" lon="1.69271">
        <ele>2104.397</ele>
        <time>2021-07-19T09:30:16Z</time>
      </trkpt>
      <trkpt lat="42.65079" lon="1.69271">
        <ele>2103.956</ele>
        <time>2021-07-19T09:30:18Z</time>
      </trkpt>
      <trkpt lat="42.65081" lon="1.6927">
        <ele>2104.072</ele>
        <time>2021-07-19T09:30:20Z</time>
      </trkpt>
      <trkpt lat="42.65082" lon="1.69269">
        <ele>2104.235</ele>
        <time>2021-07-19T09:30:22Z</time>
      </trkpt>
      <trkpt lat="42.65083" lon="1.69269">
        <ele>2104.729</ele>
        <time>2021-07-19T09:30:24Z</time>
      </trkpt>
      <trkpt lat="42.65085" lon="1.69268">
        <ele>2104.322</ele>
        <time>2021-07-19T09:30:26Z</time>
      </trkpt>
      <trkpt lat="42.65086" lon="1.69268">
        <ele>2104.312</ele>
        <time>2021-07-19T09:30:28Z</time>
      </trkpt>
      <trkpt lat="42.65088" lon="1.69267">
        <ele>2104.485</ele>
        <time>2021-07-19T09:30:30Z</time>
      </trkpt>
      <trkpt lat="42.65089" lon="1.69267">
        <ele>2105.248</ele>
        <time>2021-07-19T09:30:32Z</time>
      </trkpt>
      <trkpt lat="42.6509" lon="1.69267">
        <ele>2105.609</ele>
        <time>2021-07-19T09:30:34Z</time>
      </trkpt>
      <trkpt lat="42.65091" lon="1.69267">
        <ele>2105.848</ele>
        <time>2021-07-19T09:30:36Z</time>
      </trkpt>
      <trkpt lat="42.65092" lon="1.69267">
        <ele>2105.856</ele>
        <time>2021-07-19T09:30:38Z</time>
      </trkpt>
      <trkpt lat="42.65094" lon="1.69266">
        <ele>2105.938</ele>
        <time>2021-07-19T09:30:40Z</time>
      </trkpt>
      <trkpt lat="42.65095" lon="1.69265">
        <ele>2105.39</ele>
        <time>2021-07-19T09:30:42Z</time>
      </trkpt>
      <trkpt lat="42.65096" lon="1.69264">
        <ele>2104.809</ele>
        <time>2021-07-19T09:30:44Z</time>
      </trkpt>
      <trkpt lat="42.65098" lon="1.69262">
        <ele>2104.158</ele>
        <time>2021-07-19T09:30:46Z</time>
      </trkpt>
      <trkpt lat="42.65099" lon="1.6926">
        <ele>2104.729</ele>
        <time>2021-07-19T09:30:48Z</time>
      </trkpt>
      <trkpt lat="42.65101" lon="1.69259">
        <ele>2104.604</ele>
        <time>2021-07-19T09:30:50Z</time>
      </trkpt>
      <trkpt lat="42.65102" lon="1.69258">
        <ele>2104.91</ele>
        <time>2021-07-19T09:30:52Z</time>
      </trkpt>
      <trkpt lat="42.65103" lon="1.69258">
        <ele>2105.45</ele>
        <time>2021-07-19T09:30:54Z</time>
      </trkpt>
      <trkpt lat="42.65104" lon="1.69258">
        <ele>2105.62</ele>
        <time>2021-07-19T09:30:56Z</time>
      </trkpt>
      <trkpt lat="42.65106" lon="1.69257">
        <ele>2104.479</ele>
        <time>2021-07-19T09:30:58Z</time>
      </trkpt>
      <trkpt lat="42.65107" lon="1.69256">
        <ele>2105.077</ele>
        <time>2021-07-19T09:31:00Z</time>
      </trkpt>
      <trkpt lat="42.65108" lon="1.69255">
        <ele>2105.137</ele>
        <time>2021-07-19T09:31:02Z</time>
      </trkpt>
      <trkpt lat="42.65109" lon="1.69254">
        <ele>2105.748</ele>
        <time>2021-07-19T09:31:04Z</time>
      </trkpt>
      <trkpt lat="42.6511" lon="1.69252">
        <ele>2106.024</ele>
        <time>2021-07-19T09:31:06Z</time>
      </trkpt>
      <trkpt lat="42.65112" lon="1.69251">
        <ele>2106.702</ele>
        <time>2021-07-19T09:31:08Z</time>
      </trkpt>
      <trkpt lat="42.65113" lon="1.6925">
        <ele>2106.934</ele>
        <time>2021-07-19T09:31:10Z</time>
      </trkpt>
      <trkpt lat="42.65114" lon="1.69248">
        <ele>2107.402</ele>
        <time>2021-07-19T09:31:12Z</time>
      </trkpt>
      <trkpt lat="42.65115" lon="1.69247">
        <ele>2108.076</ele>
        <time>2021-07-19T09:31:14Z</time>
      </trkpt>
      <trkpt lat="42.65117" lon="1.69246">
        <ele>2108.229</ele>
        <time>2021-07-19T09:31:16Z</time>
      </trkpt>
      <trkpt lat="42.65118" lon="1.69245">
        <ele>2108.419</ele>
        <time>2021-07-19T09:31:18Z</time>
      </trkpt>
      <trkpt lat="42.6512" lon="1.69243">
        <ele>2107.909</ele>
        <time>2021-07-19T09:31:20Z</time>
      </trkpt>
      <trkpt lat="42.65122" lon="1.69242">
        <ele>2108.003</ele>
        <time>2021-07-19T09:31:22Z</time>
      </trkpt>
      <trkpt lat="42.65124" lon="1.69242">
        <ele>2107.93</ele>
        <time>2021-07-19T09:31:24Z</time>
      </trkpt>
      <trkpt lat="42.65126" lon="1.69241">
        <ele>2108.101</ele>
        <time>2021-07-19T09:31:26Z</time>
      </trkpt>
      <trkpt lat="42.65127" lon="1.6924">
        <ele>2107.989</ele>
        <time>2021-07-19T09:31:28Z</time>
      </trkpt>
      <trkpt lat="42.65127" lon="1.6924">
        <ele>2107.997</ele>
        <time>2021-07-19T09:31:30Z</time>
      </trkpt>
      <trkpt lat="42.65127" lon="1.6924">
        <ele>2108.011</ele>
        <time>2021-07-19T09:31:32Z</time>
      </trkpt>
      <trkpt lat="42.65127" lon="1.6924">
        <ele>2108.004</ele>
        <time>2021-07-19T09:31:34Z</time>
      </trkpt>
      <trkpt lat="42.65128" lon="1.69239">
        <ele>2108.293</ele>
        <time>2021-07-19T09:31:36Z</time>
      </trkpt>
      <trkpt lat="42.65128" lon="1.69238">
        <ele>2108.162</ele>
        <time>2021-07-19T09:31:38Z</time>
      </trkpt>
      <trkpt lat="42.65129" lon="1.69236">
        <ele>2107.802</ele>
        <time>2021-07-19T09:31:40Z</time>
      </trkpt>
      <trkpt lat="42.6513" lon="1.69235">
        <ele>2107.928</ele>
        <time>2021-07-19T09:31:42Z</time>
      </trkpt>
      <trkpt lat="42.65132" lon="1.69234">
        <ele>2108.587</ele>
        <time>2021-07-19T09:31:44Z</time>
      </trkpt>
      <trkpt lat="42.65133" lon="1.69233">
        <ele>2108.31</ele>
        <time>2021-07-19T09:31:46Z</time>
      </trkpt>
      <trkpt lat="42.65134" lon="1.69231">
        <ele>2108.978</ele>
        <time>2021-07-19T09:31:48Z</time>
      </trkpt>
      <trkpt lat="42.65134" lon="1.6923">
        <ele>2108.991</ele>
        <time>2021-07-19T09:31:50Z</time>
      </trkpt>
      <trkpt lat="42.65136" lon="1.69228">
        <ele>2108.756</ele>
        <time>2021-07-19T09:31:52Z</time>
      </trkpt>
      <trkpt lat="42.65137" lon="1.69227">
        <ele>2109.014</ele>
        <time>2021-07-19T09:31:54Z</time>
      </trkpt>
      <trkpt lat="42.65138" lon="1.69226">
        <ele>2109.044</ele>
        <time>2021-07-19T09:31:56Z</time>
      </trkpt>
      <trkpt lat="42.65139" lon="1.69224">
        <ele>2109.63</ele>
        <time>2021-07-19T09:31:58Z</time>
      </trkpt>
      <trkpt lat="42.6514" lon="1.69224">
        <ele>2110.486</ele>
        <time>2021-07-19T09:32:00Z</time>
      </trkpt>
      <trkpt lat="42.65141" lon="1.69222">
        <ele>2112.212</ele>
        <time>2021-07-19T09:32:02Z</time>
      </trkpt>
      <trkpt lat="42.65142" lon="1.69221">
        <ele>2112.415</ele>
        <time>2021-07-19T09:32:04Z</time>
      </trkpt>
      <trkpt lat="42.65143" lon="1.6922">
        <ele>2112.849</ele>
        <time>2021-07-19T09:32:06Z</time>
      </trkpt>
      <trkpt lat="42.65143" lon="1.69219">
        <ele>2113.443</ele>
        <time>2021-07-19T09:32:08Z</time>
      </trkpt>
      <trkpt lat="42.65144" lon="1.69217">
        <ele>2113.86</ele>
        <time>2021-07-19T09:32:10Z</time>
      </trkpt>
      <trkpt lat="42.65146" lon="1.69215">
        <ele>2114.33</ele>
        <time>2021-07-19T09:32:12Z</time>
      </trkpt>
      <trkpt lat="42.65148" lon="1.69214">
        <ele>2114.951</ele>
        <time>2021-07-19T09:32:14Z</time>
      </trkpt>
      <trkpt lat="42.65149" lon="1.69213">
        <ele>2115.49</ele>
        <time>2021-07-19T09:32:16Z</time>
      </trkpt>
      <trkpt lat="42.65151" lon="1.69212">
        <ele>2116.014</ele>
        <time>2021-07-19T09:32:18Z</time>
      </trkpt>
      <trkpt lat="42.65152" lon="1.69211">
        <ele>2117.249</ele>
        <time>2021-07-19T09:32:20Z</time>
      </trkpt>
      <trkpt lat="42.65153" lon="1.69211">
        <ele>2116.725</ele>
        <time>2021-07-19T09:32:22Z</time>
      </trkpt>
      <trkpt lat="42.65154" lon="1.69211">
        <ele>2116.874</ele>
        <time>2021-07-19T09:32:24Z</time>
      </trkpt>
      <trkpt lat="42.65154" lon="1.6921">
        <ele>2117.052</ele>
        <time>2021-07-19T09:32:26Z</time>
      </trkpt>
      <trkpt lat="42.65155" lon="1.6921">
        <ele>2118.185</ele>
        <time>2021-07-19T09:32:28Z</time>
      </trkpt>
      <trkpt lat="42.65156" lon="1.6921">
        <ele>2118.957</ele>
        <time>2021-07-19T09:32:30Z</time>
      </trkpt>
      <trkpt lat="42.65157" lon="1.6921">
        <ele>2118.718</ele>
        <time>2021-07-19T09:32:32Z</time>
      </trkpt>
      <trkpt lat="42.65158" lon="1.6921">
        <ele>2119.305</ele>
        <time>2021-07-19T09:32:34Z</time>
      </trkpt>
      <trkpt lat="42.65159" lon="1.69209">
        <ele>2118.746</ele>
        <time>2021-07-19T09:32:36Z</time>
      </trkpt>
      <trkpt lat="42.65159" lon="1.69209">
        <ele>2118.755</ele>
        <time>2021-07-19T09:32:38Z</time>
      </trkpt>
      <trkpt lat="42.65159" lon="1.69209">
        <ele>2119.41</ele>
        <time>2021-07-19T09:32:40Z</time>
      </trkpt>
      <trkpt lat="42.6516" lon="1.69209">
        <ele>2119.736</ele>
        <time>2021-07-19T09:32:42Z</time>
      </trkpt>
      <trkpt lat="42.65161" lon="1.6921">
        <ele>2120.473</ele>
        <time>2021-07-19T09:32:44Z</time>
      </trkpt>
      <trkpt lat="42.65161" lon="1.6921">
        <ele>2121.152</ele>
        <time>2021-07-19T09:32:46Z</time>
      </trkpt>
      <trkpt lat="42.65162" lon="1.6921">
        <ele>2121.669</ele>
        <time>2021-07-19T09:32:48Z</time>
      </trkpt>
      <trkpt lat="42.65163" lon="1.69209">
        <ele>2121.908</ele>
        <time>2021-07-19T09:32:50Z</time>
      </trkpt>
      <trkpt lat="42.65164" lon="1.69208">
        <ele>2122.4</ele>
        <time>2021-07-19T09:32:52Z</time>
      </trkpt>
      <trkpt lat="42.65165" lon="1.69207">
        <ele>2121.944</ele>
        <time>2021-07-19T09:32:54Z</time>
      </trkpt>
      <trkpt lat="42.65167" lon="1.69206">
        <ele>2122.13</ele>
        <time>2021-07-19T09:32:56Z</time>
      </trkpt>
      <trkpt lat="42.65167" lon="1.69206">
        <ele>2122.655</ele>
        <time>2021-07-19T09:32:58Z</time>
      </trkpt>
      <trkpt lat="42.65168" lon="1.69206">
        <ele>2123.931</ele>
        <time>2021-07-19T09:33:00Z</time>
      </trkpt>
      <trkpt lat="42.65169" lon="1.69206">
        <ele>2124.914</ele>
        <time>2021-07-19T09:33:02Z</time>
      </trkpt>
      <trkpt lat="42.6517" lon="1.69206">
        <ele>2124.272</ele>
        <time>2021-07-19T09:33:04Z</time>
      </trkpt>
      <trkpt lat="42.65171" lon="1.69206">
        <ele>2124.866</ele>
        <time>2021-07-19T09:33:06Z</time>
      </trkpt>
      <trkpt lat="42.65172" lon="1.69205">
        <ele>2125.163</ele>
        <time>2021-07-19T09:33:08Z</time>
      </trkpt>
      <trkpt lat="42.65173" lon="1.69205">
        <ele>2125.431</ele>
        <time>2021-07-19T09:33:10Z</time>
      </trkpt>
      <trkpt lat="42.65174" lon="1.69204">
        <ele>2125.491</ele>
        <time>2021-07-19T09:33:12Z</time>
      </trkpt>
      <trkpt lat="42.65175" lon="1.69204">
        <ele>2125.005</ele>
        <time>2021-07-19T09:33:14Z</time>
      </trkpt>
      <trkpt lat="42.65176" lon="1.69204">
        <ele>2125.358</ele>
        <time>2021-07-19T09:33:16Z</time>
      </trkpt>
      <trkpt lat="42.65176" lon="1.69204">
        <ele>2125.68</ele>
        <time>2021-07-19T09:33:18Z</time>
      </trkpt>
      <trkpt lat="42.65177" lon="1.69203">
        <ele>2125.86</ele>
        <time>2021-07-19T09:33:20Z</time>
      </trkpt>
      <trkpt lat="42.65177" lon="1.69202">
        <ele>2124.984</ele>
        <time>2021-07-19T09:33:22Z</time>
      </trkpt>
      <trkpt lat="42.65179" lon="1.69201">
        <ele>2124.972</ele>
        <time>2021-07-19T09:33:24Z</time>
      </trkpt>
      <trkpt lat="42.6518" lon="1.692">
        <ele>2125.265</ele>
        <time>2021-07-19T09:33:26Z</time>
      </trkpt>
      <trkpt lat="42.65181" lon="1.69199">
        <ele>2125.68</ele>
        <time>2021-07-19T09:33:28Z</time>
      </trkpt>
      <trkpt lat="42.65181" lon="1.69198">
        <ele>2126.057</ele>
        <time>2021-07-19T09:33:30Z</time>
      </trkpt>
      <trkpt lat="42.65182" lon="1.69196">
        <ele>2127.084</ele>
        <time>2021-07-19T09:33:32Z</time>
      </trkpt>
      <trkpt lat="42.65182" lon="1.69195">
        <ele>2127.419</ele>
        <time>2021-07-19T09:33:34Z</time>
      </trkpt>
      <trkpt lat="42.65183" lon="1.69194">
        <ele>2128.161</ele>
        <time>2021-07-19T09:33:36Z</time>
      </trkpt>
      <trkpt lat="42.65184" lon="1.69192">
        <ele>2128.227</ele>
        <time>2021-07-19T09:33:38Z</time>
      </trkpt>
      <trkpt lat="42.65185" lon="1.69191">
        <ele>2128.89</ele>
        <time>2021-07-19T09:33:40Z</time>
      </trkpt>
      <trkpt lat="42.65186" lon="1.6919">
        <ele>2128.997</ele>
        <time>2021-07-19T09:33:42Z</time>
      </trkpt>
      <trkpt lat="42.65186" lon="1.69189">
        <ele>2129.368</ele>
        <time>2021-07-19T09:33:44Z</time>
      </trkpt>
      <trkpt lat="42.65188" lon="1.69189">
        <ele>2130.285</ele>
        <time>2021-07-19T09:33:46Z</time>
      </trkpt>
      <trkpt lat="42.65189" lon="1.69188">
        <ele>2128.734</ele>
        <time>2021-07-19T09:33:48Z</time>
      </trkpt>
      <trkpt lat="42.65189" lon="1.69189">
        <ele>2128.869</ele>
        <time>2021-07-19T09:33:50Z</time>
      </trkpt>
      <trkpt lat="42.65189" lon="1.69189">
        <ele>2128.861</ele>
        <time>2021-07-19T09:33:52Z</time>
      </trkpt>
      <trkpt lat="42.65189" lon="1.69189">
        <ele>2128.866</ele>
        <time>2021-07-19T09:33:54Z</time>
      </trkpt>
      <trkpt lat="42.65189" lon="1.69189">
        <ele>2128.868</ele>
        <time>2021-07-19T09:33:56Z</time>
      </trkpt>
      <trkpt lat="42.65189" lon="1.69189">
        <ele>2128.873</ele>
        <time>2021-07-19T09:33:58Z</time>
      </trkpt>
      <trkpt lat="42.65189" lon="1.69189">
        <ele>2128.87</ele>
        <time>2021-07-19T09:34:00Z</time>
      </trkpt>
      <trkpt lat="42.65189" lon="1.69189">
        <ele>2128.872</ele>
        <time>2021-07-19T09:34:02Z</time>
      </trkpt>
      <trkpt lat="42.65189" lon="1.69189">
        <ele>2128.859</ele>
        <time>2021-07-19T09:34:04Z</time>
      </trkpt>
      <trkpt lat="42.65189" lon="1.69189">
        <ele>2128.858</ele>
        <time>2021-07-19T09:34:06Z</time>
      </trkpt>
      <trkpt lat="42.65189" lon="1.69189">
        <ele>2128.857</ele>
        <time>2021-07-19T09:34:08Z</time>
      </trkpt>
      <trkpt lat="42.65189" lon="1.69189">
        <ele>2128.857</ele>
        <time>2021-07-19T09:34:10Z</time>
      </trkpt>
      <trkpt lat="42.65189" lon="1.69189">
        <ele>2128.852</ele>
        <time>2021-07-19T09:34:12Z</time>
      </trkpt>
      <trkpt lat="42.65189" lon="1.69189">
        <ele>2128.856</ele>
        <time>2021-07-19T09:34:14Z</time>
      </trkpt>
      <trkpt lat="42.65189" lon="1.69189">
        <ele>2128.846</ele>
        <time>2021-07-19T09:34:16Z</time>
      </trkpt>
      <trkpt lat="42.65189" lon="1.69189">
        <ele>2129.186</ele>
        <time>2021-07-19T09:34:18Z</time>
      </trkpt>
      <trkpt lat="42.65189" lon="1.69189">
        <ele>2129.184</ele>
        <time>2021-07-19T09:34:20Z</time>
      </trkpt>
      <trkpt lat="42.65189" lon="1.69189">
        <ele>2129.185</ele>
        <time>2021-07-19T09:34:22Z</time>
      </trkpt>
      <trkpt lat="42.65189" lon="1.69189">
        <ele>2129.177</ele>
        <time>2021-07-19T09:34:24Z</time>
      </trkpt>
      <trkpt lat="42.65189" lon="1.69189">
        <ele>2129.175</ele>
        <time>2021-07-19T09:34:26Z</time>
      </trkpt>
      <trkpt lat="42.65189" lon="1.69189">
        <ele>2129.179</ele>
        <time>2021-07-19T09:34:28Z</time>
      </trkpt>
      <trkpt lat="42.65189" lon="1.69189">
        <ele>2129.05</ele>
        <time>2021-07-19T09:34:30Z</time>
      </trkpt>
      <trkpt lat="42.65189" lon="1.69189">
        <ele>2129.055</ele>
        <time>2021-07-19T09:34:32Z</time>
      </trkpt>
      <trkpt lat="42.65189" lon="1.69189">
        <ele>2129.056</ele>
        <time>2021-07-19T09:34:34Z</time>
      </trkpt>
      <trkpt lat="42.65189" lon="1.69189">
        <ele>2129.059</ele>
        <time>2021-07-19T09:34:36Z</time>
      </trkpt>
      <trkpt lat="42.65189" lon="1.69189">
        <ele>2129.061</ele>
        <time>2021-07-19T09:34:38Z</time>
      </trkpt>
      <trkpt lat="42.65189" lon="1.69189">
        <ele>2129.073</ele>
        <time>2021-07-19T09:34:40Z</time>
      </trkpt>
      <trkpt lat="42.65189" lon="1.69189">
        <ele>2129.084</ele>
        <time>2021-07-19T09:34:42Z</time>
      </trkpt>
      <trkpt lat="42.65189" lon="1.69189">
        <ele>2129.083</ele>
        <time>2021-07-19T09:34:44Z</time>
      </trkpt>
      <trkpt lat="42.65189" lon="1.69189">
        <ele>2129.087</ele>
        <time>2021-07-19T09:34:46Z</time>
      </trkpt>
      <trkpt lat="42.65189" lon="1.69189">
        <ele>2129.096</ele>
        <time>2021-07-19T09:34:48Z</time>
      </trkpt>
      <trkpt lat="42.65189" lon="1.69189">
        <ele>2129.108</ele>
        <time>2021-07-19T09:34:50Z</time>
      </trkpt>
      <trkpt lat="42.65188" lon="1.69189">
        <ele>2129.108</ele>
        <time>2021-07-19T09:34:52Z</time>
      </trkpt>
      <trkpt lat="42.65188" lon="1.69189">
        <ele>2129.461</ele>
        <time>2021-07-19T09:34:54Z</time>
      </trkpt>
      <trkpt lat="42.65188" lon="1.69188">
        <ele>2130.105</ele>
        <time>2021-07-19T09:34:56Z</time>
      </trkpt>
      <trkpt lat="42.65187" lon="1.69189">
        <ele>2130.492</ele>
        <time>2021-07-19T09:34:58Z</time>
      </trkpt>
      <trkpt lat="42.65187" lon="1.6919">
        <ele>2129.796</ele>
        <time>2021-07-19T09:35:00Z</time>
      </trkpt>
      <trkpt lat="42.65187" lon="1.6919">
        <ele>2129.782</ele>
        <time>2021-07-19T09:35:02Z</time>
      </trkpt>
      <trkpt lat="42.65187" lon="1.6919">
        <ele>2129.771</ele>
        <time>2021-07-19T09:35:04Z</time>
      </trkpt>
      <trkpt lat="42.65187" lon="1.69189">
        <ele>2130.534</ele>
        <time>2021-07-19T09:35:06Z</time>
      </trkpt>
      <trkpt lat="42.65187" lon="1.69189">
        <ele>2129.806</ele>
        <time>2021-07-19T09:35:08Z</time>
      </trkpt>
      <trkpt lat="42.65187" lon="1.69189">
        <ele>2129.803</ele>
        <time>2021-07-19T09:35:10Z</time>
      </trkpt>
      <trkpt lat="42.65188" lon="1.69189">
        <ele>2130.491</ele>
        <time>2021-07-19T09:35:12Z</time>
      </trkpt>
      <trkpt lat="42.65188" lon="1.69189">
        <ele>2130.493</ele>
        <time>2021-07-19T09:35:14Z</time>
      </trkpt>
      <trkpt lat="42.65187" lon="1.6919">
        <ele>2130.91</ele>
        <time>2021-07-19T09:35:16Z</time>
      </trkpt>
      <trkpt lat="42.65187" lon="1.6919">
        <ele>2130.896</ele>
        <time>2021-07-19T09:35:18Z</time>
      </trkpt>
      <trkpt lat="42.65187" lon="1.6919">
        <ele>2130.889</ele>
        <time>2021-07-19T09:35:20Z</time>
      </trkpt>
      <trkpt lat="42.65187" lon="1.6919">
        <ele>2130.88</ele>
        <time>2021-07-19T09:35:22Z</time>
      </trkpt>
      <trkpt lat="42.65187" lon="1.6919">
        <ele>2130.879</ele>
        <time>2021-07-19T09:35:24Z</time>
      </trkpt>
      <trkpt lat="42.65187" lon="1.6919">
        <ele>2130.871</ele>
        <time>2021-07-19T09:35:26Z</time>
      </trkpt>
      <trkpt lat="42.65187" lon="1.6919">
        <ele>2130.87</ele>
        <time>2021-07-19T09:35:28Z</time>
      </trkpt>
      <trkpt lat="42.65188" lon="1.6919">
        <ele>2131.003</ele>
        <time>2021-07-19T09:35:30Z</time>
      </trkpt>
      <trkpt lat="42.65188" lon="1.6919">
        <ele>2131.012</ele>
        <time>2021-07-19T09:35:32Z</time>
      </trkpt>
      <trkpt lat="42.65188" lon="1.6919">
        <ele>2131.017</ele>
        <time>2021-07-19T09:35:34Z</time>
      </trkpt>
      <trkpt lat="42.65188" lon="1.6919">
        <ele>2131.017</ele>
        <time>2021-07-19T09:35:36Z</time>
      </trkpt>
      <trkpt lat="42.65188" lon="1.6919">
        <ele>2131.012</ele>
        <time>2021-07-19T09:35:38Z</time>
      </trkpt>
      <trkpt lat="42.65188" lon="1.6919">
        <ele>2131.005</ele>
        <time>2021-07-19T09:35:40Z</time>
      </trkpt>
      <trkpt lat="42.65188" lon="1.6919">
        <ele>2131.007</ele>
        <time>2021-07-19T09:35:42Z</time>
      </trkpt>
      <trkpt lat="42.65188" lon="1.6919">
        <ele>2131.01</ele>
        <time>2021-07-19T09:35:44Z</time>
      </trkpt>
      <trkpt lat="42.65188" lon="1.6919">
        <ele>2131.013</ele>
        <time>2021-07-19T09:35:46Z</time>
      </trkpt>
      <trkpt lat="42.65188" lon="1.6919">
        <ele>2131.014</ele>
        <time>2021-07-19T09:35:48Z</time>
      </trkpt>
      <trkpt lat="42.65188" lon="1.6919">
        <ele>2131.017</ele>
        <time>2021-07-19T09:35:50Z</time>
      </trkpt>
      <trkpt lat="42.65188" lon="1.6919">
        <ele>2131.282</ele>
        <time>2021-07-19T09:35:52Z</time>
      </trkpt>
      <trkpt lat="42.65188" lon="1.6919">
        <ele>2131.125</ele>
        <time>2021-07-19T09:35:54Z</time>
      </trkpt>
      <trkpt lat="42.65188" lon="1.6919">
        <ele>2131.19</ele>
        <time>2021-07-19T09:35:56Z</time>
      </trkpt>
      <trkpt lat="42.65188" lon="1.6919">
        <ele>2131.2</ele>
        <time>2021-07-19T09:35:58Z</time>
      </trkpt>
      <trkpt lat="42.65188" lon="1.69189">
        <ele>2131.363</ele>
        <time>2021-07-19T09:36:00Z</time>
      </trkpt>
      <trkpt lat="42.65188" lon="1.69187">
        <ele>2131.274</ele>
        <time>2021-07-19T09:36:02Z</time>
      </trkpt>
      <trkpt lat="42.65188" lon="1.69187">
        <ele>2131.34</ele>
        <time>2021-07-19T09:36:04Z</time>
      </trkpt>
      <trkpt lat="42.65189" lon="1.69187">
        <ele>2131.661</ele>
        <time>2021-07-19T09:36:06Z</time>
      </trkpt>
      <trkpt lat="42.6519" lon="1.69189">
        <ele>2132.774</ele>
        <time>2021-07-19T09:36:08Z</time>
      </trkpt>
      <trkpt lat="42.65191" lon="1.6919">
        <ele>2133.529</ele>
        <time>2021-07-19T09:36:10Z</time>
      </trkpt>
      <trkpt lat="42.65192" lon="1.69191">
        <ele>2133.748</ele>
        <time>2021-07-19T09:36:12Z</time>
      </trkpt>
      <trkpt lat="42.65193" lon="1.69192">
        <ele>2134.175</ele>
        <time>2021-07-19T09:36:14Z</time>
      </trkpt>
      <trkpt lat="42.65194" lon="1.69193">
        <ele>2134.074</ele>
        <time>2021-07-19T09:36:16Z</time>
      </trkpt>
      <trkpt lat="42.65196" lon="1.69193">
        <ele>2134.824</ele>
        <time>2021-07-19T09:36:18Z</time>
      </trkpt>
      <trkpt lat="42.65197" lon="1.69194">
        <ele>2135.048</ele>
        <time>2021-07-19T09:36:20Z</time>
      </trkpt>
      <trkpt lat="42.65198" lon="1.69195">
        <ele>2136.005</ele>
        <time>2021-07-19T09:36:22Z</time>
      </trkpt>
      <trkpt lat="42.65199" lon="1.69196">
        <ele>2136.758</ele>
        <time>2021-07-19T09:36:24Z</time>
      </trkpt>
      <trkpt lat="42.65199" lon="1.69198">
        <ele>2137.248</ele>
        <time>2021-07-19T09:36:26Z</time>
      </trkpt>
      <trkpt lat="42.65199" lon="1.692">
        <ele>2136.869</ele>
        <time>2021-07-19T09:36:28Z</time>
      </trkpt>
      <trkpt lat="42.65199" lon="1.69201">
        <ele>2137.52</ele>
        <time>2021-07-19T09:36:30Z</time>
      </trkpt>
      <trkpt lat="42.652" lon="1.692">
        <ele>2137.182</ele>
        <time>2021-07-19T09:36:32Z</time>
      </trkpt>
      <trkpt lat="42.65201" lon="1.692">
        <ele>2137.199</ele>
        <time>2021-07-19T09:36:34Z</time>
      </trkpt>
      <trkpt lat="42.65202" lon="1.692">
        <ele>2137.838</ele>
        <time>2021-07-19T09:36:36Z</time>
      </trkpt>
      <trkpt lat="42.65203" lon="1.692">
        <ele>2138.468</ele>
        <time>2021-07-19T09:36:38Z</time>
      </trkpt>
      <trkpt lat="42.65204" lon="1.69201">
        <ele>2138.755</ele>
        <time>2021-07-19T09:36:40Z</time>
      </trkpt>
      <trkpt lat="42.65204" lon="1.69201">
        <ele>2139.373</ele>
        <time>2021-07-19T09:36:42Z</time>
      </trkpt>
      <trkpt lat="42.65206" lon="1.69201">
        <ele>2138.901</ele>
        <time>2021-07-19T09:36:44Z</time>
      </trkpt>
      <trkpt lat="42.65207" lon="1.69201">
        <ele>2139.162</ele>
        <time>2021-07-19T09:36:46Z</time>
      </trkpt>
      <trkpt lat="42.65207" lon="1.69201">
        <ele>2139.356</ele>
        <time>2021-07-19T09:36:48Z</time>
      </trkpt>
      <trkpt lat="42.65208" lon="1.69203">
        <ele>2139.888</ele>
        <time>2021-07-19T09:36:50Z</time>
      </trkpt>
      <trkpt lat="42.6521" lon="1.69203">
        <ele>2141.007</ele>
        <time>2021-07-19T09:36:52Z</time>
      </trkpt>
      <trkpt lat="42.65211" lon="1.69203">
        <ele>2141.45</ele>
        <time>2021-07-19T09:36:54Z</time>
      </trkpt>
      <trkpt lat="42.65212" lon="1.69203">
        <ele>2141.823</ele>
        <time>2021-07-19T09:36:56Z</time>
      </trkpt>
      <trkpt lat="42.65213" lon="1.69204">
        <ele>2142.072</ele>
        <time>2021-07-19T09:36:58Z</time>
      </trkpt>
      <trkpt lat="42.65213" lon="1.69204">
        <ele>2141.838</ele>
        <time>2021-07-19T09:37:00Z</time>
      </trkpt>
      <trkpt lat="42.65214" lon="1.69203">
        <ele>2141.907</ele>
        <time>2021-07-19T09:37:02Z</time>
      </trkpt>
      <trkpt lat="42.65215" lon="1.69203">
        <ele>2142.507</ele>
        <time>2021-07-19T09:37:04Z</time>
      </trkpt>
      <trkpt lat="42.65216" lon="1.69204">
        <ele>2142.647</ele>
        <time>2021-07-19T09:37:06Z</time>
      </trkpt>
      <trkpt lat="42.65218" lon="1.69205">
        <ele>2142.798</ele>
        <time>2021-07-19T09:37:08Z</time>
      </trkpt>
      <trkpt lat="42.65219" lon="1.69206">
        <ele>2142.785</ele>
        <time>2021-07-19T09:37:10Z</time>
      </trkpt>
      <trkpt lat="42.6522" lon="1.69206">
        <ele>2142.226</ele>
        <time>2021-07-19T09:37:12Z</time>
      </trkpt>
      <trkpt lat="42.65221" lon="1.69206">
        <ele>2143.248</ele>
        <time>2021-07-19T09:37:14Z</time>
      </trkpt>
      <trkpt lat="42.65223" lon="1.69205">
        <ele>2143.187</ele>
        <time>2021-07-19T09:37:16Z</time>
      </trkpt>
      <trkpt lat="42.65224" lon="1.69205">
        <ele>2143.742</ele>
        <time>2021-07-19T09:37:18Z</time>
      </trkpt>
      <trkpt lat="42.65225" lon="1.69206">
        <ele>2144.227</ele>
        <time>2021-07-19T09:37:20Z</time>
      </trkpt>
      <trkpt lat="42.65227" lon="1.69206">
        <ele>2144.504</ele>
        <time>2021-07-19T09:37:22Z</time>
      </trkpt>
      <trkpt lat="42.65228" lon="1.69207">
        <ele>2144.792</ele>
        <time>2021-07-19T09:37:24Z</time>
      </trkpt>
      <trkpt lat="42.6523" lon="1.69207">
        <ele>2145.25</ele>
        <time>2021-07-19T09:37:26Z</time>
      </trkpt>
      <trkpt lat="42.65231" lon="1.69207">
        <ele>2145.795</ele>
        <time>2021-07-19T09:37:28Z</time>
      </trkpt>
      <trkpt lat="42.65232" lon="1.69208">
        <ele>2146.053</ele>
        <time>2021-07-19T09:37:30Z</time>
      </trkpt>
      <trkpt lat="42.65233" lon="1.69208">
        <ele>2146.281</ele>
        <time>2021-07-19T09:37:32Z</time>
      </trkpt>
      <trkpt lat="42.65234" lon="1.69209">
        <ele>2146.469</ele>
        <time>2021-07-19T09:37:34Z</time>
      </trkpt>
      <trkpt lat="42.65235" lon="1.6921">
        <ele>2146.849</ele>
        <time>2021-07-19T09:37:36Z</time>
      </trkpt>
      <trkpt lat="42.65236" lon="1.69211">
        <ele>2147.084</ele>
        <time>2021-07-19T09:37:38Z</time>
      </trkpt>
      <trkpt lat="42.65237" lon="1.69211">
        <ele>2147.028</ele>
        <time>2021-07-19T09:37:40Z</time>
      </trkpt>
      <trkpt lat="42.65238" lon="1.69212">
        <ele>2147.247</ele>
        <time>2021-07-19T09:37:42Z</time>
      </trkpt>
      <trkpt lat="42.65239" lon="1.69213">
        <ele>2147.708</ele>
        <time>2021-07-19T09:37:44Z</time>
      </trkpt>
      <trkpt lat="42.6524" lon="1.69214">
        <ele>2148.388</ele>
        <time>2021-07-19T09:37:46Z</time>
      </trkpt>
      <trkpt lat="42.65242" lon="1.69214">
        <ele>2148.555</ele>
        <time>2021-07-19T09:37:48Z</time>
      </trkpt>
      <trkpt lat="42.65243" lon="1.69213">
        <ele>2148.89</ele>
        <time>2021-07-19T09:37:50Z</time>
      </trkpt>
      <trkpt lat="42.65244" lon="1.69213">
        <ele>2148.936</ele>
        <time>2021-07-19T09:37:52Z</time>
      </trkpt>
      <trkpt lat="42.65245" lon="1.69214">
        <ele>2148.784</ele>
        <time>2021-07-19T09:37:54Z</time>
      </trkpt>
      <trkpt lat="42.65245" lon="1.69214">
        <ele>2148.582</ele>
        <time>2021-07-19T09:37:56Z</time>
      </trkpt>
      <trkpt lat="42.65246" lon="1.69213">
        <ele>2148.309</ele>
        <time>2021-07-19T09:37:58Z</time>
      </trkpt>
      <trkpt lat="42.65247" lon="1.69213">
        <ele>2148.342</ele>
        <time>2021-07-19T09:38:00Z</time>
      </trkpt>
      <trkpt lat="42.65247" lon="1.69213">
        <ele>2148.011</ele>
        <time>2021-07-19T09:38:02Z</time>
      </trkpt>
      <trkpt lat="42.65248" lon="1.69213">
        <ele>2147.938</ele>
        <time>2021-07-19T09:38:04Z</time>
      </trkpt>
      <trkpt lat="42.65248" lon="1.69212">
        <ele>2147.941</ele>
        <time>2021-07-19T09:38:06Z</time>
      </trkpt>
      <trkpt lat="42.65248" lon="1.69212">
        <ele>2147.945</ele>
        <time>2021-07-19T09:38:08Z</time>
      </trkpt>
      <trkpt lat="42.65249" lon="1.69213">
        <ele>2148.105</ele>
        <time>2021-07-19T09:38:10Z</time>
      </trkpt>
      <trkpt lat="42.6525" lon="1.69213">
        <ele>2148.084</ele>
        <time>2021-07-19T09:38:12Z</time>
      </trkpt>
      <trkpt lat="42.6525" lon="1.69213">
        <ele>2148.086</ele>
        <time>2021-07-19T09:38:14Z</time>
      </trkpt>
      <trkpt lat="42.6525" lon="1.69213">
        <ele>2148.078</ele>
        <time>2021-07-19T09:38:16Z</time>
      </trkpt>
      <trkpt lat="42.6525" lon="1.69213">
        <ele>2147.572</ele>
        <time>2021-07-19T09:38:18Z</time>
      </trkpt>
      <trkpt lat="42.65251" lon="1.69213">
        <ele>2147.563</ele>
        <time>2021-07-19T09:38:20Z</time>
      </trkpt>
      <trkpt lat="42.65251" lon="1.69213">
        <ele>2147.562</ele>
        <time>2021-07-19T09:38:22Z</time>
      </trkpt>
      <trkpt lat="42.65252" lon="1.69214">
        <ele>2147.518</ele>
        <time>2021-07-19T09:38:24Z</time>
      </trkpt>
      <trkpt lat="42.65253" lon="1.69214">
        <ele>2147.404</ele>
        <time>2021-07-19T09:38:26Z</time>
      </trkpt>
      <trkpt lat="42.65254" lon="1.69215">
        <ele>2147.081</ele>
        <time>2021-07-19T09:38:28Z</time>
      </trkpt>
      <trkpt lat="42.65256" lon="1.69216">
        <ele>2147.617</ele>
        <time>2021-07-19T09:38:30Z</time>
      </trkpt>
      <trkpt lat="42.65256" lon="1.69218">
        <ele>2147.662</ele>
        <time>2021-07-19T09:38:32Z</time>
      </trkpt>
      <trkpt lat="42.65257" lon="1.6922">
        <ele>2147.553</ele>
        <time>2021-07-19T09:38:34Z</time>
      </trkpt>
      <trkpt lat="42.65256" lon="1.69223">
        <ele>2147.729</ele>
        <time>2021-07-19T09:38:36Z</time>
      </trkpt>
      <trkpt lat="42.65257" lon="1.69226">
        <ele>2147.505</ele>
        <time>2021-07-19T09:38:38Z</time>
      </trkpt>
      <trkpt lat="42.65257" lon="1.69229">
        <ele>2146.899</ele>
        <time>2021-07-19T09:38:40Z</time>
      </trkpt>
      <trkpt lat="42.65258" lon="1.69231">
        <ele>2146.756</ele>
        <time>2021-07-19T09:38:42Z</time>
      </trkpt>
      <trkpt lat="42.65258" lon="1.69234">
        <ele>2146.685</ele>
        <time>2021-07-19T09:38:44Z</time>
      </trkpt>
      <trkpt lat="42.65258" lon="1.69237">
        <ele>2145.757</ele>
        <time>2021-07-19T09:38:46Z</time>
      </trkpt>
      <trkpt lat="42.65258" lon="1.69239">
        <ele>2145.486</ele>
        <time>2021-07-19T09:38:48Z</time>
      </trkpt>
      <trkpt lat="42.65259" lon="1.69242">
        <ele>2145.477</ele>
        <time>2021-07-19T09:38:50Z</time>
      </trkpt>
      <trkpt lat="42.6526" lon="1.69244">
        <ele>2145.093</ele>
        <time>2021-07-19T09:38:52Z</time>
      </trkpt>
      <trkpt lat="42.6526" lon="1.69246">
        <ele>2145.107</ele>
        <time>2021-07-19T09:38:54Z</time>
      </trkpt>
      <trkpt lat="42.65261" lon="1.69249">
        <ele>2145.039</ele>
        <time>2021-07-19T09:38:56Z</time>
      </trkpt>
      <trkpt lat="42.65261" lon="1.69251">
        <ele>2145.051</ele>
        <time>2021-07-19T09:38:58Z</time>
      </trkpt>
      <trkpt lat="42.6526" lon="1.69251">
        <ele>2145.078</ele>
        <time>2021-07-19T09:39:00Z</time>
      </trkpt>
      <trkpt lat="42.65261" lon="1.69253">
        <ele>2145.355</ele>
        <time>2021-07-19T09:39:02Z</time>
      </trkpt>
      <trkpt lat="42.65261" lon="1.69254">
        <ele>2143.906</ele>
        <time>2021-07-19T09:39:04Z</time>
      </trkpt>
      <trkpt lat="42.65261" lon="1.69255">
        <ele>2144.201</ele>
        <time>2021-07-19T09:39:06Z</time>
      </trkpt>
      <trkpt lat="42.65262" lon="1.69255">
        <ele>2143.958</ele>
        <time>2021-07-19T09:39:08Z</time>
      </trkpt>
      <trkpt lat="42.65262" lon="1.69257">
        <ele>2144.174</ele>
        <time>2021-07-19T09:39:10Z</time>
      </trkpt>
      <trkpt lat="42.65262" lon="1.6926">
        <ele>2143.348</ele>
        <time>2021-07-19T09:39:12Z</time>
      </trkpt>
      <trkpt lat="42.65262" lon="1.69262">
        <ele>2143.132</ele>
        <time>2021-07-19T09:39:14Z</time>
      </trkpt>
      <trkpt lat="42.65262" lon="1.69265">
        <ele>2142.503</ele>
        <time>2021-07-19T09:39:16Z</time>
      </trkpt>
      <trkpt lat="42.65262" lon="1.69267">
        <ele>2142.313</ele>
        <time>2021-07-19T09:39:18Z</time>
      </trkpt>
      <trkpt lat="42.65262" lon="1.69269">
        <ele>2141.264</ele>
        <time>2021-07-19T09:39:20Z</time>
      </trkpt>
      <trkpt lat="42.65263" lon="1.6927">
        <ele>2139.823</ele>
        <time>2021-07-19T09:39:22Z</time>
      </trkpt>
      <trkpt lat="42.65263" lon="1.69271">
        <ele>2140.061</ele>
        <time>2021-07-19T09:39:24Z</time>
      </trkpt>
      <trkpt lat="42.65263" lon="1.69271">
        <ele>2140.132</ele>
        <time>2021-07-19T09:39:26Z</time>
      </trkpt>
      <trkpt lat="42.65263" lon="1.69271">
        <ele>2139.992</ele>
        <time>2021-07-19T09:39:28Z</time>
      </trkpt>
      <trkpt lat="42.65263" lon="1.69271">
        <ele>2139.507</ele>
        <time>2021-07-19T09:39:30Z</time>
      </trkpt>
      <trkpt lat="42.65263" lon="1.69272">
        <ele>2138.832</ele>
        <time>2021-07-19T09:39:32Z</time>
      </trkpt>
      <trkpt lat="42.65265" lon="1.69274">
        <ele>2138.508</ele>
        <time>2021-07-19T09:39:34Z</time>
      </trkpt>
      <trkpt lat="42.65265" lon="1.69276">
        <ele>2137.565</ele>
        <time>2021-07-19T09:39:36Z</time>
      </trkpt>
      <trkpt lat="42.65265" lon="1.69278">
        <ele>2137.114</ele>
        <time>2021-07-19T09:39:38Z</time>
      </trkpt>
      <trkpt lat="42.65265" lon="1.6928">
        <ele>2136.568</ele>
        <time>2021-07-19T09:39:40Z</time>
      </trkpt>
      <trkpt lat="42.65264" lon="1.69282">
        <ele>2136.868</ele>
        <time>2021-07-19T09:39:42Z</time>
      </trkpt>
      <trkpt lat="42.65263" lon="1.69284">
        <ele>2137.153</ele>
        <time>2021-07-19T09:39:44Z</time>
      </trkpt>
      <trkpt lat="42.65262" lon="1.69286">
        <ele>2136.787</ele>
        <time>2021-07-19T09:39:46Z</time>
      </trkpt>
      <trkpt lat="42.65262" lon="1.69288">
        <ele>2136.45</ele>
        <time>2021-07-19T09:39:48Z</time>
      </trkpt>
      <trkpt lat="42.65262" lon="1.69289">
        <ele>2136.827</ele>
        <time>2021-07-19T09:39:50Z</time>
      </trkpt>
      <trkpt lat="42.65262" lon="1.69289">
        <ele>2136.888</ele>
        <time>2021-07-19T09:39:52Z</time>
      </trkpt>
      <trkpt lat="42.65262" lon="1.69289">
        <ele>2136.892</ele>
        <time>2021-07-19T09:39:54Z</time>
      </trkpt>
      <trkpt lat="42.65262" lon="1.69289">
        <ele>2136.595</ele>
        <time>2021-07-19T09:39:56Z</time>
      </trkpt>
      <trkpt lat="42.65262" lon="1.69289">
        <ele>2136.805</ele>
        <time>2021-07-19T09:39:58Z</time>
      </trkpt>
      <trkpt lat="42.65262" lon="1.69289">
        <ele>2137.774</ele>
        <time>2021-07-19T09:40:00Z</time>
      </trkpt>
      <trkpt lat="42.65262" lon="1.69289">
        <ele>2137.747</ele>
        <time>2021-07-19T09:40:02Z</time>
      </trkpt>
      <trkpt lat="42.65262" lon="1.69289">
        <ele>2137.744</ele>
        <time>2021-07-19T09:40:04Z</time>
      </trkpt>
      <trkpt lat="42.65262" lon="1.69289">
        <ele>2137.732</ele>
        <time>2021-07-19T09:40:06Z</time>
      </trkpt>
      <trkpt lat="42.65262" lon="1.69289">
        <ele>2137.734</ele>
        <time>2021-07-19T09:40:08Z</time>
      </trkpt>
      <trkpt lat="42.65262" lon="1.69289">
        <ele>2137.751</ele>
        <time>2021-07-19T09:40:10Z</time>
      </trkpt>
      <trkpt lat="42.65262" lon="1.69289">
        <ele>2137.743</ele>
        <time>2021-07-19T09:40:12Z</time>
      </trkpt>
      <trkpt lat="42.65262" lon="1.69289">
        <ele>2137.732</ele>
        <time>2021-07-19T09:40:14Z</time>
      </trkpt>
      <trkpt lat="42.65262" lon="1.69289">
        <ele>2137.979</ele>
        <time>2021-07-19T09:40:16Z</time>
      </trkpt>
      <trkpt lat="42.65262" lon="1.6929">
        <ele>2137.972</ele>
        <time>2021-07-19T09:40:18Z</time>
      </trkpt>
      <trkpt lat="42.65262" lon="1.6929">
        <ele>2137.968</ele>
        <time>2021-07-19T09:40:20Z</time>
      </trkpt>
      <trkpt lat="42.65262" lon="1.6929">
        <ele>2137.975</ele>
        <time>2021-07-19T09:40:22Z</time>
      </trkpt>
      <trkpt lat="42.65262" lon="1.6929">
        <ele>2137.982</ele>
        <time>2021-07-19T09:40:24Z</time>
      </trkpt>
      <trkpt lat="42.65262" lon="1.6929">
        <ele>2137.99</ele>
        <time>2021-07-19T09:40:26Z</time>
      </trkpt>
      <trkpt lat="42.65262" lon="1.6929">
        <ele>2137.994</ele>
        <time>2021-07-19T09:40:28Z</time>
      </trkpt>
      <trkpt lat="42.65262" lon="1.6929">
        <ele>2137.996</ele>
        <time>2021-07-19T09:40:30Z</time>
      </trkpt>
      <trkpt lat="42.65262" lon="1.6929">
        <ele>2138.001</ele>
        <time>2021-07-19T09:40:32Z</time>
      </trkpt>
      <trkpt lat="42.65262" lon="1.6929">
        <ele>2138.003</ele>
        <time>2021-07-19T09:40:34Z</time>
      </trkpt>
      <trkpt lat="42.65262" lon="1.69289">
        <ele>2138.112</ele>
        <time>2021-07-19T09:40:36Z</time>
      </trkpt>
      <trkpt lat="42.65262" lon="1.69289">
        <ele>2138.107</ele>
        <time>2021-07-19T09:40:38Z</time>
      </trkpt>
      <trkpt lat="42.65262" lon="1.69289">
        <ele>2138.095</ele>
        <time>2021-07-19T09:40:40Z</time>
      </trkpt>
      <trkpt lat="42.65262" lon="1.69289">
        <ele>2137.813</ele>
        <time>2021-07-19T09:40:42Z</time>
      </trkpt>
      <trkpt lat="42.65262" lon="1.69289">
        <ele>2137.873</ele>
        <time>2021-07-19T09:40:44Z</time>
      </trkpt>
      <trkpt lat="42.65262" lon="1.69289">
        <ele>2138.104</ele>
        <time>2021-07-19T09:40:46Z</time>
      </trkpt>
      <trkpt lat="42.65261" lon="1.6929">
        <ele>2138.105</ele>
        <time>2021-07-19T09:40:48Z</time>
      </trkpt>
      <trkpt lat="42.65261" lon="1.69289">
        <ele>2137.985</ele>
        <time>2021-07-19T09:40:50Z</time>
      </trkpt>
      <trkpt lat="42.65261" lon="1.69289">
        <ele>2137.979</ele>
        <time>2021-07-19T09:40:52Z</time>
      </trkpt>
      <trkpt lat="42.65261" lon="1.69289">
        <ele>2137.991</ele>
        <time>2021-07-19T09:40:54Z</time>
      </trkpt>
      <trkpt lat="42.65261" lon="1.69289">
        <ele>2137.989</ele>
        <time>2021-07-19T09:40:56Z</time>
      </trkpt>
      <trkpt lat="42.65261" lon="1.69289">
        <ele>2138.39</ele>
        <time>2021-07-19T09:40:58Z</time>
      </trkpt>
      <trkpt lat="42.65262" lon="1.69287">
        <ele>2138.743</ele>
        <time>2021-07-19T09:41:00Z</time>
      </trkpt>
      <trkpt lat="42.65263" lon="1.69286">
        <ele>2139.521</ele>
        <time>2021-07-19T09:41:02Z</time>
      </trkpt>
      <trkpt lat="42.65264" lon="1.69284">
        <ele>2139.919</ele>
        <time>2021-07-19T09:41:04Z</time>
      </trkpt>
      <trkpt lat="42.65264" lon="1.69283">
        <ele>2139.839</ele>
        <time>2021-07-19T09:41:06Z</time>
      </trkpt>
      <trkpt lat="42.65265" lon="1.69281">
        <ele>2139.833</ele>
        <time>2021-07-19T09:41:08Z</time>
      </trkpt>
      <trkpt lat="42.65265" lon="1.69281">
        <ele>2140.461</ele>
        <time>2021-07-19T09:41:10Z</time>
      </trkpt>
      <trkpt lat="42.65266" lon="1.69281">
        <ele>2140.27</ele>
        <time>2021-07-19T09:41:12Z</time>
      </trkpt>
      <trkpt lat="42.65266" lon="1.69281">
        <ele>2140.297</ele>
        <time>2021-07-19T09:41:14Z</time>
      </trkpt>
      <trkpt lat="42.65266" lon="1.69281">
        <ele>2140.284</ele>
        <time>2021-07-19T09:41:16Z</time>
      </trkpt>
      <trkpt lat="42.65266" lon="1.69281">
        <ele>2140.295</ele>
        <time>2021-07-19T09:41:18Z</time>
      </trkpt>
      <trkpt lat="42.65266" lon="1.69281">
        <ele>2140.282</ele>
        <time>2021-07-19T09:41:20Z</time>
      </trkpt>
      <trkpt lat="42.65266" lon="1.69281">
        <ele>2140.286</ele>
        <time>2021-07-19T09:41:22Z</time>
      </trkpt>
      <trkpt lat="42.65266" lon="1.69281">
        <ele>2140.257</ele>
        <time>2021-07-19T09:41:24Z</time>
      </trkpt>
      <trkpt lat="42.65266" lon="1.69281">
        <ele>2140.253</ele>
        <time>2021-07-19T09:41:26Z</time>
      </trkpt>
      <trkpt lat="42.65266" lon="1.6928">
        <ele>2140.208</ele>
        <time>2021-07-19T09:41:28Z</time>
      </trkpt>
      <trkpt lat="42.65266" lon="1.6928">
        <ele>2140.11</ele>
        <time>2021-07-19T09:41:30Z</time>
      </trkpt>
      <trkpt lat="42.65266" lon="1.6928">
        <ele>2140.101</ele>
        <time>2021-07-19T09:41:32Z</time>
      </trkpt>
      <trkpt lat="42.65266" lon="1.6928">
        <ele>2140.091</ele>
        <time>2021-07-19T09:41:34Z</time>
      </trkpt>
      <trkpt lat="42.65266" lon="1.6928">
        <ele>2140.079</ele>
        <time>2021-07-19T09:41:36Z</time>
      </trkpt>
      <trkpt lat="42.65266" lon="1.6928">
        <ele>2140.067</ele>
        <time>2021-07-19T09:41:38Z</time>
      </trkpt>
      <trkpt lat="42.65266" lon="1.6928">
        <ele>2140.068</ele>
        <time>2021-07-19T09:41:40Z</time>
      </trkpt>
      <trkpt lat="42.65266" lon="1.6928">
        <ele>2140.065</ele>
        <time>2021-07-19T09:41:42Z</time>
      </trkpt>
      <trkpt lat="42.65266" lon="1.6928">
        <ele>2140.051</ele>
        <time>2021-07-19T09:41:44Z</time>
      </trkpt>
      <trkpt lat="42.65266" lon="1.6928">
        <ele>2140.044</ele>
        <time>2021-07-19T09:41:46Z</time>
      </trkpt>
      <trkpt lat="42.65266" lon="1.6928">
        <ele>2140.043</ele>
        <time>2021-07-19T09:41:48Z</time>
      </trkpt>
      <trkpt lat="42.65266" lon="1.6928">
        <ele>2140.06</ele>
        <time>2021-07-19T09:41:50Z</time>
      </trkpt>
      <trkpt lat="42.65266" lon="1.6928">
        <ele>2140.062</ele>
        <time>2021-07-19T09:41:52Z</time>
      </trkpt>
      <trkpt lat="42.65266" lon="1.6928">
        <ele>2140.061</ele>
        <time>2021-07-19T09:41:54Z</time>
      </trkpt>
      <trkpt lat="42.65266" lon="1.6928">
        <ele>2140.029</ele>
        <time>2021-07-19T09:41:56Z</time>
      </trkpt>
      <trkpt lat="42.65266" lon="1.6928">
        <ele>2140.04</ele>
        <time>2021-07-19T09:41:58Z</time>
      </trkpt>
      <trkpt lat="42.65266" lon="1.6928">
        <ele>2140.049</ele>
        <time>2021-07-19T09:42:00Z</time>
      </trkpt>
      <trkpt lat="42.65266" lon="1.6928">
        <ele>2140.052</ele>
        <time>2021-07-19T09:42:02Z</time>
      </trkpt>
      <trkpt lat="42.65266" lon="1.6928">
        <ele>2140.052</ele>
        <time>2021-07-19T09:42:04Z</time>
      </trkpt>
      <trkpt lat="42.65266" lon="1.6928">
        <ele>2140.049</ele>
        <time>2021-07-19T09:42:06Z</time>
      </trkpt>
      <trkpt lat="42.65266" lon="1.6928">
        <ele>2140.045</ele>
        <time>2021-07-19T09:42:08Z</time>
      </trkpt>
      <trkpt lat="42.65266" lon="1.6928">
        <ele>2140.038</ele>
        <time>2021-07-19T09:42:10Z</time>
      </trkpt>
      <trkpt lat="42.65266" lon="1.6928">
        <ele>2140.034</ele>
        <time>2021-07-19T09:42:12Z</time>
      </trkpt>
      <trkpt lat="42.65266" lon="1.6928">
        <ele>2140.032</ele>
        <time>2021-07-19T09:42:14Z</time>
      </trkpt>
      <trkpt lat="42.65266" lon="1.6928">
        <ele>2140.029</ele>
        <time>2021-07-19T09:42:16Z</time>
      </trkpt>
      <trkpt lat="42.65266" lon="1.69279">
        <ele>2140.41</ele>
        <time>2021-07-19T09:42:18Z</time>
      </trkpt>
      <trkpt lat="42.65266" lon="1.69278">
        <ele>2140.629</ele>
        <time>2021-07-19T09:42:20Z</time>
      </trkpt>
      <trkpt lat="42.65265" lon="1.69277">
        <ele>2140.413</ele>
        <time>2021-07-19T09:42:22Z</time>
      </trkpt>
      <trkpt lat="42.65265" lon="1.69276">
        <ele>2140.549</ele>
        <time>2021-07-19T09:42:24Z</time>
      </trkpt>
      <trkpt lat="42.65266" lon="1.69274">
        <ele>2140.693</ele>
        <time>2021-07-19T09:42:26Z</time>
      </trkpt>
      <trkpt lat="42.65266" lon="1.69272">
        <ele>2140.839</ele>
        <time>2021-07-19T09:42:28Z</time>
      </trkpt>
      <trkpt lat="42.65266" lon="1.69271">
        <ele>2140.922</ele>
        <time>2021-07-19T09:42:30Z</time>
      </trkpt>
      <trkpt lat="42.65266" lon="1.69271">
        <ele>2140.925</ele>
        <time>2021-07-19T09:42:32Z</time>
      </trkpt>
      <trkpt lat="42.65266" lon="1.69271">
        <ele>2140.918</ele>
        <time>2021-07-19T09:42:34Z</time>
      </trkpt>
      <trkpt lat="42.65266" lon="1.6927">
        <ele>2140.922</ele>
        <time>2021-07-19T09:42:36Z</time>
      </trkpt>
      <trkpt lat="42.65266" lon="1.69268">
        <ele>2141.381</ele>
        <time>2021-07-19T09:42:38Z</time>
      </trkpt>
      <trkpt lat="42.65265" lon="1.69267">
        <ele>2141.62</ele>
        <time>2021-07-19T09:42:40Z</time>
      </trkpt>
      <trkpt lat="42.65264" lon="1.69265">
        <ele>2141.052</ele>
        <time>2021-07-19T09:42:42Z</time>
      </trkpt>
      <trkpt lat="42.65264" lon="1.69264">
        <ele>2141.545</ele>
        <time>2021-07-19T09:42:44Z</time>
      </trkpt>
      <trkpt lat="42.65263" lon="1.69264">
        <ele>2141.581</ele>
        <time>2021-07-19T09:42:46Z</time>
      </trkpt>
      <trkpt lat="42.65263" lon="1.69264">
        <ele>2141.301</ele>
        <time>2021-07-19T09:42:48Z</time>
      </trkpt>
      <trkpt lat="42.65263" lon="1.69264">
        <ele>2141.315</ele>
        <time>2021-07-19T09:42:50Z</time>
      </trkpt>
      <trkpt lat="42.65263" lon="1.69264">
        <ele>2141.33</ele>
        <time>2021-07-19T09:42:52Z</time>
      </trkpt>
      <trkpt lat="42.65263" lon="1.69264">
        <ele>2141.337</ele>
        <time>2021-07-19T09:42:54Z</time>
      </trkpt>
      <trkpt lat="42.65263" lon="1.69264">
        <ele>2141.339</ele>
        <time>2021-07-19T09:42:56Z</time>
      </trkpt>
      <trkpt lat="42.65263" lon="1.69264">
        <ele>2141.347</ele>
        <time>2021-07-19T09:42:58Z</time>
      </trkpt>
      <trkpt lat="42.65263" lon="1.69264">
        <ele>2141.557</ele>
        <time>2021-07-19T09:43:00Z</time>
      </trkpt>
      <trkpt lat="42.65263" lon="1.69263">
        <ele>2141.194</ele>
        <time>2021-07-19T09:43:02Z</time>
      </trkpt>
      <trkpt lat="42.65262" lon="1.69262">
        <ele>2141.158</ele>
        <time>2021-07-19T09:43:04Z</time>
      </trkpt>
      <trkpt lat="42.65262" lon="1.69262">
        <ele>2141.015</ele>
        <time>2021-07-19T09:43:06Z</time>
      </trkpt>
      <trkpt lat="42.65263" lon="1.69261">
        <ele>2141.535</ele>
        <time>2021-07-19T09:43:08Z</time>
      </trkpt>
      <trkpt lat="42.65263" lon="1.6926">
        <ele>2141.548</ele>
        <time>2021-07-19T09:43:10Z</time>
      </trkpt>
      <trkpt lat="42.65263" lon="1.6926">
        <ele>2141.544</ele>
        <time>2021-07-19T09:43:12Z</time>
      </trkpt>
      <trkpt lat="42.65263" lon="1.6926">
        <ele>2141.544</ele>
        <time>2021-07-19T09:43:14Z</time>
      </trkpt>
      <trkpt lat="42.65263" lon="1.6926">
        <ele>2141.554</ele>
        <time>2021-07-19T09:43:16Z</time>
      </trkpt>
      <trkpt lat="42.65263" lon="1.6926">
        <ele>2141.553</ele>
        <time>2021-07-19T09:43:18Z</time>
      </trkpt>
      <trkpt lat="42.65263" lon="1.6926">
        <ele>2141.555</ele>
        <time>2021-07-19T09:43:20Z</time>
      </trkpt>
      <trkpt lat="42.65263" lon="1.6926">
        <ele>2141.667</ele>
        <time>2021-07-19T09:43:22Z</time>
      </trkpt>
      <trkpt lat="42.65263" lon="1.69258">
        <ele>2142.15</ele>
        <time>2021-07-19T09:43:24Z</time>
      </trkpt>
      <trkpt lat="42.65263" lon="1.69256">
        <ele>2143.06</ele>
        <time>2021-07-19T09:43:26Z</time>
      </trkpt>
      <trkpt lat="42.65262" lon="1.69255">
        <ele>2143.543</ele>
        <time>2021-07-19T09:43:28Z</time>
      </trkpt>
      <trkpt lat="42.65262" lon="1.69253">
        <ele>2144.185</ele>
        <time>2021-07-19T09:43:30Z</time>
      </trkpt>
      <trkpt lat="42.65261" lon="1.69252">
        <ele>2144.899</ele>
        <time>2021-07-19T09:43:32Z</time>
      </trkpt>
      <trkpt lat="42.65261" lon="1.69251">
        <ele>2144.674</ele>
        <time>2021-07-19T09:43:34Z</time>
      </trkpt>
      <trkpt lat="42.65261" lon="1.69249">
        <ele>2145.091</ele>
        <time>2021-07-19T09:43:36Z</time>
      </trkpt>
      <trkpt lat="42.6526" lon="1.69247">
        <ele>2146.201</ele>
        <time>2021-07-19T09:43:38Z</time>
      </trkpt>
      <trkpt lat="42.6526" lon="1.69246">
        <ele>2146.716</ele>
        <time>2021-07-19T09:43:40Z</time>
      </trkpt>
      <trkpt lat="42.65259" lon="1.69243">
        <ele>2147.146</ele>
        <time>2021-07-19T09:43:42Z</time>
      </trkpt>
      <trkpt lat="42.65259" lon="1.69241">
        <ele>2147.029</ele>
        <time>2021-07-19T09:43:44Z</time>
      </trkpt>
      <trkpt lat="42.65259" lon="1.69239">
        <ele>2147.461</ele>
        <time>2021-07-19T09:43:46Z</time>
      </trkpt>
      <trkpt lat="42.65259" lon="1.69237">
        <ele>2147.569</ele>
        <time>2021-07-19T09:43:48Z</time>
      </trkpt>
      <trkpt lat="42.65259" lon="1.69235">
        <ele>2147.863</ele>
        <time>2021-07-19T09:43:50Z</time>
      </trkpt>
      <trkpt lat="42.65259" lon="1.69232">
        <ele>2148.774</ele>
        <time>2021-07-19T09:43:52Z</time>
      </trkpt>
      <trkpt lat="42.65259" lon="1.69229">
        <ele>2149.284</ele>
        <time>2021-07-19T09:43:54Z</time>
      </trkpt>
      <trkpt lat="42.65258" lon="1.69227">
        <ele>2149.691</ele>
        <time>2021-07-19T09:43:56Z</time>
      </trkpt>
      <trkpt lat="42.65258" lon="1.69224">
        <ele>2150.453</ele>
        <time>2021-07-19T09:43:58Z</time>
      </trkpt>
      <trkpt lat="42.65257" lon="1.69222">
        <ele>2149.783</ele>
        <time>2021-07-19T09:44:00Z</time>
      </trkpt>
      <trkpt lat="42.65257" lon="1.69219">
        <ele>2148.949</ele>
        <time>2021-07-19T09:44:02Z</time>
      </trkpt>
      <trkpt lat="42.65257" lon="1.69217">
        <ele>2148.819</ele>
        <time>2021-07-19T09:44:04Z</time>
      </trkpt>
      <trkpt lat="42.65257" lon="1.69214">
        <ele>2149.619</ele>
        <time>2021-07-19T09:44:06Z</time>
      </trkpt>
      <trkpt lat="42.65256" lon="1.69212">
        <ele>2149.633</ele>
        <time>2021-07-19T09:44:08Z</time>
      </trkpt>
      <trkpt lat="42.65255" lon="1.6921">
        <ele>2148.165</ele>
        <time>2021-07-19T09:44:10Z</time>
      </trkpt>
      <trkpt lat="42.65254" lon="1.69209">
        <ele>2149.208</ele>
        <time>2021-07-19T09:44:12Z</time>
      </trkpt>
      <trkpt lat="42.65253" lon="1.69207">
        <ele>2149.504</ele>
        <time>2021-07-19T09:44:14Z</time>
      </trkpt>
      <trkpt lat="42.65252" lon="1.69206">
        <ele>2150.679</ele>
        <time>2021-07-19T09:44:16Z</time>
      </trkpt>
      <trkpt lat="42.65251" lon="1.69204">
        <ele>2150.074</ele>
        <time>2021-07-19T09:44:18Z</time>
      </trkpt>
      <trkpt lat="42.65251" lon="1.69202">
        <ele>2150.087</ele>
        <time>2021-07-19T09:44:20Z</time>
      </trkpt>
      <trkpt lat="42.65251" lon="1.692">
        <ele>2150.376</ele>
        <time>2021-07-19T09:44:22Z</time>
      </trkpt>
      <trkpt lat="42.65251" lon="1.69199">
        <ele>2150.111</ele>
        <time>2021-07-19T09:44:24Z</time>
      </trkpt>
      <trkpt lat="42.65251" lon="1.69197">
        <ele>2150.233</ele>
        <time>2021-07-19T09:44:26Z</time>
      </trkpt>
      <trkpt lat="42.6525" lon="1.69195">
        <ele>2149.762</ele>
        <time>2021-07-19T09:44:28Z</time>
      </trkpt>
      <trkpt lat="42.6525" lon="1.69194">
        <ele>2149.774</ele>
        <time>2021-07-19T09:44:30Z</time>
      </trkpt>
      <trkpt lat="42.6525" lon="1.69194">
        <ele>2149.75</ele>
        <time>2021-07-19T09:44:32Z</time>
      </trkpt>
      <trkpt lat="42.6525" lon="1.69194">
        <ele>2149.754</ele>
        <time>2021-07-19T09:44:34Z</time>
      </trkpt>
      <trkpt lat="42.6525" lon="1.69194">
        <ele>2149.942</ele>
        <time>2021-07-19T09:44:36Z</time>
      </trkpt>
      <trkpt lat="42.6525" lon="1.69194">
        <ele>2149.948</ele>
        <time>2021-07-19T09:44:38Z</time>
      </trkpt>
      <trkpt lat="42.6525" lon="1.69194">
        <ele>2149.961</ele>
        <time>2021-07-19T09:44:40Z</time>
      </trkpt>
      <trkpt lat="42.6525" lon="1.69194">
        <ele>2149.985</ele>
        <time>2021-07-19T09:44:42Z</time>
      </trkpt>
      <trkpt lat="42.6525" lon="1.69194">
        <ele>2149.985</ele>
        <time>2021-07-19T09:44:44Z</time>
      </trkpt>
      <trkpt lat="42.6525" lon="1.69194">
        <ele>2149.981</ele>
        <time>2021-07-19T09:44:46Z</time>
      </trkpt>
      <trkpt lat="42.6525" lon="1.69194">
        <ele>2149.986</ele>
        <time>2021-07-19T09:44:48Z</time>
      </trkpt>
      <trkpt lat="42.6525" lon="1.69194">
        <ele>2149.987</ele>
        <time>2021-07-19T09:44:50Z</time>
      </trkpt>
      <trkpt lat="42.6525" lon="1.69193">
        <ele>2150.337</ele>
        <time>2021-07-19T09:44:52Z</time>
      </trkpt>
      <trkpt lat="42.6525" lon="1.69192">
        <ele>2150.264</ele>
        <time>2021-07-19T09:44:54Z</time>
      </trkpt>
      <trkpt lat="42.65249" lon="1.6919">
        <ele>2149.656</ele>
        <time>2021-07-19T09:44:56Z</time>
      </trkpt>
      <trkpt lat="42.65249" lon="1.69188">
        <ele>2148.305</ele>
        <time>2021-07-19T09:44:58Z</time>
      </trkpt>
      <trkpt lat="42.65249" lon="1.69186">
        <ele>2148.264</ele>
        <time>2021-07-19T09:45:00Z</time>
      </trkpt>
      <trkpt lat="42.6525" lon="1.69183">
        <ele>2148.821</ele>
        <time>2021-07-19T09:45:02Z</time>
      </trkpt>
      <trkpt lat="42.6525" lon="1.69181">
        <ele>2148.206</ele>
        <time>2021-07-19T09:45:04Z</time>
      </trkpt>
      <trkpt lat="42.6525" lon="1.69179">
        <ele>2147.663</ele>
        <time>2021-07-19T09:45:06Z</time>
      </trkpt>
      <trkpt lat="42.6525" lon="1.69176">
        <ele>2148.503</ele>
        <time>2021-07-19T09:45:08Z</time>
      </trkpt>
      <trkpt lat="42.65251" lon="1.69175">
        <ele>2148.946</ele>
        <time>2021-07-19T09:45:10Z</time>
      </trkpt>
      <trkpt lat="42.65251" lon="1.69175">
        <ele>2148.981</ele>
        <time>2021-07-19T09:45:12Z</time>
      </trkpt>
      <trkpt lat="42.65251" lon="1.69175">
        <ele>2148.519</ele>
        <time>2021-07-19T09:45:14Z</time>
      </trkpt>
      <trkpt lat="42.65251" lon="1.69175">
        <ele>2148.528</ele>
        <time>2021-07-19T09:45:16Z</time>
      </trkpt>
      <trkpt lat="42.65251" lon="1.69175">
        <ele>2148.585</ele>
        <time>2021-07-19T09:45:18Z</time>
      </trkpt>
      <trkpt lat="42.6525" lon="1.69174">
        <ele>2148.344</ele>
        <time>2021-07-19T09:45:20Z</time>
      </trkpt>
      <trkpt lat="42.65249" lon="1.69172">
        <ele>2148.055</ele>
        <time>2021-07-19T09:45:22Z</time>
      </trkpt>
      <trkpt lat="42.65248" lon="1.6917">
        <ele>2148.008</ele>
        <time>2021-07-19T09:45:24Z</time>
      </trkpt>
      <trkpt lat="42.65248" lon="1.69168">
        <ele>2147.567</ele>
        <time>2021-07-19T09:45:26Z</time>
      </trkpt>
      <trkpt lat="42.65248" lon="1.69166">
        <ele>2147.849</ele>
        <time>2021-07-19T09:45:28Z</time>
      </trkpt>
      <trkpt lat="42.65248" lon="1.69164">
        <ele>2147.149</ele>
        <time>2021-07-19T09:45:30Z</time>
      </trkpt>
      <trkpt lat="42.65248" lon="1.69161">
        <ele>2146.807</ele>
        <time>2021-07-19T09:45:32Z</time>
      </trkpt>
      <trkpt lat="42.65248" lon="1.69158">
        <ele>2146.688</ele>
        <time>2021-07-19T09:45:34Z</time>
      </trkpt>
      <trkpt lat="42.65248" lon="1.69155">
        <ele>2146.328</ele>
        <time>2021-07-19T09:45:36Z</time>
      </trkpt>
      <trkpt lat="42.65248" lon="1.69152">
        <ele>2146.207</ele>
        <time>2021-07-19T09:45:38Z</time>
      </trkpt>
      <trkpt lat="42.65248" lon="1.69149">
        <ele>2145.775</ele>
        <time>2021-07-19T09:45:40Z</time>
      </trkpt>
      <trkpt lat="42.65248" lon="1.69147">
        <ele>2145.874</ele>
        <time>2021-07-19T09:45:42Z</time>
      </trkpt>
      <trkpt lat="42.65247" lon="1.69144">
        <ele>2146.508</ele>
        <time>2021-07-19T09:45:44Z</time>
      </trkpt>
      <trkpt lat="42.65247" lon="1.69141">
        <ele>2146.255</ele>
        <time>2021-07-19T09:45:46Z</time>
      </trkpt>
      <trkpt lat="42.65247" lon="1.69139">
        <ele>2146.318</ele>
        <time>2021-07-19T09:45:48Z</time>
      </trkpt>
      <trkpt lat="42.65248" lon="1.69136">
        <ele>2146.823</ele>
        <time>2021-07-19T09:45:50Z</time>
      </trkpt>
      <trkpt lat="42.65248" lon="1.69134">
        <ele>2146.227</ele>
        <time>2021-07-19T09:45:52Z</time>
      </trkpt>
      <trkpt lat="42.65248" lon="1.69131">
        <ele>2145.679</ele>
        <time>2021-07-19T09:45:54Z</time>
      </trkpt>
      <trkpt lat="42.65249" lon="1.69129">
        <ele>2145.363</ele>
        <time>2021-07-19T09:45:56Z</time>
      </trkpt>
      <trkpt lat="42.65249" lon="1.69126">
        <ele>2145.564</ele>
        <time>2021-07-19T09:45:58Z</time>
      </trkpt>
      <trkpt lat="42.6525" lon="1.69125">
        <ele>2145.005</ele>
        <time>2021-07-19T09:46:00Z</time>
      </trkpt>
      <trkpt lat="42.6525" lon="1.69125">
        <ele>2144.202</ele>
        <time>2021-07-19T09:46:02Z</time>
      </trkpt>
      <trkpt lat="42.6525" lon="1.69125">
        <ele>2144.185</ele>
        <time>2021-07-19T09:46:04Z</time>
      </trkpt>
      <trkpt lat="42.65249" lon="1.69125">
        <ele>2144.185</ele>
        <time>2021-07-19T09:46:06Z</time>
      </trkpt>
      <trkpt lat="42.65249" lon="1.69125">
        <ele>2144.189</ele>
        <time>2021-07-19T09:46:08Z</time>
      </trkpt>
      <trkpt lat="42.6525" lon="1.69125">
        <ele>2144.398</ele>
        <time>2021-07-19T09:46:10Z</time>
      </trkpt>
      <trkpt lat="42.6525" lon="1.69122">
        <ele>2144.293</ele>
        <time>2021-07-19T09:46:12Z</time>
      </trkpt>
      <trkpt lat="42.65251" lon="1.6912">
        <ele>2144.851</ele>
        <time>2021-07-19T09:46:14Z</time>
      </trkpt>
      <trkpt lat="42.6525" lon="1.69118">
        <ele>2143.735</ele>
        <time>2021-07-19T09:46:16Z</time>
      </trkpt>
      <trkpt lat="42.6525" lon="1.69116">
        <ele>2143.661</ele>
        <time>2021-07-19T09:46:18Z</time>
      </trkpt>
      <trkpt lat="42.65249" lon="1.69116">
        <ele>2143.427</ele>
        <time>2021-07-19T09:46:20Z</time>
      </trkpt>
      <trkpt lat="42.65249" lon="1.69116">
        <ele>2143.413</ele>
        <time>2021-07-19T09:46:22Z</time>
      </trkpt>
      <trkpt lat="42.65249" lon="1.69116">
        <ele>2143.412</ele>
        <time>2021-07-19T09:46:24Z</time>
      </trkpt>
      <trkpt lat="42.65249" lon="1.69116">
        <ele>2143.395</ele>
        <time>2021-07-19T09:46:26Z</time>
      </trkpt>
      <trkpt lat="42.65249" lon="1.69116">
        <ele>2143.284</ele>
        <time>2021-07-19T09:46:28Z</time>
      </trkpt>
      <trkpt lat="42.65249" lon="1.69116">
        <ele>2142.83</ele>
        <time>2021-07-19T09:46:30Z</time>
      </trkpt>
      <trkpt lat="42.65249" lon="1.69114">
        <ele>2143.333</ele>
        <time>2021-07-19T09:46:32Z</time>
      </trkpt>
      <trkpt lat="42.65248" lon="1.69112">
        <ele>2142.337</ele>
        <time>2021-07-19T09:46:34Z</time>
      </trkpt>
      <trkpt lat="42.65247" lon="1.69112">
        <ele>2142.425</ele>
        <time>2021-07-19T09:46:36Z</time>
      </trkpt>
      <trkpt lat="42.65247" lon="1.69112">
        <ele>2142.422</ele>
        <time>2021-07-19T09:46:38Z</time>
      </trkpt>
      <trkpt lat="42.65247" lon="1.69112">
        <ele>2142.418</ele>
        <time>2021-07-19T09:46:40Z</time>
      </trkpt>
      <trkpt lat="42.65247" lon="1.69112">
        <ele>2142.417</ele>
        <time>2021-07-19T09:46:42Z</time>
      </trkpt>
      <trkpt lat="42.65247" lon="1.69112">
        <ele>2142.289</ele>
        <time>2021-07-19T09:46:44Z</time>
      </trkpt>
      <trkpt lat="42.65248" lon="1.69112">
        <ele>2142.301</ele>
        <time>2021-07-19T09:46:46Z</time>
      </trkpt>
      <trkpt lat="42.65248" lon="1.69112">
        <ele>2142.309</ele>
        <time>2021-07-19T09:46:48Z</time>
      </trkpt>
      <trkpt lat="42.65248" lon="1.69112">
        <ele>2142.303</ele>
        <time>2021-07-19T09:46:50Z</time>
      </trkpt>
      <trkpt lat="42.65248" lon="1.69112">
        <ele>2142.303</ele>
        <time>2021-07-19T09:46:52Z</time>
      </trkpt>
      <trkpt lat="42.65248" lon="1.69112">
        <ele>2142.303</ele>
        <time>2021-07-19T09:46:54Z</time>
      </trkpt>
      <trkpt lat="42.65248" lon="1.69112">
        <ele>2142.292</ele>
        <time>2021-07-19T09:46:56Z</time>
      </trkpt>
      <trkpt lat="42.65248" lon="1.69112">
        <ele>2142.286</ele>
        <time>2021-07-19T09:46:58Z</time>
      </trkpt>
      <trkpt lat="42.65248" lon="1.69112">
        <ele>2142.286</ele>
        <time>2021-07-19T09:47:00Z</time>
      </trkpt>
      <trkpt lat="42.65248" lon="1.69112">
        <ele>2142.284</ele>
        <time>2021-07-19T09:47:02Z</time>
      </trkpt>
      <trkpt lat="42.65248" lon="1.69112">
        <ele>2142.282</ele>
        <time>2021-07-19T09:47:04Z</time>
      </trkpt>
      <trkpt lat="42.65248" lon="1.69112">
        <ele>2142.279</ele>
        <time>2021-07-19T09:47:06Z</time>
      </trkpt>
      <trkpt lat="42.65248" lon="1.69112">
        <ele>2142.277</ele>
        <time>2021-07-19T09:47:08Z</time>
      </trkpt>
      <trkpt lat="42.65248" lon="1.69112">
        <ele>2142.279</ele>
        <time>2021-07-19T09:47:10Z</time>
      </trkpt>
      <trkpt lat="42.65248" lon="1.69112">
        <ele>2142.283</ele>
        <time>2021-07-19T09:47:12Z</time>
      </trkpt>
      <trkpt lat="42.65248" lon="1.69112">
        <ele>2142.283</ele>
        <time>2021-07-19T09:47:14Z</time>
      </trkpt>
      <trkpt lat="42.65248" lon="1.69112">
        <ele>2142.281</ele>
        <time>2021-07-19T09:47:16Z</time>
      </trkpt>
      <trkpt lat="42.65248" lon="1.69112">
        <ele>2142.28</ele>
        <time>2021-07-19T09:47:18Z</time>
      </trkpt>
      <trkpt lat="42.65248" lon="1.69112">
        <ele>2142.281</ele>
        <time>2021-07-19T09:47:20Z</time>
      </trkpt>
      <trkpt lat="42.65248" lon="1.69112">
        <ele>2142.287</ele>
        <time>2021-07-19T09:47:22Z</time>
      </trkpt>
      <trkpt lat="42.65248" lon="1.69112">
        <ele>2142.292</ele>
        <time>2021-07-19T09:47:24Z</time>
      </trkpt>
      <trkpt lat="42.65248" lon="1.69112">
        <ele>2142.303</ele>
        <time>2021-07-19T09:47:26Z</time>
      </trkpt>
      <trkpt lat="42.65248" lon="1.69112">
        <ele>2142.308</ele>
        <time>2021-07-19T09:47:28Z</time>
      </trkpt>
      <trkpt lat="42.65247" lon="1.69112">
        <ele>2142.68</ele>
        <time>2021-07-19T09:47:30Z</time>
      </trkpt>
      <trkpt lat="42.65247" lon="1.6911">
        <ele>2142.443</ele>
        <time>2021-07-19T09:47:32Z</time>
      </trkpt>
      <trkpt lat="42.65246" lon="1.69109">
        <ele>2141.935</ele>
        <time>2021-07-19T09:47:34Z</time>
      </trkpt>
      <trkpt lat="42.65246" lon="1.69107">
        <ele>2141.902</ele>
        <time>2021-07-19T09:47:36Z</time>
      </trkpt>
      <trkpt lat="42.65246" lon="1.69104">
        <ele>2142.133</ele>
        <time>2021-07-19T09:47:38Z</time>
      </trkpt>
      <trkpt lat="42.65246" lon="1.69101">
        <ele>2142.049</ele>
        <time>2021-07-19T09:47:40Z</time>
      </trkpt>
      <trkpt lat="42.65246" lon="1.69099">
        <ele>2141.175</ele>
        <time>2021-07-19T09:47:42Z</time>
      </trkpt>
      <trkpt lat="42.65245" lon="1.69097">
        <ele>2141.154</ele>
        <time>2021-07-19T09:47:44Z</time>
      </trkpt>
      <trkpt lat="42.65245" lon="1.69095">
        <ele>2141.178</ele>
        <time>2021-07-19T09:47:46Z</time>
      </trkpt>
      <trkpt lat="42.65244" lon="1.69093">
        <ele>2140.967</ele>
        <time>2021-07-19T09:47:48Z</time>
      </trkpt>
      <trkpt lat="42.65245" lon="1.69091">
        <ele>2141.847</ele>
        <time>2021-07-19T09:47:50Z</time>
      </trkpt>
      <trkpt lat="42.65245" lon="1.6909">
        <ele>2142.8</ele>
        <time>2021-07-19T09:47:52Z</time>
      </trkpt>
      <trkpt lat="42.65245" lon="1.69089">
        <ele>2142.978</ele>
        <time>2021-07-19T09:47:54Z</time>
      </trkpt>
      <trkpt lat="42.65245" lon="1.69088">
        <ele>2143.117</ele>
        <time>2021-07-19T09:47:56Z</time>
      </trkpt>
      <trkpt lat="42.65243" lon="1.69088">
        <ele>2143.123</ele>
        <time>2021-07-19T09:47:58Z</time>
      </trkpt>
      <trkpt lat="42.65242" lon="1.69087">
        <ele>2142.261</ele>
        <time>2021-07-19T09:48:00Z</time>
      </trkpt>
      <trkpt lat="42.65242" lon="1.69086">
        <ele>2142.554</ele>
        <time>2021-07-19T09:48:02Z</time>
      </trkpt>
      <trkpt lat="42.65242" lon="1.69084">
        <ele>2142.871</ele>
        <time>2021-07-19T09:48:04Z</time>
      </trkpt>
      <trkpt lat="42.65242" lon="1.69082">
        <ele>2143.696</ele>
        <time>2021-07-19T09:48:06Z</time>
      </trkpt>
      <trkpt lat="42.65241" lon="1.6908">
        <ele>2143.968</ele>
        <time>2021-07-19T09:48:08Z</time>
      </trkpt>
      <trkpt lat="42.6524" lon="1.69079">
        <ele>2143.897</ele>
        <time>2021-07-19T09:48:10Z</time>
      </trkpt>
      <trkpt lat="42.6524" lon="1.69079">
        <ele>2143.878</ele>
        <time>2021-07-19T09:48:12Z</time>
      </trkpt>
      <trkpt lat="42.6524" lon="1.6908">
        <ele>2143.782</ele>
        <time>2021-07-19T09:48:14Z</time>
      </trkpt>
      <trkpt lat="42.65239" lon="1.69079">
        <ele>2143.684</ele>
        <time>2021-07-19T09:48:16Z</time>
      </trkpt>
      <trkpt lat="42.65239" lon="1.69078">
        <ele>2143.512</ele>
        <time>2021-07-19T09:48:18Z</time>
      </trkpt>
      <trkpt lat="42.65238" lon="1.69077">
        <ele>2142.948</ele>
        <time>2021-07-19T09:48:20Z</time>
      </trkpt>
      <trkpt lat="42.65237" lon="1.69075">
        <ele>2143.085</ele>
        <time>2021-07-19T09:48:22Z</time>
      </trkpt>
      <trkpt lat="42.65236" lon="1.69073">
        <ele>2143.309</ele>
        <time>2021-07-19T09:48:24Z</time>
      </trkpt>
      <trkpt lat="42.65235" lon="1.69072">
        <ele>2144.1</ele>
        <time>2021-07-19T09:48:26Z</time>
      </trkpt>
      <trkpt lat="42.65234" lon="1.6907">
        <ele>2144.404</ele>
        <time>2021-07-19T09:48:28Z</time>
      </trkpt>
      <trkpt lat="42.65233" lon="1.69069">
        <ele>2144.74</ele>
        <time>2021-07-19T09:48:30Z</time>
      </trkpt>
      <trkpt lat="42.65232" lon="1.69067">
        <ele>2145.204</ele>
        <time>2021-07-19T09:48:32Z</time>
      </trkpt>
      <trkpt lat="42.65232" lon="1.69066">
        <ele>2145.105</ele>
        <time>2021-07-19T09:48:34Z</time>
      </trkpt>
      <trkpt lat="42.65232" lon="1.69063">
        <ele>2145.286</ele>
        <time>2021-07-19T09:48:36Z</time>
      </trkpt>
      <trkpt lat="42.65232" lon="1.69061">
        <ele>2145.338</ele>
        <time>2021-07-19T09:48:38Z</time>
      </trkpt>
      <trkpt lat="42.65231" lon="1.69059">
        <ele>2145.002</ele>
        <time>2021-07-19T09:48:40Z</time>
      </trkpt>
      <trkpt lat="42.6523" lon="1.69056">
        <ele>2145.045</ele>
        <time>2021-07-19T09:48:42Z</time>
      </trkpt>
      <trkpt lat="42.6523" lon="1.69054">
        <ele>2145.301</ele>
        <time>2021-07-19T09:48:44Z</time>
      </trkpt>
      <trkpt lat="42.65229" lon="1.69052">
        <ele>2145.972</ele>
        <time>2021-07-19T09:48:46Z</time>
      </trkpt>
      <trkpt lat="42.65229" lon="1.6905">
        <ele>2146.254</ele>
        <time>2021-07-19T09:48:48Z</time>
      </trkpt>
      <trkpt lat="42.65228" lon="1.69048">
        <ele>2146.416</ele>
        <time>2021-07-19T09:48:50Z</time>
      </trkpt>
      <trkpt lat="42.65227" lon="1.69046">
        <ele>2146.898</ele>
        <time>2021-07-19T09:48:52Z</time>
      </trkpt>
      <trkpt lat="42.65226" lon="1.69044">
        <ele>2147.553</ele>
        <time>2021-07-19T09:48:54Z</time>
      </trkpt>
      <trkpt lat="42.65226" lon="1.69042">
        <ele>2148.222</ele>
        <time>2021-07-19T09:48:56Z</time>
      </trkpt>
      <trkpt lat="42.65225" lon="1.69039">
        <ele>2147.857</ele>
        <time>2021-07-19T09:48:58Z</time>
      </trkpt>
      <trkpt lat="42.65225" lon="1.69037">
        <ele>2148.613</ele>
        <time>2021-07-19T09:49:00Z</time>
      </trkpt>
      <trkpt lat="42.65225" lon="1.69035">
        <ele>2148.606</ele>
        <time>2021-07-19T09:49:02Z</time>
      </trkpt>
      <trkpt lat="42.65225" lon="1.69033">
        <ele>2148.749</ele>
        <time>2021-07-19T09:49:04Z</time>
      </trkpt>
      <trkpt lat="42.65225" lon="1.69032">
        <ele>2149.438</ele>
        <time>2021-07-19T09:49:06Z</time>
      </trkpt>
      <trkpt lat="42.65224" lon="1.6903">
        <ele>2149.784</ele>
        <time>2021-07-19T09:49:08Z</time>
      </trkpt>
      <trkpt lat="42.65224" lon="1.69029">
        <ele>2149.765</ele>
        <time>2021-07-19T09:49:10Z</time>
      </trkpt>
      <trkpt lat="42.65224" lon="1.69027">
        <ele>2149.972</ele>
        <time>2021-07-19T09:49:12Z</time>
      </trkpt>
      <trkpt lat="42.65224" lon="1.69026">
        <ele>2149.985</ele>
        <time>2021-07-19T09:49:14Z</time>
      </trkpt>
      <trkpt lat="42.65224" lon="1.69024">
        <ele>2150.684</ele>
        <time>2021-07-19T09:49:16Z</time>
      </trkpt>
      <trkpt lat="42.65222" lon="1.69023">
        <ele>2151.372</ele>
        <time>2021-07-19T09:49:18Z</time>
      </trkpt>
      <trkpt lat="42.6522" lon="1.69022">
        <ele>2151.651</ele>
        <time>2021-07-19T09:49:20Z</time>
      </trkpt>
      <trkpt lat="42.65219" lon="1.69022">
        <ele>2152.12</ele>
        <time>2021-07-19T09:49:22Z</time>
      </trkpt>
      <trkpt lat="42.65218" lon="1.69021">
        <ele>2152.118</ele>
        <time>2021-07-19T09:49:24Z</time>
      </trkpt>
      <trkpt lat="42.65217" lon="1.69019">
        <ele>2152.661</ele>
        <time>2021-07-19T09:49:26Z</time>
      </trkpt>
      <trkpt lat="42.65217" lon="1.69018">
        <ele>2153.341</ele>
        <time>2021-07-19T09:49:28Z</time>
      </trkpt>
      <trkpt lat="42.65216" lon="1.69018">
        <ele>2153.668</ele>
        <time>2021-07-19T09:49:30Z</time>
      </trkpt>
      <trkpt lat="42.65216" lon="1.69017">
        <ele>2155.017</ele>
        <time>2021-07-19T09:49:32Z</time>
      </trkpt>
      <trkpt lat="42.65217" lon="1.69016">
        <ele>2155.12</ele>
        <time>2021-07-19T09:49:34Z</time>
      </trkpt>
      <trkpt lat="42.65216" lon="1.69015">
        <ele>2155.436</ele>
        <time>2021-07-19T09:49:36Z</time>
      </trkpt>
      <trkpt lat="42.65216" lon="1.69013">
        <ele>2155.882</ele>
        <time>2021-07-19T09:49:38Z</time>
      </trkpt>
      <trkpt lat="42.65216" lon="1.69012">
        <ele>2156.344</ele>
        <time>2021-07-19T09:49:40Z</time>
      </trkpt>
      <trkpt lat="42.65216" lon="1.6901">
        <ele>2156.768</ele>
        <time>2021-07-19T09:49:42Z</time>
      </trkpt>
      <trkpt lat="42.65216" lon="1.69008">
        <ele>2157.23</ele>
        <time>2021-07-19T09:49:44Z</time>
      </trkpt>
      <trkpt lat="42.65215" lon="1.69007">
        <ele>2157.992</ele>
        <time>2021-07-19T09:49:46Z</time>
      </trkpt>
      <trkpt lat="42.65215" lon="1.69005">
        <ele>2158.562</ele>
        <time>2021-07-19T09:49:48Z</time>
      </trkpt>
      <trkpt lat="42.65214" lon="1.69005">
        <ele>2158.534</ele>
        <time>2021-07-19T09:49:50Z</time>
      </trkpt>
      <trkpt lat="42.65213" lon="1.69004">
        <ele>2159.16</ele>
        <time>2021-07-19T09:49:52Z</time>
      </trkpt>
      <trkpt lat="42.65212" lon="1.69003">
        <ele>2160.443</ele>
        <time>2021-07-19T09:49:54Z</time>
      </trkpt>
      <trkpt lat="42.65211" lon="1.69001">
        <ele>2160.821</ele>
        <time>2021-07-19T09:49:56Z</time>
      </trkpt>
      <trkpt lat="42.65211" lon="1.68999">
        <ele>2160.744</ele>
        <time>2021-07-19T09:49:58Z</time>
      </trkpt>
      <trkpt lat="42.65211" lon="1.68997">
        <ele>2160.784</ele>
        <time>2021-07-19T09:50:00Z</time>
      </trkpt>
      <trkpt lat="42.6521" lon="1.68995">
        <ele>2160.862</ele>
        <time>2021-07-19T09:50:02Z</time>
      </trkpt>
      <trkpt lat="42.65209" lon="1.68993">
        <ele>2161.158</ele>
        <time>2021-07-19T09:50:04Z</time>
      </trkpt>
      <trkpt lat="42.65209" lon="1.68991">
        <ele>2161.26</ele>
        <time>2021-07-19T09:50:06Z</time>
      </trkpt>
      <trkpt lat="42.65209" lon="1.68989">
        <ele>2161.121</ele>
        <time>2021-07-19T09:50:08Z</time>
      </trkpt>
      <trkpt lat="42.65209" lon="1.68987">
        <ele>2161.168</ele>
        <time>2021-07-19T09:50:10Z</time>
      </trkpt>
      <trkpt lat="42.65208" lon="1.68986">
        <ele>2161.083</ele>
        <time>2021-07-19T09:50:12Z</time>
      </trkpt>
      <trkpt lat="42.65208" lon="1.68985">
        <ele>2161.463</ele>
        <time>2021-07-19T09:50:14Z</time>
      </trkpt>
      <trkpt lat="42.65207" lon="1.68983">
        <ele>2162.185</ele>
        <time>2021-07-19T09:50:16Z</time>
      </trkpt>
      <trkpt lat="42.65207" lon="1.68982">
        <ele>2162.225</ele>
        <time>2021-07-19T09:50:18Z</time>
      </trkpt>
      <trkpt lat="42.65207" lon="1.6898">
        <ele>2162.514</ele>
        <time>2021-07-19T09:50:20Z</time>
      </trkpt>
      <trkpt lat="42.65207" lon="1.68979">
        <ele>2164.113</ele>
        <time>2021-07-19T09:50:22Z</time>
      </trkpt>
      <trkpt lat="42.65206" lon="1.68977">
        <ele>2164.594</ele>
        <time>2021-07-19T09:50:24Z</time>
      </trkpt>
      <trkpt lat="42.65206" lon="1.68975">
        <ele>2164.913</ele>
        <time>2021-07-19T09:50:26Z</time>
      </trkpt>
      <trkpt lat="42.65205" lon="1.68972">
        <ele>2164.96</ele>
        <time>2021-07-19T09:50:28Z</time>
      </trkpt>
      <trkpt lat="42.65205" lon="1.6897">
        <ele>2164.898</ele>
        <time>2021-07-19T09:50:30Z</time>
      </trkpt>
      <trkpt lat="42.65204" lon="1.68968">
        <ele>2165.736</ele>
        <time>2021-07-19T09:50:32Z</time>
      </trkpt>
      <trkpt lat="42.65203" lon="1.68967">
        <ele>2166.923</ele>
        <time>2021-07-19T09:50:34Z</time>
      </trkpt>
      <trkpt lat="42.65202" lon="1.68965">
        <ele>2167.879</ele>
        <time>2021-07-19T09:50:36Z</time>
      </trkpt>
      <trkpt lat="42.65202" lon="1.68964">
        <ele>2167.854</ele>
        <time>2021-07-19T09:50:38Z</time>
      </trkpt>
      <trkpt lat="42.65201" lon="1.68964">
        <ele>2168.283</ele>
        <time>2021-07-19T09:50:40Z</time>
      </trkpt>
      <trkpt lat="42.65201" lon="1.68961">
        <ele>2168.244</ele>
        <time>2021-07-19T09:50:42Z</time>
      </trkpt>
      <trkpt lat="42.652" lon="1.68959">
        <ele>2168.587</ele>
        <time>2021-07-19T09:50:44Z</time>
      </trkpt>
      <trkpt lat="42.65199" lon="1.68959">
        <ele>2168.471</ele>
        <time>2021-07-19T09:50:46Z</time>
      </trkpt>
      <trkpt lat="42.65199" lon="1.68958">
        <ele>2169.083</ele>
        <time>2021-07-19T09:50:48Z</time>
      </trkpt>
      <trkpt lat="42.65199" lon="1.68957">
        <ele>2169.329</ele>
        <time>2021-07-19T09:50:49Z</time>
      </trkpt>
      <trkpt lat="42.65197" lon="1.68955">
        <ele>2169.332</ele>
        <time>2021-07-19T09:50:52Z</time>
      </trkpt>
      <trkpt lat="42.65197" lon="1.68955">
        <ele>2169.729</ele>
        <time>2021-07-19T09:50:54Z</time>
      </trkpt>
      <trkpt lat="42.65196" lon="1.68953">
        <ele>2171.267</ele>
        <time>2021-07-19T09:50:56Z</time>
      </trkpt>
      <trkpt lat="42.65195" lon="1.68951">
        <ele>2171.3</ele>
        <time>2021-07-19T09:50:58Z</time>
      </trkpt>
      <trkpt lat="42.65195" lon="1.68949">
        <ele>2172.075</ele>
        <time>2021-07-19T09:51:00Z</time>
      </trkpt>
      <trkpt lat="42.65195" lon="1.68947">
        <ele>2172.391</ele>
        <time>2021-07-19T09:51:02Z</time>
      </trkpt>
      <trkpt lat="42.65195" lon="1.68945">
        <ele>2172.4</ele>
        <time>2021-07-19T09:51:04Z</time>
      </trkpt>
      <trkpt lat="42.65195" lon="1.68943">
        <ele>2172.781</ele>
        <time>2021-07-19T09:51:06Z</time>
      </trkpt>
      <trkpt lat="42.65195" lon="1.68943">
        <ele>2172.752</ele>
        <time>2021-07-19T09:51:08Z</time>
      </trkpt>
      <trkpt lat="42.65195" lon="1.68943">
        <ele>2172.711</ele>
        <time>2021-07-19T09:51:10Z</time>
      </trkpt>
      <trkpt lat="42.65195" lon="1.68943">
        <ele>2172.684</ele>
        <time>2021-07-19T09:51:12Z</time>
      </trkpt>
      <trkpt lat="42.65195" lon="1.68943">
        <ele>2172.679</ele>
        <time>2021-07-19T09:51:14Z</time>
      </trkpt>
      <trkpt lat="42.65195" lon="1.68942">
        <ele>2172.676</ele>
        <time>2021-07-19T09:51:16Z</time>
      </trkpt>
      <trkpt lat="42.65195" lon="1.68942">
        <ele>2173.109</ele>
        <time>2021-07-19T09:51:18Z</time>
      </trkpt>
      <trkpt lat="42.65195" lon="1.68941">
        <ele>2173.326</ele>
        <time>2021-07-19T09:51:20Z</time>
      </trkpt>
      <trkpt lat="42.65194" lon="1.6894">
        <ele>2173.85</ele>
        <time>2021-07-19T09:51:22Z</time>
      </trkpt>
      <trkpt lat="42.65193" lon="1.6894">
        <ele>2173.78</ele>
        <time>2021-07-19T09:51:24Z</time>
      </trkpt>
      <trkpt lat="42.65192" lon="1.68938">
        <ele>2173.998</ele>
        <time>2021-07-19T09:51:26Z</time>
      </trkpt>
      <trkpt lat="42.65192" lon="1.68937">
        <ele>2173.555</ele>
        <time>2021-07-19T09:51:28Z</time>
      </trkpt>
      <trkpt lat="42.65192" lon="1.68937">
        <ele>2173.556</ele>
        <time>2021-07-19T09:51:30Z</time>
      </trkpt>
      <trkpt lat="42.65192" lon="1.68937">
        <ele>2173.57</ele>
        <time>2021-07-19T09:51:32Z</time>
      </trkpt>
      <trkpt lat="42.65192" lon="1.68937">
        <ele>2173.579</ele>
        <time>2021-07-19T09:51:34Z</time>
      </trkpt>
      <trkpt lat="42.65191" lon="1.68936">
        <ele>2173.876</ele>
        <time>2021-07-19T09:51:36Z</time>
      </trkpt>
      <trkpt lat="42.6519" lon="1.68934">
        <ele>2174.101</ele>
        <time>2021-07-19T09:51:38Z</time>
      </trkpt>
      <trkpt lat="42.6519" lon="1.68933">
        <ele>2174.558</ele>
        <time>2021-07-19T09:51:40Z</time>
      </trkpt>
      <trkpt lat="42.65189" lon="1.68932">
        <ele>2174.441</ele>
        <time>2021-07-19T09:51:42Z</time>
      </trkpt>
      <trkpt lat="42.65187" lon="1.6893">
        <ele>2174.368</ele>
        <time>2021-07-19T09:51:44Z</time>
      </trkpt>
      <trkpt lat="42.65186" lon="1.68927">
        <ele>2174.426</ele>
        <time>2021-07-19T09:51:46Z</time>
      </trkpt>
      <trkpt lat="42.65185" lon="1.68925">
        <ele>2174.433</ele>
        <time>2021-07-19T09:51:48Z</time>
      </trkpt>
      <trkpt lat="42.65183" lon="1.68922">
        <ele>2174.908</ele>
        <time>2021-07-19T09:51:51Z</time>
      </trkpt>
      <trkpt lat="42.65181" lon="1.6892">
        <ele>2174.816</ele>
        <time>2021-07-19T09:51:53Z</time>
      </trkpt>
      <trkpt lat="42.6518" lon="1.68917">
        <ele>2175.09</ele>
        <time>2021-07-19T09:51:55Z</time>
      </trkpt>
      <trkpt lat="42.65178" lon="1.68915">
        <ele>2174.826</ele>
        <time>2021-07-19T09:51:57Z</time>
      </trkpt>
      <trkpt lat="42.65176" lon="1.68913">
        <ele>2175.22</ele>
        <time>2021-07-19T09:51:59Z</time>
      </trkpt>
      <trkpt lat="42.65174" lon="1.68912">
        <ele>2175.426</ele>
        <time>2021-07-19T09:52:01Z</time>
      </trkpt>
      <trkpt lat="42.65172" lon="1.6891">
        <ele>2175.918</ele>
        <time>2021-07-19T09:52:03Z</time>
      </trkpt>
      <trkpt lat="42.6517" lon="1.68908">
        <ele>2176.185</ele>
        <time>2021-07-19T09:52:05Z</time>
      </trkpt>
      <trkpt lat="42.65169" lon="1.68906">
        <ele>2176.762</ele>
        <time>2021-07-19T09:52:07Z</time>
      </trkpt>
      <trkpt lat="42.65168" lon="1.68903">
        <ele>2177.128</ele>
        <time>2021-07-19T09:52:09Z</time>
      </trkpt>
      <trkpt lat="42.65167" lon="1.68901">
        <ele>2177.074</ele>
        <time>2021-07-19T09:52:11Z</time>
      </trkpt>
      <trkpt lat="42.65166" lon="1.68899">
        <ele>2177.298</ele>
        <time>2021-07-19T09:52:13Z</time>
      </trkpt>
      <trkpt lat="42.65166" lon="1.68896">
        <ele>2177.918</ele>
        <time>2021-07-19T09:52:15Z</time>
      </trkpt>
      <trkpt lat="42.65165" lon="1.68894">
        <ele>2177.596</ele>
        <time>2021-07-19T09:52:17Z</time>
      </trkpt>
      <trkpt lat="42.65164" lon="1.68892">
        <ele>2178.299</ele>
        <time>2021-07-19T09:52:19Z</time>
      </trkpt>
      <trkpt lat="42.65164" lon="1.6889">
        <ele>2179.082</ele>
        <time>2021-07-19T09:52:21Z</time>
      </trkpt>
      <trkpt lat="42.65163" lon="1.68888">
        <ele>2179.193</ele>
        <time>2021-07-19T09:52:23Z</time>
      </trkpt>
      <trkpt lat="42.65162" lon="1.68886">
        <ele>2179.692</ele>
        <time>2021-07-19T09:52:25Z</time>
      </trkpt>
      <trkpt lat="42.65162" lon="1.68884">
        <ele>2179.891</ele>
        <time>2021-07-19T09:52:27Z</time>
      </trkpt>
      <trkpt lat="42.65161" lon="1.68882">
        <ele>2179.82</ele>
        <time>2021-07-19T09:52:29Z</time>
      </trkpt>
      <trkpt lat="42.65161" lon="1.6888">
        <ele>2180.545</ele>
        <time>2021-07-19T09:52:31Z</time>
      </trkpt>
      <trkpt lat="42.6516" lon="1.68878">
        <ele>2180.974</ele>
        <time>2021-07-19T09:52:33Z</time>
      </trkpt>
      <trkpt lat="42.65159" lon="1.68876">
        <ele>2180.758</ele>
        <time>2021-07-19T09:52:35Z</time>
      </trkpt>
      <trkpt lat="42.65159" lon="1.68873">
        <ele>2181.457</ele>
        <time>2021-07-19T09:52:37Z</time>
      </trkpt>
      <trkpt lat="42.65158" lon="1.6887">
        <ele>2181.762</ele>
        <time>2021-07-19T09:52:39Z</time>
      </trkpt>
      <trkpt lat="42.65158" lon="1.68867">
        <ele>2182.355</ele>
        <time>2021-07-19T09:52:41Z</time>
      </trkpt>
      <trkpt lat="42.65157" lon="1.68865">
        <ele>2181.835</ele>
        <time>2021-07-19T09:52:43Z</time>
      </trkpt>
      <trkpt lat="42.65157" lon="1.68863">
        <ele>2181.809</ele>
        <time>2021-07-19T09:52:45Z</time>
      </trkpt>
      <trkpt lat="42.65156" lon="1.68861">
        <ele>2181.85</ele>
        <time>2021-07-19T09:52:47Z</time>
      </trkpt>
      <trkpt lat="42.65154" lon="1.68859">
        <ele>2182.007</ele>
        <time>2021-07-19T09:52:49Z</time>
      </trkpt>
      <trkpt lat="42.65153" lon="1.68857">
        <ele>2182.961</ele>
        <time>2021-07-19T09:52:51Z</time>
      </trkpt>
      <trkpt lat="42.65152" lon="1.68855">
        <ele>2182.986</ele>
        <time>2021-07-19T09:52:53Z</time>
      </trkpt>
      <trkpt lat="42.65151" lon="1.68853">
        <ele>2182.541</ele>
        <time>2021-07-19T09:52:55Z</time>
      </trkpt>
      <trkpt lat="42.6515" lon="1.68851">
        <ele>2183.253</ele>
        <time>2021-07-19T09:52:57Z</time>
      </trkpt>
      <trkpt lat="42.65149" lon="1.6885">
        <ele>2183.308</ele>
        <time>2021-07-19T09:52:59Z</time>
      </trkpt>
      <trkpt lat="42.65148" lon="1.68848">
        <ele>2183.157</ele>
        <time>2021-07-19T09:53:01Z</time>
      </trkpt>
      <trkpt lat="42.65147" lon="1.68847">
        <ele>2183.787</ele>
        <time>2021-07-19T09:53:03Z</time>
      </trkpt>
      <trkpt lat="42.65145" lon="1.68845">
        <ele>2182.824</ele>
        <time>2021-07-19T09:53:05Z</time>
      </trkpt>
      <trkpt lat="42.65144" lon="1.68843">
        <ele>2183.126</ele>
        <time>2021-07-19T09:53:07Z</time>
      </trkpt>
      <trkpt lat="42.65143" lon="1.68842">
        <ele>2182.61</ele>
        <time>2021-07-19T09:53:09Z</time>
      </trkpt>
      <trkpt lat="42.65141" lon="1.6884">
        <ele>2183.425</ele>
        <time>2021-07-19T09:53:11Z</time>
      </trkpt>
      <trkpt lat="42.65141" lon="1.68838">
        <ele>2183.143</ele>
        <time>2021-07-19T09:53:13Z</time>
      </trkpt>
      <trkpt lat="42.6514" lon="1.68836">
        <ele>2183.486</ele>
        <time>2021-07-19T09:53:15Z</time>
      </trkpt>
      <trkpt lat="42.65138" lon="1.68834">
        <ele>2183.977</ele>
        <time>2021-07-19T09:53:17Z</time>
      </trkpt>
      <trkpt lat="42.65136" lon="1.68832">
        <ele>2183.954</ele>
        <time>2021-07-19T09:53:19Z</time>
      </trkpt>
      <trkpt lat="42.65135" lon="1.6883">
        <ele>2183.771</ele>
        <time>2021-07-19T09:53:21Z</time>
      </trkpt>
      <trkpt lat="42.65133" lon="1.68828">
        <ele>2183.793</ele>
        <time>2021-07-19T09:53:23Z</time>
      </trkpt>
      <trkpt lat="42.65131" lon="1.68827">
        <ele>2184.025</ele>
        <time>2021-07-19T09:53:25Z</time>
      </trkpt>
      <trkpt lat="42.65129" lon="1.68826">
        <ele>2183.691</ele>
        <time>2021-07-19T09:53:27Z</time>
      </trkpt>
      <trkpt lat="42.65127" lon="1.68825">
        <ele>2183.616</ele>
        <time>2021-07-19T09:53:29Z</time>
      </trkpt>
      <trkpt lat="42.65125" lon="1.68825">
        <ele>2182.339</ele>
        <time>2021-07-19T09:53:31Z</time>
      </trkpt>
      <trkpt lat="42.65123" lon="1.68824">
        <ele>2182.814</ele>
        <time>2021-07-19T09:53:33Z</time>
      </trkpt>
      <trkpt lat="42.65121" lon="1.68823">
        <ele>2182.22</ele>
        <time>2021-07-19T09:53:35Z</time>
      </trkpt>
      <trkpt lat="42.65118" lon="1.68821">
        <ele>2183.024</ele>
        <time>2021-07-19T09:53:37Z</time>
      </trkpt>
      <trkpt lat="42.65116" lon="1.6882">
        <ele>2182.877</ele>
        <time>2021-07-19T09:53:39Z</time>
      </trkpt>
      <trkpt lat="42.65115" lon="1.68819">
        <ele>2182.723</ele>
        <time>2021-07-19T09:53:41Z</time>
      </trkpt>
      <trkpt lat="42.65112" lon="1.68817">
        <ele>2183.492</ele>
        <time>2021-07-19T09:53:43Z</time>
      </trkpt>
      <trkpt lat="42.65111" lon="1.68815">
        <ele>2183.752</ele>
        <time>2021-07-19T09:53:45Z</time>
      </trkpt>
      <trkpt lat="42.65109" lon="1.68814">
        <ele>2184.395</ele>
        <time>2021-07-19T09:53:47Z</time>
      </trkpt>
      <trkpt lat="42.65107" lon="1.68812">
        <ele>2184.129</ele>
        <time>2021-07-19T09:53:49Z</time>
      </trkpt>
      <trkpt lat="42.65106" lon="1.6881">
        <ele>2184.655</ele>
        <time>2021-07-19T09:53:51Z</time>
      </trkpt>
      <trkpt lat="42.65104" lon="1.68808">
        <ele>2184.368</ele>
        <time>2021-07-19T09:53:53Z</time>
      </trkpt>
      <trkpt lat="42.65102" lon="1.68806">
        <ele>2185.421</ele>
        <time>2021-07-19T09:53:55Z</time>
      </trkpt>
      <trkpt lat="42.65101" lon="1.68805">
        <ele>2186.172</ele>
        <time>2021-07-19T09:53:57Z</time>
      </trkpt>
      <trkpt lat="42.65099" lon="1.68804">
        <ele>2187.19</ele>
        <time>2021-07-19T09:53:59Z</time>
      </trkpt>
      <trkpt lat="42.65097" lon="1.68803">
        <ele>2187.907</ele>
        <time>2021-07-19T09:54:01Z</time>
      </trkpt>
      <trkpt lat="42.65095" lon="1.68803">
        <ele>2187.313</ele>
        <time>2021-07-19T09:54:03Z</time>
      </trkpt>
      <trkpt lat="42.65094" lon="1.68802">
        <ele>2187.036</ele>
        <time>2021-07-19T09:54:05Z</time>
      </trkpt>
      <trkpt lat="42.65092" lon="1.68801">
        <ele>2187.714</ele>
        <time>2021-07-19T09:54:07Z</time>
      </trkpt>
      <trkpt lat="42.6509" lon="1.68801">
        <ele>2188.478</ele>
        <time>2021-07-19T09:54:09Z</time>
      </trkpt>
      <trkpt lat="42.65089" lon="1.688">
        <ele>2188.502</ele>
        <time>2021-07-19T09:54:11Z</time>
      </trkpt>
      <trkpt lat="42.65088" lon="1.68799">
        <ele>2189.299</ele>
        <time>2021-07-19T09:54:13Z</time>
      </trkpt>
      <trkpt lat="42.65087" lon="1.68798">
        <ele>2189.488</ele>
        <time>2021-07-19T09:54:15Z</time>
      </trkpt>
      <trkpt lat="42.65086" lon="1.68796">
        <ele>2189.976</ele>
        <time>2021-07-19T09:54:17Z</time>
      </trkpt>
      <trkpt lat="42.65085" lon="1.68795">
        <ele>2190.785</ele>
        <time>2021-07-19T09:54:19Z</time>
      </trkpt>
      <trkpt lat="42.65084" lon="1.68794">
        <ele>2190.847</ele>
        <time>2021-07-19T09:54:21Z</time>
      </trkpt>
      <trkpt lat="42.65083" lon="1.68793">
        <ele>2190.572</ele>
        <time>2021-07-19T09:54:23Z</time>
      </trkpt>
      <trkpt lat="42.65082" lon="1.68792">
        <ele>2191.622</ele>
        <time>2021-07-19T09:54:25Z</time>
      </trkpt>
      <trkpt lat="42.65082" lon="1.68791">
        <ele>2191.596</ele>
        <time>2021-07-19T09:54:27Z</time>
      </trkpt>
      <trkpt lat="42.65081" lon="1.6879">
        <ele>2191.386</ele>
        <time>2021-07-19T09:54:29Z</time>
      </trkpt>
      <trkpt lat="42.6508" lon="1.68789">
        <ele>2191.487</ele>
        <time>2021-07-19T09:54:31Z</time>
      </trkpt>
      <trkpt lat="42.65079" lon="1.68789">
        <ele>2192.269</ele>
        <time>2021-07-19T09:54:33Z</time>
      </trkpt>
      <trkpt lat="42.65077" lon="1.68789">
        <ele>2192.354</ele>
        <time>2021-07-19T09:54:35Z</time>
      </trkpt>
      <trkpt lat="42.65076" lon="1.68788">
        <ele>2192.671</ele>
        <time>2021-07-19T09:54:37Z</time>
      </trkpt>
      <trkpt lat="42.65075" lon="1.68787">
        <ele>2192.976</ele>
        <time>2021-07-19T09:54:39Z</time>
      </trkpt>
      <trkpt lat="42.65074" lon="1.68786">
        <ele>2194.291</ele>
        <time>2021-07-19T09:54:41Z</time>
      </trkpt>
      <trkpt lat="42.65073" lon="1.68785">
        <ele>2195.123</ele>
        <time>2021-07-19T09:54:43Z</time>
      </trkpt>
      <trkpt lat="42.65072" lon="1.68784">
        <ele>2195.589</ele>
        <time>2021-07-19T09:54:45Z</time>
      </trkpt>
      <trkpt lat="42.65072" lon="1.68783">
        <ele>2195.549</ele>
        <time>2021-07-19T09:54:47Z</time>
      </trkpt>
      <trkpt lat="42.65073" lon="1.68783">
        <ele>2195.557</ele>
        <time>2021-07-19T09:54:49Z</time>
      </trkpt>
      <trkpt lat="42.65073" lon="1.68783">
        <ele>2195.548</ele>
        <time>2021-07-19T09:54:51Z</time>
      </trkpt>
      <trkpt lat="42.65073" lon="1.68783">
        <ele>2195.549</ele>
        <time>2021-07-19T09:54:53Z</time>
      </trkpt>
      <trkpt lat="42.65073" lon="1.68783">
        <ele>2195.549</ele>
        <time>2021-07-19T09:54:55Z</time>
      </trkpt>
      <trkpt lat="42.65073" lon="1.68783">
        <ele>2195.548</ele>
        <time>2021-07-19T09:54:57Z</time>
      </trkpt>
      <trkpt lat="42.65073" lon="1.68783">
        <ele>2195.543</ele>
        <time>2021-07-19T09:54:59Z</time>
      </trkpt>
      <trkpt lat="42.65073" lon="1.68783">
        <ele>2195.553</ele>
        <time>2021-07-19T09:55:01Z</time>
      </trkpt>
      <trkpt lat="42.65073" lon="1.68783">
        <ele>2195.55</ele>
        <time>2021-07-19T09:55:03Z</time>
      </trkpt>
      <trkpt lat="42.65073" lon="1.68783">
        <ele>2195.543</ele>
        <time>2021-07-19T09:55:05Z</time>
      </trkpt>
      <trkpt lat="42.65073" lon="1.68783">
        <ele>2195.537</ele>
        <time>2021-07-19T09:55:07Z</time>
      </trkpt>
      <trkpt lat="42.65073" lon="1.68783">
        <ele>2195.552</ele>
        <time>2021-07-19T09:55:09Z</time>
      </trkpt>
      <trkpt lat="42.65073" lon="1.68783">
        <ele>2195.546</ele>
        <time>2021-07-19T09:55:11Z</time>
      </trkpt>
      <trkpt lat="42.65073" lon="1.68783">
        <ele>2195.539</ele>
        <time>2021-07-19T09:55:13Z</time>
      </trkpt>
      <trkpt lat="42.65073" lon="1.68783">
        <ele>2195.526</ele>
        <time>2021-07-19T09:55:15Z</time>
      </trkpt>
      <trkpt lat="42.65073" lon="1.68784">
        <ele>2195.522</ele>
        <time>2021-07-19T09:55:17Z</time>
      </trkpt>
      <trkpt lat="42.65073" lon="1.68784">
        <ele>2195.539</ele>
        <time>2021-07-19T09:55:19Z</time>
      </trkpt>
      <trkpt lat="42.65073" lon="1.68783">
        <ele>2195.58</ele>
        <time>2021-07-19T09:55:21Z</time>
      </trkpt>
      <trkpt lat="42.65073" lon="1.68783">
        <ele>2195.596</ele>
        <time>2021-07-19T09:55:23Z</time>
      </trkpt>
      <trkpt lat="42.65072" lon="1.68783">
        <ele>2195.602</ele>
        <time>2021-07-19T09:55:25Z</time>
      </trkpt>
      <trkpt lat="42.65072" lon="1.68783">
        <ele>2195.606</ele>
        <time>2021-07-19T09:55:27Z</time>
      </trkpt>
      <trkpt lat="42.65072" lon="1.68783">
        <ele>2195.61</ele>
        <time>2021-07-19T09:55:29Z</time>
      </trkpt>
      <trkpt lat="42.65072" lon="1.68783">
        <ele>2195.607</ele>
        <time>2021-07-19T09:55:31Z</time>
      </trkpt>
      <trkpt lat="42.65073" lon="1.68784">
        <ele>2195.195</ele>
        <time>2021-07-19T09:55:33Z</time>
      </trkpt>
      <trkpt lat="42.65073" lon="1.68784">
        <ele>2195.194</ele>
        <time>2021-07-19T09:55:35Z</time>
      </trkpt>
      <trkpt lat="42.65073" lon="1.68785">
        <ele>2195.197</ele>
        <time>2021-07-19T09:55:37Z</time>
      </trkpt>
      <trkpt lat="42.65073" lon="1.68785">
        <ele>2195.209</ele>
        <time>2021-07-19T09:55:39Z</time>
      </trkpt>
      <trkpt lat="42.65073" lon="1.68785">
        <ele>2195.2</ele>
        <time>2021-07-19T09:55:41Z</time>
      </trkpt>
      <trkpt lat="42.65073" lon="1.68785">
        <ele>2195.208</ele>
        <time>2021-07-19T09:55:43Z</time>
      </trkpt>
      <trkpt lat="42.65073" lon="1.68785">
        <ele>2195.231</ele>
        <time>2021-07-19T09:55:45Z</time>
      </trkpt>
      <trkpt lat="42.65073" lon="1.68785">
        <ele>2194.444</ele>
        <time>2021-07-19T09:55:48Z</time>
      </trkpt>
      <trkpt lat="42.65073" lon="1.68785">
        <ele>2194.442</ele>
        <time>2021-07-19T09:55:50Z</time>
      </trkpt>
      <trkpt lat="42.65073" lon="1.68785">
        <ele>2194.439</ele>
        <time>2021-07-19T09:55:52Z</time>
      </trkpt>
      <trkpt lat="42.65073" lon="1.68785">
        <ele>2194.423</ele>
        <time>2021-07-19T09:55:54Z</time>
      </trkpt>
      <trkpt lat="42.65073" lon="1.68785">
        <ele>2194.423</ele>
        <time>2021-07-19T09:55:56Z</time>
      </trkpt>
      <trkpt lat="42.65073" lon="1.68785">
        <ele>2194.425</ele>
        <time>2021-07-19T09:55:58Z</time>
      </trkpt>
      <trkpt lat="42.65073" lon="1.68785">
        <ele>2194.438</ele>
        <time>2021-07-19T09:56:00Z</time>
      </trkpt>
      <trkpt lat="42.65073" lon="1.68785">
        <ele>2194.439</ele>
        <time>2021-07-19T09:56:02Z</time>
      </trkpt>
      <trkpt lat="42.65073" lon="1.68785">
        <ele>2194.413</ele>
        <time>2021-07-19T09:56:04Z</time>
      </trkpt>
      <trkpt lat="42.65073" lon="1.68785">
        <ele>2194.413</ele>
        <time>2021-07-19T09:56:06Z</time>
      </trkpt>
      <trkpt lat="42.65073" lon="1.68785">
        <ele>2194.437</ele>
        <time>2021-07-19T09:56:08Z</time>
      </trkpt>
      <trkpt lat="42.65073" lon="1.68785">
        <ele>2194.442</ele>
        <time>2021-07-19T09:56:10Z</time>
      </trkpt>
      <trkpt lat="42.65072" lon="1.68783">
        <ele>2194.718</ele>
        <time>2021-07-19T09:56:12Z</time>
      </trkpt>
      <trkpt lat="42.65072" lon="1.68781">
        <ele>2194.741</ele>
        <time>2021-07-19T09:56:14Z</time>
      </trkpt>
      <trkpt lat="42.65071" lon="1.6878">
        <ele>2195.273</ele>
        <time>2021-07-19T09:56:16Z</time>
      </trkpt>
      <trkpt lat="42.6507" lon="1.68779">
        <ele>2195.356</ele>
        <time>2021-07-19T09:56:18Z</time>
      </trkpt>
      <trkpt lat="42.65069" lon="1.68777">
        <ele>2195.676</ele>
        <time>2021-07-19T09:56:20Z</time>
      </trkpt>
      <trkpt lat="42.65068" lon="1.68776">
        <ele>2196.05</ele>
        <time>2021-07-19T09:56:22Z</time>
      </trkpt>
      <trkpt lat="42.65068" lon="1.68776">
        <ele>2196.297</ele>
        <time>2021-07-19T09:56:24Z</time>
      </trkpt>
      <trkpt lat="42.65067" lon="1.68776">
        <ele>2195.886</ele>
        <time>2021-07-19T09:56:26Z</time>
      </trkpt>
      <trkpt lat="42.65067" lon="1.68776">
        <ele>2195.906</ele>
        <time>2021-07-19T09:56:28Z</time>
      </trkpt>
      <trkpt lat="42.65067" lon="1.68776">
        <ele>2195.837</ele>
        <time>2021-07-19T09:56:30Z</time>
      </trkpt>
      <trkpt lat="42.65067" lon="1.68775">
        <ele>2196.064</ele>
        <time>2021-07-19T09:56:32Z</time>
      </trkpt>
      <trkpt lat="42.65068" lon="1.68773">
        <ele>2195.975</ele>
        <time>2021-07-19T09:56:34Z</time>
      </trkpt>
      <trkpt lat="42.65067" lon="1.68772">
        <ele>2196.873</ele>
        <time>2021-07-19T09:56:36Z</time>
      </trkpt>
      <trkpt lat="42.65067" lon="1.68771">
        <ele>2196.94</ele>
        <time>2021-07-19T09:56:38Z</time>
      </trkpt>
      <trkpt lat="42.65067" lon="1.68769">
        <ele>2197.631</ele>
        <time>2021-07-19T09:56:40Z</time>
      </trkpt>
      <trkpt lat="42.65066" lon="1.68768">
        <ele>2198.036</ele>
        <time>2021-07-19T09:56:42Z</time>
      </trkpt>
      <trkpt lat="42.65066" lon="1.68766">
        <ele>2198.467</ele>
        <time>2021-07-19T09:56:44Z</time>
      </trkpt>
      <trkpt lat="42.65066" lon="1.68765">
        <ele>2199.25</ele>
        <time>2021-07-19T09:56:46Z</time>
      </trkpt>
      <trkpt lat="42.65066" lon="1.68764">
        <ele>2199.225</ele>
        <time>2021-07-19T09:56:48Z</time>
      </trkpt>
      <trkpt lat="42.65066" lon="1.68762">
        <ele>2200.292</ele>
        <time>2021-07-19T09:56:50Z</time>
      </trkpt>
      <trkpt lat="42.65066" lon="1.68761">
        <ele>2200.189</ele>
        <time>2021-07-19T09:56:52Z</time>
      </trkpt>
      <trkpt lat="42.65066" lon="1.68761">
        <ele>2200.185</ele>
        <time>2021-07-19T09:56:54Z</time>
      </trkpt>
      <trkpt lat="42.65065" lon="1.68761">
        <ele>2200.267</ele>
        <time>2021-07-19T09:56:56Z</time>
      </trkpt>
      <trkpt lat="42.65065" lon="1.68762">
        <ele>2200.257</ele>
        <time>2021-07-19T09:56:58Z</time>
      </trkpt>
      <trkpt lat="42.65065" lon="1.68762">
        <ele>2200.257</ele>
        <time>2021-07-19T09:57:00Z</time>
      </trkpt>
      <trkpt lat="42.65065" lon="1.68762">
        <ele>2200.258</ele>
        <time>2021-07-19T09:57:02Z</time>
      </trkpt>
      <trkpt lat="42.65065" lon="1.68762">
        <ele>2200.259</ele>
        <time>2021-07-19T09:57:04Z</time>
      </trkpt>
      <trkpt lat="42.65065" lon="1.68762">
        <ele>2200.257</ele>
        <time>2021-07-19T09:57:06Z</time>
      </trkpt>
      <trkpt lat="42.65065" lon="1.68762">
        <ele>2200.258</ele>
        <time>2021-07-19T09:57:08Z</time>
      </trkpt>
      <trkpt lat="42.65065" lon="1.68762">
        <ele>2200.258</ele>
        <time>2021-07-19T09:57:10Z</time>
      </trkpt>
      <trkpt lat="42.65065" lon="1.68762">
        <ele>2200.261</ele>
        <time>2021-07-19T09:57:12Z</time>
      </trkpt>
      <trkpt lat="42.65065" lon="1.68762">
        <ele>2200.261</ele>
        <time>2021-07-19T09:57:14Z</time>
      </trkpt>
      <trkpt lat="42.65065" lon="1.68761">
        <ele>2200.773</ele>
        <time>2021-07-19T09:57:16Z</time>
      </trkpt>
      <trkpt lat="42.65064" lon="1.6876">
        <ele>2201.166</ele>
        <time>2021-07-19T09:57:18Z</time>
      </trkpt>
      <trkpt lat="42.65064" lon="1.68759">
        <ele>2200.993</ele>
        <time>2021-07-19T09:57:20Z</time>
      </trkpt>
      <trkpt lat="42.65063" lon="1.68757">
        <ele>2201.207</ele>
        <time>2021-07-19T09:57:22Z</time>
      </trkpt>
      <trkpt lat="42.65062" lon="1.68756">
        <ele>2201.225</ele>
        <time>2021-07-19T09:57:24Z</time>
      </trkpt>
      <trkpt lat="42.6506" lon="1.68754">
        <ele>2201.254</ele>
        <time>2021-07-19T09:57:26Z</time>
      </trkpt>
      <trkpt lat="42.65059" lon="1.68753">
        <ele>2201.878</ele>
        <time>2021-07-19T09:57:28Z</time>
      </trkpt>
      <trkpt lat="42.65059" lon="1.68751">
        <ele>2202.666</ele>
        <time>2021-07-19T09:57:30Z</time>
      </trkpt>
      <trkpt lat="42.65058" lon="1.6875">
        <ele>2202.486</ele>
        <time>2021-07-19T09:57:32Z</time>
      </trkpt>
      <trkpt lat="42.65057" lon="1.68749">
        <ele>2202.746</ele>
        <time>2021-07-19T09:57:34Z</time>
      </trkpt>
      <trkpt lat="42.65056" lon="1.68747">
        <ele>2202.788</ele>
        <time>2021-07-19T09:57:36Z</time>
      </trkpt>
      <trkpt lat="42.65055" lon="1.68746">
        <ele>2202.689</ele>
        <time>2021-07-19T09:57:38Z</time>
      </trkpt>
      <trkpt lat="42.65054" lon="1.68746">
        <ele>2202.686</ele>
        <time>2021-07-19T09:57:40Z</time>
      </trkpt>
      <trkpt lat="42.65054" lon="1.68746">
        <ele>2202.215</ele>
        <time>2021-07-19T09:57:42Z</time>
      </trkpt>
      <trkpt lat="42.65053" lon="1.68746">
        <ele>2202.22</ele>
        <time>2021-07-19T09:57:44Z</time>
      </trkpt>
      <trkpt lat="42.65052" lon="1.68745">
        <ele>2202.428</ele>
        <time>2021-07-19T09:57:46Z</time>
      </trkpt>
      <trkpt lat="42.6505" lon="1.68743">
        <ele>2202.848</ele>
        <time>2021-07-19T09:57:48Z</time>
      </trkpt>
      <trkpt lat="42.65049" lon="1.68742">
        <ele>2202.545</ele>
        <time>2021-07-19T09:57:50Z</time>
      </trkpt>
      <trkpt lat="42.65048" lon="1.68742">
        <ele>2203.055</ele>
        <time>2021-07-19T09:57:52Z</time>
      </trkpt>
      <trkpt lat="42.65047" lon="1.6874">
        <ele>2204.28</ele>
        <time>2021-07-19T09:57:54Z</time>
      </trkpt>
      <trkpt lat="42.65047" lon="1.68738">
        <ele>2205.668</ele>
        <time>2021-07-19T09:57:56Z</time>
      </trkpt>
      <trkpt lat="42.65046" lon="1.68737">
        <ele>2205.29</ele>
        <time>2021-07-19T09:57:58Z</time>
      </trkpt>
      <trkpt lat="42.65047" lon="1.68738">
        <ele>2205.24</ele>
        <time>2021-07-19T09:58:00Z</time>
      </trkpt>
      <trkpt lat="42.65047" lon="1.68738">
        <ele>2205.241</ele>
        <time>2021-07-19T09:58:02Z</time>
      </trkpt>
      <trkpt lat="42.65046" lon="1.68738">
        <ele>2205.936</ele>
        <time>2021-07-19T09:58:04Z</time>
      </trkpt>
      <trkpt lat="42.65046" lon="1.68738">
        <ele>2205.902</ele>
        <time>2021-07-19T09:58:06Z</time>
      </trkpt>
      <trkpt lat="42.65046" lon="1.68737">
        <ele>2205.478</ele>
        <time>2021-07-19T09:58:08Z</time>
      </trkpt>
      <trkpt lat="42.65045" lon="1.68736">
        <ele>2205.957</ele>
        <time>2021-07-19T09:58:10Z</time>
      </trkpt>
      <trkpt lat="42.65044" lon="1.68734">
        <ele>2205.773</ele>
        <time>2021-07-19T09:58:12Z</time>
      </trkpt>
      <trkpt lat="42.65043" lon="1.68732">
        <ele>2206.302</ele>
        <time>2021-07-19T09:58:14Z</time>
      </trkpt>
      <trkpt lat="42.65042" lon="1.68731">
        <ele>2206.22</ele>
        <time>2021-07-19T09:58:16Z</time>
      </trkpt>
      <trkpt lat="42.65041" lon="1.6873">
        <ele>2206.185</ele>
        <time>2021-07-19T09:58:18Z</time>
      </trkpt>
      <trkpt lat="42.6504" lon="1.68729">
        <ele>2206.277</ele>
        <time>2021-07-19T09:58:20Z</time>
      </trkpt>
      <trkpt lat="42.65039" lon="1.68726">
        <ele>2206.164</ele>
        <time>2021-07-19T09:58:22Z</time>
      </trkpt>
      <trkpt lat="42.65039" lon="1.68725">
        <ele>2206.037</ele>
        <time>2021-07-19T09:58:24Z</time>
      </trkpt>
      <trkpt lat="42.65038" lon="1.68724">
        <ele>2206.005</ele>
        <time>2021-07-19T09:58:26Z</time>
      </trkpt>
      <trkpt lat="42.65037" lon="1.68723">
        <ele>2205.791</ele>
        <time>2021-07-19T09:58:28Z</time>
      </trkpt>
      <trkpt lat="42.65035" lon="1.68722">
        <ele>2205.377</ele>
        <time>2021-07-19T09:58:30Z</time>
      </trkpt>
      <trkpt lat="42.65033" lon="1.68722">
        <ele>2205.216</ele>
        <time>2021-07-19T09:58:32Z</time>
      </trkpt>
      <trkpt lat="42.65031" lon="1.68722">
        <ele>2205.145</ele>
        <time>2021-07-19T09:58:34Z</time>
      </trkpt>
      <trkpt lat="42.65031" lon="1.68721">
        <ele>2204.607</ele>
        <time>2021-07-19T09:58:36Z</time>
      </trkpt>
      <trkpt lat="42.65031" lon="1.68721">
        <ele>2204.59</ele>
        <time>2021-07-19T09:58:38Z</time>
      </trkpt>
      <trkpt lat="42.6503" lon="1.68721">
        <ele>2204.563</ele>
        <time>2021-07-19T09:58:40Z</time>
      </trkpt>
      <trkpt lat="42.65029" lon="1.6872">
        <ele>2205.627</ele>
        <time>2021-07-19T09:58:42Z</time>
      </trkpt>
      <trkpt lat="42.65029" lon="1.6872">
        <ele>2205.617</ele>
        <time>2021-07-19T09:58:44Z</time>
      </trkpt>
      <trkpt lat="42.65028" lon="1.68719">
        <ele>2205.535</ele>
        <time>2021-07-19T09:58:46Z</time>
      </trkpt>
      <trkpt lat="42.65027" lon="1.68719">
        <ele>2205.352</ele>
        <time>2021-07-19T09:58:48Z</time>
      </trkpt>
      <trkpt lat="42.65025" lon="1.68718">
        <ele>2205.591</ele>
        <time>2021-07-19T09:58:50Z</time>
      </trkpt>
      <trkpt lat="42.65024" lon="1.68717">
        <ele>2205.022</ele>
        <time>2021-07-19T09:58:52Z</time>
      </trkpt>
      <trkpt lat="42.65022" lon="1.68716">
        <ele>2205.642</ele>
        <time>2021-07-19T09:58:54Z</time>
      </trkpt>
      <trkpt lat="42.65022" lon="1.68715">
        <ele>2206.844</ele>
        <time>2021-07-19T09:58:56Z</time>
      </trkpt>
      <trkpt lat="42.65021" lon="1.68714">
        <ele>2206.264</ele>
        <time>2021-07-19T09:58:58Z</time>
      </trkpt>
      <trkpt lat="42.6502" lon="1.68713">
        <ele>2205.786</ele>
        <time>2021-07-19T09:59:00Z</time>
      </trkpt>
      <trkpt lat="42.65019" lon="1.68712">
        <ele>2205.657</ele>
        <time>2021-07-19T09:59:02Z</time>
      </trkpt>
      <trkpt lat="42.65019" lon="1.68712">
        <ele>2205.352</ele>
        <time>2021-07-19T09:59:04Z</time>
      </trkpt>
      <trkpt lat="42.65018" lon="1.68711">
        <ele>2205.743</ele>
        <time>2021-07-19T09:59:06Z</time>
      </trkpt>
      <trkpt lat="42.65017" lon="1.68711">
        <ele>2206.564</ele>
        <time>2021-07-19T09:59:08Z</time>
      </trkpt>
      <trkpt lat="42.65017" lon="1.6871">
        <ele>2207.449</ele>
        <time>2021-07-19T09:59:10Z</time>
      </trkpt>
      <trkpt lat="42.65017" lon="1.68708">
        <ele>2209.091</ele>
        <time>2021-07-19T09:59:12Z</time>
      </trkpt>
      <trkpt lat="42.65017" lon="1.68706">
        <ele>2209.477</ele>
        <time>2021-07-19T09:59:14Z</time>
      </trkpt>
      <trkpt lat="42.65016" lon="1.68705">
        <ele>2209.308</ele>
        <time>2021-07-19T09:59:16Z</time>
      </trkpt>
      <trkpt lat="42.65016" lon="1.68705">
        <ele>2209.305</ele>
        <time>2021-07-19T09:59:18Z</time>
      </trkpt>
      <trkpt lat="42.65015" lon="1.68704">
        <ele>2208.679</ele>
        <time>2021-07-19T09:59:20Z</time>
      </trkpt>
      <trkpt lat="42.65014" lon="1.68703">
        <ele>2209.664</ele>
        <time>2021-07-19T09:59:22Z</time>
      </trkpt>
      <trkpt lat="42.65014" lon="1.68702">
        <ele>2209.94</ele>
        <time>2021-07-19T09:59:24Z</time>
      </trkpt>
      <trkpt lat="42.65013" lon="1.68701">
        <ele>2209.688</ele>
        <time>2021-07-19T09:59:26Z</time>
      </trkpt>
      <trkpt lat="42.65013" lon="1.687">
        <ele>2209.874</ele>
        <time>2021-07-19T09:59:28Z</time>
      </trkpt>
      <trkpt lat="42.65012" lon="1.687">
        <ele>2209.781</ele>
        <time>2021-07-19T09:59:30Z</time>
      </trkpt>
      <trkpt lat="42.65013" lon="1.68701">
        <ele>2209.781</ele>
        <time>2021-07-19T09:59:32Z</time>
      </trkpt>
      <trkpt lat="42.65011" lon="1.687">
        <ele>2209.701</ele>
        <time>2021-07-19T09:59:34Z</time>
      </trkpt>
      <trkpt lat="42.6501" lon="1.68699">
        <ele>2210.05</ele>
        <time>2021-07-19T09:59:36Z</time>
      </trkpt>
      <trkpt lat="42.65011" lon="1.68699">
        <ele>2209.968</ele>
        <time>2021-07-19T09:59:38Z</time>
      </trkpt>
      <trkpt lat="42.65011" lon="1.68699">
        <ele>2210.012</ele>
        <time>2021-07-19T09:59:40Z</time>
      </trkpt>
      <trkpt lat="42.65011" lon="1.68699">
        <ele>2210.03</ele>
        <time>2021-07-19T09:59:42Z</time>
      </trkpt>
      <trkpt lat="42.65011" lon="1.68699">
        <ele>2210.064</ele>
        <time>2021-07-19T09:59:44Z</time>
      </trkpt>
      <trkpt lat="42.65011" lon="1.68699">
        <ele>2210.108</ele>
        <time>2021-07-19T09:59:46Z</time>
      </trkpt>
      <trkpt lat="42.65011" lon="1.68699">
        <ele>2210.134</ele>
        <time>2021-07-19T09:59:48Z</time>
      </trkpt>
      <trkpt lat="42.65011" lon="1.68699">
        <ele>2210.168</ele>
        <time>2021-07-19T09:59:50Z</time>
      </trkpt>
      <trkpt lat="42.65011" lon="1.68699">
        <ele>2210.167</ele>
        <time>2021-07-19T09:59:52Z</time>
      </trkpt>
      <trkpt lat="42.6501" lon="1.68698">
        <ele>2209.741</ele>
        <time>2021-07-19T09:59:54Z</time>
      </trkpt>
      <trkpt lat="42.65009" lon="1.68697">
        <ele>2209.501</ele>
        <time>2021-07-19T09:59:56Z</time>
      </trkpt>
      <trkpt lat="42.65008" lon="1.68696">
        <ele>2209.725</ele>
        <time>2021-07-19T09:59:58Z</time>
      </trkpt>
      <trkpt lat="42.65007" lon="1.68694">
        <ele>2209.956</ele>
        <time>2021-07-19T10:00:00Z</time>
      </trkpt>
      <trkpt lat="42.65007" lon="1.68691">
        <ele>2210.724</ele>
        <time>2021-07-19T10:00:02Z</time>
      </trkpt>
      <trkpt lat="42.65006" lon="1.68689">
        <ele>2211.955</ele>
        <time>2021-07-19T10:00:04Z</time>
      </trkpt>
      <trkpt lat="42.65005" lon="1.68687">
        <ele>2212.352</ele>
        <time>2021-07-19T10:00:06Z</time>
      </trkpt>
      <trkpt lat="42.65004" lon="1.68686">
        <ele>2212.048</ele>
        <time>2021-07-19T10:00:08Z</time>
      </trkpt>
      <trkpt lat="42.65004" lon="1.68686">
        <ele>2212.132</ele>
        <time>2021-07-19T10:00:10Z</time>
      </trkpt>
      <trkpt lat="42.65003" lon="1.68685">
        <ele>2212.738</ele>
        <time>2021-07-19T10:00:12Z</time>
      </trkpt>
      <trkpt lat="42.65002" lon="1.68684">
        <ele>2212.877</ele>
        <time>2021-07-19T10:00:14Z</time>
      </trkpt>
      <trkpt lat="42.65001" lon="1.68682">
        <ele>2213.971</ele>
        <time>2021-07-19T10:00:16Z</time>
      </trkpt>
      <trkpt lat="42.65" lon="1.6868">
        <ele>2215.568</ele>
        <time>2021-07-19T10:00:18Z</time>
      </trkpt>
      <trkpt lat="42.64999" lon="1.68679">
        <ele>2215.808</ele>
        <time>2021-07-19T10:00:20Z</time>
      </trkpt>
      <trkpt lat="42.64999" lon="1.68678">
        <ele>2216.041</ele>
        <time>2021-07-19T10:00:22Z</time>
      </trkpt>
      <trkpt lat="42.64998" lon="1.68676">
        <ele>2218.477</ele>
        <time>2021-07-19T10:00:24Z</time>
      </trkpt>
      <trkpt lat="42.64997" lon="1.68675">
        <ele>2219.611</ele>
        <time>2021-07-19T10:00:26Z</time>
      </trkpt>
      <trkpt lat="42.64996" lon="1.68674">
        <ele>2219.385</ele>
        <time>2021-07-19T10:00:28Z</time>
      </trkpt>
      <trkpt lat="42.64995" lon="1.68674">
        <ele>2219.957</ele>
        <time>2021-07-19T10:00:30Z</time>
      </trkpt>
      <trkpt lat="42.64994" lon="1.68673">
        <ele>2220.551</ele>
        <time>2021-07-19T10:00:32Z</time>
      </trkpt>
      <trkpt lat="42.64993" lon="1.68671">
        <ele>2220.397</ele>
        <time>2021-07-19T10:00:34Z</time>
      </trkpt>
      <trkpt lat="42.64993" lon="1.6867">
        <ele>2220.892</ele>
        <time>2021-07-19T10:00:36Z</time>
      </trkpt>
      <trkpt lat="42.64992" lon="1.68668">
        <ele>2221.229</ele>
        <time>2021-07-19T10:00:38Z</time>
      </trkpt>
      <trkpt lat="42.64991" lon="1.68667">
        <ele>2221.021</ele>
        <time>2021-07-19T10:00:40Z</time>
      </trkpt>
      <trkpt lat="42.64989" lon="1.68666">
        <ele>2221.555</ele>
        <time>2021-07-19T10:00:42Z</time>
      </trkpt>
      <trkpt lat="42.64988" lon="1.68665">
        <ele>2221.292</ele>
        <time>2021-07-19T10:00:44Z</time>
      </trkpt>
      <trkpt lat="42.64988" lon="1.68665">
        <ele>2221.275</ele>
        <time>2021-07-19T10:00:46Z</time>
      </trkpt>
      <trkpt lat="42.64988" lon="1.68665">
        <ele>2221.274</ele>
        <time>2021-07-19T10:00:48Z</time>
      </trkpt>
      <trkpt lat="42.64988" lon="1.68665">
        <ele>2221.268</ele>
        <time>2021-07-19T10:00:50Z</time>
      </trkpt>
      <trkpt lat="42.64988" lon="1.68664">
        <ele>2220.926</ele>
        <time>2021-07-19T10:00:52Z</time>
      </trkpt>
      <trkpt lat="42.64987" lon="1.68663">
        <ele>2220.884</ele>
        <time>2021-07-19T10:00:54Z</time>
      </trkpt>
      <trkpt lat="42.64986" lon="1.68661">
        <ele>2221.293</ele>
        <time>2021-07-19T10:00:56Z</time>
      </trkpt>
      <trkpt lat="42.64985" lon="1.6866">
        <ele>2221.352</ele>
        <time>2021-07-19T10:00:58Z</time>
      </trkpt>
      <trkpt lat="42.64985" lon="1.6866">
        <ele>2220.79</ele>
        <time>2021-07-19T10:01:00Z</time>
      </trkpt>
      <trkpt lat="42.64984" lon="1.68659">
        <ele>2220.728</ele>
        <time>2021-07-19T10:01:02Z</time>
      </trkpt>
      <trkpt lat="42.64983" lon="1.68658">
        <ele>2221.165</ele>
        <time>2021-07-19T10:01:04Z</time>
      </trkpt>
      <trkpt lat="42.64983" lon="1.68658">
        <ele>2221.117</ele>
        <time>2021-07-19T10:01:06Z</time>
      </trkpt>
      <trkpt lat="42.64982" lon="1.68658">
        <ele>2221.034</ele>
        <time>2021-07-19T10:01:08Z</time>
      </trkpt>
      <trkpt lat="42.64981" lon="1.68658">
        <ele>2220.052</ele>
        <time>2021-07-19T10:01:10Z</time>
      </trkpt>
      <trkpt lat="42.6498" lon="1.68658">
        <ele>2220</ele>
        <time>2021-07-19T10:01:12Z</time>
      </trkpt>
      <trkpt lat="42.64979" lon="1.68658">
        <ele>2220.507</ele>
        <time>2021-07-19T10:01:14Z</time>
      </trkpt>
      <trkpt lat="42.64977" lon="1.68657">
        <ele>2221.582</ele>
        <time>2021-07-19T10:01:16Z</time>
      </trkpt>
      <trkpt lat="42.64976" lon="1.68656">
        <ele>2221.405</ele>
        <time>2021-07-19T10:01:18Z</time>
      </trkpt>
      <trkpt lat="42.64975" lon="1.68656">
        <ele>2222.062</ele>
        <time>2021-07-19T10:01:20Z</time>
      </trkpt>
      <trkpt lat="42.64974" lon="1.68655">
        <ele>2223.171</ele>
        <time>2021-07-19T10:01:22Z</time>
      </trkpt>
      <trkpt lat="42.64973" lon="1.68655">
        <ele>2222.83</ele>
        <time>2021-07-19T10:01:24Z</time>
      </trkpt>
      <trkpt lat="42.64972" lon="1.68654">
        <ele>2222.895</ele>
        <time>2021-07-19T10:01:26Z</time>
      </trkpt>
      <trkpt lat="42.64969" lon="1.68654">
        <ele>2222.869</ele>
        <time>2021-07-19T10:01:28Z</time>
      </trkpt>
      <trkpt lat="42.64968" lon="1.68653">
        <ele>2223.069</ele>
        <time>2021-07-19T10:01:30Z</time>
      </trkpt>
      <trkpt lat="42.64966" lon="1.68653">
        <ele>2223.287</ele>
        <time>2021-07-19T10:01:32Z</time>
      </trkpt>
      <trkpt lat="42.64965" lon="1.68653">
        <ele>2221.957</ele>
        <time>2021-07-19T10:01:34Z</time>
      </trkpt>
      <trkpt lat="42.64964" lon="1.68654">
        <ele>2220.595</ele>
        <time>2021-07-19T10:01:36Z</time>
      </trkpt>
      <trkpt lat="42.64963" lon="1.68654">
        <ele>2220.598</ele>
        <time>2021-07-19T10:01:38Z</time>
      </trkpt>
      <trkpt lat="42.64961" lon="1.68654">
        <ele>2220.83</ele>
        <time>2021-07-19T10:01:40Z</time>
      </trkpt>
      <trkpt lat="42.6496" lon="1.68654">
        <ele>2219.606</ele>
        <time>2021-07-19T10:01:42Z</time>
      </trkpt>
      <trkpt lat="42.64959" lon="1.68654">
        <ele>2219.662</ele>
        <time>2021-07-19T10:01:44Z</time>
      </trkpt>
      <trkpt lat="42.64959" lon="1.68654">
        <ele>2219.943</ele>
        <time>2021-07-19T10:01:46Z</time>
      </trkpt>
      <trkpt lat="42.64958" lon="1.68654">
        <ele>2220.231</ele>
        <time>2021-07-19T10:01:48Z</time>
      </trkpt>
      <trkpt lat="42.64957" lon="1.68654">
        <ele>2219.49</ele>
        <time>2021-07-19T10:01:50Z</time>
      </trkpt>
      <trkpt lat="42.64955" lon="1.68654">
        <ele>2220.377</ele>
        <time>2021-07-19T10:01:52Z</time>
      </trkpt>
      <trkpt lat="42.64954" lon="1.68653">
        <ele>2220.472</ele>
        <time>2021-07-19T10:01:54Z</time>
      </trkpt>
      <trkpt lat="42.64953" lon="1.68652">
        <ele>2220.871</ele>
        <time>2021-07-19T10:01:56Z</time>
      </trkpt>
      <trkpt lat="42.64952" lon="1.68651">
        <ele>2220.946</ele>
        <time>2021-07-19T10:01:58Z</time>
      </trkpt>
      <trkpt lat="42.64951" lon="1.68651">
        <ele>2220.655</ele>
        <time>2021-07-19T10:02:00Z</time>
      </trkpt>
      <trkpt lat="42.6495" lon="1.68651">
        <ele>2220.165</ele>
        <time>2021-07-19T10:02:02Z</time>
      </trkpt>
      <trkpt lat="42.64949" lon="1.68651">
        <ele>2220.841</ele>
        <time>2021-07-19T10:02:04Z</time>
      </trkpt>
      <trkpt lat="42.64949" lon="1.68652">
        <ele>2220.86</ele>
        <time>2021-07-19T10:02:06Z</time>
      </trkpt>
      <trkpt lat="42.64949" lon="1.68652">
        <ele>2220.666</ele>
        <time>2021-07-19T10:02:08Z</time>
      </trkpt>
      <trkpt lat="42.64949" lon="1.68652">
        <ele>2220.669</ele>
        <time>2021-07-19T10:02:10Z</time>
      </trkpt>
      <trkpt lat="42.64949" lon="1.68652">
        <ele>2220.876</ele>
        <time>2021-07-19T10:02:12Z</time>
      </trkpt>
      <trkpt lat="42.64949" lon="1.68652">
        <ele>2220.882</ele>
        <time>2021-07-19T10:02:14Z</time>
      </trkpt>
      <trkpt lat="42.64949" lon="1.68652">
        <ele>2220.885</ele>
        <time>2021-07-19T10:02:16Z</time>
      </trkpt>
      <trkpt lat="42.64948" lon="1.68652">
        <ele>2221.063</ele>
        <time>2021-07-19T10:02:18Z</time>
      </trkpt>
      <trkpt lat="42.64947" lon="1.68651">
        <ele>2220.57</ele>
        <time>2021-07-19T10:02:20Z</time>
      </trkpt>
      <trkpt lat="42.64947" lon="1.6865">
        <ele>2220.914</ele>
        <time>2021-07-19T10:02:22Z</time>
      </trkpt>
      <trkpt lat="42.64945" lon="1.68649">
        <ele>2220.734</ele>
        <time>2021-07-19T10:02:24Z</time>
      </trkpt>
      <trkpt lat="42.64944" lon="1.68649">
        <ele>2220.758</ele>
        <time>2021-07-19T10:02:26Z</time>
      </trkpt>
      <trkpt lat="42.64943" lon="1.68648">
        <ele>2221.06</ele>
        <time>2021-07-19T10:02:28Z</time>
      </trkpt>
      <trkpt lat="42.64943" lon="1.68648">
        <ele>2220.851</ele>
        <time>2021-07-19T10:02:30Z</time>
      </trkpt>
      <trkpt lat="42.64943" lon="1.68648">
        <ele>2221.18</ele>
        <time>2021-07-19T10:02:32Z</time>
      </trkpt>
      <trkpt lat="42.64942" lon="1.68649">
        <ele>2221.146</ele>
        <time>2021-07-19T10:02:34Z</time>
      </trkpt>
      <trkpt lat="42.64941" lon="1.68649">
        <ele>2221.862</ele>
        <time>2021-07-19T10:02:36Z</time>
      </trkpt>
      <trkpt lat="42.64939" lon="1.68649">
        <ele>2222.645</ele>
        <time>2021-07-19T10:02:38Z</time>
      </trkpt>
      <trkpt lat="42.64938" lon="1.68649">
        <ele>2222.677</ele>
        <time>2021-07-19T10:02:40Z</time>
      </trkpt>
      <trkpt lat="42.64937" lon="1.68648">
        <ele>2222.992</ele>
        <time>2021-07-19T10:02:42Z</time>
      </trkpt>
      <trkpt lat="42.64936" lon="1.68647">
        <ele>2222.68</ele>
        <time>2021-07-19T10:02:44Z</time>
      </trkpt>
      <trkpt lat="42.64935" lon="1.68647">
        <ele>2222.92</ele>
        <time>2021-07-19T10:02:46Z</time>
      </trkpt>
      <trkpt lat="42.64935" lon="1.68647">
        <ele>2222.742</ele>
        <time>2021-07-19T10:02:48Z</time>
      </trkpt>
      <trkpt lat="42.64934" lon="1.68647">
        <ele>2223.689</ele>
        <time>2021-07-19T10:02:50Z</time>
      </trkpt>
      <trkpt lat="42.64933" lon="1.68646">
        <ele>2224.255</ele>
        <time>2021-07-19T10:02:52Z</time>
      </trkpt>
      <trkpt lat="42.64933" lon="1.68646">
        <ele>2224.476</ele>
        <time>2021-07-19T10:02:54Z</time>
      </trkpt>
      <trkpt lat="42.64932" lon="1.68646">
        <ele>2224.788</ele>
        <time>2021-07-19T10:02:56Z</time>
      </trkpt>
      <trkpt lat="42.64932" lon="1.68647">
        <ele>2225.319</ele>
        <time>2021-07-19T10:02:58Z</time>
      </trkpt>
      <trkpt lat="42.64931" lon="1.68648">
        <ele>2225.128</ele>
        <time>2021-07-19T10:03:00Z</time>
      </trkpt>
      <trkpt lat="42.64931" lon="1.68647">
        <ele>2224.897</ele>
        <time>2021-07-19T10:03:02Z</time>
      </trkpt>
      <trkpt lat="42.6493" lon="1.68647">
        <ele>2224.922</ele>
        <time>2021-07-19T10:03:04Z</time>
      </trkpt>
      <trkpt lat="42.6493" lon="1.68646">
        <ele>2224.602</ele>
        <time>2021-07-19T10:03:06Z</time>
      </trkpt>
      <trkpt lat="42.64929" lon="1.68646">
        <ele>2224.775</ele>
        <time>2021-07-19T10:03:08Z</time>
      </trkpt>
      <trkpt lat="42.64928" lon="1.68647">
        <ele>2225.176</ele>
        <time>2021-07-19T10:03:10Z</time>
      </trkpt>
      <trkpt lat="42.64928" lon="1.68647">
        <ele>2225.162</ele>
        <time>2021-07-19T10:03:12Z</time>
      </trkpt>
      <trkpt lat="42.64927" lon="1.68647">
        <ele>2225.757</ele>
        <time>2021-07-19T10:03:14Z</time>
      </trkpt>
      <trkpt lat="42.64925" lon="1.68647">
        <ele>2225.997</ele>
        <time>2021-07-19T10:03:16Z</time>
      </trkpt>
      <trkpt lat="42.64924" lon="1.68647">
        <ele>2226.145</ele>
        <time>2021-07-19T10:03:18Z</time>
      </trkpt>
      <trkpt lat="42.64923" lon="1.68648">
        <ele>2224.331</ele>
        <time>2021-07-19T10:03:20Z</time>
      </trkpt>
      <trkpt lat="42.64922" lon="1.68648">
        <ele>2223.651</ele>
        <time>2021-07-19T10:03:22Z</time>
      </trkpt>
      <trkpt lat="42.64921" lon="1.68648">
        <ele>2223.512</ele>
        <time>2021-07-19T10:03:24Z</time>
      </trkpt>
      <trkpt lat="42.64921" lon="1.68648">
        <ele>2223.438</ele>
        <time>2021-07-19T10:03:26Z</time>
      </trkpt>
      <trkpt lat="42.64921" lon="1.68648">
        <ele>2222.926</ele>
        <time>2021-07-19T10:03:28Z</time>
      </trkpt>
      <trkpt lat="42.6492" lon="1.68649">
        <ele>2223.368</ele>
        <time>2021-07-19T10:03:30Z</time>
      </trkpt>
      <trkpt lat="42.64919" lon="1.68649">
        <ele>2223.871</ele>
        <time>2021-07-19T10:03:32Z</time>
      </trkpt>
      <trkpt lat="42.64919" lon="1.68649">
        <ele>2224.041</ele>
        <time>2021-07-19T10:03:34Z</time>
      </trkpt>
      <trkpt lat="42.64918" lon="1.68649">
        <ele>2224.453</ele>
        <time>2021-07-19T10:03:36Z</time>
      </trkpt>
      <trkpt lat="42.64917" lon="1.6865">
        <ele>2225.57</ele>
        <time>2021-07-19T10:03:38Z</time>
      </trkpt>
      <trkpt lat="42.64915" lon="1.6865">
        <ele>2226.465</ele>
        <time>2021-07-19T10:03:40Z</time>
      </trkpt>
      <trkpt lat="42.64914" lon="1.6865">
        <ele>2227.384</ele>
        <time>2021-07-19T10:03:42Z</time>
      </trkpt>
      <trkpt lat="42.64913" lon="1.6865">
        <ele>2229.121</ele>
        <time>2021-07-19T10:03:44Z</time>
      </trkpt>
      <trkpt lat="42.64911" lon="1.68651">
        <ele>2229.774</ele>
        <time>2021-07-19T10:03:46Z</time>
      </trkpt>
      <trkpt lat="42.6491" lon="1.68651">
        <ele>2230.195</ele>
        <time>2021-07-19T10:03:48Z</time>
      </trkpt>
      <trkpt lat="42.64909" lon="1.68651">
        <ele>2231.418</ele>
        <time>2021-07-19T10:03:50Z</time>
      </trkpt>
      <trkpt lat="42.64909" lon="1.68652">
        <ele>2231.398</ele>
        <time>2021-07-19T10:03:52Z</time>
      </trkpt>
      <trkpt lat="42.64908" lon="1.68653">
        <ele>2232.012</ele>
        <time>2021-07-19T10:03:54Z</time>
      </trkpt>
      <trkpt lat="42.64907" lon="1.68653">
        <ele>2231.933</ele>
        <time>2021-07-19T10:03:56Z</time>
      </trkpt>
      <trkpt lat="42.64907" lon="1.68654">
        <ele>2232.246</ele>
        <time>2021-07-19T10:03:58Z</time>
      </trkpt>
      <trkpt lat="42.64905" lon="1.68654">
        <ele>2234.667</ele>
        <time>2021-07-19T10:04:00Z</time>
      </trkpt>
      <trkpt lat="42.64904" lon="1.68653">
        <ele>2235.176</ele>
        <time>2021-07-19T10:04:02Z</time>
      </trkpt>
      <trkpt lat="42.64903" lon="1.68653">
        <ele>2235.768</ele>
        <time>2021-07-19T10:04:04Z</time>
      </trkpt>
      <trkpt lat="42.64903" lon="1.68653">
        <ele>2235.508</ele>
        <time>2021-07-19T10:04:06Z</time>
      </trkpt>
      <trkpt lat="42.64902" lon="1.68653">
        <ele>2235.139</ele>
        <time>2021-07-19T10:04:08Z</time>
      </trkpt>
      <trkpt lat="42.64901" lon="1.68653">
        <ele>2235.417</ele>
        <time>2021-07-19T10:04:10Z</time>
      </trkpt>
      <trkpt lat="42.64901" lon="1.68653">
        <ele>2235.146</ele>
        <time>2021-07-19T10:04:12Z</time>
      </trkpt>
      <trkpt lat="42.64901" lon="1.68653">
        <ele>2235.604</ele>
        <time>2021-07-19T10:04:14Z</time>
      </trkpt>
      <trkpt lat="42.649" lon="1.68653">
        <ele>2236.184</ele>
        <time>2021-07-19T10:04:16Z</time>
      </trkpt>
      <trkpt lat="42.649" lon="1.68653">
        <ele>2236.335</ele>
        <time>2021-07-19T10:04:18Z</time>
      </trkpt>
      <trkpt lat="42.64899" lon="1.68653">
        <ele>2236.717</ele>
        <time>2021-07-19T10:04:20Z</time>
      </trkpt>
      <trkpt lat="42.64899" lon="1.68653">
        <ele>2237.156</ele>
        <time>2021-07-19T10:04:22Z</time>
      </trkpt>
      <trkpt lat="42.64898" lon="1.68653">
        <ele>2237.077</ele>
        <time>2021-07-19T10:04:24Z</time>
      </trkpt>
      <trkpt lat="42.64898" lon="1.68653">
        <ele>2236.994</ele>
        <time>2021-07-19T10:04:26Z</time>
      </trkpt>
      <trkpt lat="42.64898" lon="1.68653">
        <ele>2237.408</ele>
        <time>2021-07-19T10:04:28Z</time>
      </trkpt>
      <trkpt lat="42.64898" lon="1.68653">
        <ele>2236.747</ele>
        <time>2021-07-19T10:04:30Z</time>
      </trkpt>
      <trkpt lat="42.64897" lon="1.68653">
        <ele>2237.482</ele>
        <time>2021-07-19T10:04:32Z</time>
      </trkpt>
      <trkpt lat="42.64897" lon="1.68653">
        <ele>2237.563</ele>
        <time>2021-07-19T10:04:34Z</time>
      </trkpt>
      <trkpt lat="42.64896" lon="1.68654">
        <ele>2237.365</ele>
        <time>2021-07-19T10:04:36Z</time>
      </trkpt>
      <trkpt lat="42.64896" lon="1.68653">
        <ele>2237.423</ele>
        <time>2021-07-19T10:04:38Z</time>
      </trkpt>
      <trkpt lat="42.64895" lon="1.68653">
        <ele>2237.751</ele>
        <time>2021-07-19T10:04:40Z</time>
      </trkpt>
      <trkpt lat="42.64894" lon="1.68654">
        <ele>2237.751</ele>
        <time>2021-07-19T10:04:42Z</time>
      </trkpt>
      <trkpt lat="42.64894" lon="1.68654">
        <ele>2238.11</ele>
        <time>2021-07-19T10:04:44Z</time>
      </trkpt>
      <trkpt lat="42.64894" lon="1.68655">
        <ele>2238.094</ele>
        <time>2021-07-19T10:04:46Z</time>
      </trkpt>
      <trkpt lat="42.64894" lon="1.68655">
        <ele>2238.097</ele>
        <time>2021-07-19T10:04:48Z</time>
      </trkpt>
      <trkpt lat="42.64894" lon="1.68655">
        <ele>2238.108</ele>
        <time>2021-07-19T10:04:50Z</time>
      </trkpt>
      <trkpt lat="42.64894" lon="1.68655">
        <ele>2238.205</ele>
        <time>2021-07-19T10:04:52Z</time>
      </trkpt>
      <trkpt lat="42.64893" lon="1.68656">
        <ele>2238.39</ele>
        <time>2021-07-19T10:04:54Z</time>
      </trkpt>
      <trkpt lat="42.64893" lon="1.68656">
        <ele>2238.15</ele>
        <time>2021-07-19T10:04:56Z</time>
      </trkpt>
      <trkpt lat="42.64893" lon="1.68656">
        <ele>2238.232</ele>
        <time>2021-07-19T10:04:58Z</time>
      </trkpt>
      <trkpt lat="42.64892" lon="1.68655">
        <ele>2238.053</ele>
        <time>2021-07-19T10:05:00Z</time>
      </trkpt>
      <trkpt lat="42.64891" lon="1.68655">
        <ele>2238.479</ele>
        <time>2021-07-19T10:05:02Z</time>
      </trkpt>
      <trkpt lat="42.6489" lon="1.68655">
        <ele>2239.461</ele>
        <time>2021-07-19T10:05:04Z</time>
      </trkpt>
      <trkpt lat="42.6489" lon="1.68655">
        <ele>2240.377</ele>
        <time>2021-07-19T10:05:06Z</time>
      </trkpt>
      <trkpt lat="42.6489" lon="1.68654">
        <ele>2241.276</ele>
        <time>2021-07-19T10:05:08Z</time>
      </trkpt>
      <trkpt lat="42.64889" lon="1.68653">
        <ele>2243.009</ele>
        <time>2021-07-19T10:05:10Z</time>
      </trkpt>
      <trkpt lat="42.64889" lon="1.68653">
        <ele>2242.955</ele>
        <time>2021-07-19T10:05:12Z</time>
      </trkpt>
      <trkpt lat="42.64889" lon="1.68653">
        <ele>2243.232</ele>
        <time>2021-07-19T10:05:14Z</time>
      </trkpt>
      <trkpt lat="42.64889" lon="1.68653">
        <ele>2243.221</ele>
        <time>2021-07-19T10:05:16Z</time>
      </trkpt>
      <trkpt lat="42.64889" lon="1.68653">
        <ele>2243.215</ele>
        <time>2021-07-19T10:05:18Z</time>
      </trkpt>
      <trkpt lat="42.64889" lon="1.68653">
        <ele>2243.229</ele>
        <time>2021-07-19T10:05:20Z</time>
      </trkpt>
      <trkpt lat="42.64889" lon="1.68653">
        <ele>2243.1</ele>
        <time>2021-07-19T10:05:22Z</time>
      </trkpt>
      <trkpt lat="42.64888" lon="1.68652">
        <ele>2242.909</ele>
        <time>2021-07-19T10:05:24Z</time>
      </trkpt>
      <trkpt lat="42.64888" lon="1.68652">
        <ele>2242.922</ele>
        <time>2021-07-19T10:05:26Z</time>
      </trkpt>
      <trkpt lat="42.64888" lon="1.68652">
        <ele>2242.936</ele>
        <time>2021-07-19T10:05:28Z</time>
      </trkpt>
      <trkpt lat="42.64888" lon="1.68652">
        <ele>2242.973</ele>
        <time>2021-07-19T10:05:30Z</time>
      </trkpt>
      <trkpt lat="42.64888" lon="1.68652">
        <ele>2243.216</ele>
        <time>2021-07-19T10:05:32Z</time>
      </trkpt>
      <trkpt lat="42.64887" lon="1.68652">
        <ele>2244.064</ele>
        <time>2021-07-19T10:05:34Z</time>
      </trkpt>
      <trkpt lat="42.64888" lon="1.68652">
        <ele>2244.011</ele>
        <time>2021-07-19T10:05:36Z</time>
      </trkpt>
      <trkpt lat="42.64888" lon="1.68652">
        <ele>2244.017</ele>
        <time>2021-07-19T10:05:38Z</time>
      </trkpt>
      <trkpt lat="42.64888" lon="1.68652">
        <ele>2244.04</ele>
        <time>2021-07-19T10:05:40Z</time>
      </trkpt>
      <trkpt lat="42.64888" lon="1.68652">
        <ele>2244.061</ele>
        <time>2021-07-19T10:05:42Z</time>
      </trkpt>
      <trkpt lat="42.64888" lon="1.68652">
        <ele>2244.068</ele>
        <time>2021-07-19T10:05:44Z</time>
      </trkpt>
      <trkpt lat="42.64888" lon="1.68652">
        <ele>2244.093</ele>
        <time>2021-07-19T10:05:46Z</time>
      </trkpt>
      <trkpt lat="42.64888" lon="1.68652">
        <ele>2244.114</ele>
        <time>2021-07-19T10:05:48Z</time>
      </trkpt>
      <trkpt lat="42.64888" lon="1.68652">
        <ele>2244.089</ele>
        <time>2021-07-19T10:05:50Z</time>
      </trkpt>
      <trkpt lat="42.64888" lon="1.68652">
        <ele>2244.092</ele>
        <time>2021-07-19T10:05:52Z</time>
      </trkpt>
      <trkpt lat="42.64888" lon="1.68652">
        <ele>2244.082</ele>
        <time>2021-07-19T10:05:54Z</time>
      </trkpt>
      <trkpt lat="42.64888" lon="1.68652">
        <ele>2244.119</ele>
        <time>2021-07-19T10:05:56Z</time>
      </trkpt>
      <trkpt lat="42.64888" lon="1.68652">
        <ele>2244.138</ele>
        <time>2021-07-19T10:05:58Z</time>
      </trkpt>
      <trkpt lat="42.64888" lon="1.68652">
        <ele>2244.159</ele>
        <time>2021-07-19T10:06:00Z</time>
      </trkpt>
      <trkpt lat="42.64888" lon="1.68652">
        <ele>2244.117</ele>
        <time>2021-07-19T10:06:02Z</time>
      </trkpt>
      <trkpt lat="42.64888" lon="1.68652">
        <ele>2244.09</ele>
        <time>2021-07-19T10:06:04Z</time>
      </trkpt>
      <trkpt lat="42.64888" lon="1.68652">
        <ele>2244.076</ele>
        <time>2021-07-19T10:06:06Z</time>
      </trkpt>
      <trkpt lat="42.64888" lon="1.68652">
        <ele>2244.081</ele>
        <time>2021-07-19T10:06:08Z</time>
      </trkpt>
      <trkpt lat="42.64888" lon="1.68652">
        <ele>2244.11</ele>
        <time>2021-07-19T10:06:10Z</time>
      </trkpt>
      <trkpt lat="42.64888" lon="1.68652">
        <ele>2244.128</ele>
        <time>2021-07-19T10:06:12Z</time>
      </trkpt>
      <trkpt lat="42.64888" lon="1.68652">
        <ele>2244.133</ele>
        <time>2021-07-19T10:06:14Z</time>
      </trkpt>
      <trkpt lat="42.64888" lon="1.68652">
        <ele>2244.15</ele>
        <time>2021-07-19T10:06:16Z</time>
      </trkpt>
      <trkpt lat="42.64888" lon="1.68652">
        <ele>2244.194</ele>
        <time>2021-07-19T10:06:18Z</time>
      </trkpt>
      <trkpt lat="42.64888" lon="1.68652">
        <ele>2244.266</ele>
        <time>2021-07-19T10:06:20Z</time>
      </trkpt>
      <trkpt lat="42.64888" lon="1.68652">
        <ele>2244.325</ele>
        <time>2021-07-19T10:06:22Z</time>
      </trkpt>
      <trkpt lat="42.64888" lon="1.68652">
        <ele>2244.316</ele>
        <time>2021-07-19T10:06:24Z</time>
      </trkpt>
      <trkpt lat="42.64888" lon="1.68652">
        <ele>2244.358</ele>
        <time>2021-07-19T10:06:26Z</time>
      </trkpt>
      <trkpt lat="42.64888" lon="1.68652">
        <ele>2244.381</ele>
        <time>2021-07-19T10:06:28Z</time>
      </trkpt>
      <trkpt lat="42.64888" lon="1.68652">
        <ele>2244.423</ele>
        <time>2021-07-19T10:06:30Z</time>
      </trkpt>
      <trkpt lat="42.64888" lon="1.68652">
        <ele>2244.432</ele>
        <time>2021-07-19T10:06:32Z</time>
      </trkpt>
      <trkpt lat="42.64888" lon="1.68652">
        <ele>2244.482</ele>
        <time>2021-07-19T10:06:34Z</time>
      </trkpt>
      <trkpt lat="42.64888" lon="1.68652">
        <ele>2244.465</ele>
        <time>2021-07-19T10:06:36Z</time>
      </trkpt>
      <trkpt lat="42.64888" lon="1.68652">
        <ele>2244.496</ele>
        <time>2021-07-19T10:06:38Z</time>
      </trkpt>
      <trkpt lat="42.64888" lon="1.68652">
        <ele>2244.499</ele>
        <time>2021-07-19T10:06:40Z</time>
      </trkpt>
      <trkpt lat="42.64888" lon="1.68652">
        <ele>2244.721</ele>
        <time>2021-07-19T10:06:42Z</time>
      </trkpt>
      <trkpt lat="42.64888" lon="1.68652">
        <ele>2244.705</ele>
        <time>2021-07-19T10:06:44Z</time>
      </trkpt>
      <trkpt lat="42.64888" lon="1.68652">
        <ele>2244.703</ele>
        <time>2021-07-19T10:06:46Z</time>
      </trkpt>
      <trkpt lat="42.64887" lon="1.68651">
        <ele>2244.748</ele>
        <time>2021-07-19T10:06:48Z</time>
      </trkpt>
      <trkpt lat="42.64886" lon="1.68649">
        <ele>2244.805</ele>
        <time>2021-07-19T10:06:50Z</time>
      </trkpt>
      <trkpt lat="42.64885" lon="1.68649">
        <ele>2244.919</ele>
        <time>2021-07-19T10:06:52Z</time>
      </trkpt>
      <trkpt lat="42.64884" lon="1.68649">
        <ele>2245.068</ele>
        <time>2021-07-19T10:06:54Z</time>
      </trkpt>
      <trkpt lat="42.64883" lon="1.68649">
        <ele>2245.693</ele>
        <time>2021-07-19T10:06:56Z</time>
      </trkpt>
      <trkpt lat="42.64883" lon="1.68649">
        <ele>2245.793</ele>
        <time>2021-07-19T10:06:58Z</time>
      </trkpt>
      <trkpt lat="42.64883" lon="1.6865">
        <ele>2245.798</ele>
        <time>2021-07-19T10:07:00Z</time>
      </trkpt>
      <trkpt lat="42.64883" lon="1.6865">
        <ele>2245.81</ele>
        <time>2021-07-19T10:07:02Z</time>
      </trkpt>
      <trkpt lat="42.64883" lon="1.6865">
        <ele>2245.821</ele>
        <time>2021-07-19T10:07:04Z</time>
      </trkpt>
      <trkpt lat="42.64882" lon="1.6865">
        <ele>2246.115</ele>
        <time>2021-07-19T10:07:06Z</time>
      </trkpt>
      <trkpt lat="42.64881" lon="1.6865">
        <ele>2245.885</ele>
        <time>2021-07-19T10:07:08Z</time>
      </trkpt>
      <trkpt lat="42.64879" lon="1.6865">
        <ele>2246.075</ele>
        <time>2021-07-19T10:07:10Z</time>
      </trkpt>
      <trkpt lat="42.64879" lon="1.6865">
        <ele>2246.464</ele>
        <time>2021-07-19T10:07:12Z</time>
      </trkpt>
      <trkpt lat="42.64877" lon="1.6865">
        <ele>2246.478</ele>
        <time>2021-07-19T10:07:14Z</time>
      </trkpt>
      <trkpt lat="42.64876" lon="1.6865">
        <ele>2246.802</ele>
        <time>2021-07-19T10:07:16Z</time>
      </trkpt>
      <trkpt lat="42.64875" lon="1.6865">
        <ele>2247.747</ele>
        <time>2021-07-19T10:07:18Z</time>
      </trkpt>
      <trkpt lat="42.64875" lon="1.6865">
        <ele>2248.191</ele>
        <time>2021-07-19T10:07:20Z</time>
      </trkpt>
      <trkpt lat="42.64874" lon="1.6865">
        <ele>2248.865</ele>
        <time>2021-07-19T10:07:22Z</time>
      </trkpt>
      <trkpt lat="42.64872" lon="1.6865">
        <ele>2249.483</ele>
        <time>2021-07-19T10:07:24Z</time>
      </trkpt>
      <trkpt lat="42.64871" lon="1.68649">
        <ele>2250.389</ele>
        <time>2021-07-19T10:07:26Z</time>
      </trkpt>
      <trkpt lat="42.64869" lon="1.68649">
        <ele>2251.379</ele>
        <time>2021-07-19T10:07:28Z</time>
      </trkpt>
      <trkpt lat="42.64868" lon="1.68648">
        <ele>2252.768</ele>
        <time>2021-07-19T10:07:30Z</time>
      </trkpt>
      <trkpt lat="42.64867" lon="1.68647">
        <ele>2253.231</ele>
        <time>2021-07-19T10:07:32Z</time>
      </trkpt>
      <trkpt lat="42.64866" lon="1.68647">
        <ele>2254.032</ele>
        <time>2021-07-19T10:07:34Z</time>
      </trkpt>
      <trkpt lat="42.64865" lon="1.68647">
        <ele>2254.274</ele>
        <time>2021-07-19T10:07:36Z</time>
      </trkpt>
      <trkpt lat="42.64865" lon="1.68647">
        <ele>2253.715</ele>
        <time>2021-07-19T10:07:38Z</time>
      </trkpt>
      <trkpt lat="42.64864" lon="1.68645">
        <ele>2253.868</ele>
        <time>2021-07-19T10:07:40Z</time>
      </trkpt>
      <trkpt lat="42.64864" lon="1.68644">
        <ele>2255.026</ele>
        <time>2021-07-19T10:07:42Z</time>
      </trkpt>
      <trkpt lat="42.64863" lon="1.68643">
        <ele>2255.534</ele>
        <time>2021-07-19T10:07:44Z</time>
      </trkpt>
      <trkpt lat="42.64862" lon="1.68643">
        <ele>2255.395</ele>
        <time>2021-07-19T10:07:46Z</time>
      </trkpt>
      <trkpt lat="42.64862" lon="1.68643">
        <ele>2255.396</ele>
        <time>2021-07-19T10:07:48Z</time>
      </trkpt>
      <trkpt lat="42.64861" lon="1.68643">
        <ele>2255.208</ele>
        <time>2021-07-19T10:07:50Z</time>
      </trkpt>
      <trkpt lat="42.6486" lon="1.68644">
        <ele>2255.275</ele>
        <time>2021-07-19T10:07:52Z</time>
      </trkpt>
      <trkpt lat="42.6486" lon="1.68645">
        <ele>2255.201</ele>
        <time>2021-07-19T10:07:54Z</time>
      </trkpt>
      <trkpt lat="42.6486" lon="1.68645">
        <ele>2254.95</ele>
        <time>2021-07-19T10:07:56Z</time>
      </trkpt>
      <trkpt lat="42.64859" lon="1.68646">
        <ele>2253.633</ele>
        <time>2021-07-19T10:07:58Z</time>
      </trkpt>
      <trkpt lat="42.64858" lon="1.68646">
        <ele>2254.089</ele>
        <time>2021-07-19T10:08:00Z</time>
      </trkpt>
      <trkpt lat="42.64856" lon="1.68645">
        <ele>2254.627</ele>
        <time>2021-07-19T10:08:02Z</time>
      </trkpt>
      <trkpt lat="42.64854" lon="1.68645">
        <ele>2254.824</ele>
        <time>2021-07-19T10:08:04Z</time>
      </trkpt>
      <trkpt lat="42.64853" lon="1.68646">
        <ele>2254.66</ele>
        <time>2021-07-19T10:08:06Z</time>
      </trkpt>
      <trkpt lat="42.64852" lon="1.68646">
        <ele>2255.148</ele>
        <time>2021-07-19T10:08:08Z</time>
      </trkpt>
      <trkpt lat="42.6485" lon="1.68646">
        <ele>2256.626</ele>
        <time>2021-07-19T10:08:10Z</time>
      </trkpt>
      <trkpt lat="42.6485" lon="1.68647">
        <ele>2256.621</ele>
        <time>2021-07-19T10:08:12Z</time>
      </trkpt>
      <trkpt lat="42.6485" lon="1.68647">
        <ele>2256.671</ele>
        <time>2021-07-19T10:08:14Z</time>
      </trkpt>
      <trkpt lat="42.64848" lon="1.68646">
        <ele>2258.062</ele>
        <time>2021-07-19T10:08:16Z</time>
      </trkpt>
      <trkpt lat="42.64847" lon="1.68645">
        <ele>2258.18</ele>
        <time>2021-07-19T10:08:18Z</time>
      </trkpt>
      <trkpt lat="42.64846" lon="1.68645">
        <ele>2258.33</ele>
        <time>2021-07-19T10:08:20Z</time>
      </trkpt>
      <trkpt lat="42.64845" lon="1.68643">
        <ele>2260.081</ele>
        <time>2021-07-19T10:08:22Z</time>
      </trkpt>
      <trkpt lat="42.64844" lon="1.68642">
        <ele>2260.344</ele>
        <time>2021-07-19T10:08:24Z</time>
      </trkpt>
      <trkpt lat="42.64843" lon="1.68642">
        <ele>2260.363</ele>
        <time>2021-07-19T10:08:26Z</time>
      </trkpt>
      <trkpt lat="42.64841" lon="1.68641">
        <ele>2260.85</ele>
        <time>2021-07-19T10:08:28Z</time>
      </trkpt>
      <trkpt lat="42.6484" lon="1.68639">
        <ele>2261.213</ele>
        <time>2021-07-19T10:08:30Z</time>
      </trkpt>
      <trkpt lat="42.6484" lon="1.68637">
        <ele>2260.934</ele>
        <time>2021-07-19T10:08:32Z</time>
      </trkpt>
      <trkpt lat="42.64839" lon="1.68635">
        <ele>2260.978</ele>
        <time>2021-07-19T10:08:34Z</time>
      </trkpt>
      <trkpt lat="42.64839" lon="1.68633">
        <ele>2260.168</ele>
        <time>2021-07-19T10:08:36Z</time>
      </trkpt>
      <trkpt lat="42.64839" lon="1.68632">
        <ele>2260.478</ele>
        <time>2021-07-19T10:08:38Z</time>
      </trkpt>
      <trkpt lat="42.64839" lon="1.68631">
        <ele>2260.268</ele>
        <time>2021-07-19T10:08:40Z</time>
      </trkpt>
      <trkpt lat="42.6484" lon="1.68632">
        <ele>2260.257</ele>
        <time>2021-07-19T10:08:42Z</time>
      </trkpt>
      <trkpt lat="42.6484" lon="1.68632">
        <ele>2260.252</ele>
        <time>2021-07-19T10:08:44Z</time>
      </trkpt>
      <trkpt lat="42.64839" lon="1.6863">
        <ele>2259.74</ele>
        <time>2021-07-19T10:08:46Z</time>
      </trkpt>
      <trkpt lat="42.64838" lon="1.68628">
        <ele>2259.949</ele>
        <time>2021-07-19T10:08:48Z</time>
      </trkpt>
      <trkpt lat="42.64837" lon="1.68627">
        <ele>2260.648</ele>
        <time>2021-07-19T10:08:50Z</time>
      </trkpt>
      <trkpt lat="42.64836" lon="1.68626">
        <ele>2261.238</ele>
        <time>2021-07-19T10:08:52Z</time>
      </trkpt>
      <trkpt lat="42.64836" lon="1.68626">
        <ele>2261.241</ele>
        <time>2021-07-19T10:08:54Z</time>
      </trkpt>
      <trkpt lat="42.64836" lon="1.68626">
        <ele>2261.24</ele>
        <time>2021-07-19T10:08:56Z</time>
      </trkpt>
      <trkpt lat="42.64836" lon="1.68626">
        <ele>2261.242</ele>
        <time>2021-07-19T10:08:58Z</time>
      </trkpt>
      <trkpt lat="42.64836" lon="1.68626">
        <ele>2261.234</ele>
        <time>2021-07-19T10:09:00Z</time>
      </trkpt>
      <trkpt lat="42.64836" lon="1.68626">
        <ele>2261.233</ele>
        <time>2021-07-19T10:09:02Z</time>
      </trkpt>
      <trkpt lat="42.64836" lon="1.68626">
        <ele>2261.229</ele>
        <time>2021-07-19T10:09:04Z</time>
      </trkpt>
      <trkpt lat="42.64836" lon="1.68626">
        <ele>2261.222</ele>
        <time>2021-07-19T10:09:06Z</time>
      </trkpt>
      <trkpt lat="42.64836" lon="1.68626">
        <ele>2261.221</ele>
        <time>2021-07-19T10:09:08Z</time>
      </trkpt>
      <trkpt lat="42.64836" lon="1.68626">
        <ele>2261.212</ele>
        <time>2021-07-19T10:09:10Z</time>
      </trkpt>
      <trkpt lat="42.64836" lon="1.68626">
        <ele>2261.218</ele>
        <time>2021-07-19T10:09:12Z</time>
      </trkpt>
      <trkpt lat="42.64836" lon="1.68626">
        <ele>2261.21</ele>
        <time>2021-07-19T10:09:14Z</time>
      </trkpt>
      <trkpt lat="42.64836" lon="1.68626">
        <ele>2261.206</ele>
        <time>2021-07-19T10:09:16Z</time>
      </trkpt>
      <trkpt lat="42.64836" lon="1.68626">
        <ele>2261.207</ele>
        <time>2021-07-19T10:09:18Z</time>
      </trkpt>
      <trkpt lat="42.64836" lon="1.68626">
        <ele>2261.213</ele>
        <time>2021-07-19T10:09:20Z</time>
      </trkpt>
      <trkpt lat="42.64836" lon="1.68626">
        <ele>2261.213</ele>
        <time>2021-07-19T10:09:22Z</time>
      </trkpt>
      <trkpt lat="42.64835" lon="1.68625">
        <ele>2261.286</ele>
        <time>2021-07-19T10:09:24Z</time>
      </trkpt>
      <trkpt lat="42.64834" lon="1.68623">
        <ele>2262.603</ele>
        <time>2021-07-19T10:09:26Z</time>
      </trkpt>
      <trkpt lat="42.64833" lon="1.68621">
        <ele>2261.927</ele>
        <time>2021-07-19T10:09:28Z</time>
      </trkpt>
      <trkpt lat="42.64833" lon="1.6862">
        <ele>2261.359</ele>
        <time>2021-07-19T10:09:30Z</time>
      </trkpt>
      <trkpt lat="42.64832" lon="1.68619">
        <ele>2261.452</ele>
        <time>2021-07-19T10:09:32Z</time>
      </trkpt>
      <trkpt lat="42.64832" lon="1.68619">
        <ele>2261.44</ele>
        <time>2021-07-19T10:09:34Z</time>
      </trkpt>
      <trkpt lat="42.64832" lon="1.68619">
        <ele>2261.437</ele>
        <time>2021-07-19T10:09:36Z</time>
      </trkpt>
      <trkpt lat="42.64832" lon="1.68619">
        <ele>2261.435</ele>
        <time>2021-07-19T10:09:38Z</time>
      </trkpt>
      <trkpt lat="42.64832" lon="1.68619">
        <ele>2261.135</ele>
        <time>2021-07-19T10:09:40Z</time>
      </trkpt>
      <trkpt lat="42.64831" lon="1.68618">
        <ele>2261.158</ele>
        <time>2021-07-19T10:09:42Z</time>
      </trkpt>
      <trkpt lat="42.6483" lon="1.68617">
        <ele>2261.249</ele>
        <time>2021-07-19T10:09:44Z</time>
      </trkpt>
      <trkpt lat="42.6483" lon="1.68616">
        <ele>2261.622</ele>
        <time>2021-07-19T10:09:46Z</time>
      </trkpt>
      <trkpt lat="42.6483" lon="1.68615">
        <ele>2262.132</ele>
        <time>2021-07-19T10:09:48Z</time>
      </trkpt>
      <trkpt lat="42.64829" lon="1.68613">
        <ele>2262.121</ele>
        <time>2021-07-19T10:09:50Z</time>
      </trkpt>
      <trkpt lat="42.64828" lon="1.68611">
        <ele>2262.053</ele>
        <time>2021-07-19T10:09:52Z</time>
      </trkpt>
      <trkpt lat="42.64827" lon="1.68609">
        <ele>2262.98</ele>
        <time>2021-07-19T10:09:54Z</time>
      </trkpt>
      <trkpt lat="42.64826" lon="1.68608">
        <ele>2263.404</ele>
        <time>2021-07-19T10:09:56Z</time>
      </trkpt>
      <trkpt lat="42.64826" lon="1.68607">
        <ele>2263.538</ele>
        <time>2021-07-19T10:09:58Z</time>
      </trkpt>
      <trkpt lat="42.64825" lon="1.68606">
        <ele>2264.19</ele>
        <time>2021-07-19T10:10:00Z</time>
      </trkpt>
      <trkpt lat="42.64824" lon="1.68604">
        <ele>2264.674</ele>
        <time>2021-07-19T10:10:02Z</time>
      </trkpt>
      <trkpt lat="42.64823" lon="1.68604">
        <ele>2264.851</ele>
        <time>2021-07-19T10:10:04Z</time>
      </trkpt>
      <trkpt lat="42.64823" lon="1.68603">
        <ele>2264.732</ele>
        <time>2021-07-19T10:10:06Z</time>
      </trkpt>
      <trkpt lat="42.64822" lon="1.68603">
        <ele>2264.238</ele>
        <time>2021-07-19T10:10:08Z</time>
      </trkpt>
      <trkpt lat="42.64821" lon="1.68601">
        <ele>2265.332</ele>
        <time>2021-07-19T10:10:10Z</time>
      </trkpt>
      <trkpt lat="42.64821" lon="1.686">
        <ele>2265.769</ele>
        <time>2021-07-19T10:10:12Z</time>
      </trkpt>
      <trkpt lat="42.64819" lon="1.68599">
        <ele>2266.32</ele>
        <time>2021-07-19T10:10:14Z</time>
      </trkpt>
      <trkpt lat="42.64818" lon="1.686">
        <ele>2265.956</ele>
        <time>2021-07-19T10:10:16Z</time>
      </trkpt>
      <trkpt lat="42.64817" lon="1.686">
        <ele>2265.956</ele>
        <time>2021-07-19T10:10:18Z</time>
      </trkpt>
      <trkpt lat="42.64816" lon="1.68599">
        <ele>2267.246</ele>
        <time>2021-07-19T10:10:20Z</time>
      </trkpt>
      <trkpt lat="42.64816" lon="1.68599">
        <ele>2267.069</ele>
        <time>2021-07-19T10:10:22Z</time>
      </trkpt>
      <trkpt lat="42.64815" lon="1.68598">
        <ele>2266.296</ele>
        <time>2021-07-19T10:10:24Z</time>
      </trkpt>
      <trkpt lat="42.64814" lon="1.68598">
        <ele>2266.301</ele>
        <time>2021-07-19T10:10:26Z</time>
      </trkpt>
      <trkpt lat="42.64814" lon="1.68598">
        <ele>2266.306</ele>
        <time>2021-07-19T10:10:28Z</time>
      </trkpt>
      <trkpt lat="42.64814" lon="1.68598">
        <ele>2266.52</ele>
        <time>2021-07-19T10:10:30Z</time>
      </trkpt>
      <trkpt lat="42.64813" lon="1.68597">
        <ele>2266.934</ele>
        <time>2021-07-19T10:10:32Z</time>
      </trkpt>
      <trkpt lat="42.64813" lon="1.68595">
        <ele>2266.821</ele>
        <time>2021-07-19T10:10:34Z</time>
      </trkpt>
      <trkpt lat="42.64812" lon="1.68593">
        <ele>2268.706</ele>
        <time>2021-07-19T10:10:36Z</time>
      </trkpt>
      <trkpt lat="42.64811" lon="1.68591">
        <ele>2269.037</ele>
        <time>2021-07-19T10:10:38Z</time>
      </trkpt>
      <trkpt lat="42.64811" lon="1.6859">
        <ele>2268.953</ele>
        <time>2021-07-19T10:10:40Z</time>
      </trkpt>
      <trkpt lat="42.6481" lon="1.6859">
        <ele>2269.049</ele>
        <time>2021-07-19T10:10:42Z</time>
      </trkpt>
      <trkpt lat="42.64809" lon="1.68589">
        <ele>2268.999</ele>
        <time>2021-07-19T10:10:44Z</time>
      </trkpt>
      <trkpt lat="42.64809" lon="1.68589">
        <ele>2268.837</ele>
        <time>2021-07-19T10:10:46Z</time>
      </trkpt>
      <trkpt lat="42.64809" lon="1.68589">
        <ele>2268.677</ele>
        <time>2021-07-19T10:10:48Z</time>
      </trkpt>
      <trkpt lat="42.64808" lon="1.68588">
        <ele>2268.861</ele>
        <time>2021-07-19T10:10:50Z</time>
      </trkpt>
      <trkpt lat="42.64808" lon="1.68588">
        <ele>2268.865</ele>
        <time>2021-07-19T10:10:52Z</time>
      </trkpt>
      <trkpt lat="42.64808" lon="1.68587">
        <ele>2269.685</ele>
        <time>2021-07-19T10:10:54Z</time>
      </trkpt>
      <trkpt lat="42.64808" lon="1.68587">
        <ele>2269.672</ele>
        <time>2021-07-19T10:10:56Z</time>
      </trkpt>
      <trkpt lat="42.64807" lon="1.68587">
        <ele>2269.613</ele>
        <time>2021-07-19T10:10:58Z</time>
      </trkpt>
      <trkpt lat="42.64807" lon="1.68587">
        <ele>2269.63</ele>
        <time>2021-07-19T10:11:00Z</time>
      </trkpt>
      <trkpt lat="42.64807" lon="1.68586">
        <ele>2269.712</ele>
        <time>2021-07-19T10:11:02Z</time>
      </trkpt>
      <trkpt lat="42.64806" lon="1.68585">
        <ele>2269.735</ele>
        <time>2021-07-19T10:11:04Z</time>
      </trkpt>
      <trkpt lat="42.64806" lon="1.68584">
        <ele>2270.208</ele>
        <time>2021-07-19T10:11:06Z</time>
      </trkpt>
      <trkpt lat="42.64805" lon="1.68582">
        <ele>2270.999</ele>
        <time>2021-07-19T10:11:08Z</time>
      </trkpt>
      <trkpt lat="42.64804" lon="1.68581">
        <ele>2271.534</ele>
        <time>2021-07-19T10:11:10Z</time>
      </trkpt>
      <trkpt lat="42.64804" lon="1.68579">
        <ele>2272.469</ele>
        <time>2021-07-19T10:11:12Z</time>
      </trkpt>
      <trkpt lat="42.64803" lon="1.68579">
        <ele>2273.214</ele>
        <time>2021-07-19T10:11:14Z</time>
      </trkpt>
      <trkpt lat="42.64802" lon="1.68579">
        <ele>2274.088</ele>
        <time>2021-07-19T10:11:16Z</time>
      </trkpt>
      <trkpt lat="42.64801" lon="1.68578">
        <ele>2274.715</ele>
        <time>2021-07-19T10:11:18Z</time>
      </trkpt>
      <trkpt lat="42.648" lon="1.68578">
        <ele>2274.772</ele>
        <time>2021-07-19T10:11:20Z</time>
      </trkpt>
      <trkpt lat="42.648" lon="1.68578">
        <ele>2275.212</ele>
        <time>2021-07-19T10:11:22Z</time>
      </trkpt>
      <trkpt lat="42.64799" lon="1.68577">
        <ele>2275.669</ele>
        <time>2021-07-19T10:11:24Z</time>
      </trkpt>
      <trkpt lat="42.64798" lon="1.68577">
        <ele>2276.817</ele>
        <time>2021-07-19T10:11:26Z</time>
      </trkpt>
      <trkpt lat="42.64797" lon="1.68576">
        <ele>2277.437</ele>
        <time>2021-07-19T10:11:28Z</time>
      </trkpt>
      <trkpt lat="42.64796" lon="1.68574">
        <ele>2278.177</ele>
        <time>2021-07-19T10:11:30Z</time>
      </trkpt>
      <trkpt lat="42.64795" lon="1.68573">
        <ele>2279.531</ele>
        <time>2021-07-19T10:11:32Z</time>
      </trkpt>
      <trkpt lat="42.64795" lon="1.68572">
        <ele>2279.789</ele>
        <time>2021-07-19T10:11:34Z</time>
      </trkpt>
      <trkpt lat="42.64794" lon="1.68571">
        <ele>2280.126</ele>
        <time>2021-07-19T10:11:36Z</time>
      </trkpt>
      <trkpt lat="42.64794" lon="1.68571">
        <ele>2280.133</ele>
        <time>2021-07-19T10:11:38Z</time>
      </trkpt>
      <trkpt lat="42.64795" lon="1.68571">
        <ele>2280.134</ele>
        <time>2021-07-19T10:11:40Z</time>
      </trkpt>
      <trkpt lat="42.64795" lon="1.6857">
        <ele>2280.198</ele>
        <time>2021-07-19T10:11:42Z</time>
      </trkpt>
      <trkpt lat="42.64794" lon="1.68569">
        <ele>2279.847</ele>
        <time>2021-07-19T10:11:44Z</time>
      </trkpt>
      <trkpt lat="42.64794" lon="1.68568">
        <ele>2280.058</ele>
        <time>2021-07-19T10:11:46Z</time>
      </trkpt>
      <trkpt lat="42.64794" lon="1.68567">
        <ele>2279.973</ele>
        <time>2021-07-19T10:11:48Z</time>
      </trkpt>
      <trkpt lat="42.64794" lon="1.68567">
        <ele>2279.98</ele>
        <time>2021-07-19T10:11:50Z</time>
      </trkpt>
      <trkpt lat="42.64794" lon="1.68567">
        <ele>2279.986</ele>
        <time>2021-07-19T10:11:52Z</time>
      </trkpt>
      <trkpt lat="42.64794" lon="1.68566">
        <ele>2279.901</ele>
        <time>2021-07-19T10:11:54Z</time>
      </trkpt>
      <trkpt lat="42.64794" lon="1.68566">
        <ele>2279.93</ele>
        <time>2021-07-19T10:11:56Z</time>
      </trkpt>
      <trkpt lat="42.64794" lon="1.68566">
        <ele>2279.92</ele>
        <time>2021-07-19T10:11:58Z</time>
      </trkpt>
      <trkpt lat="42.64794" lon="1.68566">
        <ele>2279.901</ele>
        <time>2021-07-19T10:12:00Z</time>
      </trkpt>
      <trkpt lat="42.64794" lon="1.68566">
        <ele>2279.882</ele>
        <time>2021-07-19T10:12:02Z</time>
      </trkpt>
      <trkpt lat="42.64794" lon="1.68566">
        <ele>2279.886</ele>
        <time>2021-07-19T10:12:04Z</time>
      </trkpt>
      <trkpt lat="42.64794" lon="1.68566">
        <ele>2279.889</ele>
        <time>2021-07-19T10:12:06Z</time>
      </trkpt>
      <trkpt lat="42.64794" lon="1.68566">
        <ele>2279.907</ele>
        <time>2021-07-19T10:12:08Z</time>
      </trkpt>
      <trkpt lat="42.64794" lon="1.68566">
        <ele>2279.887</ele>
        <time>2021-07-19T10:12:10Z</time>
      </trkpt>
      <trkpt lat="42.64794" lon="1.68567">
        <ele>2279.895</ele>
        <time>2021-07-19T10:12:12Z</time>
      </trkpt>
      <trkpt lat="42.64794" lon="1.68567">
        <ele>2279.895</ele>
        <time>2021-07-19T10:12:14Z</time>
      </trkpt>
      <trkpt lat="42.64794" lon="1.68567">
        <ele>2279.898</ele>
        <time>2021-07-19T10:12:16Z</time>
      </trkpt>
      <trkpt lat="42.64794" lon="1.68567">
        <ele>2279.9</ele>
        <time>2021-07-19T10:12:18Z</time>
      </trkpt>
      <trkpt lat="42.64794" lon="1.68567">
        <ele>2279.9</ele>
        <time>2021-07-19T10:12:20Z</time>
      </trkpt>
      <trkpt lat="42.64794" lon="1.68567">
        <ele>2279.892</ele>
        <time>2021-07-19T10:12:22Z</time>
      </trkpt>
      <trkpt lat="42.64794" lon="1.68567">
        <ele>2279.893</ele>
        <time>2021-07-19T10:12:24Z</time>
      </trkpt>
      <trkpt lat="42.64794" lon="1.68567">
        <ele>2280.195</ele>
        <time>2021-07-19T10:12:26Z</time>
      </trkpt>
      <trkpt lat="42.64794" lon="1.68567">
        <ele>2280.201</ele>
        <time>2021-07-19T10:12:28Z</time>
      </trkpt>
      <trkpt lat="42.64794" lon="1.68567">
        <ele>2280.196</ele>
        <time>2021-07-19T10:12:30Z</time>
      </trkpt>
      <trkpt lat="42.64794" lon="1.68567">
        <ele>2280.272</ele>
        <time>2021-07-19T10:12:32Z</time>
      </trkpt>
      <trkpt lat="42.64794" lon="1.68566">
        <ele>2280.27</ele>
        <time>2021-07-19T10:12:34Z</time>
      </trkpt>
      <trkpt lat="42.64794" lon="1.68566">
        <ele>2280.262</ele>
        <time>2021-07-19T10:12:36Z</time>
      </trkpt>
      <trkpt lat="42.64794" lon="1.68566">
        <ele>2280.363</ele>
        <time>2021-07-19T10:12:38Z</time>
      </trkpt>
      <trkpt lat="42.64794" lon="1.68566">
        <ele>2280.269</ele>
        <time>2021-07-19T10:12:40Z</time>
      </trkpt>
      <trkpt lat="42.64795" lon="1.68567">
        <ele>2281.187</ele>
        <time>2021-07-19T10:12:42Z</time>
      </trkpt>
      <trkpt lat="42.64794" lon="1.68567">
        <ele>2281.501</ele>
        <time>2021-07-19T10:12:44Z</time>
      </trkpt>
      <trkpt lat="42.64794" lon="1.68568">
        <ele>2281.366</ele>
        <time>2021-07-19T10:12:46Z</time>
      </trkpt>
      <trkpt lat="42.64794" lon="1.68567">
        <ele>2281.713</ele>
        <time>2021-07-19T10:12:48Z</time>
      </trkpt>
      <trkpt lat="42.64794" lon="1.68567">
        <ele>2281.362</ele>
        <time>2021-07-19T10:12:50Z</time>
      </trkpt>
      <trkpt lat="42.64794" lon="1.68566">
        <ele>2281.392</ele>
        <time>2021-07-19T10:12:52Z</time>
      </trkpt>
      <trkpt lat="42.64793" lon="1.68564">
        <ele>2281.889</ele>
        <time>2021-07-19T10:12:54Z</time>
      </trkpt>
      <trkpt lat="42.64792" lon="1.68563">
        <ele>2282.505</ele>
        <time>2021-07-19T10:12:56Z</time>
      </trkpt>
      <trkpt lat="42.64792" lon="1.68562">
        <ele>2283.162</ele>
        <time>2021-07-19T10:12:58Z</time>
      </trkpt>
      <trkpt lat="42.64791" lon="1.6856">
        <ele>2283.196</ele>
        <time>2021-07-19T10:13:00Z</time>
      </trkpt>
      <trkpt lat="42.6479" lon="1.68558">
        <ele>2283.404</ele>
        <time>2021-07-19T10:13:02Z</time>
      </trkpt>
      <trkpt lat="42.6479" lon="1.68557">
        <ele>2284.05</ele>
        <time>2021-07-19T10:13:04Z</time>
      </trkpt>
      <trkpt lat="42.64789" lon="1.68555">
        <ele>2284.552</ele>
        <time>2021-07-19T10:13:06Z</time>
      </trkpt>
      <trkpt lat="42.64788" lon="1.68554">
        <ele>2285.382</ele>
        <time>2021-07-19T10:13:08Z</time>
      </trkpt>
      <trkpt lat="42.64786" lon="1.68552">
        <ele>2286.118</ele>
        <time>2021-07-19T10:13:10Z</time>
      </trkpt>
      <trkpt lat="42.64784" lon="1.68552">
        <ele>2286.282</ele>
        <time>2021-07-19T10:13:12Z</time>
      </trkpt>
      <trkpt lat="42.64783" lon="1.68551">
        <ele>2286.816</ele>
        <time>2021-07-19T10:13:14Z</time>
      </trkpt>
      <trkpt lat="42.64782" lon="1.6855">
        <ele>2287.187</ele>
        <time>2021-07-19T10:13:16Z</time>
      </trkpt>
      <trkpt lat="42.64781" lon="1.68549">
        <ele>2287.518</ele>
        <time>2021-07-19T10:13:18Z</time>
      </trkpt>
      <trkpt lat="42.6478" lon="1.68548">
        <ele>2287.412</ele>
        <time>2021-07-19T10:13:20Z</time>
      </trkpt>
      <trkpt lat="42.64779" lon="1.68546">
        <ele>2287.695</ele>
        <time>2021-07-19T10:13:22Z</time>
      </trkpt>
      <trkpt lat="42.64779" lon="1.68544">
        <ele>2287.821</ele>
        <time>2021-07-19T10:13:24Z</time>
      </trkpt>
      <trkpt lat="42.64777" lon="1.68543">
        <ele>2287.914</ele>
        <time>2021-07-19T10:13:26Z</time>
      </trkpt>
      <trkpt lat="42.64776" lon="1.68542">
        <ele>2288.379</ele>
        <time>2021-07-19T10:13:28Z</time>
      </trkpt>
      <trkpt lat="42.64775" lon="1.6854">
        <ele>2289.015</ele>
        <time>2021-07-19T10:13:30Z</time>
      </trkpt>
      <trkpt lat="42.64774" lon="1.68539">
        <ele>2288.135</ele>
        <time>2021-07-19T10:13:32Z</time>
      </trkpt>
      <trkpt lat="42.64773" lon="1.68539">
        <ele>2288.182</ele>
        <time>2021-07-19T10:13:34Z</time>
      </trkpt>
      <trkpt lat="42.64773" lon="1.68539">
        <ele>2288.19</ele>
        <time>2021-07-19T10:13:36Z</time>
      </trkpt>
      <trkpt lat="42.64773" lon="1.68539">
        <ele>2288.266</ele>
        <time>2021-07-19T10:13:38Z</time>
      </trkpt>
      <trkpt lat="42.64773" lon="1.68538">
        <ele>2288.514</ele>
        <time>2021-07-19T10:13:40Z</time>
      </trkpt>
      <trkpt lat="42.64772" lon="1.68537">
        <ele>2288.546</ele>
        <time>2021-07-19T10:13:42Z</time>
      </trkpt>
      <trkpt lat="42.64772" lon="1.68537">
        <ele>2288.761</ele>
        <time>2021-07-19T10:13:44Z</time>
      </trkpt>
      <trkpt lat="42.64772" lon="1.68537">
        <ele>2288.557</ele>
        <time>2021-07-19T10:13:46Z</time>
      </trkpt>
      <trkpt lat="42.64772" lon="1.68538">
        <ele>2288.204</ele>
        <time>2021-07-19T10:13:48Z</time>
      </trkpt>
      <trkpt lat="42.64772" lon="1.68538">
        <ele>2288.303</ele>
        <time>2021-07-19T10:13:50Z</time>
      </trkpt>
      <trkpt lat="42.64772" lon="1.68538">
        <ele>2288.497</ele>
        <time>2021-07-19T10:13:52Z</time>
      </trkpt>
      <trkpt lat="42.64772" lon="1.68537">
        <ele>2288.86</ele>
        <time>2021-07-19T10:13:54Z</time>
      </trkpt>
      <trkpt lat="42.64771" lon="1.68534">
        <ele>2289.894</ele>
        <time>2021-07-19T10:13:56Z</time>
      </trkpt>
      <trkpt lat="42.64771" lon="1.68534">
        <ele>2289.782</ele>
        <time>2021-07-19T10:13:58Z</time>
      </trkpt>
      <trkpt lat="42.64771" lon="1.68532">
        <ele>2289.887</ele>
        <time>2021-07-19T10:14:00Z</time>
      </trkpt>
      <trkpt lat="42.6477" lon="1.68531">
        <ele>2290.234</ele>
        <time>2021-07-19T10:14:02Z</time>
      </trkpt>
      <trkpt lat="42.64769" lon="1.6853">
        <ele>2290.302</ele>
        <time>2021-07-19T10:14:04Z</time>
      </trkpt>
      <trkpt lat="42.64768" lon="1.68529">
        <ele>2290.724</ele>
        <time>2021-07-19T10:14:06Z</time>
      </trkpt>
      <trkpt lat="42.64767" lon="1.68528">
        <ele>2290.95</ele>
        <time>2021-07-19T10:14:08Z</time>
      </trkpt>
      <trkpt lat="42.64766" lon="1.68527">
        <ele>2291.544</ele>
        <time>2021-07-19T10:14:10Z</time>
      </trkpt>
      <trkpt lat="42.64765" lon="1.68526">
        <ele>2292.78</ele>
        <time>2021-07-19T10:14:12Z</time>
      </trkpt>
      <trkpt lat="42.64763" lon="1.68524">
        <ele>2293.744</ele>
        <time>2021-07-19T10:14:14Z</time>
      </trkpt>
      <trkpt lat="42.64763" lon="1.68523">
        <ele>2293.791</ele>
        <time>2021-07-19T10:14:16Z</time>
      </trkpt>
      <trkpt lat="42.64762" lon="1.68523">
        <ele>2294.085</ele>
        <time>2021-07-19T10:14:18Z</time>
      </trkpt>
      <trkpt lat="42.64761" lon="1.68522">
        <ele>2293.927</ele>
        <time>2021-07-19T10:14:20Z</time>
      </trkpt>
      <trkpt lat="42.64761" lon="1.68521">
        <ele>2293.966</ele>
        <time>2021-07-19T10:14:22Z</time>
      </trkpt>
      <trkpt lat="42.64761" lon="1.68521">
        <ele>2293.9</ele>
        <time>2021-07-19T10:14:24Z</time>
      </trkpt>
      <trkpt lat="42.64761" lon="1.6852">
        <ele>2294.297</ele>
        <time>2021-07-19T10:14:26Z</time>
      </trkpt>
      <trkpt lat="42.64759" lon="1.68519">
        <ele>2294.423</ele>
        <time>2021-07-19T10:14:28Z</time>
      </trkpt>
      <trkpt lat="42.64759" lon="1.68519">
        <ele>2294.272</ele>
        <time>2021-07-19T10:14:30Z</time>
      </trkpt>
      <trkpt lat="42.64758" lon="1.68519">
        <ele>2294.279</ele>
        <time>2021-07-19T10:14:32Z</time>
      </trkpt>
      <trkpt lat="42.64757" lon="1.68519">
        <ele>2294.547</ele>
        <time>2021-07-19T10:14:34Z</time>
      </trkpt>
      <trkpt lat="42.64757" lon="1.68519">
        <ele>2294.472</ele>
        <time>2021-07-19T10:14:36Z</time>
      </trkpt>
      <trkpt lat="42.64756" lon="1.68518">
        <ele>2295.412</ele>
        <time>2021-07-19T10:14:38Z</time>
      </trkpt>
      <trkpt lat="42.64755" lon="1.68517">
        <ele>2295.598</ele>
        <time>2021-07-19T10:14:40Z</time>
      </trkpt>
      <trkpt lat="42.64754" lon="1.68515">
        <ele>2295.953</ele>
        <time>2021-07-19T10:14:42Z</time>
      </trkpt>
      <trkpt lat="42.64753" lon="1.68514">
        <ele>2295.867</ele>
        <time>2021-07-19T10:14:44Z</time>
      </trkpt>
      <trkpt lat="42.64752" lon="1.68514">
        <ele>2295.466</ele>
        <time>2021-07-19T10:14:46Z</time>
      </trkpt>
      <trkpt lat="42.64751" lon="1.68514">
        <ele>2295.782</ele>
        <time>2021-07-19T10:14:48Z</time>
      </trkpt>
      <trkpt lat="42.64751" lon="1.68513">
        <ele>2295.999</ele>
        <time>2021-07-19T10:14:50Z</time>
      </trkpt>
      <trkpt lat="42.6475" lon="1.68513">
        <ele>2295.783</ele>
        <time>2021-07-19T10:14:52Z</time>
      </trkpt>
      <trkpt lat="42.64748" lon="1.68513">
        <ele>2296.32</ele>
        <time>2021-07-19T10:14:54Z</time>
      </trkpt>
      <trkpt lat="42.64748" lon="1.68513">
        <ele>2296.109</ele>
        <time>2021-07-19T10:14:56Z</time>
      </trkpt>
      <trkpt lat="42.64747" lon="1.68513">
        <ele>2296.338</ele>
        <time>2021-07-19T10:14:58Z</time>
      </trkpt>
      <trkpt lat="42.64747" lon="1.68512">
        <ele>2297.146</ele>
        <time>2021-07-19T10:15:00Z</time>
      </trkpt>
      <trkpt lat="42.64747" lon="1.68512">
        <ele>2297.151</ele>
        <time>2021-07-19T10:15:02Z</time>
      </trkpt>
      <trkpt lat="42.64747" lon="1.68512">
        <ele>2297.517</ele>
        <time>2021-07-19T10:15:04Z</time>
      </trkpt>
      <trkpt lat="42.64746" lon="1.68512">
        <ele>2298.688</ele>
        <time>2021-07-19T10:15:06Z</time>
      </trkpt>
      <trkpt lat="42.64746" lon="1.68511">
        <ele>2299.75</ele>
        <time>2021-07-19T10:15:08Z</time>
      </trkpt>
      <trkpt lat="42.64745" lon="1.6851">
        <ele>2299.875</ele>
        <time>2021-07-19T10:15:10Z</time>
      </trkpt>
      <trkpt lat="42.64744" lon="1.68509">
        <ele>2300.499</ele>
        <time>2021-07-19T10:15:12Z</time>
      </trkpt>
      <trkpt lat="42.64744" lon="1.68508">
        <ele>2300.536</ele>
        <time>2021-07-19T10:15:14Z</time>
      </trkpt>
      <trkpt lat="42.64743" lon="1.68507">
        <ele>2299.951</ele>
        <time>2021-07-19T10:15:16Z</time>
      </trkpt>
      <trkpt lat="42.64742" lon="1.68507">
        <ele>2300.361</ele>
        <time>2021-07-19T10:15:18Z</time>
      </trkpt>
      <trkpt lat="42.64741" lon="1.68506">
        <ele>2301.244</ele>
        <time>2021-07-19T10:15:20Z</time>
      </trkpt>
      <trkpt lat="42.6474" lon="1.68505">
        <ele>2301.77</ele>
        <time>2021-07-19T10:15:22Z</time>
      </trkpt>
      <trkpt lat="42.64739" lon="1.68504">
        <ele>2302.468</ele>
        <time>2021-07-19T10:15:24Z</time>
      </trkpt>
      <trkpt lat="42.64739" lon="1.68504">
        <ele>2302.42</ele>
        <time>2021-07-19T10:15:26Z</time>
      </trkpt>
      <trkpt lat="42.64738" lon="1.68504">
        <ele>2302.975</ele>
        <time>2021-07-19T10:15:28Z</time>
      </trkpt>
      <trkpt lat="42.64738" lon="1.68504">
        <ele>2302.986</ele>
        <time>2021-07-19T10:15:30Z</time>
      </trkpt>
      <trkpt lat="42.64738" lon="1.68504">
        <ele>2302.312</ele>
        <time>2021-07-19T10:15:32Z</time>
      </trkpt>
      <trkpt lat="42.64737" lon="1.68504">
        <ele>2303.5</ele>
        <time>2021-07-19T10:15:34Z</time>
      </trkpt>
      <trkpt lat="42.64737" lon="1.68503">
        <ele>2303.839</ele>
        <time>2021-07-19T10:15:36Z</time>
      </trkpt>
      <trkpt lat="42.64736" lon="1.68503">
        <ele>2303.455</ele>
        <time>2021-07-19T10:15:38Z</time>
      </trkpt>
      <trkpt lat="42.64734" lon="1.68502">
        <ele>2304.183</ele>
        <time>2021-07-19T10:15:40Z</time>
      </trkpt>
      <trkpt lat="42.64733" lon="1.68501">
        <ele>2305.524</ele>
        <time>2021-07-19T10:15:42Z</time>
      </trkpt>
      <trkpt lat="42.64732" lon="1.685">
        <ele>2305.663</ele>
        <time>2021-07-19T10:15:44Z</time>
      </trkpt>
      <trkpt lat="42.64732" lon="1.68499">
        <ele>2305.968</ele>
        <time>2021-07-19T10:15:46Z</time>
      </trkpt>
      <trkpt lat="42.64732" lon="1.68499">
        <ele>2305.968</ele>
        <time>2021-07-19T10:15:48Z</time>
      </trkpt>
      <trkpt lat="42.64732" lon="1.68499">
        <ele>2305.966</ele>
        <time>2021-07-19T10:15:50Z</time>
      </trkpt>
      <trkpt lat="42.64731" lon="1.68499">
        <ele>2306.065</ele>
        <time>2021-07-19T10:15:52Z</time>
      </trkpt>
      <trkpt lat="42.64731" lon="1.68499">
        <ele>2306.168</ele>
        <time>2021-07-19T10:15:54Z</time>
      </trkpt>
      <trkpt lat="42.64731" lon="1.68499">
        <ele>2306.173</ele>
        <time>2021-07-19T10:15:56Z</time>
      </trkpt>
      <trkpt lat="42.64731" lon="1.685">
        <ele>2306.104</ele>
        <time>2021-07-19T10:15:58Z</time>
      </trkpt>
      <trkpt lat="42.64731" lon="1.685">
        <ele>2306.107</ele>
        <time>2021-07-19T10:16:00Z</time>
      </trkpt>
      <trkpt lat="42.64731" lon="1.685">
        <ele>2306.1</ele>
        <time>2021-07-19T10:16:02Z</time>
      </trkpt>
      <trkpt lat="42.64731" lon="1.685">
        <ele>2306.099</ele>
        <time>2021-07-19T10:16:04Z</time>
      </trkpt>
      <trkpt lat="42.64731" lon="1.685">
        <ele>2306.091</ele>
        <time>2021-07-19T10:16:06Z</time>
      </trkpt>
      <trkpt lat="42.64731" lon="1.685">
        <ele>2305.576</ele>
        <time>2021-07-19T10:16:08Z</time>
      </trkpt>
      <trkpt lat="42.64731" lon="1.68501">
        <ele>2305.559</ele>
        <time>2021-07-19T10:16:10Z</time>
      </trkpt>
      <trkpt lat="42.64731" lon="1.68501">
        <ele>2305.557</ele>
        <time>2021-07-19T10:16:12Z</time>
      </trkpt>
      <trkpt lat="42.64731" lon="1.68501">
        <ele>2305.555</ele>
        <time>2021-07-19T10:16:14Z</time>
      </trkpt>
      <trkpt lat="42.64731" lon="1.68501">
        <ele>2305.554</ele>
        <time>2021-07-19T10:16:16Z</time>
      </trkpt>
      <trkpt lat="42.64731" lon="1.68501">
        <ele>2305.552</ele>
        <time>2021-07-19T10:16:18Z</time>
      </trkpt>
      <trkpt lat="42.64731" lon="1.68501">
        <ele>2305.63</ele>
        <time>2021-07-19T10:16:20Z</time>
      </trkpt>
      <trkpt lat="42.64731" lon="1.685">
        <ele>2305.645</ele>
        <time>2021-07-19T10:16:22Z</time>
      </trkpt>
      <trkpt lat="42.64729" lon="1.68499">
        <ele>2305.718</ele>
        <time>2021-07-19T10:16:24Z</time>
      </trkpt>
      <trkpt lat="42.64729" lon="1.68498">
        <ele>2306.257</ele>
        <time>2021-07-19T10:16:26Z</time>
      </trkpt>
      <trkpt lat="42.64728" lon="1.68497">
        <ele>2307.762</ele>
        <time>2021-07-19T10:16:28Z</time>
      </trkpt>
      <trkpt lat="42.64727" lon="1.68496">
        <ele>2307.61</ele>
        <time>2021-07-19T10:16:30Z</time>
      </trkpt>
      <trkpt lat="42.64725" lon="1.68496">
        <ele>2308.222</ele>
        <time>2021-07-19T10:16:32Z</time>
      </trkpt>
      <trkpt lat="42.64724" lon="1.68495">
        <ele>2308.541</ele>
        <time>2021-07-19T10:16:34Z</time>
      </trkpt>
      <trkpt lat="42.64724" lon="1.68494">
        <ele>2308.775</ele>
        <time>2021-07-19T10:16:36Z</time>
      </trkpt>
      <trkpt lat="42.64723" lon="1.68493">
        <ele>2308.876</ele>
        <time>2021-07-19T10:16:38Z</time>
      </trkpt>
      <trkpt lat="42.64722" lon="1.68492">
        <ele>2310.395</ele>
        <time>2021-07-19T10:16:40Z</time>
      </trkpt>
      <trkpt lat="42.64721" lon="1.68492">
        <ele>2310.299</ele>
        <time>2021-07-19T10:16:42Z</time>
      </trkpt>
      <trkpt lat="42.6472" lon="1.68491">
        <ele>2311.342</ele>
        <time>2021-07-19T10:16:44Z</time>
      </trkpt>
      <trkpt lat="42.6472" lon="1.68491">
        <ele>2311.199</ele>
        <time>2021-07-19T10:16:46Z</time>
      </trkpt>
      <trkpt lat="42.64718" lon="1.68491">
        <ele>2311.839</ele>
        <time>2021-07-19T10:16:48Z</time>
      </trkpt>
      <trkpt lat="42.64717" lon="1.6849">
        <ele>2311.389</ele>
        <time>2021-07-19T10:16:50Z</time>
      </trkpt>
      <trkpt lat="42.64716" lon="1.6849">
        <ele>2311.374</ele>
        <time>2021-07-19T10:16:52Z</time>
      </trkpt>
      <trkpt lat="42.64715" lon="1.68489">
        <ele>2312.106</ele>
        <time>2021-07-19T10:16:54Z</time>
      </trkpt>
      <trkpt lat="42.64714" lon="1.68488">
        <ele>2312.477</ele>
        <time>2021-07-19T10:16:56Z</time>
      </trkpt>
      <trkpt lat="42.64713" lon="1.68488">
        <ele>2312.565</ele>
        <time>2021-07-19T10:16:58Z</time>
      </trkpt>
      <trkpt lat="42.64712" lon="1.68488">
        <ele>2311.766</ele>
        <time>2021-07-19T10:17:00Z</time>
      </trkpt>
      <trkpt lat="42.64712" lon="1.68487">
        <ele>2311.921</ele>
        <time>2021-07-19T10:17:02Z</time>
      </trkpt>
      <trkpt lat="42.64711" lon="1.68487">
        <ele>2311.34</ele>
        <time>2021-07-19T10:17:04Z</time>
      </trkpt>
      <trkpt lat="42.6471" lon="1.68486">
        <ele>2312.072</ele>
        <time>2021-07-19T10:17:06Z</time>
      </trkpt>
      <trkpt lat="42.64709" lon="1.68485">
        <ele>2313.621</ele>
        <time>2021-07-19T10:17:08Z</time>
      </trkpt>
      <trkpt lat="42.64709" lon="1.68485">
        <ele>2313.755</ele>
        <time>2021-07-19T10:17:10Z</time>
      </trkpt>
      <trkpt lat="42.64708" lon="1.68484">
        <ele>2313.527</ele>
        <time>2021-07-19T10:17:12Z</time>
      </trkpt>
      <trkpt lat="42.64706" lon="1.68483">
        <ele>2315.346</ele>
        <time>2021-07-19T10:17:14Z</time>
      </trkpt>
      <trkpt lat="42.64705" lon="1.68482">
        <ele>2316.13</ele>
        <time>2021-07-19T10:17:16Z</time>
      </trkpt>
      <trkpt lat="42.64704" lon="1.68481">
        <ele>2316.157</ele>
        <time>2021-07-19T10:17:18Z</time>
      </trkpt>
      <trkpt lat="42.64703" lon="1.6848">
        <ele>2316.964</ele>
        <time>2021-07-19T10:17:20Z</time>
      </trkpt>
      <trkpt lat="42.64702" lon="1.68479">
        <ele>2317.342</ele>
        <time>2021-07-19T10:17:22Z</time>
      </trkpt>
      <trkpt lat="42.64702" lon="1.68479">
        <ele>2317.337</ele>
        <time>2021-07-19T10:17:24Z</time>
      </trkpt>
      <trkpt lat="42.64701" lon="1.68479">
        <ele>2317.153</ele>
        <time>2021-07-19T10:17:26Z</time>
      </trkpt>
      <trkpt lat="42.647" lon="1.68478">
        <ele>2317.269</ele>
        <time>2021-07-19T10:17:28Z</time>
      </trkpt>
      <trkpt lat="42.64699" lon="1.68477">
        <ele>2316.945</ele>
        <time>2021-07-19T10:17:30Z</time>
      </trkpt>
      <trkpt lat="42.64698" lon="1.68477">
        <ele>2316.872</ele>
        <time>2021-07-19T10:17:32Z</time>
      </trkpt>
      <trkpt lat="42.64697" lon="1.68475">
        <ele>2317.68</ele>
        <time>2021-07-19T10:17:34Z</time>
      </trkpt>
      <trkpt lat="42.64696" lon="1.68474">
        <ele>2318.519</ele>
        <time>2021-07-19T10:17:36Z</time>
      </trkpt>
      <trkpt lat="42.64695" lon="1.68473">
        <ele>2318.655</ele>
        <time>2021-07-19T10:17:38Z</time>
      </trkpt>
      <trkpt lat="42.64694" lon="1.68473">
        <ele>2318.573</ele>
        <time>2021-07-19T10:17:40Z</time>
      </trkpt>
      <trkpt lat="42.64694" lon="1.68473">
        <ele>2318.586</ele>
        <time>2021-07-19T10:17:42Z</time>
      </trkpt>
      <trkpt lat="42.64694" lon="1.68473">
        <ele>2318.606</ele>
        <time>2021-07-19T10:17:44Z</time>
      </trkpt>
      <trkpt lat="42.64694" lon="1.68473">
        <ele>2318.607</ele>
        <time>2021-07-19T10:17:46Z</time>
      </trkpt>
      <trkpt lat="42.64694" lon="1.68473">
        <ele>2318.605</ele>
        <time>2021-07-19T10:17:48Z</time>
      </trkpt>
      <trkpt lat="42.64694" lon="1.68473">
        <ele>2318.605</ele>
        <time>2021-07-19T10:17:50Z</time>
      </trkpt>
      <trkpt lat="42.64694" lon="1.68472">
        <ele>2318.423</ele>
        <time>2021-07-19T10:17:52Z</time>
      </trkpt>
      <trkpt lat="42.64693" lon="1.68472">
        <ele>2318.204</ele>
        <time>2021-07-19T10:17:54Z</time>
      </trkpt>
      <trkpt lat="42.64692" lon="1.68471">
        <ele>2318.424</ele>
        <time>2021-07-19T10:17:56Z</time>
      </trkpt>
      <trkpt lat="42.64691" lon="1.68471">
        <ele>2318.285</ele>
        <time>2021-07-19T10:17:58Z</time>
      </trkpt>
      <trkpt lat="42.6469" lon="1.68471">
        <ele>2318.493</ele>
        <time>2021-07-19T10:18:00Z</time>
      </trkpt>
      <trkpt lat="42.64688" lon="1.68471">
        <ele>2319.378</ele>
        <time>2021-07-19T10:18:02Z</time>
      </trkpt>
      <trkpt lat="42.64687" lon="1.68471">
        <ele>2319.595</ele>
        <time>2021-07-19T10:18:04Z</time>
      </trkpt>
      <trkpt lat="42.64686" lon="1.68471">
        <ele>2320.224</ele>
        <time>2021-07-19T10:18:06Z</time>
      </trkpt>
      <trkpt lat="42.64684" lon="1.68471">
        <ele>2320.415</ele>
        <time>2021-07-19T10:18:08Z</time>
      </trkpt>
      <trkpt lat="42.64683" lon="1.68471">
        <ele>2321.036</ele>
        <time>2021-07-19T10:18:10Z</time>
      </trkpt>
      <trkpt lat="42.64682" lon="1.68471">
        <ele>2321.461</ele>
        <time>2021-07-19T10:18:12Z</time>
      </trkpt>
      <trkpt lat="42.64682" lon="1.68471">
        <ele>2320.88</ele>
        <time>2021-07-19T10:18:14Z</time>
      </trkpt>
      <trkpt lat="42.64681" lon="1.68472">
        <ele>2320.408</ele>
        <time>2021-07-19T10:18:16Z</time>
      </trkpt>
      <trkpt lat="42.6468" lon="1.68471">
        <ele>2320.804</ele>
        <time>2021-07-19T10:18:18Z</time>
      </trkpt>
      <trkpt lat="42.64679" lon="1.6847">
        <ele>2320.939</ele>
        <time>2021-07-19T10:18:20Z</time>
      </trkpt>
      <trkpt lat="42.64678" lon="1.68469">
        <ele>2321.469</ele>
        <time>2021-07-19T10:18:22Z</time>
      </trkpt>
      <trkpt lat="42.64678" lon="1.68468">
        <ele>2322.234</ele>
        <time>2021-07-19T10:18:24Z</time>
      </trkpt>
      <trkpt lat="42.64677" lon="1.68468">
        <ele>2322.248</ele>
        <time>2021-07-19T10:18:26Z</time>
      </trkpt>
      <trkpt lat="42.64676" lon="1.68468">
        <ele>2322.415</ele>
        <time>2021-07-19T10:18:28Z</time>
      </trkpt>
      <trkpt lat="42.64676" lon="1.68468">
        <ele>2322.245</ele>
        <time>2021-07-19T10:18:30Z</time>
      </trkpt>
      <trkpt lat="42.64675" lon="1.68467">
        <ele>2322.163</ele>
        <time>2021-07-19T10:18:32Z</time>
      </trkpt>
      <trkpt lat="42.64675" lon="1.68467">
        <ele>2322.145</ele>
        <time>2021-07-19T10:18:34Z</time>
      </trkpt>
      <trkpt lat="42.64674" lon="1.68466">
        <ele>2322.11</ele>
        <time>2021-07-19T10:18:36Z</time>
      </trkpt>
      <trkpt lat="42.64674" lon="1.68466">
        <ele>2321.933</ele>
        <time>2021-07-19T10:18:38Z</time>
      </trkpt>
      <trkpt lat="42.64673" lon="1.68464">
        <ele>2323.091</ele>
        <time>2021-07-19T10:18:40Z</time>
      </trkpt>
      <trkpt lat="42.64672" lon="1.68463">
        <ele>2322.996</ele>
        <time>2021-07-19T10:18:42Z</time>
      </trkpt>
      <trkpt lat="42.64671" lon="1.68462">
        <ele>2324.381</ele>
        <time>2021-07-19T10:18:44Z</time>
      </trkpt>
      <trkpt lat="42.64671" lon="1.68461">
        <ele>2324.88</ele>
        <time>2021-07-19T10:18:46Z</time>
      </trkpt>
      <trkpt lat="42.64671" lon="1.6846">
        <ele>2325.344</ele>
        <time>2021-07-19T10:18:48Z</time>
      </trkpt>
      <trkpt lat="42.6467" lon="1.6846">
        <ele>2325.399</ele>
        <time>2021-07-19T10:18:50Z</time>
      </trkpt>
      <trkpt lat="42.64669" lon="1.6846">
        <ele>2325.283</ele>
        <time>2021-07-19T10:18:52Z</time>
      </trkpt>
      <trkpt lat="42.64668" lon="1.68459">
        <ele>2325.49</ele>
        <time>2021-07-19T10:18:54Z</time>
      </trkpt>
      <trkpt lat="42.64667" lon="1.68459">
        <ele>2324.983</ele>
        <time>2021-07-19T10:18:56Z</time>
      </trkpt>
      <trkpt lat="42.64666" lon="1.6846">
        <ele>2324.98</ele>
        <time>2021-07-19T10:18:58Z</time>
      </trkpt>
      <trkpt lat="42.64666" lon="1.6846">
        <ele>2325.341</ele>
        <time>2021-07-19T10:19:00Z</time>
      </trkpt>
      <trkpt lat="42.64665" lon="1.6846">
        <ele>2325.687</ele>
        <time>2021-07-19T10:19:02Z</time>
      </trkpt>
      <trkpt lat="42.64665" lon="1.68459">
        <ele>2325.636</ele>
        <time>2021-07-19T10:19:04Z</time>
      </trkpt>
      <trkpt lat="42.64664" lon="1.68459">
        <ele>2325.305</ele>
        <time>2021-07-19T10:19:06Z</time>
      </trkpt>
      <trkpt lat="42.64664" lon="1.68459">
        <ele>2325.177</ele>
        <time>2021-07-19T10:19:08Z</time>
      </trkpt>
      <trkpt lat="42.64664" lon="1.68458">
        <ele>2325.091</ele>
        <time>2021-07-19T10:19:10Z</time>
      </trkpt>
      <trkpt lat="42.64663" lon="1.68458">
        <ele>2324.684</ele>
        <time>2021-07-19T10:19:12Z</time>
      </trkpt>
      <trkpt lat="42.64663" lon="1.68458">
        <ele>2324.047</ele>
        <time>2021-07-19T10:19:14Z</time>
      </trkpt>
      <trkpt lat="42.64662" lon="1.68457">
        <ele>2324.31</ele>
        <time>2021-07-19T10:19:16Z</time>
      </trkpt>
      <trkpt lat="42.64661" lon="1.68456">
        <ele>2325.664</ele>
        <time>2021-07-19T10:19:18Z</time>
      </trkpt>
      <trkpt lat="42.6466" lon="1.68455">
        <ele>2326.093</ele>
        <time>2021-07-19T10:19:20Z</time>
      </trkpt>
      <trkpt lat="42.64659" lon="1.68454">
        <ele>2326.884</ele>
        <time>2021-07-19T10:19:22Z</time>
      </trkpt>
      <trkpt lat="42.64658" lon="1.68453">
        <ele>2328.854</ele>
        <time>2021-07-19T10:19:24Z</time>
      </trkpt>
      <trkpt lat="42.64657" lon="1.68451">
        <ele>2329.263</ele>
        <time>2021-07-19T10:19:26Z</time>
      </trkpt>
      <trkpt lat="42.64657" lon="1.68451">
        <ele>2329.057</ele>
        <time>2021-07-19T10:19:28Z</time>
      </trkpt>
      <trkpt lat="42.64657" lon="1.6845">
        <ele>2329.184</ele>
        <time>2021-07-19T10:19:30Z</time>
      </trkpt>
      <trkpt lat="42.64656" lon="1.68449">
        <ele>2329.327</ele>
        <time>2021-07-19T10:19:32Z</time>
      </trkpt>
      <trkpt lat="42.64655" lon="1.68448">
        <ele>2330.022</ele>
        <time>2021-07-19T10:19:34Z</time>
      </trkpt>
      <trkpt lat="42.64655" lon="1.68447">
        <ele>2330.46</ele>
        <time>2021-07-19T10:19:36Z</time>
      </trkpt>
      <trkpt lat="42.64655" lon="1.68447">
        <ele>2330.292</ele>
        <time>2021-07-19T10:19:38Z</time>
      </trkpt>
      <trkpt lat="42.64655" lon="1.68447">
        <ele>2330.313</ele>
        <time>2021-07-19T10:19:40Z</time>
      </trkpt>
      <trkpt lat="42.64655" lon="1.68446">
        <ele>2330.385</ele>
        <time>2021-07-19T10:19:42Z</time>
      </trkpt>
      <trkpt lat="42.64654" lon="1.68445">
        <ele>2331.238</ele>
        <time>2021-07-19T10:19:44Z</time>
      </trkpt>
      <trkpt lat="42.64653" lon="1.68445">
        <ele>2331.312</ele>
        <time>2021-07-19T10:19:46Z</time>
      </trkpt>
      <trkpt lat="42.64653" lon="1.68444">
        <ele>2331.609</ele>
        <time>2021-07-19T10:19:48Z</time>
      </trkpt>
      <trkpt lat="42.64653" lon="1.68443">
        <ele>2331.311</ele>
        <time>2021-07-19T10:19:50Z</time>
      </trkpt>
      <trkpt lat="42.64653" lon="1.68443">
        <ele>2332.017</ele>
        <time>2021-07-19T10:19:52Z</time>
      </trkpt>
      <trkpt lat="42.64653" lon="1.68442">
        <ele>2332.055</ele>
        <time>2021-07-19T10:19:54Z</time>
      </trkpt>
      <trkpt lat="42.64652" lon="1.68442">
        <ele>2332.198</ele>
        <time>2021-07-19T10:19:56Z</time>
      </trkpt>
      <trkpt lat="42.64652" lon="1.68441">
        <ele>2332.228</ele>
        <time>2021-07-19T10:19:58Z</time>
      </trkpt>
      <trkpt lat="42.64651" lon="1.6844">
        <ele>2332.115</ele>
        <time>2021-07-19T10:20:00Z</time>
      </trkpt>
      <trkpt lat="42.6465" lon="1.68439">
        <ele>2333.04</ele>
        <time>2021-07-19T10:20:02Z</time>
      </trkpt>
      <trkpt lat="42.64649" lon="1.68438">
        <ele>2333.189</ele>
        <time>2021-07-19T10:20:04Z</time>
      </trkpt>
      <trkpt lat="42.64649" lon="1.68438">
        <ele>2333.332</ele>
        <time>2021-07-19T10:20:06Z</time>
      </trkpt>
      <trkpt lat="42.64648" lon="1.68436">
        <ele>2334.372</ele>
        <time>2021-07-19T10:20:08Z</time>
      </trkpt>
      <trkpt lat="42.64646" lon="1.68436">
        <ele>2336.026</ele>
        <time>2021-07-19T10:20:10Z</time>
      </trkpt>
      <trkpt lat="42.64645" lon="1.68435">
        <ele>2336.907</ele>
        <time>2021-07-19T10:20:12Z</time>
      </trkpt>
      <trkpt lat="42.64644" lon="1.68435">
        <ele>2336.677</ele>
        <time>2021-07-19T10:20:14Z</time>
      </trkpt>
      <trkpt lat="42.64643" lon="1.68435">
        <ele>2337.256</ele>
        <time>2021-07-19T10:20:16Z</time>
      </trkpt>
      <trkpt lat="42.64642" lon="1.68434">
        <ele>2337.998</ele>
        <time>2021-07-19T10:20:18Z</time>
      </trkpt>
      <trkpt lat="42.64641" lon="1.68434">
        <ele>2338.676</ele>
        <time>2021-07-19T10:20:20Z</time>
      </trkpt>
      <trkpt lat="42.64641" lon="1.68434">
        <ele>2338.664</ele>
        <time>2021-07-19T10:20:22Z</time>
      </trkpt>
      <trkpt lat="42.64641" lon="1.68435">
        <ele>2338.93</ele>
        <time>2021-07-19T10:20:24Z</time>
      </trkpt>
      <trkpt lat="42.64639" lon="1.68434">
        <ele>2339.785</ele>
        <time>2021-07-19T10:20:26Z</time>
      </trkpt>
      <trkpt lat="42.64638" lon="1.68432">
        <ele>2340.943</ele>
        <time>2021-07-19T10:20:28Z</time>
      </trkpt>
      <trkpt lat="42.64638" lon="1.68432">
        <ele>2340.969</ele>
        <time>2021-07-19T10:20:30Z</time>
      </trkpt>
      <trkpt lat="42.64637" lon="1.68432">
        <ele>2341.142</ele>
        <time>2021-07-19T10:20:32Z</time>
      </trkpt>
      <trkpt lat="42.64636" lon="1.68432">
        <ele>2341.08</ele>
        <time>2021-07-19T10:20:34Z</time>
      </trkpt>
      <trkpt lat="42.64635" lon="1.68432">
        <ele>2341.065</ele>
        <time>2021-07-19T10:20:36Z</time>
      </trkpt>
      <trkpt lat="42.64635" lon="1.68431">
        <ele>2341.843</ele>
        <time>2021-07-19T10:20:38Z</time>
      </trkpt>
      <trkpt lat="42.64634" lon="1.68431">
        <ele>2342.581</ele>
        <time>2021-07-19T10:20:40Z</time>
      </trkpt>
      <trkpt lat="42.64633" lon="1.68432">
        <ele>2342.415</ele>
        <time>2021-07-19T10:20:42Z</time>
      </trkpt>
      <trkpt lat="42.64633" lon="1.68432">
        <ele>2342.937</ele>
        <time>2021-07-19T10:20:44Z</time>
      </trkpt>
      <trkpt lat="42.64632" lon="1.68432">
        <ele>2342.882</ele>
        <time>2021-07-19T10:20:46Z</time>
      </trkpt>
      <trkpt lat="42.64631" lon="1.68432">
        <ele>2342.208</ele>
        <time>2021-07-19T10:20:48Z</time>
      </trkpt>
      <trkpt lat="42.64632" lon="1.68432">
        <ele>2342.216</ele>
        <time>2021-07-19T10:20:50Z</time>
      </trkpt>
      <trkpt lat="42.64631" lon="1.68431">
        <ele>2342.42</ele>
        <time>2021-07-19T10:20:52Z</time>
      </trkpt>
      <trkpt lat="42.64631" lon="1.6843">
        <ele>2342.342</ele>
        <time>2021-07-19T10:20:54Z</time>
      </trkpt>
      <trkpt lat="42.6463" lon="1.68429">
        <ele>2342.901</ele>
        <time>2021-07-19T10:20:56Z</time>
      </trkpt>
      <trkpt lat="42.64629" lon="1.68428">
        <ele>2342.459</ele>
        <time>2021-07-19T10:20:58Z</time>
      </trkpt>
      <trkpt lat="42.64628" lon="1.68428">
        <ele>2342.231</ele>
        <time>2021-07-19T10:21:00Z</time>
      </trkpt>
      <trkpt lat="42.64628" lon="1.68428">
        <ele>2341.896</ele>
        <time>2021-07-19T10:21:02Z</time>
      </trkpt>
      <trkpt lat="42.64627" lon="1.68428">
        <ele>2341.957</ele>
        <time>2021-07-19T10:21:04Z</time>
      </trkpt>
      <trkpt lat="42.64627" lon="1.68427">
        <ele>2342.467</ele>
        <time>2021-07-19T10:21:06Z</time>
      </trkpt>
      <trkpt lat="42.64627" lon="1.68426">
        <ele>2342.476</ele>
        <time>2021-07-19T10:21:08Z</time>
      </trkpt>
      <trkpt lat="42.64627" lon="1.68426">
        <ele>2342.475</ele>
        <time>2021-07-19T10:21:10Z</time>
      </trkpt>
      <trkpt lat="42.64627" lon="1.68426">
        <ele>2342.472</ele>
        <time>2021-07-19T10:21:12Z</time>
      </trkpt>
      <trkpt lat="42.64626" lon="1.68425">
        <ele>2343.204</ele>
        <time>2021-07-19T10:21:14Z</time>
      </trkpt>
      <trkpt lat="42.64626" lon="1.68423">
        <ele>2343.276</ele>
        <time>2021-07-19T10:21:16Z</time>
      </trkpt>
      <trkpt lat="42.64625" lon="1.68421">
        <ele>2344.033</ele>
        <time>2021-07-19T10:21:18Z</time>
      </trkpt>
      <trkpt lat="42.64625" lon="1.6842">
        <ele>2344.824</ele>
        <time>2021-07-19T10:21:20Z</time>
      </trkpt>
      <trkpt lat="42.64624" lon="1.68419">
        <ele>2344.989</ele>
        <time>2021-07-19T10:21:22Z</time>
      </trkpt>
      <trkpt lat="42.64623" lon="1.68418">
        <ele>2345.285</ele>
        <time>2021-07-19T10:21:24Z</time>
      </trkpt>
      <trkpt lat="42.64622" lon="1.68417">
        <ele>2345.12</ele>
        <time>2021-07-19T10:21:26Z</time>
      </trkpt>
      <trkpt lat="42.64622" lon="1.68416">
        <ele>2345.038</ele>
        <time>2021-07-19T10:21:28Z</time>
      </trkpt>
      <trkpt lat="42.64621" lon="1.68416">
        <ele>2345.831</ele>
        <time>2021-07-19T10:21:30Z</time>
      </trkpt>
      <trkpt lat="42.64621" lon="1.68416">
        <ele>2345.494</ele>
        <time>2021-07-19T10:21:32Z</time>
      </trkpt>
      <trkpt lat="42.6462" lon="1.68416">
        <ele>2345.924</ele>
        <time>2021-07-19T10:21:34Z</time>
      </trkpt>
      <trkpt lat="42.6462" lon="1.68416">
        <ele>2346.543</ele>
        <time>2021-07-19T10:21:36Z</time>
      </trkpt>
      <trkpt lat="42.64619" lon="1.68416">
        <ele>2346.943</ele>
        <time>2021-07-19T10:21:38Z</time>
      </trkpt>
      <trkpt lat="42.64618" lon="1.68416">
        <ele>2347.848</ele>
        <time>2021-07-19T10:21:40Z</time>
      </trkpt>
      <trkpt lat="42.64618" lon="1.68416">
        <ele>2347.811</ele>
        <time>2021-07-19T10:21:42Z</time>
      </trkpt>
      <trkpt lat="42.64617" lon="1.68416">
        <ele>2348.038</ele>
        <time>2021-07-19T10:21:44Z</time>
      </trkpt>
      <trkpt lat="42.64617" lon="1.68416">
        <ele>2348.35</ele>
        <time>2021-07-19T10:21:46Z</time>
      </trkpt>
      <trkpt lat="42.64616" lon="1.68416">
        <ele>2348.97</ele>
        <time>2021-07-19T10:21:48Z</time>
      </trkpt>
      <trkpt lat="42.64615" lon="1.68415">
        <ele>2349.526</ele>
        <time>2021-07-19T10:21:50Z</time>
      </trkpt>
      <trkpt lat="42.64614" lon="1.68415">
        <ele>2350.389</ele>
        <time>2021-07-19T10:21:52Z</time>
      </trkpt>
      <trkpt lat="42.64613" lon="1.68415">
        <ele>2350.108</ele>
        <time>2021-07-19T10:21:54Z</time>
      </trkpt>
      <trkpt lat="42.64612" lon="1.68415">
        <ele>2351.057</ele>
        <time>2021-07-19T10:21:56Z</time>
      </trkpt>
      <trkpt lat="42.64611" lon="1.68415">
        <ele>2351.591</ele>
        <time>2021-07-19T10:21:58Z</time>
      </trkpt>
      <trkpt lat="42.6461" lon="1.68415">
        <ele>2351.802</ele>
        <time>2021-07-19T10:22:00Z</time>
      </trkpt>
      <trkpt lat="42.64609" lon="1.68414">
        <ele>2352.722</ele>
        <time>2021-07-19T10:22:02Z</time>
      </trkpt>
      <trkpt lat="42.64608" lon="1.68413">
        <ele>2353.392</ele>
        <time>2021-07-19T10:22:04Z</time>
      </trkpt>
      <trkpt lat="42.64607" lon="1.68413">
        <ele>2353.595</ele>
        <time>2021-07-19T10:22:06Z</time>
      </trkpt>
      <trkpt lat="42.64606" lon="1.68413">
        <ele>2353.459</ele>
        <time>2021-07-19T10:22:08Z</time>
      </trkpt>
      <trkpt lat="42.64606" lon="1.68413">
        <ele>2353.471</ele>
        <time>2021-07-19T10:22:10Z</time>
      </trkpt>
      <trkpt lat="42.64605" lon="1.68414">
        <ele>2354.041</ele>
        <time>2021-07-19T10:22:12Z</time>
      </trkpt>
      <trkpt lat="42.64604" lon="1.68416">
        <ele>2353.917</ele>
        <time>2021-07-19T10:22:14Z</time>
      </trkpt>
      <trkpt lat="42.64603" lon="1.68418">
        <ele>2354.532</ele>
        <time>2021-07-19T10:22:16Z</time>
      </trkpt>
      <trkpt lat="42.64603" lon="1.6842">
        <ele>2355.038</ele>
        <time>2021-07-19T10:22:18Z</time>
      </trkpt>
      <trkpt lat="42.64603" lon="1.68421">
        <ele>2355.193</ele>
        <time>2021-07-19T10:22:20Z</time>
      </trkpt>
      <trkpt lat="42.64602" lon="1.68422">
        <ele>2355.515</ele>
        <time>2021-07-19T10:22:22Z</time>
      </trkpt>
      <trkpt lat="42.64601" lon="1.68423">
        <ele>2355.822</ele>
        <time>2021-07-19T10:22:24Z</time>
      </trkpt>
      <trkpt lat="42.646" lon="1.68424">
        <ele>2356.312</ele>
        <time>2021-07-19T10:22:26Z</time>
      </trkpt>
      <trkpt lat="42.646" lon="1.68426">
        <ele>2357.317</ele>
        <time>2021-07-19T10:22:28Z</time>
      </trkpt>
      <trkpt lat="42.64599" lon="1.68428">
        <ele>2357.548</ele>
        <time>2021-07-19T10:22:30Z</time>
      </trkpt>
      <trkpt lat="42.64599" lon="1.68429">
        <ele>2357.687</ele>
        <time>2021-07-19T10:22:32Z</time>
      </trkpt>
      <trkpt lat="42.64599" lon="1.6843">
        <ele>2358.142</ele>
        <time>2021-07-19T10:22:34Z</time>
      </trkpt>
      <trkpt lat="42.64599" lon="1.68431">
        <ele>2358.249</ele>
        <time>2021-07-19T10:22:36Z</time>
      </trkpt>
      <trkpt lat="42.64599" lon="1.68431">
        <ele>2358.251</ele>
        <time>2021-07-19T10:22:38Z</time>
      </trkpt>
      <trkpt lat="42.64599" lon="1.68431">
        <ele>2358.174</ele>
        <time>2021-07-19T10:22:40Z</time>
      </trkpt>
      <trkpt lat="42.64598" lon="1.68431">
        <ele>2357.926</ele>
        <time>2021-07-19T10:22:42Z</time>
      </trkpt>
      <trkpt lat="42.64597" lon="1.6843">
        <ele>2358.427</ele>
        <time>2021-07-19T10:22:44Z</time>
      </trkpt>
      <trkpt lat="42.64596" lon="1.68428">
        <ele>2358.712</ele>
        <time>2021-07-19T10:22:46Z</time>
      </trkpt>
      <trkpt lat="42.64594" lon="1.68427">
        <ele>2359.435</ele>
        <time>2021-07-19T10:22:48Z</time>
      </trkpt>
      <trkpt lat="42.64593" lon="1.68427">
        <ele>2360.485</ele>
        <time>2021-07-19T10:22:50Z</time>
      </trkpt>
      <trkpt lat="42.64592" lon="1.68427">
        <ele>2361.096</ele>
        <time>2021-07-19T10:22:52Z</time>
      </trkpt>
      <trkpt lat="42.64591" lon="1.68427">
        <ele>2361.678</ele>
        <time>2021-07-19T10:22:54Z</time>
      </trkpt>
      <trkpt lat="42.6459" lon="1.68427">
        <ele>2361.648</ele>
        <time>2021-07-19T10:22:56Z</time>
      </trkpt>
      <trkpt lat="42.6459" lon="1.68428">
        <ele>2361.844</ele>
        <time>2021-07-19T10:22:58Z</time>
      </trkpt>
      <trkpt lat="42.6459" lon="1.68428">
        <ele>2361.844</ele>
        <time>2021-07-19T10:23:00Z</time>
      </trkpt>
      <trkpt lat="42.6459" lon="1.68429">
        <ele>2361.848</ele>
        <time>2021-07-19T10:23:02Z</time>
      </trkpt>
      <trkpt lat="42.6459" lon="1.68429">
        <ele>2361.849</ele>
        <time>2021-07-19T10:23:04Z</time>
      </trkpt>
      <trkpt lat="42.6459" lon="1.6843">
        <ele>2361.978</ele>
        <time>2021-07-19T10:23:06Z</time>
      </trkpt>
      <trkpt lat="42.6459" lon="1.6843">
        <ele>2361.945</ele>
        <time>2021-07-19T10:23:08Z</time>
      </trkpt>
      <trkpt lat="42.6459" lon="1.6843">
        <ele>2361.946</ele>
        <time>2021-07-19T10:23:10Z</time>
      </trkpt>
      <trkpt lat="42.6459" lon="1.6843">
        <ele>2361.951</ele>
        <time>2021-07-19T10:23:12Z</time>
      </trkpt>
      <trkpt lat="42.6459" lon="1.6843">
        <ele>2361.949</ele>
        <time>2021-07-19T10:23:14Z</time>
      </trkpt>
      <trkpt lat="42.6459" lon="1.6843">
        <ele>2362.065</ele>
        <time>2021-07-19T10:23:16Z</time>
      </trkpt>
      <trkpt lat="42.6459" lon="1.6843">
        <ele>2362.054</ele>
        <time>2021-07-19T10:23:18Z</time>
      </trkpt>
      <trkpt lat="42.6459" lon="1.6843">
        <ele>2362.05</ele>
        <time>2021-07-19T10:23:20Z</time>
      </trkpt>
      <trkpt lat="42.6459" lon="1.6843">
        <ele>2361.799</ele>
        <time>2021-07-19T10:23:22Z</time>
      </trkpt>
      <trkpt lat="42.6459" lon="1.6843">
        <ele>2361.791</ele>
        <time>2021-07-19T10:23:24Z</time>
      </trkpt>
      <trkpt lat="42.6459" lon="1.6843">
        <ele>2361.783</ele>
        <time>2021-07-19T10:23:26Z</time>
      </trkpt>
      <trkpt lat="42.6459" lon="1.6843">
        <ele>2361.78</ele>
        <time>2021-07-19T10:23:28Z</time>
      </trkpt>
      <trkpt lat="42.6459" lon="1.6843">
        <ele>2361.781</ele>
        <time>2021-07-19T10:23:30Z</time>
      </trkpt>
      <trkpt lat="42.6459" lon="1.6843">
        <ele>2361.789</ele>
        <time>2021-07-19T10:23:32Z</time>
      </trkpt>
      <trkpt lat="42.6459" lon="1.6843">
        <ele>2361.794</ele>
        <time>2021-07-19T10:23:34Z</time>
      </trkpt>
      <trkpt lat="42.6459" lon="1.6843">
        <ele>2361.788</ele>
        <time>2021-07-19T10:23:36Z</time>
      </trkpt>
      <trkpt lat="42.6459" lon="1.6843">
        <ele>2361.782</ele>
        <time>2021-07-19T10:23:38Z</time>
      </trkpt>
      <trkpt lat="42.6459" lon="1.6843">
        <ele>2361.773</ele>
        <time>2021-07-19T10:23:40Z</time>
      </trkpt>
      <trkpt lat="42.64591" lon="1.6843">
        <ele>2361.879</ele>
        <time>2021-07-19T10:23:42Z</time>
      </trkpt>
      <trkpt lat="42.64591" lon="1.68428">
        <ele>2362.227</ele>
        <time>2021-07-19T10:23:44Z</time>
      </trkpt>
      <trkpt lat="42.64591" lon="1.68427">
        <ele>2361.857</ele>
        <time>2021-07-19T10:23:46Z</time>
      </trkpt>
      <trkpt lat="42.64591" lon="1.68427">
        <ele>2361.862</ele>
        <time>2021-07-19T10:23:48Z</time>
      </trkpt>
      <trkpt lat="42.64591" lon="1.68427">
        <ele>2361.858</ele>
        <time>2021-07-19T10:23:50Z</time>
      </trkpt>
      <trkpt lat="42.64591" lon="1.68427">
        <ele>2361.859</ele>
        <time>2021-07-19T10:23:52Z</time>
      </trkpt>
      <trkpt lat="42.64591" lon="1.68427">
        <ele>2361.857</ele>
        <time>2021-07-19T10:23:54Z</time>
      </trkpt>
      <trkpt lat="42.64591" lon="1.68426">
        <ele>2362.078</ele>
        <time>2021-07-19T10:23:56Z</time>
      </trkpt>
      <trkpt lat="42.64591" lon="1.68426">
        <ele>2362.08</ele>
        <time>2021-07-19T10:23:58Z</time>
      </trkpt>
      <trkpt lat="42.64591" lon="1.68426">
        <ele>2362.082</ele>
        <time>2021-07-19T10:24:00Z</time>
      </trkpt>
      <trkpt lat="42.64591" lon="1.68426">
        <ele>2362.299</ele>
        <time>2021-07-19T10:24:02Z</time>
      </trkpt>
      <trkpt lat="42.64591" lon="1.68426">
        <ele>2362.3</ele>
        <time>2021-07-19T10:24:04Z</time>
      </trkpt>
      <trkpt lat="42.64591" lon="1.68426">
        <ele>2362.301</ele>
        <time>2021-07-19T10:24:06Z</time>
      </trkpt>
      <trkpt lat="42.64591" lon="1.68426">
        <ele>2362.299</ele>
        <time>2021-07-19T10:24:08Z</time>
      </trkpt>
      <trkpt lat="42.64591" lon="1.68426">
        <ele>2362.297</ele>
        <time>2021-07-19T10:24:10Z</time>
      </trkpt>
      <trkpt lat="42.64591" lon="1.68426">
        <ele>2362.296</ele>
        <time>2021-07-19T10:24:12Z</time>
      </trkpt>
      <trkpt lat="42.64591" lon="1.68426">
        <ele>2362.289</ele>
        <time>2021-07-19T10:24:14Z</time>
      </trkpt>
      <trkpt lat="42.64591" lon="1.68426">
        <ele>2362.544</ele>
        <time>2021-07-19T10:24:16Z</time>
      </trkpt>
      <trkpt lat="42.64591" lon="1.68425">
        <ele>2362.385</ele>
        <time>2021-07-19T10:24:18Z</time>
      </trkpt>
      <trkpt lat="42.64592" lon="1.68424">
        <ele>2361.984</ele>
        <time>2021-07-19T10:24:20Z</time>
      </trkpt>
      <trkpt lat="42.64594" lon="1.68423">
        <ele>2361.222</ele>
        <time>2021-07-19T10:24:22Z</time>
      </trkpt>
      <trkpt lat="42.64595" lon="1.68421">
        <ele>2361.037</ele>
        <time>2021-07-19T10:24:24Z</time>
      </trkpt>
      <trkpt lat="42.64596" lon="1.68419">
        <ele>2360.873</ele>
        <time>2021-07-19T10:24:26Z</time>
      </trkpt>
      <trkpt lat="42.64597" lon="1.68418">
        <ele>2360.453</ele>
        <time>2021-07-19T10:24:28Z</time>
      </trkpt>
      <trkpt lat="42.64597" lon="1.68416">
        <ele>2359.901</ele>
        <time>2021-07-19T10:24:30Z</time>
      </trkpt>
      <trkpt lat="42.64598" lon="1.68414">
        <ele>2359.743</ele>
        <time>2021-07-19T10:24:32Z</time>
      </trkpt>
      <trkpt lat="42.64598" lon="1.68414">
        <ele>2359.785</ele>
        <time>2021-07-19T10:24:34Z</time>
      </trkpt>
      <trkpt lat="42.646" lon="1.68414">
        <ele>2359.586</ele>
        <time>2021-07-19T10:24:36Z</time>
      </trkpt>
      <trkpt lat="42.64601" lon="1.68413">
        <ele>2359.118</ele>
        <time>2021-07-19T10:24:38Z</time>
      </trkpt>
      <trkpt lat="42.64602" lon="1.68413">
        <ele>2359.08</ele>
        <time>2021-07-19T10:24:40Z</time>
      </trkpt>
      <trkpt lat="42.64602" lon="1.68413">
        <ele>2359.343</ele>
        <time>2021-07-19T10:24:42Z</time>
      </trkpt>
      <trkpt lat="42.64602" lon="1.68413">
        <ele>2359.347</ele>
        <time>2021-07-19T10:24:44Z</time>
      </trkpt>
      <trkpt lat="42.64602" lon="1.68413">
        <ele>2359.353</ele>
        <time>2021-07-19T10:24:46Z</time>
      </trkpt>
      <trkpt lat="42.64602" lon="1.68413">
        <ele>2359.331</ele>
        <time>2021-07-19T10:24:48Z</time>
      </trkpt>
      <trkpt lat="42.64603" lon="1.68413">
        <ele>2359.166</ele>
        <time>2021-07-19T10:24:50Z</time>
      </trkpt>
      <trkpt lat="42.64605" lon="1.68413">
        <ele>2358.836</ele>
        <time>2021-07-19T10:24:52Z</time>
      </trkpt>
      <trkpt lat="42.64606" lon="1.68413">
        <ele>2358.735</ele>
        <time>2021-07-19T10:24:54Z</time>
      </trkpt>
      <trkpt lat="42.64607" lon="1.68413">
        <ele>2358.552</ele>
        <time>2021-07-19T10:24:56Z</time>
      </trkpt>
      <trkpt lat="42.64607" lon="1.68413">
        <ele>2358.723</ele>
        <time>2021-07-19T10:24:58Z</time>
      </trkpt>
      <trkpt lat="42.64607" lon="1.68413">
        <ele>2358.718</ele>
        <time>2021-07-19T10:25:00Z</time>
      </trkpt>
      <trkpt lat="42.64607" lon="1.68413">
        <ele>2358.718</ele>
        <time>2021-07-19T10:25:02Z</time>
      </trkpt>
      <trkpt lat="42.64607" lon="1.68413">
        <ele>2358.713</ele>
        <time>2021-07-19T10:25:04Z</time>
      </trkpt>
      <trkpt lat="42.64607" lon="1.68413">
        <ele>2359.072</ele>
        <time>2021-07-19T10:25:06Z</time>
      </trkpt>
      <trkpt lat="42.64607" lon="1.68413">
        <ele>2359.09</ele>
        <time>2021-07-19T10:25:08Z</time>
      </trkpt>
      <trkpt lat="42.64607" lon="1.68413">
        <ele>2359.092</ele>
        <time>2021-07-19T10:25:10Z</time>
      </trkpt>
      <trkpt lat="42.64608" lon="1.68412">
        <ele>2358.604</ele>
        <time>2021-07-19T10:25:12Z</time>
      </trkpt>
      <trkpt lat="42.64608" lon="1.68412">
        <ele>2358.612</ele>
        <time>2021-07-19T10:25:14Z</time>
      </trkpt>
      <trkpt lat="42.64608" lon="1.68413">
        <ele>2358.779</ele>
        <time>2021-07-19T10:25:16Z</time>
      </trkpt>
      <trkpt lat="42.64608" lon="1.68413">
        <ele>2358.707</ele>
        <time>2021-07-19T10:25:18Z</time>
      </trkpt>
      <trkpt lat="42.64608" lon="1.68413">
        <ele>2358.71</ele>
        <time>2021-07-19T10:25:20Z</time>
      </trkpt>
      <trkpt lat="42.64608" lon="1.68413">
        <ele>2358.705</ele>
        <time>2021-07-19T10:25:22Z</time>
      </trkpt>
      <trkpt lat="42.64608" lon="1.68413">
        <ele>2358.697</ele>
        <time>2021-07-19T10:25:24Z</time>
      </trkpt>
      <trkpt lat="42.64608" lon="1.68413">
        <ele>2358.695</ele>
        <time>2021-07-19T10:25:26Z</time>
      </trkpt>
      <trkpt lat="42.64608" lon="1.68413">
        <ele>2358.693</ele>
        <time>2021-07-19T10:25:28Z</time>
      </trkpt>
      <trkpt lat="42.64608" lon="1.68413">
        <ele>2358.695</ele>
        <time>2021-07-19T10:25:30Z</time>
      </trkpt>
      <trkpt lat="42.64608" lon="1.68413">
        <ele>2358.699</ele>
        <time>2021-07-19T10:25:32Z</time>
      </trkpt>
      <trkpt lat="42.64608" lon="1.68413">
        <ele>2358.697</ele>
        <time>2021-07-19T10:25:34Z</time>
      </trkpt>
      <trkpt lat="42.64608" lon="1.68413">
        <ele>2358.392</ele>
        <time>2021-07-19T10:25:36Z</time>
      </trkpt>
      <trkpt lat="42.64609" lon="1.68413">
        <ele>2358.036</ele>
        <time>2021-07-19T10:25:38Z</time>
      </trkpt>
      <trkpt lat="42.64609" lon="1.68413">
        <ele>2358.128</ele>
        <time>2021-07-19T10:25:40Z</time>
      </trkpt>
      <trkpt lat="42.64609" lon="1.68413">
        <ele>2358.129</ele>
        <time>2021-07-19T10:25:42Z</time>
      </trkpt>
      <trkpt lat="42.64609" lon="1.68413">
        <ele>2358.123</ele>
        <time>2021-07-19T10:25:44Z</time>
      </trkpt>
      <trkpt lat="42.64609" lon="1.68413">
        <ele>2358.129</ele>
        <time>2021-07-19T10:25:46Z</time>
      </trkpt>
      <trkpt lat="42.64609" lon="1.68413">
        <ele>2358.132</ele>
        <time>2021-07-19T10:25:48Z</time>
      </trkpt>
      <trkpt lat="42.64609" lon="1.68413">
        <ele>2358.14</ele>
        <time>2021-07-19T10:25:50Z</time>
      </trkpt>
      <trkpt lat="42.64609" lon="1.68413">
        <ele>2358.144</ele>
        <time>2021-07-19T10:25:52Z</time>
      </trkpt>
      <trkpt lat="42.64609" lon="1.68413">
        <ele>2358.149</ele>
        <time>2021-07-19T10:25:54Z</time>
      </trkpt>
      <trkpt lat="42.64609" lon="1.68413">
        <ele>2358.588</ele>
        <time>2021-07-19T10:25:56Z</time>
      </trkpt>
      <trkpt lat="42.64609" lon="1.68413">
        <ele>2358.592</ele>
        <time>2021-07-19T10:25:58Z</time>
      </trkpt>
      <trkpt lat="42.64609" lon="1.68413">
        <ele>2358.374</ele>
        <time>2021-07-19T10:26:00Z</time>
      </trkpt>
      <trkpt lat="42.6461" lon="1.68413">
        <ele>2358.153</ele>
        <time>2021-07-19T10:26:02Z</time>
      </trkpt>
      <trkpt lat="42.6461" lon="1.68413">
        <ele>2358.089</ele>
        <time>2021-07-19T10:26:04Z</time>
      </trkpt>
      <trkpt lat="42.6461" lon="1.68413">
        <ele>2358.092</ele>
        <time>2021-07-19T10:26:06Z</time>
      </trkpt>
      <trkpt lat="42.6461" lon="1.68413">
        <ele>2358.095</ele>
        <time>2021-07-19T10:26:08Z</time>
      </trkpt>
      <trkpt lat="42.6461" lon="1.68413">
        <ele>2358.099</ele>
        <time>2021-07-19T10:26:10Z</time>
      </trkpt>
      <trkpt lat="42.6461" lon="1.68413">
        <ele>2358.153</ele>
        <time>2021-07-19T10:26:12Z</time>
      </trkpt>
      <trkpt lat="42.6461" lon="1.68413">
        <ele>2358.145</ele>
        <time>2021-07-19T10:26:14Z</time>
      </trkpt>
      <trkpt lat="42.6461" lon="1.68413">
        <ele>2358.13</ele>
        <time>2021-07-19T10:26:16Z</time>
      </trkpt>
      <trkpt lat="42.6461" lon="1.68413">
        <ele>2358.118</ele>
        <time>2021-07-19T10:26:18Z</time>
      </trkpt>
      <trkpt lat="42.6461" lon="1.68413">
        <ele>2358.116</ele>
        <time>2021-07-19T10:26:20Z</time>
      </trkpt>
      <trkpt lat="42.6461" lon="1.68413">
        <ele>2358.117</ele>
        <time>2021-07-19T10:26:22Z</time>
      </trkpt>
      <trkpt lat="42.6461" lon="1.68413">
        <ele>2358.117</ele>
        <time>2021-07-19T10:26:24Z</time>
      </trkpt>
      <trkpt lat="42.6461" lon="1.68413">
        <ele>2358.117</ele>
        <time>2021-07-19T10:26:26Z</time>
      </trkpt>
      <trkpt lat="42.6461" lon="1.68413">
        <ele>2358.12</ele>
        <time>2021-07-19T10:26:28Z</time>
      </trkpt>
      <trkpt lat="42.6461" lon="1.68413">
        <ele>2358.121</ele>
        <time>2021-07-19T10:26:30Z</time>
      </trkpt>
      <trkpt lat="42.6461" lon="1.68413">
        <ele>2358.121</ele>
        <time>2021-07-19T10:26:32Z</time>
      </trkpt>
      <trkpt lat="42.6461" lon="1.68413">
        <ele>2358.135</ele>
        <time>2021-07-19T10:26:34Z</time>
      </trkpt>
      <trkpt lat="42.64609" lon="1.68413">
        <ele>2358.288</ele>
        <time>2021-07-19T10:26:36Z</time>
      </trkpt>
      <trkpt lat="42.6461" lon="1.68413">
        <ele>2358.544</ele>
        <time>2021-07-19T10:26:38Z</time>
      </trkpt>
      <trkpt lat="42.6461" lon="1.68413">
        <ele>2358.54</ele>
        <time>2021-07-19T10:26:40Z</time>
      </trkpt>
      <trkpt lat="42.6461" lon="1.68412">
        <ele>2358.54</ele>
        <time>2021-07-19T10:26:42Z</time>
      </trkpt>
      <trkpt lat="42.6461" lon="1.68412">
        <ele>2358.535</ele>
        <time>2021-07-19T10:26:44Z</time>
      </trkpt>
      <trkpt lat="42.6461" lon="1.68412">
        <ele>2358.538</ele>
        <time>2021-07-19T10:26:46Z</time>
      </trkpt>
      <trkpt lat="42.6461" lon="1.68412">
        <ele>2358.534</ele>
        <time>2021-07-19T10:26:48Z</time>
      </trkpt>
      <trkpt lat="42.6461" lon="1.68412">
        <ele>2358.536</ele>
        <time>2021-07-19T10:26:50Z</time>
      </trkpt>
      <trkpt lat="42.6461" lon="1.68412">
        <ele>2358.809</ele>
        <time>2021-07-19T10:26:52Z</time>
      </trkpt>
      <trkpt lat="42.64609" lon="1.68412">
        <ele>2358.821</ele>
        <time>2021-07-19T10:26:54Z</time>
      </trkpt>
      <trkpt lat="42.64609" lon="1.68412">
        <ele>2358.823</ele>
        <time>2021-07-19T10:26:56Z</time>
      </trkpt>
      <trkpt lat="42.64609" lon="1.68412">
        <ele>2358.822</ele>
        <time>2021-07-19T10:26:58Z</time>
      </trkpt>
      <trkpt lat="42.64609" lon="1.68412">
        <ele>2358.821</ele>
        <time>2021-07-19T10:27:00Z</time>
      </trkpt>
      <trkpt lat="42.64609" lon="1.68412">
        <ele>2358.823</ele>
        <time>2021-07-19T10:27:02Z</time>
      </trkpt>
      <trkpt lat="42.64609" lon="1.68412">
        <ele>2358.827</ele>
        <time>2021-07-19T10:27:04Z</time>
      </trkpt>
      <trkpt lat="42.64609" lon="1.68412">
        <ele>2358.827</ele>
        <time>2021-07-19T10:27:06Z</time>
      </trkpt>
      <trkpt lat="42.64609" lon="1.68412">
        <ele>2358.827</ele>
        <time>2021-07-19T10:27:08Z</time>
      </trkpt>
      <trkpt lat="42.64609" lon="1.68412">
        <ele>2358.827</ele>
        <time>2021-07-19T10:27:10Z</time>
      </trkpt>
      <trkpt lat="42.64609" lon="1.68412">
        <ele>2358.826</ele>
        <time>2021-07-19T10:27:12Z</time>
      </trkpt>
      <trkpt lat="42.64609" lon="1.68412">
        <ele>2358.827</ele>
        <time>2021-07-19T10:27:14Z</time>
      </trkpt>
      <trkpt lat="42.64609" lon="1.68412">
        <ele>2358.824</ele>
        <time>2021-07-19T10:27:16Z</time>
      </trkpt>
      <trkpt lat="42.64609" lon="1.68412">
        <ele>2358.827</ele>
        <time>2021-07-19T10:27:18Z</time>
      </trkpt>
      <trkpt lat="42.6461" lon="1.68412">
        <ele>2358.705</ele>
        <time>2021-07-19T10:27:20Z</time>
      </trkpt>
      <trkpt lat="42.6461" lon="1.68412">
        <ele>2358.454</ele>
        <time>2021-07-19T10:27:22Z</time>
      </trkpt>
      <trkpt lat="42.6461" lon="1.68414">
        <ele>2358.264</ele>
        <time>2021-07-19T10:27:24Z</time>
      </trkpt>
      <trkpt lat="42.64611" lon="1.68414">
        <ele>2358.311</ele>
        <time>2021-07-19T10:27:26Z</time>
      </trkpt>
      <trkpt lat="42.64611" lon="1.68414">
        <ele>2358.197</ele>
        <time>2021-07-19T10:27:28Z</time>
      </trkpt>
      <trkpt lat="42.64611" lon="1.68414">
        <ele>2358.191</ele>
        <time>2021-07-19T10:27:30Z</time>
      </trkpt>
      <trkpt lat="42.64612" lon="1.68415">
        <ele>2358.774</ele>
        <time>2021-07-19T10:27:32Z</time>
      </trkpt>
      <trkpt lat="42.64611" lon="1.68414">
        <ele>2358.341</ele>
        <time>2021-07-19T10:27:34Z</time>
      </trkpt>
      <trkpt lat="42.64611" lon="1.68415">
        <ele>2358.331</ele>
        <time>2021-07-19T10:27:37Z</time>
      </trkpt>
      <trkpt lat="42.64611" lon="1.68415">
        <ele>2358.335</ele>
        <time>2021-07-19T10:27:39Z</time>
      </trkpt>
      <trkpt lat="42.64611" lon="1.68415">
        <ele>2358.33</ele>
        <time>2021-07-19T10:27:41Z</time>
      </trkpt>
      <trkpt lat="42.64611" lon="1.68414">
        <ele>2358.224</ele>
        <time>2021-07-19T10:27:43Z</time>
      </trkpt>
      <trkpt lat="42.64611" lon="1.68414">
        <ele>2358.425</ele>
        <time>2021-07-19T10:27:45Z</time>
      </trkpt>
      <trkpt lat="42.64611" lon="1.68415">
        <ele>2358.427</ele>
        <time>2021-07-19T10:27:47Z</time>
      </trkpt>
      <trkpt lat="42.64611" lon="1.68415">
        <ele>2358.43</ele>
        <time>2021-07-19T10:27:49Z</time>
      </trkpt>
      <trkpt lat="42.64611" lon="1.68415">
        <ele>2358.431</ele>
        <time>2021-07-19T10:27:51Z</time>
      </trkpt>
      <trkpt lat="42.64611" lon="1.68415">
        <ele>2358.431</ele>
        <time>2021-07-19T10:27:53Z</time>
      </trkpt>
      <trkpt lat="42.64611" lon="1.68415">
        <ele>2358.518</ele>
        <time>2021-07-19T10:27:55Z</time>
      </trkpt>
      <trkpt lat="42.64611" lon="1.68414">
        <ele>2358.353</ele>
        <time>2021-07-19T10:27:57Z</time>
      </trkpt>
      <trkpt lat="42.64611" lon="1.68414">
        <ele>2358.347</ele>
        <time>2021-07-19T10:27:59Z</time>
      </trkpt>
      <trkpt lat="42.64611" lon="1.68414">
        <ele>2358.344</ele>
        <time>2021-07-19T10:28:01Z</time>
      </trkpt>
      <trkpt lat="42.64611" lon="1.68414">
        <ele>2358.345</ele>
        <time>2021-07-19T10:28:03Z</time>
      </trkpt>
      <trkpt lat="42.64611" lon="1.68414">
        <ele>2358.349</ele>
        <time>2021-07-19T10:28:05Z</time>
      </trkpt>
      <trkpt lat="42.64611" lon="1.68414">
        <ele>2358.352</ele>
        <time>2021-07-19T10:28:07Z</time>
      </trkpt>
      <trkpt lat="42.64611" lon="1.68414">
        <ele>2358.352</ele>
        <time>2021-07-19T10:28:09Z</time>
      </trkpt>
      <trkpt lat="42.64611" lon="1.68414">
        <ele>2358.353</ele>
        <time>2021-07-19T10:28:11Z</time>
      </trkpt>
      <trkpt lat="42.64611" lon="1.68414">
        <ele>2358.352</ele>
        <time>2021-07-19T10:28:13Z</time>
      </trkpt>
      <trkpt lat="42.64611" lon="1.68414">
        <ele>2358.347</ele>
        <time>2021-07-19T10:28:15Z</time>
      </trkpt>
      <trkpt lat="42.64611" lon="1.68414">
        <ele>2358.341</ele>
        <time>2021-07-19T10:28:17Z</time>
      </trkpt>
      <trkpt lat="42.64611" lon="1.68414">
        <ele>2358.338</ele>
        <time>2021-07-19T10:28:19Z</time>
      </trkpt>
      <trkpt lat="42.64611" lon="1.68414">
        <ele>2358.337</ele>
        <time>2021-07-19T10:28:21Z</time>
      </trkpt>
      <trkpt lat="42.64611" lon="1.68414">
        <ele>2358.336</ele>
        <time>2021-07-19T10:28:23Z</time>
      </trkpt>
      <trkpt lat="42.64611" lon="1.68414">
        <ele>2358.186</ele>
        <time>2021-07-19T10:28:25Z</time>
      </trkpt>
      <trkpt lat="42.64611" lon="1.68414">
        <ele>2358.188</ele>
        <time>2021-07-19T10:28:27Z</time>
      </trkpt>
      <trkpt lat="42.64611" lon="1.68414">
        <ele>2358.175</ele>
        <time>2021-07-19T10:28:29Z</time>
      </trkpt>
      <trkpt lat="42.64611" lon="1.68414">
        <ele>2358.179</ele>
        <time>2021-07-19T10:28:31Z</time>
      </trkpt>
      <trkpt lat="42.64611" lon="1.68414">
        <ele>2358.182</ele>
        <time>2021-07-19T10:28:33Z</time>
      </trkpt>
      <trkpt lat="42.64611" lon="1.68414">
        <ele>2358.184</ele>
        <time>2021-07-19T10:28:35Z</time>
      </trkpt>
      <trkpt lat="42.64611" lon="1.68414">
        <ele>2358.177</ele>
        <time>2021-07-19T10:28:37Z</time>
      </trkpt>
      <trkpt lat="42.64611" lon="1.68414">
        <ele>2358.173</ele>
        <time>2021-07-19T10:28:39Z</time>
      </trkpt>
      <trkpt lat="42.64611" lon="1.68414">
        <ele>2358.178</ele>
        <time>2021-07-19T10:28:41Z</time>
      </trkpt>
      <trkpt lat="42.64611" lon="1.68414">
        <ele>2358.004</ele>
        <time>2021-07-19T10:28:43Z</time>
      </trkpt>
      <trkpt lat="42.64611" lon="1.68413">
        <ele>2358.007</ele>
        <time>2021-07-19T10:28:45Z</time>
      </trkpt>
      <trkpt lat="42.64612" lon="1.68414">
        <ele>2358.086</ele>
        <time>2021-07-19T10:28:47Z</time>
      </trkpt>
      <trkpt lat="42.64612" lon="1.68414">
        <ele>2358.077</ele>
        <time>2021-07-19T10:28:49Z</time>
      </trkpt>
      <trkpt lat="42.64612" lon="1.68414">
        <ele>2358.078</ele>
        <time>2021-07-19T10:28:51Z</time>
      </trkpt>
      <trkpt lat="42.64612" lon="1.68414">
        <ele>2358.071</ele>
        <time>2021-07-19T10:28:53Z</time>
      </trkpt>
      <trkpt lat="42.64612" lon="1.68414">
        <ele>2358.072</ele>
        <time>2021-07-19T10:28:55Z</time>
      </trkpt>
      <trkpt lat="42.64611" lon="1.68414">
        <ele>2357.972</ele>
        <time>2021-07-19T10:28:57Z</time>
      </trkpt>
      <trkpt lat="42.64611" lon="1.68414">
        <ele>2357.971</ele>
        <time>2021-07-19T10:28:59Z</time>
      </trkpt>
      <trkpt lat="42.64611" lon="1.68414">
        <ele>2357.973</ele>
        <time>2021-07-19T10:29:01Z</time>
      </trkpt>
      <trkpt lat="42.64611" lon="1.68414">
        <ele>2357.972</ele>
        <time>2021-07-19T10:29:03Z</time>
      </trkpt>
      <trkpt lat="42.64611" lon="1.68414">
        <ele>2357.97</ele>
        <time>2021-07-19T10:29:05Z</time>
      </trkpt>
      <trkpt lat="42.64612" lon="1.68415">
        <ele>2357.696</ele>
        <time>2021-07-19T10:29:07Z</time>
      </trkpt>
      <trkpt lat="42.64612" lon="1.68416">
        <ele>2357.653</ele>
        <time>2021-07-19T10:29:09Z</time>
      </trkpt>
      <trkpt lat="42.64612" lon="1.68416">
        <ele>2357.635</ele>
        <time>2021-07-19T10:29:11Z</time>
      </trkpt>
      <trkpt lat="42.64612" lon="1.68416">
        <ele>2357.622</ele>
        <time>2021-07-19T10:29:13Z</time>
      </trkpt>
      <trkpt lat="42.64612" lon="1.68416">
        <ele>2357.617</ele>
        <time>2021-07-19T10:29:15Z</time>
      </trkpt>
      <trkpt lat="42.64613" lon="1.68416">
        <ele>2358.14</ele>
        <time>2021-07-19T10:29:17Z</time>
      </trkpt>
      <trkpt lat="42.64614" lon="1.68416">
        <ele>2358.117</ele>
        <time>2021-07-19T10:29:19Z</time>
      </trkpt>
      <trkpt lat="42.64614" lon="1.68416">
        <ele>2358.111</ele>
        <time>2021-07-19T10:29:21Z</time>
      </trkpt>
      <trkpt lat="42.64614" lon="1.68416">
        <ele>2357.769</ele>
        <time>2021-07-19T10:29:23Z</time>
      </trkpt>
      <trkpt lat="42.64615" lon="1.68416">
        <ele>2358.118</ele>
        <time>2021-07-19T10:29:25Z</time>
      </trkpt>
      <trkpt lat="42.64615" lon="1.68416">
        <ele>2357.784</ele>
        <time>2021-07-19T10:29:27Z</time>
      </trkpt>
      <trkpt lat="42.64616" lon="1.68417">
        <ele>2357.843</ele>
        <time>2021-07-19T10:29:29Z</time>
      </trkpt>
      <trkpt lat="42.64616" lon="1.68417">
        <ele>2357.66</ele>
        <time>2021-07-19T10:29:31Z</time>
      </trkpt>
      <trkpt lat="42.64615" lon="1.68418">
        <ele>2357.652</ele>
        <time>2021-07-19T10:29:33Z</time>
      </trkpt>
      <trkpt lat="42.64615" lon="1.68418">
        <ele>2357.641</ele>
        <time>2021-07-19T10:29:35Z</time>
      </trkpt>
      <trkpt lat="42.64615" lon="1.68418">
        <ele>2357.625</ele>
        <time>2021-07-19T10:29:37Z</time>
      </trkpt>
      <trkpt lat="42.64615" lon="1.68418">
        <ele>2357.611</ele>
        <time>2021-07-19T10:29:39Z</time>
      </trkpt>
      <trkpt lat="42.64615" lon="1.68418">
        <ele>2357.608</ele>
        <time>2021-07-19T10:29:41Z</time>
      </trkpt>
      <trkpt lat="42.64615" lon="1.68418">
        <ele>2357.601</ele>
        <time>2021-07-19T10:29:43Z</time>
      </trkpt>
      <trkpt lat="42.64615" lon="1.68418">
        <ele>2357.603</ele>
        <time>2021-07-19T10:29:45Z</time>
      </trkpt>
      <trkpt lat="42.64615" lon="1.68418">
        <ele>2357.805</ele>
        <time>2021-07-19T10:29:47Z</time>
      </trkpt>
      <trkpt lat="42.64615" lon="1.68418">
        <ele>2357.803</ele>
        <time>2021-07-19T10:29:49Z</time>
      </trkpt>
      <trkpt lat="42.64615" lon="1.68418">
        <ele>2357.797</ele>
        <time>2021-07-19T10:29:51Z</time>
      </trkpt>
      <trkpt lat="42.64615" lon="1.68418">
        <ele>2357.785</ele>
        <time>2021-07-19T10:29:53Z</time>
      </trkpt>
      <trkpt lat="42.64615" lon="1.68418">
        <ele>2357.975</ele>
        <time>2021-07-19T10:29:55Z</time>
      </trkpt>
      <trkpt lat="42.64615" lon="1.68417">
        <ele>2357.936</ele>
        <time>2021-07-19T10:29:57Z</time>
      </trkpt>
      <trkpt lat="42.64614" lon="1.68416">
        <ele>2358.062</ele>
        <time>2021-07-19T10:29:59Z</time>
      </trkpt>
      <trkpt lat="42.64613" lon="1.68416">
        <ele>2358.525</ele>
        <time>2021-07-19T10:30:01Z</time>
      </trkpt>
      <trkpt lat="42.64612" lon="1.68416">
        <ele>2358.827</ele>
        <time>2021-07-19T10:30:03Z</time>
      </trkpt>
      <trkpt lat="42.64611" lon="1.68416">
        <ele>2359.29</ele>
        <time>2021-07-19T10:30:05Z</time>
      </trkpt>
      <trkpt lat="42.6461" lon="1.68415">
        <ele>2359.593</ele>
        <time>2021-07-19T10:30:07Z</time>
      </trkpt>
      <trkpt lat="42.64609" lon="1.68415">
        <ele>2359.764</ele>
        <time>2021-07-19T10:30:09Z</time>
      </trkpt>
      <trkpt lat="42.64607" lon="1.68414">
        <ele>2359.531</ele>
        <time>2021-07-19T10:30:11Z</time>
      </trkpt>
      <trkpt lat="42.64606" lon="1.68414">
        <ele>2359.348</ele>
        <time>2021-07-19T10:30:13Z</time>
      </trkpt>
      <trkpt lat="42.64604" lon="1.68413">
        <ele>2359.703</ele>
        <time>2021-07-19T10:30:15Z</time>
      </trkpt>
      <trkpt lat="42.64603" lon="1.68413">
        <ele>2359.771</ele>
        <time>2021-07-19T10:30:17Z</time>
      </trkpt>
      <trkpt lat="42.64602" lon="1.68413">
        <ele>2359.591</ele>
        <time>2021-07-19T10:30:19Z</time>
      </trkpt>
      <trkpt lat="42.64601" lon="1.68412">
        <ele>2359.477</ele>
        <time>2021-07-19T10:30:21Z</time>
      </trkpt>
      <trkpt lat="42.646" lon="1.68411">
        <ele>2358.938</ele>
        <time>2021-07-19T10:30:23Z</time>
      </trkpt>
      <trkpt lat="42.64599" lon="1.6841">
        <ele>2358.76</ele>
        <time>2021-07-19T10:30:25Z</time>
      </trkpt>
      <trkpt lat="42.64597" lon="1.6841">
        <ele>2358.627</ele>
        <time>2021-07-19T10:30:27Z</time>
      </trkpt>
      <trkpt lat="42.64596" lon="1.68409">
        <ele>2359.081</ele>
        <time>2021-07-19T10:30:29Z</time>
      </trkpt>
      <trkpt lat="42.64595" lon="1.68407">
        <ele>2359.49</ele>
        <time>2021-07-19T10:30:31Z</time>
      </trkpt>
      <trkpt lat="42.64593" lon="1.68406">
        <ele>2359.501</ele>
        <time>2021-07-19T10:30:33Z</time>
      </trkpt>
      <trkpt lat="42.64592" lon="1.68405">
        <ele>2359.63</ele>
        <time>2021-07-19T10:30:35Z</time>
      </trkpt>
      <trkpt lat="42.6459" lon="1.68405">
        <ele>2359.81</ele>
        <time>2021-07-19T10:30:37Z</time>
      </trkpt>
      <trkpt lat="42.64589" lon="1.68403">
        <ele>2359.486</ele>
        <time>2021-07-19T10:30:39Z</time>
      </trkpt>
      <trkpt lat="42.64588" lon="1.68402">
        <ele>2358.97</ele>
        <time>2021-07-19T10:30:41Z</time>
      </trkpt>
      <trkpt lat="42.64586" lon="1.68401">
        <ele>2358.854</ele>
        <time>2021-07-19T10:30:43Z</time>
      </trkpt>
      <trkpt lat="42.64585" lon="1.68399">
        <ele>2358.395</ele>
        <time>2021-07-19T10:30:45Z</time>
      </trkpt>
      <trkpt lat="42.64583" lon="1.68398">
        <ele>2357.469</ele>
        <time>2021-07-19T10:30:47Z</time>
      </trkpt>
      <trkpt lat="42.64582" lon="1.68397">
        <ele>2358.011</ele>
        <time>2021-07-19T10:30:49Z</time>
      </trkpt>
      <trkpt lat="42.6458" lon="1.68395">
        <ele>2358.707</ele>
        <time>2021-07-19T10:30:51Z</time>
      </trkpt>
      <trkpt lat="42.64578" lon="1.68396">
        <ele>2358.66</ele>
        <time>2021-07-19T10:30:53Z</time>
      </trkpt>
      <trkpt lat="42.64576" lon="1.68396">
        <ele>2360.176</ele>
        <time>2021-07-19T10:30:55Z</time>
      </trkpt>
      <trkpt lat="42.64574" lon="1.68395">
        <ele>2361.744</ele>
        <time>2021-07-19T10:30:57Z</time>
      </trkpt>
      <trkpt lat="42.64573" lon="1.68394">
        <ele>2362.542</ele>
        <time>2021-07-19T10:30:59Z</time>
      </trkpt>
      <trkpt lat="42.64572" lon="1.68392">
        <ele>2363.476</ele>
        <time>2021-07-19T10:31:01Z</time>
      </trkpt>
      <trkpt lat="42.64571" lon="1.68391">
        <ele>2364.19</ele>
        <time>2021-07-19T10:31:03Z</time>
      </trkpt>
      <trkpt lat="42.6457" lon="1.6839">
        <ele>2365.142</ele>
        <time>2021-07-19T10:31:05Z</time>
      </trkpt>
      <trkpt lat="42.64569" lon="1.68389">
        <ele>2365.206</ele>
        <time>2021-07-19T10:31:07Z</time>
      </trkpt>
      <trkpt lat="42.64567" lon="1.68389">
        <ele>2365.167</ele>
        <time>2021-07-19T10:31:09Z</time>
      </trkpt>
      <trkpt lat="42.64566" lon="1.68388">
        <ele>2365.55</ele>
        <time>2021-07-19T10:31:11Z</time>
      </trkpt>
      <trkpt lat="42.64565" lon="1.68387">
        <ele>2365.515</ele>
        <time>2021-07-19T10:31:13Z</time>
      </trkpt>
      <trkpt lat="42.64564" lon="1.68386">
        <ele>2365.262</ele>
        <time>2021-07-19T10:31:15Z</time>
      </trkpt>
      <trkpt lat="42.64562" lon="1.68385">
        <ele>2365.03</ele>
        <time>2021-07-19T10:31:17Z</time>
      </trkpt>
      <trkpt lat="42.64561" lon="1.68385">
        <ele>2364.576</ele>
        <time>2021-07-19T10:31:19Z</time>
      </trkpt>
      <trkpt lat="42.6456" lon="1.68385">
        <ele>2364.684</ele>
        <time>2021-07-19T10:31:21Z</time>
      </trkpt>
      <trkpt lat="42.64559" lon="1.68384">
        <ele>2364.462</ele>
        <time>2021-07-19T10:31:23Z</time>
      </trkpt>
      <trkpt lat="42.64557" lon="1.68383">
        <ele>2364.238</ele>
        <time>2021-07-19T10:31:25Z</time>
      </trkpt>
      <trkpt lat="42.64556" lon="1.68383">
        <ele>2363.789</ele>
        <time>2021-07-19T10:31:27Z</time>
      </trkpt>
      <trkpt lat="42.64555" lon="1.68382">
        <ele>2363.912</ele>
        <time>2021-07-19T10:31:29Z</time>
      </trkpt>
      <trkpt lat="42.64554" lon="1.68381">
        <ele>2363.829</ele>
        <time>2021-07-19T10:31:31Z</time>
      </trkpt>
      <trkpt lat="42.64553" lon="1.6838">
        <ele>2363.696</ele>
        <time>2021-07-19T10:31:33Z</time>
      </trkpt>
      <trkpt lat="42.64551" lon="1.6838">
        <ele>2363.7</ele>
        <time>2021-07-19T10:31:35Z</time>
      </trkpt>
      <trkpt lat="42.6455" lon="1.68379">
        <ele>2363.062</ele>
        <time>2021-07-19T10:31:37Z</time>
      </trkpt>
      <trkpt lat="42.64549" lon="1.68377">
        <ele>2362.656</ele>
        <time>2021-07-19T10:31:39Z</time>
      </trkpt>
      <trkpt lat="42.64547" lon="1.68376">
        <ele>2362.802</ele>
        <time>2021-07-19T10:31:41Z</time>
      </trkpt>
      <trkpt lat="42.64546" lon="1.68376">
        <ele>2362.655</ele>
        <time>2021-07-19T10:31:43Z</time>
      </trkpt>
      <trkpt lat="42.64544" lon="1.68374">
        <ele>2363.435</ele>
        <time>2021-07-19T10:31:45Z</time>
      </trkpt>
      <trkpt lat="42.64543" lon="1.68373">
        <ele>2363.542</ele>
        <time>2021-07-19T10:31:47Z</time>
      </trkpt>
      <trkpt lat="42.64542" lon="1.68371">
        <ele>2364.136</ele>
        <time>2021-07-19T10:31:49Z</time>
      </trkpt>
      <trkpt lat="42.64541" lon="1.6837">
        <ele>2364.185</ele>
        <time>2021-07-19T10:31:51Z</time>
      </trkpt>
      <trkpt lat="42.6454" lon="1.68368">
        <ele>2364.25</ele>
        <time>2021-07-19T10:31:53Z</time>
      </trkpt>
      <trkpt lat="42.64539" lon="1.68366">
        <ele>2365.368</ele>
        <time>2021-07-19T10:31:55Z</time>
      </trkpt>
      <trkpt lat="42.64538" lon="1.68364">
        <ele>2365.444</ele>
        <time>2021-07-19T10:31:57Z</time>
      </trkpt>
      <trkpt lat="42.64537" lon="1.68362">
        <ele>2366.843</ele>
        <time>2021-07-19T10:31:59Z</time>
      </trkpt>
      <trkpt lat="42.64535" lon="1.68362">
        <ele>2365.929</ele>
        <time>2021-07-19T10:32:01Z</time>
      </trkpt>
      <trkpt lat="42.64534" lon="1.68361">
        <ele>2365.675</ele>
        <time>2021-07-19T10:32:03Z</time>
      </trkpt>
      <trkpt lat="42.64533" lon="1.68361">
        <ele>2366.031</ele>
        <time>2021-07-19T10:32:04Z</time>
      </trkpt>
      <trkpt lat="42.6453" lon="1.6836">
        <ele>2366.151</ele>
        <time>2021-07-19T10:32:07Z</time>
      </trkpt>
      <trkpt lat="42.64529" lon="1.68359">
        <ele>2366.392</ele>
        <time>2021-07-19T10:32:09Z</time>
      </trkpt>
      <trkpt lat="42.64527" lon="1.68358">
        <ele>2366.615</ele>
        <time>2021-07-19T10:32:11Z</time>
      </trkpt>
      <trkpt lat="42.64526" lon="1.68357">
        <ele>2366.708</ele>
        <time>2021-07-19T10:32:13Z</time>
      </trkpt>
      <trkpt lat="42.64525" lon="1.68356">
        <ele>2367.576</ele>
        <time>2021-07-19T10:32:15Z</time>
      </trkpt>
      <trkpt lat="42.64524" lon="1.68354">
        <ele>2367.137</ele>
        <time>2021-07-19T10:32:17Z</time>
      </trkpt>
      <trkpt lat="42.64523" lon="1.68353">
        <ele>2368.016</ele>
        <time>2021-07-19T10:32:19Z</time>
      </trkpt>
      <trkpt lat="42.64522" lon="1.68352">
        <ele>2368.477</ele>
        <time>2021-07-19T10:32:21Z</time>
      </trkpt>
      <trkpt lat="42.64521" lon="1.6835">
        <ele>2369.414</ele>
        <time>2021-07-19T10:32:23Z</time>
      </trkpt>
      <trkpt lat="42.64521" lon="1.68348">
        <ele>2370.586</ele>
        <time>2021-07-19T10:32:25Z</time>
      </trkpt>
      <trkpt lat="42.6452" lon="1.68346">
        <ele>2370.645</ele>
        <time>2021-07-19T10:32:27Z</time>
      </trkpt>
      <trkpt lat="42.6452" lon="1.68344">
        <ele>2371.209</ele>
        <time>2021-07-19T10:32:29Z</time>
      </trkpt>
      <trkpt lat="42.6452" lon="1.68344">
        <ele>2371.041</ele>
        <time>2021-07-19T10:32:31Z</time>
      </trkpt>
      <trkpt lat="42.6452" lon="1.68344">
        <ele>2371.045</ele>
        <time>2021-07-19T10:32:33Z</time>
      </trkpt>
      <trkpt lat="42.6452" lon="1.68344">
        <ele>2371.048</ele>
        <time>2021-07-19T10:32:35Z</time>
      </trkpt>
      <trkpt lat="42.6452" lon="1.68344">
        <ele>2371.049</ele>
        <time>2021-07-19T10:32:37Z</time>
      </trkpt>
      <trkpt lat="42.6452" lon="1.68344">
        <ele>2371.048</ele>
        <time>2021-07-19T10:32:39Z</time>
      </trkpt>
      <trkpt lat="42.6452" lon="1.68344">
        <ele>2371.046</ele>
        <time>2021-07-19T10:32:41Z</time>
      </trkpt>
      <trkpt lat="42.6452" lon="1.68344">
        <ele>2371.039</ele>
        <time>2021-07-19T10:32:43Z</time>
      </trkpt>
      <trkpt lat="42.6452" lon="1.68344">
        <ele>2371.034</ele>
        <time>2021-07-19T10:32:45Z</time>
      </trkpt>
      <trkpt lat="42.6452" lon="1.68344">
        <ele>2371.036</ele>
        <time>2021-07-19T10:32:47Z</time>
      </trkpt>
      <trkpt lat="42.6452" lon="1.68344">
        <ele>2371.031</ele>
        <time>2021-07-19T10:32:49Z</time>
      </trkpt>
      <trkpt lat="42.6452" lon="1.68344">
        <ele>2371.03</ele>
        <time>2021-07-19T10:32:51Z</time>
      </trkpt>
      <trkpt lat="42.6452" lon="1.68344">
        <ele>2371.028</ele>
        <time>2021-07-19T10:32:53Z</time>
      </trkpt>
      <trkpt lat="42.6452" lon="1.68344">
        <ele>2371.029</ele>
        <time>2021-07-19T10:32:55Z</time>
      </trkpt>
      <trkpt lat="42.6452" lon="1.68344">
        <ele>2371.031</ele>
        <time>2021-07-19T10:32:57Z</time>
      </trkpt>
      <trkpt lat="42.6452" lon="1.68344">
        <ele>2371.034</ele>
        <time>2021-07-19T10:32:59Z</time>
      </trkpt>
      <trkpt lat="42.6452" lon="1.68344">
        <ele>2371.028</ele>
        <time>2021-07-19T10:33:01Z</time>
      </trkpt>
      <trkpt lat="42.6452" lon="1.68344">
        <ele>2371.027</ele>
        <time>2021-07-19T10:33:03Z</time>
      </trkpt>
      <trkpt lat="42.6452" lon="1.68344">
        <ele>2371.479</ele>
        <time>2021-07-19T10:33:05Z</time>
      </trkpt>
      <trkpt lat="42.6452" lon="1.68344">
        <ele>2371.476</ele>
        <time>2021-07-19T10:33:07Z</time>
      </trkpt>
      <trkpt lat="42.6452" lon="1.68344">
        <ele>2371.483</ele>
        <time>2021-07-19T10:33:09Z</time>
      </trkpt>
      <trkpt lat="42.6452" lon="1.68344">
        <ele>2371.479</ele>
        <time>2021-07-19T10:33:11Z</time>
      </trkpt>
      <trkpt lat="42.6452" lon="1.68344">
        <ele>2371.476</ele>
        <time>2021-07-19T10:33:13Z</time>
      </trkpt>
      <trkpt lat="42.6452" lon="1.68344">
        <ele>2371.48</ele>
        <time>2021-07-19T10:33:15Z</time>
      </trkpt>
      <trkpt lat="42.6452" lon="1.68344">
        <ele>2371.474</ele>
        <time>2021-07-19T10:33:17Z</time>
      </trkpt>
      <trkpt lat="42.6452" lon="1.68343">
        <ele>2371.538</ele>
        <time>2021-07-19T10:33:19Z</time>
      </trkpt>
      <trkpt lat="42.6452" lon="1.68343">
        <ele>2371.469</ele>
        <time>2021-07-19T10:33:21Z</time>
      </trkpt>
      <trkpt lat="42.6452" lon="1.68343">
        <ele>2371.478</ele>
        <time>2021-07-19T10:33:23Z</time>
      </trkpt>
      <trkpt lat="42.6452" lon="1.68343">
        <ele>2371.475</ele>
        <time>2021-07-19T10:33:25Z</time>
      </trkpt>
      <trkpt lat="42.6452" lon="1.68343">
        <ele>2371.475</ele>
        <time>2021-07-19T10:33:27Z</time>
      </trkpt>
      <trkpt lat="42.6452" lon="1.68343">
        <ele>2371.473</ele>
        <time>2021-07-19T10:33:29Z</time>
      </trkpt>
      <trkpt lat="42.6452" lon="1.68343">
        <ele>2371.477</ele>
        <time>2021-07-19T10:33:31Z</time>
      </trkpt>
      <trkpt lat="42.6452" lon="1.68343">
        <ele>2371.483</ele>
        <time>2021-07-19T10:33:33Z</time>
      </trkpt>
      <trkpt lat="42.6452" lon="1.68343">
        <ele>2371.488</ele>
        <time>2021-07-19T10:33:35Z</time>
      </trkpt>
      <trkpt lat="42.6452" lon="1.68343">
        <ele>2371.858</ele>
        <time>2021-07-19T10:33:37Z</time>
      </trkpt>
      <trkpt lat="42.6452" lon="1.68344">
        <ele>2372.067</ele>
        <time>2021-07-19T10:33:39Z</time>
      </trkpt>
      <trkpt lat="42.64521" lon="1.68345">
        <ele>2371.336</ele>
        <time>2021-07-19T10:33:41Z</time>
      </trkpt>
      <trkpt lat="42.64521" lon="1.68344">
        <ele>2371.309</ele>
        <time>2021-07-19T10:33:43Z</time>
      </trkpt>
      <trkpt lat="42.64521" lon="1.68344">
        <ele>2371.467</ele>
        <time>2021-07-19T10:33:45Z</time>
      </trkpt>
      <trkpt lat="42.64521" lon="1.68344">
        <ele>2371.465</ele>
        <time>2021-07-19T10:33:47Z</time>
      </trkpt>
      <trkpt lat="42.64521" lon="1.68344">
        <ele>2371.461</ele>
        <time>2021-07-19T10:33:49Z</time>
      </trkpt>
      <trkpt lat="42.64521" lon="1.68344">
        <ele>2371.46</ele>
        <time>2021-07-19T10:33:51Z</time>
      </trkpt>
      <trkpt lat="42.64521" lon="1.68344">
        <ele>2371.162</ele>
        <time>2021-07-19T10:33:53Z</time>
      </trkpt>
      <trkpt lat="42.64521" lon="1.68344">
        <ele>2371.522</ele>
        <time>2021-07-19T10:33:55Z</time>
      </trkpt>
      <trkpt lat="42.64521" lon="1.68344">
        <ele>2371.528</ele>
        <time>2021-07-19T10:33:57Z</time>
      </trkpt>
      <trkpt lat="42.64521" lon="1.68344">
        <ele>2371.526</ele>
        <time>2021-07-19T10:33:59Z</time>
      </trkpt>
      <trkpt lat="42.64521" lon="1.68344">
        <ele>2371.518</ele>
        <time>2021-07-19T10:34:01Z</time>
      </trkpt>
      <trkpt lat="42.64521" lon="1.68344">
        <ele>2371.516</ele>
        <time>2021-07-19T10:34:03Z</time>
      </trkpt>
      <trkpt lat="42.64521" lon="1.68344">
        <ele>2371.516</ele>
        <time>2021-07-19T10:34:05Z</time>
      </trkpt>
      <trkpt lat="42.64521" lon="1.68344">
        <ele>2371.515</ele>
        <time>2021-07-19T10:34:07Z</time>
      </trkpt>
      <trkpt lat="42.64521" lon="1.68344">
        <ele>2371.514</ele>
        <time>2021-07-19T10:34:09Z</time>
      </trkpt>
      <trkpt lat="42.64521" lon="1.68344">
        <ele>2371.509</ele>
        <time>2021-07-19T10:34:11Z</time>
      </trkpt>
      <trkpt lat="42.64521" lon="1.68344">
        <ele>2371.512</ele>
        <time>2021-07-19T10:34:13Z</time>
      </trkpt>
      <trkpt lat="42.64521" lon="1.68344">
        <ele>2371.509</ele>
        <time>2021-07-19T10:34:15Z</time>
      </trkpt>
      <trkpt lat="42.64521" lon="1.68344">
        <ele>2371.295</ele>
        <time>2021-07-19T10:34:17Z</time>
      </trkpt>
      <trkpt lat="42.64521" lon="1.68344">
        <ele>2371.29</ele>
        <time>2021-07-19T10:34:19Z</time>
      </trkpt>
      <trkpt lat="42.64521" lon="1.68344">
        <ele>2371.171</ele>
        <time>2021-07-19T10:34:21Z</time>
      </trkpt>
      <trkpt lat="42.6452" lon="1.68343">
        <ele>2371.5</ele>
        <time>2021-07-19T10:34:23Z</time>
      </trkpt>
      <trkpt lat="42.6452" lon="1.68344">
        <ele>2371.82</ele>
        <time>2021-07-19T10:34:25Z</time>
      </trkpt>
      <trkpt lat="42.6452" lon="1.68344">
        <ele>2371.809</ele>
        <time>2021-07-19T10:34:27Z</time>
      </trkpt>
      <trkpt lat="42.6452" lon="1.68343">
        <ele>2372.069</ele>
        <time>2021-07-19T10:34:29Z</time>
      </trkpt>
      <trkpt lat="42.6452" lon="1.68343">
        <ele>2371.896</ele>
        <time>2021-07-19T10:34:31Z</time>
      </trkpt>
      <trkpt lat="42.6452" lon="1.68344">
        <ele>2371.575</ele>
        <time>2021-07-19T10:34:33Z</time>
      </trkpt>
      <trkpt lat="42.6452" lon="1.68345">
        <ele>2371.449</ele>
        <time>2021-07-19T10:34:35Z</time>
      </trkpt>
      <trkpt lat="42.6452" lon="1.68345">
        <ele>2371.679</ele>
        <time>2021-07-19T10:34:37Z</time>
      </trkpt>
      <trkpt lat="42.6452" lon="1.68346">
        <ele>2371.631</ele>
        <time>2021-07-19T10:34:39Z</time>
      </trkpt>
      <trkpt lat="42.64519" lon="1.68346">
        <ele>2371.346</ele>
        <time>2021-07-19T10:34:41Z</time>
      </trkpt>
      <trkpt lat="42.64519" lon="1.68346">
        <ele>2371.344</ele>
        <time>2021-07-19T10:34:43Z</time>
      </trkpt>
      <trkpt lat="42.64519" lon="1.68346">
        <ele>2371.342</ele>
        <time>2021-07-19T10:34:45Z</time>
      </trkpt>
      <trkpt lat="42.64519" lon="1.68346">
        <ele>2371.344</ele>
        <time>2021-07-19T10:34:47Z</time>
      </trkpt>
      <trkpt lat="42.64519" lon="1.68346">
        <ele>2371.786</ele>
        <time>2021-07-19T10:34:49Z</time>
      </trkpt>
      <trkpt lat="42.64519" lon="1.68345">
        <ele>2371.88</ele>
        <time>2021-07-19T10:34:51Z</time>
      </trkpt>
      <trkpt lat="42.64519" lon="1.68346">
        <ele>2371.57</ele>
        <time>2021-07-19T10:34:53Z</time>
      </trkpt>
      <trkpt lat="42.64519" lon="1.68346">
        <ele>2371.588</ele>
        <time>2021-07-19T10:34:55Z</time>
      </trkpt>
      <trkpt lat="42.64519" lon="1.68346">
        <ele>2371.498</ele>
        <time>2021-07-19T10:34:57Z</time>
      </trkpt>
      <trkpt lat="42.6452" lon="1.68346">
        <ele>2371.799</ele>
        <time>2021-07-19T10:34:59Z</time>
      </trkpt>
      <trkpt lat="42.6452" lon="1.68346">
        <ele>2371.796</ele>
        <time>2021-07-19T10:35:01Z</time>
      </trkpt>
      <trkpt lat="42.6452" lon="1.68346">
        <ele>2371.793</ele>
        <time>2021-07-19T10:35:03Z</time>
      </trkpt>
      <trkpt lat="42.6452" lon="1.68346">
        <ele>2371.792</ele>
        <time>2021-07-19T10:35:05Z</time>
      </trkpt>
      <trkpt lat="42.6452" lon="1.68346">
        <ele>2371.791</ele>
        <time>2021-07-19T10:35:07Z</time>
      </trkpt>
      <trkpt lat="42.6452" lon="1.68346">
        <ele>2371.791</ele>
        <time>2021-07-19T10:35:09Z</time>
      </trkpt>
      <trkpt lat="42.6452" lon="1.68346">
        <ele>2371.796</ele>
        <time>2021-07-19T10:35:11Z</time>
      </trkpt>
      <trkpt lat="42.6452" lon="1.68346">
        <ele>2371.799</ele>
        <time>2021-07-19T10:35:13Z</time>
      </trkpt>
      <trkpt lat="42.6452" lon="1.68346">
        <ele>2371.802</ele>
        <time>2021-07-19T10:35:15Z</time>
      </trkpt>
      <trkpt lat="42.6452" lon="1.68346">
        <ele>2371.802</ele>
        <time>2021-07-19T10:35:17Z</time>
      </trkpt>
      <trkpt lat="42.6452" lon="1.68346">
        <ele>2371.664</ele>
        <time>2021-07-19T10:35:19Z</time>
      </trkpt>
      <trkpt lat="42.6452" lon="1.68346">
        <ele>2371.664</ele>
        <time>2021-07-19T10:35:21Z</time>
      </trkpt>
      <trkpt lat="42.6452" lon="1.68346">
        <ele>2371.664</ele>
        <time>2021-07-19T10:35:23Z</time>
      </trkpt>
      <trkpt lat="42.6452" lon="1.68346">
        <ele>2371.668</ele>
        <time>2021-07-19T10:35:25Z</time>
      </trkpt>
      <trkpt lat="42.6452" lon="1.68346">
        <ele>2371.668</ele>
        <time>2021-07-19T10:35:27Z</time>
      </trkpt>
      <trkpt lat="42.6452" lon="1.68346">
        <ele>2371.673</ele>
        <time>2021-07-19T10:35:29Z</time>
      </trkpt>
      <trkpt lat="42.6452" lon="1.68346">
        <ele>2371.628</ele>
        <time>2021-07-19T10:35:31Z</time>
      </trkpt>
      <trkpt lat="42.6452" lon="1.68345">
        <ele>2371.783</ele>
        <time>2021-07-19T10:35:33Z</time>
      </trkpt>
      <trkpt lat="42.6452" lon="1.68344">
        <ele>2371.947</ele>
        <time>2021-07-19T10:35:35Z</time>
      </trkpt>
      <trkpt lat="42.6452" lon="1.68344">
        <ele>2372.017</ele>
        <time>2021-07-19T10:35:37Z</time>
      </trkpt>
      <trkpt lat="42.6452" lon="1.68344">
        <ele>2372.013</ele>
        <time>2021-07-19T10:35:39Z</time>
      </trkpt>
      <trkpt lat="42.64521" lon="1.68344">
        <ele>2372.702</ele>
        <time>2021-07-19T10:35:41Z</time>
      </trkpt>
      <trkpt lat="42.6452" lon="1.68344">
        <ele>2372.687</ele>
        <time>2021-07-19T10:35:43Z</time>
      </trkpt>
      <trkpt lat="42.6452" lon="1.68344">
        <ele>2372.683</ele>
        <time>2021-07-19T10:35:45Z</time>
      </trkpt>
      <trkpt lat="42.6452" lon="1.68344">
        <ele>2372.722</ele>
        <time>2021-07-19T10:35:47Z</time>
      </trkpt>
      <trkpt lat="42.6452" lon="1.68344">
        <ele>2372.481</ele>
        <time>2021-07-19T10:35:49Z</time>
      </trkpt>
      <trkpt lat="42.6452" lon="1.68344">
        <ele>2372.485</ele>
        <time>2021-07-19T10:35:51Z</time>
      </trkpt>
      <trkpt lat="42.6452" lon="1.68344">
        <ele>2372.487</ele>
        <time>2021-07-19T10:35:53Z</time>
      </trkpt>
      <trkpt lat="42.6452" lon="1.68344">
        <ele>2372.49</ele>
        <time>2021-07-19T10:35:55Z</time>
      </trkpt>
      <trkpt lat="42.6452" lon="1.68344">
        <ele>2372.5</ele>
        <time>2021-07-19T10:35:57Z</time>
      </trkpt>
      <trkpt lat="42.6452" lon="1.68344">
        <ele>2372.504</ele>
        <time>2021-07-19T10:35:59Z</time>
      </trkpt>
      <trkpt lat="42.6452" lon="1.68344">
        <ele>2372.506</ele>
        <time>2021-07-19T10:36:01Z</time>
      </trkpt>
      <trkpt lat="42.6452" lon="1.68344">
        <ele>2372.534</ele>
        <time>2021-07-19T10:36:03Z</time>
      </trkpt>
      <trkpt lat="42.6452" lon="1.68344">
        <ele>2372.453</ele>
        <time>2021-07-19T10:36:05Z</time>
      </trkpt>
      <trkpt lat="42.6452" lon="1.68344">
        <ele>2372.454</ele>
        <time>2021-07-19T10:36:07Z</time>
      </trkpt>
      <trkpt lat="42.6452" lon="1.68344">
        <ele>2372.451</ele>
        <time>2021-07-19T10:36:09Z</time>
      </trkpt>
      <trkpt lat="42.6452" lon="1.68344">
        <ele>2372.453</ele>
        <time>2021-07-19T10:36:11Z</time>
      </trkpt>
      <trkpt lat="42.6452" lon="1.68344">
        <ele>2372.453</ele>
        <time>2021-07-19T10:36:13Z</time>
      </trkpt>
      <trkpt lat="42.6452" lon="1.68344">
        <ele>2372.45</ele>
        <time>2021-07-19T10:36:15Z</time>
      </trkpt>
      <trkpt lat="42.6452" lon="1.68344">
        <ele>2372.452</ele>
        <time>2021-07-19T10:36:17Z</time>
      </trkpt>
      <trkpt lat="42.6452" lon="1.68344">
        <ele>2372.452</ele>
        <time>2021-07-19T10:36:19Z</time>
      </trkpt>
      <trkpt lat="42.6452" lon="1.68344">
        <ele>2372.453</ele>
        <time>2021-07-19T10:36:21Z</time>
      </trkpt>
      <trkpt lat="42.6452" lon="1.68344">
        <ele>2372.453</ele>
        <time>2021-07-19T10:36:23Z</time>
      </trkpt>
      <trkpt lat="42.6452" lon="1.68344">
        <ele>2372.456</ele>
        <time>2021-07-19T10:36:25Z</time>
      </trkpt>
      <trkpt lat="42.6452" lon="1.68344">
        <ele>2372.457</ele>
        <time>2021-07-19T10:36:27Z</time>
      </trkpt>
      <trkpt lat="42.6452" lon="1.68344">
        <ele>2372.46</ele>
        <time>2021-07-19T10:36:29Z</time>
      </trkpt>
      <trkpt lat="42.6452" lon="1.68344">
        <ele>2372.461</ele>
        <time>2021-07-19T10:36:31Z</time>
      </trkpt>
      <trkpt lat="42.6452" lon="1.68344">
        <ele>2372.466</ele>
        <time>2021-07-19T10:36:33Z</time>
      </trkpt>
      <trkpt lat="42.6452" lon="1.68344">
        <ele>2372.467</ele>
        <time>2021-07-19T10:36:35Z</time>
      </trkpt>
      <trkpt lat="42.6452" lon="1.68344">
        <ele>2372.463</ele>
        <time>2021-07-19T10:36:37Z</time>
      </trkpt>
      <trkpt lat="42.6452" lon="1.68344">
        <ele>2372.455</ele>
        <time>2021-07-19T10:36:39Z</time>
      </trkpt>
      <trkpt lat="42.6452" lon="1.68344">
        <ele>2372.445</ele>
        <time>2021-07-19T10:36:41Z</time>
      </trkpt>
      <trkpt lat="42.6452" lon="1.68344">
        <ele>2372.438</ele>
        <time>2021-07-19T10:36:43Z</time>
      </trkpt>
      <trkpt lat="42.6452" lon="1.68344">
        <ele>2372.434</ele>
        <time>2021-07-19T10:36:45Z</time>
      </trkpt>
      <trkpt lat="42.6452" lon="1.68344">
        <ele>2372.39</ele>
        <time>2021-07-19T10:36:47Z</time>
      </trkpt>
      <trkpt lat="42.6452" lon="1.68344">
        <ele>2372.339</ele>
        <time>2021-07-19T10:36:49Z</time>
      </trkpt>
      <trkpt lat="42.6452" lon="1.68344">
        <ele>2372.333</ele>
        <time>2021-07-19T10:36:51Z</time>
      </trkpt>
      <trkpt lat="42.6452" lon="1.68344">
        <ele>2372.333</ele>
        <time>2021-07-19T10:36:53Z</time>
      </trkpt>
      <trkpt lat="42.6452" lon="1.68344">
        <ele>2372.334</ele>
        <time>2021-07-19T10:36:55Z</time>
      </trkpt>
      <trkpt lat="42.6452" lon="1.68344">
        <ele>2372.336</ele>
        <time>2021-07-19T10:36:57Z</time>
      </trkpt>
      <trkpt lat="42.6452" lon="1.68344">
        <ele>2372.34</ele>
        <time>2021-07-19T10:36:59Z</time>
      </trkpt>
      <trkpt lat="42.6452" lon="1.68344">
        <ele>2372.342</ele>
        <time>2021-07-19T10:37:01Z</time>
      </trkpt>
      <trkpt lat="42.6452" lon="1.68343">
        <ele>2372.326</ele>
        <time>2021-07-19T10:37:03Z</time>
      </trkpt>
      <trkpt lat="42.6452" lon="1.68343">
        <ele>2372.338</ele>
        <time>2021-07-19T10:37:05Z</time>
      </trkpt>
      <trkpt lat="42.6452" lon="1.68343">
        <ele>2372.3</ele>
        <time>2021-07-19T10:37:07Z</time>
      </trkpt>
      <trkpt lat="42.6452" lon="1.68343">
        <ele>2372.311</ele>
        <time>2021-07-19T10:37:09Z</time>
      </trkpt>
      <trkpt lat="42.6452" lon="1.68343">
        <ele>2372.313</ele>
        <time>2021-07-19T10:37:11Z</time>
      </trkpt>
      <trkpt lat="42.6452" lon="1.68342">
        <ele>2372.311</ele>
        <time>2021-07-19T10:37:13Z</time>
      </trkpt>
      <trkpt lat="42.6452" lon="1.68342">
        <ele>2372.31</ele>
        <time>2021-07-19T10:37:15Z</time>
      </trkpt>
      <trkpt lat="42.6452" lon="1.68342">
        <ele>2372.303</ele>
        <time>2021-07-19T10:37:17Z</time>
      </trkpt>
      <trkpt lat="42.6452" lon="1.68342">
        <ele>2372.294</ele>
        <time>2021-07-19T10:37:19Z</time>
      </trkpt>
      <trkpt lat="42.6452" lon="1.68342">
        <ele>2372.286</ele>
        <time>2021-07-19T10:37:21Z</time>
      </trkpt>
      <trkpt lat="42.6452" lon="1.68342">
        <ele>2372.293</ele>
        <time>2021-07-19T10:37:23Z</time>
      </trkpt>
      <trkpt lat="42.6452" lon="1.68342">
        <ele>2372.299</ele>
        <time>2021-07-19T10:37:25Z</time>
      </trkpt>
      <trkpt lat="42.6452" lon="1.68342">
        <ele>2372.301</ele>
        <time>2021-07-19T10:37:27Z</time>
      </trkpt>
      <trkpt lat="42.6452" lon="1.68342">
        <ele>2372.391</ele>
        <time>2021-07-19T10:37:29Z</time>
      </trkpt>
      <trkpt lat="42.6452" lon="1.68342">
        <ele>2372.446</ele>
        <time>2021-07-19T10:37:31Z</time>
      </trkpt>
      <trkpt lat="42.6452" lon="1.68342">
        <ele>2372.457</ele>
        <time>2021-07-19T10:37:33Z</time>
      </trkpt>
      <trkpt lat="42.6452" lon="1.68342">
        <ele>2372.462</ele>
        <time>2021-07-19T10:37:35Z</time>
      </trkpt>
      <trkpt lat="42.6452" lon="1.68342">
        <ele>2372.466</ele>
        <time>2021-07-19T10:37:37Z</time>
      </trkpt>
      <trkpt lat="42.6452" lon="1.68342">
        <ele>2372.472</ele>
        <time>2021-07-19T10:37:39Z</time>
      </trkpt>
      <trkpt lat="42.6452" lon="1.68342">
        <ele>2372.476</ele>
        <time>2021-07-19T10:37:41Z</time>
      </trkpt>
      <trkpt lat="42.6452" lon="1.68342">
        <ele>2372.481</ele>
        <time>2021-07-19T10:37:43Z</time>
      </trkpt>
      <trkpt lat="42.6452" lon="1.68342">
        <ele>2372.488</ele>
        <time>2021-07-19T10:37:45Z</time>
      </trkpt>
      <trkpt lat="42.6452" lon="1.68342">
        <ele>2372.335</ele>
        <time>2021-07-19T10:37:47Z</time>
      </trkpt>
      <trkpt lat="42.6452" lon="1.68342">
        <ele>2371.941</ele>
        <time>2021-07-19T10:37:49Z</time>
      </trkpt>
      <trkpt lat="42.6452" lon="1.68342">
        <ele>2371.938</ele>
        <time>2021-07-19T10:37:51Z</time>
      </trkpt>
      <trkpt lat="42.6452" lon="1.68342">
        <ele>2371.927</ele>
        <time>2021-07-19T10:37:53Z</time>
      </trkpt>
      <trkpt lat="42.6452" lon="1.68342">
        <ele>2371.919</ele>
        <time>2021-07-19T10:37:55Z</time>
      </trkpt>
      <trkpt lat="42.6452" lon="1.68342">
        <ele>2371.918</ele>
        <time>2021-07-19T10:37:57Z</time>
      </trkpt>
      <trkpt lat="42.6452" lon="1.68342">
        <ele>2371.917</ele>
        <time>2021-07-19T10:37:59Z</time>
      </trkpt>
      <trkpt lat="42.6452" lon="1.68343">
        <ele>2371.915</ele>
        <time>2021-07-19T10:38:01Z</time>
      </trkpt>
      <trkpt lat="42.64519" lon="1.68343">
        <ele>2372.07</ele>
        <time>2021-07-19T10:38:03Z</time>
      </trkpt>
      <trkpt lat="42.64519" lon="1.68343">
        <ele>2372.057</ele>
        <time>2021-07-19T10:38:05Z</time>
      </trkpt>
      <trkpt lat="42.64519" lon="1.68343">
        <ele>2372.049</ele>
        <time>2021-07-19T10:38:07Z</time>
      </trkpt>
      <trkpt lat="42.64519" lon="1.68343">
        <ele>2372.031</ele>
        <time>2021-07-19T10:38:09Z</time>
      </trkpt>
      <trkpt lat="42.64519" lon="1.68343">
        <ele>2372.019</ele>
        <time>2021-07-19T10:38:11Z</time>
      </trkpt>
      <trkpt lat="42.64519" lon="1.68343">
        <ele>2372.015</ele>
        <time>2021-07-19T10:38:13Z</time>
      </trkpt>
      <trkpt lat="42.64519" lon="1.68343">
        <ele>2372.008</ele>
        <time>2021-07-19T10:38:15Z</time>
      </trkpt>
      <trkpt lat="42.64519" lon="1.68343">
        <ele>2372.008</ele>
        <time>2021-07-19T10:38:17Z</time>
      </trkpt>
      <trkpt lat="42.64519" lon="1.68343">
        <ele>2372.009</ele>
        <time>2021-07-19T10:38:19Z</time>
      </trkpt>
      <trkpt lat="42.64519" lon="1.68343">
        <ele>2372.012</ele>
        <time>2021-07-19T10:38:21Z</time>
      </trkpt>
      <trkpt lat="42.64519" lon="1.68343">
        <ele>2372.016</ele>
        <time>2021-07-19T10:38:23Z</time>
      </trkpt>
      <trkpt lat="42.64519" lon="1.68343">
        <ele>2372.014</ele>
        <time>2021-07-19T10:38:25Z</time>
      </trkpt>
      <trkpt lat="42.64519" lon="1.68344">
        <ele>2372.225</ele>
        <time>2021-07-19T10:38:27Z</time>
      </trkpt>
      <trkpt lat="42.6452" lon="1.68345">
        <ele>2372.56</ele>
        <time>2021-07-19T10:38:29Z</time>
      </trkpt>
      <trkpt lat="42.6452" lon="1.68346">
        <ele>2372.354</ele>
        <time>2021-07-19T10:38:31Z</time>
      </trkpt>
      <trkpt lat="42.64519" lon="1.68346">
        <ele>2372.278</ele>
        <time>2021-07-19T10:38:33Z</time>
      </trkpt>
      <trkpt lat="42.64519" lon="1.68346">
        <ele>2372.281</ele>
        <time>2021-07-19T10:38:35Z</time>
      </trkpt>
      <trkpt lat="42.64519" lon="1.68346">
        <ele>2372.28</ele>
        <time>2021-07-19T10:38:37Z</time>
      </trkpt>
      <trkpt lat="42.64519" lon="1.68345">
        <ele>2372.302</ele>
        <time>2021-07-19T10:38:39Z</time>
      </trkpt>
      <trkpt lat="42.64519" lon="1.68345">
        <ele>2372.308</ele>
        <time>2021-07-19T10:38:41Z</time>
      </trkpt>
      <trkpt lat="42.64519" lon="1.68345">
        <ele>2372.306</ele>
        <time>2021-07-19T10:38:43Z</time>
      </trkpt>
      <trkpt lat="42.64519" lon="1.68345">
        <ele>2372.303</ele>
        <time>2021-07-19T10:38:45Z</time>
      </trkpt>
      <trkpt lat="42.64519" lon="1.68345">
        <ele>2372.307</ele>
        <time>2021-07-19T10:38:47Z</time>
      </trkpt>
      <trkpt lat="42.64519" lon="1.68345">
        <ele>2372.24</ele>
        <time>2021-07-19T10:38:49Z</time>
      </trkpt>
      <trkpt lat="42.6452" lon="1.68345">
        <ele>2372.242</ele>
        <time>2021-07-19T10:38:51Z</time>
      </trkpt>
      <trkpt lat="42.6452" lon="1.68345">
        <ele>2372.246</ele>
        <time>2021-07-19T10:38:53Z</time>
      </trkpt>
      <trkpt lat="42.6452" lon="1.68345">
        <ele>2372.246</ele>
        <time>2021-07-19T10:38:55Z</time>
      </trkpt>
      <trkpt lat="42.6452" lon="1.68345">
        <ele>2372.249</ele>
        <time>2021-07-19T10:38:57Z</time>
      </trkpt>
      <trkpt lat="42.6452" lon="1.68345">
        <ele>2372.254</ele>
        <time>2021-07-19T10:38:59Z</time>
      </trkpt>
      <trkpt lat="42.64519" lon="1.68345">
        <ele>2372.429</ele>
        <time>2021-07-19T10:39:01Z</time>
      </trkpt>
      <trkpt lat="42.64519" lon="1.68345">
        <ele>2372.43</ele>
        <time>2021-07-19T10:39:03Z</time>
      </trkpt>
      <trkpt lat="42.64519" lon="1.68345">
        <ele>2372.43</ele>
        <time>2021-07-19T10:39:05Z</time>
      </trkpt>
      <trkpt lat="42.64519" lon="1.68345">
        <ele>2372.435</ele>
        <time>2021-07-19T10:39:07Z</time>
      </trkpt>
      <trkpt lat="42.6452" lon="1.68345">
        <ele>2372.638</ele>
        <time>2021-07-19T10:39:09Z</time>
      </trkpt>
      <trkpt lat="42.6452" lon="1.68346">
        <ele>2372.635</ele>
        <time>2021-07-19T10:39:11Z</time>
      </trkpt>
      <trkpt lat="42.6452" lon="1.68346">
        <ele>2372.643</ele>
        <time>2021-07-19T10:39:13Z</time>
      </trkpt>
      <trkpt lat="42.6452" lon="1.68346">
        <ele>2372.644</ele>
        <time>2021-07-19T10:39:15Z</time>
      </trkpt>
      <trkpt lat="42.6452" lon="1.68346">
        <ele>2372.645</ele>
        <time>2021-07-19T10:39:17Z</time>
      </trkpt>
      <trkpt lat="42.6452" lon="1.68346">
        <ele>2372.648</ele>
        <time>2021-07-19T10:39:19Z</time>
      </trkpt>
      <trkpt lat="42.6452" lon="1.68346">
        <ele>2372.651</ele>
        <time>2021-07-19T10:39:21Z</time>
      </trkpt>
      <trkpt lat="42.6452" lon="1.68346">
        <ele>2372.652</ele>
        <time>2021-07-19T10:39:23Z</time>
      </trkpt>
      <trkpt lat="42.6452" lon="1.68346">
        <ele>2372.656</ele>
        <time>2021-07-19T10:39:25Z</time>
      </trkpt>
      <trkpt lat="42.6452" lon="1.68346">
        <ele>2372.657</ele>
        <time>2021-07-19T10:39:27Z</time>
      </trkpt>
      <trkpt lat="42.6452" lon="1.68346">
        <ele>2372.662</ele>
        <time>2021-07-19T10:39:29Z</time>
      </trkpt>
      <trkpt lat="42.6452" lon="1.68346">
        <ele>2372.663</ele>
        <time>2021-07-19T10:39:31Z</time>
      </trkpt>
      <trkpt lat="42.6452" lon="1.68346">
        <ele>2372.707</ele>
        <time>2021-07-19T10:39:33Z</time>
      </trkpt>
      <trkpt lat="42.6452" lon="1.68346">
        <ele>2372.699</ele>
        <time>2021-07-19T10:39:35Z</time>
      </trkpt>
      <trkpt lat="42.6452" lon="1.68346">
        <ele>2372.7</ele>
        <time>2021-07-19T10:39:37Z</time>
      </trkpt>
      <trkpt lat="42.6452" lon="1.68346">
        <ele>2372.695</ele>
        <time>2021-07-19T10:39:39Z</time>
      </trkpt>
      <trkpt lat="42.6452" lon="1.68346">
        <ele>2372.693</ele>
        <time>2021-07-19T10:39:41Z</time>
      </trkpt>
      <trkpt lat="42.6452" lon="1.68346">
        <ele>2372.694</ele>
        <time>2021-07-19T10:39:43Z</time>
      </trkpt>
      <trkpt lat="42.64519" lon="1.68346">
        <ele>2372.9</ele>
        <time>2021-07-19T10:39:45Z</time>
      </trkpt>
      <trkpt lat="42.64519" lon="1.68346">
        <ele>2373.139</ele>
        <time>2021-07-19T10:39:47Z</time>
      </trkpt>
      <trkpt lat="42.64519" lon="1.68346">
        <ele>2373.139</ele>
        <time>2021-07-19T10:39:49Z</time>
      </trkpt>
      <trkpt lat="42.64519" lon="1.68346">
        <ele>2372.836</ele>
        <time>2021-07-19T10:39:51Z</time>
      </trkpt>
      <trkpt lat="42.64519" lon="1.68346">
        <ele>2372.829</ele>
        <time>2021-07-19T10:39:53Z</time>
      </trkpt>
      <trkpt lat="42.64519" lon="1.68346">
        <ele>2372.648</ele>
        <time>2021-07-19T10:39:55Z</time>
      </trkpt>
      <trkpt lat="42.64519" lon="1.68346">
        <ele>2372.652</ele>
        <time>2021-07-19T10:39:57Z</time>
      </trkpt>
      <trkpt lat="42.64519" lon="1.68346">
        <ele>2372.653</ele>
        <time>2021-07-19T10:39:59Z</time>
      </trkpt>
      <trkpt lat="42.64519" lon="1.68346">
        <ele>2372.654</ele>
        <time>2021-07-19T10:40:01Z</time>
      </trkpt>
      <trkpt lat="42.64519" lon="1.68346">
        <ele>2372.655</ele>
        <time>2021-07-19T10:40:03Z</time>
      </trkpt>
      <trkpt lat="42.64519" lon="1.68346">
        <ele>2372.656</ele>
        <time>2021-07-19T10:40:05Z</time>
      </trkpt>
      <trkpt lat="42.64519" lon="1.68346">
        <ele>2372.659</ele>
        <time>2021-07-19T10:40:07Z</time>
      </trkpt>
      <trkpt lat="42.64519" lon="1.68346">
        <ele>2372.85</ele>
        <time>2021-07-19T10:40:09Z</time>
      </trkpt>
      <trkpt lat="42.64519" lon="1.68346">
        <ele>2372.559</ele>
        <time>2021-07-19T10:40:11Z</time>
      </trkpt>
      <trkpt lat="42.6452" lon="1.68347">
        <ele>2372.005</ele>
        <time>2021-07-19T10:40:13Z</time>
      </trkpt>
      <trkpt lat="42.6452" lon="1.68347">
        <ele>2372.276</ele>
        <time>2021-07-19T10:40:15Z</time>
      </trkpt>
      <trkpt lat="42.6452" lon="1.68346">
        <ele>2372.289</ele>
        <time>2021-07-19T10:40:17Z</time>
      </trkpt>
      <trkpt lat="42.6452" lon="1.68346">
        <ele>2372.295</ele>
        <time>2021-07-19T10:40:19Z</time>
      </trkpt>
      <trkpt lat="42.6452" lon="1.68346">
        <ele>2372.297</ele>
        <time>2021-07-19T10:40:21Z</time>
      </trkpt>
      <trkpt lat="42.6452" lon="1.68346">
        <ele>2372.3</ele>
        <time>2021-07-19T10:40:23Z</time>
      </trkpt>
      <trkpt lat="42.6452" lon="1.68346">
        <ele>2372.302</ele>
        <time>2021-07-19T10:40:25Z</time>
      </trkpt>
      <trkpt lat="42.6452" lon="1.68347">
        <ele>2372.229</ele>
        <time>2021-07-19T10:40:27Z</time>
      </trkpt>
      <trkpt lat="42.6452" lon="1.68347">
        <ele>2372.212</ele>
        <time>2021-07-19T10:40:29Z</time>
      </trkpt>
      <trkpt lat="42.6452" lon="1.68347">
        <ele>2372.208</ele>
        <time>2021-07-19T10:40:31Z</time>
      </trkpt>
      <trkpt lat="42.6452" lon="1.68346">
        <ele>2372.059</ele>
        <time>2021-07-19T10:40:33Z</time>
      </trkpt>
      <trkpt lat="42.6452" lon="1.68346">
        <ele>2371.923</ele>
        <time>2021-07-19T10:40:35Z</time>
      </trkpt>
      <trkpt lat="42.6452" lon="1.68346">
        <ele>2371.924</ele>
        <time>2021-07-19T10:40:37Z</time>
      </trkpt>
      <trkpt lat="42.6452" lon="1.68346">
        <ele>2371.925</ele>
        <time>2021-07-19T10:40:39Z</time>
      </trkpt>
      <trkpt lat="42.6452" lon="1.68346">
        <ele>2371.925</ele>
        <time>2021-07-19T10:40:41Z</time>
      </trkpt>
      <trkpt lat="42.6452" lon="1.68346">
        <ele>2371.925</ele>
        <time>2021-07-19T10:40:43Z</time>
      </trkpt>
      <trkpt lat="42.6452" lon="1.68346">
        <ele>2371.926</ele>
        <time>2021-07-19T10:40:45Z</time>
      </trkpt>
      <trkpt lat="42.6452" lon="1.68346">
        <ele>2371.927</ele>
        <time>2021-07-19T10:40:47Z</time>
      </trkpt>
      <trkpt lat="42.6452" lon="1.68346">
        <ele>2371.928</ele>
        <time>2021-07-19T10:40:49Z</time>
      </trkpt>
      <trkpt lat="42.6452" lon="1.68346">
        <ele>2371.932</ele>
        <time>2021-07-19T10:40:52Z</time>
      </trkpt>
      <trkpt lat="42.6452" lon="1.68346">
        <ele>2371.931</ele>
        <time>2021-07-19T10:40:54Z</time>
      </trkpt>
      <trkpt lat="42.6452" lon="1.68346">
        <ele>2371.93</ele>
        <time>2021-07-19T10:40:56Z</time>
      </trkpt>
      <trkpt lat="42.6452" lon="1.68346">
        <ele>2371.931</ele>
        <time>2021-07-19T10:40:58Z</time>
      </trkpt>
      <trkpt lat="42.6452" lon="1.68346">
        <ele>2371.935</ele>
        <time>2021-07-19T10:41:00Z</time>
      </trkpt>
      <trkpt lat="42.6452" lon="1.68346">
        <ele>2371.934</ele>
        <time>2021-07-19T10:41:02Z</time>
      </trkpt>
      <trkpt lat="42.6452" lon="1.68346">
        <ele>2371.933</ele>
        <time>2021-07-19T10:41:04Z</time>
      </trkpt>
      <trkpt lat="42.6452" lon="1.68346">
        <ele>2371.933</ele>
        <time>2021-07-19T10:41:06Z</time>
      </trkpt>
      <trkpt lat="42.6452" lon="1.68346">
        <ele>2371.934</ele>
        <time>2021-07-19T10:41:08Z</time>
      </trkpt>
      <trkpt lat="42.64521" lon="1.68346">
        <ele>2372.121</ele>
        <time>2021-07-19T10:41:10Z</time>
      </trkpt>
      <trkpt lat="42.6452" lon="1.68348">
        <ele>2371.886</ele>
        <time>2021-07-19T10:41:12Z</time>
      </trkpt>
      <trkpt lat="42.6452" lon="1.68349">
        <ele>2371.964</ele>
        <time>2021-07-19T10:41:14Z</time>
      </trkpt>
      <trkpt lat="42.64521" lon="1.68351">
        <ele>2371.399</ele>
        <time>2021-07-19T10:41:16Z</time>
      </trkpt>
      <trkpt lat="42.64522" lon="1.68353">
        <ele>2371.059</ele>
        <time>2021-07-19T10:41:18Z</time>
      </trkpt>
      <trkpt lat="42.64524" lon="1.68355">
        <ele>2370.742</ele>
        <time>2021-07-19T10:41:20Z</time>
      </trkpt>
      <trkpt lat="42.64525" lon="1.68356">
        <ele>2369.707</ele>
        <time>2021-07-19T10:41:22Z</time>
      </trkpt>
      <trkpt lat="42.64527" lon="1.68357">
        <ele>2369.404</ele>
        <time>2021-07-19T10:41:24Z</time>
      </trkpt>
      <trkpt lat="42.64528" lon="1.68359">
        <ele>2369.23</ele>
        <time>2021-07-19T10:41:26Z</time>
      </trkpt>
      <trkpt lat="42.6453" lon="1.6836">
        <ele>2369.639</ele>
        <time>2021-07-19T10:41:28Z</time>
      </trkpt>
      <trkpt lat="42.64532" lon="1.6836">
        <ele>2369.724</ele>
        <time>2021-07-19T10:41:30Z</time>
      </trkpt>
      <trkpt lat="42.64533" lon="1.68361">
        <ele>2370.131</ele>
        <time>2021-07-19T10:41:32Z</time>
      </trkpt>
      <trkpt lat="42.64535" lon="1.68362">
        <ele>2370.283</ele>
        <time>2021-07-19T10:41:34Z</time>
      </trkpt>
      <trkpt lat="42.64536" lon="1.68364">
        <ele>2370.316</ele>
        <time>2021-07-19T10:41:36Z</time>
      </trkpt>
      <trkpt lat="42.64537" lon="1.68366">
        <ele>2370.06</ele>
        <time>2021-07-19T10:41:38Z</time>
      </trkpt>
      <trkpt lat="42.64539" lon="1.68368">
        <ele>2369.694</ele>
        <time>2021-07-19T10:41:40Z</time>
      </trkpt>
      <trkpt lat="42.6454" lon="1.68369">
        <ele>2369.539</ele>
        <time>2021-07-19T10:41:42Z</time>
      </trkpt>
      <trkpt lat="42.64541" lon="1.6837">
        <ele>2369.122</ele>
        <time>2021-07-19T10:41:44Z</time>
      </trkpt>
      <trkpt lat="42.64542" lon="1.68372">
        <ele>2368.694</ele>
        <time>2021-07-19T10:41:46Z</time>
      </trkpt>
      <trkpt lat="42.64544" lon="1.68373">
        <ele>2368.596</ele>
        <time>2021-07-19T10:41:48Z</time>
      </trkpt>
      <trkpt lat="42.64545" lon="1.68375">
        <ele>2368.471</ele>
        <time>2021-07-19T10:41:50Z</time>
      </trkpt>
      <trkpt lat="42.64546" lon="1.68377">
        <ele>2368.383</ele>
        <time>2021-07-19T10:41:52Z</time>
      </trkpt>
      <trkpt lat="42.64548" lon="1.68378">
        <ele>2367.982</ele>
        <time>2021-07-19T10:41:54Z</time>
      </trkpt>
      <trkpt lat="42.64549" lon="1.68379">
        <ele>2368.227</ele>
        <time>2021-07-19T10:41:56Z</time>
      </trkpt>
      <trkpt lat="42.6455" lon="1.68381">
        <ele>2368.478</ele>
        <time>2021-07-19T10:41:58Z</time>
      </trkpt>
      <trkpt lat="42.64551" lon="1.68381">
        <ele>2368.67</ele>
        <time>2021-07-19T10:42:00Z</time>
      </trkpt>
      <trkpt lat="42.64551" lon="1.68382">
        <ele>2368.688</ele>
        <time>2021-07-19T10:42:02Z</time>
      </trkpt>
      <trkpt lat="42.64552" lon="1.68382">
        <ele>2368.451</ele>
        <time>2021-07-19T10:42:04Z</time>
      </trkpt>
      <trkpt lat="42.64554" lon="1.68383">
        <ele>2368.687</ele>
        <time>2021-07-19T10:42:06Z</time>
      </trkpt>
      <trkpt lat="42.64555" lon="1.68385">
        <ele>2368.715</ele>
        <time>2021-07-19T10:42:08Z</time>
      </trkpt>
      <trkpt lat="42.64558" lon="1.68387">
        <ele>2368.396</ele>
        <time>2021-07-19T10:42:10Z</time>
      </trkpt>
      <trkpt lat="42.64559" lon="1.68388">
        <ele>2368.156</ele>
        <time>2021-07-19T10:42:12Z</time>
      </trkpt>
      <trkpt lat="42.64561" lon="1.68389">
        <ele>2367.869</ele>
        <time>2021-07-19T10:42:14Z</time>
      </trkpt>
      <trkpt lat="42.64563" lon="1.68391">
        <ele>2367.216</ele>
        <time>2021-07-19T10:42:17Z</time>
      </trkpt>
      <trkpt lat="42.64564" lon="1.68392">
        <ele>2366.567</ele>
        <time>2021-07-19T10:42:19Z</time>
      </trkpt>
      <trkpt lat="42.64566" lon="1.68394">
        <ele>2365.783</ele>
        <time>2021-07-19T10:42:21Z</time>
      </trkpt>
      <trkpt lat="42.64568" lon="1.68395">
        <ele>2365.368</ele>
        <time>2021-07-19T10:42:23Z</time>
      </trkpt>
      <trkpt lat="42.64569" lon="1.68396">
        <ele>2364.72</ele>
        <time>2021-07-19T10:42:25Z</time>
      </trkpt>
      <trkpt lat="42.64571" lon="1.68397">
        <ele>2363.82</ele>
        <time>2021-07-19T10:42:27Z</time>
      </trkpt>
      <trkpt lat="42.64572" lon="1.68397">
        <ele>2363.557</ele>
        <time>2021-07-19T10:42:29Z</time>
      </trkpt>
      <trkpt lat="42.64574" lon="1.68399">
        <ele>2364.249</ele>
        <time>2021-07-19T10:42:31Z</time>
      </trkpt>
      <trkpt lat="42.64575" lon="1.684">
        <ele>2363.629</ele>
        <time>2021-07-19T10:42:33Z</time>
      </trkpt>
      <trkpt lat="42.64577" lon="1.68401">
        <ele>2363.238</ele>
        <time>2021-07-19T10:42:35Z</time>
      </trkpt>
      <trkpt lat="42.64578" lon="1.68401">
        <ele>2363.299</ele>
        <time>2021-07-19T10:42:37Z</time>
      </trkpt>
      <trkpt lat="42.6458" lon="1.68401">
        <ele>2363.198</ele>
        <time>2021-07-19T10:42:39Z</time>
      </trkpt>
      <trkpt lat="42.64582" lon="1.68402">
        <ele>2362.74</ele>
        <time>2021-07-19T10:42:41Z</time>
      </trkpt>
      <trkpt lat="42.64583" lon="1.68403">
        <ele>2362.648</ele>
        <time>2021-07-19T10:42:43Z</time>
      </trkpt>
      <trkpt lat="42.64585" lon="1.68404">
        <ele>2362.39</ele>
        <time>2021-07-19T10:42:45Z</time>
      </trkpt>
      <trkpt lat="42.64586" lon="1.68405">
        <ele>2362.194</ele>
        <time>2021-07-19T10:42:47Z</time>
      </trkpt>
      <trkpt lat="42.64588" lon="1.68407">
        <ele>2362.909</ele>
        <time>2021-07-19T10:42:49Z</time>
      </trkpt>
      <trkpt lat="42.6459" lon="1.6841">
        <ele>2363.839</ele>
        <time>2021-07-19T10:42:51Z</time>
      </trkpt>
      <trkpt lat="42.64591" lon="1.68412">
        <ele>2364.706</ele>
        <time>2021-07-19T10:42:53Z</time>
      </trkpt>
      <trkpt lat="42.64592" lon="1.68412">
        <ele>2365.121</ele>
        <time>2021-07-19T10:42:55Z</time>
      </trkpt>
      <trkpt lat="42.64592" lon="1.68412">
        <ele>2365.082</ele>
        <time>2021-07-19T10:42:57Z</time>
      </trkpt>
      <trkpt lat="42.64591" lon="1.68411">
        <ele>2363.928</ele>
        <time>2021-07-19T10:42:59Z</time>
      </trkpt>
      <trkpt lat="42.64591" lon="1.68411">
        <ele>2363.959</ele>
        <time>2021-07-19T10:43:01Z</time>
      </trkpt>
      <trkpt lat="42.64591" lon="1.68411">
        <ele>2364.12</ele>
        <time>2021-07-19T10:43:03Z</time>
      </trkpt>
      <trkpt lat="42.64592" lon="1.68413">
        <ele>2364.458</ele>
        <time>2021-07-19T10:43:05Z</time>
      </trkpt>
      <trkpt lat="42.64593" lon="1.68413">
        <ele>2363.96</ele>
        <time>2021-07-19T10:43:07Z</time>
      </trkpt>
      <trkpt lat="42.64594" lon="1.68414">
        <ele>2363.674</ele>
        <time>2021-07-19T10:43:09Z</time>
      </trkpt>
      <trkpt lat="42.64596" lon="1.68414">
        <ele>2362.482</ele>
        <time>2021-07-19T10:43:11Z</time>
      </trkpt>
      <trkpt lat="42.64597" lon="1.68414">
        <ele>2362.535</ele>
        <time>2021-07-19T10:43:13Z</time>
      </trkpt>
      <trkpt lat="42.64599" lon="1.68415">
        <ele>2362.741</ele>
        <time>2021-07-19T10:43:15Z</time>
      </trkpt>
      <trkpt lat="42.64601" lon="1.68416">
        <ele>2363.027</ele>
        <time>2021-07-19T10:43:17Z</time>
      </trkpt>
      <trkpt lat="42.64603" lon="1.68417">
        <ele>2362.791</ele>
        <time>2021-07-19T10:43:19Z</time>
      </trkpt>
      <trkpt lat="42.64604" lon="1.68417">
        <ele>2362.394</ele>
        <time>2021-07-19T10:43:21Z</time>
      </trkpt>
      <trkpt lat="42.64606" lon="1.68417">
        <ele>2361.911</ele>
        <time>2021-07-19T10:43:23Z</time>
      </trkpt>
      <trkpt lat="42.64608" lon="1.68418">
        <ele>2361.48</ele>
        <time>2021-07-19T10:43:25Z</time>
      </trkpt>
      <trkpt lat="42.64609" lon="1.68418">
        <ele>2361.428</ele>
        <time>2021-07-19T10:43:27Z</time>
      </trkpt>
      <trkpt lat="42.64611" lon="1.68419">
        <ele>2360.506</ele>
        <time>2021-07-19T10:43:29Z</time>
      </trkpt>
      <trkpt lat="42.64613" lon="1.68419">
        <ele>2359.276</ele>
        <time>2021-07-19T10:43:31Z</time>
      </trkpt>
      <trkpt lat="42.64614" lon="1.68419">
        <ele>2358.274</ele>
        <time>2021-07-19T10:43:33Z</time>
      </trkpt>
      <trkpt lat="42.64615" lon="1.6842">
        <ele>2357.662</ele>
        <time>2021-07-19T10:43:35Z</time>
      </trkpt>
      <trkpt lat="42.64617" lon="1.6842">
        <ele>2356.409</ele>
        <time>2021-07-19T10:43:37Z</time>
      </trkpt>
      <trkpt lat="42.64618" lon="1.6842">
        <ele>2355.801</ele>
        <time>2021-07-19T10:43:39Z</time>
      </trkpt>
      <trkpt lat="42.64619" lon="1.6842">
        <ele>2354.879</ele>
        <time>2021-07-19T10:43:41Z</time>
      </trkpt>
      <trkpt lat="42.6462" lon="1.68421">
        <ele>2354.443</ele>
        <time>2021-07-19T10:43:43Z</time>
      </trkpt>
      <trkpt lat="42.6462" lon="1.68421">
        <ele>2353.764</ele>
        <time>2021-07-19T10:43:45Z</time>
      </trkpt>
      <trkpt lat="42.64621" lon="1.68422">
        <ele>2352.805</ele>
        <time>2021-07-19T10:43:47Z</time>
      </trkpt>
      <trkpt lat="42.64622" lon="1.68423">
        <ele>2352.672</ele>
        <time>2021-07-19T10:43:49Z</time>
      </trkpt>
      <trkpt lat="42.64623" lon="1.68424">
        <ele>2351.784</ele>
        <time>2021-07-19T10:43:51Z</time>
      </trkpt>
      <trkpt lat="42.64624" lon="1.68425">
        <ele>2351.291</ele>
        <time>2021-07-19T10:43:53Z</time>
      </trkpt>
      <trkpt lat="42.64624" lon="1.68426">
        <ele>2351.489</ele>
        <time>2021-07-19T10:43:55Z</time>
      </trkpt>
      <trkpt lat="42.64624" lon="1.68428">
        <ele>2351.424</ele>
        <time>2021-07-19T10:43:57Z</time>
      </trkpt>
      <trkpt lat="42.64625" lon="1.68429">
        <ele>2352.122</ele>
        <time>2021-07-19T10:43:59Z</time>
      </trkpt>
      <trkpt lat="42.64626" lon="1.68431">
        <ele>2351.945</ele>
        <time>2021-07-19T10:44:01Z</time>
      </trkpt>
      <trkpt lat="42.64627" lon="1.68432">
        <ele>2352.028</ele>
        <time>2021-07-19T10:44:03Z</time>
      </trkpt>
      <trkpt lat="42.64628" lon="1.68433">
        <ele>2351.358</ele>
        <time>2021-07-19T10:44:05Z</time>
      </trkpt>
      <trkpt lat="42.64629" lon="1.68434">
        <ele>2350.908</ele>
        <time>2021-07-19T10:44:07Z</time>
      </trkpt>
      <trkpt lat="42.6463" lon="1.68435">
        <ele>2349.607</ele>
        <time>2021-07-19T10:44:09Z</time>
      </trkpt>
      <trkpt lat="42.64631" lon="1.68436">
        <ele>2349.398</ele>
        <time>2021-07-19T10:44:11Z</time>
      </trkpt>
      <trkpt lat="42.64631" lon="1.68437">
        <ele>2348.265</ele>
        <time>2021-07-19T10:44:13Z</time>
      </trkpt>
      <trkpt lat="42.64632" lon="1.68437">
        <ele>2348.123</ele>
        <time>2021-07-19T10:44:15Z</time>
      </trkpt>
      <trkpt lat="42.64634" lon="1.68437">
        <ele>2349.069</ele>
        <time>2021-07-19T10:44:17Z</time>
      </trkpt>
      <trkpt lat="42.64634" lon="1.68437">
        <ele>2349.009</ele>
        <time>2021-07-19T10:44:19Z</time>
      </trkpt>
      <trkpt lat="42.64635" lon="1.68438">
        <ele>2349.355</ele>
        <time>2021-07-19T10:44:21Z</time>
      </trkpt>
      <trkpt lat="42.64636" lon="1.68439">
        <ele>2349.45</ele>
        <time>2021-07-19T10:44:23Z</time>
      </trkpt>
      <trkpt lat="42.64636" lon="1.68439">
        <ele>2349.062</ele>
        <time>2021-07-19T10:44:25Z</time>
      </trkpt>
      <trkpt lat="42.64637" lon="1.68439">
        <ele>2347.907</ele>
        <time>2021-07-19T10:44:27Z</time>
      </trkpt>
      <trkpt lat="42.64638" lon="1.68439">
        <ele>2347.707</ele>
        <time>2021-07-19T10:44:29Z</time>
      </trkpt>
      <trkpt lat="42.64638" lon="1.68439">
        <ele>2347.411</ele>
        <time>2021-07-19T10:44:31Z</time>
      </trkpt>
      <trkpt lat="42.64639" lon="1.68439">
        <ele>2347.284</ele>
        <time>2021-07-19T10:44:33Z</time>
      </trkpt>
      <trkpt lat="42.6464" lon="1.6844">
        <ele>2346.74</ele>
        <time>2021-07-19T10:44:35Z</time>
      </trkpt>
      <trkpt lat="42.64641" lon="1.68441">
        <ele>2346.233</ele>
        <time>2021-07-19T10:44:37Z</time>
      </trkpt>
      <trkpt lat="42.64642" lon="1.68441">
        <ele>2344.93</ele>
        <time>2021-07-19T10:44:39Z</time>
      </trkpt>
      <trkpt lat="42.64642" lon="1.68442">
        <ele>2343.918</ele>
        <time>2021-07-19T10:44:41Z</time>
      </trkpt>
      <trkpt lat="42.64643" lon="1.68443">
        <ele>2342.856</ele>
        <time>2021-07-19T10:44:43Z</time>
      </trkpt>
      <trkpt lat="42.64643" lon="1.68444">
        <ele>2342.854</ele>
        <time>2021-07-19T10:44:45Z</time>
      </trkpt>
      <trkpt lat="42.64644" lon="1.68446">
        <ele>2341.991</ele>
        <time>2021-07-19T10:44:47Z</time>
      </trkpt>
      <trkpt lat="42.64644" lon="1.68447">
        <ele>2341.976</ele>
        <time>2021-07-19T10:44:49Z</time>
      </trkpt>
      <trkpt lat="42.64645" lon="1.68448">
        <ele>2341.642</ele>
        <time>2021-07-19T10:44:51Z</time>
      </trkpt>
      <trkpt lat="42.64646" lon="1.68449">
        <ele>2341.399</ele>
        <time>2021-07-19T10:44:53Z</time>
      </trkpt>
      <trkpt lat="42.64647" lon="1.68451">
        <ele>2341.977</ele>
        <time>2021-07-19T10:44:55Z</time>
      </trkpt>
      <trkpt lat="42.64648" lon="1.68453">
        <ele>2343.199</ele>
        <time>2021-07-19T10:44:57Z</time>
      </trkpt>
      <trkpt lat="42.64648" lon="1.68454">
        <ele>2342.901</ele>
        <time>2021-07-19T10:44:59Z</time>
      </trkpt>
      <trkpt lat="42.64649" lon="1.68456">
        <ele>2342.592</ele>
        <time>2021-07-19T10:45:01Z</time>
      </trkpt>
      <trkpt lat="42.6465" lon="1.68457">
        <ele>2342.332</ele>
        <time>2021-07-19T10:45:03Z</time>
      </trkpt>
      <trkpt lat="42.64651" lon="1.68458">
        <ele>2340.809</ele>
        <time>2021-07-19T10:45:05Z</time>
      </trkpt>
      <trkpt lat="42.64653" lon="1.68458">
        <ele>2339.053</ele>
        <time>2021-07-19T10:45:07Z</time>
      </trkpt>
      <trkpt lat="42.64654" lon="1.68458">
        <ele>2337.873</ele>
        <time>2021-07-19T10:45:09Z</time>
      </trkpt>
      <trkpt lat="42.64655" lon="1.68459">
        <ele>2337.462</ele>
        <time>2021-07-19T10:45:11Z</time>
      </trkpt>
      <trkpt lat="42.64657" lon="1.68459">
        <ele>2336.527</ele>
        <time>2021-07-19T10:45:13Z</time>
      </trkpt>
      <trkpt lat="42.64658" lon="1.6846">
        <ele>2336.245</ele>
        <time>2021-07-19T10:45:15Z</time>
      </trkpt>
      <trkpt lat="42.64659" lon="1.6846">
        <ele>2335.515</ele>
        <time>2021-07-19T10:45:17Z</time>
      </trkpt>
      <trkpt lat="42.64661" lon="1.68459">
        <ele>2334.305</ele>
        <time>2021-07-19T10:45:19Z</time>
      </trkpt>
      <trkpt lat="42.6466" lon="1.6846">
        <ele>2331.736</ele>
        <time>2021-07-19T10:45:21Z</time>
      </trkpt>
      <trkpt lat="42.64661" lon="1.6846">
        <ele>2331.565</ele>
        <time>2021-07-19T10:45:23Z</time>
      </trkpt>
      <trkpt lat="42.64661" lon="1.68461">
        <ele>2330.324</ele>
        <time>2021-07-19T10:45:25Z</time>
      </trkpt>
      <trkpt lat="42.6466" lon="1.68461">
        <ele>2329.221</ele>
        <time>2021-07-19T10:45:27Z</time>
      </trkpt>
      <trkpt lat="42.64661" lon="1.68462">
        <ele>2329.146</ele>
        <time>2021-07-19T10:45:29Z</time>
      </trkpt>
      <trkpt lat="42.64662" lon="1.68462">
        <ele>2327.697</ele>
        <time>2021-07-19T10:45:31Z</time>
      </trkpt>
      <trkpt lat="42.64664" lon="1.68462">
        <ele>2326.958</ele>
        <time>2021-07-19T10:45:33Z</time>
      </trkpt>
      <trkpt lat="42.64664" lon="1.6846">
        <ele>2326.168</ele>
        <time>2021-07-19T10:45:35Z</time>
      </trkpt>
      <trkpt lat="42.64665" lon="1.6846">
        <ele>2325.167</ele>
        <time>2021-07-19T10:45:37Z</time>
      </trkpt>
      <trkpt lat="42.64666" lon="1.68461">
        <ele>2324.97</ele>
        <time>2021-07-19T10:45:39Z</time>
      </trkpt>
      <trkpt lat="42.64667" lon="1.68462">
        <ele>2325.018</ele>
        <time>2021-07-19T10:45:41Z</time>
      </trkpt>
      <trkpt lat="42.64666" lon="1.68462">
        <ele>2324.77</ele>
        <time>2021-07-19T10:45:43Z</time>
      </trkpt>
      <trkpt lat="42.64666" lon="1.68462">
        <ele>2324.778</ele>
        <time>2021-07-19T10:45:45Z</time>
      </trkpt>
      <trkpt lat="42.64666" lon="1.68462">
        <ele>2324.783</ele>
        <time>2021-07-19T10:45:47Z</time>
      </trkpt>
      <trkpt lat="42.64666" lon="1.68462">
        <ele>2324.781</ele>
        <time>2021-07-19T10:45:49Z</time>
      </trkpt>
      <trkpt lat="42.64666" lon="1.68462">
        <ele>2324.789</ele>
        <time>2021-07-19T10:45:51Z</time>
      </trkpt>
      <trkpt lat="42.64666" lon="1.68462">
        <ele>2324.797</ele>
        <time>2021-07-19T10:45:53Z</time>
      </trkpt>
      <trkpt lat="42.64667" lon="1.68463">
        <ele>2324.881</ele>
        <time>2021-07-19T10:45:55Z</time>
      </trkpt>
      <trkpt lat="42.64669" lon="1.68463">
        <ele>2325.437</ele>
        <time>2021-07-19T10:45:57Z</time>
      </trkpt>
      <trkpt lat="42.6467" lon="1.68463">
        <ele>2325.653</ele>
        <time>2021-07-19T10:45:59Z</time>
      </trkpt>
      <trkpt lat="42.64671" lon="1.68463">
        <ele>2325.822</ele>
        <time>2021-07-19T10:46:01Z</time>
      </trkpt>
      <trkpt lat="42.64673" lon="1.68463">
        <ele>2326.269</ele>
        <time>2021-07-19T10:46:03Z</time>
      </trkpt>
      <trkpt lat="42.64674" lon="1.68462">
        <ele>2325.734</ele>
        <time>2021-07-19T10:46:05Z</time>
      </trkpt>
      <trkpt lat="42.64676" lon="1.68462">
        <ele>2326.157</ele>
        <time>2021-07-19T10:46:07Z</time>
      </trkpt>
      <trkpt lat="42.64677" lon="1.68462">
        <ele>2326.379</ele>
        <time>2021-07-19T10:46:09Z</time>
      </trkpt>
      <trkpt lat="42.64678" lon="1.6846">
        <ele>2326.137</ele>
        <time>2021-07-19T10:46:11Z</time>
      </trkpt>
      <trkpt lat="42.64679" lon="1.68459">
        <ele>2326.03</ele>
        <time>2021-07-19T10:46:13Z</time>
      </trkpt>
      <trkpt lat="42.64679" lon="1.68457">
        <ele>2325.407</ele>
        <time>2021-07-19T10:46:15Z</time>
      </trkpt>
      <trkpt lat="42.64681" lon="1.68457">
        <ele>2325.507</ele>
        <time>2021-07-19T10:46:17Z</time>
      </trkpt>
      <trkpt lat="42.64683" lon="1.68457">
        <ele>2326.01</ele>
        <time>2021-07-19T10:46:19Z</time>
      </trkpt>
      <trkpt lat="42.64684" lon="1.68457">
        <ele>2325.792</ele>
        <time>2021-07-19T10:46:21Z</time>
      </trkpt>
      <trkpt lat="42.64686" lon="1.68457">
        <ele>2325.837</ele>
        <time>2021-07-19T10:46:23Z</time>
      </trkpt>
      <trkpt lat="42.64687" lon="1.68457">
        <ele>2325.627</ele>
        <time>2021-07-19T10:46:25Z</time>
      </trkpt>
      <trkpt lat="42.64689" lon="1.68457">
        <ele>2325.96</ele>
        <time>2021-07-19T10:46:27Z</time>
      </trkpt>
      <trkpt lat="42.64691" lon="1.68457">
        <ele>2326.3</ele>
        <time>2021-07-19T10:46:29Z</time>
      </trkpt>
      <trkpt lat="42.64693" lon="1.68456">
        <ele>2325.979</ele>
        <time>2021-07-19T10:46:31Z</time>
      </trkpt>
      <trkpt lat="42.64694" lon="1.68454">
        <ele>2325.463</ele>
        <time>2021-07-19T10:46:33Z</time>
      </trkpt>
      <trkpt lat="42.64696" lon="1.68454">
        <ele>2324.937</ele>
        <time>2021-07-19T10:46:35Z</time>
      </trkpt>
      <trkpt lat="42.64698" lon="1.68453">
        <ele>2325.234</ele>
        <time>2021-07-19T10:46:37Z</time>
      </trkpt>
      <trkpt lat="42.64698" lon="1.68452">
        <ele>2324.676</ele>
        <time>2021-07-19T10:46:39Z</time>
      </trkpt>
      <trkpt lat="42.64699" lon="1.68452">
        <ele>2324.288</ele>
        <time>2021-07-19T10:46:41Z</time>
      </trkpt>
      <trkpt lat="42.64701" lon="1.68451">
        <ele>2324.182</ele>
        <time>2021-07-19T10:46:43Z</time>
      </trkpt>
      <trkpt lat="42.64702" lon="1.6845">
        <ele>2324.181</ele>
        <time>2021-07-19T10:46:45Z</time>
      </trkpt>
      <trkpt lat="42.64703" lon="1.68449">
        <ele>2324.192</ele>
        <time>2021-07-19T10:46:47Z</time>
      </trkpt>
      <trkpt lat="42.64704" lon="1.68449">
        <ele>2324.203</ele>
        <time>2021-07-19T10:46:49Z</time>
      </trkpt>
      <trkpt lat="42.64704" lon="1.68449">
        <ele>2324.235</ele>
        <time>2021-07-19T10:46:51Z</time>
      </trkpt>
      <trkpt lat="42.64704" lon="1.68449">
        <ele>2324.227</ele>
        <time>2021-07-19T10:46:53Z</time>
      </trkpt>
      <trkpt lat="42.64704" lon="1.68449">
        <ele>2324.217</ele>
        <time>2021-07-19T10:46:54Z</time>
      </trkpt>
      <trkpt lat="42.64705" lon="1.68449">
        <ele>2323.975</ele>
        <time>2021-07-19T10:46:57Z</time>
      </trkpt>
      <trkpt lat="42.64705" lon="1.68449">
        <ele>2323.298</ele>
        <time>2021-07-19T10:46:59Z</time>
      </trkpt>
      <trkpt lat="42.64706" lon="1.6845">
        <ele>2322.83</ele>
        <time>2021-07-19T10:47:01Z</time>
      </trkpt>
      <trkpt lat="42.64707" lon="1.6845">
        <ele>2322.225</ele>
        <time>2021-07-19T10:47:03Z</time>
      </trkpt>
      <trkpt lat="42.64708" lon="1.68451">
        <ele>2322.47</ele>
        <time>2021-07-19T10:47:05Z</time>
      </trkpt>
      <trkpt lat="42.64708" lon="1.68451">
        <ele>2322.382</ele>
        <time>2021-07-19T10:47:07Z</time>
      </trkpt>
      <trkpt lat="42.64709" lon="1.68451">
        <ele>2322.129</ele>
        <time>2021-07-19T10:47:09Z</time>
      </trkpt>
      <trkpt lat="42.64711" lon="1.68451">
        <ele>2322.151</ele>
        <time>2021-07-19T10:47:11Z</time>
      </trkpt>
      <trkpt lat="42.64712" lon="1.68452">
        <ele>2322.497</ele>
        <time>2021-07-19T10:47:13Z</time>
      </trkpt>
      <trkpt lat="42.64713" lon="1.68453">
        <ele>2322.641</ele>
        <time>2021-07-19T10:47:15Z</time>
      </trkpt>
      <trkpt lat="42.64714" lon="1.68454">
        <ele>2322.069</ele>
        <time>2021-07-19T10:47:17Z</time>
      </trkpt>
      <trkpt lat="42.64713" lon="1.68454">
        <ele>2321.318</ele>
        <time>2021-07-19T10:47:19Z</time>
      </trkpt>
      <trkpt lat="42.64713" lon="1.68454">
        <ele>2321.675</ele>
        <time>2021-07-19T10:47:21Z</time>
      </trkpt>
      <trkpt lat="42.64713" lon="1.68454">
        <ele>2321.684</ele>
        <time>2021-07-19T10:47:23Z</time>
      </trkpt>
      <trkpt lat="42.64714" lon="1.68454">
        <ele>2321.507</ele>
        <time>2021-07-19T10:47:25Z</time>
      </trkpt>
      <trkpt lat="42.64715" lon="1.68455">
        <ele>2321.291</ele>
        <time>2021-07-19T10:47:27Z</time>
      </trkpt>
      <trkpt lat="42.64717" lon="1.68455">
        <ele>2320.97</ele>
        <time>2021-07-19T10:47:29Z</time>
      </trkpt>
      <trkpt lat="42.64716" lon="1.68453">
        <ele>2318.397</ele>
        <time>2021-07-19T10:47:31Z</time>
      </trkpt>
      <trkpt lat="42.64715" lon="1.68451">
        <ele>2317.805</ele>
        <time>2021-07-19T10:47:33Z</time>
      </trkpt>
      <trkpt lat="42.64715" lon="1.6845">
        <ele>2318.266</ele>
        <time>2021-07-19T10:47:35Z</time>
      </trkpt>
      <trkpt lat="42.64716" lon="1.68451">
        <ele>2319.397</ele>
        <time>2021-07-19T10:47:37Z</time>
      </trkpt>
      <trkpt lat="42.64716" lon="1.68451">
        <ele>2319.263</ele>
        <time>2021-07-19T10:47:39Z</time>
      </trkpt>
      <trkpt lat="42.64715" lon="1.68451">
        <ele>2319.264</ele>
        <time>2021-07-19T10:47:41Z</time>
      </trkpt>
      <trkpt lat="42.64715" lon="1.68451">
        <ele>2319.255</ele>
        <time>2021-07-19T10:47:43Z</time>
      </trkpt>
      <trkpt lat="42.64716" lon="1.68451">
        <ele>2319.12</ele>
        <time>2021-07-19T10:47:45Z</time>
      </trkpt>
      <trkpt lat="42.64716" lon="1.68452">
        <ele>2318.783</ele>
        <time>2021-07-19T10:47:47Z</time>
      </trkpt>
      <trkpt lat="42.64717" lon="1.68451">
        <ele>2318.529</ele>
        <time>2021-07-19T10:47:49Z</time>
      </trkpt>
      <trkpt lat="42.64717" lon="1.68451">
        <ele>2317.922</ele>
        <time>2021-07-19T10:47:51Z</time>
      </trkpt>
      <trkpt lat="42.64717" lon="1.68451">
        <ele>2317.915</ele>
        <time>2021-07-19T10:47:53Z</time>
      </trkpt>
      <trkpt lat="42.64717" lon="1.68451">
        <ele>2317.901</ele>
        <time>2021-07-19T10:47:55Z</time>
      </trkpt>
      <trkpt lat="42.64718" lon="1.68451">
        <ele>2317.54</ele>
        <time>2021-07-19T10:47:57Z</time>
      </trkpt>
      <trkpt lat="42.64719" lon="1.6845">
        <ele>2317.083</ele>
        <time>2021-07-19T10:47:59Z</time>
      </trkpt>
      <trkpt lat="42.6472" lon="1.68451">
        <ele>2317.06</ele>
        <time>2021-07-19T10:48:01Z</time>
      </trkpt>
      <trkpt lat="42.6472" lon="1.68453">
        <ele>2316.763</ele>
        <time>2021-07-19T10:48:03Z</time>
      </trkpt>
      <trkpt lat="42.6472" lon="1.68455">
        <ele>2316.849</ele>
        <time>2021-07-19T10:48:05Z</time>
      </trkpt>
      <trkpt lat="42.64721" lon="1.68456">
        <ele>2316.464</ele>
        <time>2021-07-19T10:48:07Z</time>
      </trkpt>
      <trkpt lat="42.64722" lon="1.68457">
        <ele>2316.012</ele>
        <time>2021-07-19T10:48:09Z</time>
      </trkpt>
      <trkpt lat="42.64723" lon="1.68458">
        <ele>2315.92</ele>
        <time>2021-07-19T10:48:11Z</time>
      </trkpt>
      <trkpt lat="42.64724" lon="1.68457">
        <ele>2315.613</ele>
        <time>2021-07-19T10:48:13Z</time>
      </trkpt>
      <trkpt lat="42.64725" lon="1.68455">
        <ele>2315.243</ele>
        <time>2021-07-19T10:48:15Z</time>
      </trkpt>
      <trkpt lat="42.64724" lon="1.68455">
        <ele>2313.626</ele>
        <time>2021-07-19T10:48:17Z</time>
      </trkpt>
      <trkpt lat="42.64724" lon="1.68455">
        <ele>2313.615</ele>
        <time>2021-07-19T10:48:19Z</time>
      </trkpt>
      <trkpt lat="42.64724" lon="1.68455">
        <ele>2313.346</ele>
        <time>2021-07-19T10:48:21Z</time>
      </trkpt>
      <trkpt lat="42.64725" lon="1.68453">
        <ele>2312.785</ele>
        <time>2021-07-19T10:48:23Z</time>
      </trkpt>
      <trkpt lat="42.64726" lon="1.68453">
        <ele>2313.361</ele>
        <time>2021-07-19T10:48:25Z</time>
      </trkpt>
      <trkpt lat="42.64728" lon="1.68453">
        <ele>2313.571</ele>
        <time>2021-07-19T10:48:27Z</time>
      </trkpt>
      <trkpt lat="42.64728" lon="1.68454">
        <ele>2313.284</ele>
        <time>2021-07-19T10:48:29Z</time>
      </trkpt>
      <trkpt lat="42.64728" lon="1.68454">
        <ele>2313.561</ele>
        <time>2021-07-19T10:48:31Z</time>
      </trkpt>
      <trkpt lat="42.6473" lon="1.68455">
        <ele>2314.052</ele>
        <time>2021-07-19T10:48:33Z</time>
      </trkpt>
      <trkpt lat="42.6473" lon="1.68456">
        <ele>2313.753</ele>
        <time>2021-07-19T10:48:35Z</time>
      </trkpt>
      <trkpt lat="42.6473" lon="1.68458">
        <ele>2313.665</ele>
        <time>2021-07-19T10:48:37Z</time>
      </trkpt>
      <trkpt lat="42.64731" lon="1.68458">
        <ele>2313.306</ele>
        <time>2021-07-19T10:48:39Z</time>
      </trkpt>
      <trkpt lat="42.64732" lon="1.68458">
        <ele>2313.122</ele>
        <time>2021-07-19T10:48:41Z</time>
      </trkpt>
      <trkpt lat="42.64733" lon="1.68457">
        <ele>2313.193</ele>
        <time>2021-07-19T10:48:43Z</time>
      </trkpt>
      <trkpt lat="42.64734" lon="1.68458">
        <ele>2312.924</ele>
        <time>2021-07-19T10:48:45Z</time>
      </trkpt>
      <trkpt lat="42.64735" lon="1.68459">
        <ele>2312.091</ele>
        <time>2021-07-19T10:48:47Z</time>
      </trkpt>
      <trkpt lat="42.64735" lon="1.6846">
        <ele>2311.696</ele>
        <time>2021-07-19T10:48:49Z</time>
      </trkpt>
      <trkpt lat="42.64736" lon="1.68461">
        <ele>2311.289</ele>
        <time>2021-07-19T10:48:51Z</time>
      </trkpt>
      <trkpt lat="42.64737" lon="1.68461">
        <ele>2311.209</ele>
        <time>2021-07-19T10:48:53Z</time>
      </trkpt>
      <trkpt lat="42.64738" lon="1.68462">
        <ele>2310.798</ele>
        <time>2021-07-19T10:48:55Z</time>
      </trkpt>
      <trkpt lat="42.64738" lon="1.68463">
        <ele>2311.051</ele>
        <time>2021-07-19T10:48:57Z</time>
      </trkpt>
      <trkpt lat="42.64739" lon="1.68463">
        <ele>2310.801</ele>
        <time>2021-07-19T10:48:59Z</time>
      </trkpt>
      <trkpt lat="42.64739" lon="1.68465">
        <ele>2311.742</ele>
        <time>2021-07-19T10:49:01Z</time>
      </trkpt>
      <trkpt lat="42.6474" lon="1.68466">
        <ele>2312.134</ele>
        <time>2021-07-19T10:49:03Z</time>
      </trkpt>
      <trkpt lat="42.6474" lon="1.68466">
        <ele>2310.187</ele>
        <time>2021-07-19T10:49:05Z</time>
      </trkpt>
      <trkpt lat="42.6474" lon="1.68466">
        <ele>2310.089</ele>
        <time>2021-07-19T10:49:07Z</time>
      </trkpt>
      <trkpt lat="42.64742" lon="1.68467">
        <ele>2311.002</ele>
        <time>2021-07-19T10:49:09Z</time>
      </trkpt>
      <trkpt lat="42.64742" lon="1.68468">
        <ele>2310.548</ele>
        <time>2021-07-19T10:49:11Z</time>
      </trkpt>
      <trkpt lat="42.64743" lon="1.68469">
        <ele>2309.367</ele>
        <time>2021-07-19T10:49:13Z</time>
      </trkpt>
      <trkpt lat="42.64745" lon="1.68469">
        <ele>2307.523</ele>
        <time>2021-07-19T10:49:15Z</time>
      </trkpt>
      <trkpt lat="42.64746" lon="1.68469">
        <ele>2307.14</ele>
        <time>2021-07-19T10:49:17Z</time>
      </trkpt>
      <trkpt lat="42.64747" lon="1.68467">
        <ele>2305.915</ele>
        <time>2021-07-19T10:49:19Z</time>
      </trkpt>
      <trkpt lat="42.64748" lon="1.68468">
        <ele>2305.518</ele>
        <time>2021-07-19T10:49:21Z</time>
      </trkpt>
      <trkpt lat="42.64749" lon="1.68469">
        <ele>2304.466</ele>
        <time>2021-07-19T10:49:23Z</time>
      </trkpt>
      <trkpt lat="42.64749" lon="1.6847">
        <ele>2304.823</ele>
        <time>2021-07-19T10:49:25Z</time>
      </trkpt>
      <trkpt lat="42.6475" lon="1.68472">
        <ele>2305.147</ele>
        <time>2021-07-19T10:49:27Z</time>
      </trkpt>
      <trkpt lat="42.64751" lon="1.68473">
        <ele>2305.401</ele>
        <time>2021-07-19T10:49:29Z</time>
      </trkpt>
      <trkpt lat="42.6475" lon="1.68473">
        <ele>2305.289</ele>
        <time>2021-07-19T10:49:31Z</time>
      </trkpt>
      <trkpt lat="42.6475" lon="1.68473">
        <ele>2305.276</ele>
        <time>2021-07-19T10:49:33Z</time>
      </trkpt>
      <trkpt lat="42.6475" lon="1.68473">
        <ele>2305.262</ele>
        <time>2021-07-19T10:49:35Z</time>
      </trkpt>
      <trkpt lat="42.64751" lon="1.68473">
        <ele>2304.398</ele>
        <time>2021-07-19T10:49:37Z</time>
      </trkpt>
      <trkpt lat="42.64751" lon="1.68474">
        <ele>2304.059</ele>
        <time>2021-07-19T10:49:39Z</time>
      </trkpt>
      <trkpt lat="42.64752" lon="1.68474">
        <ele>2303.466</ele>
        <time>2021-07-19T10:49:41Z</time>
      </trkpt>
      <trkpt lat="42.64752" lon="1.68475">
        <ele>2302.818</ele>
        <time>2021-07-19T10:49:43Z</time>
      </trkpt>
      <trkpt lat="42.64752" lon="1.68475">
        <ele>2302.049</ele>
        <time>2021-07-19T10:49:45Z</time>
      </trkpt>
      <trkpt lat="42.64753" lon="1.68474">
        <ele>2300.363</ele>
        <time>2021-07-19T10:49:47Z</time>
      </trkpt>
      <trkpt lat="42.64754" lon="1.68475">
        <ele>2299.885</ele>
        <time>2021-07-19T10:49:49Z</time>
      </trkpt>
      <trkpt lat="42.64755" lon="1.68475">
        <ele>2299.855</ele>
        <time>2021-07-19T10:49:51Z</time>
      </trkpt>
      <trkpt lat="42.64756" lon="1.68475">
        <ele>2299.009</ele>
        <time>2021-07-19T10:49:53Z</time>
      </trkpt>
      <trkpt lat="42.64756" lon="1.68475">
        <ele>2298.55</ele>
        <time>2021-07-19T10:49:55Z</time>
      </trkpt>
      <trkpt lat="42.64756" lon="1.68477">
        <ele>2297.782</ele>
        <time>2021-07-19T10:49:57Z</time>
      </trkpt>
      <trkpt lat="42.64757" lon="1.68477">
        <ele>2297.053</ele>
        <time>2021-07-19T10:49:59Z</time>
      </trkpt>
      <trkpt lat="42.64757" lon="1.68478">
        <ele>2296.98</ele>
        <time>2021-07-19T10:50:01Z</time>
      </trkpt>
      <trkpt lat="42.64758" lon="1.6848">
        <ele>2296.913</ele>
        <time>2021-07-19T10:50:03Z</time>
      </trkpt>
      <trkpt lat="42.64759" lon="1.68481">
        <ele>2296.477</ele>
        <time>2021-07-19T10:50:05Z</time>
      </trkpt>
      <trkpt lat="42.6476" lon="1.68482">
        <ele>2295.995</ele>
        <time>2021-07-19T10:50:07Z</time>
      </trkpt>
      <trkpt lat="42.6476" lon="1.68482">
        <ele>2295.399</ele>
        <time>2021-07-19T10:50:09Z</time>
      </trkpt>
      <trkpt lat="42.64761" lon="1.68483">
        <ele>2294.612</ele>
        <time>2021-07-19T10:50:11Z</time>
      </trkpt>
      <trkpt lat="42.64762" lon="1.68484">
        <ele>2294.069</ele>
        <time>2021-07-19T10:50:13Z</time>
      </trkpt>
      <trkpt lat="42.64763" lon="1.68485">
        <ele>2293.352</ele>
        <time>2021-07-19T10:50:15Z</time>
      </trkpt>
      <trkpt lat="42.64764" lon="1.68486">
        <ele>2293.312</ele>
        <time>2021-07-19T10:50:17Z</time>
      </trkpt>
      <trkpt lat="42.64764" lon="1.68486">
        <ele>2292.464</ele>
        <time>2021-07-19T10:50:19Z</time>
      </trkpt>
      <trkpt lat="42.64766" lon="1.68488">
        <ele>2293.016</ele>
        <time>2021-07-19T10:50:21Z</time>
      </trkpt>
      <trkpt lat="42.64767" lon="1.68488">
        <ele>2292.5</ele>
        <time>2021-07-19T10:50:23Z</time>
      </trkpt>
      <trkpt lat="42.64768" lon="1.68488">
        <ele>2292.468</ele>
        <time>2021-07-19T10:50:25Z</time>
      </trkpt>
      <trkpt lat="42.64769" lon="1.68488">
        <ele>2291.637</ele>
        <time>2021-07-19T10:50:27Z</time>
      </trkpt>
      <trkpt lat="42.6477" lon="1.68488">
        <ele>2291.421</ele>
        <time>2021-07-19T10:50:29Z</time>
      </trkpt>
      <trkpt lat="42.64772" lon="1.68488">
        <ele>2290.427</ele>
        <time>2021-07-19T10:50:31Z</time>
      </trkpt>
      <trkpt lat="42.64772" lon="1.68489">
        <ele>2289.446</ele>
        <time>2021-07-19T10:50:33Z</time>
      </trkpt>
      <trkpt lat="42.64773" lon="1.68487">
        <ele>2289.115</ele>
        <time>2021-07-19T10:50:35Z</time>
      </trkpt>
      <trkpt lat="42.64774" lon="1.68489">
        <ele>2289.44</ele>
        <time>2021-07-19T10:50:37Z</time>
      </trkpt>
      <trkpt lat="42.64775" lon="1.68491">
        <ele>2289.36</ele>
        <time>2021-07-19T10:50:39Z</time>
      </trkpt>
      <trkpt lat="42.64776" lon="1.68493">
        <ele>2289.265</ele>
        <time>2021-07-19T10:50:41Z</time>
      </trkpt>
      <trkpt lat="42.64776" lon="1.68494">
        <ele>2288.385</ele>
        <time>2021-07-19T10:50:43Z</time>
      </trkpt>
      <trkpt lat="42.64777" lon="1.68495">
        <ele>2288.711</ele>
        <time>2021-07-19T10:50:45Z</time>
      </trkpt>
      <trkpt lat="42.64778" lon="1.68496">
        <ele>2288.878</ele>
        <time>2021-07-19T10:50:47Z</time>
      </trkpt>
      <trkpt lat="42.6478" lon="1.68497">
        <ele>2288.225</ele>
        <time>2021-07-19T10:50:49Z</time>
      </trkpt>
      <trkpt lat="42.64781" lon="1.68498">
        <ele>2287.717</ele>
        <time>2021-07-19T10:50:51Z</time>
      </trkpt>
      <trkpt lat="42.64782" lon="1.68499">
        <ele>2287.739</ele>
        <time>2021-07-19T10:50:53Z</time>
      </trkpt>
      <trkpt lat="42.64784" lon="1.685">
        <ele>2286.59</ele>
        <time>2021-07-19T10:50:55Z</time>
      </trkpt>
      <trkpt lat="42.64785" lon="1.68501">
        <ele>2286.627</ele>
        <time>2021-07-19T10:50:57Z</time>
      </trkpt>
      <trkpt lat="42.64787" lon="1.68503">
        <ele>2286.589</ele>
        <time>2021-07-19T10:50:59Z</time>
      </trkpt>
      <trkpt lat="42.64788" lon="1.68504">
        <ele>2285.934</ele>
        <time>2021-07-19T10:51:01Z</time>
      </trkpt>
      <trkpt lat="42.6479" lon="1.68505">
        <ele>2286.505</ele>
        <time>2021-07-19T10:51:03Z</time>
      </trkpt>
      <trkpt lat="42.64791" lon="1.68507">
        <ele>2286.702</ele>
        <time>2021-07-19T10:51:05Z</time>
      </trkpt>
      <trkpt lat="42.64792" lon="1.68508">
        <ele>2286.722</ele>
        <time>2021-07-19T10:51:07Z</time>
      </trkpt>
      <trkpt lat="42.64794" lon="1.6851">
        <ele>2286.875</ele>
        <time>2021-07-19T10:51:09Z</time>
      </trkpt>
      <trkpt lat="42.64795" lon="1.68512">
        <ele>2287.726</ele>
        <time>2021-07-19T10:51:11Z</time>
      </trkpt>
      <trkpt lat="42.64795" lon="1.68514">
        <ele>2288.839</ele>
        <time>2021-07-19T10:51:13Z</time>
      </trkpt>
      <trkpt lat="42.64796" lon="1.68516">
        <ele>2289.228</ele>
        <time>2021-07-19T10:51:15Z</time>
      </trkpt>
      <trkpt lat="42.64796" lon="1.68517">
        <ele>2289.269</ele>
        <time>2021-07-19T10:51:17Z</time>
      </trkpt>
      <trkpt lat="42.64797" lon="1.68517">
        <ele>2289.647</ele>
        <time>2021-07-19T10:51:19Z</time>
      </trkpt>
      <trkpt lat="42.64799" lon="1.68518">
        <ele>2289.991</ele>
        <time>2021-07-19T10:51:21Z</time>
      </trkpt>
      <trkpt lat="42.64801" lon="1.68519">
        <ele>2289.778</ele>
        <time>2021-07-19T10:51:23Z</time>
      </trkpt>
      <trkpt lat="42.64803" lon="1.6852">
        <ele>2289.624</ele>
        <time>2021-07-19T10:51:25Z</time>
      </trkpt>
      <trkpt lat="42.64804" lon="1.68521">
        <ele>2289.546</ele>
        <time>2021-07-19T10:51:27Z</time>
      </trkpt>
      <trkpt lat="42.64806" lon="1.68523">
        <ele>2289.802</ele>
        <time>2021-07-19T10:51:29Z</time>
      </trkpt>
      <trkpt lat="42.64808" lon="1.68524">
        <ele>2290.483</ele>
        <time>2021-07-19T10:51:31Z</time>
      </trkpt>
      <trkpt lat="42.6481" lon="1.68525">
        <ele>2290.931</ele>
        <time>2021-07-19T10:51:33Z</time>
      </trkpt>
      <trkpt lat="42.64811" lon="1.68527">
        <ele>2291.453</ele>
        <time>2021-07-19T10:51:35Z</time>
      </trkpt>
      <trkpt lat="42.64813" lon="1.68528">
        <ele>2290.502</ele>
        <time>2021-07-19T10:51:37Z</time>
      </trkpt>
      <trkpt lat="42.64815" lon="1.68528">
        <ele>2291.039</ele>
        <time>2021-07-19T10:51:39Z</time>
      </trkpt>
      <trkpt lat="42.64816" lon="1.68528">
        <ele>2291.071</ele>
        <time>2021-07-19T10:51:41Z</time>
      </trkpt>
      <trkpt lat="42.64818" lon="1.68529">
        <ele>2290.967</ele>
        <time>2021-07-19T10:51:43Z</time>
      </trkpt>
      <trkpt lat="42.64818" lon="1.68531">
        <ele>2291.335</ele>
        <time>2021-07-19T10:51:45Z</time>
      </trkpt>
      <trkpt lat="42.6482" lon="1.68533">
        <ele>2291.641</ele>
        <time>2021-07-19T10:51:47Z</time>
      </trkpt>
      <trkpt lat="42.64821" lon="1.68534">
        <ele>2291.909</ele>
        <time>2021-07-19T10:51:49Z</time>
      </trkpt>
      <trkpt lat="42.64822" lon="1.68534">
        <ele>2292.28</ele>
        <time>2021-07-19T10:51:51Z</time>
      </trkpt>
      <trkpt lat="42.64824" lon="1.68533">
        <ele>2291.904</ele>
        <time>2021-07-19T10:51:53Z</time>
      </trkpt>
      <trkpt lat="42.64824" lon="1.68532">
        <ele>2291.431</ele>
        <time>2021-07-19T10:51:55Z</time>
      </trkpt>
      <trkpt lat="42.64826" lon="1.68531">
        <ele>2291.237</ele>
        <time>2021-07-19T10:51:57Z</time>
      </trkpt>
      <trkpt lat="42.64827" lon="1.68531">
        <ele>2290.855</ele>
        <time>2021-07-19T10:51:59Z</time>
      </trkpt>
      <trkpt lat="42.64828" lon="1.6853">
        <ele>2291.365</ele>
        <time>2021-07-19T10:52:01Z</time>
      </trkpt>
      <trkpt lat="42.64829" lon="1.6853">
        <ele>2290.705</ele>
        <time>2021-07-19T10:52:03Z</time>
      </trkpt>
      <trkpt lat="42.64829" lon="1.6853">
        <ele>2290.676</ele>
        <time>2021-07-19T10:52:05Z</time>
      </trkpt>
      <trkpt lat="42.64829" lon="1.6853">
        <ele>2290.671</ele>
        <time>2021-07-19T10:52:07Z</time>
      </trkpt>
      <trkpt lat="42.64829" lon="1.6853">
        <ele>2290.812</ele>
        <time>2021-07-19T10:52:09Z</time>
      </trkpt>
      <trkpt lat="42.6483" lon="1.68531">
        <ele>2291.344</ele>
        <time>2021-07-19T10:52:11Z</time>
      </trkpt>
      <trkpt lat="42.6483" lon="1.6853">
        <ele>2291.315</ele>
        <time>2021-07-19T10:52:13Z</time>
      </trkpt>
      <trkpt lat="42.6483" lon="1.6853">
        <ele>2291.469</ele>
        <time>2021-07-19T10:52:15Z</time>
      </trkpt>
      <trkpt lat="42.64829" lon="1.6853">
        <ele>2291.785</ele>
        <time>2021-07-19T10:52:17Z</time>
      </trkpt>
      <trkpt lat="42.64829" lon="1.6853">
        <ele>2291.621</ele>
        <time>2021-07-19T10:52:19Z</time>
      </trkpt>
      <trkpt lat="42.64828" lon="1.6853">
        <ele>2291.962</ele>
        <time>2021-07-19T10:52:21Z</time>
      </trkpt>
      <trkpt lat="42.64826" lon="1.68529">
        <ele>2291.734</ele>
        <time>2021-07-19T10:52:23Z</time>
      </trkpt>
      <trkpt lat="42.64825" lon="1.6853">
        <ele>2291.192</ele>
        <time>2021-07-19T10:52:25Z</time>
      </trkpt>
      <trkpt lat="42.64824" lon="1.68532">
        <ele>2291.166</ele>
        <time>2021-07-19T10:52:27Z</time>
      </trkpt>
      <trkpt lat="42.64824" lon="1.68534">
        <ele>2290.77</ele>
        <time>2021-07-19T10:52:29Z</time>
      </trkpt>
      <trkpt lat="42.64823" lon="1.68535">
        <ele>2290.168</ele>
        <time>2021-07-19T10:52:31Z</time>
      </trkpt>
      <trkpt lat="42.64823" lon="1.68537">
        <ele>2289.699</ele>
        <time>2021-07-19T10:52:33Z</time>
      </trkpt>
      <trkpt lat="42.64823" lon="1.68538">
        <ele>2289.405</ele>
        <time>2021-07-19T10:52:34Z</time>
      </trkpt>
      <trkpt lat="42.64822" lon="1.68539">
        <ele>2290.146</ele>
        <time>2021-07-19T10:52:37Z</time>
      </trkpt>
      <trkpt lat="42.64821" lon="1.68539">
        <ele>2289.828</ele>
        <time>2021-07-19T10:52:39Z</time>
      </trkpt>
      <trkpt lat="42.64821" lon="1.68541">
        <ele>2288.761</ele>
        <time>2021-07-19T10:52:41Z</time>
      </trkpt>
      <trkpt lat="42.6482" lon="1.68539">
        <ele>2288.626</ele>
        <time>2021-07-19T10:52:43Z</time>
      </trkpt>
      <trkpt lat="42.64819" lon="1.68538">
        <ele>2287.286</ele>
        <time>2021-07-19T10:52:45Z</time>
      </trkpt>
      <trkpt lat="42.64818" lon="1.68536">
        <ele>2286.884</ele>
        <time>2021-07-19T10:52:47Z</time>
      </trkpt>
      <trkpt lat="42.64817" lon="1.68535">
        <ele>2286.97</ele>
        <time>2021-07-19T10:52:49Z</time>
      </trkpt>
      <trkpt lat="42.64816" lon="1.68535">
        <ele>2286.237</ele>
        <time>2021-07-19T10:52:51Z</time>
      </trkpt>
      <trkpt lat="42.64816" lon="1.68535">
        <ele>2285.687</ele>
        <time>2021-07-19T10:52:53Z</time>
      </trkpt>
      <trkpt lat="42.64815" lon="1.68536">
        <ele>2285.541</ele>
        <time>2021-07-19T10:52:55Z</time>
      </trkpt>
      <trkpt lat="42.64816" lon="1.68537">
        <ele>2286.327</ele>
        <time>2021-07-19T10:52:57Z</time>
      </trkpt>
      <trkpt lat="42.64816" lon="1.68538">
        <ele>2286.384</ele>
        <time>2021-07-19T10:52:59Z</time>
      </trkpt>
      <trkpt lat="42.64815" lon="1.68539">
        <ele>2285.892</ele>
        <time>2021-07-19T10:53:01Z</time>
      </trkpt>
      <trkpt lat="42.64815" lon="1.6854">
        <ele>2285.747</ele>
        <time>2021-07-19T10:53:03Z</time>
      </trkpt>
      <trkpt lat="42.64815" lon="1.68541">
        <ele>2285.195</ele>
        <time>2021-07-19T10:53:05Z</time>
      </trkpt>
      <trkpt lat="42.64814" lon="1.68542">
        <ele>2284.791</ele>
        <time>2021-07-19T10:53:07Z</time>
      </trkpt>
      <trkpt lat="42.64813" lon="1.68544">
        <ele>2284.517</ele>
        <time>2021-07-19T10:53:09Z</time>
      </trkpt>
      <trkpt lat="42.64813" lon="1.68545">
        <ele>2285.006</ele>
        <time>2021-07-19T10:53:11Z</time>
      </trkpt>
      <trkpt lat="42.64813" lon="1.68546">
        <ele>2285.555</ele>
        <time>2021-07-19T10:53:13Z</time>
      </trkpt>
      <trkpt lat="42.64813" lon="1.68547">
        <ele>2285.656</ele>
        <time>2021-07-19T10:53:15Z</time>
      </trkpt>
      <trkpt lat="42.64813" lon="1.68548">
        <ele>2285.703</ele>
        <time>2021-07-19T10:53:17Z</time>
      </trkpt>
      <trkpt lat="42.64814" lon="1.68548">
        <ele>2285.698</ele>
        <time>2021-07-19T10:53:19Z</time>
      </trkpt>
      <trkpt lat="42.64814" lon="1.68548">
        <ele>2286.009</ele>
        <time>2021-07-19T10:53:21Z</time>
      </trkpt>
      <trkpt lat="42.64815" lon="1.68549">
        <ele>2286.466</ele>
        <time>2021-07-19T10:53:23Z</time>
      </trkpt>
      <trkpt lat="42.64815" lon="1.68549">
        <ele>2286.316</ele>
        <time>2021-07-19T10:53:25Z</time>
      </trkpt>
      <trkpt lat="42.64816" lon="1.6855">
        <ele>2286.287</ele>
        <time>2021-07-19T10:53:27Z</time>
      </trkpt>
      <trkpt lat="42.64818" lon="1.68551">
        <ele>2287.028</ele>
        <time>2021-07-19T10:53:29Z</time>
      </trkpt>
      <trkpt lat="42.6482" lon="1.6855">
        <ele>2288.235</ele>
        <time>2021-07-19T10:53:31Z</time>
      </trkpt>
      <trkpt lat="42.64821" lon="1.68549">
        <ele>2288.842</ele>
        <time>2021-07-19T10:53:33Z</time>
      </trkpt>
      <trkpt lat="42.64823" lon="1.6855">
        <ele>2289.151</ele>
        <time>2021-07-19T10:53:35Z</time>
      </trkpt>
      <trkpt lat="42.64825" lon="1.68551">
        <ele>2289.217</ele>
        <time>2021-07-19T10:53:37Z</time>
      </trkpt>
      <trkpt lat="42.64825" lon="1.6855">
        <ele>2289.44</ele>
        <time>2021-07-19T10:53:39Z</time>
      </trkpt>
      <trkpt lat="42.64827" lon="1.6855">
        <ele>2290.724</ele>
        <time>2021-07-19T10:53:41Z</time>
      </trkpt>
      <trkpt lat="42.64828" lon="1.6855">
        <ele>2290.764</ele>
        <time>2021-07-19T10:53:43Z</time>
      </trkpt>
      <trkpt lat="42.64829" lon="1.6855">
        <ele>2291.018</ele>
        <time>2021-07-19T10:53:45Z</time>
      </trkpt>
      <trkpt lat="42.64829" lon="1.68552">
        <ele>2290.355</ele>
        <time>2021-07-19T10:53:47Z</time>
      </trkpt>
      <trkpt lat="42.6483" lon="1.68552">
        <ele>2290.585</ele>
        <time>2021-07-19T10:53:49Z</time>
      </trkpt>
      <trkpt lat="42.64831" lon="1.68553">
        <ele>2290.264</ele>
        <time>2021-07-19T10:53:51Z</time>
      </trkpt>
      <trkpt lat="42.64832" lon="1.68554">
        <ele>2289.638</ele>
        <time>2021-07-19T10:53:53Z</time>
      </trkpt>
      <trkpt lat="42.64833" lon="1.68554">
        <ele>2289.688</ele>
        <time>2021-07-19T10:53:55Z</time>
      </trkpt>
      <trkpt lat="42.64835" lon="1.68555">
        <ele>2290.148</ele>
        <time>2021-07-19T10:53:57Z</time>
      </trkpt>
      <trkpt lat="42.64837" lon="1.68556">
        <ele>2292.409</ele>
        <time>2021-07-19T10:53:59Z</time>
      </trkpt>
      <trkpt lat="42.64839" lon="1.68558">
        <ele>2292.673</ele>
        <time>2021-07-19T10:54:01Z</time>
      </trkpt>
      <trkpt lat="42.64841" lon="1.68559">
        <ele>2292.977</ele>
        <time>2021-07-19T10:54:03Z</time>
      </trkpt>
      <trkpt lat="42.64841" lon="1.68557">
        <ele>2291.864</ele>
        <time>2021-07-19T10:54:05Z</time>
      </trkpt>
      <trkpt lat="42.64841" lon="1.68555">
        <ele>2291.784</ele>
        <time>2021-07-19T10:54:07Z</time>
      </trkpt>
      <trkpt lat="42.64841" lon="1.68555">
        <ele>2291.78</ele>
        <time>2021-07-19T10:54:09Z</time>
      </trkpt>
      <trkpt lat="42.6484" lon="1.68555">
        <ele>2291.996</ele>
        <time>2021-07-19T10:54:11Z</time>
      </trkpt>
      <trkpt lat="42.6484" lon="1.68556">
        <ele>2291.475</ele>
        <time>2021-07-19T10:54:13Z</time>
      </trkpt>
      <trkpt lat="42.6484" lon="1.68557">
        <ele>2291.715</ele>
        <time>2021-07-19T10:54:15Z</time>
      </trkpt>
      <trkpt lat="42.64844" lon="1.68557">
        <ele>2293.362</ele>
        <time>2021-07-19T10:54:17Z</time>
      </trkpt>
      <trkpt lat="42.64844" lon="1.6856">
        <ele>2293.565</ele>
        <time>2021-07-19T10:54:19Z</time>
      </trkpt>
      <trkpt lat="42.64843" lon="1.68562">
        <ele>2292.973</ele>
        <time>2021-07-19T10:54:21Z</time>
      </trkpt>
      <trkpt lat="42.64843" lon="1.68564">
        <ele>2292.834</ele>
        <time>2021-07-19T10:54:23Z</time>
      </trkpt>
      <trkpt lat="42.64843" lon="1.68566">
        <ele>2292.098</ele>
        <time>2021-07-19T10:54:25Z</time>
      </trkpt>
      <trkpt lat="42.64844" lon="1.68567">
        <ele>2293.116</ele>
        <time>2021-07-19T10:54:27Z</time>
      </trkpt>
      <trkpt lat="42.64845" lon="1.68568">
        <ele>2293.203</ele>
        <time>2021-07-19T10:54:29Z</time>
      </trkpt>
      <trkpt lat="42.64845" lon="1.68567">
        <ele>2293.15</ele>
        <time>2021-07-19T10:54:31Z</time>
      </trkpt>
      <trkpt lat="42.64845" lon="1.68567">
        <ele>2293.136</ele>
        <time>2021-07-19T10:54:33Z</time>
      </trkpt>
      <trkpt lat="42.64845" lon="1.68567">
        <ele>2293.119</ele>
        <time>2021-07-19T10:54:35Z</time>
      </trkpt>
      <trkpt lat="42.64845" lon="1.68567">
        <ele>2293.106</ele>
        <time>2021-07-19T10:54:37Z</time>
      </trkpt>
      <trkpt lat="42.64845" lon="1.68568">
        <ele>2292.856</ele>
        <time>2021-07-19T10:54:39Z</time>
      </trkpt>
      <trkpt lat="42.64847" lon="1.6857">
        <ele>2291.715</ele>
        <time>2021-07-19T10:54:41Z</time>
      </trkpt>
      <trkpt lat="42.64846" lon="1.68571">
        <ele>2291.155</ele>
        <time>2021-07-19T10:54:43Z</time>
      </trkpt>
      <trkpt lat="42.64845" lon="1.68573">
        <ele>2290.736</ele>
        <time>2021-07-19T10:54:45Z</time>
      </trkpt>
      <trkpt lat="42.64844" lon="1.68574">
        <ele>2290.758</ele>
        <time>2021-07-19T10:54:47Z</time>
      </trkpt>
      <trkpt lat="42.64844" lon="1.68575">
        <ele>2291.353</ele>
        <time>2021-07-19T10:54:49Z</time>
      </trkpt>
      <trkpt lat="42.64843" lon="1.68577">
        <ele>2291.744</ele>
        <time>2021-07-19T10:54:51Z</time>
      </trkpt>
      <trkpt lat="42.64843" lon="1.68576">
        <ele>2291.356</ele>
        <time>2021-07-19T10:54:53Z</time>
      </trkpt>
      <trkpt lat="42.64842" lon="1.68576">
        <ele>2290.908</ele>
        <time>2021-07-19T10:54:55Z</time>
      </trkpt>
      <trkpt lat="42.64842" lon="1.68575">
        <ele>2290.237</ele>
        <time>2021-07-19T10:54:57Z</time>
      </trkpt>
      <trkpt lat="42.64842" lon="1.68574">
        <ele>2289.713</ele>
        <time>2021-07-19T10:54:59Z</time>
      </trkpt>
      <trkpt lat="42.64842" lon="1.68574">
        <ele>2289.137</ele>
        <time>2021-07-19T10:55:01Z</time>
      </trkpt>
      <trkpt lat="42.64843" lon="1.68575">
        <ele>2288.28</ele>
        <time>2021-07-19T10:55:03Z</time>
      </trkpt>
      <trkpt lat="42.64844" lon="1.68574">
        <ele>2288.418</ele>
        <time>2021-07-19T10:55:05Z</time>
      </trkpt>
      <trkpt lat="42.64844" lon="1.68574">
        <ele>2288.291</ele>
        <time>2021-07-19T10:55:07Z</time>
      </trkpt>
      <trkpt lat="42.64844" lon="1.68574">
        <ele>2288.06</ele>
        <time>2021-07-19T10:55:09Z</time>
      </trkpt>
      <trkpt lat="42.64845" lon="1.68574">
        <ele>2287.895</ele>
        <time>2021-07-19T10:55:11Z</time>
      </trkpt>
      <trkpt lat="42.64847" lon="1.68576">
        <ele>2286.827</ele>
        <time>2021-07-19T10:55:13Z</time>
      </trkpt>
      <trkpt lat="42.64847" lon="1.68577">
        <ele>2286.796</ele>
        <time>2021-07-19T10:55:15Z</time>
      </trkpt>
      <trkpt lat="42.64846" lon="1.68576">
        <ele>2286.786</ele>
        <time>2021-07-19T10:55:17Z</time>
      </trkpt>
      <trkpt lat="42.64846" lon="1.68576">
        <ele>2286.783</ele>
        <time>2021-07-19T10:55:19Z</time>
      </trkpt>
      <trkpt lat="42.64846" lon="1.68576">
        <ele>2286.784</ele>
        <time>2021-07-19T10:55:21Z</time>
      </trkpt>
      <trkpt lat="42.64846" lon="1.68576">
        <ele>2286.781</ele>
        <time>2021-07-19T10:55:23Z</time>
      </trkpt>
      <trkpt lat="42.64846" lon="1.68576">
        <ele>2286.78</ele>
        <time>2021-07-19T10:55:25Z</time>
      </trkpt>
      <trkpt lat="42.64846" lon="1.68576">
        <ele>2286.78</ele>
        <time>2021-07-19T10:55:27Z</time>
      </trkpt>
      <trkpt lat="42.64847" lon="1.68576">
        <ele>2285.578</ele>
        <time>2021-07-19T10:55:29Z</time>
      </trkpt>
      <trkpt lat="42.64848" lon="1.68576">
        <ele>2284.872</ele>
        <time>2021-07-19T10:55:31Z</time>
      </trkpt>
      <trkpt lat="42.64848" lon="1.68575">
        <ele>2284.154</ele>
        <time>2021-07-19T10:55:33Z</time>
      </trkpt>
      <trkpt lat="42.64849" lon="1.68574">
        <ele>2281.643</ele>
        <time>2021-07-19T10:55:35Z</time>
      </trkpt>
      <trkpt lat="42.64849" lon="1.68573">
        <ele>2280.764</ele>
        <time>2021-07-19T10:55:37Z</time>
      </trkpt>
      <trkpt lat="42.64849" lon="1.68573">
        <ele>2280.368</ele>
        <time>2021-07-19T10:55:39Z</time>
      </trkpt>
      <trkpt lat="42.64849" lon="1.68572">
        <ele>2278.776</ele>
        <time>2021-07-19T10:55:41Z</time>
      </trkpt>
      <trkpt lat="42.64851" lon="1.68571">
        <ele>2277.674</ele>
        <time>2021-07-19T10:55:43Z</time>
      </trkpt>
      <trkpt lat="42.64852" lon="1.68572">
        <ele>2277.856</ele>
        <time>2021-07-19T10:55:45Z</time>
      </trkpt>
      <trkpt lat="42.64852" lon="1.68572">
        <ele>2277.495</ele>
        <time>2021-07-19T10:55:47Z</time>
      </trkpt>
      <trkpt lat="42.64852" lon="1.68572">
        <ele>2277.486</ele>
        <time>2021-07-19T10:55:49Z</time>
      </trkpt>
      <trkpt lat="42.64852" lon="1.68572">
        <ele>2277.48</ele>
        <time>2021-07-19T10:55:51Z</time>
      </trkpt>
      <trkpt lat="42.64852" lon="1.68572">
        <ele>2277.473</ele>
        <time>2021-07-19T10:55:53Z</time>
      </trkpt>
      <trkpt lat="42.64854" lon="1.68572">
        <ele>2275.735</ele>
        <time>2021-07-19T10:55:55Z</time>
      </trkpt>
      <trkpt lat="42.64855" lon="1.68572">
        <ele>2274.265</ele>
        <time>2021-07-19T10:55:57Z</time>
      </trkpt>
      <trkpt lat="42.64856" lon="1.68572">
        <ele>2274.585</ele>
        <time>2021-07-19T10:55:59Z</time>
      </trkpt>
      <trkpt lat="42.64857" lon="1.68572">
        <ele>2274.596</ele>
        <time>2021-07-19T10:56:01Z</time>
      </trkpt>
      <trkpt lat="42.64858" lon="1.68572">
        <ele>2275.256</ele>
        <time>2021-07-19T10:56:03Z</time>
      </trkpt>
      <trkpt lat="42.64859" lon="1.68573">
        <ele>2275.246</ele>
        <time>2021-07-19T10:56:05Z</time>
      </trkpt>
      <trkpt lat="42.64859" lon="1.68574">
        <ele>2275.603</ele>
        <time>2021-07-19T10:56:07Z</time>
      </trkpt>
      <trkpt lat="42.6486" lon="1.68575">
        <ele>2275.574</ele>
        <time>2021-07-19T10:56:09Z</time>
      </trkpt>
      <trkpt lat="42.6486" lon="1.68577">
        <ele>2276.416</ele>
        <time>2021-07-19T10:56:11Z</time>
      </trkpt>
      <trkpt lat="42.64859" lon="1.68579">
        <ele>2277.399</ele>
        <time>2021-07-19T10:56:13Z</time>
      </trkpt>
      <trkpt lat="42.64859" lon="1.6858">
        <ele>2277.387</ele>
        <time>2021-07-19T10:56:15Z</time>
      </trkpt>
      <trkpt lat="42.64859" lon="1.6858">
        <ele>2276.671</ele>
        <time>2021-07-19T10:56:17Z</time>
      </trkpt>
      <trkpt lat="42.6486" lon="1.6858">
        <ele>2276.868</ele>
        <time>2021-07-19T10:56:19Z</time>
      </trkpt>
      <trkpt lat="42.6486" lon="1.68579">
        <ele>2277.012</ele>
        <time>2021-07-19T10:56:21Z</time>
      </trkpt>
      <trkpt lat="42.6486" lon="1.68579">
        <ele>2276.461</ele>
        <time>2021-07-19T10:56:23Z</time>
      </trkpt>
      <trkpt lat="42.64858" lon="1.6858">
        <ele>2276.169</ele>
        <time>2021-07-19T10:56:25Z</time>
      </trkpt>
      <trkpt lat="42.64857" lon="1.68578">
        <ele>2276.902</ele>
        <time>2021-07-19T10:56:27Z</time>
      </trkpt>
      <trkpt lat="42.64856" lon="1.68577">
        <ele>2276.022</ele>
        <time>2021-07-19T10:56:29Z</time>
      </trkpt>
      <trkpt lat="42.64856" lon="1.68576">
        <ele>2275.492</ele>
        <time>2021-07-19T10:56:31Z</time>
      </trkpt>
      <trkpt lat="42.64856" lon="1.68574">
        <ele>2274.921</ele>
        <time>2021-07-19T10:56:33Z</time>
      </trkpt>
      <trkpt lat="42.64854" lon="1.68574">
        <ele>2274.037</ele>
        <time>2021-07-19T10:56:35Z</time>
      </trkpt>
      <trkpt lat="42.64853" lon="1.68574">
        <ele>2274.603</ele>
        <time>2021-07-19T10:56:37Z</time>
      </trkpt>
      <trkpt lat="42.64852" lon="1.68573">
        <ele>2274.118</ele>
        <time>2021-07-19T10:56:39Z</time>
      </trkpt>
      <trkpt lat="42.64851" lon="1.68574">
        <ele>2273.848</ele>
        <time>2021-07-19T10:56:41Z</time>
      </trkpt>
      <trkpt lat="42.64851" lon="1.68575">
        <ele>2273.773</ele>
        <time>2021-07-19T10:56:43Z</time>
      </trkpt>
      <trkpt lat="42.6485" lon="1.68576">
        <ele>2274.416</ele>
        <time>2021-07-19T10:56:45Z</time>
      </trkpt>
      <trkpt lat="42.6485" lon="1.68577">
        <ele>2273.825</ele>
        <time>2021-07-19T10:56:47Z</time>
      </trkpt>
      <trkpt lat="42.64849" lon="1.68578">
        <ele>2273.308</ele>
        <time>2021-07-19T10:56:49Z</time>
      </trkpt>
      <trkpt lat="42.64849" lon="1.6858">
        <ele>2273.21</ele>
        <time>2021-07-19T10:56:51Z</time>
      </trkpt>
      <trkpt lat="42.64849" lon="1.6858">
        <ele>2273.222</ele>
        <time>2021-07-19T10:56:53Z</time>
      </trkpt>
      <trkpt lat="42.64849" lon="1.68581">
        <ele>2272.686</ele>
        <time>2021-07-19T10:56:55Z</time>
      </trkpt>
      <trkpt lat="42.64849" lon="1.68581">
        <ele>2272.691</ele>
        <time>2021-07-19T10:56:57Z</time>
      </trkpt>
      <trkpt lat="42.64849" lon="1.68581">
        <ele>2272.685</ele>
        <time>2021-07-19T10:56:59Z</time>
      </trkpt>
      <trkpt lat="42.64849" lon="1.68581">
        <ele>2272.674</ele>
        <time>2021-07-19T10:57:01Z</time>
      </trkpt>
      <trkpt lat="42.64849" lon="1.68581">
        <ele>2272.667</ele>
        <time>2021-07-19T10:57:03Z</time>
      </trkpt>
      <trkpt lat="42.64848" lon="1.68582">
        <ele>2272.24</ele>
        <time>2021-07-19T10:57:05Z</time>
      </trkpt>
      <trkpt lat="42.64848" lon="1.68582">
        <ele>2272.202</ele>
        <time>2021-07-19T10:57:07Z</time>
      </trkpt>
      <trkpt lat="42.64848" lon="1.68584">
        <ele>2271.938</ele>
        <time>2021-07-19T10:57:09Z</time>
      </trkpt>
      <trkpt lat="42.64848" lon="1.68584">
        <ele>2272.098</ele>
        <time>2021-07-19T10:57:11Z</time>
      </trkpt>
      <trkpt lat="42.64847" lon="1.68585">
        <ele>2272.064</ele>
        <time>2021-07-19T10:57:13Z</time>
      </trkpt>
      <trkpt lat="42.64846" lon="1.68586">
        <ele>2272.537</ele>
        <time>2021-07-19T10:57:15Z</time>
      </trkpt>
      <trkpt lat="42.64846" lon="1.68587">
        <ele>2272.54</ele>
        <time>2021-07-19T10:57:17Z</time>
      </trkpt>
      <trkpt lat="42.64846" lon="1.68588">
        <ele>2272.781</ele>
        <time>2021-07-19T10:57:19Z</time>
      </trkpt>
      <trkpt lat="42.64847" lon="1.68588">
        <ele>2272.409</ele>
        <time>2021-07-19T10:57:21Z</time>
      </trkpt>
      <trkpt lat="42.64849" lon="1.6859">
        <ele>2272.27</ele>
        <time>2021-07-19T10:57:23Z</time>
      </trkpt>
      <trkpt lat="42.64849" lon="1.68591">
        <ele>2272.45</ele>
        <time>2021-07-19T10:57:25Z</time>
      </trkpt>
      <trkpt lat="42.6485" lon="1.68592">
        <ele>2272.613</ele>
        <time>2021-07-19T10:57:27Z</time>
      </trkpt>
      <trkpt lat="42.64852" lon="1.68591">
        <ele>2272.996</ele>
        <time>2021-07-19T10:57:29Z</time>
      </trkpt>
      <trkpt lat="42.64853" lon="1.6859">
        <ele>2273.009</ele>
        <time>2021-07-19T10:57:31Z</time>
      </trkpt>
      <trkpt lat="42.64855" lon="1.6859">
        <ele>2272.706</ele>
        <time>2021-07-19T10:57:33Z</time>
      </trkpt>
      <trkpt lat="42.64856" lon="1.68589">
        <ele>2272.93</ele>
        <time>2021-07-19T10:57:35Z</time>
      </trkpt>
      <trkpt lat="42.64856" lon="1.68589">
        <ele>2272.409</ele>
        <time>2021-07-19T10:57:37Z</time>
      </trkpt>
      <trkpt lat="42.64857" lon="1.68589">
        <ele>2272.93</ele>
        <time>2021-07-19T10:57:39Z</time>
      </trkpt>
      <trkpt lat="42.64857" lon="1.6859">
        <ele>2273.606</ele>
        <time>2021-07-19T10:57:41Z</time>
      </trkpt>
      <trkpt lat="42.64858" lon="1.6859">
        <ele>2273.994</ele>
        <time>2021-07-19T10:57:43Z</time>
      </trkpt>
      <trkpt lat="42.64858" lon="1.68589">
        <ele>2273.443</ele>
        <time>2021-07-19T10:57:45Z</time>
      </trkpt>
      <trkpt lat="42.6486" lon="1.68587">
        <ele>2273.468</ele>
        <time>2021-07-19T10:57:47Z</time>
      </trkpt>
      <trkpt lat="42.6486" lon="1.68586">
        <ele>2273.637</ele>
        <time>2021-07-19T10:57:49Z</time>
      </trkpt>
      <trkpt lat="42.64861" lon="1.68584">
        <ele>2273.465</ele>
        <time>2021-07-19T10:57:51Z</time>
      </trkpt>
      <trkpt lat="42.64862" lon="1.68582">
        <ele>2273.667</ele>
        <time>2021-07-19T10:57:53Z</time>
      </trkpt>
      <trkpt lat="42.64862" lon="1.68581">
        <ele>2274.058</ele>
        <time>2021-07-19T10:57:55Z</time>
      </trkpt>
      <trkpt lat="42.64863" lon="1.68579">
        <ele>2274.471</ele>
        <time>2021-07-19T10:57:57Z</time>
      </trkpt>
      <trkpt lat="42.64863" lon="1.68578">
        <ele>2275.08</ele>
        <time>2021-07-19T10:57:59Z</time>
      </trkpt>
      <trkpt lat="42.64865" lon="1.68577">
        <ele>2276.185</ele>
        <time>2021-07-19T10:58:01Z</time>
      </trkpt>
      <trkpt lat="42.64866" lon="1.68573">
        <ele>2276.011</ele>
        <time>2021-07-19T10:58:03Z</time>
      </trkpt>
      <trkpt lat="42.64867" lon="1.68573">
        <ele>2273.586</ele>
        <time>2021-07-19T10:58:05Z</time>
      </trkpt>
      <trkpt lat="42.64867" lon="1.68573">
        <ele>2273.596</ele>
        <time>2021-07-19T10:58:07Z</time>
      </trkpt>
      <trkpt lat="42.64867" lon="1.68572">
        <ele>2273.811</ele>
        <time>2021-07-19T10:58:09Z</time>
      </trkpt>
      <trkpt lat="42.64867" lon="1.68571">
        <ele>2273.005</ele>
        <time>2021-07-19T10:58:11Z</time>
      </trkpt>
      <trkpt lat="42.64869" lon="1.68571">
        <ele>2273.4</ele>
        <time>2021-07-19T10:58:13Z</time>
      </trkpt>
      <trkpt lat="42.6487" lon="1.68569">
        <ele>2272.672</ele>
        <time>2021-07-19T10:58:15Z</time>
      </trkpt>
      <trkpt lat="42.64871" lon="1.68568">
        <ele>2272.931</ele>
        <time>2021-07-19T10:58:17Z</time>
      </trkpt>
      <trkpt lat="42.64872" lon="1.68568">
        <ele>2273.168</ele>
        <time>2021-07-19T10:58:19Z</time>
      </trkpt>
      <trkpt lat="42.64871" lon="1.68568">
        <ele>2273.318</ele>
        <time>2021-07-19T10:58:21Z</time>
      </trkpt>
      <trkpt lat="42.64871" lon="1.68569">
        <ele>2273.331</ele>
        <time>2021-07-19T10:58:23Z</time>
      </trkpt>
      <trkpt lat="42.64872" lon="1.68569">
        <ele>2273.436</ele>
        <time>2021-07-19T10:58:25Z</time>
      </trkpt>
      <trkpt lat="42.64872" lon="1.68569">
        <ele>2273.425</ele>
        <time>2021-07-19T10:58:27Z</time>
      </trkpt>
      <trkpt lat="42.64872" lon="1.68569">
        <ele>2273.425</ele>
        <time>2021-07-19T10:58:29Z</time>
      </trkpt>
      <trkpt lat="42.64872" lon="1.68569">
        <ele>2273.421</ele>
        <time>2021-07-19T10:58:31Z</time>
      </trkpt>
      <trkpt lat="42.64872" lon="1.68569">
        <ele>2273.42</ele>
        <time>2021-07-19T10:58:33Z</time>
      </trkpt>
      <trkpt lat="42.64872" lon="1.68569">
        <ele>2273.397</ele>
        <time>2021-07-19T10:58:35Z</time>
      </trkpt>
      <trkpt lat="42.64872" lon="1.68569">
        <ele>2273.381</ele>
        <time>2021-07-19T10:58:37Z</time>
      </trkpt>
      <trkpt lat="42.64872" lon="1.68569">
        <ele>2273.369</ele>
        <time>2021-07-19T10:58:39Z</time>
      </trkpt>
      <trkpt lat="42.64872" lon="1.68569">
        <ele>2273.356</ele>
        <time>2021-07-19T10:58:41Z</time>
      </trkpt>
      <trkpt lat="42.64872" lon="1.68569">
        <ele>2273.337</ele>
        <time>2021-07-19T10:58:43Z</time>
      </trkpt>
      <trkpt lat="42.64872" lon="1.68569">
        <ele>2273.294</ele>
        <time>2021-07-19T10:58:45Z</time>
      </trkpt>
      <trkpt lat="42.64872" lon="1.68569">
        <ele>2273.274</ele>
        <time>2021-07-19T10:58:47Z</time>
      </trkpt>
      <trkpt lat="42.64872" lon="1.68569">
        <ele>2273.24</ele>
        <time>2021-07-19T10:58:49Z</time>
      </trkpt>
      <trkpt lat="42.64872" lon="1.68569">
        <ele>2273.187</ele>
        <time>2021-07-19T10:58:51Z</time>
      </trkpt>
      <trkpt lat="42.64872" lon="1.68569">
        <ele>2273.165</ele>
        <time>2021-07-19T10:58:53Z</time>
      </trkpt>
      <trkpt lat="42.64872" lon="1.68568">
        <ele>2273.139</ele>
        <time>2021-07-19T10:58:55Z</time>
      </trkpt>
      <trkpt lat="42.64872" lon="1.68568">
        <ele>2273.143</ele>
        <time>2021-07-19T10:58:57Z</time>
      </trkpt>
      <trkpt lat="42.64872" lon="1.68568">
        <ele>2273.172</ele>
        <time>2021-07-19T10:58:59Z</time>
      </trkpt>
      <trkpt lat="42.64872" lon="1.68568">
        <ele>2273.159</ele>
        <time>2021-07-19T10:59:01Z</time>
      </trkpt>
      <trkpt lat="42.64872" lon="1.68568">
        <ele>2273.124</ele>
        <time>2021-07-19T10:59:03Z</time>
      </trkpt>
      <trkpt lat="42.64872" lon="1.68568">
        <ele>2273.111</ele>
        <time>2021-07-19T10:59:05Z</time>
      </trkpt>
      <trkpt lat="42.64872" lon="1.68568">
        <ele>2273.1</ele>
        <time>2021-07-19T10:59:07Z</time>
      </trkpt>
      <trkpt lat="42.64872" lon="1.68569">
        <ele>2272.959</ele>
        <time>2021-07-19T10:59:09Z</time>
      </trkpt>
      <trkpt lat="42.64873" lon="1.6857">
        <ele>2273.491</ele>
        <time>2021-07-19T10:59:11Z</time>
      </trkpt>
      <trkpt lat="42.64874" lon="1.68571">
        <ele>2273.486</ele>
        <time>2021-07-19T10:59:13Z</time>
      </trkpt>
      <trkpt lat="42.64875" lon="1.6857">
        <ele>2274.334</ele>
        <time>2021-07-19T10:59:15Z</time>
      </trkpt>
      <trkpt lat="42.64877" lon="1.6857">
        <ele>2274.089</ele>
        <time>2021-07-19T10:59:17Z</time>
      </trkpt>
      <trkpt lat="42.64877" lon="1.68571">
        <ele>2274.144</ele>
        <time>2021-07-19T10:59:19Z</time>
      </trkpt>
      <trkpt lat="42.64877" lon="1.68571">
        <ele>2274.286</ele>
        <time>2021-07-19T10:59:21Z</time>
      </trkpt>
      <trkpt lat="42.64879" lon="1.68572">
        <ele>2274.597</ele>
        <time>2021-07-19T10:59:23Z</time>
      </trkpt>
      <trkpt lat="42.6488" lon="1.68571">
        <ele>2274.698</ele>
        <time>2021-07-19T10:59:25Z</time>
      </trkpt>
      <trkpt lat="42.64881" lon="1.6857">
        <ele>2274.824</ele>
        <time>2021-07-19T10:59:27Z</time>
      </trkpt>
      <trkpt lat="42.64881" lon="1.68571">
        <ele>2274.276</ele>
        <time>2021-07-19T10:59:29Z</time>
      </trkpt>
      <trkpt lat="42.64882" lon="1.6857">
        <ele>2274.331</ele>
        <time>2021-07-19T10:59:31Z</time>
      </trkpt>
      <trkpt lat="42.64883" lon="1.68569">
        <ele>2274.94</ele>
        <time>2021-07-19T10:59:33Z</time>
      </trkpt>
      <trkpt lat="42.64884" lon="1.68569">
        <ele>2275.276</ele>
        <time>2021-07-19T10:59:35Z</time>
      </trkpt>
      <trkpt lat="42.64885" lon="1.68568">
        <ele>2275.51</ele>
        <time>2021-07-19T10:59:37Z</time>
      </trkpt>
      <trkpt lat="42.64885" lon="1.68566">
        <ele>2274.815</ele>
        <time>2021-07-19T10:59:39Z</time>
      </trkpt>
      <trkpt lat="42.64886" lon="1.68565">
        <ele>2275.647</ele>
        <time>2021-07-19T10:59:41Z</time>
      </trkpt>
      <trkpt lat="42.64887" lon="1.68564">
        <ele>2275.387</ele>
        <time>2021-07-19T10:59:43Z</time>
      </trkpt>
      <trkpt lat="42.64888" lon="1.68564">
        <ele>2275.258</ele>
        <time>2021-07-19T10:59:45Z</time>
      </trkpt>
      <trkpt lat="42.64889" lon="1.68563">
        <ele>2275.055</ele>
        <time>2021-07-19T10:59:47Z</time>
      </trkpt>
      <trkpt lat="42.6489" lon="1.68562">
        <ele>2274.855</ele>
        <time>2021-07-19T10:59:49Z</time>
      </trkpt>
      <trkpt lat="42.64891" lon="1.68561">
        <ele>2274.207</ele>
        <time>2021-07-19T10:59:51Z</time>
      </trkpt>
      <trkpt lat="42.64892" lon="1.68561">
        <ele>2274.393</ele>
        <time>2021-07-19T10:59:53Z</time>
      </trkpt>
      <trkpt lat="42.64894" lon="1.6856">
        <ele>2274.972</ele>
        <time>2021-07-19T10:59:55Z</time>
      </trkpt>
      <trkpt lat="42.64895" lon="1.68559">
        <ele>2275.14</ele>
        <time>2021-07-19T10:59:57Z</time>
      </trkpt>
      <trkpt lat="42.64897" lon="1.68559">
        <ele>2274.913</ele>
        <time>2021-07-19T10:59:59Z</time>
      </trkpt>
      <trkpt lat="42.64898" lon="1.68559">
        <ele>2274.92</ele>
        <time>2021-07-19T11:00:01Z</time>
      </trkpt>
      <trkpt lat="42.649" lon="1.68559">
        <ele>2274.881</ele>
        <time>2021-07-19T11:00:03Z</time>
      </trkpt>
      <trkpt lat="42.64901" lon="1.68558">
        <ele>2273.502</ele>
        <time>2021-07-19T11:00:05Z</time>
      </trkpt>
      <trkpt lat="42.64902" lon="1.68558">
        <ele>2273.29</ele>
        <time>2021-07-19T11:00:07Z</time>
      </trkpt>
      <trkpt lat="42.64902" lon="1.68558">
        <ele>2273.287</ele>
        <time>2021-07-19T11:00:09Z</time>
      </trkpt>
      <trkpt lat="42.64902" lon="1.68558">
        <ele>2273.277</ele>
        <time>2021-07-19T11:00:11Z</time>
      </trkpt>
      <trkpt lat="42.64902" lon="1.68558">
        <ele>2273.285</ele>
        <time>2021-07-19T11:00:13Z</time>
      </trkpt>
      <trkpt lat="42.64902" lon="1.68558">
        <ele>2273.482</ele>
        <time>2021-07-19T11:00:15Z</time>
      </trkpt>
      <trkpt lat="42.64903" lon="1.68557">
        <ele>2272.877</ele>
        <time>2021-07-19T11:00:17Z</time>
      </trkpt>
      <trkpt lat="42.64904" lon="1.68557">
        <ele>2272.126</ele>
        <time>2021-07-19T11:00:19Z</time>
      </trkpt>
      <trkpt lat="42.64906" lon="1.68556">
        <ele>2272.466</ele>
        <time>2021-07-19T11:00:21Z</time>
      </trkpt>
      <trkpt lat="42.64906" lon="1.68555">
        <ele>2272.219</ele>
        <time>2021-07-19T11:00:23Z</time>
      </trkpt>
      <trkpt lat="42.64907" lon="1.68554">
        <ele>2271.991</ele>
        <time>2021-07-19T11:00:25Z</time>
      </trkpt>
      <trkpt lat="42.64908" lon="1.68553">
        <ele>2272.027</ele>
        <time>2021-07-19T11:00:27Z</time>
      </trkpt>
      <trkpt lat="42.64909" lon="1.68552">
        <ele>2272.067</ele>
        <time>2021-07-19T11:00:29Z</time>
      </trkpt>
      <trkpt lat="42.64909" lon="1.68552">
        <ele>2271.716</ele>
        <time>2021-07-19T11:00:31Z</time>
      </trkpt>
      <trkpt lat="42.6491" lon="1.68552">
        <ele>2271.684</ele>
        <time>2021-07-19T11:00:33Z</time>
      </trkpt>
      <trkpt lat="42.6491" lon="1.68551">
        <ele>2271.684</ele>
        <time>2021-07-19T11:00:35Z</time>
      </trkpt>
      <trkpt lat="42.6491" lon="1.68551">
        <ele>2271.689</ele>
        <time>2021-07-19T11:00:37Z</time>
      </trkpt>
      <trkpt lat="42.6491" lon="1.68552">
        <ele>2271.678</ele>
        <time>2021-07-19T11:00:39Z</time>
      </trkpt>
      <trkpt lat="42.6491" lon="1.68552">
        <ele>2271.684</ele>
        <time>2021-07-19T11:00:41Z</time>
      </trkpt>
      <trkpt lat="42.6491" lon="1.68551">
        <ele>2271.689</ele>
        <time>2021-07-19T11:00:43Z</time>
      </trkpt>
      <trkpt lat="42.6491" lon="1.68551">
        <ele>2271.615</ele>
        <time>2021-07-19T11:00:45Z</time>
      </trkpt>
      <trkpt lat="42.6491" lon="1.68552">
        <ele>2271.504</ele>
        <time>2021-07-19T11:00:47Z</time>
      </trkpt>
      <trkpt lat="42.6491" lon="1.68551">
        <ele>2271.515</ele>
        <time>2021-07-19T11:00:49Z</time>
      </trkpt>
      <trkpt lat="42.6491" lon="1.68552">
        <ele>2271.384</ele>
        <time>2021-07-19T11:00:51Z</time>
      </trkpt>
      <trkpt lat="42.6491" lon="1.68552">
        <ele>2271.369</ele>
        <time>2021-07-19T11:00:53Z</time>
      </trkpt>
      <trkpt lat="42.6491" lon="1.68552">
        <ele>2271.356</ele>
        <time>2021-07-19T11:00:55Z</time>
      </trkpt>
      <trkpt lat="42.6491" lon="1.68552">
        <ele>2271.364</ele>
        <time>2021-07-19T11:00:57Z</time>
      </trkpt>
      <trkpt lat="42.6491" lon="1.68552">
        <ele>2271.364</ele>
        <time>2021-07-19T11:00:59Z</time>
      </trkpt>
      <trkpt lat="42.6491" lon="1.68552">
        <ele>2271.485</ele>
        <time>2021-07-19T11:01:01Z</time>
      </trkpt>
      <trkpt lat="42.6491" lon="1.68551">
        <ele>2270.904</ele>
        <time>2021-07-19T11:01:03Z</time>
      </trkpt>
      <trkpt lat="42.64911" lon="1.68551">
        <ele>2270.894</ele>
        <time>2021-07-19T11:01:05Z</time>
      </trkpt>
      <trkpt lat="42.64911" lon="1.68551">
        <ele>2270.631</ele>
        <time>2021-07-19T11:01:07Z</time>
      </trkpt>
      <trkpt lat="42.64911" lon="1.68551">
        <ele>2271.243</ele>
        <time>2021-07-19T11:01:09Z</time>
      </trkpt>
      <trkpt lat="42.64911" lon="1.68552">
        <ele>2271.047</ele>
        <time>2021-07-19T11:01:11Z</time>
      </trkpt>
      <trkpt lat="42.64911" lon="1.68552">
        <ele>2271.038</ele>
        <time>2021-07-19T11:01:13Z</time>
      </trkpt>
      <trkpt lat="42.64911" lon="1.68552">
        <ele>2270.769</ele>
        <time>2021-07-19T11:01:15Z</time>
      </trkpt>
      <trkpt lat="42.6491" lon="1.68552">
        <ele>2270.796</ele>
        <time>2021-07-19T11:01:17Z</time>
      </trkpt>
      <trkpt lat="42.6491" lon="1.68552">
        <ele>2270.906</ele>
        <time>2021-07-19T11:01:19Z</time>
      </trkpt>
      <trkpt lat="42.6491" lon="1.68552">
        <ele>2270.908</ele>
        <time>2021-07-19T11:01:21Z</time>
      </trkpt>
      <trkpt lat="42.6491" lon="1.68552">
        <ele>2270.909</ele>
        <time>2021-07-19T11:01:23Z</time>
      </trkpt>
      <trkpt lat="42.6491" lon="1.68552">
        <ele>2270.914</ele>
        <time>2021-07-19T11:01:25Z</time>
      </trkpt>
      <trkpt lat="42.6491" lon="1.68552">
        <ele>2270.914</ele>
        <time>2021-07-19T11:01:27Z</time>
      </trkpt>
      <trkpt lat="42.6491" lon="1.68552">
        <ele>2270.916</ele>
        <time>2021-07-19T11:01:29Z</time>
      </trkpt>
      <trkpt lat="42.6491" lon="1.68552">
        <ele>2270.916</ele>
        <time>2021-07-19T11:01:31Z</time>
      </trkpt>
      <trkpt lat="42.6491" lon="1.68552">
        <ele>2270.913</ele>
        <time>2021-07-19T11:01:33Z</time>
      </trkpt>
      <trkpt lat="42.6491" lon="1.68552">
        <ele>2270.917</ele>
        <time>2021-07-19T11:01:35Z</time>
      </trkpt>
      <trkpt lat="42.6491" lon="1.68552">
        <ele>2270.917</ele>
        <time>2021-07-19T11:01:37Z</time>
      </trkpt>
      <trkpt lat="42.6491" lon="1.68552">
        <ele>2270.915</ele>
        <time>2021-07-19T11:01:39Z</time>
      </trkpt>
      <trkpt lat="42.6491" lon="1.68552">
        <ele>2270.914</ele>
        <time>2021-07-19T11:01:41Z</time>
      </trkpt>
      <trkpt lat="42.6491" lon="1.68552">
        <ele>2270.915</ele>
        <time>2021-07-19T11:01:43Z</time>
      </trkpt>
      <trkpt lat="42.6491" lon="1.68552">
        <ele>2270.915</ele>
        <time>2021-07-19T11:01:45Z</time>
      </trkpt>
      <trkpt lat="42.6491" lon="1.68552">
        <ele>2270.916</ele>
        <time>2021-07-19T11:01:47Z</time>
      </trkpt>
      <trkpt lat="42.6491" lon="1.68552">
        <ele>2270.917</ele>
        <time>2021-07-19T11:01:49Z</time>
      </trkpt>
      <trkpt lat="42.6491" lon="1.68552">
        <ele>2270.916</ele>
        <time>2021-07-19T11:01:51Z</time>
      </trkpt>
      <trkpt lat="42.6491" lon="1.68552">
        <ele>2270.917</ele>
        <time>2021-07-19T11:01:53Z</time>
      </trkpt>
      <trkpt lat="42.6491" lon="1.68552">
        <ele>2270.919</ele>
        <time>2021-07-19T11:01:55Z</time>
      </trkpt>
      <trkpt lat="42.6491" lon="1.68552">
        <ele>2270.923</ele>
        <time>2021-07-19T11:01:57Z</time>
      </trkpt>
      <trkpt lat="42.6491" lon="1.68552">
        <ele>2270.927</ele>
        <time>2021-07-19T11:01:59Z</time>
      </trkpt>
      <trkpt lat="42.6491" lon="1.68552">
        <ele>2270.929</ele>
        <time>2021-07-19T11:02:01Z</time>
      </trkpt>
      <trkpt lat="42.6491" lon="1.68552">
        <ele>2270.928</ele>
        <time>2021-07-19T11:02:03Z</time>
      </trkpt>
      <trkpt lat="42.6491" lon="1.68552">
        <ele>2270.929</ele>
        <time>2021-07-19T11:02:05Z</time>
      </trkpt>
      <trkpt lat="42.6491" lon="1.68552">
        <ele>2270.928</ele>
        <time>2021-07-19T11:02:07Z</time>
      </trkpt>
      <trkpt lat="42.6491" lon="1.68552">
        <ele>2270.929</ele>
        <time>2021-07-19T11:02:09Z</time>
      </trkpt>
      <trkpt lat="42.6491" lon="1.68552">
        <ele>2270.932</ele>
        <time>2021-07-19T11:02:11Z</time>
      </trkpt>
      <trkpt lat="42.6491" lon="1.68552">
        <ele>2270.931</ele>
        <time>2021-07-19T11:02:13Z</time>
      </trkpt>
      <trkpt lat="42.6491" lon="1.68552">
        <ele>2270.93</ele>
        <time>2021-07-19T11:02:15Z</time>
      </trkpt>
      <trkpt lat="42.6491" lon="1.68552">
        <ele>2270.931</ele>
        <time>2021-07-19T11:02:17Z</time>
      </trkpt>
      <trkpt lat="42.6491" lon="1.68552">
        <ele>2270.931</ele>
        <time>2021-07-19T11:02:19Z</time>
      </trkpt>
      <trkpt lat="42.6491" lon="1.68552">
        <ele>2270.932</ele>
        <time>2021-07-19T11:02:21Z</time>
      </trkpt>
      <trkpt lat="42.6491" lon="1.68552">
        <ele>2270.931</ele>
        <time>2021-07-19T11:02:23Z</time>
      </trkpt>
      <trkpt lat="42.6491" lon="1.68552">
        <ele>2270.933</ele>
        <time>2021-07-19T11:02:25Z</time>
      </trkpt>
      <trkpt lat="42.6491" lon="1.68552">
        <ele>2270.935</ele>
        <time>2021-07-19T11:02:27Z</time>
      </trkpt>
      <trkpt lat="42.6491" lon="1.68552">
        <ele>2270.934</ele>
        <time>2021-07-19T11:02:29Z</time>
      </trkpt>
      <trkpt lat="42.6491" lon="1.68552">
        <ele>2270.935</ele>
        <time>2021-07-19T11:02:31Z</time>
      </trkpt>
      <trkpt lat="42.6491" lon="1.68552">
        <ele>2270.933</ele>
        <time>2021-07-19T11:02:33Z</time>
      </trkpt>
      <trkpt lat="42.6491" lon="1.68552">
        <ele>2270.932</ele>
        <time>2021-07-19T11:02:35Z</time>
      </trkpt>
      <trkpt lat="42.6491" lon="1.68552">
        <ele>2270.933</ele>
        <time>2021-07-19T11:02:37Z</time>
      </trkpt>
      <trkpt lat="42.6491" lon="1.68552">
        <ele>2270.935</ele>
        <time>2021-07-19T11:02:39Z</time>
      </trkpt>
      <trkpt lat="42.6491" lon="1.68552">
        <ele>2270.934</ele>
        <time>2021-07-19T11:02:41Z</time>
      </trkpt>
      <trkpt lat="42.6491" lon="1.68552">
        <ele>2270.934</ele>
        <time>2021-07-19T11:02:43Z</time>
      </trkpt>
      <trkpt lat="42.6491" lon="1.68552">
        <ele>2270.936</ele>
        <time>2021-07-19T11:02:45Z</time>
      </trkpt>
      <trkpt lat="42.6491" lon="1.68552">
        <ele>2270.932</ele>
        <time>2021-07-19T11:02:47Z</time>
      </trkpt>
      <trkpt lat="42.6491" lon="1.68552">
        <ele>2270.932</ele>
        <time>2021-07-19T11:02:49Z</time>
      </trkpt>
      <trkpt lat="42.6491" lon="1.68552">
        <ele>2270.928</ele>
        <time>2021-07-19T11:02:51Z</time>
      </trkpt>
      <trkpt lat="42.6491" lon="1.68552">
        <ele>2270.93</ele>
        <time>2021-07-19T11:02:53Z</time>
      </trkpt>
      <trkpt lat="42.6491" lon="1.68552">
        <ele>2270.935</ele>
        <time>2021-07-19T11:02:55Z</time>
      </trkpt>
      <trkpt lat="42.6491" lon="1.68552">
        <ele>2270.937</ele>
        <time>2021-07-19T11:02:57Z</time>
      </trkpt>
      <trkpt lat="42.6491" lon="1.68552">
        <ele>2270.944</ele>
        <time>2021-07-19T11:02:59Z</time>
      </trkpt>
      <trkpt lat="42.6491" lon="1.68552">
        <ele>2270.945</ele>
        <time>2021-07-19T11:03:01Z</time>
      </trkpt>
      <trkpt lat="42.6491" lon="1.68552">
        <ele>2270.95</ele>
        <time>2021-07-19T11:03:03Z</time>
      </trkpt>
      <trkpt lat="42.6491" lon="1.68552">
        <ele>2270.953</ele>
        <time>2021-07-19T11:03:05Z</time>
      </trkpt>
      <trkpt lat="42.6491" lon="1.68552">
        <ele>2270.953</ele>
        <time>2021-07-19T11:03:07Z</time>
      </trkpt>
      <trkpt lat="42.6491" lon="1.68552">
        <ele>2270.956</ele>
        <time>2021-07-19T11:03:09Z</time>
      </trkpt>
      <trkpt lat="42.6491" lon="1.68552">
        <ele>2270.956</ele>
        <time>2021-07-19T11:03:11Z</time>
      </trkpt>
      <trkpt lat="42.6491" lon="1.68552">
        <ele>2270.957</ele>
        <time>2021-07-19T11:03:13Z</time>
      </trkpt>
      <trkpt lat="42.6491" lon="1.68552">
        <ele>2270.958</ele>
        <time>2021-07-19T11:03:15Z</time>
      </trkpt>
      <trkpt lat="42.6491" lon="1.68552">
        <ele>2270.958</ele>
        <time>2021-07-19T11:03:17Z</time>
      </trkpt>
      <trkpt lat="42.6491" lon="1.68552">
        <ele>2270.956</ele>
        <time>2021-07-19T11:03:19Z</time>
      </trkpt>
      <trkpt lat="42.6491" lon="1.68552">
        <ele>2270.959</ele>
        <time>2021-07-19T11:03:21Z</time>
      </trkpt>
      <trkpt lat="42.6491" lon="1.68552">
        <ele>2270.963</ele>
        <time>2021-07-19T11:03:23Z</time>
      </trkpt>
      <trkpt lat="42.6491" lon="1.68552">
        <ele>2270.893</ele>
        <time>2021-07-19T11:03:25Z</time>
      </trkpt>
      <trkpt lat="42.6491" lon="1.68552">
        <ele>2270.908</ele>
        <time>2021-07-19T11:03:27Z</time>
      </trkpt>
      <trkpt lat="42.6491" lon="1.68552">
        <ele>2270.908</ele>
        <time>2021-07-19T11:03:29Z</time>
      </trkpt>
      <trkpt lat="42.6491" lon="1.68552">
        <ele>2270.906</ele>
        <time>2021-07-19T11:03:31Z</time>
      </trkpt>
      <trkpt lat="42.6491" lon="1.68552">
        <ele>2270.903</ele>
        <time>2021-07-19T11:03:33Z</time>
      </trkpt>
      <trkpt lat="42.6491" lon="1.68552">
        <ele>2270.9</ele>
        <time>2021-07-19T11:03:35Z</time>
      </trkpt>
      <trkpt lat="42.6491" lon="1.68552">
        <ele>2270.898</ele>
        <time>2021-07-19T11:03:37Z</time>
      </trkpt>
      <trkpt lat="42.6491" lon="1.68552">
        <ele>2270.899</ele>
        <time>2021-07-19T11:03:39Z</time>
      </trkpt>
      <trkpt lat="42.6491" lon="1.68552">
        <ele>2270.901</ele>
        <time>2021-07-19T11:03:41Z</time>
      </trkpt>
      <trkpt lat="42.6491" lon="1.68552">
        <ele>2270.905</ele>
        <time>2021-07-19T11:03:43Z</time>
      </trkpt>
      <trkpt lat="42.6491" lon="1.68552">
        <ele>2270.905</ele>
        <time>2021-07-19T11:03:45Z</time>
      </trkpt>
      <trkpt lat="42.6491" lon="1.68552">
        <ele>2270.904</ele>
        <time>2021-07-19T11:03:47Z</time>
      </trkpt>
      <trkpt lat="42.6491" lon="1.68552">
        <ele>2270.904</ele>
        <time>2021-07-19T11:03:49Z</time>
      </trkpt>
      <trkpt lat="42.6491" lon="1.68552">
        <ele>2270.906</ele>
        <time>2021-07-19T11:03:51Z</time>
      </trkpt>
      <trkpt lat="42.6491" lon="1.68552">
        <ele>2270.902</ele>
        <time>2021-07-19T11:03:53Z</time>
      </trkpt>
      <trkpt lat="42.6491" lon="1.68552">
        <ele>2270.899</ele>
        <time>2021-07-19T11:03:55Z</time>
      </trkpt>
      <trkpt lat="42.6491" lon="1.68552">
        <ele>2270.899</ele>
        <time>2021-07-19T11:03:57Z</time>
      </trkpt>
      <trkpt lat="42.64911" lon="1.68553">
        <ele>2270.156</ele>
        <time>2021-07-19T11:03:59Z</time>
      </trkpt>
      <trkpt lat="42.64911" lon="1.68553">
        <ele>2270.07</ele>
        <time>2021-07-19T11:04:01Z</time>
      </trkpt>
      <trkpt lat="42.64911" lon="1.68553">
        <ele>2270.073</ele>
        <time>2021-07-19T11:04:03Z</time>
      </trkpt>
      <trkpt lat="42.64911" lon="1.68553">
        <ele>2270.137</ele>
        <time>2021-07-19T11:04:05Z</time>
      </trkpt>
      <trkpt lat="42.64911" lon="1.68553">
        <ele>2270.135</ele>
        <time>2021-07-19T11:04:07Z</time>
      </trkpt>
      <trkpt lat="42.64911" lon="1.68553">
        <ele>2269.837</ele>
        <time>2021-07-19T11:04:09Z</time>
      </trkpt>
      <trkpt lat="42.64911" lon="1.68553">
        <ele>2269.84</ele>
        <time>2021-07-19T11:04:11Z</time>
      </trkpt>
      <trkpt lat="42.64911" lon="1.68553">
        <ele>2269.838</ele>
        <time>2021-07-19T11:04:13Z</time>
      </trkpt>
      <trkpt lat="42.64911" lon="1.68553">
        <ele>2269.837</ele>
        <time>2021-07-19T11:04:15Z</time>
      </trkpt>
      <trkpt lat="42.64911" lon="1.68553">
        <ele>2269.836</ele>
        <time>2021-07-19T11:04:17Z</time>
      </trkpt>
      <trkpt lat="42.64911" lon="1.68553">
        <ele>2269.838</ele>
        <time>2021-07-19T11:04:19Z</time>
      </trkpt>
      <trkpt lat="42.64911" lon="1.68553">
        <ele>2269.838</ele>
        <time>2021-07-19T11:04:21Z</time>
      </trkpt>
      <trkpt lat="42.64911" lon="1.68553">
        <ele>2269.839</ele>
        <time>2021-07-19T11:04:23Z</time>
      </trkpt>
      <trkpt lat="42.64911" lon="1.68553">
        <ele>2269.839</ele>
        <time>2021-07-19T11:04:25Z</time>
      </trkpt>
      <trkpt lat="42.64911" lon="1.68553">
        <ele>2269.84</ele>
        <time>2021-07-19T11:04:27Z</time>
      </trkpt>
      <trkpt lat="42.64911" lon="1.68553">
        <ele>2269.847</ele>
        <time>2021-07-19T11:04:29Z</time>
      </trkpt>
      <trkpt lat="42.64911" lon="1.68553">
        <ele>2269.852</ele>
        <time>2021-07-19T11:04:31Z</time>
      </trkpt>
      <trkpt lat="42.64911" lon="1.68553">
        <ele>2269.854</ele>
        <time>2021-07-19T11:04:33Z</time>
      </trkpt>
      <trkpt lat="42.64911" lon="1.68553">
        <ele>2269.853</ele>
        <time>2021-07-19T11:04:35Z</time>
      </trkpt>
      <trkpt lat="42.64911" lon="1.68553">
        <ele>2269.855</ele>
        <time>2021-07-19T11:04:37Z</time>
      </trkpt>
      <trkpt lat="42.64911" lon="1.68553">
        <ele>2269.86</ele>
        <time>2021-07-19T11:04:39Z</time>
      </trkpt>
      <trkpt lat="42.64911" lon="1.68553">
        <ele>2269.864</ele>
        <time>2021-07-19T11:04:41Z</time>
      </trkpt>
      <trkpt lat="42.64911" lon="1.68553">
        <ele>2269.868</ele>
        <time>2021-07-19T11:04:43Z</time>
      </trkpt>
      <trkpt lat="42.64911" lon="1.68553">
        <ele>2269.871</ele>
        <time>2021-07-19T11:04:45Z</time>
      </trkpt>
      <trkpt lat="42.64911" lon="1.68553">
        <ele>2269.867</ele>
        <time>2021-07-19T11:04:47Z</time>
      </trkpt>
      <trkpt lat="42.64911" lon="1.68553">
        <ele>2269.871</ele>
        <time>2021-07-19T11:04:49Z</time>
      </trkpt>
      <trkpt lat="42.64911" lon="1.68553">
        <ele>2269.868</ele>
        <time>2021-07-19T11:04:51Z</time>
      </trkpt>
      <trkpt lat="42.64911" lon="1.68553">
        <ele>2269.869</ele>
        <time>2021-07-19T11:04:53Z</time>
      </trkpt>
      <trkpt lat="42.64911" lon="1.68553">
        <ele>2269.871</ele>
        <time>2021-07-19T11:04:55Z</time>
      </trkpt>
      <trkpt lat="42.64911" lon="1.68553">
        <ele>2269.873</ele>
        <time>2021-07-19T11:04:57Z</time>
      </trkpt>
      <trkpt lat="42.64911" lon="1.68553">
        <ele>2269.874</ele>
        <time>2021-07-19T11:04:59Z</time>
      </trkpt>
      <trkpt lat="42.64911" lon="1.68553">
        <ele>2269.874</ele>
        <time>2021-07-19T11:05:01Z</time>
      </trkpt>
      <trkpt lat="42.64911" lon="1.68553">
        <ele>2269.875</ele>
        <time>2021-07-19T11:05:03Z</time>
      </trkpt>
      <trkpt lat="42.64911" lon="1.68553">
        <ele>2269.877</ele>
        <time>2021-07-19T11:05:05Z</time>
      </trkpt>
      <trkpt lat="42.64911" lon="1.68553">
        <ele>2269.878</ele>
        <time>2021-07-19T11:05:07Z</time>
      </trkpt>
      <trkpt lat="42.64911" lon="1.68553">
        <ele>2269.878</ele>
        <time>2021-07-19T11:05:09Z</time>
      </trkpt>
      <trkpt lat="42.64911" lon="1.68553">
        <ele>2269.88</ele>
        <time>2021-07-19T11:05:11Z</time>
      </trkpt>
      <trkpt lat="42.64911" lon="1.68553">
        <ele>2269.88</ele>
        <time>2021-07-19T11:05:13Z</time>
      </trkpt>
      <trkpt lat="42.64911" lon="1.68553">
        <ele>2269.881</ele>
        <time>2021-07-19T11:05:15Z</time>
      </trkpt>
      <trkpt lat="42.64911" lon="1.68553">
        <ele>2269.883</ele>
        <time>2021-07-19T11:05:17Z</time>
      </trkpt>
      <trkpt lat="42.64911" lon="1.68553">
        <ele>2269.884</ele>
        <time>2021-07-19T11:05:19Z</time>
      </trkpt>
      <trkpt lat="42.64911" lon="1.68553">
        <ele>2269.889</ele>
        <time>2021-07-19T11:05:21Z</time>
      </trkpt>
      <trkpt lat="42.64911" lon="1.68553">
        <ele>2269.864</ele>
        <time>2021-07-19T11:05:23Z</time>
      </trkpt>
      <trkpt lat="42.6491" lon="1.68553">
        <ele>2269.992</ele>
        <time>2021-07-19T11:05:25Z</time>
      </trkpt>
      <trkpt lat="42.6491" lon="1.68553">
        <ele>2269.83</ele>
        <time>2021-07-19T11:05:27Z</time>
      </trkpt>
      <trkpt lat="42.6491" lon="1.68553">
        <ele>2269.828</ele>
        <time>2021-07-19T11:05:29Z</time>
      </trkpt>
      <trkpt lat="42.6491" lon="1.68553">
        <ele>2269.826</ele>
        <time>2021-07-19T11:05:31Z</time>
      </trkpt>
      <trkpt lat="42.6491" lon="1.68553">
        <ele>2269.823</ele>
        <time>2021-07-19T11:05:33Z</time>
      </trkpt>
      <trkpt lat="42.6491" lon="1.68553">
        <ele>2269.824</ele>
        <time>2021-07-19T11:05:35Z</time>
      </trkpt>
      <trkpt lat="42.6491" lon="1.68553">
        <ele>2269.833</ele>
        <time>2021-07-19T11:05:37Z</time>
      </trkpt>
      <trkpt lat="42.6491" lon="1.68553">
        <ele>2269.833</ele>
        <time>2021-07-19T11:05:39Z</time>
      </trkpt>
      <trkpt lat="42.6491" lon="1.68553">
        <ele>2269.833</ele>
        <time>2021-07-19T11:05:41Z</time>
      </trkpt>
      <trkpt lat="42.6491" lon="1.68553">
        <ele>2269.833</ele>
        <time>2021-07-19T11:05:43Z</time>
      </trkpt>
      <trkpt lat="42.6491" lon="1.68553">
        <ele>2269.837</ele>
        <time>2021-07-19T11:05:45Z</time>
      </trkpt>
      <trkpt lat="42.6491" lon="1.68553">
        <ele>2269.833</ele>
        <time>2021-07-19T11:05:47Z</time>
      </trkpt>
      <trkpt lat="42.6491" lon="1.68553">
        <ele>2269.785</ele>
        <time>2021-07-19T11:05:49Z</time>
      </trkpt>
      <trkpt lat="42.6491" lon="1.68553">
        <ele>2269.785</ele>
        <time>2021-07-19T11:05:51Z</time>
      </trkpt>
      <trkpt lat="42.6491" lon="1.68553">
        <ele>2269.785</ele>
        <time>2021-07-19T11:05:53Z</time>
      </trkpt>
      <trkpt lat="42.6491" lon="1.68553">
        <ele>2269.785</ele>
        <time>2021-07-19T11:05:55Z</time>
      </trkpt>
      <trkpt lat="42.6491" lon="1.68553">
        <ele>2269.788</ele>
        <time>2021-07-19T11:05:57Z</time>
      </trkpt>
      <trkpt lat="42.6491" lon="1.68553">
        <ele>2269.789</ele>
        <time>2021-07-19T11:05:59Z</time>
      </trkpt>
      <trkpt lat="42.6491" lon="1.68553">
        <ele>2269.791</ele>
        <time>2021-07-19T11:06:01Z</time>
      </trkpt>
      <trkpt lat="42.6491" lon="1.68553">
        <ele>2269.79</ele>
        <time>2021-07-19T11:06:03Z</time>
      </trkpt>
      <trkpt lat="42.6491" lon="1.68553">
        <ele>2269.792</ele>
        <time>2021-07-19T11:06:05Z</time>
      </trkpt>
      <trkpt lat="42.6491" lon="1.68553">
        <ele>2269.792</ele>
        <time>2021-07-19T11:06:07Z</time>
      </trkpt>
      <trkpt lat="42.6491" lon="1.68553">
        <ele>2269.792</ele>
        <time>2021-07-19T11:06:09Z</time>
      </trkpt>
      <trkpt lat="42.6491" lon="1.68553">
        <ele>2269.795</ele>
        <time>2021-07-19T11:06:11Z</time>
      </trkpt>
      <trkpt lat="42.6491" lon="1.68553">
        <ele>2269.801</ele>
        <time>2021-07-19T11:06:13Z</time>
      </trkpt>
      <trkpt lat="42.6491" lon="1.68553">
        <ele>2269.805</ele>
        <time>2021-07-19T11:06:15Z</time>
      </trkpt>
      <trkpt lat="42.6491" lon="1.68553">
        <ele>2269.809</ele>
        <time>2021-07-19T11:06:17Z</time>
      </trkpt>
      <trkpt lat="42.6491" lon="1.68553">
        <ele>2269.813</ele>
        <time>2021-07-19T11:06:19Z</time>
      </trkpt>
      <trkpt lat="42.6491" lon="1.68553">
        <ele>2269.815</ele>
        <time>2021-07-19T11:06:21Z</time>
      </trkpt>
      <trkpt lat="42.6491" lon="1.68553">
        <ele>2269.817</ele>
        <time>2021-07-19T11:06:23Z</time>
      </trkpt>
      <trkpt lat="42.6491" lon="1.68553">
        <ele>2269.813</ele>
        <time>2021-07-19T11:06:25Z</time>
      </trkpt>
      <trkpt lat="42.6491" lon="1.68553">
        <ele>2269.815</ele>
        <time>2021-07-19T11:06:27Z</time>
      </trkpt>
      <trkpt lat="42.6491" lon="1.68553">
        <ele>2269.817</ele>
        <time>2021-07-19T11:06:29Z</time>
      </trkpt>
      <trkpt lat="42.6491" lon="1.68553">
        <ele>2269.817</ele>
        <time>2021-07-19T11:06:31Z</time>
      </trkpt>
      <trkpt lat="42.6491" lon="1.68553">
        <ele>2269.817</ele>
        <time>2021-07-19T11:06:33Z</time>
      </trkpt>
      <trkpt lat="42.6491" lon="1.68553">
        <ele>2269.819</ele>
        <time>2021-07-19T11:06:35Z</time>
      </trkpt>
      <trkpt lat="42.6491" lon="1.68553">
        <ele>2269.834</ele>
        <time>2021-07-19T11:06:37Z</time>
      </trkpt>
      <trkpt lat="42.6491" lon="1.68553">
        <ele>2269.836</ele>
        <time>2021-07-19T11:06:39Z</time>
      </trkpt>
      <trkpt lat="42.6491" lon="1.68553">
        <ele>2269.467</ele>
        <time>2021-07-19T11:06:41Z</time>
      </trkpt>
      <trkpt lat="42.6491" lon="1.68553">
        <ele>2269.465</ele>
        <time>2021-07-19T11:06:43Z</time>
      </trkpt>
      <trkpt lat="42.6491" lon="1.68553">
        <ele>2269.462</ele>
        <time>2021-07-19T11:06:45Z</time>
      </trkpt>
      <trkpt lat="42.6491" lon="1.68553">
        <ele>2269.459</ele>
        <time>2021-07-19T11:06:47Z</time>
      </trkpt>
      <trkpt lat="42.6491" lon="1.68553">
        <ele>2269.459</ele>
        <time>2021-07-19T11:06:49Z</time>
      </trkpt>
      <trkpt lat="42.6491" lon="1.68553">
        <ele>2269.454</ele>
        <time>2021-07-19T11:06:51Z</time>
      </trkpt>
      <trkpt lat="42.6491" lon="1.68553">
        <ele>2269.45</ele>
        <time>2021-07-19T11:06:53Z</time>
      </trkpt>
      <trkpt lat="42.6491" lon="1.68553">
        <ele>2269.453</ele>
        <time>2021-07-19T11:06:55Z</time>
      </trkpt>
      <trkpt lat="42.6491" lon="1.68553">
        <ele>2269.448</ele>
        <time>2021-07-19T11:06:57Z</time>
      </trkpt>
      <trkpt lat="42.6491" lon="1.68553">
        <ele>2269.443</ele>
        <time>2021-07-19T11:06:59Z</time>
      </trkpt>
      <trkpt lat="42.6491" lon="1.68553">
        <ele>2269.446</ele>
        <time>2021-07-19T11:07:01Z</time>
      </trkpt>
      <trkpt lat="42.6491" lon="1.68553">
        <ele>2269.447</ele>
        <time>2021-07-19T11:07:03Z</time>
      </trkpt>
      <trkpt lat="42.6491" lon="1.68553">
        <ele>2269.45</ele>
        <time>2021-07-19T11:07:05Z</time>
      </trkpt>
      <trkpt lat="42.6491" lon="1.68553">
        <ele>2269.451</ele>
        <time>2021-07-19T11:07:07Z</time>
      </trkpt>
      <trkpt lat="42.6491" lon="1.68553">
        <ele>2269.449</ele>
        <time>2021-07-19T11:07:09Z</time>
      </trkpt>
      <trkpt lat="42.6491" lon="1.68553">
        <ele>2269.449</ele>
        <time>2021-07-19T11:07:11Z</time>
      </trkpt>
      <trkpt lat="42.6491" lon="1.68553">
        <ele>2269.453</ele>
        <time>2021-07-19T11:07:13Z</time>
      </trkpt>
      <trkpt lat="42.6491" lon="1.68553">
        <ele>2269.455</ele>
        <time>2021-07-19T11:07:15Z</time>
      </trkpt>
      <trkpt lat="42.6491" lon="1.68553">
        <ele>2269.45</ele>
        <time>2021-07-19T11:07:17Z</time>
      </trkpt>
      <trkpt lat="42.6491" lon="1.68553">
        <ele>2269.443</ele>
        <time>2021-07-19T11:07:19Z</time>
      </trkpt>
      <trkpt lat="42.6491" lon="1.68553">
        <ele>2269.441</ele>
        <time>2021-07-19T11:07:21Z</time>
      </trkpt>
      <trkpt lat="42.6491" lon="1.68553">
        <ele>2269.441</ele>
        <time>2021-07-19T11:07:23Z</time>
      </trkpt>
      <trkpt lat="42.6491" lon="1.68553">
        <ele>2269.436</ele>
        <time>2021-07-19T11:07:25Z</time>
      </trkpt>
      <trkpt lat="42.6491" lon="1.68553">
        <ele>2269.44</ele>
        <time>2021-07-19T11:07:27Z</time>
      </trkpt>
      <trkpt lat="42.6491" lon="1.68553">
        <ele>2269.442</ele>
        <time>2021-07-19T11:07:29Z</time>
      </trkpt>
      <trkpt lat="42.6491" lon="1.68553">
        <ele>2269.447</ele>
        <time>2021-07-19T11:07:31Z</time>
      </trkpt>
      <trkpt lat="42.6491" lon="1.68553">
        <ele>2269.453</ele>
        <time>2021-07-19T11:07:33Z</time>
      </trkpt>
      <trkpt lat="42.6491" lon="1.68553">
        <ele>2269.454</ele>
        <time>2021-07-19T11:07:35Z</time>
      </trkpt>
      <trkpt lat="42.6491" lon="1.68553">
        <ele>2269.458</ele>
        <time>2021-07-19T11:07:37Z</time>
      </trkpt>
      <trkpt lat="42.6491" lon="1.68553">
        <ele>2269.458</ele>
        <time>2021-07-19T11:07:39Z</time>
      </trkpt>
      <trkpt lat="42.6491" lon="1.68553">
        <ele>2269.457</ele>
        <time>2021-07-19T11:07:41Z</time>
      </trkpt>
      <trkpt lat="42.6491" lon="1.68553">
        <ele>2269.456</ele>
        <time>2021-07-19T11:07:43Z</time>
      </trkpt>
      <trkpt lat="42.6491" lon="1.68553">
        <ele>2269.454</ele>
        <time>2021-07-19T11:07:45Z</time>
      </trkpt>
      <trkpt lat="42.6491" lon="1.68553">
        <ele>2269.456</ele>
        <time>2021-07-19T11:07:47Z</time>
      </trkpt>
      <trkpt lat="42.6491" lon="1.68553">
        <ele>2269.456</ele>
        <time>2021-07-19T11:07:49Z</time>
      </trkpt>
      <trkpt lat="42.6491" lon="1.68553">
        <ele>2269.457</ele>
        <time>2021-07-19T11:07:51Z</time>
      </trkpt>
      <trkpt lat="42.6491" lon="1.68553">
        <ele>2269.46</ele>
        <time>2021-07-19T11:07:53Z</time>
      </trkpt>
      <trkpt lat="42.6491" lon="1.68553">
        <ele>2269.46</ele>
        <time>2021-07-19T11:07:55Z</time>
      </trkpt>
      <trkpt lat="42.6491" lon="1.68553">
        <ele>2269.463</ele>
        <time>2021-07-19T11:07:57Z</time>
      </trkpt>
      <trkpt lat="42.6491" lon="1.68553">
        <ele>2269.458</ele>
        <time>2021-07-19T11:07:59Z</time>
      </trkpt>
      <trkpt lat="42.6491" lon="1.68553">
        <ele>2269.462</ele>
        <time>2021-07-19T11:08:01Z</time>
      </trkpt>
      <trkpt lat="42.6491" lon="1.68553">
        <ele>2269.464</ele>
        <time>2021-07-19T11:08:03Z</time>
      </trkpt>
      <trkpt lat="42.6491" lon="1.68553">
        <ele>2269.465</ele>
        <time>2021-07-19T11:08:05Z</time>
      </trkpt>
      <trkpt lat="42.6491" lon="1.68553">
        <ele>2269.462</ele>
        <time>2021-07-19T11:08:07Z</time>
      </trkpt>
      <trkpt lat="42.6491" lon="1.68553">
        <ele>2269.46</ele>
        <time>2021-07-19T11:08:09Z</time>
      </trkpt>
      <trkpt lat="42.6491" lon="1.68553">
        <ele>2269.459</ele>
        <time>2021-07-19T11:08:11Z</time>
      </trkpt>
      <trkpt lat="42.6491" lon="1.68553">
        <ele>2269.458</ele>
        <time>2021-07-19T11:08:13Z</time>
      </trkpt>
      <trkpt lat="42.6491" lon="1.68553">
        <ele>2269.463</ele>
        <time>2021-07-19T11:08:15Z</time>
      </trkpt>
      <trkpt lat="42.6491" lon="1.68553">
        <ele>2269.472</ele>
        <time>2021-07-19T11:08:17Z</time>
      </trkpt>
      <trkpt lat="42.6491" lon="1.68553">
        <ele>2269.471</ele>
        <time>2021-07-19T11:08:19Z</time>
      </trkpt>
      <trkpt lat="42.6491" lon="1.68553">
        <ele>2269.473</ele>
        <time>2021-07-19T11:08:21Z</time>
      </trkpt>
      <trkpt lat="42.6491" lon="1.68553">
        <ele>2269.472</ele>
        <time>2021-07-19T11:08:23Z</time>
      </trkpt>
      <trkpt lat="42.6491" lon="1.68553">
        <ele>2269.471</ele>
        <time>2021-07-19T11:08:25Z</time>
      </trkpt>
      <trkpt lat="42.6491" lon="1.68553">
        <ele>2269.474</ele>
        <time>2021-07-19T11:08:27Z</time>
      </trkpt>
      <trkpt lat="42.6491" lon="1.68553">
        <ele>2269.472</ele>
        <time>2021-07-19T11:08:29Z</time>
      </trkpt>
      <trkpt lat="42.6491" lon="1.68553">
        <ele>2269.473</ele>
        <time>2021-07-19T11:08:31Z</time>
      </trkpt>
      <trkpt lat="42.6491" lon="1.68553">
        <ele>2269.474</ele>
        <time>2021-07-19T11:08:33Z</time>
      </trkpt>
      <trkpt lat="42.6491" lon="1.68553">
        <ele>2269.472</ele>
        <time>2021-07-19T11:08:35Z</time>
      </trkpt>
      <trkpt lat="42.6491" lon="1.68553">
        <ele>2269.471</ele>
        <time>2021-07-19T11:08:37Z</time>
      </trkpt>
      <trkpt lat="42.6491" lon="1.68553">
        <ele>2269.939</ele>
        <time>2021-07-19T11:08:39Z</time>
      </trkpt>
      <trkpt lat="42.64909" lon="1.68553">
        <ele>2269.507</ele>
        <time>2021-07-19T11:08:41Z</time>
      </trkpt>
      <trkpt lat="42.64909" lon="1.68552">
        <ele>2269.843</ele>
        <time>2021-07-19T11:08:43Z</time>
      </trkpt>
      <trkpt lat="42.64909" lon="1.68552">
        <ele>2269.854</ele>
        <time>2021-07-19T11:08:45Z</time>
      </trkpt>
      <trkpt lat="42.64909" lon="1.68552">
        <ele>2269.875</ele>
        <time>2021-07-19T11:08:47Z</time>
      </trkpt>
      <trkpt lat="42.64909" lon="1.68552">
        <ele>2269.879</ele>
        <time>2021-07-19T11:08:49Z</time>
      </trkpt>
      <trkpt lat="42.64909" lon="1.68552">
        <ele>2269.879</ele>
        <time>2021-07-19T11:08:51Z</time>
      </trkpt>
      <trkpt lat="42.64909" lon="1.68552">
        <ele>2269.949</ele>
        <time>2021-07-19T11:08:53Z</time>
      </trkpt>
      <trkpt lat="42.64909" lon="1.68552">
        <ele>2269.961</ele>
        <time>2021-07-19T11:08:55Z</time>
      </trkpt>
      <trkpt lat="42.6491" lon="1.68552">
        <ele>2270.335</ele>
        <time>2021-07-19T11:08:57Z</time>
      </trkpt>
      <trkpt lat="42.64909" lon="1.6855">
        <ele>2269.715</ele>
        <time>2021-07-19T11:08:59Z</time>
      </trkpt>
      <trkpt lat="42.6491" lon="1.68548">
        <ele>2269.716</ele>
        <time>2021-07-19T11:09:01Z</time>
      </trkpt>
      <trkpt lat="42.6491" lon="1.68548">
        <ele>2269.724</ele>
        <time>2021-07-19T11:09:03Z</time>
      </trkpt>
      <trkpt lat="42.6491" lon="1.68548">
        <ele>2269.689</ele>
        <time>2021-07-19T11:09:05Z</time>
      </trkpt>
      <trkpt lat="42.6491" lon="1.68548">
        <ele>2269.952</ele>
        <time>2021-07-19T11:09:07Z</time>
      </trkpt>
      <trkpt lat="42.6491" lon="1.68549">
        <ele>2270.764</ele>
        <time>2021-07-19T11:09:09Z</time>
      </trkpt>
      <trkpt lat="42.6491" lon="1.6855">
        <ele>2270.476</ele>
        <time>2021-07-19T11:09:11Z</time>
      </trkpt>
      <trkpt lat="42.6491" lon="1.6855">
        <ele>2270.727</ele>
        <time>2021-07-19T11:09:13Z</time>
      </trkpt>
      <trkpt lat="42.6491" lon="1.6855">
        <ele>2270.726</ele>
        <time>2021-07-19T11:09:15Z</time>
      </trkpt>
      <trkpt lat="42.6491" lon="1.6855">
        <ele>2270.714</ele>
        <time>2021-07-19T11:09:17Z</time>
      </trkpt>
      <trkpt lat="42.6491" lon="1.6855">
        <ele>2270.71</ele>
        <time>2021-07-19T11:09:19Z</time>
      </trkpt>
      <trkpt lat="42.6491" lon="1.6855">
        <ele>2270.705</ele>
        <time>2021-07-19T11:09:21Z</time>
      </trkpt>
      <trkpt lat="42.6491" lon="1.6855">
        <ele>2270.701</ele>
        <time>2021-07-19T11:09:23Z</time>
      </trkpt>
      <trkpt lat="42.6491" lon="1.6855">
        <ele>2270.704</ele>
        <time>2021-07-19T11:09:25Z</time>
      </trkpt>
      <trkpt lat="42.6491" lon="1.6855">
        <ele>2270.708</ele>
        <time>2021-07-19T11:09:27Z</time>
      </trkpt>
      <trkpt lat="42.6491" lon="1.6855">
        <ele>2270.714</ele>
        <time>2021-07-19T11:09:29Z</time>
      </trkpt>
      <trkpt lat="42.6491" lon="1.6855">
        <ele>2270.725</ele>
        <time>2021-07-19T11:09:31Z</time>
      </trkpt>
      <trkpt lat="42.6491" lon="1.6855">
        <ele>2270.732</ele>
        <time>2021-07-19T11:09:33Z</time>
      </trkpt>
      <trkpt lat="42.6491" lon="1.6855">
        <ele>2270.731</ele>
        <time>2021-07-19T11:09:35Z</time>
      </trkpt>
      <trkpt lat="42.6491" lon="1.6855">
        <ele>2270.74</ele>
        <time>2021-07-19T11:09:37Z</time>
      </trkpt>
      <trkpt lat="42.6491" lon="1.6855">
        <ele>2270.738</ele>
        <time>2021-07-19T11:09:39Z</time>
      </trkpt>
      <trkpt lat="42.6491" lon="1.6855">
        <ele>2270.738</ele>
        <time>2021-07-19T11:09:41Z</time>
      </trkpt>
      <trkpt lat="42.6491" lon="1.6855">
        <ele>2270.75</ele>
        <time>2021-07-19T11:09:43Z</time>
      </trkpt>
      <trkpt lat="42.6491" lon="1.6855">
        <ele>2270.749</ele>
        <time>2021-07-19T11:09:45Z</time>
      </trkpt>
      <trkpt lat="42.6491" lon="1.6855">
        <ele>2270.75</ele>
        <time>2021-07-19T11:09:47Z</time>
      </trkpt>
      <trkpt lat="42.6491" lon="1.6855">
        <ele>2270.752</ele>
        <time>2021-07-19T11:09:49Z</time>
      </trkpt>
      <trkpt lat="42.6491" lon="1.6855">
        <ele>2270.75</ele>
        <time>2021-07-19T11:09:51Z</time>
      </trkpt>
      <trkpt lat="42.6491" lon="1.6855">
        <ele>2270.749</ele>
        <time>2021-07-19T11:09:53Z</time>
      </trkpt>
      <trkpt lat="42.6491" lon="1.6855">
        <ele>2270.747</ele>
        <time>2021-07-19T11:09:55Z</time>
      </trkpt>
      <trkpt lat="42.64909" lon="1.6855">
        <ele>2270.58</ele>
        <time>2021-07-19T11:09:57Z</time>
      </trkpt>
      <trkpt lat="42.64909" lon="1.6855">
        <ele>2270.589</ele>
        <time>2021-07-19T11:09:59Z</time>
      </trkpt>
      <trkpt lat="42.64909" lon="1.6855">
        <ele>2270.586</ele>
        <time>2021-07-19T11:10:01Z</time>
      </trkpt>
      <trkpt lat="42.64909" lon="1.6855">
        <ele>2270.586</ele>
        <time>2021-07-19T11:10:03Z</time>
      </trkpt>
      <trkpt lat="42.64909" lon="1.6855">
        <ele>2270.591</ele>
        <time>2021-07-19T11:10:05Z</time>
      </trkpt>
      <trkpt lat="42.64909" lon="1.6855">
        <ele>2270.68</ele>
        <time>2021-07-19T11:10:07Z</time>
      </trkpt>
      <trkpt lat="42.6491" lon="1.6855">
        <ele>2270.487</ele>
        <time>2021-07-19T11:10:09Z</time>
      </trkpt>
      <trkpt lat="42.6491" lon="1.6855">
        <ele>2270.501</ele>
        <time>2021-07-19T11:10:11Z</time>
      </trkpt>
      <trkpt lat="42.6491" lon="1.6855">
        <ele>2270.506</ele>
        <time>2021-07-19T11:10:13Z</time>
      </trkpt>
      <trkpt lat="42.6491" lon="1.6855">
        <ele>2270.508</ele>
        <time>2021-07-19T11:10:15Z</time>
      </trkpt>
      <trkpt lat="42.6491" lon="1.6855">
        <ele>2270.507</ele>
        <time>2021-07-19T11:10:17Z</time>
      </trkpt>
      <trkpt lat="42.6491" lon="1.6855">
        <ele>2270.506</ele>
        <time>2021-07-19T11:10:19Z</time>
      </trkpt>
      <trkpt lat="42.6491" lon="1.6855">
        <ele>2270.504</ele>
        <time>2021-07-19T11:10:21Z</time>
      </trkpt>
      <trkpt lat="42.6491" lon="1.6855">
        <ele>2270.505</ele>
        <time>2021-07-19T11:10:23Z</time>
      </trkpt>
      <trkpt lat="42.6491" lon="1.6855">
        <ele>2270.507</ele>
        <time>2021-07-19T11:10:25Z</time>
      </trkpt>
      <trkpt lat="42.6491" lon="1.6855">
        <ele>2270.507</ele>
        <time>2021-07-19T11:10:27Z</time>
      </trkpt>
      <trkpt lat="42.6491" lon="1.6855">
        <ele>2270.51</ele>
        <time>2021-07-19T11:10:29Z</time>
      </trkpt>
      <trkpt lat="42.6491" lon="1.6855">
        <ele>2270.512</ele>
        <time>2021-07-19T11:10:31Z</time>
      </trkpt>
      <trkpt lat="42.6491" lon="1.6855">
        <ele>2270.513</ele>
        <time>2021-07-19T11:10:33Z</time>
      </trkpt>
      <trkpt lat="42.6491" lon="1.6855">
        <ele>2270.514</ele>
        <time>2021-07-19T11:10:35Z</time>
      </trkpt>
      <trkpt lat="42.6491" lon="1.6855">
        <ele>2270.513</ele>
        <time>2021-07-19T11:10:37Z</time>
      </trkpt>
      <trkpt lat="42.6491" lon="1.6855">
        <ele>2270.513</ele>
        <time>2021-07-19T11:10:39Z</time>
      </trkpt>
      <trkpt lat="42.6491" lon="1.6855">
        <ele>2270.514</ele>
        <time>2021-07-19T11:10:41Z</time>
      </trkpt>
      <trkpt lat="42.6491" lon="1.6855">
        <ele>2270.514</ele>
        <time>2021-07-19T11:10:43Z</time>
      </trkpt>
      <trkpt lat="42.6491" lon="1.6855">
        <ele>2270.513</ele>
        <time>2021-07-19T11:10:45Z</time>
      </trkpt>
      <trkpt lat="42.6491" lon="1.6855">
        <ele>2270.517</ele>
        <time>2021-07-19T11:10:47Z</time>
      </trkpt>
      <trkpt lat="42.6491" lon="1.6855">
        <ele>2270.519</ele>
        <time>2021-07-19T11:10:49Z</time>
      </trkpt>
      <trkpt lat="42.6491" lon="1.6855">
        <ele>2270.52</ele>
        <time>2021-07-19T11:10:51Z</time>
      </trkpt>
      <trkpt lat="42.6491" lon="1.6855">
        <ele>2270.52</ele>
        <time>2021-07-19T11:10:53Z</time>
      </trkpt>
      <trkpt lat="42.6491" lon="1.6855">
        <ele>2270.52</ele>
        <time>2021-07-19T11:10:55Z</time>
      </trkpt>
      <trkpt lat="42.6491" lon="1.6855">
        <ele>2270.521</ele>
        <time>2021-07-19T11:10:57Z</time>
      </trkpt>
      <trkpt lat="42.6491" lon="1.6855">
        <ele>2270.523</ele>
        <time>2021-07-19T11:10:59Z</time>
      </trkpt>
      <trkpt lat="42.6491" lon="1.6855">
        <ele>2270.522</ele>
        <time>2021-07-19T11:11:01Z</time>
      </trkpt>
      <trkpt lat="42.6491" lon="1.6855">
        <ele>2270.519</ele>
        <time>2021-07-19T11:11:03Z</time>
      </trkpt>
      <trkpt lat="42.6491" lon="1.6855">
        <ele>2270.523</ele>
        <time>2021-07-19T11:11:05Z</time>
      </trkpt>
      <trkpt lat="42.6491" lon="1.6855">
        <ele>2270.53</ele>
        <time>2021-07-19T11:11:07Z</time>
      </trkpt>
      <trkpt lat="42.6491" lon="1.6855">
        <ele>2270.538</ele>
        <time>2021-07-19T11:11:09Z</time>
      </trkpt>
      <trkpt lat="42.6491" lon="1.6855">
        <ele>2270.536</ele>
        <time>2021-07-19T11:11:11Z</time>
      </trkpt>
      <trkpt lat="42.6491" lon="1.6855">
        <ele>2270.548</ele>
        <time>2021-07-19T11:11:13Z</time>
      </trkpt>
      <trkpt lat="42.6491" lon="1.6855">
        <ele>2270.557</ele>
        <time>2021-07-19T11:11:15Z</time>
      </trkpt>
      <trkpt lat="42.6491" lon="1.6855">
        <ele>2270.558</ele>
        <time>2021-07-19T11:11:17Z</time>
      </trkpt>
      <trkpt lat="42.6491" lon="1.6855">
        <ele>2270.557</ele>
        <time>2021-07-19T11:11:19Z</time>
      </trkpt>
      <trkpt lat="42.6491" lon="1.6855">
        <ele>2270.559</ele>
        <time>2021-07-19T11:11:21Z</time>
      </trkpt>
      <trkpt lat="42.6491" lon="1.6855">
        <ele>2270.561</ele>
        <time>2021-07-19T11:11:23Z</time>
      </trkpt>
      <trkpt lat="42.6491" lon="1.6855">
        <ele>2270.564</ele>
        <time>2021-07-19T11:11:25Z</time>
      </trkpt>
      <trkpt lat="42.6491" lon="1.6855">
        <ele>2270.564</ele>
        <time>2021-07-19T11:11:27Z</time>
      </trkpt>
      <trkpt lat="42.6491" lon="1.6855">
        <ele>2270.564</ele>
        <time>2021-07-19T11:11:29Z</time>
      </trkpt>
      <trkpt lat="42.6491" lon="1.6855">
        <ele>2270.569</ele>
        <time>2021-07-19T11:11:31Z</time>
      </trkpt>
      <trkpt lat="42.6491" lon="1.6855">
        <ele>2270.575</ele>
        <time>2021-07-19T11:11:33Z</time>
      </trkpt>
      <trkpt lat="42.6491" lon="1.6855">
        <ele>2270.574</ele>
        <time>2021-07-19T11:11:35Z</time>
      </trkpt>
      <trkpt lat="42.6491" lon="1.6855">
        <ele>2270.573</ele>
        <time>2021-07-19T11:11:37Z</time>
      </trkpt>
      <trkpt lat="42.6491" lon="1.6855">
        <ele>2270.575</ele>
        <time>2021-07-19T11:11:39Z</time>
      </trkpt>
      <trkpt lat="42.6491" lon="1.6855">
        <ele>2270.573</ele>
        <time>2021-07-19T11:11:41Z</time>
      </trkpt>
      <trkpt lat="42.6491" lon="1.6855">
        <ele>2270.572</ele>
        <time>2021-07-19T11:11:43Z</time>
      </trkpt>
      <trkpt lat="42.6491" lon="1.6855">
        <ele>2270.572</ele>
        <time>2021-07-19T11:11:45Z</time>
      </trkpt>
      <trkpt lat="42.6491" lon="1.6855">
        <ele>2270.571</ele>
        <time>2021-07-19T11:11:47Z</time>
      </trkpt>
      <trkpt lat="42.6491" lon="1.6855">
        <ele>2270.57</ele>
        <time>2021-07-19T11:11:49Z</time>
      </trkpt>
      <trkpt lat="42.6491" lon="1.6855">
        <ele>2270.569</ele>
        <time>2021-07-19T11:11:51Z</time>
      </trkpt>
      <trkpt lat="42.6491" lon="1.6855">
        <ele>2270.57</ele>
        <time>2021-07-19T11:11:53Z</time>
      </trkpt>
      <trkpt lat="42.6491" lon="1.6855">
        <ele>2270.564</ele>
        <time>2021-07-19T11:11:55Z</time>
      </trkpt>
      <trkpt lat="42.6491" lon="1.6855">
        <ele>2270.57</ele>
        <time>2021-07-19T11:11:57Z</time>
      </trkpt>
      <trkpt lat="42.6491" lon="1.6855">
        <ele>2270.577</ele>
        <time>2021-07-19T11:11:59Z</time>
      </trkpt>
      <trkpt lat="42.6491" lon="1.6855">
        <ele>2270.58</ele>
        <time>2021-07-19T11:12:01Z</time>
      </trkpt>
      <trkpt lat="42.6491" lon="1.6855">
        <ele>2270.582</ele>
        <time>2021-07-19T11:12:03Z</time>
      </trkpt>
      <trkpt lat="42.6491" lon="1.6855">
        <ele>2270.587</ele>
        <time>2021-07-19T11:12:05Z</time>
      </trkpt>
      <trkpt lat="42.6491" lon="1.6855">
        <ele>2270.589</ele>
        <time>2021-07-19T11:12:07Z</time>
      </trkpt>
      <trkpt lat="42.6491" lon="1.6855">
        <ele>2270.588</ele>
        <time>2021-07-19T11:12:09Z</time>
      </trkpt>
      <trkpt lat="42.6491" lon="1.6855">
        <ele>2270.588</ele>
        <time>2021-07-19T11:12:11Z</time>
      </trkpt>
      <trkpt lat="42.6491" lon="1.6855">
        <ele>2270.592</ele>
        <time>2021-07-19T11:12:13Z</time>
      </trkpt>
      <trkpt lat="42.6491" lon="1.6855">
        <ele>2270.593</ele>
        <time>2021-07-19T11:12:15Z</time>
      </trkpt>
      <trkpt lat="42.6491" lon="1.6855">
        <ele>2270.593</ele>
        <time>2021-07-19T11:12:17Z</time>
      </trkpt>
      <trkpt lat="42.6491" lon="1.6855">
        <ele>2270.593</ele>
        <time>2021-07-19T11:12:19Z</time>
      </trkpt>
      <trkpt lat="42.6491" lon="1.6855">
        <ele>2270.591</ele>
        <time>2021-07-19T11:12:21Z</time>
      </trkpt>
      <trkpt lat="42.6491" lon="1.6855">
        <ele>2270.59</ele>
        <time>2021-07-19T11:12:23Z</time>
      </trkpt>
      <trkpt lat="42.6491" lon="1.6855">
        <ele>2270.588</ele>
        <time>2021-07-19T11:12:25Z</time>
      </trkpt>
      <trkpt lat="42.6491" lon="1.6855">
        <ele>2270.59</ele>
        <time>2021-07-19T11:12:27Z</time>
      </trkpt>
      <trkpt lat="42.6491" lon="1.6855">
        <ele>2270.589</ele>
        <time>2021-07-19T11:12:29Z</time>
      </trkpt>
      <trkpt lat="42.6491" lon="1.6855">
        <ele>2270.592</ele>
        <time>2021-07-19T11:12:31Z</time>
      </trkpt>
      <trkpt lat="42.6491" lon="1.6855">
        <ele>2270.597</ele>
        <time>2021-07-19T11:12:33Z</time>
      </trkpt>
      <trkpt lat="42.6491" lon="1.6855">
        <ele>2270.588</ele>
        <time>2021-07-19T11:12:35Z</time>
      </trkpt>
      <trkpt lat="42.6491" lon="1.6855">
        <ele>2270.587</ele>
        <time>2021-07-19T11:12:37Z</time>
      </trkpt>
      <trkpt lat="42.6491" lon="1.6855">
        <ele>2270.589</ele>
        <time>2021-07-19T11:12:39Z</time>
      </trkpt>
      <trkpt lat="42.6491" lon="1.6855">
        <ele>2270.592</ele>
        <time>2021-07-19T11:12:41Z</time>
      </trkpt>
      <trkpt lat="42.6491" lon="1.6855">
        <ele>2270.591</ele>
        <time>2021-07-19T11:12:43Z</time>
      </trkpt>
      <trkpt lat="42.6491" lon="1.6855">
        <ele>2270.594</ele>
        <time>2021-07-19T11:12:45Z</time>
      </trkpt>
      <trkpt lat="42.6491" lon="1.6855">
        <ele>2270.594</ele>
        <time>2021-07-19T11:12:47Z</time>
      </trkpt>
      <trkpt lat="42.6491" lon="1.6855">
        <ele>2270.591</ele>
        <time>2021-07-19T11:12:49Z</time>
      </trkpt>
      <trkpt lat="42.6491" lon="1.6855">
        <ele>2270.58</ele>
        <time>2021-07-19T11:12:51Z</time>
      </trkpt>
      <trkpt lat="42.6491" lon="1.6855">
        <ele>2270.576</ele>
        <time>2021-07-19T11:12:53Z</time>
      </trkpt>
      <trkpt lat="42.6491" lon="1.6855">
        <ele>2270.578</ele>
        <time>2021-07-19T11:12:55Z</time>
      </trkpt>
      <trkpt lat="42.6491" lon="1.6855">
        <ele>2270.588</ele>
        <time>2021-07-19T11:12:57Z</time>
      </trkpt>
      <trkpt lat="42.6491" lon="1.6855">
        <ele>2270.601</ele>
        <time>2021-07-19T11:12:59Z</time>
      </trkpt>
      <trkpt lat="42.6491" lon="1.6855">
        <ele>2270.603</ele>
        <time>2021-07-19T11:13:01Z</time>
      </trkpt>
      <trkpt lat="42.6491" lon="1.6855">
        <ele>2270.615</ele>
        <time>2021-07-19T11:13:03Z</time>
      </trkpt>
      <trkpt lat="42.6491" lon="1.6855">
        <ele>2270.62</ele>
        <time>2021-07-19T11:13:05Z</time>
      </trkpt>
      <trkpt lat="42.6491" lon="1.6855">
        <ele>2270.616</ele>
        <time>2021-07-19T11:13:07Z</time>
      </trkpt>
      <trkpt lat="42.6491" lon="1.6855">
        <ele>2270.616</ele>
        <time>2021-07-19T11:13:09Z</time>
      </trkpt>
      <trkpt lat="42.6491" lon="1.6855">
        <ele>2270.611</ele>
        <time>2021-07-19T11:13:11Z</time>
      </trkpt>
      <trkpt lat="42.6491" lon="1.6855">
        <ele>2270.613</ele>
        <time>2021-07-19T11:13:13Z</time>
      </trkpt>
      <trkpt lat="42.6491" lon="1.6855">
        <ele>2270.615</ele>
        <time>2021-07-19T11:13:15Z</time>
      </trkpt>
      <trkpt lat="42.6491" lon="1.6855">
        <ele>2270.621</ele>
        <time>2021-07-19T11:13:17Z</time>
      </trkpt>
      <trkpt lat="42.6491" lon="1.6855">
        <ele>2270.637</ele>
        <time>2021-07-19T11:13:19Z</time>
      </trkpt>
      <trkpt lat="42.6491" lon="1.6855">
        <ele>2270.644</ele>
        <time>2021-07-19T11:13:21Z</time>
      </trkpt>
      <trkpt lat="42.6491" lon="1.6855">
        <ele>2270.649</ele>
        <time>2021-07-19T11:13:23Z</time>
      </trkpt>
      <trkpt lat="42.6491" lon="1.6855">
        <ele>2270.659</ele>
        <time>2021-07-19T11:13:25Z</time>
      </trkpt>
      <trkpt lat="42.6491" lon="1.6855">
        <ele>2270.661</ele>
        <time>2021-07-19T11:13:27Z</time>
      </trkpt>
      <trkpt lat="42.6491" lon="1.6855">
        <ele>2270.658</ele>
        <time>2021-07-19T11:13:29Z</time>
      </trkpt>
      <trkpt lat="42.6491" lon="1.6855">
        <ele>2270.656</ele>
        <time>2021-07-19T11:13:31Z</time>
      </trkpt>
      <trkpt lat="42.6491" lon="1.6855">
        <ele>2270.654</ele>
        <time>2021-07-19T11:13:33Z</time>
      </trkpt>
      <trkpt lat="42.6491" lon="1.6855">
        <ele>2270.654</ele>
        <time>2021-07-19T11:13:35Z</time>
      </trkpt>
      <trkpt lat="42.6491" lon="1.6855">
        <ele>2270.66</ele>
        <time>2021-07-19T11:13:37Z</time>
      </trkpt>
      <trkpt lat="42.6491" lon="1.6855">
        <ele>2270.664</ele>
        <time>2021-07-19T11:13:39Z</time>
      </trkpt>
      <trkpt lat="42.6491" lon="1.6855">
        <ele>2270.669</ele>
        <time>2021-07-19T11:13:41Z</time>
      </trkpt>
      <trkpt lat="42.6491" lon="1.6855">
        <ele>2270.671</ele>
        <time>2021-07-19T11:13:43Z</time>
      </trkpt>
      <trkpt lat="42.6491" lon="1.6855">
        <ele>2270.672</ele>
        <time>2021-07-19T11:13:45Z</time>
      </trkpt>
      <trkpt lat="42.6491" lon="1.6855">
        <ele>2270.674</ele>
        <time>2021-07-19T11:13:47Z</time>
      </trkpt>
      <trkpt lat="42.6491" lon="1.6855">
        <ele>2270.674</ele>
        <time>2021-07-19T11:13:49Z</time>
      </trkpt>
      <trkpt lat="42.6491" lon="1.6855">
        <ele>2270.673</ele>
        <time>2021-07-19T11:13:51Z</time>
      </trkpt>
      <trkpt lat="42.6491" lon="1.6855">
        <ele>2270.675</ele>
        <time>2021-07-19T11:13:54Z</time>
      </trkpt>
      <trkpt lat="42.6491" lon="1.6855">
        <ele>2270.676</ele>
        <time>2021-07-19T11:13:56Z</time>
      </trkpt>
      <trkpt lat="42.6491" lon="1.6855">
        <ele>2270.679</ele>
        <time>2021-07-19T11:14:00Z</time>
      </trkpt>
      <trkpt lat="42.6491" lon="1.6855">
        <ele>2270.679</ele>
        <time>2021-07-19T11:14:02Z</time>
      </trkpt>
      <trkpt lat="42.6491" lon="1.6855">
        <ele>2270.679</ele>
        <time>2021-07-19T11:14:04Z</time>
      </trkpt>
      <trkpt lat="42.6491" lon="1.6855">
        <ele>2270.687</ele>
        <time>2021-07-19T11:14:06Z</time>
      </trkpt>
      <trkpt lat="42.6491" lon="1.6855">
        <ele>2270.68</ele>
        <time>2021-07-19T11:14:08Z</time>
      </trkpt>
      <trkpt lat="42.6491" lon="1.6855">
        <ele>2270.682</ele>
        <time>2021-07-19T11:14:10Z</time>
      </trkpt>
      <trkpt lat="42.6491" lon="1.6855">
        <ele>2270.683</ele>
        <time>2021-07-19T11:14:12Z</time>
      </trkpt>
      <trkpt lat="42.6491" lon="1.6855">
        <ele>2270.677</ele>
        <time>2021-07-19T11:14:14Z</time>
      </trkpt>
      <trkpt lat="42.6491" lon="1.6855">
        <ele>2270.678</ele>
        <time>2021-07-19T11:14:16Z</time>
      </trkpt>
      <trkpt lat="42.6491" lon="1.6855">
        <ele>2270.68</ele>
        <time>2021-07-19T11:14:18Z</time>
      </trkpt>
      <trkpt lat="42.6491" lon="1.6855">
        <ele>2270.521</ele>
        <time>2021-07-19T11:14:20Z</time>
      </trkpt>
      <trkpt lat="42.6491" lon="1.68551">
        <ele>2270.353</ele>
        <time>2021-07-19T11:14:22Z</time>
      </trkpt>
      <trkpt lat="42.6491" lon="1.68551">
        <ele>2270.34</ele>
        <time>2021-07-19T11:14:25Z</time>
      </trkpt>
      <trkpt lat="42.6491" lon="1.68551">
        <ele>2270.336</ele>
        <time>2021-07-19T11:14:27Z</time>
      </trkpt>
      <trkpt lat="42.6491" lon="1.68551">
        <ele>2270.334</ele>
        <time>2021-07-19T11:14:29Z</time>
      </trkpt>
      <trkpt lat="42.6491" lon="1.68551">
        <ele>2270.332</ele>
        <time>2021-07-19T11:14:31Z</time>
      </trkpt>
      <trkpt lat="42.6491" lon="1.68551">
        <ele>2270.33</ele>
        <time>2021-07-19T11:14:33Z</time>
      </trkpt>
      <trkpt lat="42.6491" lon="1.68551">
        <ele>2270.334</ele>
        <time>2021-07-19T11:14:35Z</time>
      </trkpt>
      <trkpt lat="42.6491" lon="1.68551">
        <ele>2270.334</ele>
        <time>2021-07-19T11:14:37Z</time>
      </trkpt>
      <trkpt lat="42.6491" lon="1.68551">
        <ele>2270.332</ele>
        <time>2021-07-19T11:14:39Z</time>
      </trkpt>
      <trkpt lat="42.6491" lon="1.68551">
        <ele>2270.334</ele>
        <time>2021-07-19T11:14:41Z</time>
      </trkpt>
      <trkpt lat="42.6491" lon="1.68551">
        <ele>2270.334</ele>
        <time>2021-07-19T11:14:43Z</time>
      </trkpt>
      <trkpt lat="42.6491" lon="1.68551">
        <ele>2270.335</ele>
        <time>2021-07-19T11:14:45Z</time>
      </trkpt>
      <trkpt lat="42.6491" lon="1.68551">
        <ele>2270.333</ele>
        <time>2021-07-19T11:14:47Z</time>
      </trkpt>
      <trkpt lat="42.6491" lon="1.68551">
        <ele>2270.34</ele>
        <time>2021-07-19T11:14:49Z</time>
      </trkpt>
      <trkpt lat="42.6491" lon="1.68551">
        <ele>2270.341</ele>
        <time>2021-07-19T11:14:51Z</time>
      </trkpt>
      <trkpt lat="42.6491" lon="1.68551">
        <ele>2270.344</ele>
        <time>2021-07-19T11:14:53Z</time>
      </trkpt>
      <trkpt lat="42.6491" lon="1.68551">
        <ele>2270.346</ele>
        <time>2021-07-19T11:14:55Z</time>
      </trkpt>
      <trkpt lat="42.6491" lon="1.68551">
        <ele>2270.359</ele>
        <time>2021-07-19T11:14:57Z</time>
      </trkpt>
      <trkpt lat="42.6491" lon="1.68551">
        <ele>2270.37</ele>
        <time>2021-07-19T11:14:59Z</time>
      </trkpt>
      <trkpt lat="42.6491" lon="1.68551">
        <ele>2270.366</ele>
        <time>2021-07-19T11:15:01Z</time>
      </trkpt>
      <trkpt lat="42.6491" lon="1.68551">
        <ele>2270.371</ele>
        <time>2021-07-19T11:15:03Z</time>
      </trkpt>
      <trkpt lat="42.6491" lon="1.68551">
        <ele>2270.365</ele>
        <time>2021-07-19T11:15:05Z</time>
      </trkpt>
      <trkpt lat="42.6491" lon="1.68551">
        <ele>2270.375</ele>
        <time>2021-07-19T11:15:07Z</time>
      </trkpt>
      <trkpt lat="42.6491" lon="1.68551">
        <ele>2270.375</ele>
        <time>2021-07-19T11:15:09Z</time>
      </trkpt>
      <trkpt lat="42.6491" lon="1.68551">
        <ele>2270.378</ele>
        <time>2021-07-19T11:15:11Z</time>
      </trkpt>
      <trkpt lat="42.6491" lon="1.68551">
        <ele>2270.38</ele>
        <time>2021-07-19T11:15:13Z</time>
      </trkpt>
      <trkpt lat="42.6491" lon="1.68551">
        <ele>2270.381</ele>
        <time>2021-07-19T11:15:15Z</time>
      </trkpt>
      <trkpt lat="42.6491" lon="1.68551">
        <ele>2270.38</ele>
        <time>2021-07-19T11:15:17Z</time>
      </trkpt>
      <trkpt lat="42.6491" lon="1.68551">
        <ele>2270.38</ele>
        <time>2021-07-19T11:15:19Z</time>
      </trkpt>
      <trkpt lat="42.6491" lon="1.68551">
        <ele>2270.38</ele>
        <time>2021-07-19T11:15:21Z</time>
      </trkpt>
      <trkpt lat="42.6491" lon="1.68551">
        <ele>2270.378</ele>
        <time>2021-07-19T11:15:23Z</time>
      </trkpt>
      <trkpt lat="42.6491" lon="1.68551">
        <ele>2270.38</ele>
        <time>2021-07-19T11:15:25Z</time>
      </trkpt>
      <trkpt lat="42.6491" lon="1.68551">
        <ele>2270.383</ele>
        <time>2021-07-19T11:15:27Z</time>
      </trkpt>
      <trkpt lat="42.6491" lon="1.68551">
        <ele>2270.383</ele>
        <time>2021-07-19T11:15:29Z</time>
      </trkpt>
      <trkpt lat="42.6491" lon="1.68551">
        <ele>2270.384</ele>
        <time>2021-07-19T11:15:31Z</time>
      </trkpt>
      <trkpt lat="42.6491" lon="1.68551">
        <ele>2270.384</ele>
        <time>2021-07-19T11:15:33Z</time>
      </trkpt>
      <trkpt lat="42.6491" lon="1.68551">
        <ele>2270.393</ele>
        <time>2021-07-19T11:15:35Z</time>
      </trkpt>
      <trkpt lat="42.6491" lon="1.68551">
        <ele>2270.389</ele>
        <time>2021-07-19T11:15:37Z</time>
      </trkpt>
      <trkpt lat="42.6491" lon="1.68551">
        <ele>2270.397</ele>
        <time>2021-07-19T11:15:39Z</time>
      </trkpt>
      <trkpt lat="42.6491" lon="1.68551">
        <ele>2270.404</ele>
        <time>2021-07-19T11:15:41Z</time>
      </trkpt>
      <trkpt lat="42.6491" lon="1.68551">
        <ele>2270.409</ele>
        <time>2021-07-19T11:15:43Z</time>
      </trkpt>
      <trkpt lat="42.6491" lon="1.68551">
        <ele>2270.413</ele>
        <time>2021-07-19T11:15:45Z</time>
      </trkpt>
      <trkpt lat="42.6491" lon="1.68551">
        <ele>2270.414</ele>
        <time>2021-07-19T11:15:47Z</time>
      </trkpt>
      <trkpt lat="42.6491" lon="1.68551">
        <ele>2270.412</ele>
        <time>2021-07-19T11:15:49Z</time>
      </trkpt>
      <trkpt lat="42.6491" lon="1.68551">
        <ele>2270.411</ele>
        <time>2021-07-19T11:15:51Z</time>
      </trkpt>
      <trkpt lat="42.6491" lon="1.68551">
        <ele>2270.412</ele>
        <time>2021-07-19T11:15:53Z</time>
      </trkpt>
      <trkpt lat="42.6491" lon="1.68551">
        <ele>2270.411</ele>
        <time>2021-07-19T11:15:55Z</time>
      </trkpt>
      <trkpt lat="42.6491" lon="1.68551">
        <ele>2270.414</ele>
        <time>2021-07-19T11:15:57Z</time>
      </trkpt>
      <trkpt lat="42.6491" lon="1.68551">
        <ele>2270.42</ele>
        <time>2021-07-19T11:15:59Z</time>
      </trkpt>
      <trkpt lat="42.6491" lon="1.68551">
        <ele>2270.426</ele>
        <time>2021-07-19T11:16:01Z</time>
      </trkpt>
      <trkpt lat="42.6491" lon="1.68551">
        <ele>2270.427</ele>
        <time>2021-07-19T11:16:03Z</time>
      </trkpt>
      <trkpt lat="42.6491" lon="1.68551">
        <ele>2270.424</ele>
        <time>2021-07-19T11:16:05Z</time>
      </trkpt>
      <trkpt lat="42.6491" lon="1.68551">
        <ele>2270.424</ele>
        <time>2021-07-19T11:16:07Z</time>
      </trkpt>
      <trkpt lat="42.6491" lon="1.68551">
        <ele>2270.428</ele>
        <time>2021-07-19T11:16:09Z</time>
      </trkpt>
      <trkpt lat="42.6491" lon="1.68551">
        <ele>2270.436</ele>
        <time>2021-07-19T11:16:11Z</time>
      </trkpt>
      <trkpt lat="42.6491" lon="1.68551">
        <ele>2270.437</ele>
        <time>2021-07-19T11:16:13Z</time>
      </trkpt>
      <trkpt lat="42.6491" lon="1.68551">
        <ele>2270.441</ele>
        <time>2021-07-19T11:16:15Z</time>
      </trkpt>
      <trkpt lat="42.6491" lon="1.68551">
        <ele>2270.449</ele>
        <time>2021-07-19T11:16:17Z</time>
      </trkpt>
      <trkpt lat="42.6491" lon="1.68551">
        <ele>2270.451</ele>
        <time>2021-07-19T11:16:19Z</time>
      </trkpt>
      <trkpt lat="42.6491" lon="1.68551">
        <ele>2270.46</ele>
        <time>2021-07-19T11:16:21Z</time>
      </trkpt>
      <trkpt lat="42.6491" lon="1.68551">
        <ele>2270.459</ele>
        <time>2021-07-19T11:16:23Z</time>
      </trkpt>
      <trkpt lat="42.6491" lon="1.68551">
        <ele>2270.458</ele>
        <time>2021-07-19T11:16:25Z</time>
      </trkpt>
      <trkpt lat="42.6491" lon="1.68551">
        <ele>2270.462</ele>
        <time>2021-07-19T11:16:27Z</time>
      </trkpt>
      <trkpt lat="42.6491" lon="1.68551">
        <ele>2270.462</ele>
        <time>2021-07-19T11:16:29Z</time>
      </trkpt>
      <trkpt lat="42.6491" lon="1.68551">
        <ele>2270.455</ele>
        <time>2021-07-19T11:16:31Z</time>
      </trkpt>
      <trkpt lat="42.6491" lon="1.68551">
        <ele>2270.444</ele>
        <time>2021-07-19T11:16:33Z</time>
      </trkpt>
      <trkpt lat="42.6491" lon="1.68551">
        <ele>2270.447</ele>
        <time>2021-07-19T11:16:35Z</time>
      </trkpt>
      <trkpt lat="42.6491" lon="1.68551">
        <ele>2270.444</ele>
        <time>2021-07-19T11:16:37Z</time>
      </trkpt>
      <trkpt lat="42.6491" lon="1.68551">
        <ele>2270.45</ele>
        <time>2021-07-19T11:16:39Z</time>
      </trkpt>
      <trkpt lat="42.6491" lon="1.68551">
        <ele>2270.452</ele>
        <time>2021-07-19T11:16:41Z</time>
      </trkpt>
      <trkpt lat="42.6491" lon="1.68551">
        <ele>2270.455</ele>
        <time>2021-07-19T11:16:43Z</time>
      </trkpt>
      <trkpt lat="42.6491" lon="1.68551">
        <ele>2270.465</ele>
        <time>2021-07-19T11:16:45Z</time>
      </trkpt>
      <trkpt lat="42.6491" lon="1.68551">
        <ele>2270.466</ele>
        <time>2021-07-19T11:16:47Z</time>
      </trkpt>
      <trkpt lat="42.6491" lon="1.68551">
        <ele>2270.457</ele>
        <time>2021-07-19T11:16:49Z</time>
      </trkpt>
      <trkpt lat="42.6491" lon="1.68551">
        <ele>2270.442</ele>
        <time>2021-07-19T11:16:51Z</time>
      </trkpt>
      <trkpt lat="42.6491" lon="1.68551">
        <ele>2270.429</ele>
        <time>2021-07-19T11:16:53Z</time>
      </trkpt>
      <trkpt lat="42.6491" lon="1.68551">
        <ele>2270.421</ele>
        <time>2021-07-19T11:16:55Z</time>
      </trkpt>
      <trkpt lat="42.6491" lon="1.68551">
        <ele>2270.419</ele>
        <time>2021-07-19T11:16:57Z</time>
      </trkpt>
      <trkpt lat="42.6491" lon="1.68551">
        <ele>2270.426</ele>
        <time>2021-07-19T11:16:59Z</time>
      </trkpt>
      <trkpt lat="42.6491" lon="1.68551">
        <ele>2270.432</ele>
        <time>2021-07-19T11:17:01Z</time>
      </trkpt>
      <trkpt lat="42.6491" lon="1.68551">
        <ele>2270.43</ele>
        <time>2021-07-19T11:17:03Z</time>
      </trkpt>
      <trkpt lat="42.6491" lon="1.68551">
        <ele>2270.434</ele>
        <time>2021-07-19T11:17:05Z</time>
      </trkpt>
      <trkpt lat="42.6491" lon="1.68551">
        <ele>2270.428</ele>
        <time>2021-07-19T11:17:07Z</time>
      </trkpt>
      <trkpt lat="42.6491" lon="1.68551">
        <ele>2270.424</ele>
        <time>2021-07-19T11:17:09Z</time>
      </trkpt>
      <trkpt lat="42.6491" lon="1.68551">
        <ele>2270.423</ele>
        <time>2021-07-19T11:17:11Z</time>
      </trkpt>
      <trkpt lat="42.6491" lon="1.68551">
        <ele>2270.429</ele>
        <time>2021-07-19T11:17:13Z</time>
      </trkpt>
      <trkpt lat="42.6491" lon="1.68551">
        <ele>2270.433</ele>
        <time>2021-07-19T11:17:15Z</time>
      </trkpt>
      <trkpt lat="42.6491" lon="1.68551">
        <ele>2270.435</ele>
        <time>2021-07-19T11:17:17Z</time>
      </trkpt>
      <trkpt lat="42.6491" lon="1.68551">
        <ele>2270.435</ele>
        <time>2021-07-19T11:17:19Z</time>
      </trkpt>
      <trkpt lat="42.6491" lon="1.68551">
        <ele>2270.437</ele>
        <time>2021-07-19T11:17:21Z</time>
      </trkpt>
      <trkpt lat="42.6491" lon="1.68551">
        <ele>2270.436</ele>
        <time>2021-07-19T11:17:23Z</time>
      </trkpt>
      <trkpt lat="42.6491" lon="1.68551">
        <ele>2270.436</ele>
        <time>2021-07-19T11:17:25Z</time>
      </trkpt>
      <trkpt lat="42.6491" lon="1.68551">
        <ele>2270.433</ele>
        <time>2021-07-19T11:17:27Z</time>
      </trkpt>
      <trkpt lat="42.6491" lon="1.68551">
        <ele>2270.432</ele>
        <time>2021-07-19T11:17:29Z</time>
      </trkpt>
      <trkpt lat="42.6491" lon="1.68551">
        <ele>2270.431</ele>
        <time>2021-07-19T11:17:31Z</time>
      </trkpt>
      <trkpt lat="42.6491" lon="1.68551">
        <ele>2270.435</ele>
        <time>2021-07-19T11:17:33Z</time>
      </trkpt>
      <trkpt lat="42.6491" lon="1.68551">
        <ele>2270.443</ele>
        <time>2021-07-19T11:17:35Z</time>
      </trkpt>
      <trkpt lat="42.6491" lon="1.68551">
        <ele>2270.449</ele>
        <time>2021-07-19T11:17:37Z</time>
      </trkpt>
      <trkpt lat="42.6491" lon="1.68551">
        <ele>2270.444</ele>
        <time>2021-07-19T11:17:39Z</time>
      </trkpt>
      <trkpt lat="42.6491" lon="1.68551">
        <ele>2270.443</ele>
        <time>2021-07-19T11:17:41Z</time>
      </trkpt>
      <trkpt lat="42.6491" lon="1.68551">
        <ele>2270.436</ele>
        <time>2021-07-19T11:17:43Z</time>
      </trkpt>
      <trkpt lat="42.6491" lon="1.68551">
        <ele>2270.434</ele>
        <time>2021-07-19T11:17:45Z</time>
      </trkpt>
      <trkpt lat="42.6491" lon="1.68551">
        <ele>2270.435</ele>
        <time>2021-07-19T11:17:47Z</time>
      </trkpt>
      <trkpt lat="42.6491" lon="1.68551">
        <ele>2270.442</ele>
        <time>2021-07-19T11:17:49Z</time>
      </trkpt>
      <trkpt lat="42.6491" lon="1.68551">
        <ele>2270.446</ele>
        <time>2021-07-19T11:17:51Z</time>
      </trkpt>
      <trkpt lat="42.6491" lon="1.68551">
        <ele>2270.453</ele>
        <time>2021-07-19T11:17:53Z</time>
      </trkpt>
      <trkpt lat="42.6491" lon="1.68551">
        <ele>2270.454</ele>
        <time>2021-07-19T11:17:55Z</time>
      </trkpt>
      <trkpt lat="42.6491" lon="1.68551">
        <ele>2270.456</ele>
        <time>2021-07-19T11:17:57Z</time>
      </trkpt>
      <trkpt lat="42.6491" lon="1.68551">
        <ele>2270.458</ele>
        <time>2021-07-19T11:17:59Z</time>
      </trkpt>
      <trkpt lat="42.6491" lon="1.68551">
        <ele>2270.458</ele>
        <time>2021-07-19T11:18:01Z</time>
      </trkpt>
      <trkpt lat="42.6491" lon="1.68551">
        <ele>2270.468</ele>
        <time>2021-07-19T11:18:03Z</time>
      </trkpt>
      <trkpt lat="42.6491" lon="1.68551">
        <ele>2270.469</ele>
        <time>2021-07-19T11:18:05Z</time>
      </trkpt>
      <trkpt lat="42.6491" lon="1.68551">
        <ele>2270.469</ele>
        <time>2021-07-19T11:18:07Z</time>
      </trkpt>
      <trkpt lat="42.6491" lon="1.68551">
        <ele>2270.466</ele>
        <time>2021-07-19T11:18:09Z</time>
      </trkpt>
      <trkpt lat="42.6491" lon="1.68551">
        <ele>2270.464</ele>
        <time>2021-07-19T11:18:11Z</time>
      </trkpt>
      <trkpt lat="42.6491" lon="1.68551">
        <ele>2270.456</ele>
        <time>2021-07-19T11:18:13Z</time>
      </trkpt>
      <trkpt lat="42.6491" lon="1.68551">
        <ele>2270.453</ele>
        <time>2021-07-19T11:18:15Z</time>
      </trkpt>
      <trkpt lat="42.6491" lon="1.68551">
        <ele>2270.455</ele>
        <time>2021-07-19T11:18:17Z</time>
      </trkpt>
      <trkpt lat="42.6491" lon="1.68551">
        <ele>2270.456</ele>
        <time>2021-07-19T11:18:19Z</time>
      </trkpt>
      <trkpt lat="42.6491" lon="1.68551">
        <ele>2270.457</ele>
        <time>2021-07-19T11:18:21Z</time>
      </trkpt>
      <trkpt lat="42.6491" lon="1.68551">
        <ele>2270.458</ele>
        <time>2021-07-19T11:18:23Z</time>
      </trkpt>
      <trkpt lat="42.6491" lon="1.68551">
        <ele>2270.454</ele>
        <time>2021-07-19T11:18:25Z</time>
      </trkpt>
      <trkpt lat="42.6491" lon="1.68551">
        <ele>2270.453</ele>
        <time>2021-07-19T11:18:27Z</time>
      </trkpt>
      <trkpt lat="42.6491" lon="1.68551">
        <ele>2270.45</ele>
        <time>2021-07-19T11:18:29Z</time>
      </trkpt>
      <trkpt lat="42.6491" lon="1.68551">
        <ele>2270.451</ele>
        <time>2021-07-19T11:18:31Z</time>
      </trkpt>
      <trkpt lat="42.6491" lon="1.68551">
        <ele>2270.448</ele>
        <time>2021-07-19T11:18:33Z</time>
      </trkpt>
      <trkpt lat="42.6491" lon="1.68551">
        <ele>2270.462</ele>
        <time>2021-07-19T11:18:35Z</time>
      </trkpt>
      <trkpt lat="42.6491" lon="1.68551">
        <ele>2270.471</ele>
        <time>2021-07-19T11:18:37Z</time>
      </trkpt>
      <trkpt lat="42.6491" lon="1.68551">
        <ele>2270.479</ele>
        <time>2021-07-19T11:18:39Z</time>
      </trkpt>
      <trkpt lat="42.6491" lon="1.68551">
        <ele>2270.484</ele>
        <time>2021-07-19T11:18:41Z</time>
      </trkpt>
      <trkpt lat="42.6491" lon="1.68551">
        <ele>2270.479</ele>
        <time>2021-07-19T11:18:43Z</time>
      </trkpt>
      <trkpt lat="42.6491" lon="1.68551">
        <ele>2270.479</ele>
        <time>2021-07-19T11:18:45Z</time>
      </trkpt>
      <trkpt lat="42.6491" lon="1.68551">
        <ele>2270.478</ele>
        <time>2021-07-19T11:18:47Z</time>
      </trkpt>
      <trkpt lat="42.6491" lon="1.68551">
        <ele>2270.474</ele>
        <time>2021-07-19T11:18:49Z</time>
      </trkpt>
      <trkpt lat="42.6491" lon="1.68551">
        <ele>2270.478</ele>
        <time>2021-07-19T11:18:51Z</time>
      </trkpt>
      <trkpt lat="42.6491" lon="1.68551">
        <ele>2270.476</ele>
        <time>2021-07-19T11:18:53Z</time>
      </trkpt>
      <trkpt lat="42.6491" lon="1.68551">
        <ele>2270.477</ele>
        <time>2021-07-19T11:18:55Z</time>
      </trkpt>
      <trkpt lat="42.6491" lon="1.68551">
        <ele>2270.479</ele>
        <time>2021-07-19T11:18:57Z</time>
      </trkpt>
      <trkpt lat="42.6491" lon="1.68551">
        <ele>2270.482</ele>
        <time>2021-07-19T11:18:59Z</time>
      </trkpt>
      <trkpt lat="42.6491" lon="1.68551">
        <ele>2270.483</ele>
        <time>2021-07-19T11:19:01Z</time>
      </trkpt>
      <trkpt lat="42.6491" lon="1.68551">
        <ele>2270.489</ele>
        <time>2021-07-19T11:19:03Z</time>
      </trkpt>
      <trkpt lat="42.6491" lon="1.68551">
        <ele>2270.491</ele>
        <time>2021-07-19T11:19:05Z</time>
      </trkpt>
      <trkpt lat="42.6491" lon="1.68551">
        <ele>2270.491</ele>
        <time>2021-07-19T11:19:07Z</time>
      </trkpt>
      <trkpt lat="42.6491" lon="1.68551">
        <ele>2270.491</ele>
        <time>2021-07-19T11:19:09Z</time>
      </trkpt>
      <trkpt lat="42.6491" lon="1.68551">
        <ele>2270.493</ele>
        <time>2021-07-19T11:19:11Z</time>
      </trkpt>
      <trkpt lat="42.6491" lon="1.68551">
        <ele>2270.491</ele>
        <time>2021-07-19T11:19:13Z</time>
      </trkpt>
      <trkpt lat="42.6491" lon="1.68551">
        <ele>2270.491</ele>
        <time>2021-07-19T11:19:15Z</time>
      </trkpt>
      <trkpt lat="42.6491" lon="1.68551">
        <ele>2270.49</ele>
        <time>2021-07-19T11:19:17Z</time>
      </trkpt>
      <trkpt lat="42.6491" lon="1.68551">
        <ele>2270.487</ele>
        <time>2021-07-19T11:19:19Z</time>
      </trkpt>
      <trkpt lat="42.6491" lon="1.68551">
        <ele>2270.486</ele>
        <time>2021-07-19T11:19:21Z</time>
      </trkpt>
      <trkpt lat="42.6491" lon="1.68551">
        <ele>2270.483</ele>
        <time>2021-07-19T11:19:23Z</time>
      </trkpt>
      <trkpt lat="42.6491" lon="1.68551">
        <ele>2270.482</ele>
        <time>2021-07-19T11:19:25Z</time>
      </trkpt>
      <trkpt lat="42.6491" lon="1.68551">
        <ele>2270.479</ele>
        <time>2021-07-19T11:19:27Z</time>
      </trkpt>
      <trkpt lat="42.6491" lon="1.68551">
        <ele>2270.478</ele>
        <time>2021-07-19T11:19:29Z</time>
      </trkpt>
      <trkpt lat="42.6491" lon="1.68551">
        <ele>2270.482</ele>
        <time>2021-07-19T11:19:31Z</time>
      </trkpt>
      <trkpt lat="42.6491" lon="1.68551">
        <ele>2270.481</ele>
        <time>2021-07-19T11:19:33Z</time>
      </trkpt>
      <trkpt lat="42.6491" lon="1.68551">
        <ele>2270.474</ele>
        <time>2021-07-19T11:19:35Z</time>
      </trkpt>
      <trkpt lat="42.6491" lon="1.68551">
        <ele>2270.47</ele>
        <time>2021-07-19T11:19:37Z</time>
      </trkpt>
      <trkpt lat="42.6491" lon="1.68551">
        <ele>2270.473</ele>
        <time>2021-07-19T11:19:39Z</time>
      </trkpt>
      <trkpt lat="42.6491" lon="1.68551">
        <ele>2270.477</ele>
        <time>2021-07-19T11:19:41Z</time>
      </trkpt>
      <trkpt lat="42.6491" lon="1.68551">
        <ele>2270.485</ele>
        <time>2021-07-19T11:19:43Z</time>
      </trkpt>
      <trkpt lat="42.6491" lon="1.68551">
        <ele>2270.486</ele>
        <time>2021-07-19T11:19:45Z</time>
      </trkpt>
      <trkpt lat="42.6491" lon="1.68551">
        <ele>2270.482</ele>
        <time>2021-07-19T11:19:47Z</time>
      </trkpt>
      <trkpt lat="42.6491" lon="1.68551">
        <ele>2270.484</ele>
        <time>2021-07-19T11:19:49Z</time>
      </trkpt>
      <trkpt lat="42.6491" lon="1.68551">
        <ele>2270.486</ele>
        <time>2021-07-19T11:19:51Z</time>
      </trkpt>
      <trkpt lat="42.6491" lon="1.68551">
        <ele>2270.49</ele>
        <time>2021-07-19T11:19:53Z</time>
      </trkpt>
      <trkpt lat="42.6491" lon="1.68551">
        <ele>2270.495</ele>
        <time>2021-07-19T11:19:55Z</time>
      </trkpt>
      <trkpt lat="42.6491" lon="1.68551">
        <ele>2270.489</ele>
        <time>2021-07-19T11:19:57Z</time>
      </trkpt>
      <trkpt lat="42.6491" lon="1.68551">
        <ele>2270.496</ele>
        <time>2021-07-19T11:19:59Z</time>
      </trkpt>
      <trkpt lat="42.6491" lon="1.68551">
        <ele>2270.495</ele>
        <time>2021-07-19T11:20:01Z</time>
      </trkpt>
      <trkpt lat="42.6491" lon="1.68551">
        <ele>2270.497</ele>
        <time>2021-07-19T11:20:03Z</time>
      </trkpt>
      <trkpt lat="42.6491" lon="1.68551">
        <ele>2270.494</ele>
        <time>2021-07-19T11:20:05Z</time>
      </trkpt>
      <trkpt lat="42.6491" lon="1.68551">
        <ele>2270.492</ele>
        <time>2021-07-19T11:20:07Z</time>
      </trkpt>
      <trkpt lat="42.6491" lon="1.68551">
        <ele>2270.498</ele>
        <time>2021-07-19T11:20:09Z</time>
      </trkpt>
      <trkpt lat="42.6491" lon="1.68551">
        <ele>2270.506</ele>
        <time>2021-07-19T11:20:11Z</time>
      </trkpt>
      <trkpt lat="42.6491" lon="1.68551">
        <ele>2270.503</ele>
        <time>2021-07-19T11:20:13Z</time>
      </trkpt>
      <trkpt lat="42.6491" lon="1.68551">
        <ele>2270.503</ele>
        <time>2021-07-19T11:20:15Z</time>
      </trkpt>
      <trkpt lat="42.6491" lon="1.68551">
        <ele>2270.5</ele>
        <time>2021-07-19T11:20:17Z</time>
      </trkpt>
      <trkpt lat="42.6491" lon="1.68551">
        <ele>2270.504</ele>
        <time>2021-07-19T11:20:19Z</time>
      </trkpt>
      <trkpt lat="42.6491" lon="1.68551">
        <ele>2270.505</ele>
        <time>2021-07-19T11:20:21Z</time>
      </trkpt>
      <trkpt lat="42.6491" lon="1.68551">
        <ele>2270.506</ele>
        <time>2021-07-19T11:20:23Z</time>
      </trkpt>
      <trkpt lat="42.6491" lon="1.68551">
        <ele>2270.505</ele>
        <time>2021-07-19T11:20:25Z</time>
      </trkpt>
      <trkpt lat="42.6491" lon="1.68551">
        <ele>2270.502</ele>
        <time>2021-07-19T11:20:27Z</time>
      </trkpt>
      <trkpt lat="42.6491" lon="1.68551">
        <ele>2270.502</ele>
        <time>2021-07-19T11:20:29Z</time>
      </trkpt>
      <trkpt lat="42.6491" lon="1.68551">
        <ele>2270.502</ele>
        <time>2021-07-19T11:20:31Z</time>
      </trkpt>
      <trkpt lat="42.6491" lon="1.68551">
        <ele>2270.503</ele>
        <time>2021-07-19T11:20:33Z</time>
      </trkpt>
      <trkpt lat="42.6491" lon="1.68551">
        <ele>2270.506</ele>
        <time>2021-07-19T11:20:35Z</time>
      </trkpt>
      <trkpt lat="42.6491" lon="1.68551">
        <ele>2270.508</ele>
        <time>2021-07-19T11:20:37Z</time>
      </trkpt>
      <trkpt lat="42.6491" lon="1.68551">
        <ele>2270.51</ele>
        <time>2021-07-19T11:20:39Z</time>
      </trkpt>
      <trkpt lat="42.6491" lon="1.68551">
        <ele>2270.514</ele>
        <time>2021-07-19T11:20:41Z</time>
      </trkpt>
      <trkpt lat="42.6491" lon="1.68551">
        <ele>2270.517</ele>
        <time>2021-07-19T11:20:43Z</time>
      </trkpt>
      <trkpt lat="42.6491" lon="1.68551">
        <ele>2270.52</ele>
        <time>2021-07-19T11:20:45Z</time>
      </trkpt>
      <trkpt lat="42.6491" lon="1.68551">
        <ele>2270.514</ele>
        <time>2021-07-19T11:20:47Z</time>
      </trkpt>
      <trkpt lat="42.6491" lon="1.68551">
        <ele>2270.511</ele>
        <time>2021-07-19T11:20:49Z</time>
      </trkpt>
      <trkpt lat="42.6491" lon="1.68551">
        <ele>2270.506</ele>
        <time>2021-07-19T11:20:51Z</time>
      </trkpt>
      <trkpt lat="42.6491" lon="1.68551">
        <ele>2270.506</ele>
        <time>2021-07-19T11:20:53Z</time>
      </trkpt>
      <trkpt lat="42.6491" lon="1.68551">
        <ele>2270.507</ele>
        <time>2021-07-19T11:20:55Z</time>
      </trkpt>
      <trkpt lat="42.6491" lon="1.68551">
        <ele>2270.508</ele>
        <time>2021-07-19T11:20:57Z</time>
      </trkpt>
      <trkpt lat="42.6491" lon="1.68551">
        <ele>2270.511</ele>
        <time>2021-07-19T11:20:59Z</time>
      </trkpt>
      <trkpt lat="42.6491" lon="1.68551">
        <ele>2270.519</ele>
        <time>2021-07-19T11:21:01Z</time>
      </trkpt>
      <trkpt lat="42.6491" lon="1.68551">
        <ele>2270.527</ele>
        <time>2021-07-19T11:21:03Z</time>
      </trkpt>
      <trkpt lat="42.6491" lon="1.68551">
        <ele>2270.529</ele>
        <time>2021-07-19T11:21:05Z</time>
      </trkpt>
      <trkpt lat="42.6491" lon="1.68551">
        <ele>2270.529</ele>
        <time>2021-07-19T11:21:07Z</time>
      </trkpt>
      <trkpt lat="42.6491" lon="1.68551">
        <ele>2270.527</ele>
        <time>2021-07-19T11:21:09Z</time>
      </trkpt>
      <trkpt lat="42.6491" lon="1.68551">
        <ele>2270.52</ele>
        <time>2021-07-19T11:21:11Z</time>
      </trkpt>
      <trkpt lat="42.6491" lon="1.68551">
        <ele>2270.516</ele>
        <time>2021-07-19T11:21:13Z</time>
      </trkpt>
      <trkpt lat="42.6491" lon="1.68551">
        <ele>2270.515</ele>
        <time>2021-07-19T11:21:15Z</time>
      </trkpt>
      <trkpt lat="42.6491" lon="1.68551">
        <ele>2270.521</ele>
        <time>2021-07-19T11:21:17Z</time>
      </trkpt>
      <trkpt lat="42.6491" lon="1.68551">
        <ele>2270.529</ele>
        <time>2021-07-19T11:21:19Z</time>
      </trkpt>
      <trkpt lat="42.6491" lon="1.68551">
        <ele>2270.537</ele>
        <time>2021-07-19T11:21:21Z</time>
      </trkpt>
      <trkpt lat="42.6491" lon="1.68551">
        <ele>2270.539</ele>
        <time>2021-07-19T11:21:23Z</time>
      </trkpt>
      <trkpt lat="42.6491" lon="1.68551">
        <ele>2270.542</ele>
        <time>2021-07-19T11:21:25Z</time>
      </trkpt>
      <trkpt lat="42.6491" lon="1.68551">
        <ele>2270.544</ele>
        <time>2021-07-19T11:21:27Z</time>
      </trkpt>
      <trkpt lat="42.6491" lon="1.68551">
        <ele>2270.545</ele>
        <time>2021-07-19T11:21:29Z</time>
      </trkpt>
      <trkpt lat="42.6491" lon="1.68551">
        <ele>2270.546</ele>
        <time>2021-07-19T11:21:31Z</time>
      </trkpt>
      <trkpt lat="42.6491" lon="1.68551">
        <ele>2270.546</ele>
        <time>2021-07-19T11:21:33Z</time>
      </trkpt>
      <trkpt lat="42.6491" lon="1.68551">
        <ele>2270.549</ele>
        <time>2021-07-19T11:21:35Z</time>
      </trkpt>
      <trkpt lat="42.6491" lon="1.68551">
        <ele>2270.544</ele>
        <time>2021-07-19T11:21:37Z</time>
      </trkpt>
      <trkpt lat="42.6491" lon="1.68551">
        <ele>2270.548</ele>
        <time>2021-07-19T11:21:39Z</time>
      </trkpt>
      <trkpt lat="42.6491" lon="1.68551">
        <ele>2270.555</ele>
        <time>2021-07-19T11:21:41Z</time>
      </trkpt>
      <trkpt lat="42.6491" lon="1.68551">
        <ele>2270.561</ele>
        <time>2021-07-19T11:21:43Z</time>
      </trkpt>
      <trkpt lat="42.6491" lon="1.68551">
        <ele>2270.566</ele>
        <time>2021-07-19T11:21:45Z</time>
      </trkpt>
      <trkpt lat="42.6491" lon="1.68551">
        <ele>2270.577</ele>
        <time>2021-07-19T11:21:47Z</time>
      </trkpt>
      <trkpt lat="42.6491" lon="1.68551">
        <ele>2270.592</ele>
        <time>2021-07-19T11:21:49Z</time>
      </trkpt>
      <trkpt lat="42.6491" lon="1.68551">
        <ele>2270.591</ele>
        <time>2021-07-19T11:21:51Z</time>
      </trkpt>
      <trkpt lat="42.6491" lon="1.68551">
        <ele>2270.592</ele>
        <time>2021-07-19T11:21:53Z</time>
      </trkpt>
      <trkpt lat="42.6491" lon="1.68551">
        <ele>2270.602</ele>
        <time>2021-07-19T11:21:55Z</time>
      </trkpt>
      <trkpt lat="42.6491" lon="1.68551">
        <ele>2270.603</ele>
        <time>2021-07-19T11:21:57Z</time>
      </trkpt>
      <trkpt lat="42.6491" lon="1.68551">
        <ele>2270.605</ele>
        <time>2021-07-19T11:21:59Z</time>
      </trkpt>
      <trkpt lat="42.6491" lon="1.68551">
        <ele>2270.615</ele>
        <time>2021-07-19T11:22:01Z</time>
      </trkpt>
      <trkpt lat="42.6491" lon="1.68551">
        <ele>2270.609</ele>
        <time>2021-07-19T11:22:03Z</time>
      </trkpt>
      <trkpt lat="42.6491" lon="1.68551">
        <ele>2270.618</ele>
        <time>2021-07-19T11:22:05Z</time>
      </trkpt>
      <trkpt lat="42.6491" lon="1.68551">
        <ele>2270.622</ele>
        <time>2021-07-19T11:22:07Z</time>
      </trkpt>
      <trkpt lat="42.6491" lon="1.68551">
        <ele>2270.63</ele>
        <time>2021-07-19T11:22:09Z</time>
      </trkpt>
      <trkpt lat="42.6491" lon="1.68551">
        <ele>2270.634</ele>
        <time>2021-07-19T11:22:11Z</time>
      </trkpt>
      <trkpt lat="42.6491" lon="1.68551">
        <ele>2270.651</ele>
        <time>2021-07-19T11:22:13Z</time>
      </trkpt>
      <trkpt lat="42.6491" lon="1.68551">
        <ele>2270.656</ele>
        <time>2021-07-19T11:22:15Z</time>
      </trkpt>
      <trkpt lat="42.6491" lon="1.68551">
        <ele>2270.651</ele>
        <time>2021-07-19T11:22:17Z</time>
      </trkpt>
      <trkpt lat="42.6491" lon="1.68551">
        <ele>2270.653</ele>
        <time>2021-07-19T11:22:19Z</time>
      </trkpt>
      <trkpt lat="42.6491" lon="1.68551">
        <ele>2270.658</ele>
        <time>2021-07-19T11:22:21Z</time>
      </trkpt>
      <trkpt lat="42.6491" lon="1.68551">
        <ele>2270.656</ele>
        <time>2021-07-19T11:22:23Z</time>
      </trkpt>
      <trkpt lat="42.6491" lon="1.68551">
        <ele>2270.657</ele>
        <time>2021-07-19T11:22:25Z</time>
      </trkpt>
      <trkpt lat="42.6491" lon="1.68551">
        <ele>2270.654</ele>
        <time>2021-07-19T11:22:27Z</time>
      </trkpt>
      <trkpt lat="42.6491" lon="1.68551">
        <ele>2270.657</ele>
        <time>2021-07-19T11:22:29Z</time>
      </trkpt>
      <trkpt lat="42.6491" lon="1.68551">
        <ele>2270.658</ele>
        <time>2021-07-19T11:22:31Z</time>
      </trkpt>
      <trkpt lat="42.6491" lon="1.68551">
        <ele>2270.657</ele>
        <time>2021-07-19T11:22:33Z</time>
      </trkpt>
      <trkpt lat="42.6491" lon="1.68551">
        <ele>2270.657</ele>
        <time>2021-07-19T11:22:35Z</time>
      </trkpt>
      <trkpt lat="42.6491" lon="1.68551">
        <ele>2270.671</ele>
        <time>2021-07-19T11:22:37Z</time>
      </trkpt>
      <trkpt lat="42.6491" lon="1.68551">
        <ele>2270.679</ele>
        <time>2021-07-19T11:22:39Z</time>
      </trkpt>
      <trkpt lat="42.6491" lon="1.68551">
        <ele>2270.687</ele>
        <time>2021-07-19T11:22:41Z</time>
      </trkpt>
      <trkpt lat="42.6491" lon="1.68551">
        <ele>2270.699</ele>
        <time>2021-07-19T11:22:43Z</time>
      </trkpt>
      <trkpt lat="42.6491" lon="1.68551">
        <ele>2270.699</ele>
        <time>2021-07-19T11:22:45Z</time>
      </trkpt>
      <trkpt lat="42.6491" lon="1.68551">
        <ele>2270.7</ele>
        <time>2021-07-19T11:22:47Z</time>
      </trkpt>
      <trkpt lat="42.6491" lon="1.68551">
        <ele>2270.701</ele>
        <time>2021-07-19T11:22:49Z</time>
      </trkpt>
      <trkpt lat="42.6491" lon="1.68551">
        <ele>2270.704</ele>
        <time>2021-07-19T11:22:51Z</time>
      </trkpt>
      <trkpt lat="42.6491" lon="1.68551">
        <ele>2270.707</ele>
        <time>2021-07-19T11:22:53Z</time>
      </trkpt>
      <trkpt lat="42.6491" lon="1.68551">
        <ele>2270.714</ele>
        <time>2021-07-19T11:22:55Z</time>
      </trkpt>
      <trkpt lat="42.6491" lon="1.68551">
        <ele>2270.724</ele>
        <time>2021-07-19T11:22:57Z</time>
      </trkpt>
      <trkpt lat="42.6491" lon="1.68551">
        <ele>2270.724</ele>
        <time>2021-07-19T11:22:59Z</time>
      </trkpt>
      <trkpt lat="42.6491" lon="1.68551">
        <ele>2270.728</ele>
        <time>2021-07-19T11:23:01Z</time>
      </trkpt>
      <trkpt lat="42.6491" lon="1.68551">
        <ele>2270.729</ele>
        <time>2021-07-19T11:23:03Z</time>
      </trkpt>
      <trkpt lat="42.6491" lon="1.68551">
        <ele>2270.737</ele>
        <time>2021-07-19T11:23:05Z</time>
      </trkpt>
      <trkpt lat="42.6491" lon="1.68551">
        <ele>2270.741</ele>
        <time>2021-07-19T11:23:07Z</time>
      </trkpt>
      <trkpt lat="42.6491" lon="1.68551">
        <ele>2270.745</ele>
        <time>2021-07-19T11:23:09Z</time>
      </trkpt>
      <trkpt lat="42.6491" lon="1.68551">
        <ele>2270.745</ele>
        <time>2021-07-19T11:23:11Z</time>
      </trkpt>
      <trkpt lat="42.6491" lon="1.68551">
        <ele>2270.743</ele>
        <time>2021-07-19T11:23:13Z</time>
      </trkpt>
      <trkpt lat="42.6491" lon="1.68551">
        <ele>2270.745</ele>
        <time>2021-07-19T11:23:15Z</time>
      </trkpt>
      <trkpt lat="42.6491" lon="1.68551">
        <ele>2270.739</ele>
        <time>2021-07-19T11:23:17Z</time>
      </trkpt>
      <trkpt lat="42.6491" lon="1.68551">
        <ele>2270.74</ele>
        <time>2021-07-19T11:23:19Z</time>
      </trkpt>
      <trkpt lat="42.6491" lon="1.68551">
        <ele>2270.739</ele>
        <time>2021-07-19T11:23:21Z</time>
      </trkpt>
      <trkpt lat="42.6491" lon="1.68551">
        <ele>2270.743</ele>
        <time>2021-07-19T11:23:23Z</time>
      </trkpt>
      <trkpt lat="42.6491" lon="1.68551">
        <ele>2270.745</ele>
        <time>2021-07-19T11:23:25Z</time>
      </trkpt>
      <trkpt lat="42.6491" lon="1.68551">
        <ele>2270.744</ele>
        <time>2021-07-19T11:23:27Z</time>
      </trkpt>
      <trkpt lat="42.6491" lon="1.68551">
        <ele>2270.737</ele>
        <time>2021-07-19T11:23:29Z</time>
      </trkpt>
      <trkpt lat="42.6491" lon="1.68551">
        <ele>2270.74</ele>
        <time>2021-07-19T11:23:31Z</time>
      </trkpt>
      <trkpt lat="42.6491" lon="1.68551">
        <ele>2270.741</ele>
        <time>2021-07-19T11:23:33Z</time>
      </trkpt>
      <trkpt lat="42.6491" lon="1.68551">
        <ele>2270.74</ele>
        <time>2021-07-19T11:23:35Z</time>
      </trkpt>
      <trkpt lat="42.6491" lon="1.68551">
        <ele>2270.747</ele>
        <time>2021-07-19T11:23:37Z</time>
      </trkpt>
      <trkpt lat="42.6491" lon="1.68551">
        <ele>2270.752</ele>
        <time>2021-07-19T11:23:39Z</time>
      </trkpt>
      <trkpt lat="42.6491" lon="1.68551">
        <ele>2270.758</ele>
        <time>2021-07-19T11:23:41Z</time>
      </trkpt>
      <trkpt lat="42.6491" lon="1.68551">
        <ele>2270.761</ele>
        <time>2021-07-19T11:23:43Z</time>
      </trkpt>
      <trkpt lat="42.6491" lon="1.68551">
        <ele>2270.767</ele>
        <time>2021-07-19T11:23:45Z</time>
      </trkpt>
      <trkpt lat="42.6491" lon="1.68551">
        <ele>2270.771</ele>
        <time>2021-07-19T11:23:47Z</time>
      </trkpt>
      <trkpt lat="42.6491" lon="1.68551">
        <ele>2270.776</ele>
        <time>2021-07-19T11:23:49Z</time>
      </trkpt>
      <trkpt lat="42.6491" lon="1.68551">
        <ele>2270.778</ele>
        <time>2021-07-19T11:23:51Z</time>
      </trkpt>
      <trkpt lat="42.6491" lon="1.68551">
        <ele>2270.779</ele>
        <time>2021-07-19T11:23:53Z</time>
      </trkpt>
      <trkpt lat="42.6491" lon="1.68551">
        <ele>2270.78</ele>
        <time>2021-07-19T11:23:55Z</time>
      </trkpt>
      <trkpt lat="42.6491" lon="1.68551">
        <ele>2270.783</ele>
        <time>2021-07-19T11:23:57Z</time>
      </trkpt>
      <trkpt lat="42.6491" lon="1.68551">
        <ele>2270.784</ele>
        <time>2021-07-19T11:23:59Z</time>
      </trkpt>
      <trkpt lat="42.6491" lon="1.68551">
        <ele>2270.784</ele>
        <time>2021-07-19T11:24:01Z</time>
      </trkpt>
      <trkpt lat="42.6491" lon="1.68551">
        <ele>2270.779</ele>
        <time>2021-07-19T11:24:03Z</time>
      </trkpt>
      <trkpt lat="42.6491" lon="1.68551">
        <ele>2270.775</ele>
        <time>2021-07-19T11:24:05Z</time>
      </trkpt>
      <trkpt lat="42.6491" lon="1.68551">
        <ele>2270.771</ele>
        <time>2021-07-19T11:24:07Z</time>
      </trkpt>
      <trkpt lat="42.6491" lon="1.68551">
        <ele>2270.764</ele>
        <time>2021-07-19T11:24:09Z</time>
      </trkpt>
      <trkpt lat="42.6491" lon="1.68551">
        <ele>2270.76</ele>
        <time>2021-07-19T11:24:11Z</time>
      </trkpt>
      <trkpt lat="42.6491" lon="1.68551">
        <ele>2270.752</ele>
        <time>2021-07-19T11:24:13Z</time>
      </trkpt>
      <trkpt lat="42.6491" lon="1.68551">
        <ele>2270.753</ele>
        <time>2021-07-19T11:24:15Z</time>
      </trkpt>
      <trkpt lat="42.6491" lon="1.68551">
        <ele>2270.763</ele>
        <time>2021-07-19T11:24:17Z</time>
      </trkpt>
      <trkpt lat="42.6491" lon="1.68551">
        <ele>2270.77</ele>
        <time>2021-07-19T11:24:19Z</time>
      </trkpt>
      <trkpt lat="42.6491" lon="1.68551">
        <ele>2270.775</ele>
        <time>2021-07-19T11:24:21Z</time>
      </trkpt>
      <trkpt lat="42.6491" lon="1.68551">
        <ele>2270.773</ele>
        <time>2021-07-19T11:24:23Z</time>
      </trkpt>
      <trkpt lat="42.6491" lon="1.68551">
        <ele>2270.782</ele>
        <time>2021-07-19T11:24:25Z</time>
      </trkpt>
      <trkpt lat="42.6491" lon="1.68551">
        <ele>2270.785</ele>
        <time>2021-07-19T11:24:27Z</time>
      </trkpt>
      <trkpt lat="42.6491" lon="1.68551">
        <ele>2270.793</ele>
        <time>2021-07-19T11:24:29Z</time>
      </trkpt>
      <trkpt lat="42.6491" lon="1.68551">
        <ele>2270.8</ele>
        <time>2021-07-19T11:24:31Z</time>
      </trkpt>
      <trkpt lat="42.6491" lon="1.68551">
        <ele>2270.804</ele>
        <time>2021-07-19T11:24:33Z</time>
      </trkpt>
      <trkpt lat="42.6491" lon="1.68551">
        <ele>2270.812</ele>
        <time>2021-07-19T11:24:35Z</time>
      </trkpt>
      <trkpt lat="42.6491" lon="1.68551">
        <ele>2270.811</ele>
        <time>2021-07-19T11:24:37Z</time>
      </trkpt>
      <trkpt lat="42.6491" lon="1.68551">
        <ele>2270.808</ele>
        <time>2021-07-19T11:24:39Z</time>
      </trkpt>
      <trkpt lat="42.6491" lon="1.68551">
        <ele>2270.804</ele>
        <time>2021-07-19T11:24:41Z</time>
      </trkpt>
      <trkpt lat="42.6491" lon="1.68551">
        <ele>2270.801</ele>
        <time>2021-07-19T11:24:43Z</time>
      </trkpt>
      <trkpt lat="42.6491" lon="1.68551">
        <ele>2270.801</ele>
        <time>2021-07-19T11:24:45Z</time>
      </trkpt>
      <trkpt lat="42.6491" lon="1.68551">
        <ele>2270.799</ele>
        <time>2021-07-19T11:24:47Z</time>
      </trkpt>
      <trkpt lat="42.6491" lon="1.68551">
        <ele>2270.798</ele>
        <time>2021-07-19T11:24:49Z</time>
      </trkpt>
      <trkpt lat="42.6491" lon="1.68551">
        <ele>2270.81</ele>
        <time>2021-07-19T11:24:51Z</time>
      </trkpt>
      <trkpt lat="42.6491" lon="1.68551">
        <ele>2270.827</ele>
        <time>2021-07-19T11:24:53Z</time>
      </trkpt>
      <trkpt lat="42.6491" lon="1.68551">
        <ele>2270.843</ele>
        <time>2021-07-19T11:24:55Z</time>
      </trkpt>
      <trkpt lat="42.6491" lon="1.68551">
        <ele>2270.858</ele>
        <time>2021-07-19T11:24:57Z</time>
      </trkpt>
      <trkpt lat="42.6491" lon="1.68551">
        <ele>2270.865</ele>
        <time>2021-07-19T11:24:59Z</time>
      </trkpt>
      <trkpt lat="42.6491" lon="1.68551">
        <ele>2270.867</ele>
        <time>2021-07-19T11:25:01Z</time>
      </trkpt>
      <trkpt lat="42.6491" lon="1.68551">
        <ele>2270.872</ele>
        <time>2021-07-19T11:25:03Z</time>
      </trkpt>
      <trkpt lat="42.6491" lon="1.68551">
        <ele>2270.863</ele>
        <time>2021-07-19T11:25:05Z</time>
      </trkpt>
      <trkpt lat="42.6491" lon="1.68551">
        <ele>2270.859</ele>
        <time>2021-07-19T11:25:07Z</time>
      </trkpt>
      <trkpt lat="42.6491" lon="1.68551">
        <ele>2270.867</ele>
        <time>2021-07-19T11:25:09Z</time>
      </trkpt>
      <trkpt lat="42.6491" lon="1.68551">
        <ele>2270.874</ele>
        <time>2021-07-19T11:25:11Z</time>
      </trkpt>
      <trkpt lat="42.6491" lon="1.68551">
        <ele>2270.885</ele>
        <time>2021-07-19T11:25:13Z</time>
      </trkpt>
      <trkpt lat="42.6491" lon="1.68551">
        <ele>2270.893</ele>
        <time>2021-07-19T11:25:15Z</time>
      </trkpt>
      <trkpt lat="42.6491" lon="1.68551">
        <ele>2270.895</ele>
        <time>2021-07-19T11:25:17Z</time>
      </trkpt>
      <trkpt lat="42.6491" lon="1.68551">
        <ele>2270.898</ele>
        <time>2021-07-19T11:25:19Z</time>
      </trkpt>
      <trkpt lat="42.6491" lon="1.68551">
        <ele>2270.901</ele>
        <time>2021-07-19T11:25:21Z</time>
      </trkpt>
      <trkpt lat="42.6491" lon="1.68551">
        <ele>2270.906</ele>
        <time>2021-07-19T11:25:23Z</time>
      </trkpt>
      <trkpt lat="42.6491" lon="1.68551">
        <ele>2270.907</ele>
        <time>2021-07-19T11:25:25Z</time>
      </trkpt>
      <trkpt lat="42.6491" lon="1.68551">
        <ele>2270.9</ele>
        <time>2021-07-19T11:25:27Z</time>
      </trkpt>
      <trkpt lat="42.6491" lon="1.68551">
        <ele>2270.902</ele>
        <time>2021-07-19T11:25:29Z</time>
      </trkpt>
      <trkpt lat="42.6491" lon="1.68551">
        <ele>2270.895</ele>
        <time>2021-07-19T11:25:31Z</time>
      </trkpt>
      <trkpt lat="42.6491" lon="1.68551">
        <ele>2270.898</ele>
        <time>2021-07-19T11:25:33Z</time>
      </trkpt>
      <trkpt lat="42.6491" lon="1.68551">
        <ele>2270.896</ele>
        <time>2021-07-19T11:25:35Z</time>
      </trkpt>
      <trkpt lat="42.6491" lon="1.68551">
        <ele>2270.892</ele>
        <time>2021-07-19T11:25:37Z</time>
      </trkpt>
      <trkpt lat="42.6491" lon="1.68551">
        <ele>2270.891</ele>
        <time>2021-07-19T11:25:39Z</time>
      </trkpt>
      <trkpt lat="42.6491" lon="1.68551">
        <ele>2270.9</ele>
        <time>2021-07-19T11:25:41Z</time>
      </trkpt>
      <trkpt lat="42.6491" lon="1.68551">
        <ele>2270.902</ele>
        <time>2021-07-19T11:25:43Z</time>
      </trkpt>
      <trkpt lat="42.6491" lon="1.68551">
        <ele>2270.902</ele>
        <time>2021-07-19T11:25:45Z</time>
      </trkpt>
      <trkpt lat="42.6491" lon="1.68551">
        <ele>2270.898</ele>
        <time>2021-07-19T11:25:47Z</time>
      </trkpt>
      <trkpt lat="42.6491" lon="1.68551">
        <ele>2270.893</ele>
        <time>2021-07-19T11:25:49Z</time>
      </trkpt>
      <trkpt lat="42.6491" lon="1.68551">
        <ele>2270.888</ele>
        <time>2021-07-19T11:25:51Z</time>
      </trkpt>
      <trkpt lat="42.6491" lon="1.68551">
        <ele>2270.891</ele>
        <time>2021-07-19T11:25:53Z</time>
      </trkpt>
      <trkpt lat="42.6491" lon="1.68551">
        <ele>2270.894</ele>
        <time>2021-07-19T11:25:55Z</time>
      </trkpt>
      <trkpt lat="42.6491" lon="1.68551">
        <ele>2270.903</ele>
        <time>2021-07-19T11:25:57Z</time>
      </trkpt>
      <trkpt lat="42.6491" lon="1.68551">
        <ele>2270.903</ele>
        <time>2021-07-19T11:25:59Z</time>
      </trkpt>
      <trkpt lat="42.6491" lon="1.68551">
        <ele>2270.907</ele>
        <time>2021-07-19T11:26:01Z</time>
      </trkpt>
      <trkpt lat="42.6491" lon="1.68551">
        <ele>2270.907</ele>
        <time>2021-07-19T11:26:03Z</time>
      </trkpt>
      <trkpt lat="42.6491" lon="1.68551">
        <ele>2270.906</ele>
        <time>2021-07-19T11:26:05Z</time>
      </trkpt>
      <trkpt lat="42.6491" lon="1.68551">
        <ele>2270.895</ele>
        <time>2021-07-19T11:26:07Z</time>
      </trkpt>
      <trkpt lat="42.6491" lon="1.68551">
        <ele>2270.9</ele>
        <time>2021-07-19T11:26:09Z</time>
      </trkpt>
      <trkpt lat="42.6491" lon="1.68551">
        <ele>2270.904</ele>
        <time>2021-07-19T11:26:11Z</time>
      </trkpt>
      <trkpt lat="42.6491" lon="1.68551">
        <ele>2270.913</ele>
        <time>2021-07-19T11:26:13Z</time>
      </trkpt>
      <trkpt lat="42.6491" lon="1.68551">
        <ele>2270.922</ele>
        <time>2021-07-19T11:26:15Z</time>
      </trkpt>
      <trkpt lat="42.6491" lon="1.68551">
        <ele>2270.929</ele>
        <time>2021-07-19T11:26:17Z</time>
      </trkpt>
      <trkpt lat="42.6491" lon="1.68551">
        <ele>2270.943</ele>
        <time>2021-07-19T11:26:19Z</time>
      </trkpt>
      <trkpt lat="42.6491" lon="1.68551">
        <ele>2270.957</ele>
        <time>2021-07-19T11:26:21Z</time>
      </trkpt>
      <trkpt lat="42.6491" lon="1.68551">
        <ele>2270.964</ele>
        <time>2021-07-19T11:26:23Z</time>
      </trkpt>
      <trkpt lat="42.6491" lon="1.68551">
        <ele>2270.968</ele>
        <time>2021-07-19T11:26:25Z</time>
      </trkpt>
      <trkpt lat="42.6491" lon="1.68551">
        <ele>2270.964</ele>
        <time>2021-07-19T11:26:27Z</time>
      </trkpt>
      <trkpt lat="42.6491" lon="1.68551">
        <ele>2270.967</ele>
        <time>2021-07-19T11:26:29Z</time>
      </trkpt>
      <trkpt lat="42.6491" lon="1.68551">
        <ele>2270.976</ele>
        <time>2021-07-19T11:26:31Z</time>
      </trkpt>
      <trkpt lat="42.6491" lon="1.68551">
        <ele>2271.205</ele>
        <time>2021-07-19T11:26:33Z</time>
      </trkpt>
      <trkpt lat="42.6491" lon="1.68551">
        <ele>2271.212</ele>
        <time>2021-07-19T11:26:35Z</time>
      </trkpt>
      <trkpt lat="42.6491" lon="1.68551">
        <ele>2271.211</ele>
        <time>2021-07-19T11:26:37Z</time>
      </trkpt>
      <trkpt lat="42.6491" lon="1.68551">
        <ele>2271.219</ele>
        <time>2021-07-19T11:26:39Z</time>
      </trkpt>
      <trkpt lat="42.6491" lon="1.68551">
        <ele>2271.228</ele>
        <time>2021-07-19T11:26:41Z</time>
      </trkpt>
      <trkpt lat="42.6491" lon="1.68551">
        <ele>2271.231</ele>
        <time>2021-07-19T11:26:43Z</time>
      </trkpt>
      <trkpt lat="42.6491" lon="1.68551">
        <ele>2271.235</ele>
        <time>2021-07-19T11:26:45Z</time>
      </trkpt>
      <trkpt lat="42.6491" lon="1.68551">
        <ele>2271.233</ele>
        <time>2021-07-19T11:26:47Z</time>
      </trkpt>
      <trkpt lat="42.64909" lon="1.68551">
        <ele>2271.511</ele>
        <time>2021-07-19T11:26:49Z</time>
      </trkpt>
      <trkpt lat="42.64909" lon="1.68551">
        <ele>2271.512</ele>
        <time>2021-07-19T11:26:51Z</time>
      </trkpt>
      <trkpt lat="42.64909" lon="1.68551">
        <ele>2271.508</ele>
        <time>2021-07-19T11:26:53Z</time>
      </trkpt>
      <trkpt lat="42.64909" lon="1.68551">
        <ele>2271.512</ele>
        <time>2021-07-19T11:26:55Z</time>
      </trkpt>
      <trkpt lat="42.64909" lon="1.68551">
        <ele>2271.515</ele>
        <time>2021-07-19T11:26:57Z</time>
      </trkpt>
      <trkpt lat="42.64909" lon="1.68551">
        <ele>2271.514</ele>
        <time>2021-07-19T11:26:59Z</time>
      </trkpt>
      <trkpt lat="42.64909" lon="1.68551">
        <ele>2271.31</ele>
        <time>2021-07-19T11:27:01Z</time>
      </trkpt>
      <trkpt lat="42.64909" lon="1.68551">
        <ele>2271.261</ele>
        <time>2021-07-19T11:27:03Z</time>
      </trkpt>
      <trkpt lat="42.64909" lon="1.68551">
        <ele>2271.263</ele>
        <time>2021-07-19T11:27:05Z</time>
      </trkpt>
      <trkpt lat="42.64909" lon="1.68551">
        <ele>2271.264</ele>
        <time>2021-07-19T11:27:07Z</time>
      </trkpt>
      <trkpt lat="42.64909" lon="1.68551">
        <ele>2271.269</ele>
        <time>2021-07-19T11:27:09Z</time>
      </trkpt>
      <trkpt lat="42.64909" lon="1.68551">
        <ele>2271.271</ele>
        <time>2021-07-19T11:27:11Z</time>
      </trkpt>
      <trkpt lat="42.64909" lon="1.68551">
        <ele>2271.272</ele>
        <time>2021-07-19T11:27:13Z</time>
      </trkpt>
      <trkpt lat="42.64909" lon="1.68551">
        <ele>2271.27</ele>
        <time>2021-07-19T11:27:15Z</time>
      </trkpt>
      <trkpt lat="42.64909" lon="1.68551">
        <ele>2271.275</ele>
        <time>2021-07-19T11:27:17Z</time>
      </trkpt>
      <trkpt lat="42.64909" lon="1.68551">
        <ele>2271.284</ele>
        <time>2021-07-19T11:27:19Z</time>
      </trkpt>
      <trkpt lat="42.64909" lon="1.68551">
        <ele>2271.28</ele>
        <time>2021-07-19T11:27:21Z</time>
      </trkpt>
      <trkpt lat="42.64909" lon="1.68551">
        <ele>2271.277</ele>
        <time>2021-07-19T11:27:23Z</time>
      </trkpt>
      <trkpt lat="42.64909" lon="1.68551">
        <ele>2271.276</ele>
        <time>2021-07-19T11:27:25Z</time>
      </trkpt>
      <trkpt lat="42.64909" lon="1.68551">
        <ele>2271.274</ele>
        <time>2021-07-19T11:27:27Z</time>
      </trkpt>
      <trkpt lat="42.64909" lon="1.68551">
        <ele>2271.279</ele>
        <time>2021-07-19T11:27:29Z</time>
      </trkpt>
      <trkpt lat="42.64909" lon="1.68551">
        <ele>2271.282</ele>
        <time>2021-07-19T11:27:31Z</time>
      </trkpt>
      <trkpt lat="42.64909" lon="1.68551">
        <ele>2271.284</ele>
        <time>2021-07-19T11:27:33Z</time>
      </trkpt>
      <trkpt lat="42.64909" lon="1.68551">
        <ele>2271.285</ele>
        <time>2021-07-19T11:27:35Z</time>
      </trkpt>
      <trkpt lat="42.64909" lon="1.68551">
        <ele>2271.287</ele>
        <time>2021-07-19T11:27:37Z</time>
      </trkpt>
      <trkpt lat="42.64909" lon="1.68551">
        <ele>2271.286</ele>
        <time>2021-07-19T11:27:39Z</time>
      </trkpt>
      <trkpt lat="42.64909" lon="1.68551">
        <ele>2271.29</ele>
        <time>2021-07-19T11:27:41Z</time>
      </trkpt>
      <trkpt lat="42.64909" lon="1.68551">
        <ele>2271.29</ele>
        <time>2021-07-19T11:27:43Z</time>
      </trkpt>
      <trkpt lat="42.64909" lon="1.68551">
        <ele>2271.291</ele>
        <time>2021-07-19T11:27:45Z</time>
      </trkpt>
      <trkpt lat="42.64909" lon="1.68551">
        <ele>2271.296</ele>
        <time>2021-07-19T11:27:47Z</time>
      </trkpt>
      <trkpt lat="42.64909" lon="1.68551">
        <ele>2271.298</ele>
        <time>2021-07-19T11:27:49Z</time>
      </trkpt>
      <trkpt lat="42.64909" lon="1.68551">
        <ele>2271.299</ele>
        <time>2021-07-19T11:27:51Z</time>
      </trkpt>
      <trkpt lat="42.64909" lon="1.68551">
        <ele>2271.296</ele>
        <time>2021-07-19T11:27:53Z</time>
      </trkpt>
      <trkpt lat="42.64909" lon="1.68551">
        <ele>2271.295</ele>
        <time>2021-07-19T11:27:55Z</time>
      </trkpt>
      <trkpt lat="42.64909" lon="1.68551">
        <ele>2271.295</ele>
        <time>2021-07-19T11:27:57Z</time>
      </trkpt>
      <trkpt lat="42.64909" lon="1.68551">
        <ele>2271.294</ele>
        <time>2021-07-19T11:27:59Z</time>
      </trkpt>
      <trkpt lat="42.64909" lon="1.68551">
        <ele>2271.297</ele>
        <time>2021-07-19T11:28:01Z</time>
      </trkpt>
      <trkpt lat="42.64909" lon="1.68551">
        <ele>2271.297</ele>
        <time>2021-07-19T11:28:03Z</time>
      </trkpt>
      <trkpt lat="42.64909" lon="1.68551">
        <ele>2271.295</ele>
        <time>2021-07-19T11:28:05Z</time>
      </trkpt>
      <trkpt lat="42.64909" lon="1.68551">
        <ele>2271.297</ele>
        <time>2021-07-19T11:28:07Z</time>
      </trkpt>
      <trkpt lat="42.64909" lon="1.68551">
        <ele>2271.295</ele>
        <time>2021-07-19T11:28:09Z</time>
      </trkpt>
      <trkpt lat="42.64909" lon="1.68551">
        <ele>2271.292</ele>
        <time>2021-07-19T11:28:11Z</time>
      </trkpt>
      <trkpt lat="42.64909" lon="1.68551">
        <ele>2271.295</ele>
        <time>2021-07-19T11:28:13Z</time>
      </trkpt>
      <trkpt lat="42.64909" lon="1.68551">
        <ele>2271.296</ele>
        <time>2021-07-19T11:28:15Z</time>
      </trkpt>
      <trkpt lat="42.64909" lon="1.68551">
        <ele>2271.3</ele>
        <time>2021-07-19T11:28:17Z</time>
      </trkpt>
      <trkpt lat="42.64909" lon="1.68551">
        <ele>2271.303</ele>
        <time>2021-07-19T11:28:19Z</time>
      </trkpt>
      <trkpt lat="42.64909" lon="1.68551">
        <ele>2271.309</ele>
        <time>2021-07-19T11:28:21Z</time>
      </trkpt>
      <trkpt lat="42.64909" lon="1.68551">
        <ele>2271.311</ele>
        <time>2021-07-19T11:28:23Z</time>
      </trkpt>
      <trkpt lat="42.64909" lon="1.68551">
        <ele>2271.314</ele>
        <time>2021-07-19T11:28:25Z</time>
      </trkpt>
      <trkpt lat="42.64909" lon="1.68551">
        <ele>2270.691</ele>
        <time>2021-07-19T11:28:27Z</time>
      </trkpt>
      <trkpt lat="42.64909" lon="1.68551">
        <ele>2270.644</ele>
        <time>2021-07-19T11:28:29Z</time>
      </trkpt>
      <trkpt lat="42.64909" lon="1.68551">
        <ele>2270.641</ele>
        <time>2021-07-19T11:28:31Z</time>
      </trkpt>
      <trkpt lat="42.64909" lon="1.68551">
        <ele>2270.642</ele>
        <time>2021-07-19T11:28:33Z</time>
      </trkpt>
      <trkpt lat="42.64909" lon="1.68551">
        <ele>2270.643</ele>
        <time>2021-07-19T11:28:35Z</time>
      </trkpt>
      <trkpt lat="42.64909" lon="1.68551">
        <ele>2270.646</ele>
        <time>2021-07-19T11:28:37Z</time>
      </trkpt>
      <trkpt lat="42.64909" lon="1.68551">
        <ele>2270.65</ele>
        <time>2021-07-19T11:28:39Z</time>
      </trkpt>
      <trkpt lat="42.64909" lon="1.68551">
        <ele>2270.649</ele>
        <time>2021-07-19T11:28:41Z</time>
      </trkpt>
      <trkpt lat="42.64909" lon="1.68551">
        <ele>2270.652</ele>
        <time>2021-07-19T11:28:43Z</time>
      </trkpt>
      <trkpt lat="42.64909" lon="1.68551">
        <ele>2270.652</ele>
        <time>2021-07-19T11:28:45Z</time>
      </trkpt>
      <trkpt lat="42.64909" lon="1.68551">
        <ele>2270.653</ele>
        <time>2021-07-19T11:28:47Z</time>
      </trkpt>
      <trkpt lat="42.64909" lon="1.68551">
        <ele>2270.651</ele>
        <time>2021-07-19T11:28:49Z</time>
      </trkpt>
      <trkpt lat="42.64909" lon="1.68551">
        <ele>2270.652</ele>
        <time>2021-07-19T11:28:51Z</time>
      </trkpt>
      <trkpt lat="42.64909" lon="1.68551">
        <ele>2270.65</ele>
        <time>2021-07-19T11:28:53Z</time>
      </trkpt>
      <trkpt lat="42.64909" lon="1.68551">
        <ele>2270.648</ele>
        <time>2021-07-19T11:28:55Z</time>
      </trkpt>
      <trkpt lat="42.64909" lon="1.68551">
        <ele>2270.648</ele>
        <time>2021-07-19T11:28:57Z</time>
      </trkpt>
      <trkpt lat="42.64909" lon="1.68551">
        <ele>2270.649</ele>
        <time>2021-07-19T11:28:59Z</time>
      </trkpt>
      <trkpt lat="42.64909" lon="1.68551">
        <ele>2270.651</ele>
        <time>2021-07-19T11:29:01Z</time>
      </trkpt>
      <trkpt lat="42.64909" lon="1.68551">
        <ele>2270.649</ele>
        <time>2021-07-19T11:29:03Z</time>
      </trkpt>
      <trkpt lat="42.64909" lon="1.68551">
        <ele>2270.654</ele>
        <time>2021-07-19T11:29:05Z</time>
      </trkpt>
      <trkpt lat="42.64909" lon="1.68551">
        <ele>2270.659</ele>
        <time>2021-07-19T11:29:07Z</time>
      </trkpt>
      <trkpt lat="42.64909" lon="1.68551">
        <ele>2270.66</ele>
        <time>2021-07-19T11:29:09Z</time>
      </trkpt>
      <trkpt lat="42.64909" lon="1.68551">
        <ele>2270.662</ele>
        <time>2021-07-19T11:29:11Z</time>
      </trkpt>
      <trkpt lat="42.64909" lon="1.68551">
        <ele>2270.665</ele>
        <time>2021-07-19T11:29:13Z</time>
      </trkpt>
      <trkpt lat="42.64909" lon="1.68551">
        <ele>2270.665</ele>
        <time>2021-07-19T11:29:15Z</time>
      </trkpt>
      <trkpt lat="42.64909" lon="1.68551">
        <ele>2270.664</ele>
        <time>2021-07-19T11:29:17Z</time>
      </trkpt>
      <trkpt lat="42.64909" lon="1.68551">
        <ele>2270.661</ele>
        <time>2021-07-19T11:29:19Z</time>
      </trkpt>
      <trkpt lat="42.64909" lon="1.68551">
        <ele>2270.661</ele>
        <time>2021-07-19T11:29:21Z</time>
      </trkpt>
      <trkpt lat="42.64909" lon="1.68551">
        <ele>2270.66</ele>
        <time>2021-07-19T11:29:23Z</time>
      </trkpt>
      <trkpt lat="42.64909" lon="1.68551">
        <ele>2270.662</ele>
        <time>2021-07-19T11:29:25Z</time>
      </trkpt>
      <trkpt lat="42.64909" lon="1.68551">
        <ele>2270.665</ele>
        <time>2021-07-19T11:29:27Z</time>
      </trkpt>
      <trkpt lat="42.64909" lon="1.68551">
        <ele>2270.666</ele>
        <time>2021-07-19T11:29:29Z</time>
      </trkpt>
      <trkpt lat="42.64909" lon="1.68551">
        <ele>2270.666</ele>
        <time>2021-07-19T11:29:31Z</time>
      </trkpt>
      <trkpt lat="42.64909" lon="1.68551">
        <ele>2270.666</ele>
        <time>2021-07-19T11:29:33Z</time>
      </trkpt>
      <trkpt lat="42.64909" lon="1.68551">
        <ele>2270.669</ele>
        <time>2021-07-19T11:29:35Z</time>
      </trkpt>
      <trkpt lat="42.64909" lon="1.68551">
        <ele>2270.668</ele>
        <time>2021-07-19T11:29:37Z</time>
      </trkpt>
      <trkpt lat="42.64909" lon="1.68551">
        <ele>2270.669</ele>
        <time>2021-07-19T11:29:39Z</time>
      </trkpt>
      <trkpt lat="42.64909" lon="1.68551">
        <ele>2270.668</ele>
        <time>2021-07-19T11:29:41Z</time>
      </trkpt>
      <trkpt lat="42.64909" lon="1.68551">
        <ele>2270.668</ele>
        <time>2021-07-19T11:29:43Z</time>
      </trkpt>
      <trkpt lat="42.64909" lon="1.68551">
        <ele>2270.668</ele>
        <time>2021-07-19T11:29:45Z</time>
      </trkpt>
      <trkpt lat="42.64909" lon="1.68551">
        <ele>2270.668</ele>
        <time>2021-07-19T11:29:47Z</time>
      </trkpt>
      <trkpt lat="42.64909" lon="1.68551">
        <ele>2270.667</ele>
        <time>2021-07-19T11:29:49Z</time>
      </trkpt>
      <trkpt lat="42.64909" lon="1.68551">
        <ele>2270.668</ele>
        <time>2021-07-19T11:29:51Z</time>
      </trkpt>
      <trkpt lat="42.64909" lon="1.68551">
        <ele>2270.668</ele>
        <time>2021-07-19T11:29:53Z</time>
      </trkpt>
      <trkpt lat="42.64909" lon="1.68551">
        <ele>2270.943</ele>
        <time>2021-07-19T11:29:55Z</time>
      </trkpt>
      <trkpt lat="42.64909" lon="1.68551">
        <ele>2270.945</ele>
        <time>2021-07-19T11:29:57Z</time>
      </trkpt>
      <trkpt lat="42.64909" lon="1.68551">
        <ele>2270.949</ele>
        <time>2021-07-19T11:29:59Z</time>
      </trkpt>
      <trkpt lat="42.64909" lon="1.68551">
        <ele>2270.948</ele>
        <time>2021-07-19T11:30:01Z</time>
      </trkpt>
      <trkpt lat="42.64909" lon="1.68551">
        <ele>2270.949</ele>
        <time>2021-07-19T11:30:03Z</time>
      </trkpt>
      <trkpt lat="42.64909" lon="1.68551">
        <ele>2270.95</ele>
        <time>2021-07-19T11:30:05Z</time>
      </trkpt>
      <trkpt lat="42.64909" lon="1.68551">
        <ele>2270.949</ele>
        <time>2021-07-19T11:30:07Z</time>
      </trkpt>
      <trkpt lat="42.64909" lon="1.68551">
        <ele>2270.947</ele>
        <time>2021-07-19T11:30:09Z</time>
      </trkpt>
      <trkpt lat="42.64909" lon="1.68551">
        <ele>2270.946</ele>
        <time>2021-07-19T11:30:11Z</time>
      </trkpt>
      <trkpt lat="42.64909" lon="1.68551">
        <ele>2270.942</ele>
        <time>2021-07-19T11:30:13Z</time>
      </trkpt>
      <trkpt lat="42.64909" lon="1.68551">
        <ele>2270.943</ele>
        <time>2021-07-19T11:30:15Z</time>
      </trkpt>
      <trkpt lat="42.64909" lon="1.68551">
        <ele>2270.946</ele>
        <time>2021-07-19T11:30:17Z</time>
      </trkpt>
      <trkpt lat="42.64909" lon="1.68551">
        <ele>2270.947</ele>
        <time>2021-07-19T11:30:19Z</time>
      </trkpt>
      <trkpt lat="42.64909" lon="1.68551">
        <ele>2270.947</ele>
        <time>2021-07-19T11:30:21Z</time>
      </trkpt>
      <trkpt lat="42.64909" lon="1.68551">
        <ele>2270.95</ele>
        <time>2021-07-19T11:30:23Z</time>
      </trkpt>
      <trkpt lat="42.64909" lon="1.68551">
        <ele>2270.951</ele>
        <time>2021-07-19T11:30:25Z</time>
      </trkpt>
      <trkpt lat="42.64909" lon="1.68551">
        <ele>2270.95</ele>
        <time>2021-07-19T11:30:27Z</time>
      </trkpt>
      <trkpt lat="42.64909" lon="1.68551">
        <ele>2270.952</ele>
        <time>2021-07-19T11:30:29Z</time>
      </trkpt>
      <trkpt lat="42.64909" lon="1.68551">
        <ele>2270.951</ele>
        <time>2021-07-19T11:30:31Z</time>
      </trkpt>
      <trkpt lat="42.64909" lon="1.68551">
        <ele>2270.952</ele>
        <time>2021-07-19T11:30:33Z</time>
      </trkpt>
      <trkpt lat="42.64909" lon="1.68551">
        <ele>2270.951</ele>
        <time>2021-07-19T11:30:35Z</time>
      </trkpt>
      <trkpt lat="42.64909" lon="1.68551">
        <ele>2270.951</ele>
        <time>2021-07-19T11:30:37Z</time>
      </trkpt>
      <trkpt lat="42.64909" lon="1.68551">
        <ele>2270.952</ele>
        <time>2021-07-19T11:30:39Z</time>
      </trkpt>
      <trkpt lat="42.64909" lon="1.68551">
        <ele>2270.952</ele>
        <time>2021-07-19T11:30:41Z</time>
      </trkpt>
      <trkpt lat="42.64909" lon="1.68551">
        <ele>2270.954</ele>
        <time>2021-07-19T11:30:43Z</time>
      </trkpt>
      <trkpt lat="42.64909" lon="1.68551">
        <ele>2270.955</ele>
        <time>2021-07-19T11:30:45Z</time>
      </trkpt>
      <trkpt lat="42.64909" lon="1.68551">
        <ele>2270.958</ele>
        <time>2021-07-19T11:30:47Z</time>
      </trkpt>
      <trkpt lat="42.64909" lon="1.68551">
        <ele>2270.958</ele>
        <time>2021-07-19T11:30:49Z</time>
      </trkpt>
      <trkpt lat="42.64909" lon="1.68551">
        <ele>2270.958</ele>
        <time>2021-07-19T11:30:51Z</time>
      </trkpt>
      <trkpt lat="42.64909" lon="1.68551">
        <ele>2270.957</ele>
        <time>2021-07-19T11:30:53Z</time>
      </trkpt>
      <trkpt lat="42.64909" lon="1.68551">
        <ele>2270.958</ele>
        <time>2021-07-19T11:30:55Z</time>
      </trkpt>
      <trkpt lat="42.64909" lon="1.68551">
        <ele>2270.957</ele>
        <time>2021-07-19T11:30:57Z</time>
      </trkpt>
      <trkpt lat="42.64909" lon="1.68551">
        <ele>2270.957</ele>
        <time>2021-07-19T11:30:59Z</time>
      </trkpt>
      <trkpt lat="42.64909" lon="1.68551">
        <ele>2270.959</ele>
        <time>2021-07-19T11:31:01Z</time>
      </trkpt>
      <trkpt lat="42.64909" lon="1.68551">
        <ele>2270.96</ele>
        <time>2021-07-19T11:31:03Z</time>
      </trkpt>
      <trkpt lat="42.64909" lon="1.68551">
        <ele>2270.968</ele>
        <time>2021-07-19T11:31:05Z</time>
      </trkpt>
      <trkpt lat="42.64909" lon="1.68551">
        <ele>2270.963</ele>
        <time>2021-07-19T11:31:07Z</time>
      </trkpt>
      <trkpt lat="42.64909" lon="1.68551">
        <ele>2270.963</ele>
        <time>2021-07-19T11:31:09Z</time>
      </trkpt>
      <trkpt lat="42.64909" lon="1.68551">
        <ele>2270.961</ele>
        <time>2021-07-19T11:31:11Z</time>
      </trkpt>
      <trkpt lat="42.64909" lon="1.68551">
        <ele>2270.962</ele>
        <time>2021-07-19T11:31:13Z</time>
      </trkpt>
      <trkpt lat="42.64909" lon="1.68551">
        <ele>2270.963</ele>
        <time>2021-07-19T11:31:15Z</time>
      </trkpt>
      <trkpt lat="42.64909" lon="1.68551">
        <ele>2270.963</ele>
        <time>2021-07-19T11:31:17Z</time>
      </trkpt>
      <trkpt lat="42.64909" lon="1.68551">
        <ele>2270.961</ele>
        <time>2021-07-19T11:31:19Z</time>
      </trkpt>
      <trkpt lat="42.64909" lon="1.68551">
        <ele>2270.96</ele>
        <time>2021-07-19T11:31:21Z</time>
      </trkpt>
      <trkpt lat="42.64909" lon="1.68551">
        <ele>2270.96</ele>
        <time>2021-07-19T11:31:23Z</time>
      </trkpt>
      <trkpt lat="42.64909" lon="1.68551">
        <ele>2270.959</ele>
        <time>2021-07-19T11:31:25Z</time>
      </trkpt>
      <trkpt lat="42.64909" lon="1.68551">
        <ele>2270.961</ele>
        <time>2021-07-19T11:31:27Z</time>
      </trkpt>
      <trkpt lat="42.64909" lon="1.68551">
        <ele>2270.96</ele>
        <time>2021-07-19T11:31:29Z</time>
      </trkpt>
      <trkpt lat="42.64909" lon="1.68551">
        <ele>2270.962</ele>
        <time>2021-07-19T11:31:31Z</time>
      </trkpt>
      <trkpt lat="42.64909" lon="1.68551">
        <ele>2270.961</ele>
        <time>2021-07-19T11:31:33Z</time>
      </trkpt>
      <trkpt lat="42.64909" lon="1.6855">
        <ele>2270.819</ele>
        <time>2021-07-19T11:31:35Z</time>
      </trkpt>
      <trkpt lat="42.64909" lon="1.6855">
        <ele>2270.819</ele>
        <time>2021-07-19T11:31:37Z</time>
      </trkpt>
      <trkpt lat="42.64909" lon="1.6855">
        <ele>2270.821</ele>
        <time>2021-07-19T11:31:39Z</time>
      </trkpt>
      <trkpt lat="42.64909" lon="1.6855">
        <ele>2270.821</ele>
        <time>2021-07-19T11:31:41Z</time>
      </trkpt>
      <trkpt lat="42.64909" lon="1.6855">
        <ele>2270.821</ele>
        <time>2021-07-19T11:31:43Z</time>
      </trkpt>
      <trkpt lat="42.64909" lon="1.6855">
        <ele>2270.821</ele>
        <time>2021-07-19T11:31:45Z</time>
      </trkpt>
      <trkpt lat="42.64909" lon="1.6855">
        <ele>2270.82</ele>
        <time>2021-07-19T11:31:47Z</time>
      </trkpt>
      <trkpt lat="42.64909" lon="1.6855">
        <ele>2270.822</ele>
        <time>2021-07-19T11:31:49Z</time>
      </trkpt>
      <trkpt lat="42.64909" lon="1.6855">
        <ele>2270.822</ele>
        <time>2021-07-19T11:31:51Z</time>
      </trkpt>
      <trkpt lat="42.64909" lon="1.6855">
        <ele>2270.822</ele>
        <time>2021-07-19T11:31:53Z</time>
      </trkpt>
      <trkpt lat="42.64909" lon="1.6855">
        <ele>2270.822</ele>
        <time>2021-07-19T11:31:55Z</time>
      </trkpt>
      <trkpt lat="42.64909" lon="1.6855">
        <ele>2270.822</ele>
        <time>2021-07-19T11:31:57Z</time>
      </trkpt>
      <trkpt lat="42.64909" lon="1.6855">
        <ele>2270.819</ele>
        <time>2021-07-19T11:31:59Z</time>
      </trkpt>
      <trkpt lat="42.64909" lon="1.6855">
        <ele>2270.814</ele>
        <time>2021-07-19T11:32:01Z</time>
      </trkpt>
      <trkpt lat="42.64909" lon="1.6855">
        <ele>2270.822</ele>
        <time>2021-07-19T11:32:03Z</time>
      </trkpt>
      <trkpt lat="42.64909" lon="1.6855">
        <ele>2270.817</ele>
        <time>2021-07-19T11:32:05Z</time>
      </trkpt>
      <trkpt lat="42.64909" lon="1.6855">
        <ele>2270.822</ele>
        <time>2021-07-19T11:32:07Z</time>
      </trkpt>
      <trkpt lat="42.64909" lon="1.6855">
        <ele>2270.82</ele>
        <time>2021-07-19T11:32:09Z</time>
      </trkpt>
      <trkpt lat="42.64909" lon="1.6855">
        <ele>2270.824</ele>
        <time>2021-07-19T11:32:11Z</time>
      </trkpt>
      <trkpt lat="42.64909" lon="1.6855">
        <ele>2270.823</ele>
        <time>2021-07-19T11:32:13Z</time>
      </trkpt>
      <trkpt lat="42.64909" lon="1.6855">
        <ele>2270.825</ele>
        <time>2021-07-19T11:32:15Z</time>
      </trkpt>
      <trkpt lat="42.64909" lon="1.6855">
        <ele>2270.82</ele>
        <time>2021-07-19T11:32:17Z</time>
      </trkpt>
      <trkpt lat="42.64909" lon="1.6855">
        <ele>2270.816</ele>
        <time>2021-07-19T11:32:19Z</time>
      </trkpt>
      <trkpt lat="42.64909" lon="1.6855">
        <ele>2270.816</ele>
        <time>2021-07-19T11:32:21Z</time>
      </trkpt>
      <trkpt lat="42.64909" lon="1.6855">
        <ele>2270.817</ele>
        <time>2021-07-19T11:32:23Z</time>
      </trkpt>
      <trkpt lat="42.64909" lon="1.6855">
        <ele>2270.814</ele>
        <time>2021-07-19T11:32:25Z</time>
      </trkpt>
      <trkpt lat="42.64909" lon="1.6855">
        <ele>2270.817</ele>
        <time>2021-07-19T11:32:27Z</time>
      </trkpt>
      <trkpt lat="42.64909" lon="1.6855">
        <ele>2270.82</ele>
        <time>2021-07-19T11:32:29Z</time>
      </trkpt>
      <trkpt lat="42.64909" lon="1.6855">
        <ele>2270.824</ele>
        <time>2021-07-19T11:32:31Z</time>
      </trkpt>
      <trkpt lat="42.64909" lon="1.6855">
        <ele>2270.824</ele>
        <time>2021-07-19T11:32:33Z</time>
      </trkpt>
      <trkpt lat="42.64909" lon="1.6855">
        <ele>2270.83</ele>
        <time>2021-07-19T11:32:35Z</time>
      </trkpt>
      <trkpt lat="42.64909" lon="1.6855">
        <ele>2270.835</ele>
        <time>2021-07-19T11:32:37Z</time>
      </trkpt>
      <trkpt lat="42.64909" lon="1.6855">
        <ele>2270.84</ele>
        <time>2021-07-19T11:32:39Z</time>
      </trkpt>
      <trkpt lat="42.64909" lon="1.6855">
        <ele>2270.843</ele>
        <time>2021-07-19T11:32:41Z</time>
      </trkpt>
      <trkpt lat="42.64909" lon="1.6855">
        <ele>2270.845</ele>
        <time>2021-07-19T11:32:43Z</time>
      </trkpt>
      <trkpt lat="42.64909" lon="1.6855">
        <ele>2270.846</ele>
        <time>2021-07-19T11:32:45Z</time>
      </trkpt>
      <trkpt lat="42.64909" lon="1.6855">
        <ele>2270.851</ele>
        <time>2021-07-19T11:32:47Z</time>
      </trkpt>
      <trkpt lat="42.64909" lon="1.6855">
        <ele>2270.852</ele>
        <time>2021-07-19T11:32:49Z</time>
      </trkpt>
      <trkpt lat="42.64909" lon="1.6855">
        <ele>2270.853</ele>
        <time>2021-07-19T11:32:51Z</time>
      </trkpt>
      <trkpt lat="42.64909" lon="1.68551">
        <ele>2270.849</ele>
        <time>2021-07-19T11:32:53Z</time>
      </trkpt>
      <trkpt lat="42.64909" lon="1.68551">
        <ele>2270.851</ele>
        <time>2021-07-19T11:32:55Z</time>
      </trkpt>
      <trkpt lat="42.64909" lon="1.6855">
        <ele>2270.856</ele>
        <time>2021-07-19T11:32:57Z</time>
      </trkpt>
      <trkpt lat="42.64909" lon="1.6855">
        <ele>2270.849</ele>
        <time>2021-07-19T11:32:59Z</time>
      </trkpt>
      <trkpt lat="42.64909" lon="1.6855">
        <ele>2270.844</ele>
        <time>2021-07-19T11:33:01Z</time>
      </trkpt>
      <trkpt lat="42.64909" lon="1.6855">
        <ele>2270.846</ele>
        <time>2021-07-19T11:33:03Z</time>
      </trkpt>
      <trkpt lat="42.64909" lon="1.6855">
        <ele>2270.843</ele>
        <time>2021-07-19T11:33:05Z</time>
      </trkpt>
      <trkpt lat="42.64909" lon="1.6855">
        <ele>2270.844</ele>
        <time>2021-07-19T11:33:07Z</time>
      </trkpt>
      <trkpt lat="42.64909" lon="1.6855">
        <ele>2270.84</ele>
        <time>2021-07-19T11:33:09Z</time>
      </trkpt>
      <trkpt lat="42.64909" lon="1.6855">
        <ele>2270.842</ele>
        <time>2021-07-19T11:33:11Z</time>
      </trkpt>
      <trkpt lat="42.64909" lon="1.6855">
        <ele>2270.839</ele>
        <time>2021-07-19T11:33:13Z</time>
      </trkpt>
      <trkpt lat="42.64909" lon="1.6855">
        <ele>2270.841</ele>
        <time>2021-07-19T11:33:15Z</time>
      </trkpt>
      <trkpt lat="42.64909" lon="1.68551">
        <ele>2270.84</ele>
        <time>2021-07-19T11:33:17Z</time>
      </trkpt>
      <trkpt lat="42.64909" lon="1.68551">
        <ele>2270.835</ele>
        <time>2021-07-19T11:33:19Z</time>
      </trkpt>
      <trkpt lat="42.64909" lon="1.68551">
        <ele>2270.841</ele>
        <time>2021-07-19T11:33:21Z</time>
      </trkpt>
      <trkpt lat="42.64909" lon="1.68551">
        <ele>2270.84</ele>
        <time>2021-07-19T11:33:23Z</time>
      </trkpt>
      <trkpt lat="42.64909" lon="1.68551">
        <ele>2270.834</ele>
        <time>2021-07-19T11:33:25Z</time>
      </trkpt>
      <trkpt lat="42.64909" lon="1.68551">
        <ele>2270.834</ele>
        <time>2021-07-19T11:33:27Z</time>
      </trkpt>
      <trkpt lat="42.64909" lon="1.68551">
        <ele>2270.841</ele>
        <time>2021-07-19T11:33:29Z</time>
      </trkpt>
      <trkpt lat="42.64909" lon="1.68551">
        <ele>2270.839</ele>
        <time>2021-07-19T11:33:31Z</time>
      </trkpt>
      <trkpt lat="42.64909" lon="1.68551">
        <ele>2270.842</ele>
        <time>2021-07-19T11:33:33Z</time>
      </trkpt>
      <trkpt lat="42.64909" lon="1.68551">
        <ele>2270.846</ele>
        <time>2021-07-19T11:33:35Z</time>
      </trkpt>
      <trkpt lat="42.64909" lon="1.68551">
        <ele>2270.846</ele>
        <time>2021-07-19T11:33:37Z</time>
      </trkpt>
      <trkpt lat="42.6491" lon="1.68551">
        <ele>2270.743</ele>
        <time>2021-07-19T11:33:39Z</time>
      </trkpt>
      <trkpt lat="42.6491" lon="1.68551">
        <ele>2270.739</ele>
        <time>2021-07-19T11:33:41Z</time>
      </trkpt>
      <trkpt lat="42.6491" lon="1.68551">
        <ele>2270.741</ele>
        <time>2021-07-19T11:33:43Z</time>
      </trkpt>
      <trkpt lat="42.6491" lon="1.68551">
        <ele>2270.996</ele>
        <time>2021-07-19T11:33:45Z</time>
      </trkpt>
      <trkpt lat="42.6491" lon="1.68551">
        <ele>2271.044</ele>
        <time>2021-07-19T11:33:47Z</time>
      </trkpt>
      <trkpt lat="42.6491" lon="1.68551">
        <ele>2271.038</ele>
        <time>2021-07-19T11:33:49Z</time>
      </trkpt>
      <trkpt lat="42.6491" lon="1.68551">
        <ele>2271.314</ele>
        <time>2021-07-19T11:33:51Z</time>
      </trkpt>
      <trkpt lat="42.6491" lon="1.68551">
        <ele>2271.439</ele>
        <time>2021-07-19T11:33:53Z</time>
      </trkpt>
      <trkpt lat="42.6491" lon="1.68551">
        <ele>2271.451</ele>
        <time>2021-07-19T11:33:55Z</time>
      </trkpt>
      <trkpt lat="42.6491" lon="1.68551">
        <ele>2271.436</ele>
        <time>2021-07-19T11:33:57Z</time>
      </trkpt>
      <trkpt lat="42.6491" lon="1.68551">
        <ele>2271.462</ele>
        <time>2021-07-19T11:33:59Z</time>
      </trkpt>
      <trkpt lat="42.6491" lon="1.68551">
        <ele>2271.457</ele>
        <time>2021-07-19T11:34:01Z</time>
      </trkpt>
      <trkpt lat="42.6491" lon="1.68551">
        <ele>2271.462</ele>
        <time>2021-07-19T11:34:03Z</time>
      </trkpt>
      <trkpt lat="42.6491" lon="1.68551">
        <ele>2271.465</ele>
        <time>2021-07-19T11:34:05Z</time>
      </trkpt>
      <trkpt lat="42.6491" lon="1.68551">
        <ele>2271.463</ele>
        <time>2021-07-19T11:34:07Z</time>
      </trkpt>
      <trkpt lat="42.6491" lon="1.68551">
        <ele>2271.469</ele>
        <time>2021-07-19T11:34:09Z</time>
      </trkpt>
      <trkpt lat="42.6491" lon="1.68551">
        <ele>2271.473</ele>
        <time>2021-07-19T11:34:11Z</time>
      </trkpt>
      <trkpt lat="42.6491" lon="1.68551">
        <ele>2271.475</ele>
        <time>2021-07-19T11:34:13Z</time>
      </trkpt>
      <trkpt lat="42.6491" lon="1.68551">
        <ele>2271.475</ele>
        <time>2021-07-19T11:34:15Z</time>
      </trkpt>
      <trkpt lat="42.6491" lon="1.68551">
        <ele>2271.477</ele>
        <time>2021-07-19T11:34:17Z</time>
      </trkpt>
      <trkpt lat="42.6491" lon="1.68551">
        <ele>2271.479</ele>
        <time>2021-07-19T11:34:19Z</time>
      </trkpt>
      <trkpt lat="42.6491" lon="1.68551">
        <ele>2271.482</ele>
        <time>2021-07-19T11:34:21Z</time>
      </trkpt>
      <trkpt lat="42.6491" lon="1.68551">
        <ele>2271.486</ele>
        <time>2021-07-19T11:34:23Z</time>
      </trkpt>
      <trkpt lat="42.6491" lon="1.68551">
        <ele>2271.492</ele>
        <time>2021-07-19T11:34:25Z</time>
      </trkpt>
      <trkpt lat="42.6491" lon="1.68551">
        <ele>2271.497</ele>
        <time>2021-07-19T11:34:27Z</time>
      </trkpt>
      <trkpt lat="42.6491" lon="1.68551">
        <ele>2271.501</ele>
        <time>2021-07-19T11:34:29Z</time>
      </trkpt>
      <trkpt lat="42.6491" lon="1.68551">
        <ele>2271.505</ele>
        <time>2021-07-19T11:34:31Z</time>
      </trkpt>
      <trkpt lat="42.6491" lon="1.68551">
        <ele>2271.51</ele>
        <time>2021-07-19T11:34:33Z</time>
      </trkpt>
      <trkpt lat="42.6491" lon="1.68551">
        <ele>2271.509</ele>
        <time>2021-07-19T11:34:35Z</time>
      </trkpt>
      <trkpt lat="42.6491" lon="1.68551">
        <ele>2271.51</ele>
        <time>2021-07-19T11:34:37Z</time>
      </trkpt>
      <trkpt lat="42.6491" lon="1.68551">
        <ele>2271.508</ele>
        <time>2021-07-19T11:34:39Z</time>
      </trkpt>
      <trkpt lat="42.6491" lon="1.68551">
        <ele>2271.51</ele>
        <time>2021-07-19T11:34:41Z</time>
      </trkpt>
      <trkpt lat="42.6491" lon="1.68551">
        <ele>2271.507</ele>
        <time>2021-07-19T11:34:43Z</time>
      </trkpt>
      <trkpt lat="42.6491" lon="1.68551">
        <ele>2271.506</ele>
        <time>2021-07-19T11:34:45Z</time>
      </trkpt>
      <trkpt lat="42.6491" lon="1.68551">
        <ele>2271.51</ele>
        <time>2021-07-19T11:34:47Z</time>
      </trkpt>
      <trkpt lat="42.6491" lon="1.68551">
        <ele>2271.508</ele>
        <time>2021-07-19T11:34:49Z</time>
      </trkpt>
      <trkpt lat="42.6491" lon="1.68551">
        <ele>2271.513</ele>
        <time>2021-07-19T11:34:51Z</time>
      </trkpt>
      <trkpt lat="42.6491" lon="1.68551">
        <ele>2271.511</ele>
        <time>2021-07-19T11:34:53Z</time>
      </trkpt>
      <trkpt lat="42.6491" lon="1.68551">
        <ele>2271.512</ele>
        <time>2021-07-19T11:34:55Z</time>
      </trkpt>
      <trkpt lat="42.6491" lon="1.68551">
        <ele>2271.503</ele>
        <time>2021-07-19T11:34:57Z</time>
      </trkpt>
      <trkpt lat="42.6491" lon="1.68551">
        <ele>2271.504</ele>
        <time>2021-07-19T11:34:59Z</time>
      </trkpt>
      <trkpt lat="42.6491" lon="1.68551">
        <ele>2271.51</ele>
        <time>2021-07-19T11:35:01Z</time>
      </trkpt>
      <trkpt lat="42.6491" lon="1.68551">
        <ele>2271.522</ele>
        <time>2021-07-19T11:35:03Z</time>
      </trkpt>
      <trkpt lat="42.6491" lon="1.68551">
        <ele>2271.525</ele>
        <time>2021-07-19T11:35:05Z</time>
      </trkpt>
      <trkpt lat="42.6491" lon="1.68551">
        <ele>2271.52</ele>
        <time>2021-07-19T11:35:07Z</time>
      </trkpt>
      <trkpt lat="42.6491" lon="1.68551">
        <ele>2271.518</ele>
        <time>2021-07-19T11:35:09Z</time>
      </trkpt>
      <trkpt lat="42.6491" lon="1.68551">
        <ele>2271.522</ele>
        <time>2021-07-19T11:35:11Z</time>
      </trkpt>
      <trkpt lat="42.6491" lon="1.68551">
        <ele>2271.529</ele>
        <time>2021-07-19T11:35:13Z</time>
      </trkpt>
      <trkpt lat="42.6491" lon="1.68551">
        <ele>2271.531</ele>
        <time>2021-07-19T11:35:15Z</time>
      </trkpt>
      <trkpt lat="42.6491" lon="1.68551">
        <ele>2271.545</ele>
        <time>2021-07-19T11:35:17Z</time>
      </trkpt>
      <trkpt lat="42.6491" lon="1.68551">
        <ele>2271.551</ele>
        <time>2021-07-19T11:35:19Z</time>
      </trkpt>
      <trkpt lat="42.6491" lon="1.68551">
        <ele>2271.551</ele>
        <time>2021-07-19T11:35:21Z</time>
      </trkpt>
      <trkpt lat="42.6491" lon="1.68551">
        <ele>2271.553</ele>
        <time>2021-07-19T11:35:23Z</time>
      </trkpt>
      <trkpt lat="42.6491" lon="1.68551">
        <ele>2271.551</ele>
        <time>2021-07-19T11:35:25Z</time>
      </trkpt>
      <trkpt lat="42.6491" lon="1.68551">
        <ele>2271.545</ele>
        <time>2021-07-19T11:35:27Z</time>
      </trkpt>
      <trkpt lat="42.6491" lon="1.68551">
        <ele>2271.543</ele>
        <time>2021-07-19T11:35:29Z</time>
      </trkpt>
      <trkpt lat="42.6491" lon="1.68551">
        <ele>2271.535</ele>
        <time>2021-07-19T11:35:31Z</time>
      </trkpt>
      <trkpt lat="42.6491" lon="1.68551">
        <ele>2271.528</ele>
        <time>2021-07-19T11:35:33Z</time>
      </trkpt>
      <trkpt lat="42.6491" lon="1.68551">
        <ele>2271.523</ele>
        <time>2021-07-19T11:35:35Z</time>
      </trkpt>
      <trkpt lat="42.6491" lon="1.68551">
        <ele>2271.518</ele>
        <time>2021-07-19T11:35:37Z</time>
      </trkpt>
      <trkpt lat="42.6491" lon="1.68551">
        <ele>2271.52</ele>
        <time>2021-07-19T11:35:39Z</time>
      </trkpt>
      <trkpt lat="42.6491" lon="1.68551">
        <ele>2271.523</ele>
        <time>2021-07-19T11:35:40Z</time>
      </trkpt>
      <trkpt lat="42.6491" lon="1.68551">
        <ele>2271.525</ele>
        <time>2021-07-19T11:35:43Z</time>
      </trkpt>
      <trkpt lat="42.6491" lon="1.68551">
        <ele>2271.533</ele>
        <time>2021-07-19T11:35:45Z</time>
      </trkpt>
      <trkpt lat="42.6491" lon="1.68551">
        <ele>2271.535</ele>
        <time>2021-07-19T11:35:47Z</time>
      </trkpt>
      <trkpt lat="42.6491" lon="1.68551">
        <ele>2271.539</ele>
        <time>2021-07-19T11:35:49Z</time>
      </trkpt>
      <trkpt lat="42.6491" lon="1.68551">
        <ele>2271.531</ele>
        <time>2021-07-19T11:35:51Z</time>
      </trkpt>
      <trkpt lat="42.6491" lon="1.68551">
        <ele>2271.527</ele>
        <time>2021-07-19T11:35:53Z</time>
      </trkpt>
      <trkpt lat="42.6491" lon="1.68551">
        <ele>2271.538</ele>
        <time>2021-07-19T11:35:55Z</time>
      </trkpt>
      <trkpt lat="42.6491" lon="1.68551">
        <ele>2271.537</ele>
        <time>2021-07-19T11:35:57Z</time>
      </trkpt>
      <trkpt lat="42.6491" lon="1.68551">
        <ele>2271.537</ele>
        <time>2021-07-19T11:35:59Z</time>
      </trkpt>
      <trkpt lat="42.6491" lon="1.68551">
        <ele>2271.539</ele>
        <time>2021-07-19T11:36:01Z</time>
      </trkpt>
      <trkpt lat="42.6491" lon="1.68551">
        <ele>2271.543</ele>
        <time>2021-07-19T11:36:03Z</time>
      </trkpt>
      <trkpt lat="42.6491" lon="1.68551">
        <ele>2271.543</ele>
        <time>2021-07-19T11:36:05Z</time>
      </trkpt>
      <trkpt lat="42.6491" lon="1.68551">
        <ele>2271.539</ele>
        <time>2021-07-19T11:36:07Z</time>
      </trkpt>
      <trkpt lat="42.6491" lon="1.68551">
        <ele>2271.534</ele>
        <time>2021-07-19T11:36:09Z</time>
      </trkpt>
      <trkpt lat="42.6491" lon="1.68551">
        <ele>2271.528</ele>
        <time>2021-07-19T11:36:11Z</time>
      </trkpt>
      <trkpt lat="42.6491" lon="1.68551">
        <ele>2271.526</ele>
        <time>2021-07-19T11:36:13Z</time>
      </trkpt>
      <trkpt lat="42.6491" lon="1.68551">
        <ele>2271.526</ele>
        <time>2021-07-19T11:36:15Z</time>
      </trkpt>
      <trkpt lat="42.6491" lon="1.68551">
        <ele>2271.521</ele>
        <time>2021-07-19T11:36:17Z</time>
      </trkpt>
      <trkpt lat="42.6491" lon="1.68551">
        <ele>2271.517</ele>
        <time>2021-07-19T11:36:19Z</time>
      </trkpt>
      <trkpt lat="42.6491" lon="1.68551">
        <ele>2271.519</ele>
        <time>2021-07-19T11:36:21Z</time>
      </trkpt>
      <trkpt lat="42.6491" lon="1.68551">
        <ele>2271.525</ele>
        <time>2021-07-19T11:36:23Z</time>
      </trkpt>
      <trkpt lat="42.6491" lon="1.68551">
        <ele>2271.537</ele>
        <time>2021-07-19T11:36:25Z</time>
      </trkpt>
      <trkpt lat="42.6491" lon="1.68551">
        <ele>2271.533</ele>
        <time>2021-07-19T11:36:27Z</time>
      </trkpt>
      <trkpt lat="42.6491" lon="1.68551">
        <ele>2271.531</ele>
        <time>2021-07-19T11:36:29Z</time>
      </trkpt>
      <trkpt lat="42.6491" lon="1.68551">
        <ele>2271.526</ele>
        <time>2021-07-19T11:36:31Z</time>
      </trkpt>
      <trkpt lat="42.6491" lon="1.68551">
        <ele>2271.514</ele>
        <time>2021-07-19T11:36:33Z</time>
      </trkpt>
      <trkpt lat="42.6491" lon="1.68551">
        <ele>2271.504</ele>
        <time>2021-07-19T11:36:35Z</time>
      </trkpt>
      <trkpt lat="42.6491" lon="1.68551">
        <ele>2271.499</ele>
        <time>2021-07-19T11:36:37Z</time>
      </trkpt>
      <trkpt lat="42.6491" lon="1.68551">
        <ele>2271.5</ele>
        <time>2021-07-19T11:36:39Z</time>
      </trkpt>
      <trkpt lat="42.6491" lon="1.68551">
        <ele>2271.502</ele>
        <time>2021-07-19T11:36:41Z</time>
      </trkpt>
      <trkpt lat="42.6491" lon="1.68551">
        <ele>2271.502</ele>
        <time>2021-07-19T11:36:43Z</time>
      </trkpt>
      <trkpt lat="42.6491" lon="1.68551">
        <ele>2271.504</ele>
        <time>2021-07-19T11:36:45Z</time>
      </trkpt>
      <trkpt lat="42.6491" lon="1.68551">
        <ele>2271.51</ele>
        <time>2021-07-19T11:36:47Z</time>
      </trkpt>
      <trkpt lat="42.6491" lon="1.68551">
        <ele>2271.521</ele>
        <time>2021-07-19T11:36:49Z</time>
      </trkpt>
      <trkpt lat="42.6491" lon="1.68551">
        <ele>2271.521</ele>
        <time>2021-07-19T11:36:51Z</time>
      </trkpt>
      <trkpt lat="42.6491" lon="1.68551">
        <ele>2271.524</ele>
        <time>2021-07-19T11:36:53Z</time>
      </trkpt>
      <trkpt lat="42.6491" lon="1.68551">
        <ele>2271.525</ele>
        <time>2021-07-19T11:36:55Z</time>
      </trkpt>
      <trkpt lat="42.6491" lon="1.68551">
        <ele>2271.529</ele>
        <time>2021-07-19T11:36:57Z</time>
      </trkpt>
      <trkpt lat="42.6491" lon="1.68551">
        <ele>2271.527</ele>
        <time>2021-07-19T11:36:59Z</time>
      </trkpt>
      <trkpt lat="42.6491" lon="1.68551">
        <ele>2271.526</ele>
        <time>2021-07-19T11:37:01Z</time>
      </trkpt>
      <trkpt lat="42.6491" lon="1.68551">
        <ele>2271.527</ele>
        <time>2021-07-19T11:37:03Z</time>
      </trkpt>
      <trkpt lat="42.6491" lon="1.68551">
        <ele>2271.522</ele>
        <time>2021-07-19T11:37:05Z</time>
      </trkpt>
      <trkpt lat="42.6491" lon="1.68551">
        <ele>2271.514</ele>
        <time>2021-07-19T11:37:07Z</time>
      </trkpt>
      <trkpt lat="42.6491" lon="1.68551">
        <ele>2271.51</ele>
        <time>2021-07-19T11:37:09Z</time>
      </trkpt>
      <trkpt lat="42.6491" lon="1.68551">
        <ele>2271.505</ele>
        <time>2021-07-19T11:37:11Z</time>
      </trkpt>
      <trkpt lat="42.6491" lon="1.68551">
        <ele>2271.5</ele>
        <time>2021-07-19T11:37:13Z</time>
      </trkpt>
      <trkpt lat="42.6491" lon="1.68551">
        <ele>2271.506</ele>
        <time>2021-07-19T11:37:15Z</time>
      </trkpt>
      <trkpt lat="42.6491" lon="1.68551">
        <ele>2271.513</ele>
        <time>2021-07-19T11:37:17Z</time>
      </trkpt>
      <trkpt lat="42.6491" lon="1.68551">
        <ele>2271.518</ele>
        <time>2021-07-19T11:37:19Z</time>
      </trkpt>
      <trkpt lat="42.6491" lon="1.68551">
        <ele>2271.53</ele>
        <time>2021-07-19T11:37:21Z</time>
      </trkpt>
      <trkpt lat="42.6491" lon="1.68551">
        <ele>2271.535</ele>
        <time>2021-07-19T11:37:23Z</time>
      </trkpt>
      <trkpt lat="42.6491" lon="1.68551">
        <ele>2271.539</ele>
        <time>2021-07-19T11:37:25Z</time>
      </trkpt>
      <trkpt lat="42.6491" lon="1.68551">
        <ele>2271.535</ele>
        <time>2021-07-19T11:37:27Z</time>
      </trkpt>
      <trkpt lat="42.6491" lon="1.68551">
        <ele>2271.535</ele>
        <time>2021-07-19T11:37:29Z</time>
      </trkpt>
      <trkpt lat="42.6491" lon="1.68551">
        <ele>2271.536</ele>
        <time>2021-07-19T11:37:31Z</time>
      </trkpt>
      <trkpt lat="42.6491" lon="1.68551">
        <ele>2271.541</ele>
        <time>2021-07-19T11:37:33Z</time>
      </trkpt>
      <trkpt lat="42.6491" lon="1.68551">
        <ele>2271.549</ele>
        <time>2021-07-19T11:37:35Z</time>
      </trkpt>
      <trkpt lat="42.6491" lon="1.68551">
        <ele>2271.549</ele>
        <time>2021-07-19T11:37:37Z</time>
      </trkpt>
      <trkpt lat="42.6491" lon="1.68551">
        <ele>2271.551</ele>
        <time>2021-07-19T11:37:39Z</time>
      </trkpt>
      <trkpt lat="42.6491" lon="1.68551">
        <ele>2271.556</ele>
        <time>2021-07-19T11:37:41Z</time>
      </trkpt>
      <trkpt lat="42.6491" lon="1.68551">
        <ele>2271.555</ele>
        <time>2021-07-19T11:37:43Z</time>
      </trkpt>
      <trkpt lat="42.6491" lon="1.68551">
        <ele>2271.557</ele>
        <time>2021-07-19T11:37:45Z</time>
      </trkpt>
      <trkpt lat="42.6491" lon="1.68551">
        <ele>2271.556</ele>
        <time>2021-07-19T11:37:47Z</time>
      </trkpt>
      <trkpt lat="42.6491" lon="1.68551">
        <ele>2271.553</ele>
        <time>2021-07-19T11:37:49Z</time>
      </trkpt>
      <trkpt lat="42.6491" lon="1.68551">
        <ele>2271.55</ele>
        <time>2021-07-19T11:37:51Z</time>
      </trkpt>
      <trkpt lat="42.6491" lon="1.68551">
        <ele>2271.555</ele>
        <time>2021-07-19T11:37:53Z</time>
      </trkpt>
      <trkpt lat="42.6491" lon="1.68551">
        <ele>2271.554</ele>
        <time>2021-07-19T11:37:55Z</time>
      </trkpt>
      <trkpt lat="42.6491" lon="1.68551">
        <ele>2271.552</ele>
        <time>2021-07-19T11:37:57Z</time>
      </trkpt>
      <trkpt lat="42.6491" lon="1.68551">
        <ele>2271.557</ele>
        <time>2021-07-19T11:37:59Z</time>
      </trkpt>
      <trkpt lat="42.6491" lon="1.68551">
        <ele>2271.556</ele>
        <time>2021-07-19T11:38:01Z</time>
      </trkpt>
      <trkpt lat="42.6491" lon="1.68551">
        <ele>2271.564</ele>
        <time>2021-07-19T11:38:03Z</time>
      </trkpt>
      <trkpt lat="42.6491" lon="1.68551">
        <ele>2271.572</ele>
        <time>2021-07-19T11:38:05Z</time>
      </trkpt>
      <trkpt lat="42.6491" lon="1.68551">
        <ele>2271.58</ele>
        <time>2021-07-19T11:38:07Z</time>
      </trkpt>
      <trkpt lat="42.6491" lon="1.68551">
        <ele>2271.583</ele>
        <time>2021-07-19T11:38:09Z</time>
      </trkpt>
      <trkpt lat="42.6491" lon="1.68551">
        <ele>2271.584</ele>
        <time>2021-07-19T11:38:11Z</time>
      </trkpt>
      <trkpt lat="42.6491" lon="1.68551">
        <ele>2271.586</ele>
        <time>2021-07-19T11:38:13Z</time>
      </trkpt>
      <trkpt lat="42.6491" lon="1.68551">
        <ele>2271.592</ele>
        <time>2021-07-19T11:38:15Z</time>
      </trkpt>
      <trkpt lat="42.6491" lon="1.68551">
        <ele>2271.596</ele>
        <time>2021-07-19T11:38:17Z</time>
      </trkpt>
      <trkpt lat="42.6491" lon="1.68551">
        <ele>2271.589</ele>
        <time>2021-07-19T11:38:19Z</time>
      </trkpt>
      <trkpt lat="42.6491" lon="1.68551">
        <ele>2271.593</ele>
        <time>2021-07-19T11:38:21Z</time>
      </trkpt>
      <trkpt lat="42.6491" lon="1.68551">
        <ele>2271.59</ele>
        <time>2021-07-19T11:38:23Z</time>
      </trkpt>
      <trkpt lat="42.6491" lon="1.68551">
        <ele>2271.583</ele>
        <time>2021-07-19T11:38:25Z</time>
      </trkpt>
      <trkpt lat="42.6491" lon="1.68551">
        <ele>2271.586</ele>
        <time>2021-07-19T11:38:27Z</time>
      </trkpt>
      <trkpt lat="42.6491" lon="1.68551">
        <ele>2271.588</ele>
        <time>2021-07-19T11:38:29Z</time>
      </trkpt>
      <trkpt lat="42.6491" lon="1.68551">
        <ele>2271.599</ele>
        <time>2021-07-19T11:38:31Z</time>
      </trkpt>
      <trkpt lat="42.6491" lon="1.68551">
        <ele>2271.603</ele>
        <time>2021-07-19T11:38:33Z</time>
      </trkpt>
      <trkpt lat="42.6491" lon="1.68551">
        <ele>2271.603</ele>
        <time>2021-07-19T11:38:35Z</time>
      </trkpt>
      <trkpt lat="42.6491" lon="1.68551">
        <ele>2271.608</ele>
        <time>2021-07-19T11:38:37Z</time>
      </trkpt>
      <trkpt lat="42.6491" lon="1.68551">
        <ele>2271.611</ele>
        <time>2021-07-19T11:38:39Z</time>
      </trkpt>
      <trkpt lat="42.6491" lon="1.68551">
        <ele>2271.613</ele>
        <time>2021-07-19T11:38:41Z</time>
      </trkpt>
      <trkpt lat="42.6491" lon="1.68551">
        <ele>2271.6</ele>
        <time>2021-07-19T11:38:43Z</time>
      </trkpt>
      <trkpt lat="42.6491" lon="1.68551">
        <ele>2271.587</ele>
        <time>2021-07-19T11:38:45Z</time>
      </trkpt>
      <trkpt lat="42.6491" lon="1.68551">
        <ele>2271.586</ele>
        <time>2021-07-19T11:38:47Z</time>
      </trkpt>
      <trkpt lat="42.6491" lon="1.68551">
        <ele>2271.586</ele>
        <time>2021-07-19T11:38:49Z</time>
      </trkpt>
      <trkpt lat="42.6491" lon="1.68551">
        <ele>2271.587</ele>
        <time>2021-07-19T11:38:51Z</time>
      </trkpt>
      <trkpt lat="42.6491" lon="1.68551">
        <ele>2271.587</ele>
        <time>2021-07-19T11:38:53Z</time>
      </trkpt>
      <trkpt lat="42.6491" lon="1.68551">
        <ele>2271.586</ele>
        <time>2021-07-19T11:38:55Z</time>
      </trkpt>
      <trkpt lat="42.6491" lon="1.68551">
        <ele>2271.583</ele>
        <time>2021-07-19T11:38:57Z</time>
      </trkpt>
      <trkpt lat="42.6491" lon="1.68551">
        <ele>2271.583</ele>
        <time>2021-07-19T11:38:59Z</time>
      </trkpt>
      <trkpt lat="42.6491" lon="1.68551">
        <ele>2271.572</ele>
        <time>2021-07-19T11:39:01Z</time>
      </trkpt>
      <trkpt lat="42.6491" lon="1.68551">
        <ele>2271.565</ele>
        <time>2021-07-19T11:39:03Z</time>
      </trkpt>
      <trkpt lat="42.6491" lon="1.68551">
        <ele>2271.567</ele>
        <time>2021-07-19T11:39:05Z</time>
      </trkpt>
      <trkpt lat="42.6491" lon="1.68551">
        <ele>2271.566</ele>
        <time>2021-07-19T11:39:07Z</time>
      </trkpt>
      <trkpt lat="42.6491" lon="1.68551">
        <ele>2271.56</ele>
        <time>2021-07-19T11:39:09Z</time>
      </trkpt>
      <trkpt lat="42.6491" lon="1.68551">
        <ele>2271.556</ele>
        <time>2021-07-19T11:39:11Z</time>
      </trkpt>
      <trkpt lat="42.6491" lon="1.68551">
        <ele>2271.548</ele>
        <time>2021-07-19T11:39:13Z</time>
      </trkpt>
      <trkpt lat="42.6491" lon="1.68551">
        <ele>2271.554</ele>
        <time>2021-07-19T11:39:15Z</time>
      </trkpt>
      <trkpt lat="42.6491" lon="1.68551">
        <ele>2271.563</ele>
        <time>2021-07-19T11:39:17Z</time>
      </trkpt>
      <trkpt lat="42.6491" lon="1.68551">
        <ele>2271.57</ele>
        <time>2021-07-19T11:39:19Z</time>
      </trkpt>
      <trkpt lat="42.6491" lon="1.68551">
        <ele>2271.567</ele>
        <time>2021-07-19T11:39:21Z</time>
      </trkpt>
      <trkpt lat="42.6491" lon="1.68551">
        <ele>2271.593</ele>
        <time>2021-07-19T11:39:23Z</time>
      </trkpt>
      <trkpt lat="42.6491" lon="1.68551">
        <ele>2271.6</ele>
        <time>2021-07-19T11:39:25Z</time>
      </trkpt>
      <trkpt lat="42.6491" lon="1.68551">
        <ele>2271.596</ele>
        <time>2021-07-19T11:39:27Z</time>
      </trkpt>
      <trkpt lat="42.6491" lon="1.68551">
        <ele>2271.6</ele>
        <time>2021-07-19T11:39:29Z</time>
      </trkpt>
      <trkpt lat="42.6491" lon="1.68551">
        <ele>2271.605</ele>
        <time>2021-07-19T11:39:31Z</time>
      </trkpt>
      <trkpt lat="42.6491" lon="1.68551">
        <ele>2271.606</ele>
        <time>2021-07-19T11:39:33Z</time>
      </trkpt>
      <trkpt lat="42.6491" lon="1.68551">
        <ele>2271.64</ele>
        <time>2021-07-19T11:39:35Z</time>
      </trkpt>
      <trkpt lat="42.6491" lon="1.68551">
        <ele>2271.648</ele>
        <time>2021-07-19T11:39:37Z</time>
      </trkpt>
      <trkpt lat="42.6491" lon="1.68551">
        <ele>2271.646</ele>
        <time>2021-07-19T11:39:39Z</time>
      </trkpt>
      <trkpt lat="42.6491" lon="1.68551">
        <ele>2271.629</ele>
        <time>2021-07-19T11:39:41Z</time>
      </trkpt>
      <trkpt lat="42.6491" lon="1.68551">
        <ele>2271.6</ele>
        <time>2021-07-19T11:39:43Z</time>
      </trkpt>
      <trkpt lat="42.6491" lon="1.68551">
        <ele>2271.61</ele>
        <time>2021-07-19T11:39:45Z</time>
      </trkpt>
      <trkpt lat="42.6491" lon="1.68551">
        <ele>2271.615</ele>
        <time>2021-07-19T11:39:47Z</time>
      </trkpt>
      <trkpt lat="42.6491" lon="1.68551">
        <ele>2271.598</ele>
        <time>2021-07-19T11:39:49Z</time>
      </trkpt>
      <trkpt lat="42.6491" lon="1.68551">
        <ele>2271.604</ele>
        <time>2021-07-19T11:39:51Z</time>
      </trkpt>
      <trkpt lat="42.64911" lon="1.68551">
        <ele>2270.664</ele>
        <time>2021-07-19T11:39:53Z</time>
      </trkpt>
      <trkpt lat="42.6491" lon="1.68552">
        <ele>2270.646</ele>
        <time>2021-07-19T11:39:55Z</time>
      </trkpt>
      <trkpt lat="42.6491" lon="1.68552">
        <ele>2270.65</ele>
        <time>2021-07-19T11:39:57Z</time>
      </trkpt>
      <trkpt lat="42.6491" lon="1.68552">
        <ele>2270.624</ele>
        <time>2021-07-19T11:39:59Z</time>
      </trkpt>
      <trkpt lat="42.64911" lon="1.68552">
        <ele>2270.3</ele>
        <time>2021-07-19T11:40:01Z</time>
      </trkpt>
      <trkpt lat="42.64911" lon="1.68552">
        <ele>2270.29</ele>
        <time>2021-07-19T11:40:03Z</time>
      </trkpt>
      <trkpt lat="42.64911" lon="1.68552">
        <ele>2270.303</ele>
        <time>2021-07-19T11:40:05Z</time>
      </trkpt>
      <trkpt lat="42.64911" lon="1.68552">
        <ele>2270.305</ele>
        <time>2021-07-19T11:40:07Z</time>
      </trkpt>
      <trkpt lat="42.64911" lon="1.68552">
        <ele>2270.302</ele>
        <time>2021-07-19T11:40:09Z</time>
      </trkpt>
      <trkpt lat="42.64911" lon="1.68552">
        <ele>2270.301</ele>
        <time>2021-07-19T11:40:11Z</time>
      </trkpt>
      <trkpt lat="42.64911" lon="1.68552">
        <ele>2270.297</ele>
        <time>2021-07-19T11:40:13Z</time>
      </trkpt>
      <trkpt lat="42.64911" lon="1.68552">
        <ele>2270.285</ele>
        <time>2021-07-19T11:40:15Z</time>
      </trkpt>
      <trkpt lat="42.64911" lon="1.68552">
        <ele>2270.282</ele>
        <time>2021-07-19T11:40:17Z</time>
      </trkpt>
      <trkpt lat="42.64911" lon="1.68552">
        <ele>2270.288</ele>
        <time>2021-07-19T11:40:19Z</time>
      </trkpt>
      <trkpt lat="42.64911" lon="1.68552">
        <ele>2270.285</ele>
        <time>2021-07-19T11:40:21Z</time>
      </trkpt>
      <trkpt lat="42.64911" lon="1.68552">
        <ele>2270.287</ele>
        <time>2021-07-19T11:40:23Z</time>
      </trkpt>
      <trkpt lat="42.64911" lon="1.68552">
        <ele>2270.294</ele>
        <time>2021-07-19T11:40:25Z</time>
      </trkpt>
      <trkpt lat="42.64911" lon="1.68552">
        <ele>2270.292</ele>
        <time>2021-07-19T11:40:27Z</time>
      </trkpt>
      <trkpt lat="42.64911" lon="1.68552">
        <ele>2270.286</ele>
        <time>2021-07-19T11:40:29Z</time>
      </trkpt>
      <trkpt lat="42.64911" lon="1.68552">
        <ele>2270.268</ele>
        <time>2021-07-19T11:40:31Z</time>
      </trkpt>
      <trkpt lat="42.64911" lon="1.68552">
        <ele>2270.281</ele>
        <time>2021-07-19T11:40:33Z</time>
      </trkpt>
      <trkpt lat="42.64911" lon="1.68552">
        <ele>2270.302</ele>
        <time>2021-07-19T11:40:35Z</time>
      </trkpt>
      <trkpt lat="42.64911" lon="1.68552">
        <ele>2270.308</ele>
        <time>2021-07-19T11:40:37Z</time>
      </trkpt>
      <trkpt lat="42.64911" lon="1.68552">
        <ele>2270.304</ele>
        <time>2021-07-19T11:40:39Z</time>
      </trkpt>
      <trkpt lat="42.6491" lon="1.68552">
        <ele>2269.664</ele>
        <time>2021-07-19T11:40:41Z</time>
      </trkpt>
      <trkpt lat="42.6491" lon="1.68552">
        <ele>2269.657</ele>
        <time>2021-07-19T11:40:43Z</time>
      </trkpt>
      <trkpt lat="42.6491" lon="1.68552">
        <ele>2269.64</ele>
        <time>2021-07-19T11:40:45Z</time>
      </trkpt>
      <trkpt lat="42.6491" lon="1.68552">
        <ele>2270.177</ele>
        <time>2021-07-19T11:40:47Z</time>
      </trkpt>
      <trkpt lat="42.6491" lon="1.68552">
        <ele>2269.957</ele>
        <time>2021-07-19T11:40:49Z</time>
      </trkpt>
      <trkpt lat="42.6491" lon="1.68552">
        <ele>2269.944</ele>
        <time>2021-07-19T11:40:51Z</time>
      </trkpt>
      <trkpt lat="42.6491" lon="1.68552">
        <ele>2269.937</ele>
        <time>2021-07-19T11:40:53Z</time>
      </trkpt>
      <trkpt lat="42.6491" lon="1.68552">
        <ele>2269.947</ele>
        <time>2021-07-19T11:40:55Z</time>
      </trkpt>
      <trkpt lat="42.6491" lon="1.68553">
        <ele>2269.78</ele>
        <time>2021-07-19T11:40:57Z</time>
      </trkpt>
      <trkpt lat="42.6491" lon="1.68553">
        <ele>2269.792</ele>
        <time>2021-07-19T11:40:59Z</time>
      </trkpt>
      <trkpt lat="42.6491" lon="1.68553">
        <ele>2269.805</ele>
        <time>2021-07-19T11:41:01Z</time>
      </trkpt>
      <trkpt lat="42.6491" lon="1.68553">
        <ele>2269.81</ele>
        <time>2021-07-19T11:41:03Z</time>
      </trkpt>
      <trkpt lat="42.6491" lon="1.68552">
        <ele>2270.003</ele>
        <time>2021-07-19T11:41:05Z</time>
      </trkpt>
      <trkpt lat="42.6491" lon="1.68552">
        <ele>2270.005</ele>
        <time>2021-07-19T11:41:07Z</time>
      </trkpt>
      <trkpt lat="42.6491" lon="1.68552">
        <ele>2270.002</ele>
        <time>2021-07-19T11:41:09Z</time>
      </trkpt>
      <trkpt lat="42.64909" lon="1.68552">
        <ele>2270.021</ele>
        <time>2021-07-19T11:41:11Z</time>
      </trkpt>
      <trkpt lat="42.64909" lon="1.68552">
        <ele>2270.028</ele>
        <time>2021-07-19T11:41:13Z</time>
      </trkpt>
      <trkpt lat="42.64909" lon="1.68552">
        <ele>2270.034</ele>
        <time>2021-07-19T11:41:15Z</time>
      </trkpt>
      <trkpt lat="42.64909" lon="1.68552">
        <ele>2270.032</ele>
        <time>2021-07-19T11:41:17Z</time>
      </trkpt>
      <trkpt lat="42.64909" lon="1.68552">
        <ele>2270.017</ele>
        <time>2021-07-19T11:41:19Z</time>
      </trkpt>
      <trkpt lat="42.64909" lon="1.68552">
        <ele>2270.014</ele>
        <time>2021-07-19T11:41:21Z</time>
      </trkpt>
      <trkpt lat="42.64909" lon="1.68552">
        <ele>2270.015</ele>
        <time>2021-07-19T11:41:23Z</time>
      </trkpt>
      <trkpt lat="42.64909" lon="1.68552">
        <ele>2269.998</ele>
        <time>2021-07-19T11:41:25Z</time>
      </trkpt>
      <trkpt lat="42.64909" lon="1.68552">
        <ele>2269.938</ele>
        <time>2021-07-19T11:41:27Z</time>
      </trkpt>
      <trkpt lat="42.64909" lon="1.68552">
        <ele>2269.878</ele>
        <time>2021-07-19T11:41:29Z</time>
      </trkpt>
      <trkpt lat="42.64909" lon="1.68552">
        <ele>2269.871</ele>
        <time>2021-07-19T11:41:31Z</time>
      </trkpt>
      <trkpt lat="42.64909" lon="1.68552">
        <ele>2269.989</ele>
        <time>2021-07-19T11:41:33Z</time>
      </trkpt>
      <trkpt lat="42.64909" lon="1.68552">
        <ele>2269.985</ele>
        <time>2021-07-19T11:41:35Z</time>
      </trkpt>
      <trkpt lat="42.64909" lon="1.68552">
        <ele>2269.986</ele>
        <time>2021-07-19T11:41:37Z</time>
      </trkpt>
      <trkpt lat="42.64909" lon="1.68552">
        <ele>2270.01</ele>
        <time>2021-07-19T11:41:39Z</time>
      </trkpt>
      <trkpt lat="42.64909" lon="1.68552">
        <ele>2270.016</ele>
        <time>2021-07-19T11:41:41Z</time>
      </trkpt>
      <trkpt lat="42.64909" lon="1.68552">
        <ele>2270.002</ele>
        <time>2021-07-19T11:41:43Z</time>
      </trkpt>
      <trkpt lat="42.64909" lon="1.68552">
        <ele>2269.979</ele>
        <time>2021-07-19T11:41:45Z</time>
      </trkpt>
      <trkpt lat="42.64909" lon="1.68552">
        <ele>2269.964</ele>
        <time>2021-07-19T11:41:47Z</time>
      </trkpt>
      <trkpt lat="42.64909" lon="1.68552">
        <ele>2269.957</ele>
        <time>2021-07-19T11:41:49Z</time>
      </trkpt>
      <trkpt lat="42.64909" lon="1.68552">
        <ele>2269.945</ele>
        <time>2021-07-19T11:41:51Z</time>
      </trkpt>
      <trkpt lat="42.64909" lon="1.68552">
        <ele>2269.931</ele>
        <time>2021-07-19T11:41:53Z</time>
      </trkpt>
      <trkpt lat="42.64909" lon="1.68552">
        <ele>2269.925</ele>
        <time>2021-07-19T11:41:55Z</time>
      </trkpt>
      <trkpt lat="42.64909" lon="1.68552">
        <ele>2269.93</ele>
        <time>2021-07-19T11:41:57Z</time>
      </trkpt>
      <trkpt lat="42.64909" lon="1.68552">
        <ele>2269.927</ele>
        <time>2021-07-19T11:41:59Z</time>
      </trkpt>
      <trkpt lat="42.64909" lon="1.68552">
        <ele>2269.929</ele>
        <time>2021-07-19T11:42:01Z</time>
      </trkpt>
      <trkpt lat="42.64909" lon="1.68552">
        <ele>2269.936</ele>
        <time>2021-07-19T11:42:03Z</time>
      </trkpt>
      <trkpt lat="42.64909" lon="1.68552">
        <ele>2269.946</ele>
        <time>2021-07-19T11:42:05Z</time>
      </trkpt>
      <trkpt lat="42.64909" lon="1.68552">
        <ele>2269.964</ele>
        <time>2021-07-19T11:42:07Z</time>
      </trkpt>
      <trkpt lat="42.64909" lon="1.68552">
        <ele>2269.971</ele>
        <time>2021-07-19T11:42:09Z</time>
      </trkpt>
      <trkpt lat="42.64909" lon="1.68552">
        <ele>2269.971</ele>
        <time>2021-07-19T11:42:11Z</time>
      </trkpt>
      <trkpt lat="42.64909" lon="1.68552">
        <ele>2269.963</ele>
        <time>2021-07-19T11:42:13Z</time>
      </trkpt>
      <trkpt lat="42.64909" lon="1.68552">
        <ele>2269.956</ele>
        <time>2021-07-19T11:42:15Z</time>
      </trkpt>
      <trkpt lat="42.64909" lon="1.68552">
        <ele>2269.952</ele>
        <time>2021-07-19T11:42:17Z</time>
      </trkpt>
      <trkpt lat="42.64909" lon="1.68552">
        <ele>2269.951</ele>
        <time>2021-07-19T11:42:19Z</time>
      </trkpt>
      <trkpt lat="42.64909" lon="1.68552">
        <ele>2269.942</ele>
        <time>2021-07-19T11:42:21Z</time>
      </trkpt>
      <trkpt lat="42.64909" lon="1.68552">
        <ele>2269.943</ele>
        <time>2021-07-19T11:42:23Z</time>
      </trkpt>
      <trkpt lat="42.64909" lon="1.68552">
        <ele>2269.948</ele>
        <time>2021-07-19T11:42:25Z</time>
      </trkpt>
      <trkpt lat="42.64909" lon="1.68552">
        <ele>2269.954</ele>
        <time>2021-07-19T11:42:27Z</time>
      </trkpt>
      <trkpt lat="42.64909" lon="1.68552">
        <ele>2269.932</ele>
        <time>2021-07-19T11:42:29Z</time>
      </trkpt>
      <trkpt lat="42.64909" lon="1.68552">
        <ele>2269.917</ele>
        <time>2021-07-19T11:42:31Z</time>
      </trkpt>
      <trkpt lat="42.64909" lon="1.68552">
        <ele>2269.92</ele>
        <time>2021-07-19T11:42:33Z</time>
      </trkpt>
      <trkpt lat="42.64909" lon="1.68552">
        <ele>2269.916</ele>
        <time>2021-07-19T11:42:35Z</time>
      </trkpt>
      <trkpt lat="42.64909" lon="1.68552">
        <ele>2269.911</ele>
        <time>2021-07-19T11:42:37Z</time>
      </trkpt>
      <trkpt lat="42.64909" lon="1.68552">
        <ele>2269.907</ele>
        <time>2021-07-19T11:42:39Z</time>
      </trkpt>
      <trkpt lat="42.64909" lon="1.68552">
        <ele>2269.896</ele>
        <time>2021-07-19T11:42:41Z</time>
      </trkpt>
      <trkpt lat="42.64909" lon="1.68552">
        <ele>2269.876</ele>
        <time>2021-07-19T11:42:43Z</time>
      </trkpt>
      <trkpt lat="42.64909" lon="1.68552">
        <ele>2269.863</ele>
        <time>2021-07-19T11:42:45Z</time>
      </trkpt>
      <trkpt lat="42.64909" lon="1.68552">
        <ele>2269.862</ele>
        <time>2021-07-19T11:42:47Z</time>
      </trkpt>
      <trkpt lat="42.64909" lon="1.68552">
        <ele>2269.872</ele>
        <time>2021-07-19T11:42:49Z</time>
      </trkpt>
      <trkpt lat="42.64909" lon="1.68552">
        <ele>2269.871</ele>
        <time>2021-07-19T11:42:51Z</time>
      </trkpt>
      <trkpt lat="42.64909" lon="1.68552">
        <ele>2269.852</ele>
        <time>2021-07-19T11:42:53Z</time>
      </trkpt>
      <trkpt lat="42.64909" lon="1.68552">
        <ele>2269.831</ele>
        <time>2021-07-19T11:42:55Z</time>
      </trkpt>
      <trkpt lat="42.64909" lon="1.68552">
        <ele>2269.846</ele>
        <time>2021-07-19T11:42:57Z</time>
      </trkpt>
      <trkpt lat="42.64909" lon="1.68552">
        <ele>2269.838</ele>
        <time>2021-07-19T11:42:59Z</time>
      </trkpt>
      <trkpt lat="42.64909" lon="1.68552">
        <ele>2269.817</ele>
        <time>2021-07-19T11:43:01Z</time>
      </trkpt>
      <trkpt lat="42.64909" lon="1.68552">
        <ele>2269.801</ele>
        <time>2021-07-19T11:43:03Z</time>
      </trkpt>
      <trkpt lat="42.64909" lon="1.68552">
        <ele>2269.786</ele>
        <time>2021-07-19T11:43:05Z</time>
      </trkpt>
      <trkpt lat="42.64909" lon="1.68552">
        <ele>2269.775</ele>
        <time>2021-07-19T11:43:07Z</time>
      </trkpt>
      <trkpt lat="42.64909" lon="1.68552">
        <ele>2269.756</ele>
        <time>2021-07-19T11:43:09Z</time>
      </trkpt>
      <trkpt lat="42.64909" lon="1.68552">
        <ele>2269.713</ele>
        <time>2021-07-19T11:43:11Z</time>
      </trkpt>
      <trkpt lat="42.64909" lon="1.68552">
        <ele>2269.667</ele>
        <time>2021-07-19T11:43:13Z</time>
      </trkpt>
      <trkpt lat="42.64909" lon="1.68552">
        <ele>2269.63</ele>
        <time>2021-07-19T11:43:15Z</time>
      </trkpt>
      <trkpt lat="42.64909" lon="1.68552">
        <ele>2269.609</ele>
        <time>2021-07-19T11:43:17Z</time>
      </trkpt>
      <trkpt lat="42.64909" lon="1.68552">
        <ele>2269.591</ele>
        <time>2021-07-19T11:43:19Z</time>
      </trkpt>
      <trkpt lat="42.64909" lon="1.68552">
        <ele>2269.888</ele>
        <time>2021-07-19T11:43:21Z</time>
      </trkpt>
      <trkpt lat="42.64909" lon="1.68552">
        <ele>2269.904</ele>
        <time>2021-07-19T11:43:23Z</time>
      </trkpt>
      <trkpt lat="42.64909" lon="1.68552">
        <ele>2269.916</ele>
        <time>2021-07-19T11:43:25Z</time>
      </trkpt>
      <trkpt lat="42.64909" lon="1.68552">
        <ele>2269.926</ele>
        <time>2021-07-19T11:43:27Z</time>
      </trkpt>
      <trkpt lat="42.64909" lon="1.68552">
        <ele>2269.93</ele>
        <time>2021-07-19T11:43:29Z</time>
      </trkpt>
      <trkpt lat="42.64909" lon="1.68552">
        <ele>2269.925</ele>
        <time>2021-07-19T11:43:31Z</time>
      </trkpt>
      <trkpt lat="42.64909" lon="1.68552">
        <ele>2269.923</ele>
        <time>2021-07-19T11:43:33Z</time>
      </trkpt>
      <trkpt lat="42.64909" lon="1.68552">
        <ele>2269.916</ele>
        <time>2021-07-19T11:43:35Z</time>
      </trkpt>
      <trkpt lat="42.64909" lon="1.68552">
        <ele>2269.905</ele>
        <time>2021-07-19T11:43:37Z</time>
      </trkpt>
      <trkpt lat="42.64909" lon="1.68552">
        <ele>2269.905</ele>
        <time>2021-07-19T11:43:39Z</time>
      </trkpt>
      <trkpt lat="42.64909" lon="1.68552">
        <ele>2269.903</ele>
        <time>2021-07-19T11:43:41Z</time>
      </trkpt>
      <trkpt lat="42.64909" lon="1.68552">
        <ele>2269.902</ele>
        <time>2021-07-19T11:43:43Z</time>
      </trkpt>
      <trkpt lat="42.64909" lon="1.68552">
        <ele>2269.902</ele>
        <time>2021-07-19T11:43:45Z</time>
      </trkpt>
      <trkpt lat="42.64909" lon="1.68552">
        <ele>2269.9</ele>
        <time>2021-07-19T11:43:47Z</time>
      </trkpt>
      <trkpt lat="42.64909" lon="1.68552">
        <ele>2269.897</ele>
        <time>2021-07-19T11:43:49Z</time>
      </trkpt>
      <trkpt lat="42.64909" lon="1.68552">
        <ele>2269.894</ele>
        <time>2021-07-19T11:43:51Z</time>
      </trkpt>
      <trkpt lat="42.64909" lon="1.68552">
        <ele>2269.897</ele>
        <time>2021-07-19T11:43:53Z</time>
      </trkpt>
      <trkpt lat="42.64909" lon="1.68552">
        <ele>2269.897</ele>
        <time>2021-07-19T11:43:55Z</time>
      </trkpt>
      <trkpt lat="42.64909" lon="1.68552">
        <ele>2269.889</ele>
        <time>2021-07-19T11:43:57Z</time>
      </trkpt>
      <trkpt lat="42.64909" lon="1.68552">
        <ele>2269.882</ele>
        <time>2021-07-19T11:43:59Z</time>
      </trkpt>
      <trkpt lat="42.64909" lon="1.68552">
        <ele>2269.885</ele>
        <time>2021-07-19T11:44:01Z</time>
      </trkpt>
      <trkpt lat="42.64909" lon="1.68552">
        <ele>2269.885</ele>
        <time>2021-07-19T11:44:03Z</time>
      </trkpt>
      <trkpt lat="42.64909" lon="1.68552">
        <ele>2269.878</ele>
        <time>2021-07-19T11:44:05Z</time>
      </trkpt>
      <trkpt lat="42.64909" lon="1.68552">
        <ele>2269.872</ele>
        <time>2021-07-19T11:44:07Z</time>
      </trkpt>
      <trkpt lat="42.64909" lon="1.68552">
        <ele>2269.872</ele>
        <time>2021-07-19T11:44:09Z</time>
      </trkpt>
      <trkpt lat="42.64909" lon="1.68552">
        <ele>2269.874</ele>
        <time>2021-07-19T11:44:11Z</time>
      </trkpt>
      <trkpt lat="42.64909" lon="1.68552">
        <ele>2269.869</ele>
        <time>2021-07-19T11:44:13Z</time>
      </trkpt>
      <trkpt lat="42.64909" lon="1.68552">
        <ele>2269.859</ele>
        <time>2021-07-19T11:44:15Z</time>
      </trkpt>
      <trkpt lat="42.64909" lon="1.68552">
        <ele>2269.854</ele>
        <time>2021-07-19T11:44:17Z</time>
      </trkpt>
      <trkpt lat="42.64909" lon="1.68552">
        <ele>2269.865</ele>
        <time>2021-07-19T11:44:19Z</time>
      </trkpt>
      <trkpt lat="42.64909" lon="1.68552">
        <ele>2269.873</ele>
        <time>2021-07-19T11:44:21Z</time>
      </trkpt>
      <trkpt lat="42.64909" lon="1.68552">
        <ele>2269.876</ele>
        <time>2021-07-19T11:44:23Z</time>
      </trkpt>
      <trkpt lat="42.64909" lon="1.68552">
        <ele>2269.879</ele>
        <time>2021-07-19T11:44:25Z</time>
      </trkpt>
      <trkpt lat="42.64909" lon="1.68553">
        <ele>2270.244</ele>
        <time>2021-07-19T11:44:27Z</time>
      </trkpt>
      <trkpt lat="42.64909" lon="1.68553">
        <ele>2270.247</ele>
        <time>2021-07-19T11:44:29Z</time>
      </trkpt>
      <trkpt lat="42.64909" lon="1.68553">
        <ele>2270.246</ele>
        <time>2021-07-19T11:44:31Z</time>
      </trkpt>
      <trkpt lat="42.64909" lon="1.68553">
        <ele>2270.221</ele>
        <time>2021-07-19T11:44:33Z</time>
      </trkpt>
      <trkpt lat="42.64909" lon="1.68553">
        <ele>2270.207</ele>
        <time>2021-07-19T11:44:35Z</time>
      </trkpt>
      <trkpt lat="42.64909" lon="1.68553">
        <ele>2270.258</ele>
        <time>2021-07-19T11:44:37Z</time>
      </trkpt>
      <trkpt lat="42.64909" lon="1.68553">
        <ele>2270.247</ele>
        <time>2021-07-19T11:44:39Z</time>
      </trkpt>
      <trkpt lat="42.64909" lon="1.68553">
        <ele>2270.25</ele>
        <time>2021-07-19T11:44:41Z</time>
      </trkpt>
      <trkpt lat="42.64909" lon="1.68552">
        <ele>2270.464</ele>
        <time>2021-07-19T11:44:43Z</time>
      </trkpt>
      <trkpt lat="42.64909" lon="1.68552">
        <ele>2270.436</ele>
        <time>2021-07-19T11:44:45Z</time>
      </trkpt>
      <trkpt lat="42.64909" lon="1.68552">
        <ele>2270.423</ele>
        <time>2021-07-19T11:44:47Z</time>
      </trkpt>
      <trkpt lat="42.64909" lon="1.68552">
        <ele>2270.43</ele>
        <time>2021-07-19T11:44:49Z</time>
      </trkpt>
      <trkpt lat="42.64909" lon="1.68552">
        <ele>2270.441</ele>
        <time>2021-07-19T11:44:51Z</time>
      </trkpt>
      <trkpt lat="42.64909" lon="1.68552">
        <ele>2270.498</ele>
        <time>2021-07-19T11:44:53Z</time>
      </trkpt>
      <trkpt lat="42.64909" lon="1.68552">
        <ele>2270.511</ele>
        <time>2021-07-19T11:44:55Z</time>
      </trkpt>
      <trkpt lat="42.64909" lon="1.68552">
        <ele>2270.504</ele>
        <time>2021-07-19T11:44:57Z</time>
      </trkpt>
      <trkpt lat="42.64909" lon="1.68553">
        <ele>2270.471</ele>
        <time>2021-07-19T11:44:59Z</time>
      </trkpt>
      <trkpt lat="42.64909" lon="1.68553">
        <ele>2270.451</ele>
        <time>2021-07-19T11:45:01Z</time>
      </trkpt>
      <trkpt lat="42.6491" lon="1.68553">
        <ele>2270.72</ele>
        <time>2021-07-19T11:45:03Z</time>
      </trkpt>
      <trkpt lat="42.6491" lon="1.68553">
        <ele>2270.742</ele>
        <time>2021-07-19T11:45:05Z</time>
      </trkpt>
      <trkpt lat="42.6491" lon="1.68553">
        <ele>2270.743</ele>
        <time>2021-07-19T11:45:07Z</time>
      </trkpt>
      <trkpt lat="42.6491" lon="1.68553">
        <ele>2270.728</ele>
        <time>2021-07-19T11:45:09Z</time>
      </trkpt>
      <trkpt lat="42.64909" lon="1.68553">
        <ele>2270.826</ele>
        <time>2021-07-19T11:45:11Z</time>
      </trkpt>
      <trkpt lat="42.64909" lon="1.68552">
        <ele>2270.647</ele>
        <time>2021-07-19T11:45:13Z</time>
      </trkpt>
      <trkpt lat="42.64909" lon="1.68552">
        <ele>2271.329</ele>
        <time>2021-07-19T11:45:15Z</time>
      </trkpt>
      <trkpt lat="42.64909" lon="1.68552">
        <ele>2271.336</ele>
        <time>2021-07-19T11:45:17Z</time>
      </trkpt>
      <trkpt lat="42.6491" lon="1.68553">
        <ele>2271.195</ele>
        <time>2021-07-19T11:45:19Z</time>
      </trkpt>
      <trkpt lat="42.64909" lon="1.68553">
        <ele>2271.253</ele>
        <time>2021-07-19T11:45:21Z</time>
      </trkpt>
      <trkpt lat="42.64909" lon="1.68553">
        <ele>2271.249</ele>
        <time>2021-07-19T11:45:23Z</time>
      </trkpt>
      <trkpt lat="42.64909" lon="1.68553">
        <ele>2271.257</ele>
        <time>2021-07-19T11:45:25Z</time>
      </trkpt>
      <trkpt lat="42.64909" lon="1.68553">
        <ele>2271.272</ele>
        <time>2021-07-19T11:45:27Z</time>
      </trkpt>
      <trkpt lat="42.64909" lon="1.68553">
        <ele>2271.279</ele>
        <time>2021-07-19T11:45:29Z</time>
      </trkpt>
      <trkpt lat="42.64909" lon="1.68553">
        <ele>2271.276</ele>
        <time>2021-07-19T11:45:31Z</time>
      </trkpt>
      <trkpt lat="42.64909" lon="1.68553">
        <ele>2271.283</ele>
        <time>2021-07-19T11:45:33Z</time>
      </trkpt>
      <trkpt lat="42.64909" lon="1.68553">
        <ele>2271.302</ele>
        <time>2021-07-19T11:45:35Z</time>
      </trkpt>
      <trkpt lat="42.6491" lon="1.68552">
        <ele>2272.098</ele>
        <time>2021-07-19T11:45:37Z</time>
      </trkpt>
      <trkpt lat="42.64911" lon="1.68551">
        <ele>2272.224</ele>
        <time>2021-07-19T11:45:39Z</time>
      </trkpt>
      <trkpt lat="42.64912" lon="1.68551">
        <ele>2272.536</ele>
        <time>2021-07-19T11:45:41Z</time>
      </trkpt>
      <trkpt lat="42.64913" lon="1.68551">
        <ele>2273.559</ele>
        <time>2021-07-19T11:45:43Z</time>
      </trkpt>
      <trkpt lat="42.64913" lon="1.68551">
        <ele>2274.601</ele>
        <time>2021-07-19T11:45:45Z</time>
      </trkpt>
      <trkpt lat="42.64913" lon="1.68552">
        <ele>2274.689</ele>
        <time>2021-07-19T11:45:47Z</time>
      </trkpt>
      <trkpt lat="42.64912" lon="1.68554">
        <ele>2274.972</ele>
        <time>2021-07-19T11:45:49Z</time>
      </trkpt>
      <trkpt lat="42.64912" lon="1.68556">
        <ele>2274.982</ele>
        <time>2021-07-19T11:45:51Z</time>
      </trkpt>
      <trkpt lat="42.64911" lon="1.68557">
        <ele>2275.148</ele>
        <time>2021-07-19T11:45:53Z</time>
      </trkpt>
      <trkpt lat="42.6491" lon="1.68559">
        <ele>2275.105</ele>
        <time>2021-07-19T11:45:55Z</time>
      </trkpt>
      <trkpt lat="42.64911" lon="1.68559">
        <ele>2275.348</ele>
        <time>2021-07-19T11:45:57Z</time>
      </trkpt>
      <trkpt lat="42.64911" lon="1.68559">
        <ele>2275.333</ele>
        <time>2021-07-19T11:45:59Z</time>
      </trkpt>
      <trkpt lat="42.64911" lon="1.68559">
        <ele>2275.336</ele>
        <time>2021-07-19T11:46:01Z</time>
      </trkpt>
      <trkpt lat="42.64911" lon="1.68559">
        <ele>2275.342</ele>
        <time>2021-07-19T11:46:03Z</time>
      </trkpt>
      <trkpt lat="42.64911" lon="1.68559">
        <ele>2275.749</ele>
        <time>2021-07-19T11:46:05Z</time>
      </trkpt>
      <trkpt lat="42.64911" lon="1.68559">
        <ele>2275.751</ele>
        <time>2021-07-19T11:46:07Z</time>
      </trkpt>
      <trkpt lat="42.64911" lon="1.68559">
        <ele>2275.747</ele>
        <time>2021-07-19T11:46:09Z</time>
      </trkpt>
      <trkpt lat="42.64911" lon="1.68559">
        <ele>2275.746</ele>
        <time>2021-07-19T11:46:11Z</time>
      </trkpt>
      <trkpt lat="42.64911" lon="1.68559">
        <ele>2275.746</ele>
        <time>2021-07-19T11:46:13Z</time>
      </trkpt>
      <trkpt lat="42.64911" lon="1.68558">
        <ele>2275.945</ele>
        <time>2021-07-19T11:46:15Z</time>
      </trkpt>
      <trkpt lat="42.64911" lon="1.68557">
        <ele>2276.051</ele>
        <time>2021-07-19T11:46:17Z</time>
      </trkpt>
      <trkpt lat="42.64912" lon="1.68554">
        <ele>2276.386</ele>
        <time>2021-07-19T11:46:19Z</time>
      </trkpt>
      <trkpt lat="42.64913" lon="1.68552">
        <ele>2276.993</ele>
        <time>2021-07-19T11:46:21Z</time>
      </trkpt>
      <trkpt lat="42.64913" lon="1.68549">
        <ele>2277.245</ele>
        <time>2021-07-19T11:46:23Z</time>
      </trkpt>
      <trkpt lat="42.64914" lon="1.68546">
        <ele>2277.666</ele>
        <time>2021-07-19T11:46:25Z</time>
      </trkpt>
      <trkpt lat="42.64915" lon="1.68544">
        <ele>2277.744</ele>
        <time>2021-07-19T11:46:27Z</time>
      </trkpt>
      <trkpt lat="42.64915" lon="1.68542">
        <ele>2278.211</ele>
        <time>2021-07-19T11:46:29Z</time>
      </trkpt>
      <trkpt lat="42.64917" lon="1.6854">
        <ele>2279.193</ele>
        <time>2021-07-19T11:46:31Z</time>
      </trkpt>
      <trkpt lat="42.64917" lon="1.6854">
        <ele>2278.906</ele>
        <time>2021-07-19T11:46:33Z</time>
      </trkpt>
      <trkpt lat="42.64917" lon="1.6854">
        <ele>2278.895</ele>
        <time>2021-07-19T11:46:35Z</time>
      </trkpt>
      <trkpt lat="42.64917" lon="1.6854">
        <ele>2278.89</ele>
        <time>2021-07-19T11:46:37Z</time>
      </trkpt>
      <trkpt lat="42.64917" lon="1.6854">
        <ele>2278.89</ele>
        <time>2021-07-19T11:46:39Z</time>
      </trkpt>
      <trkpt lat="42.64917" lon="1.6854">
        <ele>2278.891</ele>
        <time>2021-07-19T11:46:41Z</time>
      </trkpt>
      <trkpt lat="42.64917" lon="1.6854">
        <ele>2278.896</ele>
        <time>2021-07-19T11:46:43Z</time>
      </trkpt>
      <trkpt lat="42.64916" lon="1.6854">
        <ele>2278.89</ele>
        <time>2021-07-19T11:46:45Z</time>
      </trkpt>
      <trkpt lat="42.64917" lon="1.6854">
        <ele>2278.812</ele>
        <time>2021-07-19T11:46:47Z</time>
      </trkpt>
      <trkpt lat="42.64917" lon="1.6854">
        <ele>2278.802</ele>
        <time>2021-07-19T11:46:49Z</time>
      </trkpt>
      <trkpt lat="42.64917" lon="1.6854">
        <ele>2278.786</ele>
        <time>2021-07-19T11:46:51Z</time>
      </trkpt>
      <trkpt lat="42.64917" lon="1.6854">
        <ele>2278.768</ele>
        <time>2021-07-19T11:46:53Z</time>
      </trkpt>
      <trkpt lat="42.64917" lon="1.6854">
        <ele>2278.757</ele>
        <time>2021-07-19T11:46:55Z</time>
      </trkpt>
      <trkpt lat="42.64917" lon="1.6854">
        <ele>2278.746</ele>
        <time>2021-07-19T11:46:57Z</time>
      </trkpt>
      <trkpt lat="42.64917" lon="1.6854">
        <ele>2278.737</ele>
        <time>2021-07-19T11:46:59Z</time>
      </trkpt>
      <trkpt lat="42.64917" lon="1.6854">
        <ele>2278.719</ele>
        <time>2021-07-19T11:47:01Z</time>
      </trkpt>
      <trkpt lat="42.64917" lon="1.6854">
        <ele>2278.707</ele>
        <time>2021-07-19T11:47:03Z</time>
      </trkpt>
      <trkpt lat="42.64917" lon="1.6854">
        <ele>2278.703</ele>
        <time>2021-07-19T11:47:05Z</time>
      </trkpt>
      <trkpt lat="42.64917" lon="1.6854">
        <ele>2278.693</ele>
        <time>2021-07-19T11:47:07Z</time>
      </trkpt>
      <trkpt lat="42.64917" lon="1.6854">
        <ele>2278.686</ele>
        <time>2021-07-19T11:47:09Z</time>
      </trkpt>
      <trkpt lat="42.64917" lon="1.6854">
        <ele>2278.686</ele>
        <time>2021-07-19T11:47:11Z</time>
      </trkpt>
      <trkpt lat="42.64917" lon="1.6854">
        <ele>2278.691</ele>
        <time>2021-07-19T11:47:13Z</time>
      </trkpt>
      <trkpt lat="42.64916" lon="1.6854">
        <ele>2278.692</ele>
        <time>2021-07-19T11:47:15Z</time>
      </trkpt>
      <trkpt lat="42.64916" lon="1.6854">
        <ele>2278.693</ele>
        <time>2021-07-19T11:47:17Z</time>
      </trkpt>
      <trkpt lat="42.64917" lon="1.6854">
        <ele>2278.69</ele>
        <time>2021-07-19T11:47:19Z</time>
      </trkpt>
      <trkpt lat="42.64917" lon="1.6854">
        <ele>2278.681</ele>
        <time>2021-07-19T11:47:21Z</time>
      </trkpt>
      <trkpt lat="42.64916" lon="1.6854">
        <ele>2278.677</ele>
        <time>2021-07-19T11:47:23Z</time>
      </trkpt>
      <trkpt lat="42.64916" lon="1.6854">
        <ele>2278.666</ele>
        <time>2021-07-19T11:47:25Z</time>
      </trkpt>
      <trkpt lat="42.64916" lon="1.6854">
        <ele>2278.659</ele>
        <time>2021-07-19T11:47:27Z</time>
      </trkpt>
      <trkpt lat="42.64916" lon="1.6854">
        <ele>2278.651</ele>
        <time>2021-07-19T11:47:29Z</time>
      </trkpt>
      <trkpt lat="42.64916" lon="1.6854">
        <ele>2278.646</ele>
        <time>2021-07-19T11:47:31Z</time>
      </trkpt>
      <trkpt lat="42.64916" lon="1.6854">
        <ele>2278.642</ele>
        <time>2021-07-19T11:47:33Z</time>
      </trkpt>
      <trkpt lat="42.64916" lon="1.6854">
        <ele>2278.637</ele>
        <time>2021-07-19T11:47:35Z</time>
      </trkpt>
      <trkpt lat="42.64916" lon="1.6854">
        <ele>2278.636</ele>
        <time>2021-07-19T11:47:37Z</time>
      </trkpt>
      <trkpt lat="42.64916" lon="1.6854">
        <ele>2278.622</ele>
        <time>2021-07-19T11:47:39Z</time>
      </trkpt>
      <trkpt lat="42.64916" lon="1.6854">
        <ele>2278.603</ele>
        <time>2021-07-19T11:47:41Z</time>
      </trkpt>
      <trkpt lat="42.64916" lon="1.6854">
        <ele>2278.579</ele>
        <time>2021-07-19T11:47:43Z</time>
      </trkpt>
      <trkpt lat="42.64916" lon="1.6854">
        <ele>2278.583</ele>
        <time>2021-07-19T11:47:45Z</time>
      </trkpt>
      <trkpt lat="42.64916" lon="1.6854">
        <ele>2278.562</ele>
        <time>2021-07-19T11:47:47Z</time>
      </trkpt>
      <trkpt lat="42.64916" lon="1.6854">
        <ele>2278.53</ele>
        <time>2021-07-19T11:47:49Z</time>
      </trkpt>
      <trkpt lat="42.64916" lon="1.6854">
        <ele>2278.524</ele>
        <time>2021-07-19T11:47:51Z</time>
      </trkpt>
      <trkpt lat="42.64916" lon="1.6854">
        <ele>2278.607</ele>
        <time>2021-07-19T11:47:53Z</time>
      </trkpt>
      <trkpt lat="42.64916" lon="1.6854">
        <ele>2278.721</ele>
        <time>2021-07-19T11:47:55Z</time>
      </trkpt>
      <trkpt lat="42.64916" lon="1.6854">
        <ele>2278.713</ele>
        <time>2021-07-19T11:47:57Z</time>
      </trkpt>
      <trkpt lat="42.64916" lon="1.6854">
        <ele>2278.713</ele>
        <time>2021-07-19T11:47:59Z</time>
      </trkpt>
      <trkpt lat="42.64916" lon="1.6854">
        <ele>2278.711</ele>
        <time>2021-07-19T11:48:01Z</time>
      </trkpt>
      <trkpt lat="42.64916" lon="1.6854">
        <ele>2278.703</ele>
        <time>2021-07-19T11:48:03Z</time>
      </trkpt>
      <trkpt lat="42.64916" lon="1.6854">
        <ele>2278.688</ele>
        <time>2021-07-19T11:48:05Z</time>
      </trkpt>
      <trkpt lat="42.64916" lon="1.6854">
        <ele>2278.683</ele>
        <time>2021-07-19T11:48:07Z</time>
      </trkpt>
      <trkpt lat="42.64916" lon="1.6854">
        <ele>2278.686</ele>
        <time>2021-07-19T11:48:09Z</time>
      </trkpt>
      <trkpt lat="42.64916" lon="1.6854">
        <ele>2278.67</ele>
        <time>2021-07-19T11:48:11Z</time>
      </trkpt>
      <trkpt lat="42.64917" lon="1.6854">
        <ele>2278.366</ele>
        <time>2021-07-19T11:48:13Z</time>
      </trkpt>
      <trkpt lat="42.64917" lon="1.68539">
        <ele>2278.4</ele>
        <time>2021-07-19T11:48:15Z</time>
      </trkpt>
      <trkpt lat="42.64918" lon="1.68538">
        <ele>2278.297</ele>
        <time>2021-07-19T11:48:17Z</time>
      </trkpt>
      <trkpt lat="42.64919" lon="1.68537">
        <ele>2278.731</ele>
        <time>2021-07-19T11:48:19Z</time>
      </trkpt>
      <trkpt lat="42.6492" lon="1.68535">
        <ele>2279.273</ele>
        <time>2021-07-19T11:48:21Z</time>
      </trkpt>
      <trkpt lat="42.6492" lon="1.68535">
        <ele>2279.265</ele>
        <time>2021-07-19T11:48:23Z</time>
      </trkpt>
      <trkpt lat="42.6492" lon="1.68534">
        <ele>2279.256</ele>
        <time>2021-07-19T11:48:25Z</time>
      </trkpt>
      <trkpt lat="42.6492" lon="1.68534">
        <ele>2279.252</ele>
        <time>2021-07-19T11:48:27Z</time>
      </trkpt>
      <trkpt lat="42.6492" lon="1.68534">
        <ele>2279.231</ele>
        <time>2021-07-19T11:48:29Z</time>
      </trkpt>
      <trkpt lat="42.64919" lon="1.68534">
        <ele>2279.223</ele>
        <time>2021-07-19T11:48:31Z</time>
      </trkpt>
      <trkpt lat="42.64919" lon="1.68534">
        <ele>2279.215</ele>
        <time>2021-07-19T11:48:33Z</time>
      </trkpt>
      <trkpt lat="42.64919" lon="1.68534">
        <ele>2279.204</ele>
        <time>2021-07-19T11:48:35Z</time>
      </trkpt>
      <trkpt lat="42.64919" lon="1.68534">
        <ele>2279.203</ele>
        <time>2021-07-19T11:48:37Z</time>
      </trkpt>
      <trkpt lat="42.64919" lon="1.68534">
        <ele>2279.204</ele>
        <time>2021-07-19T11:48:39Z</time>
      </trkpt>
      <trkpt lat="42.64919" lon="1.68534">
        <ele>2279.201</ele>
        <time>2021-07-19T11:48:41Z</time>
      </trkpt>
      <trkpt lat="42.64919" lon="1.68534">
        <ele>2279.192</ele>
        <time>2021-07-19T11:48:43Z</time>
      </trkpt>
      <trkpt lat="42.64919" lon="1.68534">
        <ele>2279.187</ele>
        <time>2021-07-19T11:48:45Z</time>
      </trkpt>
      <trkpt lat="42.64919" lon="1.68534">
        <ele>2279.248</ele>
        <time>2021-07-19T11:48:47Z</time>
      </trkpt>
      <trkpt lat="42.6492" lon="1.68534">
        <ele>2278.645</ele>
        <time>2021-07-19T11:48:49Z</time>
      </trkpt>
      <trkpt lat="42.6492" lon="1.68532">
        <ele>2278.916</ele>
        <time>2021-07-19T11:48:51Z</time>
      </trkpt>
      <trkpt lat="42.64922" lon="1.68531">
        <ele>2278.524</ele>
        <time>2021-07-19T11:48:53Z</time>
      </trkpt>
      <trkpt lat="42.64923" lon="1.68531">
        <ele>2277.887</ele>
        <time>2021-07-19T11:48:55Z</time>
      </trkpt>
      <trkpt lat="42.64924" lon="1.68529">
        <ele>2278.421</ele>
        <time>2021-07-19T11:48:57Z</time>
      </trkpt>
      <trkpt lat="42.64925" lon="1.68527">
        <ele>2278.673</ele>
        <time>2021-07-19T11:48:59Z</time>
      </trkpt>
      <trkpt lat="42.64926" lon="1.68525">
        <ele>2279.167</ele>
        <time>2021-07-19T11:49:01Z</time>
      </trkpt>
      <trkpt lat="42.64928" lon="1.68524">
        <ele>2279.303</ele>
        <time>2021-07-19T11:49:03Z</time>
      </trkpt>
      <trkpt lat="42.64929" lon="1.68522">
        <ele>2279.285</ele>
        <time>2021-07-19T11:49:05Z</time>
      </trkpt>
      <trkpt lat="42.6493" lon="1.68519">
        <ele>2278.77</ele>
        <time>2021-07-19T11:49:07Z</time>
      </trkpt>
      <trkpt lat="42.64931" lon="1.68516">
        <ele>2278.62</ele>
        <time>2021-07-19T11:49:09Z</time>
      </trkpt>
      <trkpt lat="42.64932" lon="1.68514">
        <ele>2279.173</ele>
        <time>2021-07-19T11:49:11Z</time>
      </trkpt>
      <trkpt lat="42.64933" lon="1.68512">
        <ele>2279.58</ele>
        <time>2021-07-19T11:49:13Z</time>
      </trkpt>
      <trkpt lat="42.64933" lon="1.68509">
        <ele>2279.911</ele>
        <time>2021-07-19T11:49:15Z</time>
      </trkpt>
      <trkpt lat="42.64935" lon="1.68507">
        <ele>2279.79</ele>
        <time>2021-07-19T11:49:17Z</time>
      </trkpt>
      <trkpt lat="42.64936" lon="1.68505">
        <ele>2281.186</ele>
        <time>2021-07-19T11:49:19Z</time>
      </trkpt>
      <trkpt lat="42.64937" lon="1.68503">
        <ele>2281.537</ele>
        <time>2021-07-19T11:49:21Z</time>
      </trkpt>
      <trkpt lat="42.64938" lon="1.685">
        <ele>2282.132</ele>
        <time>2021-07-19T11:49:23Z</time>
      </trkpt>
      <trkpt lat="42.64938" lon="1.68497">
        <ele>2282.445</ele>
        <time>2021-07-19T11:49:25Z</time>
      </trkpt>
      <trkpt lat="42.64939" lon="1.68495">
        <ele>2282.046</ele>
        <time>2021-07-19T11:49:27Z</time>
      </trkpt>
      <trkpt lat="42.6494" lon="1.68493">
        <ele>2282.642</ele>
        <time>2021-07-19T11:49:29Z</time>
      </trkpt>
      <trkpt lat="42.64941" lon="1.68491">
        <ele>2282.113</ele>
        <time>2021-07-19T11:49:31Z</time>
      </trkpt>
      <trkpt lat="42.64942" lon="1.68489">
        <ele>2282.373</ele>
        <time>2021-07-19T11:49:33Z</time>
      </trkpt>
      <trkpt lat="42.64943" lon="1.68486">
        <ele>2282.403</ele>
        <time>2021-07-19T11:49:35Z</time>
      </trkpt>
      <trkpt lat="42.64944" lon="1.68484">
        <ele>2282.645</ele>
        <time>2021-07-19T11:49:37Z</time>
      </trkpt>
      <trkpt lat="42.64945" lon="1.68481">
        <ele>2282.5</ele>
        <time>2021-07-19T11:49:39Z</time>
      </trkpt>
      <trkpt lat="42.64946" lon="1.68479">
        <ele>2282.045</ele>
        <time>2021-07-19T11:49:41Z</time>
      </trkpt>
      <trkpt lat="42.64947" lon="1.68476">
        <ele>2282.36</ele>
        <time>2021-07-19T11:49:43Z</time>
      </trkpt>
      <trkpt lat="42.6495" lon="1.68473">
        <ele>2283.455</ele>
        <time>2021-07-19T11:49:45Z</time>
      </trkpt>
      <trkpt lat="42.64951" lon="1.68469">
        <ele>2282.754</ele>
        <time>2021-07-19T11:49:47Z</time>
      </trkpt>
      <trkpt lat="42.64951" lon="1.68467">
        <ele>2284.016</ele>
        <time>2021-07-19T11:49:49Z</time>
      </trkpt>
      <trkpt lat="42.64952" lon="1.68464">
        <ele>2284.12</ele>
        <time>2021-07-19T11:49:51Z</time>
      </trkpt>
      <trkpt lat="42.64952" lon="1.68462">
        <ele>2283.867</ele>
        <time>2021-07-19T11:49:53Z</time>
      </trkpt>
      <trkpt lat="42.64953" lon="1.6846">
        <ele>2284.9</ele>
        <time>2021-07-19T11:49:55Z</time>
      </trkpt>
      <trkpt lat="42.64953" lon="1.68458">
        <ele>2286.072</ele>
        <time>2021-07-19T11:49:57Z</time>
      </trkpt>
      <trkpt lat="42.64954" lon="1.68456">
        <ele>2285.948</ele>
        <time>2021-07-19T11:49:59Z</time>
      </trkpt>
      <trkpt lat="42.64954" lon="1.68456">
        <ele>2286.245</ele>
        <time>2021-07-19T11:50:01Z</time>
      </trkpt>
      <trkpt lat="42.64954" lon="1.68456">
        <ele>2286.231</ele>
        <time>2021-07-19T11:50:03Z</time>
      </trkpt>
      <trkpt lat="42.64954" lon="1.68456">
        <ele>2286.232</ele>
        <time>2021-07-19T11:50:05Z</time>
      </trkpt>
      <trkpt lat="42.64954" lon="1.68456">
        <ele>2286.238</ele>
        <time>2021-07-19T11:50:07Z</time>
      </trkpt>
      <trkpt lat="42.64954" lon="1.68456">
        <ele>2286.238</ele>
        <time>2021-07-19T11:50:09Z</time>
      </trkpt>
      <trkpt lat="42.64954" lon="1.68456">
        <ele>2286.235</ele>
        <time>2021-07-19T11:50:11Z</time>
      </trkpt>
      <trkpt lat="42.64954" lon="1.68456">
        <ele>2286.231</ele>
        <time>2021-07-19T11:50:13Z</time>
      </trkpt>
      <trkpt lat="42.64954" lon="1.68455">
        <ele>2286.386</ele>
        <time>2021-07-19T11:50:15Z</time>
      </trkpt>
      <trkpt lat="42.64954" lon="1.68454">
        <ele>2285.847</ele>
        <time>2021-07-19T11:50:17Z</time>
      </trkpt>
      <trkpt lat="42.64954" lon="1.68453">
        <ele>2286.085</ele>
        <time>2021-07-19T11:50:19Z</time>
      </trkpt>
      <trkpt lat="42.64954" lon="1.68452">
        <ele>2286.207</ele>
        <time>2021-07-19T11:50:21Z</time>
      </trkpt>
      <trkpt lat="42.64955" lon="1.6845">
        <ele>2287.055</ele>
        <time>2021-07-19T11:50:23Z</time>
      </trkpt>
      <trkpt lat="42.64955" lon="1.68449">
        <ele>2287.081</ele>
        <time>2021-07-19T11:50:25Z</time>
      </trkpt>
      <trkpt lat="42.64955" lon="1.68449">
        <ele>2287.081</ele>
        <time>2021-07-19T11:50:27Z</time>
      </trkpt>
      <trkpt lat="42.64955" lon="1.68448">
        <ele>2287.622</ele>
        <time>2021-07-19T11:50:29Z</time>
      </trkpt>
      <trkpt lat="42.64956" lon="1.68447">
        <ele>2287.509</ele>
        <time>2021-07-19T11:50:31Z</time>
      </trkpt>
      <trkpt lat="42.64957" lon="1.68446">
        <ele>2287.759</ele>
        <time>2021-07-19T11:50:33Z</time>
      </trkpt>
      <trkpt lat="42.64958" lon="1.68445">
        <ele>2287.854</ele>
        <time>2021-07-19T11:50:35Z</time>
      </trkpt>
      <trkpt lat="42.64959" lon="1.68444">
        <ele>2288.462</ele>
        <time>2021-07-19T11:50:37Z</time>
      </trkpt>
      <trkpt lat="42.6496" lon="1.68444">
        <ele>2288.333</ele>
        <time>2021-07-19T11:50:39Z</time>
      </trkpt>
      <trkpt lat="42.6496" lon="1.68443">
        <ele>2288.869</ele>
        <time>2021-07-19T11:50:41Z</time>
      </trkpt>
      <trkpt lat="42.64961" lon="1.68444">
        <ele>2289.249</ele>
        <time>2021-07-19T11:50:43Z</time>
      </trkpt>
      <trkpt lat="42.64961" lon="1.68444">
        <ele>2289.514</ele>
        <time>2021-07-19T11:50:45Z</time>
      </trkpt>
      <trkpt lat="42.64961" lon="1.68444">
        <ele>2289.505</ele>
        <time>2021-07-19T11:50:47Z</time>
      </trkpt>
      <trkpt lat="42.64961" lon="1.68444">
        <ele>2289.509</ele>
        <time>2021-07-19T11:50:49Z</time>
      </trkpt>
      <trkpt lat="42.64961" lon="1.68444">
        <ele>2289.765</ele>
        <time>2021-07-19T11:50:51Z</time>
      </trkpt>
      <trkpt lat="42.64961" lon="1.68442">
        <ele>2289.578</ele>
        <time>2021-07-19T11:50:53Z</time>
      </trkpt>
      <trkpt lat="42.64961" lon="1.68441">
        <ele>2289.563</ele>
        <time>2021-07-19T11:50:55Z</time>
      </trkpt>
      <trkpt lat="42.64961" lon="1.6844">
        <ele>2289.26</ele>
        <time>2021-07-19T11:50:57Z</time>
      </trkpt>
      <trkpt lat="42.64961" lon="1.6844">
        <ele>2289.267</ele>
        <time>2021-07-19T11:50:59Z</time>
      </trkpt>
      <trkpt lat="42.64961" lon="1.6844">
        <ele>2289.261</ele>
        <time>2021-07-19T11:51:01Z</time>
      </trkpt>
      <trkpt lat="42.64961" lon="1.6844">
        <ele>2289.267</ele>
        <time>2021-07-19T11:51:03Z</time>
      </trkpt>
      <trkpt lat="42.64961" lon="1.6844">
        <ele>2289.274</ele>
        <time>2021-07-19T11:51:05Z</time>
      </trkpt>
      <trkpt lat="42.64961" lon="1.6844">
        <ele>2289.27</ele>
        <time>2021-07-19T11:51:07Z</time>
      </trkpt>
      <trkpt lat="42.64961" lon="1.6844">
        <ele>2289.253</ele>
        <time>2021-07-19T11:51:09Z</time>
      </trkpt>
      <trkpt lat="42.64961" lon="1.6844">
        <ele>2289.246</ele>
        <time>2021-07-19T11:51:11Z</time>
      </trkpt>
      <trkpt lat="42.64961" lon="1.6844">
        <ele>2289.24</ele>
        <time>2021-07-19T11:51:13Z</time>
      </trkpt>
      <trkpt lat="42.64961" lon="1.6844">
        <ele>2289.244</ele>
        <time>2021-07-19T11:51:15Z</time>
      </trkpt>
      <trkpt lat="42.64961" lon="1.6844">
        <ele>2289.25</ele>
        <time>2021-07-19T11:51:17Z</time>
      </trkpt>
      <trkpt lat="42.6496" lon="1.6844">
        <ele>2289.355</ele>
        <time>2021-07-19T11:51:19Z</time>
      </trkpt>
      <trkpt lat="42.6496" lon="1.68441">
        <ele>2289.352</ele>
        <time>2021-07-19T11:51:21Z</time>
      </trkpt>
      <trkpt lat="42.6496" lon="1.68441">
        <ele>2289.339</ele>
        <time>2021-07-19T11:51:23Z</time>
      </trkpt>
      <trkpt lat="42.6496" lon="1.68441">
        <ele>2289.328</ele>
        <time>2021-07-19T11:51:25Z</time>
      </trkpt>
      <trkpt lat="42.64959" lon="1.68441">
        <ele>2289.487</ele>
        <time>2021-07-19T11:51:27Z</time>
      </trkpt>
      <trkpt lat="42.64959" lon="1.68441">
        <ele>2289.488</ele>
        <time>2021-07-19T11:51:29Z</time>
      </trkpt>
      <trkpt lat="42.64959" lon="1.68441">
        <ele>2289.49</ele>
        <time>2021-07-19T11:51:31Z</time>
      </trkpt>
      <trkpt lat="42.64959" lon="1.68441">
        <ele>2289.926</ele>
        <time>2021-07-19T11:51:33Z</time>
      </trkpt>
      <trkpt lat="42.64959" lon="1.68441">
        <ele>2289.929</ele>
        <time>2021-07-19T11:51:35Z</time>
      </trkpt>
      <trkpt lat="42.64959" lon="1.68441">
        <ele>2289.515</ele>
        <time>2021-07-19T11:51:37Z</time>
      </trkpt>
      <trkpt lat="42.64958" lon="1.68441">
        <ele>2289.479</ele>
        <time>2021-07-19T11:51:39Z</time>
      </trkpt>
      <trkpt lat="42.64958" lon="1.68441">
        <ele>2289.475</ele>
        <time>2021-07-19T11:51:41Z</time>
      </trkpt>
      <trkpt lat="42.64958" lon="1.68441">
        <ele>2289.473</ele>
        <time>2021-07-19T11:51:43Z</time>
      </trkpt>
      <trkpt lat="42.64958" lon="1.68441">
        <ele>2289.468</ele>
        <time>2021-07-19T11:51:45Z</time>
      </trkpt>
      <trkpt lat="42.64958" lon="1.68441">
        <ele>2289.468</ele>
        <time>2021-07-19T11:51:47Z</time>
      </trkpt>
      <trkpt lat="42.64958" lon="1.68442">
        <ele>2289.522</ele>
        <time>2021-07-19T11:51:49Z</time>
      </trkpt>
      <trkpt lat="42.64956" lon="1.68444">
        <ele>2290.162</ele>
        <time>2021-07-19T11:51:51Z</time>
      </trkpt>
      <trkpt lat="42.64954" lon="1.68445">
        <ele>2289.965</ele>
        <time>2021-07-19T11:51:53Z</time>
      </trkpt>
      <trkpt lat="42.64952" lon="1.68446">
        <ele>2290.103</ele>
        <time>2021-07-19T11:51:55Z</time>
      </trkpt>
      <trkpt lat="42.6495" lon="1.68448">
        <ele>2289.59</ele>
        <time>2021-07-19T11:51:57Z</time>
      </trkpt>
      <trkpt lat="42.64949" lon="1.6845">
        <ele>2289.381</ele>
        <time>2021-07-19T11:51:59Z</time>
      </trkpt>
      <trkpt lat="42.64947" lon="1.68452">
        <ele>2289.172</ele>
        <time>2021-07-19T11:52:01Z</time>
      </trkpt>
      <trkpt lat="42.64946" lon="1.68454">
        <ele>2289.151</ele>
        <time>2021-07-19T11:52:03Z</time>
      </trkpt>
      <trkpt lat="42.64946" lon="1.68457">
        <ele>2288.98</ele>
        <time>2021-07-19T11:52:05Z</time>
      </trkpt>
      <trkpt lat="42.64945" lon="1.68459">
        <ele>2289.048</ele>
        <time>2021-07-19T11:52:07Z</time>
      </trkpt>
      <trkpt lat="42.64944" lon="1.6846">
        <ele>2289.172</ele>
        <time>2021-07-19T11:52:09Z</time>
      </trkpt>
      <trkpt lat="42.64943" lon="1.68461">
        <ele>2289.438</ele>
        <time>2021-07-19T11:52:11Z</time>
      </trkpt>
      <trkpt lat="42.64943" lon="1.68461">
        <ele>2289.081</ele>
        <time>2021-07-19T11:52:13Z</time>
      </trkpt>
      <trkpt lat="42.64943" lon="1.68461">
        <ele>2289.144</ele>
        <time>2021-07-19T11:52:15Z</time>
      </trkpt>
      <trkpt lat="42.64943" lon="1.68461">
        <ele>2289.15</ele>
        <time>2021-07-19T11:52:17Z</time>
      </trkpt>
      <trkpt lat="42.64943" lon="1.68461">
        <ele>2289.152</ele>
        <time>2021-07-19T11:52:19Z</time>
      </trkpt>
      <trkpt lat="42.64943" lon="1.68461">
        <ele>2289.152</ele>
        <time>2021-07-19T11:52:21Z</time>
      </trkpt>
      <trkpt lat="42.64943" lon="1.68461">
        <ele>2289.152</ele>
        <time>2021-07-19T11:52:23Z</time>
      </trkpt>
      <trkpt lat="42.64943" lon="1.68461">
        <ele>2289.151</ele>
        <time>2021-07-19T11:52:25Z</time>
      </trkpt>
      <trkpt lat="42.64943" lon="1.68461">
        <ele>2289.152</ele>
        <time>2021-07-19T11:52:27Z</time>
      </trkpt>
      <trkpt lat="42.64943" lon="1.68461">
        <ele>2289.16</ele>
        <time>2021-07-19T11:52:29Z</time>
      </trkpt>
      <trkpt lat="42.64943" lon="1.68461">
        <ele>2289.161</ele>
        <time>2021-07-19T11:52:31Z</time>
      </trkpt>
      <trkpt lat="42.64943" lon="1.68461">
        <ele>2289.16</ele>
        <time>2021-07-19T11:52:33Z</time>
      </trkpt>
      <trkpt lat="42.64943" lon="1.68461">
        <ele>2289.085</ele>
        <time>2021-07-19T11:52:35Z</time>
      </trkpt>
      <trkpt lat="42.64943" lon="1.68461">
        <ele>2289.092</ele>
        <time>2021-07-19T11:52:37Z</time>
      </trkpt>
      <trkpt lat="42.64943" lon="1.68461">
        <ele>2289.092</ele>
        <time>2021-07-19T11:52:39Z</time>
      </trkpt>
      <trkpt lat="42.64943" lon="1.68461">
        <ele>2289.093</ele>
        <time>2021-07-19T11:52:41Z</time>
      </trkpt>
      <trkpt lat="42.64943" lon="1.68462">
        <ele>2289.146</ele>
        <time>2021-07-19T11:52:43Z</time>
      </trkpt>
      <trkpt lat="42.64944" lon="1.68464">
        <ele>2289.178</ele>
        <time>2021-07-19T11:52:45Z</time>
      </trkpt>
      <trkpt lat="42.64944" lon="1.68464">
        <ele>2288.95</ele>
        <time>2021-07-19T11:52:47Z</time>
      </trkpt>
      <trkpt lat="42.64944" lon="1.68465">
        <ele>2288.317</ele>
        <time>2021-07-19T11:52:49Z</time>
      </trkpt>
      <trkpt lat="42.64944" lon="1.68466">
        <ele>2288.264</ele>
        <time>2021-07-19T11:52:51Z</time>
      </trkpt>
      <trkpt lat="42.64944" lon="1.68467">
        <ele>2288.104</ele>
        <time>2021-07-19T11:52:53Z</time>
      </trkpt>
      <trkpt lat="42.64944" lon="1.68468">
        <ele>2288.033</ele>
        <time>2021-07-19T11:52:55Z</time>
      </trkpt>
      <trkpt lat="42.64944" lon="1.6847">
        <ele>2287.522</ele>
        <time>2021-07-19T11:52:57Z</time>
      </trkpt>
      <trkpt lat="42.64944" lon="1.68472">
        <ele>2287.231</ele>
        <time>2021-07-19T11:52:59Z</time>
      </trkpt>
      <trkpt lat="42.64944" lon="1.68474">
        <ele>2286.453</ele>
        <time>2021-07-19T11:53:01Z</time>
      </trkpt>
      <trkpt lat="42.64944" lon="1.68476">
        <ele>2285.636</ele>
        <time>2021-07-19T11:53:03Z</time>
      </trkpt>
      <trkpt lat="42.64943" lon="1.68478">
        <ele>2285.245</ele>
        <time>2021-07-19T11:53:05Z</time>
      </trkpt>
      <trkpt lat="42.64943" lon="1.6848">
        <ele>2284.588</ele>
        <time>2021-07-19T11:53:07Z</time>
      </trkpt>
      <trkpt lat="42.64942" lon="1.68483">
        <ele>2283.938</ele>
        <time>2021-07-19T11:53:09Z</time>
      </trkpt>
      <trkpt lat="42.6494" lon="1.68485">
        <ele>2283.026</ele>
        <time>2021-07-19T11:53:11Z</time>
      </trkpt>
      <trkpt lat="42.64939" lon="1.68488">
        <ele>2282.591</ele>
        <time>2021-07-19T11:53:13Z</time>
      </trkpt>
      <trkpt lat="42.64938" lon="1.68491">
        <ele>2282.099</ele>
        <time>2021-07-19T11:53:15Z</time>
      </trkpt>
      <trkpt lat="42.64937" lon="1.68494">
        <ele>2282.417</ele>
        <time>2021-07-19T11:53:17Z</time>
      </trkpt>
      <trkpt lat="42.64936" lon="1.68497">
        <ele>2281.76</ele>
        <time>2021-07-19T11:53:19Z</time>
      </trkpt>
      <trkpt lat="42.64935" lon="1.685">
        <ele>2282.042</ele>
        <time>2021-07-19T11:53:21Z</time>
      </trkpt>
      <trkpt lat="42.64935" lon="1.68502">
        <ele>2281.603</ele>
        <time>2021-07-19T11:53:23Z</time>
      </trkpt>
      <trkpt lat="42.64934" lon="1.68505">
        <ele>2281.419</ele>
        <time>2021-07-19T11:53:25Z</time>
      </trkpt>
      <trkpt lat="42.64933" lon="1.68509">
        <ele>2281.451</ele>
        <time>2021-07-19T11:53:27Z</time>
      </trkpt>
      <trkpt lat="42.64932" lon="1.68513">
        <ele>2280.815</ele>
        <time>2021-07-19T11:53:29Z</time>
      </trkpt>
      <trkpt lat="42.64931" lon="1.68516">
        <ele>2280.909</ele>
        <time>2021-07-19T11:53:31Z</time>
      </trkpt>
      <trkpt lat="42.6493" lon="1.68519">
        <ele>2280.184</ele>
        <time>2021-07-19T11:53:33Z</time>
      </trkpt>
      <trkpt lat="42.64929" lon="1.68521">
        <ele>2279.596</ele>
        <time>2021-07-19T11:53:35Z</time>
      </trkpt>
      <trkpt lat="42.64927" lon="1.68523">
        <ele>2279.308</ele>
        <time>2021-07-19T11:53:37Z</time>
      </trkpt>
      <trkpt lat="42.64925" lon="1.68525">
        <ele>2278.686</ele>
        <time>2021-07-19T11:53:39Z</time>
      </trkpt>
      <trkpt lat="42.64924" lon="1.68527">
        <ele>2278.371</ele>
        <time>2021-07-19T11:53:41Z</time>
      </trkpt>
      <trkpt lat="42.64922" lon="1.6853">
        <ele>2278.274</ele>
        <time>2021-07-19T11:53:43Z</time>
      </trkpt>
      <trkpt lat="42.64921" lon="1.68532">
        <ele>2278.537</ele>
        <time>2021-07-19T11:53:45Z</time>
      </trkpt>
      <trkpt lat="42.64919" lon="1.68533">
        <ele>2278.374</ele>
        <time>2021-07-19T11:53:47Z</time>
      </trkpt>
      <trkpt lat="42.64918" lon="1.68535">
        <ele>2278.274</ele>
        <time>2021-07-19T11:53:49Z</time>
      </trkpt>
      <trkpt lat="42.64918" lon="1.68538">
        <ele>2278.128</ele>
        <time>2021-07-19T11:53:51Z</time>
      </trkpt>
      <trkpt lat="42.64917" lon="1.6854">
        <ele>2277.828</ele>
        <time>2021-07-19T11:53:53Z</time>
      </trkpt>
      <trkpt lat="42.64916" lon="1.68542">
        <ele>2278.173</ele>
        <time>2021-07-19T11:53:55Z</time>
      </trkpt>
      <trkpt lat="42.64916" lon="1.68544">
        <ele>2277.661</ele>
        <time>2021-07-19T11:53:57Z</time>
      </trkpt>
      <trkpt lat="42.64915" lon="1.68546">
        <ele>2276.877</ele>
        <time>2021-07-19T11:53:59Z</time>
      </trkpt>
      <trkpt lat="42.64914" lon="1.68548">
        <ele>2276.272</ele>
        <time>2021-07-19T11:54:01Z</time>
      </trkpt>
      <trkpt lat="42.64913" lon="1.68551">
        <ele>2275.895</ele>
        <time>2021-07-19T11:54:03Z</time>
      </trkpt>
      <trkpt lat="42.64912" lon="1.68552">
        <ele>2275.885</ele>
        <time>2021-07-19T11:54:05Z</time>
      </trkpt>
      <trkpt lat="42.6491" lon="1.68553">
        <ele>2275.668</ele>
        <time>2021-07-19T11:54:07Z</time>
      </trkpt>
      <trkpt lat="42.64908" lon="1.68553">
        <ele>2277.413</ele>
        <time>2021-07-19T11:54:09Z</time>
      </trkpt>
      <trkpt lat="42.64907" lon="1.68553">
        <ele>2280.57</ele>
        <time>2021-07-19T11:54:11Z</time>
      </trkpt>
      <trkpt lat="42.64907" lon="1.68553">
        <ele>2280.124</ele>
        <time>2021-07-19T11:54:13Z</time>
      </trkpt>
      <trkpt lat="42.64906" lon="1.68552">
        <ele>2279.563</ele>
        <time>2021-07-19T11:54:15Z</time>
      </trkpt>
      <trkpt lat="42.64905" lon="1.68551">
        <ele>2279.492</ele>
        <time>2021-07-19T11:54:17Z</time>
      </trkpt>
      <trkpt lat="42.64904" lon="1.68551">
        <ele>2278.782</ele>
        <time>2021-07-19T11:54:19Z</time>
      </trkpt>
      <trkpt lat="42.64904" lon="1.68552">
        <ele>2277.978</ele>
        <time>2021-07-19T11:54:21Z</time>
      </trkpt>
      <trkpt lat="42.64904" lon="1.68552">
        <ele>2277.955</ele>
        <time>2021-07-19T11:54:23Z</time>
      </trkpt>
      <trkpt lat="42.64904" lon="1.68552">
        <ele>2277.945</ele>
        <time>2021-07-19T11:54:25Z</time>
      </trkpt>
      <trkpt lat="42.64904" lon="1.68553">
        <ele>2277.736</ele>
        <time>2021-07-19T11:54:27Z</time>
      </trkpt>
      <trkpt lat="42.64904" lon="1.68553">
        <ele>2277.739</ele>
        <time>2021-07-19T11:54:29Z</time>
      </trkpt>
      <trkpt lat="42.64904" lon="1.68553">
        <ele>2277.729</ele>
        <time>2021-07-19T11:54:31Z</time>
      </trkpt>
      <trkpt lat="42.64904" lon="1.68553">
        <ele>2277.728</ele>
        <time>2021-07-19T11:54:33Z</time>
      </trkpt>
      <trkpt lat="42.64904" lon="1.68553">
        <ele>2277.729</ele>
        <time>2021-07-19T11:54:35Z</time>
      </trkpt>
      <trkpt lat="42.64904" lon="1.68553">
        <ele>2277.725</ele>
        <time>2021-07-19T11:54:37Z</time>
      </trkpt>
      <trkpt lat="42.64904" lon="1.68553">
        <ele>2277.725</ele>
        <time>2021-07-19T11:54:39Z</time>
      </trkpt>
      <trkpt lat="42.64904" lon="1.68553">
        <ele>2277.729</ele>
        <time>2021-07-19T11:54:41Z</time>
      </trkpt>
      <trkpt lat="42.64904" lon="1.68553">
        <ele>2277.723</ele>
        <time>2021-07-19T11:54:43Z</time>
      </trkpt>
      <trkpt lat="42.64904" lon="1.68553">
        <ele>2277.72</ele>
        <time>2021-07-19T11:54:45Z</time>
      </trkpt>
      <trkpt lat="42.64904" lon="1.68553">
        <ele>2277.719</ele>
        <time>2021-07-19T11:54:47Z</time>
      </trkpt>
      <trkpt lat="42.64904" lon="1.68553">
        <ele>2277.712</ele>
        <time>2021-07-19T11:54:49Z</time>
      </trkpt>
      <trkpt lat="42.64904" lon="1.68553">
        <ele>2277.704</ele>
        <time>2021-07-19T11:54:51Z</time>
      </trkpt>
      <trkpt lat="42.64904" lon="1.68553">
        <ele>2277.693</ele>
        <time>2021-07-19T11:54:53Z</time>
      </trkpt>
      <trkpt lat="42.64904" lon="1.68553">
        <ele>2277.692</ele>
        <time>2021-07-19T11:54:55Z</time>
      </trkpt>
      <trkpt lat="42.64904" lon="1.68553">
        <ele>2277.686</ele>
        <time>2021-07-19T11:54:57Z</time>
      </trkpt>
      <trkpt lat="42.64904" lon="1.68553">
        <ele>2277.687</ele>
        <time>2021-07-19T11:54:59Z</time>
      </trkpt>
      <trkpt lat="42.64904" lon="1.68553">
        <ele>2277.835</ele>
        <time>2021-07-19T11:55:01Z</time>
      </trkpt>
      <trkpt lat="42.64904" lon="1.68553">
        <ele>2277.847</ele>
        <time>2021-07-19T11:55:03Z</time>
      </trkpt>
      <trkpt lat="42.64904" lon="1.68553">
        <ele>2277.849</ele>
        <time>2021-07-19T11:55:05Z</time>
      </trkpt>
      <trkpt lat="42.64904" lon="1.68553">
        <ele>2278.264</ele>
        <time>2021-07-19T11:55:07Z</time>
      </trkpt>
      <trkpt lat="42.64904" lon="1.68553">
        <ele>2278.414</ele>
        <time>2021-07-19T11:55:09Z</time>
      </trkpt>
      <trkpt lat="42.64905" lon="1.68553">
        <ele>2278.4</ele>
        <time>2021-07-19T11:55:11Z</time>
      </trkpt>
      <trkpt lat="42.64905" lon="1.68553">
        <ele>2278.385</ele>
        <time>2021-07-19T11:55:13Z</time>
      </trkpt>
      <trkpt lat="42.64905" lon="1.68553">
        <ele>2278.087</ele>
        <time>2021-07-19T11:55:15Z</time>
      </trkpt>
      <trkpt lat="42.64905" lon="1.68553">
        <ele>2278.084</ele>
        <time>2021-07-19T11:55:17Z</time>
      </trkpt>
      <trkpt lat="42.64905" lon="1.68553">
        <ele>2278.083</ele>
        <time>2021-07-19T11:55:19Z</time>
      </trkpt>
      <trkpt lat="42.64905" lon="1.68553">
        <ele>2278.088</ele>
        <time>2021-07-19T11:55:21Z</time>
      </trkpt>
      <trkpt lat="42.64905" lon="1.68553">
        <ele>2278.052</ele>
        <time>2021-07-19T11:55:23Z</time>
      </trkpt>
      <trkpt lat="42.64905" lon="1.68553">
        <ele>2278.034</ele>
        <time>2021-07-19T11:55:25Z</time>
      </trkpt>
      <trkpt lat="42.64905" lon="1.68553">
        <ele>2278.034</ele>
        <time>2021-07-19T11:55:27Z</time>
      </trkpt>
      <trkpt lat="42.64905" lon="1.68553">
        <ele>2278.034</ele>
        <time>2021-07-19T11:55:29Z</time>
      </trkpt>
      <trkpt lat="42.64905" lon="1.68553">
        <ele>2278.029</ele>
        <time>2021-07-19T11:55:31Z</time>
      </trkpt>
      <trkpt lat="42.64905" lon="1.68553">
        <ele>2278.033</ele>
        <time>2021-07-19T11:55:33Z</time>
      </trkpt>
      <trkpt lat="42.64905" lon="1.68553">
        <ele>2278.011</ele>
        <time>2021-07-19T11:55:35Z</time>
      </trkpt>
      <trkpt lat="42.64905" lon="1.68553">
        <ele>2277.97</ele>
        <time>2021-07-19T11:55:37Z</time>
      </trkpt>
      <trkpt lat="42.64905" lon="1.68553">
        <ele>2277.954</ele>
        <time>2021-07-19T11:55:39Z</time>
      </trkpt>
      <trkpt lat="42.64905" lon="1.68553">
        <ele>2277.957</ele>
        <time>2021-07-19T11:55:41Z</time>
      </trkpt>
      <trkpt lat="42.64905" lon="1.68553">
        <ele>2277.966</ele>
        <time>2021-07-19T11:55:43Z</time>
      </trkpt>
      <trkpt lat="42.64905" lon="1.68553">
        <ele>2277.973</ele>
        <time>2021-07-19T11:55:45Z</time>
      </trkpt>
      <trkpt lat="42.64905" lon="1.68553">
        <ele>2277.957</ele>
        <time>2021-07-19T11:55:47Z</time>
      </trkpt>
      <trkpt lat="42.64905" lon="1.68552">
        <ele>2277.957</ele>
        <time>2021-07-19T11:55:49Z</time>
      </trkpt>
      <trkpt lat="42.64905" lon="1.68552">
        <ele>2277.632</ele>
        <time>2021-07-19T11:55:51Z</time>
      </trkpt>
      <trkpt lat="42.64903" lon="1.68553">
        <ele>2277.77</ele>
        <time>2021-07-19T11:55:53Z</time>
      </trkpt>
      <trkpt lat="42.64903" lon="1.68554">
        <ele>2277.785</ele>
        <time>2021-07-19T11:55:55Z</time>
      </trkpt>
      <trkpt lat="42.64902" lon="1.68557">
        <ele>2277.699</ele>
        <time>2021-07-19T11:55:57Z</time>
      </trkpt>
      <trkpt lat="42.64902" lon="1.68559">
        <ele>2278.106</ele>
        <time>2021-07-19T11:55:59Z</time>
      </trkpt>
      <trkpt lat="42.64903" lon="1.68562">
        <ele>2278.411</ele>
        <time>2021-07-19T11:56:01Z</time>
      </trkpt>
      <trkpt lat="42.64904" lon="1.68564">
        <ele>2279.425</ele>
        <time>2021-07-19T11:56:03Z</time>
      </trkpt>
      <trkpt lat="42.64905" lon="1.68566">
        <ele>2279.484</ele>
        <time>2021-07-19T11:56:05Z</time>
      </trkpt>
      <trkpt lat="42.64906" lon="1.68566">
        <ele>2279.596</ele>
        <time>2021-07-19T11:56:07Z</time>
      </trkpt>
      <trkpt lat="42.64906" lon="1.68566">
        <ele>2279.689</ele>
        <time>2021-07-19T11:56:09Z</time>
      </trkpt>
      <trkpt lat="42.64906" lon="1.68566">
        <ele>2279.688</ele>
        <time>2021-07-19T11:56:11Z</time>
      </trkpt>
      <trkpt lat="42.64906" lon="1.68566">
        <ele>2279.684</ele>
        <time>2021-07-19T11:56:13Z</time>
      </trkpt>
      <trkpt lat="42.64906" lon="1.68566">
        <ele>2279.683</ele>
        <time>2021-07-19T11:56:15Z</time>
      </trkpt>
      <trkpt lat="42.64906" lon="1.68566">
        <ele>2279.682</ele>
        <time>2021-07-19T11:56:17Z</time>
      </trkpt>
      <trkpt lat="42.64906" lon="1.68566">
        <ele>2279.675</ele>
        <time>2021-07-19T11:56:19Z</time>
      </trkpt>
      <trkpt lat="42.64906" lon="1.68566">
        <ele>2279.662</ele>
        <time>2021-07-19T11:56:21Z</time>
      </trkpt>
      <trkpt lat="42.64906" lon="1.68566">
        <ele>2279.657</ele>
        <time>2021-07-19T11:56:23Z</time>
      </trkpt>
      <trkpt lat="42.64906" lon="1.68566">
        <ele>2279.659</ele>
        <time>2021-07-19T11:56:25Z</time>
      </trkpt>
      <trkpt lat="42.64906" lon="1.68566">
        <ele>2279.326</ele>
        <time>2021-07-19T11:56:27Z</time>
      </trkpt>
      <trkpt lat="42.64906" lon="1.68565">
        <ele>2279.181</ele>
        <time>2021-07-19T11:56:29Z</time>
      </trkpt>
      <trkpt lat="42.64903" lon="1.68567">
        <ele>2280.198</ele>
        <time>2021-07-19T11:56:31Z</time>
      </trkpt>
      <trkpt lat="42.64902" lon="1.68566">
        <ele>2279.924</ele>
        <time>2021-07-19T11:56:33Z</time>
      </trkpt>
      <trkpt lat="42.649" lon="1.68565">
        <ele>2279.143</ele>
        <time>2021-07-19T11:56:35Z</time>
      </trkpt>
      <trkpt lat="42.64899" lon="1.68564">
        <ele>2279.158</ele>
        <time>2021-07-19T11:56:37Z</time>
      </trkpt>
      <trkpt lat="42.64897" lon="1.68564">
        <ele>2279.235</ele>
        <time>2021-07-19T11:56:39Z</time>
      </trkpt>
      <trkpt lat="42.64895" lon="1.68563">
        <ele>2279.386</ele>
        <time>2021-07-19T11:56:41Z</time>
      </trkpt>
      <trkpt lat="42.64893" lon="1.68563">
        <ele>2279.156</ele>
        <time>2021-07-19T11:56:43Z</time>
      </trkpt>
      <trkpt lat="42.64891" lon="1.68563">
        <ele>2278.939</ele>
        <time>2021-07-19T11:56:45Z</time>
      </trkpt>
      <trkpt lat="42.64889" lon="1.68563">
        <ele>2278.48</ele>
        <time>2021-07-19T11:56:47Z</time>
      </trkpt>
      <trkpt lat="42.64887" lon="1.68563">
        <ele>2278.489</ele>
        <time>2021-07-19T11:56:49Z</time>
      </trkpt>
      <trkpt lat="42.64885" lon="1.68563">
        <ele>2278.101</ele>
        <time>2021-07-19T11:56:51Z</time>
      </trkpt>
      <trkpt lat="42.64884" lon="1.68563">
        <ele>2277.865</ele>
        <time>2021-07-19T11:56:53Z</time>
      </trkpt>
      <trkpt lat="42.64883" lon="1.68564">
        <ele>2276.894</ele>
        <time>2021-07-19T11:56:55Z</time>
      </trkpt>
      <trkpt lat="42.64882" lon="1.68565">
        <ele>2277.05</ele>
        <time>2021-07-19T11:56:57Z</time>
      </trkpt>
      <trkpt lat="42.64881" lon="1.68567">
        <ele>2277.132</ele>
        <time>2021-07-19T11:56:59Z</time>
      </trkpt>
      <trkpt lat="42.64879" lon="1.68569">
        <ele>2276.869</ele>
        <time>2021-07-19T11:57:02Z</time>
      </trkpt>
      <trkpt lat="42.64877" lon="1.6857">
        <ele>2276.665</ele>
        <time>2021-07-19T11:57:04Z</time>
      </trkpt>
      <trkpt lat="42.64875" lon="1.6857">
        <ele>2277.185</ele>
        <time>2021-07-19T11:57:06Z</time>
      </trkpt>
      <trkpt lat="42.64873" lon="1.68571">
        <ele>2277.698</ele>
        <time>2021-07-19T11:57:08Z</time>
      </trkpt>
      <trkpt lat="42.64872" lon="1.68572">
        <ele>2277.885</ele>
        <time>2021-07-19T11:57:10Z</time>
      </trkpt>
      <trkpt lat="42.6487" lon="1.68571">
        <ele>2279.016</ele>
        <time>2021-07-19T11:57:12Z</time>
      </trkpt>
      <trkpt lat="42.64868" lon="1.68571">
        <ele>2279.036</ele>
        <time>2021-07-19T11:57:14Z</time>
      </trkpt>
      <trkpt lat="42.64867" lon="1.6857">
        <ele>2280.003</ele>
        <time>2021-07-19T11:57:16Z</time>
      </trkpt>
      <trkpt lat="42.64865" lon="1.6857">
        <ele>2280.551</ele>
        <time>2021-07-19T11:57:18Z</time>
      </trkpt>
      <trkpt lat="42.64864" lon="1.68571">
        <ele>2281.099</ele>
        <time>2021-07-19T11:57:20Z</time>
      </trkpt>
      <trkpt lat="42.64862" lon="1.68572">
        <ele>2280.271</ele>
        <time>2021-07-19T11:57:22Z</time>
      </trkpt>
      <trkpt lat="42.64861" lon="1.68572">
        <ele>2279.8</ele>
        <time>2021-07-19T11:57:24Z</time>
      </trkpt>
      <trkpt lat="42.6486" lon="1.68572">
        <ele>2279.459</ele>
        <time>2021-07-19T11:57:26Z</time>
      </trkpt>
      <trkpt lat="42.64859" lon="1.68574">
        <ele>2278.81</ele>
        <time>2021-07-19T11:57:28Z</time>
      </trkpt>
      <trkpt lat="42.64858" lon="1.68576">
        <ele>2278.143</ele>
        <time>2021-07-19T11:57:30Z</time>
      </trkpt>
      <trkpt lat="42.64857" lon="1.68578">
        <ele>2278.122</ele>
        <time>2021-07-19T11:57:32Z</time>
      </trkpt>
      <trkpt lat="42.64856" lon="1.6858">
        <ele>2277.591</ele>
        <time>2021-07-19T11:57:34Z</time>
      </trkpt>
      <trkpt lat="42.64856" lon="1.68582">
        <ele>2277.206</ele>
        <time>2021-07-19T11:57:36Z</time>
      </trkpt>
      <trkpt lat="42.64856" lon="1.68584">
        <ele>2276.485</ele>
        <time>2021-07-19T11:57:38Z</time>
      </trkpt>
      <trkpt lat="42.64856" lon="1.68586">
        <ele>2275.301</ele>
        <time>2021-07-19T11:57:40Z</time>
      </trkpt>
      <trkpt lat="42.64855" lon="1.68587">
        <ele>2274.851</ele>
        <time>2021-07-19T11:57:42Z</time>
      </trkpt>
      <trkpt lat="42.64855" lon="1.68587">
        <ele>2274.55</ele>
        <time>2021-07-19T11:57:44Z</time>
      </trkpt>
      <trkpt lat="42.64854" lon="1.68587">
        <ele>2274.719</ele>
        <time>2021-07-19T11:57:46Z</time>
      </trkpt>
      <trkpt lat="42.64852" lon="1.68587">
        <ele>2275.457</ele>
        <time>2021-07-19T11:57:48Z</time>
      </trkpt>
      <trkpt lat="42.64852" lon="1.68587">
        <ele>2275.349</ele>
        <time>2021-07-19T11:57:50Z</time>
      </trkpt>
      <trkpt lat="42.64852" lon="1.68587">
        <ele>2275.552</ele>
        <time>2021-07-19T11:57:52Z</time>
      </trkpt>
      <trkpt lat="42.64852" lon="1.68587">
        <ele>2274.823</ele>
        <time>2021-07-19T11:57:54Z</time>
      </trkpt>
      <trkpt lat="42.6485" lon="1.68586">
        <ele>2274.808</ele>
        <time>2021-07-19T11:57:56Z</time>
      </trkpt>
      <trkpt lat="42.64849" lon="1.68586">
        <ele>2275.052</ele>
        <time>2021-07-19T11:57:58Z</time>
      </trkpt>
      <trkpt lat="42.64848" lon="1.68586">
        <ele>2275.457</ele>
        <time>2021-07-19T11:58:00Z</time>
      </trkpt>
      <trkpt lat="42.64847" lon="1.68587">
        <ele>2275.203</ele>
        <time>2021-07-19T11:58:02Z</time>
      </trkpt>
      <trkpt lat="42.64845" lon="1.68587">
        <ele>2275.572</ele>
        <time>2021-07-19T11:58:04Z</time>
      </trkpt>
      <trkpt lat="42.64844" lon="1.68587">
        <ele>2276.002</ele>
        <time>2021-07-19T11:58:06Z</time>
      </trkpt>
      <trkpt lat="42.64844" lon="1.68588">
        <ele>2275.639</ele>
        <time>2021-07-19T11:58:08Z</time>
      </trkpt>
      <trkpt lat="42.64844" lon="1.68587">
        <ele>2275.248</ele>
        <time>2021-07-19T11:58:10Z</time>
      </trkpt>
      <trkpt lat="42.64843" lon="1.68587">
        <ele>2275.066</ele>
        <time>2021-07-19T11:58:12Z</time>
      </trkpt>
      <trkpt lat="42.64842" lon="1.68587">
        <ele>2274.326</ele>
        <time>2021-07-19T11:58:14Z</time>
      </trkpt>
      <trkpt lat="42.64842" lon="1.68587">
        <ele>2274.629</ele>
        <time>2021-07-19T11:58:16Z</time>
      </trkpt>
      <trkpt lat="42.64842" lon="1.68587">
        <ele>2274.186</ele>
        <time>2021-07-19T11:58:18Z</time>
      </trkpt>
      <trkpt lat="42.64841" lon="1.68587">
        <ele>2274.232</ele>
        <time>2021-07-19T11:58:20Z</time>
      </trkpt>
      <trkpt lat="42.6484" lon="1.68588">
        <ele>2274.032</ele>
        <time>2021-07-19T11:58:22Z</time>
      </trkpt>
      <trkpt lat="42.64839" lon="1.68588">
        <ele>2274.24</ele>
        <time>2021-07-19T11:58:24Z</time>
      </trkpt>
      <trkpt lat="42.64839" lon="1.68588">
        <ele>2274.115</ele>
        <time>2021-07-19T11:58:26Z</time>
      </trkpt>
      <trkpt lat="42.64838" lon="1.68587">
        <ele>2274.068</ele>
        <time>2021-07-19T11:58:28Z</time>
      </trkpt>
      <trkpt lat="42.64838" lon="1.68587">
        <ele>2274.045</ele>
        <time>2021-07-19T11:58:30Z</time>
      </trkpt>
      <trkpt lat="42.64837" lon="1.68586">
        <ele>2272.863</ele>
        <time>2021-07-19T11:58:32Z</time>
      </trkpt>
      <trkpt lat="42.64836" lon="1.68586">
        <ele>2273.028</ele>
        <time>2021-07-19T11:58:34Z</time>
      </trkpt>
      <trkpt lat="42.64835" lon="1.68586">
        <ele>2272.867</ele>
        <time>2021-07-19T11:58:36Z</time>
      </trkpt>
      <trkpt lat="42.64835" lon="1.68586">
        <ele>2272.791</ele>
        <time>2021-07-19T11:58:38Z</time>
      </trkpt>
      <trkpt lat="42.64835" lon="1.68586">
        <ele>2272.297</ele>
        <time>2021-07-19T11:58:40Z</time>
      </trkpt>
      <trkpt lat="42.64835" lon="1.68588">
        <ele>2271.186</ele>
        <time>2021-07-19T11:58:42Z</time>
      </trkpt>
      <trkpt lat="42.64835" lon="1.6859">
        <ele>2270.665</ele>
        <time>2021-07-19T11:58:44Z</time>
      </trkpt>
      <trkpt lat="42.64835" lon="1.68591">
        <ele>2270.136</ele>
        <time>2021-07-19T11:58:46Z</time>
      </trkpt>
      <trkpt lat="42.64835" lon="1.68593">
        <ele>2269.725</ele>
        <time>2021-07-19T11:58:48Z</time>
      </trkpt>
      <trkpt lat="42.64836" lon="1.68595">
        <ele>2269.61</ele>
        <time>2021-07-19T11:58:50Z</time>
      </trkpt>
      <trkpt lat="42.64835" lon="1.68597">
        <ele>2269.756</ele>
        <time>2021-07-19T11:58:52Z</time>
      </trkpt>
      <trkpt lat="42.64835" lon="1.68599">
        <ele>2269.833</ele>
        <time>2021-07-19T11:58:54Z</time>
      </trkpt>
      <trkpt lat="42.64835" lon="1.686">
        <ele>2269.908</ele>
        <time>2021-07-19T11:58:56Z</time>
      </trkpt>
      <trkpt lat="42.64834" lon="1.68601">
        <ele>2269.646</ele>
        <time>2021-07-19T11:58:58Z</time>
      </trkpt>
      <trkpt lat="42.64833" lon="1.68603">
        <ele>2269.133</ele>
        <time>2021-07-19T11:59:00Z</time>
      </trkpt>
      <trkpt lat="42.64832" lon="1.68604">
        <ele>2268.434</ele>
        <time>2021-07-19T11:59:02Z</time>
      </trkpt>
      <trkpt lat="42.64831" lon="1.68605">
        <ele>2267.84</ele>
        <time>2021-07-19T11:59:04Z</time>
      </trkpt>
      <trkpt lat="42.64831" lon="1.68606">
        <ele>2267.167</ele>
        <time>2021-07-19T11:59:06Z</time>
      </trkpt>
      <trkpt lat="42.6483" lon="1.68607">
        <ele>2266.258</ele>
        <time>2021-07-19T11:59:08Z</time>
      </trkpt>
      <trkpt lat="42.64829" lon="1.68609">
        <ele>2265.996</ele>
        <time>2021-07-19T11:59:10Z</time>
      </trkpt>
      <trkpt lat="42.64828" lon="1.6861">
        <ele>2265.825</ele>
        <time>2021-07-19T11:59:12Z</time>
      </trkpt>
      <trkpt lat="42.64827" lon="1.68612">
        <ele>2266.058</ele>
        <time>2021-07-19T11:59:14Z</time>
      </trkpt>
      <trkpt lat="42.64826" lon="1.68614">
        <ele>2265.912</ele>
        <time>2021-07-19T11:59:16Z</time>
      </trkpt>
      <trkpt lat="42.64827" lon="1.68616">
        <ele>2265.392</ele>
        <time>2021-07-19T11:59:18Z</time>
      </trkpt>
      <trkpt lat="42.64828" lon="1.68617">
        <ele>2265.135</ele>
        <time>2021-07-19T11:59:20Z</time>
      </trkpt>
      <trkpt lat="42.64829" lon="1.68619">
        <ele>2264.153</ele>
        <time>2021-07-19T11:59:22Z</time>
      </trkpt>
      <trkpt lat="42.6483" lon="1.6862">
        <ele>2262.596</ele>
        <time>2021-07-19T11:59:24Z</time>
      </trkpt>
      <trkpt lat="42.64832" lon="1.68622">
        <ele>2261.765</ele>
        <time>2021-07-19T11:59:26Z</time>
      </trkpt>
      <trkpt lat="42.64833" lon="1.68623">
        <ele>2261.548</ele>
        <time>2021-07-19T11:59:28Z</time>
      </trkpt>
      <trkpt lat="42.64834" lon="1.68625">
        <ele>2261.572</ele>
        <time>2021-07-19T11:59:30Z</time>
      </trkpt>
      <trkpt lat="42.64835" lon="1.68627">
        <ele>2260.996</ele>
        <time>2021-07-19T11:59:32Z</time>
      </trkpt>
      <trkpt lat="42.64836" lon="1.68629">
        <ele>2260.763</ele>
        <time>2021-07-19T11:59:34Z</time>
      </trkpt>
      <trkpt lat="42.64837" lon="1.68631">
        <ele>2260.393</ele>
        <time>2021-07-19T11:59:36Z</time>
      </trkpt>
      <trkpt lat="42.64838" lon="1.68633">
        <ele>2260.342</ele>
        <time>2021-07-19T11:59:38Z</time>
      </trkpt>
      <trkpt lat="42.64839" lon="1.68636">
        <ele>2260.65</ele>
        <time>2021-07-19T11:59:40Z</time>
      </trkpt>
      <trkpt lat="42.6484" lon="1.68638">
        <ele>2259.835</ele>
        <time>2021-07-19T11:59:42Z</time>
      </trkpt>
      <trkpt lat="42.64842" lon="1.68639">
        <ele>2260.056</ele>
        <time>2021-07-19T11:59:44Z</time>
      </trkpt>
      <trkpt lat="42.64843" lon="1.6864">
        <ele>2259.641</ele>
        <time>2021-07-19T11:59:46Z</time>
      </trkpt>
      <trkpt lat="42.64845" lon="1.68642">
        <ele>2259.391</ele>
        <time>2021-07-19T11:59:48Z</time>
      </trkpt>
      <trkpt lat="42.64847" lon="1.68644">
        <ele>2259.96</ele>
        <time>2021-07-19T11:59:50Z</time>
      </trkpt>
      <trkpt lat="42.64848" lon="1.68641">
        <ele>2260.501</ele>
        <time>2021-07-19T11:59:52Z</time>
      </trkpt>
      <trkpt lat="42.64847" lon="1.68639">
        <ele>2261.134</ele>
        <time>2021-07-19T11:59:54Z</time>
      </trkpt>
      <trkpt lat="42.64847" lon="1.68639">
        <ele>2261.138</ele>
        <time>2021-07-19T11:59:56Z</time>
      </trkpt>
      <trkpt lat="42.64847" lon="1.68639">
        <ele>2261.146</ele>
        <time>2021-07-19T11:59:58Z</time>
      </trkpt>
      <trkpt lat="42.64846" lon="1.68639">
        <ele>2261.131</ele>
        <time>2021-07-19T12:00:00Z</time>
      </trkpt>
      <trkpt lat="42.64845" lon="1.68638">
        <ele>2262.139</ele>
        <time>2021-07-19T12:00:02Z</time>
      </trkpt>
      <trkpt lat="42.64845" lon="1.68638">
        <ele>2262.079</ele>
        <time>2021-07-19T12:00:04Z</time>
      </trkpt>
      <trkpt lat="42.64845" lon="1.68638">
        <ele>2262.079</ele>
        <time>2021-07-19T12:00:06Z</time>
      </trkpt>
      <trkpt lat="42.64845" lon="1.68638">
        <ele>2262.076</ele>
        <time>2021-07-19T12:00:08Z</time>
      </trkpt>
      <trkpt lat="42.64845" lon="1.68638">
        <ele>2262.075</ele>
        <time>2021-07-19T12:00:10Z</time>
      </trkpt>
      <trkpt lat="42.64845" lon="1.68638">
        <ele>2262.073</ele>
        <time>2021-07-19T12:00:12Z</time>
      </trkpt>
      <trkpt lat="42.64845" lon="1.68638">
        <ele>2262.071</ele>
        <time>2021-07-19T12:00:14Z</time>
      </trkpt>
      <trkpt lat="42.64845" lon="1.68638">
        <ele>2262.071</ele>
        <time>2021-07-19T12:00:16Z</time>
      </trkpt>
      <trkpt lat="42.64845" lon="1.68638">
        <ele>2262.068</ele>
        <time>2021-07-19T12:00:18Z</time>
      </trkpt>
      <trkpt lat="42.64845" lon="1.68638">
        <ele>2262.063</ele>
        <time>2021-07-19T12:00:20Z</time>
      </trkpt>
      <trkpt lat="42.64845" lon="1.68638">
        <ele>2261.896</ele>
        <time>2021-07-19T12:00:22Z</time>
      </trkpt>
      <trkpt lat="42.64845" lon="1.68638">
        <ele>2261.885</ele>
        <time>2021-07-19T12:00:24Z</time>
      </trkpt>
      <trkpt lat="42.64845" lon="1.68638">
        <ele>2261.887</ele>
        <time>2021-07-19T12:00:26Z</time>
      </trkpt>
      <trkpt lat="42.64845" lon="1.68638">
        <ele>2261.613</ele>
        <time>2021-07-19T12:00:28Z</time>
      </trkpt>
      <trkpt lat="42.64846" lon="1.6864">
        <ele>2260.337</ele>
        <time>2021-07-19T12:00:30Z</time>
      </trkpt>
      <trkpt lat="42.64848" lon="1.68641">
        <ele>2260.288</ele>
        <time>2021-07-19T12:00:32Z</time>
      </trkpt>
      <trkpt lat="42.64849" lon="1.68643">
        <ele>2260.062</ele>
        <time>2021-07-19T12:00:34Z</time>
      </trkpt>
      <trkpt lat="42.6485" lon="1.68644">
        <ele>2259.479</ele>
        <time>2021-07-19T12:00:36Z</time>
      </trkpt>
      <trkpt lat="42.64852" lon="1.68645">
        <ele>2260.413</ele>
        <time>2021-07-19T12:00:38Z</time>
      </trkpt>
      <trkpt lat="42.64852" lon="1.68645">
        <ele>2260.343</ele>
        <time>2021-07-19T12:00:40Z</time>
      </trkpt>
      <trkpt lat="42.64852" lon="1.68646">
        <ele>2260.138</ele>
        <time>2021-07-19T12:00:42Z</time>
      </trkpt>
      <trkpt lat="42.64853" lon="1.68646">
        <ele>2260.079</ele>
        <time>2021-07-19T12:00:44Z</time>
      </trkpt>
      <trkpt lat="42.64854" lon="1.68646">
        <ele>2260.378</ele>
        <time>2021-07-19T12:00:46Z</time>
      </trkpt>
      <trkpt lat="42.64855" lon="1.68647">
        <ele>2260.693</ele>
        <time>2021-07-19T12:00:48Z</time>
      </trkpt>
      <trkpt lat="42.64856" lon="1.68648">
        <ele>2260.782</ele>
        <time>2021-07-19T12:00:50Z</time>
      </trkpt>
      <trkpt lat="42.64856" lon="1.68648">
        <ele>2260.818</ele>
        <time>2021-07-19T12:00:52Z</time>
      </trkpt>
      <trkpt lat="42.64857" lon="1.68647">
        <ele>2260.891</ele>
        <time>2021-07-19T12:00:54Z</time>
      </trkpt>
      <trkpt lat="42.64858" lon="1.68648">
        <ele>2260.481</ele>
        <time>2021-07-19T12:00:56Z</time>
      </trkpt>
      <trkpt lat="42.6486" lon="1.68647">
        <ele>2261.141</ele>
        <time>2021-07-19T12:00:58Z</time>
      </trkpt>
      <trkpt lat="42.64861" lon="1.68647">
        <ele>2261.146</ele>
        <time>2021-07-19T12:01:00Z</time>
      </trkpt>
      <trkpt lat="42.64862" lon="1.68647">
        <ele>2261.109</ele>
        <time>2021-07-19T12:01:02Z</time>
      </trkpt>
      <trkpt lat="42.64863" lon="1.68648">
        <ele>2260.964</ele>
        <time>2021-07-19T12:01:04Z</time>
      </trkpt>
      <trkpt lat="42.64863" lon="1.68649">
        <ele>2260.222</ele>
        <time>2021-07-19T12:01:06Z</time>
      </trkpt>
      <trkpt lat="42.64864" lon="1.6865">
        <ele>2260.049</ele>
        <time>2021-07-19T12:01:08Z</time>
      </trkpt>
      <trkpt lat="42.64865" lon="1.68651">
        <ele>2259.958</ele>
        <time>2021-07-19T12:01:10Z</time>
      </trkpt>
      <trkpt lat="42.64866" lon="1.68652">
        <ele>2259.007</ele>
        <time>2021-07-19T12:01:12Z</time>
      </trkpt>
      <trkpt lat="42.64867" lon="1.68653">
        <ele>2258.993</ele>
        <time>2021-07-19T12:01:14Z</time>
      </trkpt>
      <trkpt lat="42.64868" lon="1.68655">
        <ele>2258.998</ele>
        <time>2021-07-19T12:01:16Z</time>
      </trkpt>
      <trkpt lat="42.64869" lon="1.68655">
        <ele>2259.024</ele>
        <time>2021-07-19T12:01:18Z</time>
      </trkpt>
      <trkpt lat="42.6487" lon="1.68656">
        <ele>2258.915</ele>
        <time>2021-07-19T12:01:20Z</time>
      </trkpt>
      <trkpt lat="42.64871" lon="1.68657">
        <ele>2259.028</ele>
        <time>2021-07-19T12:01:22Z</time>
      </trkpt>
      <trkpt lat="42.64871" lon="1.68657">
        <ele>2258.721</ele>
        <time>2021-07-19T12:01:24Z</time>
      </trkpt>
      <trkpt lat="42.64871" lon="1.68657">
        <ele>2258.537</ele>
        <time>2021-07-19T12:01:26Z</time>
      </trkpt>
      <trkpt lat="42.64872" lon="1.68657">
        <ele>2257.693</ele>
        <time>2021-07-19T12:01:28Z</time>
      </trkpt>
      <trkpt lat="42.64872" lon="1.68656">
        <ele>2256.74</ele>
        <time>2021-07-19T12:01:30Z</time>
      </trkpt>
      <trkpt lat="42.64873" lon="1.68657">
        <ele>2255.68</ele>
        <time>2021-07-19T12:01:32Z</time>
      </trkpt>
      <trkpt lat="42.64875" lon="1.68656">
        <ele>2255.421</ele>
        <time>2021-07-19T12:01:34Z</time>
      </trkpt>
      <trkpt lat="42.64876" lon="1.68656">
        <ele>2254.777</ele>
        <time>2021-07-19T12:01:36Z</time>
      </trkpt>
      <trkpt lat="42.64877" lon="1.68656">
        <ele>2254.452</ele>
        <time>2021-07-19T12:01:38Z</time>
      </trkpt>
      <trkpt lat="42.64878" lon="1.68657">
        <ele>2254.704</ele>
        <time>2021-07-19T12:01:40Z</time>
      </trkpt>
      <trkpt lat="42.64878" lon="1.68658">
        <ele>2254.719</ele>
        <time>2021-07-19T12:01:42Z</time>
      </trkpt>
      <trkpt lat="42.64879" lon="1.68659">
        <ele>2254.546</ele>
        <time>2021-07-19T12:01:44Z</time>
      </trkpt>
      <trkpt lat="42.64881" lon="1.68658">
        <ele>2254.223</ele>
        <time>2021-07-19T12:01:46Z</time>
      </trkpt>
      <trkpt lat="42.64881" lon="1.68658">
        <ele>2254.141</ele>
        <time>2021-07-19T12:01:48Z</time>
      </trkpt>
      <trkpt lat="42.64882" lon="1.68658">
        <ele>2253.736</ele>
        <time>2021-07-19T12:01:50Z</time>
      </trkpt>
      <trkpt lat="42.64883" lon="1.68658">
        <ele>2253.365</ele>
        <time>2021-07-19T12:01:52Z</time>
      </trkpt>
      <trkpt lat="42.64884" lon="1.68657">
        <ele>2252.976</ele>
        <time>2021-07-19T12:01:54Z</time>
      </trkpt>
      <trkpt lat="42.64885" lon="1.68656">
        <ele>2252.422</ele>
        <time>2021-07-19T12:01:56Z</time>
      </trkpt>
      <trkpt lat="42.64885" lon="1.68656">
        <ele>2252.392</ele>
        <time>2021-07-19T12:01:58Z</time>
      </trkpt>
      <trkpt lat="42.64885" lon="1.68656">
        <ele>2252.388</ele>
        <time>2021-07-19T12:02:00Z</time>
      </trkpt>
      <trkpt lat="42.64885" lon="1.68656">
        <ele>2252.726</ele>
        <time>2021-07-19T12:02:02Z</time>
      </trkpt>
      <trkpt lat="42.64885" lon="1.68656">
        <ele>2252.722</ele>
        <time>2021-07-19T12:02:04Z</time>
      </trkpt>
      <trkpt lat="42.64885" lon="1.68656">
        <ele>2252.443</ele>
        <time>2021-07-19T12:02:06Z</time>
      </trkpt>
      <trkpt lat="42.64886" lon="1.68656">
        <ele>2252.578</ele>
        <time>2021-07-19T12:02:08Z</time>
      </trkpt>
      <trkpt lat="42.64887" lon="1.68655">
        <ele>2252.394</ele>
        <time>2021-07-19T12:02:10Z</time>
      </trkpt>
      <trkpt lat="42.64887" lon="1.68655">
        <ele>2252.288</ele>
        <time>2021-07-19T12:02:12Z</time>
      </trkpt>
      <trkpt lat="42.64887" lon="1.68656">
        <ele>2252.188</ele>
        <time>2021-07-19T12:02:14Z</time>
      </trkpt>
      <trkpt lat="42.64887" lon="1.68656">
        <ele>2252.304</ele>
        <time>2021-07-19T12:02:16Z</time>
      </trkpt>
      <trkpt lat="42.64888" lon="1.68657">
        <ele>2251.988</ele>
        <time>2021-07-19T12:02:18Z</time>
      </trkpt>
      <trkpt lat="42.64888" lon="1.68657">
        <ele>2252.305</ele>
        <time>2021-07-19T12:02:20Z</time>
      </trkpt>
      <trkpt lat="42.64888" lon="1.68657">
        <ele>2252.293</ele>
        <time>2021-07-19T12:02:22Z</time>
      </trkpt>
      <trkpt lat="42.64889" lon="1.68657">
        <ele>2252.056</ele>
        <time>2021-07-19T12:02:24Z</time>
      </trkpt>
      <trkpt lat="42.6489" lon="1.68657">
        <ele>2251.793</ele>
        <time>2021-07-19T12:02:26Z</time>
      </trkpt>
      <trkpt lat="42.64891" lon="1.68657">
        <ele>2252.017</ele>
        <time>2021-07-19T12:02:28Z</time>
      </trkpt>
      <trkpt lat="42.64891" lon="1.68657">
        <ele>2252.018</ele>
        <time>2021-07-19T12:02:30Z</time>
      </trkpt>
      <trkpt lat="42.64891" lon="1.68658">
        <ele>2251.775</ele>
        <time>2021-07-19T12:02:32Z</time>
      </trkpt>
      <trkpt lat="42.64892" lon="1.68659">
        <ele>2251.833</ele>
        <time>2021-07-19T12:02:34Z</time>
      </trkpt>
      <trkpt lat="42.64893" lon="1.68659">
        <ele>2252.923</ele>
        <time>2021-07-19T12:02:36Z</time>
      </trkpt>
      <trkpt lat="42.64894" lon="1.68659">
        <ele>2252.71</ele>
        <time>2021-07-19T12:02:38Z</time>
      </trkpt>
      <trkpt lat="42.64894" lon="1.68659">
        <ele>2252.704</ele>
        <time>2021-07-19T12:02:40Z</time>
      </trkpt>
      <trkpt lat="42.64894" lon="1.6866">
        <ele>2252.617</ele>
        <time>2021-07-19T12:02:42Z</time>
      </trkpt>
      <trkpt lat="42.64894" lon="1.68661">
        <ele>2252.577</ele>
        <time>2021-07-19T12:02:44Z</time>
      </trkpt>
      <trkpt lat="42.64894" lon="1.68661">
        <ele>2252.291</ele>
        <time>2021-07-19T12:02:46Z</time>
      </trkpt>
      <trkpt lat="42.64894" lon="1.68662">
        <ele>2252.012</ele>
        <time>2021-07-19T12:02:48Z</time>
      </trkpt>
      <trkpt lat="42.64894" lon="1.68663">
        <ele>2252.12</ele>
        <time>2021-07-19T12:02:50Z</time>
      </trkpt>
      <trkpt lat="42.64893" lon="1.68663">
        <ele>2252.121</ele>
        <time>2021-07-19T12:02:52Z</time>
      </trkpt>
      <trkpt lat="42.64893" lon="1.68663">
        <ele>2251.436</ele>
        <time>2021-07-19T12:02:54Z</time>
      </trkpt>
      <trkpt lat="42.64893" lon="1.68665">
        <ele>2250.888</ele>
        <time>2021-07-19T12:02:56Z</time>
      </trkpt>
      <trkpt lat="42.64893" lon="1.68666">
        <ele>2251.213</ele>
        <time>2021-07-19T12:02:58Z</time>
      </trkpt>
      <trkpt lat="42.64894" lon="1.68666">
        <ele>2251.175</ele>
        <time>2021-07-19T12:03:00Z</time>
      </trkpt>
      <trkpt lat="42.64894" lon="1.68665">
        <ele>2250.938</ele>
        <time>2021-07-19T12:03:02Z</time>
      </trkpt>
      <trkpt lat="42.64894" lon="1.68665">
        <ele>2250.775</ele>
        <time>2021-07-19T12:03:04Z</time>
      </trkpt>
      <trkpt lat="42.64895" lon="1.68664">
        <ele>2249.29</ele>
        <time>2021-07-19T12:03:06Z</time>
      </trkpt>
      <trkpt lat="42.64895" lon="1.68663">
        <ele>2249.678</ele>
        <time>2021-07-19T12:03:08Z</time>
      </trkpt>
      <trkpt lat="42.64896" lon="1.68663">
        <ele>2249.469</ele>
        <time>2021-07-19T12:03:10Z</time>
      </trkpt>
      <trkpt lat="42.64896" lon="1.68664">
        <ele>2249.499</ele>
        <time>2021-07-19T12:03:12Z</time>
      </trkpt>
      <trkpt lat="42.64896" lon="1.68664">
        <ele>2249.482</ele>
        <time>2021-07-19T12:03:14Z</time>
      </trkpt>
      <trkpt lat="42.64897" lon="1.68664">
        <ele>2248.833</ele>
        <time>2021-07-19T12:03:16Z</time>
      </trkpt>
      <trkpt lat="42.64897" lon="1.68664">
        <ele>2248.785</ele>
        <time>2021-07-19T12:03:18Z</time>
      </trkpt>
      <trkpt lat="42.64898" lon="1.68663">
        <ele>2249.556</ele>
        <time>2021-07-19T12:03:20Z</time>
      </trkpt>
      <trkpt lat="42.64898" lon="1.68663">
        <ele>2249.15</ele>
        <time>2021-07-19T12:03:22Z</time>
      </trkpt>
      <trkpt lat="42.64899" lon="1.68663">
        <ele>2248.794</ele>
        <time>2021-07-19T12:03:24Z</time>
      </trkpt>
      <trkpt lat="42.64899" lon="1.68663">
        <ele>2248.743</ele>
        <time>2021-07-19T12:03:26Z</time>
      </trkpt>
      <trkpt lat="42.64899" lon="1.68663">
        <ele>2248.647</ele>
        <time>2021-07-19T12:03:28Z</time>
      </trkpt>
      <trkpt lat="42.649" lon="1.68663">
        <ele>2247.767</ele>
        <time>2021-07-19T12:03:30Z</time>
      </trkpt>
      <trkpt lat="42.64902" lon="1.68664">
        <ele>2247.453</ele>
        <time>2021-07-19T12:03:32Z</time>
      </trkpt>
      <trkpt lat="42.64903" lon="1.68663">
        <ele>2246.396</ele>
        <time>2021-07-19T12:03:34Z</time>
      </trkpt>
      <trkpt lat="42.64903" lon="1.68662">
        <ele>2246.002</ele>
        <time>2021-07-19T12:03:36Z</time>
      </trkpt>
      <trkpt lat="42.64904" lon="1.68662">
        <ele>2246.058</ele>
        <time>2021-07-19T12:03:38Z</time>
      </trkpt>
      <trkpt lat="42.64904" lon="1.68661">
        <ele>2245.706</ele>
        <time>2021-07-19T12:03:40Z</time>
      </trkpt>
      <trkpt lat="42.64905" lon="1.68661">
        <ele>2246.204</ele>
        <time>2021-07-19T12:03:42Z</time>
      </trkpt>
      <trkpt lat="42.64905" lon="1.68661">
        <ele>2245.239</ele>
        <time>2021-07-19T12:03:44Z</time>
      </trkpt>
      <trkpt lat="42.64906" lon="1.68661">
        <ele>2245.041</ele>
        <time>2021-07-19T12:03:46Z</time>
      </trkpt>
      <trkpt lat="42.64907" lon="1.68661">
        <ele>2244.721</ele>
        <time>2021-07-19T12:03:48Z</time>
      </trkpt>
      <trkpt lat="42.64907" lon="1.6866">
        <ele>2243.654</ele>
        <time>2021-07-19T12:03:50Z</time>
      </trkpt>
      <trkpt lat="42.64908" lon="1.68659">
        <ele>2243.677</ele>
        <time>2021-07-19T12:03:52Z</time>
      </trkpt>
      <trkpt lat="42.64908" lon="1.68658">
        <ele>2243.256</ele>
        <time>2021-07-19T12:03:54Z</time>
      </trkpt>
      <trkpt lat="42.64908" lon="1.68658">
        <ele>2243.245</ele>
        <time>2021-07-19T12:03:56Z</time>
      </trkpt>
      <trkpt lat="42.64908" lon="1.68658">
        <ele>2242.837</ele>
        <time>2021-07-19T12:03:58Z</time>
      </trkpt>
      <trkpt lat="42.64909" lon="1.68658">
        <ele>2242.952</ele>
        <time>2021-07-19T12:04:00Z</time>
      </trkpt>
      <trkpt lat="42.6491" lon="1.68657">
        <ele>2241.583</ele>
        <time>2021-07-19T12:04:02Z</time>
      </trkpt>
      <trkpt lat="42.64911" lon="1.68657">
        <ele>2241.781</ele>
        <time>2021-07-19T12:04:04Z</time>
      </trkpt>
      <trkpt lat="42.64912" lon="1.68657">
        <ele>2240.906</ele>
        <time>2021-07-19T12:04:06Z</time>
      </trkpt>
      <trkpt lat="42.64913" lon="1.68656">
        <ele>2240.51</ele>
        <time>2021-07-19T12:04:08Z</time>
      </trkpt>
      <trkpt lat="42.64914" lon="1.68655">
        <ele>2239.205</ele>
        <time>2021-07-19T12:04:10Z</time>
      </trkpt>
      <trkpt lat="42.64914" lon="1.68654">
        <ele>2238.289</ele>
        <time>2021-07-19T12:04:12Z</time>
      </trkpt>
      <trkpt lat="42.64917" lon="1.68654">
        <ele>2238.037</ele>
        <time>2021-07-19T12:04:14Z</time>
      </trkpt>
      <trkpt lat="42.64917" lon="1.68655">
        <ele>2237.897</ele>
        <time>2021-07-19T12:04:16Z</time>
      </trkpt>
      <trkpt lat="42.64918" lon="1.68654">
        <ele>2237.213</ele>
        <time>2021-07-19T12:04:18Z</time>
      </trkpt>
      <trkpt lat="42.64919" lon="1.68654">
        <ele>2237.256</ele>
        <time>2021-07-19T12:04:20Z</time>
      </trkpt>
      <trkpt lat="42.64919" lon="1.68653">
        <ele>2237.091</ele>
        <time>2021-07-19T12:04:22Z</time>
      </trkpt>
      <trkpt lat="42.6492" lon="1.68653">
        <ele>2236.189</ele>
        <time>2021-07-19T12:04:24Z</time>
      </trkpt>
      <trkpt lat="42.6492" lon="1.68652">
        <ele>2235.703</ele>
        <time>2021-07-19T12:04:26Z</time>
      </trkpt>
      <trkpt lat="42.64921" lon="1.68651">
        <ele>2235.261</ele>
        <time>2021-07-19T12:04:28Z</time>
      </trkpt>
      <trkpt lat="42.64922" lon="1.68651">
        <ele>2234.678</ele>
        <time>2021-07-19T12:04:30Z</time>
      </trkpt>
      <trkpt lat="42.64923" lon="1.6865">
        <ele>2234.517</ele>
        <time>2021-07-19T12:04:32Z</time>
      </trkpt>
      <trkpt lat="42.64925" lon="1.6865">
        <ele>2233.27</ele>
        <time>2021-07-19T12:04:34Z</time>
      </trkpt>
      <trkpt lat="42.64926" lon="1.6865">
        <ele>2233.047</ele>
        <time>2021-07-19T12:04:36Z</time>
      </trkpt>
      <trkpt lat="42.64926" lon="1.6865">
        <ele>2232.398</ele>
        <time>2021-07-19T12:04:38Z</time>
      </trkpt>
      <trkpt lat="42.64927" lon="1.68649">
        <ele>2231.803</ele>
        <time>2021-07-19T12:04:40Z</time>
      </trkpt>
      <trkpt lat="42.64928" lon="1.68647">
        <ele>2230.702</ele>
        <time>2021-07-19T12:04:42Z</time>
      </trkpt>
      <trkpt lat="42.64927" lon="1.68646">
        <ele>2230.081</ele>
        <time>2021-07-19T12:04:44Z</time>
      </trkpt>
      <trkpt lat="42.64927" lon="1.68646">
        <ele>2230.048</ele>
        <time>2021-07-19T12:04:46Z</time>
      </trkpt>
      <trkpt lat="42.64927" lon="1.68646">
        <ele>2230.044</ele>
        <time>2021-07-19T12:04:48Z</time>
      </trkpt>
      <trkpt lat="42.64927" lon="1.68646">
        <ele>2230.045</ele>
        <time>2021-07-19T12:04:50Z</time>
      </trkpt>
      <trkpt lat="42.64927" lon="1.68646">
        <ele>2230.048</ele>
        <time>2021-07-19T12:04:52Z</time>
      </trkpt>
      <trkpt lat="42.64927" lon="1.68646">
        <ele>2229.873</ele>
        <time>2021-07-19T12:04:54Z</time>
      </trkpt>
      <trkpt lat="42.64927" lon="1.68647">
        <ele>2228.535</ele>
        <time>2021-07-19T12:04:56Z</time>
      </trkpt>
      <trkpt lat="42.64928" lon="1.68647">
        <ele>2228.562</ele>
        <time>2021-07-19T12:04:58Z</time>
      </trkpt>
      <trkpt lat="42.64928" lon="1.68648">
        <ele>2228.378</ele>
        <time>2021-07-19T12:05:00Z</time>
      </trkpt>
      <trkpt lat="42.64928" lon="1.68648">
        <ele>2228.256</ele>
        <time>2021-07-19T12:05:02Z</time>
      </trkpt>
      <trkpt lat="42.64928" lon="1.68648">
        <ele>2228.005</ele>
        <time>2021-07-19T12:05:04Z</time>
      </trkpt>
      <trkpt lat="42.64928" lon="1.68648">
        <ele>2227.891</ele>
        <time>2021-07-19T12:05:06Z</time>
      </trkpt>
      <trkpt lat="42.64929" lon="1.68646">
        <ele>2227.124</ele>
        <time>2021-07-19T12:05:08Z</time>
      </trkpt>
      <trkpt lat="42.64929" lon="1.68647">
        <ele>2226.867</ele>
        <time>2021-07-19T12:05:10Z</time>
      </trkpt>
      <trkpt lat="42.64931" lon="1.68647">
        <ele>2225.218</ele>
        <time>2021-07-19T12:05:12Z</time>
      </trkpt>
      <trkpt lat="42.64932" lon="1.68646">
        <ele>2223.757</ele>
        <time>2021-07-19T12:05:14Z</time>
      </trkpt>
      <trkpt lat="42.64933" lon="1.68645">
        <ele>2222.809</ele>
        <time>2021-07-19T12:05:16Z</time>
      </trkpt>
      <trkpt lat="42.64934" lon="1.68644">
        <ele>2222.553</ele>
        <time>2021-07-19T12:05:18Z</time>
      </trkpt>
      <trkpt lat="42.64934" lon="1.68645">
        <ele>2222.247</ele>
        <time>2021-07-19T12:05:21Z</time>
      </trkpt>
      <trkpt lat="42.64936" lon="1.68645">
        <ele>2222.794</ele>
        <time>2021-07-19T12:05:23Z</time>
      </trkpt>
      <trkpt lat="42.64936" lon="1.68646">
        <ele>2223.819</ele>
        <time>2021-07-19T12:05:25Z</time>
      </trkpt>
      <trkpt lat="42.64936" lon="1.68646">
        <ele>2223.078</ele>
        <time>2021-07-19T12:05:27Z</time>
      </trkpt>
      <trkpt lat="42.64937" lon="1.68645">
        <ele>2223.28</ele>
        <time>2021-07-19T12:05:29Z</time>
      </trkpt>
      <trkpt lat="42.64937" lon="1.68646">
        <ele>2223.474</ele>
        <time>2021-07-19T12:05:31Z</time>
      </trkpt>
      <trkpt lat="42.64938" lon="1.68648">
        <ele>2222.976</ele>
        <time>2021-07-19T12:05:33Z</time>
      </trkpt>
      <trkpt lat="42.64941" lon="1.68647">
        <ele>2222.943</ele>
        <time>2021-07-19T12:05:35Z</time>
      </trkpt>
      <trkpt lat="42.64942" lon="1.68646">
        <ele>2222.722</ele>
        <time>2021-07-19T12:05:37Z</time>
      </trkpt>
      <trkpt lat="42.64944" lon="1.68646">
        <ele>2222.669</ele>
        <time>2021-07-19T12:05:39Z</time>
      </trkpt>
      <trkpt lat="42.64946" lon="1.68648">
        <ele>2223.238</ele>
        <time>2021-07-19T12:05:41Z</time>
      </trkpt>
      <trkpt lat="42.64948" lon="1.68648">
        <ele>2222.696</ele>
        <time>2021-07-19T12:05:43Z</time>
      </trkpt>
      <trkpt lat="42.64949" lon="1.6865">
        <ele>2222.558</ele>
        <time>2021-07-19T12:05:45Z</time>
      </trkpt>
      <trkpt lat="42.64951" lon="1.68651">
        <ele>2222.534</ele>
        <time>2021-07-19T12:05:47Z</time>
      </trkpt>
      <trkpt lat="42.64953" lon="1.68651">
        <ele>2222.929</ele>
        <time>2021-07-19T12:05:49Z</time>
      </trkpt>
      <trkpt lat="42.64954" lon="1.68652">
        <ele>2222.332</ele>
        <time>2021-07-19T12:05:51Z</time>
      </trkpt>
      <trkpt lat="42.64955" lon="1.68653">
        <ele>2222.659</ele>
        <time>2021-07-19T12:05:53Z</time>
      </trkpt>
      <trkpt lat="42.64954" lon="1.68654">
        <ele>2222.214</ele>
        <time>2021-07-19T12:05:55Z</time>
      </trkpt>
      <trkpt lat="42.64954" lon="1.68654">
        <ele>2222.197</ele>
        <time>2021-07-19T12:05:57Z</time>
      </trkpt>
      <trkpt lat="42.64954" lon="1.68654">
        <ele>2222.179</ele>
        <time>2021-07-19T12:05:59Z</time>
      </trkpt>
      <trkpt lat="42.64955" lon="1.68655">
        <ele>2222.118</ele>
        <time>2021-07-19T12:06:01Z</time>
      </trkpt>
      <trkpt lat="42.64956" lon="1.68656">
        <ele>2221.707</ele>
        <time>2021-07-19T12:06:03Z</time>
      </trkpt>
      <trkpt lat="42.64957" lon="1.68656">
        <ele>2221.458</ele>
        <time>2021-07-19T12:06:05Z</time>
      </trkpt>
      <trkpt lat="42.64959" lon="1.68657">
        <ele>2221.81</ele>
        <time>2021-07-19T12:06:07Z</time>
      </trkpt>
      <trkpt lat="42.64959" lon="1.68656">
        <ele>2220.932</ele>
        <time>2021-07-19T12:06:09Z</time>
      </trkpt>
      <trkpt lat="42.6496" lon="1.68656">
        <ele>2220.024</ele>
        <time>2021-07-19T12:06:11Z</time>
      </trkpt>
      <trkpt lat="42.64961" lon="1.68656">
        <ele>2220.524</ele>
        <time>2021-07-19T12:06:13Z</time>
      </trkpt>
      <trkpt lat="42.64962" lon="1.68657">
        <ele>2220.557</ele>
        <time>2021-07-19T12:06:15Z</time>
      </trkpt>
      <trkpt lat="42.64964" lon="1.68657">
        <ele>2220.251</ele>
        <time>2021-07-19T12:06:17Z</time>
      </trkpt>
      <trkpt lat="42.64966" lon="1.68658">
        <ele>2220.671</ele>
        <time>2021-07-19T12:06:19Z</time>
      </trkpt>
      <trkpt lat="42.64967" lon="1.68659">
        <ele>2220.817</ele>
        <time>2021-07-19T12:06:21Z</time>
      </trkpt>
      <trkpt lat="42.64969" lon="1.68658">
        <ele>2221.149</ele>
        <time>2021-07-19T12:06:23Z</time>
      </trkpt>
      <trkpt lat="42.64971" lon="1.68658">
        <ele>2220.887</ele>
        <time>2021-07-19T12:06:25Z</time>
      </trkpt>
      <trkpt lat="42.64972" lon="1.68659">
        <ele>2220.905</ele>
        <time>2021-07-19T12:06:27Z</time>
      </trkpt>
      <trkpt lat="42.64974" lon="1.68659">
        <ele>2220.641</ele>
        <time>2021-07-19T12:06:29Z</time>
      </trkpt>
      <trkpt lat="42.64974" lon="1.6866">
        <ele>2220.112</ele>
        <time>2021-07-19T12:06:31Z</time>
      </trkpt>
      <trkpt lat="42.64976" lon="1.68661">
        <ele>2219.771</ele>
        <time>2021-07-19T12:06:33Z</time>
      </trkpt>
      <trkpt lat="42.64977" lon="1.68661">
        <ele>2219.043</ele>
        <time>2021-07-19T12:06:35Z</time>
      </trkpt>
      <trkpt lat="42.64979" lon="1.68662">
        <ele>2220.269</ele>
        <time>2021-07-19T12:06:37Z</time>
      </trkpt>
      <trkpt lat="42.6498" lon="1.68662">
        <ele>2220.455</ele>
        <time>2021-07-19T12:06:39Z</time>
      </trkpt>
      <trkpt lat="42.64981" lon="1.68662">
        <ele>2219.92</ele>
        <time>2021-07-19T12:06:41Z</time>
      </trkpt>
      <trkpt lat="42.64982" lon="1.68662">
        <ele>2219.979</ele>
        <time>2021-07-19T12:06:43Z</time>
      </trkpt>
      <trkpt lat="42.64983" lon="1.68663">
        <ele>2219.393</ele>
        <time>2021-07-19T12:06:45Z</time>
      </trkpt>
      <trkpt lat="42.64983" lon="1.68664">
        <ele>2219.163</ele>
        <time>2021-07-19T12:06:47Z</time>
      </trkpt>
      <trkpt lat="42.64984" lon="1.68665">
        <ele>2219.216</ele>
        <time>2021-07-19T12:06:49Z</time>
      </trkpt>
      <trkpt lat="42.64985" lon="1.68667">
        <ele>2219.439</ele>
        <time>2021-07-19T12:06:51Z</time>
      </trkpt>
      <trkpt lat="42.64986" lon="1.68667">
        <ele>2219.519</ele>
        <time>2021-07-19T12:06:53Z</time>
      </trkpt>
      <trkpt lat="42.64987" lon="1.68668">
        <ele>2218.847</ele>
        <time>2021-07-19T12:06:55Z</time>
      </trkpt>
      <trkpt lat="42.64989" lon="1.68669">
        <ele>2218.216</ele>
        <time>2021-07-19T12:06:57Z</time>
      </trkpt>
      <trkpt lat="42.6499" lon="1.6867">
        <ele>2218.122</ele>
        <time>2021-07-19T12:06:59Z</time>
      </trkpt>
      <trkpt lat="42.64991" lon="1.68671">
        <ele>2217.746</ele>
        <time>2021-07-19T12:07:01Z</time>
      </trkpt>
      <trkpt lat="42.64992" lon="1.68673">
        <ele>2217.557</ele>
        <time>2021-07-19T12:07:03Z</time>
      </trkpt>
      <trkpt lat="42.64993" lon="1.68675">
        <ele>2216.933</ele>
        <time>2021-07-19T12:07:05Z</time>
      </trkpt>
      <trkpt lat="42.64995" lon="1.68677">
        <ele>2217.499</ele>
        <time>2021-07-19T12:07:07Z</time>
      </trkpt>
      <trkpt lat="42.64997" lon="1.68678">
        <ele>2218.385</ele>
        <time>2021-07-19T12:07:09Z</time>
      </trkpt>
      <trkpt lat="42.64998" lon="1.68678">
        <ele>2218.513</ele>
        <time>2021-07-19T12:07:11Z</time>
      </trkpt>
      <trkpt lat="42.64999" lon="1.6868">
        <ele>2218.411</ele>
        <time>2021-07-19T12:07:13Z</time>
      </trkpt>
      <trkpt lat="42.65" lon="1.68682">
        <ele>2219.012</ele>
        <time>2021-07-19T12:07:15Z</time>
      </trkpt>
      <trkpt lat="42.65" lon="1.68682">
        <ele>2218.465</ele>
        <time>2021-07-19T12:07:17Z</time>
      </trkpt>
      <trkpt lat="42.65001" lon="1.68683">
        <ele>2217.656</ele>
        <time>2021-07-19T12:07:19Z</time>
      </trkpt>
      <trkpt lat="42.65001" lon="1.68684">
        <ele>2217.102</ele>
        <time>2021-07-19T12:07:21Z</time>
      </trkpt>
      <trkpt lat="42.65002" lon="1.68686">
        <ele>2216.431</ele>
        <time>2021-07-19T12:07:23Z</time>
      </trkpt>
      <trkpt lat="42.65002" lon="1.68687">
        <ele>2215.892</ele>
        <time>2021-07-19T12:07:25Z</time>
      </trkpt>
      <trkpt lat="42.65003" lon="1.68688">
        <ele>2215.096</ele>
        <time>2021-07-19T12:07:27Z</time>
      </trkpt>
      <trkpt lat="42.65004" lon="1.6869">
        <ele>2214.386</ele>
        <time>2021-07-19T12:07:29Z</time>
      </trkpt>
      <trkpt lat="42.65005" lon="1.68691">
        <ele>2213.85</ele>
        <time>2021-07-19T12:07:31Z</time>
      </trkpt>
      <trkpt lat="42.65005" lon="1.68693">
        <ele>2213.105</ele>
        <time>2021-07-19T12:07:33Z</time>
      </trkpt>
      <trkpt lat="42.65006" lon="1.68695">
        <ele>2212.134</ele>
        <time>2021-07-19T12:07:35Z</time>
      </trkpt>
      <trkpt lat="42.65007" lon="1.68696">
        <ele>2212.033</ele>
        <time>2021-07-19T12:07:37Z</time>
      </trkpt>
      <trkpt lat="42.65008" lon="1.68698">
        <ele>2212.132</ele>
        <time>2021-07-19T12:07:39Z</time>
      </trkpt>
      <trkpt lat="42.65009" lon="1.687">
        <ele>2211.98</ele>
        <time>2021-07-19T12:07:41Z</time>
      </trkpt>
      <trkpt lat="42.65011" lon="1.68701">
        <ele>2212.076</ele>
        <time>2021-07-19T12:07:43Z</time>
      </trkpt>
      <trkpt lat="42.65013" lon="1.68702">
        <ele>2212.018</ele>
        <time>2021-07-19T12:07:45Z</time>
      </trkpt>
      <trkpt lat="42.65015" lon="1.68703">
        <ele>2211.829</ele>
        <time>2021-07-19T12:07:47Z</time>
      </trkpt>
      <trkpt lat="42.65016" lon="1.68705">
        <ele>2211.178</ele>
        <time>2021-07-19T12:07:49Z</time>
      </trkpt>
      <trkpt lat="42.65017" lon="1.68706">
        <ele>2211.639</ele>
        <time>2021-07-19T12:07:51Z</time>
      </trkpt>
      <trkpt lat="42.65018" lon="1.68708">
        <ele>2211.908</ele>
        <time>2021-07-19T12:07:53Z</time>
      </trkpt>
      <trkpt lat="42.65017" lon="1.68709">
        <ele>2212.239</ele>
        <time>2021-07-19T12:07:55Z</time>
      </trkpt>
      <trkpt lat="42.65017" lon="1.68712">
        <ele>2212.074</ele>
        <time>2021-07-19T12:07:57Z</time>
      </trkpt>
      <trkpt lat="42.65017" lon="1.68714">
        <ele>2212.162</ele>
        <time>2021-07-19T12:07:59Z</time>
      </trkpt>
      <trkpt lat="42.65018" lon="1.68714">
        <ele>2211.751</ele>
        <time>2021-07-19T12:08:01Z</time>
      </trkpt>
      <trkpt lat="42.65019" lon="1.68715">
        <ele>2210.796</ele>
        <time>2021-07-19T12:08:03Z</time>
      </trkpt>
      <trkpt lat="42.6502" lon="1.68717">
        <ele>2210.292</ele>
        <time>2021-07-19T12:08:05Z</time>
      </trkpt>
      <trkpt lat="42.65022" lon="1.68718">
        <ele>2209.167</ele>
        <time>2021-07-19T12:08:07Z</time>
      </trkpt>
      <trkpt lat="42.65023" lon="1.6872">
        <ele>2208.371</ele>
        <time>2021-07-19T12:08:09Z</time>
      </trkpt>
      <trkpt lat="42.65025" lon="1.68722">
        <ele>2208.119</ele>
        <time>2021-07-19T12:08:11Z</time>
      </trkpt>
      <trkpt lat="42.65027" lon="1.68723">
        <ele>2207.884</ele>
        <time>2021-07-19T12:08:13Z</time>
      </trkpt>
      <trkpt lat="42.65028" lon="1.68723">
        <ele>2207.589</ele>
        <time>2021-07-19T12:08:15Z</time>
      </trkpt>
      <trkpt lat="42.65029" lon="1.68724">
        <ele>2206.626</ele>
        <time>2021-07-19T12:08:17Z</time>
      </trkpt>
      <trkpt lat="42.65032" lon="1.68725">
        <ele>2207.334</ele>
        <time>2021-07-19T12:08:19Z</time>
      </trkpt>
      <trkpt lat="42.65033" lon="1.68725">
        <ele>2207.216</ele>
        <time>2021-07-19T12:08:21Z</time>
      </trkpt>
      <trkpt lat="42.65035" lon="1.68726">
        <ele>2207.036</ele>
        <time>2021-07-19T12:08:23Z</time>
      </trkpt>
      <trkpt lat="42.65037" lon="1.68727">
        <ele>2206.747</ele>
        <time>2021-07-19T12:08:25Z</time>
      </trkpt>
      <trkpt lat="42.65038" lon="1.68729">
        <ele>2206.318</ele>
        <time>2021-07-19T12:08:27Z</time>
      </trkpt>
      <trkpt lat="42.65039" lon="1.68731">
        <ele>2205.199</ele>
        <time>2021-07-19T12:08:29Z</time>
      </trkpt>
      <trkpt lat="42.65041" lon="1.68733">
        <ele>2205.317</ele>
        <time>2021-07-19T12:08:31Z</time>
      </trkpt>
      <trkpt lat="42.65043" lon="1.68736">
        <ele>2204.735</ele>
        <time>2021-07-19T12:08:33Z</time>
      </trkpt>
      <trkpt lat="42.65044" lon="1.68738">
        <ele>2204.485</ele>
        <time>2021-07-19T12:08:35Z</time>
      </trkpt>
      <trkpt lat="42.65045" lon="1.6874">
        <ele>2203.756</ele>
        <time>2021-07-19T12:08:37Z</time>
      </trkpt>
      <trkpt lat="42.65046" lon="1.68743">
        <ele>2202.944</ele>
        <time>2021-07-19T12:08:39Z</time>
      </trkpt>
      <trkpt lat="42.65048" lon="1.68744">
        <ele>2202.722</ele>
        <time>2021-07-19T12:08:41Z</time>
      </trkpt>
      <trkpt lat="42.65049" lon="1.68746">
        <ele>2202.325</ele>
        <time>2021-07-19T12:08:43Z</time>
      </trkpt>
      <trkpt lat="42.65051" lon="1.68748">
        <ele>2202.394</ele>
        <time>2021-07-19T12:08:45Z</time>
      </trkpt>
      <trkpt lat="42.65052" lon="1.68749">
        <ele>2202.288</ele>
        <time>2021-07-19T12:08:47Z</time>
      </trkpt>
      <trkpt lat="42.65054" lon="1.68749">
        <ele>2201.803</ele>
        <time>2021-07-19T12:08:49Z</time>
      </trkpt>
      <trkpt lat="42.65055" lon="1.6875">
        <ele>2201.292</ele>
        <time>2021-07-19T12:08:51Z</time>
      </trkpt>
      <trkpt lat="42.65056" lon="1.68752">
        <ele>2201.084</ele>
        <time>2021-07-19T12:08:53Z</time>
      </trkpt>
      <trkpt lat="42.65058" lon="1.68754">
        <ele>2200.925</ele>
        <time>2021-07-19T12:08:55Z</time>
      </trkpt>
      <trkpt lat="42.65059" lon="1.68756">
        <ele>2199.912</ele>
        <time>2021-07-19T12:08:57Z</time>
      </trkpt>
      <trkpt lat="42.6506" lon="1.68758">
        <ele>2199.571</ele>
        <time>2021-07-19T12:08:59Z</time>
      </trkpt>
      <trkpt lat="42.65062" lon="1.6876">
        <ele>2198.801</ele>
        <time>2021-07-19T12:09:01Z</time>
      </trkpt>
      <trkpt lat="42.65063" lon="1.68761">
        <ele>2197.937</ele>
        <time>2021-07-19T12:09:03Z</time>
      </trkpt>
      <trkpt lat="42.65063" lon="1.68763">
        <ele>2197.412</ele>
        <time>2021-07-19T12:09:05Z</time>
      </trkpt>
      <trkpt lat="42.65064" lon="1.68765">
        <ele>2197.048</ele>
        <time>2021-07-19T12:09:07Z</time>
      </trkpt>
      <trkpt lat="42.65064" lon="1.68766">
        <ele>2196.594</ele>
        <time>2021-07-19T12:09:09Z</time>
      </trkpt>
      <trkpt lat="42.65064" lon="1.68766">
        <ele>2196.575</ele>
        <time>2021-07-19T12:09:11Z</time>
      </trkpt>
      <trkpt lat="42.65064" lon="1.68766">
        <ele>2196.153</ele>
        <time>2021-07-19T12:09:13Z</time>
      </trkpt>
      <trkpt lat="42.65064" lon="1.68768">
        <ele>2195.538</ele>
        <time>2021-07-19T12:09:15Z</time>
      </trkpt>
      <trkpt lat="42.65065" lon="1.68771">
        <ele>2194.942</ele>
        <time>2021-07-19T12:09:17Z</time>
      </trkpt>
      <trkpt lat="42.65066" lon="1.68773">
        <ele>2194.578</ele>
        <time>2021-07-19T12:09:19Z</time>
      </trkpt>
      <trkpt lat="42.65066" lon="1.68775">
        <ele>2194.204</ele>
        <time>2021-07-19T12:09:21Z</time>
      </trkpt>
      <trkpt lat="42.65067" lon="1.68777">
        <ele>2194.097</ele>
        <time>2021-07-19T12:09:23Z</time>
      </trkpt>
      <trkpt lat="42.65068" lon="1.68779">
        <ele>2193.736</ele>
        <time>2021-07-19T12:09:25Z</time>
      </trkpt>
      <trkpt lat="42.65069" lon="1.68782">
        <ele>2193.956</ele>
        <time>2021-07-19T12:09:27Z</time>
      </trkpt>
      <trkpt lat="42.6507" lon="1.68783">
        <ele>2193.091</ele>
        <time>2021-07-19T12:09:29Z</time>
      </trkpt>
      <trkpt lat="42.65071" lon="1.68785">
        <ele>2191.928</ele>
        <time>2021-07-19T12:09:31Z</time>
      </trkpt>
      <trkpt lat="42.65072" lon="1.68786">
        <ele>2191.143</ele>
        <time>2021-07-19T12:09:33Z</time>
      </trkpt>
      <trkpt lat="42.65073" lon="1.68788">
        <ele>2190.507</ele>
        <time>2021-07-19T12:09:35Z</time>
      </trkpt>
      <trkpt lat="42.65074" lon="1.6879">
        <ele>2190.642</ele>
        <time>2021-07-19T12:09:37Z</time>
      </trkpt>
      <trkpt lat="42.65076" lon="1.68791">
        <ele>2190.077</ele>
        <time>2021-07-19T12:09:39Z</time>
      </trkpt>
      <trkpt lat="42.65077" lon="1.68792">
        <ele>2189.295</ele>
        <time>2021-07-19T12:09:41Z</time>
      </trkpt>
      <trkpt lat="42.65079" lon="1.68793">
        <ele>2188.972</ele>
        <time>2021-07-19T12:09:43Z</time>
      </trkpt>
      <trkpt lat="42.65081" lon="1.68794">
        <ele>2188.199</ele>
        <time>2021-07-19T12:09:45Z</time>
      </trkpt>
      <trkpt lat="42.65082" lon="1.68796">
        <ele>2187.854</ele>
        <time>2021-07-19T12:09:47Z</time>
      </trkpt>
      <trkpt lat="42.65083" lon="1.68798">
        <ele>2187.738</ele>
        <time>2021-07-19T12:09:49Z</time>
      </trkpt>
      <trkpt lat="42.65085" lon="1.68799">
        <ele>2186.712</ele>
        <time>2021-07-19T12:09:51Z</time>
      </trkpt>
      <trkpt lat="42.65087" lon="1.688">
        <ele>2185.994</ele>
        <time>2021-07-19T12:09:53Z</time>
      </trkpt>
      <trkpt lat="42.65089" lon="1.68802">
        <ele>2185.426</ele>
        <time>2021-07-19T12:09:55Z</time>
      </trkpt>
      <trkpt lat="42.65091" lon="1.68803">
        <ele>2184.358</ele>
        <time>2021-07-19T12:09:57Z</time>
      </trkpt>
      <trkpt lat="42.65093" lon="1.68804">
        <ele>2184.335</ele>
        <time>2021-07-19T12:09:59Z</time>
      </trkpt>
      <trkpt lat="42.65095" lon="1.68805">
        <ele>2184.198</ele>
        <time>2021-07-19T12:10:01Z</time>
      </trkpt>
      <trkpt lat="42.65097" lon="1.68806">
        <ele>2183.841</ele>
        <time>2021-07-19T12:10:03Z</time>
      </trkpt>
      <trkpt lat="42.65099" lon="1.68807">
        <ele>2183.003</ele>
        <time>2021-07-19T12:10:05Z</time>
      </trkpt>
      <trkpt lat="42.65101" lon="1.68808">
        <ele>2183.34</ele>
        <time>2021-07-19T12:10:07Z</time>
      </trkpt>
      <trkpt lat="42.65102" lon="1.6881">
        <ele>2183.036</ele>
        <time>2021-07-19T12:10:09Z</time>
      </trkpt>
      <trkpt lat="42.65104" lon="1.68812">
        <ele>2183.174</ele>
        <time>2021-07-19T12:10:11Z</time>
      </trkpt>
      <trkpt lat="42.65106" lon="1.68814">
        <ele>2183.131</ele>
        <time>2021-07-19T12:10:13Z</time>
      </trkpt>
      <trkpt lat="42.65108" lon="1.68815">
        <ele>2183.146</ele>
        <time>2021-07-19T12:10:15Z</time>
      </trkpt>
      <trkpt lat="42.6511" lon="1.68817">
        <ele>2183.413</ele>
        <time>2021-07-19T12:10:17Z</time>
      </trkpt>
      <trkpt lat="42.65112" lon="1.68818">
        <ele>2183.399</ele>
        <time>2021-07-19T12:10:19Z</time>
      </trkpt>
      <trkpt lat="42.65113" lon="1.68819">
        <ele>2182.795</ele>
        <time>2021-07-19T12:10:21Z</time>
      </trkpt>
      <trkpt lat="42.65115" lon="1.68821">
        <ele>2182.212</ele>
        <time>2021-07-19T12:10:23Z</time>
      </trkpt>
      <trkpt lat="42.65117" lon="1.68821">
        <ele>2181.572</ele>
        <time>2021-07-19T12:10:25Z</time>
      </trkpt>
      <trkpt lat="42.65119" lon="1.68823">
        <ele>2181.36</ele>
        <time>2021-07-19T12:10:27Z</time>
      </trkpt>
      <trkpt lat="42.65121" lon="1.68824">
        <ele>2181.445</ele>
        <time>2021-07-19T12:10:29Z</time>
      </trkpt>
      <trkpt lat="42.65123" lon="1.68825">
        <ele>2180.724</ele>
        <time>2021-07-19T12:10:31Z</time>
      </trkpt>
      <trkpt lat="42.65125" lon="1.68826">
        <ele>2180.262</ele>
        <time>2021-07-19T12:10:33Z</time>
      </trkpt>
      <trkpt lat="42.65127" lon="1.68827">
        <ele>2179.894</ele>
        <time>2021-07-19T12:10:35Z</time>
      </trkpt>
      <trkpt lat="42.65129" lon="1.68828">
        <ele>2179.75</ele>
        <time>2021-07-19T12:10:37Z</time>
      </trkpt>
      <trkpt lat="42.65131" lon="1.68829">
        <ele>2179.498</ele>
        <time>2021-07-19T12:10:39Z</time>
      </trkpt>
      <trkpt lat="42.65133" lon="1.68831">
        <ele>2179.312</ele>
        <time>2021-07-19T12:10:41Z</time>
      </trkpt>
      <trkpt lat="42.65135" lon="1.68833">
        <ele>2179.099</ele>
        <time>2021-07-19T12:10:43Z</time>
      </trkpt>
      <trkpt lat="42.65137" lon="1.68835">
        <ele>2179.03</ele>
        <time>2021-07-19T12:10:45Z</time>
      </trkpt>
      <trkpt lat="42.65138" lon="1.68836">
        <ele>2179.691</ele>
        <time>2021-07-19T12:10:47Z</time>
      </trkpt>
      <trkpt lat="42.65138" lon="1.68836">
        <ele>2179.686</ele>
        <time>2021-07-19T12:10:49Z</time>
      </trkpt>
      <trkpt lat="42.65138" lon="1.68836">
        <ele>2179.676</ele>
        <time>2021-07-19T12:10:51Z</time>
      </trkpt>
      <trkpt lat="42.65138" lon="1.68837">
        <ele>2179.366</ele>
        <time>2021-07-19T12:10:53Z</time>
      </trkpt>
      <trkpt lat="42.65141" lon="1.68837">
        <ele>2179.439</ele>
        <time>2021-07-19T12:10:55Z</time>
      </trkpt>
      <trkpt lat="42.65143" lon="1.6884">
        <ele>2179.183</ele>
        <time>2021-07-19T12:10:57Z</time>
      </trkpt>
      <trkpt lat="42.65144" lon="1.68842">
        <ele>2178.511</ele>
        <time>2021-07-19T12:10:59Z</time>
      </trkpt>
      <trkpt lat="42.65145" lon="1.68844">
        <ele>2178.155</ele>
        <time>2021-07-19T12:11:01Z</time>
      </trkpt>
      <trkpt lat="42.65146" lon="1.68847">
        <ele>2177.765</ele>
        <time>2021-07-19T12:11:03Z</time>
      </trkpt>
      <trkpt lat="42.65148" lon="1.68849">
        <ele>2177.46</ele>
        <time>2021-07-19T12:11:05Z</time>
      </trkpt>
      <trkpt lat="42.65149" lon="1.68851">
        <ele>2176.846</ele>
        <time>2021-07-19T12:11:07Z</time>
      </trkpt>
      <trkpt lat="42.6515" lon="1.68853">
        <ele>2176.071</ele>
        <time>2021-07-19T12:11:09Z</time>
      </trkpt>
      <trkpt lat="42.65152" lon="1.68856">
        <ele>2175.641</ele>
        <time>2021-07-19T12:11:11Z</time>
      </trkpt>
      <trkpt lat="42.65153" lon="1.68857">
        <ele>2175.719</ele>
        <time>2021-07-19T12:11:13Z</time>
      </trkpt>
      <trkpt lat="42.65154" lon="1.6886">
        <ele>2175.41</ele>
        <time>2021-07-19T12:11:15Z</time>
      </trkpt>
      <trkpt lat="42.65155" lon="1.68863">
        <ele>2174.54</ele>
        <time>2021-07-19T12:11:17Z</time>
      </trkpt>
      <trkpt lat="42.65156" lon="1.68866">
        <ele>2174.664</ele>
        <time>2021-07-19T12:11:19Z</time>
      </trkpt>
      <trkpt lat="42.65157" lon="1.68869">
        <ele>2173.805</ele>
        <time>2021-07-19T12:11:21Z</time>
      </trkpt>
      <trkpt lat="42.65158" lon="1.68872">
        <ele>2173.656</ele>
        <time>2021-07-19T12:11:23Z</time>
      </trkpt>
      <trkpt lat="42.65159" lon="1.68875">
        <ele>2173.028</ele>
        <time>2021-07-19T12:11:25Z</time>
      </trkpt>
      <trkpt lat="42.6516" lon="1.68878">
        <ele>2172.427</ele>
        <time>2021-07-19T12:11:27Z</time>
      </trkpt>
      <trkpt lat="42.6516" lon="1.6888">
        <ele>2171.712</ele>
        <time>2021-07-19T12:11:29Z</time>
      </trkpt>
      <trkpt lat="42.65161" lon="1.68883">
        <ele>2171.061</ele>
        <time>2021-07-19T12:11:31Z</time>
      </trkpt>
      <trkpt lat="42.65162" lon="1.68886">
        <ele>2170.418</ele>
        <time>2021-07-19T12:11:33Z</time>
      </trkpt>
      <trkpt lat="42.65163" lon="1.68889">
        <ele>2170.147</ele>
        <time>2021-07-19T12:11:35Z</time>
      </trkpt>
      <trkpt lat="42.65164" lon="1.68892">
        <ele>2169.097</ele>
        <time>2021-07-19T12:11:37Z</time>
      </trkpt>
      <trkpt lat="42.65164" lon="1.68895">
        <ele>2168.831</ele>
        <time>2021-07-19T12:11:39Z</time>
      </trkpt>
      <trkpt lat="42.65166" lon="1.68898">
        <ele>2168.561</ele>
        <time>2021-07-19T12:11:41Z</time>
      </trkpt>
      <trkpt lat="42.65167" lon="1.68901">
        <ele>2167.917</ele>
        <time>2021-07-19T12:11:43Z</time>
      </trkpt>
      <trkpt lat="42.65168" lon="1.68903">
        <ele>2167.965</ele>
        <time>2021-07-19T12:11:45Z</time>
      </trkpt>
      <trkpt lat="42.6517" lon="1.68905">
        <ele>2167.505</ele>
        <time>2021-07-19T12:11:47Z</time>
      </trkpt>
      <trkpt lat="42.65172" lon="1.68906">
        <ele>2167.53</ele>
        <time>2021-07-19T12:11:49Z</time>
      </trkpt>
      <trkpt lat="42.65173" lon="1.68908">
        <ele>2167.019</ele>
        <time>2021-07-19T12:11:51Z</time>
      </trkpt>
      <trkpt lat="42.65175" lon="1.6891">
        <ele>2166.964</ele>
        <time>2021-07-19T12:11:53Z</time>
      </trkpt>
      <trkpt lat="42.65177" lon="1.68912">
        <ele>2166.278</ele>
        <time>2021-07-19T12:11:55Z</time>
      </trkpt>
      <trkpt lat="42.65178" lon="1.68914">
        <ele>2166.386</ele>
        <time>2021-07-19T12:11:57Z</time>
      </trkpt>
      <trkpt lat="42.6518" lon="1.68917">
        <ele>2166.856</ele>
        <time>2021-07-19T12:11:59Z</time>
      </trkpt>
      <trkpt lat="42.65181" lon="1.68919">
        <ele>2166.917</ele>
        <time>2021-07-19T12:12:01Z</time>
      </trkpt>
      <trkpt lat="42.65183" lon="1.68921">
        <ele>2167.161</ele>
        <time>2021-07-19T12:12:03Z</time>
      </trkpt>
      <trkpt lat="42.65184" lon="1.68924">
        <ele>2167.403</ele>
        <time>2021-07-19T12:12:05Z</time>
      </trkpt>
      <trkpt lat="42.65186" lon="1.68926">
        <ele>2167.124</ele>
        <time>2021-07-19T12:12:07Z</time>
      </trkpt>
      <trkpt lat="42.65187" lon="1.68928">
        <ele>2166.568</ele>
        <time>2021-07-19T12:12:09Z</time>
      </trkpt>
      <trkpt lat="42.65188" lon="1.6893">
        <ele>2166.33</ele>
        <time>2021-07-19T12:12:11Z</time>
      </trkpt>
      <trkpt lat="42.65189" lon="1.68933">
        <ele>2165.591</ele>
        <time>2021-07-19T12:12:13Z</time>
      </trkpt>
      <trkpt lat="42.65191" lon="1.68935">
        <ele>2165.063</ele>
        <time>2021-07-19T12:12:15Z</time>
      </trkpt>
      <trkpt lat="42.65192" lon="1.68937">
        <ele>2164.944</ele>
        <time>2021-07-19T12:12:17Z</time>
      </trkpt>
      <trkpt lat="42.65192" lon="1.6894">
        <ele>2164.565</ele>
        <time>2021-07-19T12:12:19Z</time>
      </trkpt>
      <trkpt lat="42.65193" lon="1.68943">
        <ele>2164.062</ele>
        <time>2021-07-19T12:12:21Z</time>
      </trkpt>
      <trkpt lat="42.65194" lon="1.68946">
        <ele>2164.481</ele>
        <time>2021-07-19T12:12:23Z</time>
      </trkpt>
      <trkpt lat="42.65195" lon="1.68949">
        <ele>2164.613</ele>
        <time>2021-07-19T12:12:25Z</time>
      </trkpt>
      <trkpt lat="42.65197" lon="1.68951">
        <ele>2164.301</ele>
        <time>2021-07-19T12:12:27Z</time>
      </trkpt>
      <trkpt lat="42.65198" lon="1.68953">
        <ele>2163.514</ele>
        <time>2021-07-19T12:12:29Z</time>
      </trkpt>
      <trkpt lat="42.65199" lon="1.68956">
        <ele>2163.214</ele>
        <time>2021-07-19T12:12:31Z</time>
      </trkpt>
      <trkpt lat="42.65201" lon="1.68958">
        <ele>2163.342</ele>
        <time>2021-07-19T12:12:33Z</time>
      </trkpt>
      <trkpt lat="42.65201" lon="1.68961">
        <ele>2163.465</ele>
        <time>2021-07-19T12:12:35Z</time>
      </trkpt>
      <trkpt lat="42.65202" lon="1.68964">
        <ele>2163.721</ele>
        <time>2021-07-19T12:12:37Z</time>
      </trkpt>
      <trkpt lat="42.65203" lon="1.68966">
        <ele>2163.776</ele>
        <time>2021-07-19T12:12:39Z</time>
      </trkpt>
      <trkpt lat="42.65205" lon="1.68968">
        <ele>2163.53</ele>
        <time>2021-07-19T12:12:41Z</time>
      </trkpt>
      <trkpt lat="42.65205" lon="1.68971">
        <ele>2163.106</ele>
        <time>2021-07-19T12:12:43Z</time>
      </trkpt>
      <trkpt lat="42.65206" lon="1.68974">
        <ele>2163.079</ele>
        <time>2021-07-19T12:12:45Z</time>
      </trkpt>
      <trkpt lat="42.65206" lon="1.68977">
        <ele>2162.566</ele>
        <time>2021-07-19T12:12:47Z</time>
      </trkpt>
      <trkpt lat="42.65207" lon="1.6898">
        <ele>2161.539</ele>
        <time>2021-07-19T12:12:49Z</time>
      </trkpt>
      <trkpt lat="42.65207" lon="1.68983">
        <ele>2161.226</ele>
        <time>2021-07-19T12:12:51Z</time>
      </trkpt>
      <trkpt lat="42.65208" lon="1.68986">
        <ele>2161.202</ele>
        <time>2021-07-19T12:12:53Z</time>
      </trkpt>
      <trkpt lat="42.65209" lon="1.68988">
        <ele>2160.515</ele>
        <time>2021-07-19T12:12:55Z</time>
      </trkpt>
      <trkpt lat="42.65209" lon="1.68991">
        <ele>2159.924</ele>
        <time>2021-07-19T12:12:57Z</time>
      </trkpt>
      <trkpt lat="42.6521" lon="1.68994">
        <ele>2159.787</ele>
        <time>2021-07-19T12:12:59Z</time>
      </trkpt>
      <trkpt lat="42.6521" lon="1.68997">
        <ele>2159.358</ele>
        <time>2021-07-19T12:13:01Z</time>
      </trkpt>
      <trkpt lat="42.65211" lon="1.68999">
        <ele>2158.913</ele>
        <time>2021-07-19T12:13:03Z</time>
      </trkpt>
      <trkpt lat="42.65211" lon="1.69002">
        <ele>2158.77</ele>
        <time>2021-07-19T12:13:05Z</time>
      </trkpt>
      <trkpt lat="42.65212" lon="1.69005">
        <ele>2159.048</ele>
        <time>2021-07-19T12:13:07Z</time>
      </trkpt>
      <trkpt lat="42.65212" lon="1.69006">
        <ele>2159.563</ele>
        <time>2021-07-19T12:13:09Z</time>
      </trkpt>
      <trkpt lat="42.65213" lon="1.69008">
        <ele>2160.095</ele>
        <time>2021-07-19T12:13:11Z</time>
      </trkpt>
      <trkpt lat="42.65214" lon="1.6901">
        <ele>2160.328</ele>
        <time>2021-07-19T12:13:13Z</time>
      </trkpt>
      <trkpt lat="42.65215" lon="1.69012">
        <ele>2160.054</ele>
        <time>2021-07-19T12:13:15Z</time>
      </trkpt>
      <trkpt lat="42.65215" lon="1.69015">
        <ele>2160.176</ele>
        <time>2021-07-19T12:13:17Z</time>
      </trkpt>
      <trkpt lat="42.65215" lon="1.69016">
        <ele>2159.646</ele>
        <time>2021-07-19T12:13:19Z</time>
      </trkpt>
      <trkpt lat="42.65215" lon="1.69018">
        <ele>2160.605</ele>
        <time>2021-07-19T12:13:21Z</time>
      </trkpt>
      <trkpt lat="42.65214" lon="1.69018">
        <ele>2160.445</ele>
        <time>2021-07-19T12:13:23Z</time>
      </trkpt>
      <trkpt lat="42.65214" lon="1.6902">
        <ele>2160.238</ele>
        <time>2021-07-19T12:13:25Z</time>
      </trkpt>
      <trkpt lat="42.65214" lon="1.69022">
        <ele>2159.543</ele>
        <time>2021-07-19T12:13:27Z</time>
      </trkpt>
      <trkpt lat="42.65215" lon="1.69024">
        <ele>2159.471</ele>
        <time>2021-07-19T12:13:29Z</time>
      </trkpt>
      <trkpt lat="42.65214" lon="1.69026">
        <ele>2159.614</ele>
        <time>2021-07-19T12:13:31Z</time>
      </trkpt>
      <trkpt lat="42.65214" lon="1.69028">
        <ele>2159.268</ele>
        <time>2021-07-19T12:13:33Z</time>
      </trkpt>
      <trkpt lat="42.65215" lon="1.6903">
        <ele>2159.07</ele>
        <time>2021-07-19T12:13:35Z</time>
      </trkpt>
      <trkpt lat="42.65216" lon="1.69032">
        <ele>2158.865</ele>
        <time>2021-07-19T12:13:37Z</time>
      </trkpt>
      <trkpt lat="42.65218" lon="1.69032">
        <ele>2158.149</ele>
        <time>2021-07-19T12:13:39Z</time>
      </trkpt>
      <trkpt lat="42.6522" lon="1.69031">
        <ele>2157.787</ele>
        <time>2021-07-19T12:13:41Z</time>
      </trkpt>
      <trkpt lat="42.65222" lon="1.69033">
        <ele>2157.66</ele>
        <time>2021-07-19T12:13:43Z</time>
      </trkpt>
      <trkpt lat="42.65222" lon="1.69035">
        <ele>2157.391</ele>
        <time>2021-07-19T12:13:45Z</time>
      </trkpt>
      <trkpt lat="42.65223" lon="1.69036">
        <ele>2157.156</ele>
        <time>2021-07-19T12:13:47Z</time>
      </trkpt>
      <trkpt lat="42.65223" lon="1.69038">
        <ele>2156.417</ele>
        <time>2021-07-19T12:13:49Z</time>
      </trkpt>
      <trkpt lat="42.65223" lon="1.6904">
        <ele>2155.907</ele>
        <time>2021-07-19T12:13:51Z</time>
      </trkpt>
      <trkpt lat="42.65224" lon="1.69041">
        <ele>2155.509</ele>
        <time>2021-07-19T12:13:53Z</time>
      </trkpt>
      <trkpt lat="42.65223" lon="1.69043">
        <ele>2155.265</ele>
        <time>2021-07-19T12:13:55Z</time>
      </trkpt>
      <trkpt lat="42.65223" lon="1.69045">
        <ele>2154.808</ele>
        <time>2021-07-19T12:13:57Z</time>
      </trkpt>
      <trkpt lat="42.65224" lon="1.69048">
        <ele>2154.494</ele>
        <time>2021-07-19T12:13:59Z</time>
      </trkpt>
      <trkpt lat="42.65224" lon="1.6905">
        <ele>2153.925</ele>
        <time>2021-07-19T12:14:01Z</time>
      </trkpt>
      <trkpt lat="42.65225" lon="1.69052">
        <ele>2153.566</ele>
        <time>2021-07-19T12:14:03Z</time>
      </trkpt>
      <trkpt lat="42.65226" lon="1.69054">
        <ele>2152.996</ele>
        <time>2021-07-19T12:14:05Z</time>
      </trkpt>
      <trkpt lat="42.65228" lon="1.69055">
        <ele>2152.745</ele>
        <time>2021-07-19T12:14:07Z</time>
      </trkpt>
      <trkpt lat="42.65228" lon="1.69057">
        <ele>2152.434</ele>
        <time>2021-07-19T12:14:09Z</time>
      </trkpt>
      <trkpt lat="42.65228" lon="1.69058">
        <ele>2152.531</ele>
        <time>2021-07-19T12:14:11Z</time>
      </trkpt>
      <trkpt lat="42.65228" lon="1.69058">
        <ele>2152.527</ele>
        <time>2021-07-19T12:14:13Z</time>
      </trkpt>
      <trkpt lat="42.65228" lon="1.6906">
        <ele>2152.341</ele>
        <time>2021-07-19T12:14:15Z</time>
      </trkpt>
      <trkpt lat="42.65229" lon="1.69063">
        <ele>2151.726</ele>
        <time>2021-07-19T12:14:17Z</time>
      </trkpt>
      <trkpt lat="42.6523" lon="1.69065">
        <ele>2152.271</ele>
        <time>2021-07-19T12:14:19Z</time>
      </trkpt>
      <trkpt lat="42.6523" lon="1.69066">
        <ele>2151.93</ele>
        <time>2021-07-19T12:14:21Z</time>
      </trkpt>
      <trkpt lat="42.6523" lon="1.69069">
        <ele>2151.816</ele>
        <time>2021-07-19T12:14:23Z</time>
      </trkpt>
      <trkpt lat="42.65231" lon="1.69071">
        <ele>2151.308</ele>
        <time>2021-07-19T12:14:25Z</time>
      </trkpt>
      <trkpt lat="42.65233" lon="1.69071">
        <ele>2152.133</ele>
        <time>2021-07-19T12:14:27Z</time>
      </trkpt>
      <trkpt lat="42.65233" lon="1.6907">
        <ele>2152.082</ele>
        <time>2021-07-19T12:14:29Z</time>
      </trkpt>
      <trkpt lat="42.65233" lon="1.6907">
        <ele>2151.82</ele>
        <time>2021-07-19T12:14:31Z</time>
      </trkpt>
      <trkpt lat="42.65233" lon="1.69069">
        <ele>2151.815</ele>
        <time>2021-07-19T12:14:33Z</time>
      </trkpt>
      <trkpt lat="42.65233" lon="1.69069">
        <ele>2151.813</ele>
        <time>2021-07-19T12:14:35Z</time>
      </trkpt>
      <trkpt lat="42.65233" lon="1.69069">
        <ele>2151.812</ele>
        <time>2021-07-19T12:14:37Z</time>
      </trkpt>
      <trkpt lat="42.65233" lon="1.69069">
        <ele>2151.811</ele>
        <time>2021-07-19T12:14:39Z</time>
      </trkpt>
      <trkpt lat="42.65233" lon="1.69069">
        <ele>2151.807</ele>
        <time>2021-07-19T12:14:41Z</time>
      </trkpt>
      <trkpt lat="42.65233" lon="1.69069">
        <ele>2151.806</ele>
        <time>2021-07-19T12:14:43Z</time>
      </trkpt>
      <trkpt lat="42.65233" lon="1.69069">
        <ele>2151.804</ele>
        <time>2021-07-19T12:14:45Z</time>
      </trkpt>
      <trkpt lat="42.65233" lon="1.69069">
        <ele>2151.831</ele>
        <time>2021-07-19T12:14:47Z</time>
      </trkpt>
      <trkpt lat="42.65232" lon="1.69068">
        <ele>2151.701</ele>
        <time>2021-07-19T12:14:49Z</time>
      </trkpt>
      <trkpt lat="42.65232" lon="1.69068">
        <ele>2151.464</ele>
        <time>2021-07-19T12:14:51Z</time>
      </trkpt>
      <trkpt lat="42.65232" lon="1.69068">
        <ele>2151.46</ele>
        <time>2021-07-19T12:14:53Z</time>
      </trkpt>
      <trkpt lat="42.65232" lon="1.69068">
        <ele>2151.455</ele>
        <time>2021-07-19T12:14:55Z</time>
      </trkpt>
      <trkpt lat="42.65232" lon="1.69068">
        <ele>2151.454</ele>
        <time>2021-07-19T12:14:57Z</time>
      </trkpt>
      <trkpt lat="42.65232" lon="1.69068">
        <ele>2151.448</ele>
        <time>2021-07-19T12:14:59Z</time>
      </trkpt>
      <trkpt lat="42.65232" lon="1.69068">
        <ele>2151.444</ele>
        <time>2021-07-19T12:15:01Z</time>
      </trkpt>
      <trkpt lat="42.65232" lon="1.69068">
        <ele>2151.435</ele>
        <time>2021-07-19T12:15:03Z</time>
      </trkpt>
      <trkpt lat="42.65232" lon="1.69068">
        <ele>2151.434</ele>
        <time>2021-07-19T12:15:05Z</time>
      </trkpt>
      <trkpt lat="42.65232" lon="1.69068">
        <ele>2151.434</ele>
        <time>2021-07-19T12:15:07Z</time>
      </trkpt>
      <trkpt lat="42.65232" lon="1.69068">
        <ele>2151.429</ele>
        <time>2021-07-19T12:15:09Z</time>
      </trkpt>
      <trkpt lat="42.65232" lon="1.69068">
        <ele>2151.426</ele>
        <time>2021-07-19T12:15:11Z</time>
      </trkpt>
      <trkpt lat="42.65232" lon="1.69067">
        <ele>2151.252</ele>
        <time>2021-07-19T12:15:13Z</time>
      </trkpt>
      <trkpt lat="42.65231" lon="1.69066">
        <ele>2151.358</ele>
        <time>2021-07-19T12:15:15Z</time>
      </trkpt>
      <trkpt lat="42.65231" lon="1.69064">
        <ele>2151.35</ele>
        <time>2021-07-19T12:15:17Z</time>
      </trkpt>
      <trkpt lat="42.6523" lon="1.69062">
        <ele>2151.646</ele>
        <time>2021-07-19T12:15:19Z</time>
      </trkpt>
      <trkpt lat="42.65229" lon="1.69061">
        <ele>2151.274</ele>
        <time>2021-07-19T12:15:21Z</time>
      </trkpt>
      <trkpt lat="42.65229" lon="1.69061">
        <ele>2151.184</ele>
        <time>2021-07-19T12:15:23Z</time>
      </trkpt>
      <trkpt lat="42.65229" lon="1.69061">
        <ele>2151.178</ele>
        <time>2021-07-19T12:15:25Z</time>
      </trkpt>
      <trkpt lat="42.65229" lon="1.69061">
        <ele>2151.173</ele>
        <time>2021-07-19T12:15:27Z</time>
      </trkpt>
      <trkpt lat="42.65229" lon="1.69061">
        <ele>2151.176</ele>
        <time>2021-07-19T12:15:29Z</time>
      </trkpt>
      <trkpt lat="42.65229" lon="1.69061">
        <ele>2151.184</ele>
        <time>2021-07-19T12:15:31Z</time>
      </trkpt>
      <trkpt lat="42.65229" lon="1.69061">
        <ele>2151.195</ele>
        <time>2021-07-19T12:15:33Z</time>
      </trkpt>
      <trkpt lat="42.65229" lon="1.69061">
        <ele>2151.2</ele>
        <time>2021-07-19T12:15:35Z</time>
      </trkpt>
      <trkpt lat="42.65229" lon="1.69061">
        <ele>2151.198</ele>
        <time>2021-07-19T12:15:37Z</time>
      </trkpt>
      <trkpt lat="42.65229" lon="1.69061">
        <ele>2151.19</ele>
        <time>2021-07-19T12:15:39Z</time>
      </trkpt>
      <trkpt lat="42.65229" lon="1.69061">
        <ele>2151.178</ele>
        <time>2021-07-19T12:15:41Z</time>
      </trkpt>
      <trkpt lat="42.65229" lon="1.69061">
        <ele>2151.167</ele>
        <time>2021-07-19T12:15:43Z</time>
      </trkpt>
      <trkpt lat="42.65229" lon="1.69061">
        <ele>2151.156</ele>
        <time>2021-07-19T12:15:45Z</time>
      </trkpt>
      <trkpt lat="42.65229" lon="1.69061">
        <ele>2151.146</ele>
        <time>2021-07-19T12:15:47Z</time>
      </trkpt>
      <trkpt lat="42.65229" lon="1.69061">
        <ele>2151.135</ele>
        <time>2021-07-19T12:15:49Z</time>
      </trkpt>
      <trkpt lat="42.65229" lon="1.69061">
        <ele>2151.127</ele>
        <time>2021-07-19T12:15:51Z</time>
      </trkpt>
      <trkpt lat="42.65229" lon="1.69061">
        <ele>2151.116</ele>
        <time>2021-07-19T12:15:53Z</time>
      </trkpt>
      <trkpt lat="42.65229" lon="1.69061">
        <ele>2151.098</ele>
        <time>2021-07-19T12:15:55Z</time>
      </trkpt>
      <trkpt lat="42.65229" lon="1.69061">
        <ele>2151.083</ele>
        <time>2021-07-19T12:15:57Z</time>
      </trkpt>
      <trkpt lat="42.65229" lon="1.69061">
        <ele>2151.07</ele>
        <time>2021-07-19T12:15:59Z</time>
      </trkpt>
      <trkpt lat="42.65229" lon="1.69061">
        <ele>2151.065</ele>
        <time>2021-07-19T12:16:01Z</time>
      </trkpt>
      <trkpt lat="42.65229" lon="1.69061">
        <ele>2151.054</ele>
        <time>2021-07-19T12:16:03Z</time>
      </trkpt>
      <trkpt lat="42.65229" lon="1.69061">
        <ele>2151.051</ele>
        <time>2021-07-19T12:16:05Z</time>
      </trkpt>
      <trkpt lat="42.65229" lon="1.69061">
        <ele>2151.052</ele>
        <time>2021-07-19T12:16:07Z</time>
      </trkpt>
      <trkpt lat="42.65229" lon="1.69061">
        <ele>2151.051</ele>
        <time>2021-07-19T12:16:09Z</time>
      </trkpt>
      <trkpt lat="42.65229" lon="1.69061">
        <ele>2151.045</ele>
        <time>2021-07-19T12:16:11Z</time>
      </trkpt>
      <trkpt lat="42.65229" lon="1.69061">
        <ele>2151.054</ele>
        <time>2021-07-19T12:16:13Z</time>
      </trkpt>
      <trkpt lat="42.65229" lon="1.69061">
        <ele>2151.055</ele>
        <time>2021-07-19T12:16:15Z</time>
      </trkpt>
      <trkpt lat="42.65229" lon="1.69061">
        <ele>2151.055</ele>
        <time>2021-07-19T12:16:17Z</time>
      </trkpt>
      <trkpt lat="42.65229" lon="1.69061">
        <ele>2151.054</ele>
        <time>2021-07-19T12:16:19Z</time>
      </trkpt>
      <trkpt lat="42.65229" lon="1.69061">
        <ele>2151.19</ele>
        <time>2021-07-19T12:16:21Z</time>
      </trkpt>
      <trkpt lat="42.65228" lon="1.6906">
        <ele>2151.207</ele>
        <time>2021-07-19T12:16:23Z</time>
      </trkpt>
      <trkpt lat="42.65228" lon="1.6906">
        <ele>2151.194</ele>
        <time>2021-07-19T12:16:25Z</time>
      </trkpt>
      <trkpt lat="42.65228" lon="1.6906">
        <ele>2151.182</ele>
        <time>2021-07-19T12:16:27Z</time>
      </trkpt>
      <trkpt lat="42.65228" lon="1.6906">
        <ele>2151.175</ele>
        <time>2021-07-19T12:16:29Z</time>
      </trkpt>
      <trkpt lat="42.65228" lon="1.6906">
        <ele>2151.172</ele>
        <time>2021-07-19T12:16:31Z</time>
      </trkpt>
      <trkpt lat="42.65228" lon="1.6906">
        <ele>2151.171</ele>
        <time>2021-07-19T12:16:33Z</time>
      </trkpt>
      <trkpt lat="42.65228" lon="1.6906">
        <ele>2151.169</ele>
        <time>2021-07-19T12:16:35Z</time>
      </trkpt>
      <trkpt lat="42.65228" lon="1.6906">
        <ele>2151.169</ele>
        <time>2021-07-19T12:16:37Z</time>
      </trkpt>
      <trkpt lat="42.65228" lon="1.6906">
        <ele>2150.973</ele>
        <time>2021-07-19T12:16:39Z</time>
      </trkpt>
      <trkpt lat="42.65227" lon="1.6906">
        <ele>2150.533</ele>
        <time>2021-07-19T12:16:41Z</time>
      </trkpt>
      <trkpt lat="42.65225" lon="1.69059">
        <ele>2150.092</ele>
        <time>2021-07-19T12:16:43Z</time>
      </trkpt>
      <trkpt lat="42.65225" lon="1.69057">
        <ele>2150.561</ele>
        <time>2021-07-19T12:16:45Z</time>
      </trkpt>
      <trkpt lat="42.65224" lon="1.69055">
        <ele>2151.41</ele>
        <time>2021-07-19T12:16:47Z</time>
      </trkpt>
      <trkpt lat="42.65222" lon="1.69053">
        <ele>2150.825</ele>
        <time>2021-07-19T12:16:49Z</time>
      </trkpt>
      <trkpt lat="42.6522" lon="1.69052">
        <ele>2150.523</ele>
        <time>2021-07-19T12:16:51Z</time>
      </trkpt>
      <trkpt lat="42.65219" lon="1.69052">
        <ele>2149.923</ele>
        <time>2021-07-19T12:16:53Z</time>
      </trkpt>
      <trkpt lat="42.6522" lon="1.69052">
        <ele>2148.68</ele>
        <time>2021-07-19T12:16:55Z</time>
      </trkpt>
      <trkpt lat="42.65219" lon="1.69052">
        <ele>2148.133</ele>
        <time>2021-07-19T12:16:57Z</time>
      </trkpt>
      <trkpt lat="42.65219" lon="1.69052">
        <ele>2148.093</ele>
        <time>2021-07-19T12:16:59Z</time>
      </trkpt>
      <trkpt lat="42.65219" lon="1.69052">
        <ele>2148.091</ele>
        <time>2021-07-19T12:17:01Z</time>
      </trkpt>
      <trkpt lat="42.65219" lon="1.69052">
        <ele>2148.086</ele>
        <time>2021-07-19T12:17:03Z</time>
      </trkpt>
      <trkpt lat="42.65219" lon="1.69052">
        <ele>2148.086</ele>
        <time>2021-07-19T12:17:05Z</time>
      </trkpt>
      <trkpt lat="42.65219" lon="1.69052">
        <ele>2148.09</ele>
        <time>2021-07-19T12:17:07Z</time>
      </trkpt>
      <trkpt lat="42.65219" lon="1.69052">
        <ele>2148.084</ele>
        <time>2021-07-19T12:17:09Z</time>
      </trkpt>
      <trkpt lat="42.65219" lon="1.69052">
        <ele>2148.091</ele>
        <time>2021-07-19T12:17:11Z</time>
      </trkpt>
      <trkpt lat="42.65219" lon="1.69052">
        <ele>2148.087</ele>
        <time>2021-07-19T12:17:13Z</time>
      </trkpt>
      <trkpt lat="42.65219" lon="1.69052">
        <ele>2148.092</ele>
        <time>2021-07-19T12:17:15Z</time>
      </trkpt>
      <trkpt lat="42.65219" lon="1.69052">
        <ele>2148.089</ele>
        <time>2021-07-19T12:17:17Z</time>
      </trkpt>
      <trkpt lat="42.65219" lon="1.69052">
        <ele>2148.092</ele>
        <time>2021-07-19T12:17:19Z</time>
      </trkpt>
      <trkpt lat="42.65219" lon="1.69052">
        <ele>2148.09</ele>
        <time>2021-07-19T12:17:21Z</time>
      </trkpt>
      <trkpt lat="42.65219" lon="1.69052">
        <ele>2148.091</ele>
        <time>2021-07-19T12:17:23Z</time>
      </trkpt>
      <trkpt lat="42.65219" lon="1.69052">
        <ele>2148.088</ele>
        <time>2021-07-19T12:17:25Z</time>
      </trkpt>
      <trkpt lat="42.65219" lon="1.69052">
        <ele>2148.084</ele>
        <time>2021-07-19T12:17:27Z</time>
      </trkpt>
      <trkpt lat="42.65219" lon="1.69052">
        <ele>2148.086</ele>
        <time>2021-07-19T12:17:29Z</time>
      </trkpt>
      <trkpt lat="42.65219" lon="1.69052">
        <ele>2148.08</ele>
        <time>2021-07-19T12:17:31Z</time>
      </trkpt>
      <trkpt lat="42.65219" lon="1.69052">
        <ele>2148.086</ele>
        <time>2021-07-19T12:17:33Z</time>
      </trkpt>
      <trkpt lat="42.65219" lon="1.69052">
        <ele>2148.085</ele>
        <time>2021-07-19T12:17:35Z</time>
      </trkpt>
      <trkpt lat="42.65219" lon="1.69052">
        <ele>2148.089</ele>
        <time>2021-07-19T12:17:37Z</time>
      </trkpt>
      <trkpt lat="42.65219" lon="1.69052">
        <ele>2148.094</ele>
        <time>2021-07-19T12:17:39Z</time>
      </trkpt>
      <trkpt lat="42.65219" lon="1.69052">
        <ele>2148.099</ele>
        <time>2021-07-19T12:17:41Z</time>
      </trkpt>
      <trkpt lat="42.65219" lon="1.69052">
        <ele>2148.101</ele>
        <time>2021-07-19T12:17:43Z</time>
      </trkpt>
      <trkpt lat="42.65218" lon="1.69052">
        <ele>2148.11</ele>
        <time>2021-07-19T12:17:45Z</time>
      </trkpt>
      <trkpt lat="42.65218" lon="1.69052">
        <ele>2148.108</ele>
        <time>2021-07-19T12:17:47Z</time>
      </trkpt>
      <trkpt lat="42.65218" lon="1.69052">
        <ele>2148.106</ele>
        <time>2021-07-19T12:17:49Z</time>
      </trkpt>
      <trkpt lat="42.65218" lon="1.69052">
        <ele>2148.108</ele>
        <time>2021-07-19T12:17:51Z</time>
      </trkpt>
      <trkpt lat="42.65218" lon="1.69052">
        <ele>2148.111</ele>
        <time>2021-07-19T12:17:53Z</time>
      </trkpt>
      <trkpt lat="42.65218" lon="1.69052">
        <ele>2148.118</ele>
        <time>2021-07-19T12:17:55Z</time>
      </trkpt>
      <trkpt lat="42.65218" lon="1.69052">
        <ele>2148.11</ele>
        <time>2021-07-19T12:17:57Z</time>
      </trkpt>
      <trkpt lat="42.65218" lon="1.69052">
        <ele>2148.117</ele>
        <time>2021-07-19T12:17:59Z</time>
      </trkpt>
      <trkpt lat="42.65218" lon="1.69052">
        <ele>2148.111</ele>
        <time>2021-07-19T12:18:01Z</time>
      </trkpt>
      <trkpt lat="42.65218" lon="1.69052">
        <ele>2148.112</ele>
        <time>2021-07-19T12:18:03Z</time>
      </trkpt>
      <trkpt lat="42.65218" lon="1.69052">
        <ele>2148.102</ele>
        <time>2021-07-19T12:18:05Z</time>
      </trkpt>
      <trkpt lat="42.65218" lon="1.69052">
        <ele>2148.095</ele>
        <time>2021-07-19T12:18:07Z</time>
      </trkpt>
      <trkpt lat="42.65218" lon="1.69052">
        <ele>2148.091</ele>
        <time>2021-07-19T12:18:09Z</time>
      </trkpt>
      <trkpt lat="42.65218" lon="1.69052">
        <ele>2148.087</ele>
        <time>2021-07-19T12:18:11Z</time>
      </trkpt>
      <trkpt lat="42.65218" lon="1.69052">
        <ele>2148.086</ele>
        <time>2021-07-19T12:18:13Z</time>
      </trkpt>
      <trkpt lat="42.65218" lon="1.69052">
        <ele>2148.085</ele>
        <time>2021-07-19T12:18:15Z</time>
      </trkpt>
      <trkpt lat="42.65218" lon="1.69052">
        <ele>2148.087</ele>
        <time>2021-07-19T12:18:17Z</time>
      </trkpt>
      <trkpt lat="42.65218" lon="1.69052">
        <ele>2148.089</ele>
        <time>2021-07-19T12:18:19Z</time>
      </trkpt>
      <trkpt lat="42.65218" lon="1.69052">
        <ele>2148.091</ele>
        <time>2021-07-19T12:18:21Z</time>
      </trkpt>
      <trkpt lat="42.65218" lon="1.69052">
        <ele>2148.087</ele>
        <time>2021-07-19T12:18:23Z</time>
      </trkpt>
      <trkpt lat="42.65218" lon="1.69052">
        <ele>2148.086</ele>
        <time>2021-07-19T12:18:25Z</time>
      </trkpt>
      <trkpt lat="42.65219" lon="1.69052">
        <ele>2148.324</ele>
        <time>2021-07-19T12:18:27Z</time>
      </trkpt>
      <trkpt lat="42.65219" lon="1.69052">
        <ele>2148.334</ele>
        <time>2021-07-19T12:18:29Z</time>
      </trkpt>
      <trkpt lat="42.65219" lon="1.69052">
        <ele>2148.333</ele>
        <time>2021-07-19T12:18:31Z</time>
      </trkpt>
      <trkpt lat="42.65218" lon="1.69052">
        <ele>2148.932</ele>
        <time>2021-07-19T12:18:33Z</time>
      </trkpt>
      <trkpt lat="42.65218" lon="1.69052">
        <ele>2148.928</ele>
        <time>2021-07-19T12:18:35Z</time>
      </trkpt>
      <trkpt lat="42.65218" lon="1.69052">
        <ele>2149.397</ele>
        <time>2021-07-19T12:18:37Z</time>
      </trkpt>
      <trkpt lat="42.65218" lon="1.69051">
        <ele>2150.142</ele>
        <time>2021-07-19T12:18:39Z</time>
      </trkpt>
      <trkpt lat="42.65218" lon="1.69051">
        <ele>2150.135</ele>
        <time>2021-07-19T12:18:41Z</time>
      </trkpt>
      <trkpt lat="42.65218" lon="1.69051">
        <ele>2150.132</ele>
        <time>2021-07-19T12:18:43Z</time>
      </trkpt>
      <trkpt lat="42.65218" lon="1.69051">
        <ele>2150.117</ele>
        <time>2021-07-19T12:18:45Z</time>
      </trkpt>
      <trkpt lat="42.65218" lon="1.69051">
        <ele>2150.116</ele>
        <time>2021-07-19T12:18:47Z</time>
      </trkpt>
      <trkpt lat="42.65218" lon="1.69051">
        <ele>2150.108</ele>
        <time>2021-07-19T12:18:49Z</time>
      </trkpt>
      <trkpt lat="42.65218" lon="1.69051">
        <ele>2150.108</ele>
        <time>2021-07-19T12:18:51Z</time>
      </trkpt>
      <trkpt lat="42.65218" lon="1.69051">
        <ele>2150.11</ele>
        <time>2021-07-19T12:18:53Z</time>
      </trkpt>
      <trkpt lat="42.65218" lon="1.69051">
        <ele>2150.115</ele>
        <time>2021-07-19T12:18:55Z</time>
      </trkpt>
      <trkpt lat="42.65218" lon="1.69051">
        <ele>2150.124</ele>
        <time>2021-07-19T12:18:57Z</time>
      </trkpt>
      <trkpt lat="42.65218" lon="1.69051">
        <ele>2150.13</ele>
        <time>2021-07-19T12:18:59Z</time>
      </trkpt>
      <trkpt lat="42.65218" lon="1.69051">
        <ele>2150.275</ele>
        <time>2021-07-19T12:19:01Z</time>
      </trkpt>
      <trkpt lat="42.65219" lon="1.69052">
        <ele>2150.503</ele>
        <time>2021-07-19T12:19:03Z</time>
      </trkpt>
      <trkpt lat="42.65219" lon="1.69052">
        <ele>2150.551</ele>
        <time>2021-07-19T12:19:05Z</time>
      </trkpt>
      <trkpt lat="42.65219" lon="1.69052">
        <ele>2150.544</ele>
        <time>2021-07-19T12:19:07Z</time>
      </trkpt>
      <trkpt lat="42.65219" lon="1.69052">
        <ele>2150.54</ele>
        <time>2021-07-19T12:19:09Z</time>
      </trkpt>
      <trkpt lat="42.65219" lon="1.69052">
        <ele>2150.545</ele>
        <time>2021-07-19T12:19:11Z</time>
      </trkpt>
      <trkpt lat="42.65219" lon="1.69052">
        <ele>2150.36</ele>
        <time>2021-07-19T12:19:13Z</time>
      </trkpt>
      <trkpt lat="42.6522" lon="1.69054">
        <ele>2150.658</ele>
        <time>2021-07-19T12:19:15Z</time>
      </trkpt>
      <trkpt lat="42.65224" lon="1.6905">
        <ele>2150.433</ele>
        <time>2021-07-19T12:19:17Z</time>
      </trkpt>
      <trkpt lat="42.65224" lon="1.69055">
        <ele>2150.178</ele>
        <time>2021-07-19T12:19:19Z</time>
      </trkpt>
      <trkpt lat="42.65224" lon="1.69058">
        <ele>2150.943</ele>
        <time>2021-07-19T12:19:21Z</time>
      </trkpt>
      <trkpt lat="42.65226" lon="1.6906">
        <ele>2151.149</ele>
        <time>2021-07-19T12:19:23Z</time>
      </trkpt>
      <trkpt lat="42.65227" lon="1.69061">
        <ele>2151.75</ele>
        <time>2021-07-19T12:19:25Z</time>
      </trkpt>
      <trkpt lat="42.65229" lon="1.69062">
        <ele>2152.341</ele>
        <time>2021-07-19T12:19:27Z</time>
      </trkpt>
      <trkpt lat="42.6523" lon="1.69062">
        <ele>2152.069</ele>
        <time>2021-07-19T12:19:29Z</time>
      </trkpt>
      <trkpt lat="42.6523" lon="1.69064">
        <ele>2152.136</ele>
        <time>2021-07-19T12:19:31Z</time>
      </trkpt>
      <trkpt lat="42.65231" lon="1.69066">
        <ele>2151.495</ele>
        <time>2021-07-19T12:19:33Z</time>
      </trkpt>
      <trkpt lat="42.65231" lon="1.69068">
        <ele>2151.232</ele>
        <time>2021-07-19T12:19:35Z</time>
      </trkpt>
      <trkpt lat="42.65232" lon="1.69069">
        <ele>2150.835</ele>
        <time>2021-07-19T12:19:37Z</time>
      </trkpt>
      <trkpt lat="42.65233" lon="1.69071">
        <ele>2150.473</ele>
        <time>2021-07-19T12:19:39Z</time>
      </trkpt>
      <trkpt lat="42.65233" lon="1.69071">
        <ele>2150.321</ele>
        <time>2021-07-19T12:19:41Z</time>
      </trkpt>
      <trkpt lat="42.65233" lon="1.69073">
        <ele>2151.176</ele>
        <time>2021-07-19T12:19:43Z</time>
      </trkpt>
      <trkpt lat="42.65233" lon="1.69073">
        <ele>2151.077</ele>
        <time>2021-07-19T12:19:45Z</time>
      </trkpt>
      <trkpt lat="42.65234" lon="1.69073">
        <ele>2150.347</ele>
        <time>2021-07-19T12:19:47Z</time>
      </trkpt>
      <trkpt lat="42.65234" lon="1.69073">
        <ele>2150.34</ele>
        <time>2021-07-19T12:19:49Z</time>
      </trkpt>
      <trkpt lat="42.65234" lon="1.69073">
        <ele>2150.262</ele>
        <time>2021-07-19T12:19:51Z</time>
      </trkpt>
      <trkpt lat="42.65234" lon="1.69073">
        <ele>2150.245</ele>
        <time>2021-07-19T12:19:53Z</time>
      </trkpt>
      <trkpt lat="42.65234" lon="1.69073">
        <ele>2150.242</ele>
        <time>2021-07-19T12:19:55Z</time>
      </trkpt>
      <trkpt lat="42.65234" lon="1.69073">
        <ele>2150.238</ele>
        <time>2021-07-19T12:19:57Z</time>
      </trkpt>
      <trkpt lat="42.65234" lon="1.69073">
        <ele>2150.235</ele>
        <time>2021-07-19T12:19:59Z</time>
      </trkpt>
      <trkpt lat="42.65234" lon="1.69073">
        <ele>2150.233</ele>
        <time>2021-07-19T12:20:01Z</time>
      </trkpt>
      <trkpt lat="42.65234" lon="1.69073">
        <ele>2150.226</ele>
        <time>2021-07-19T12:20:03Z</time>
      </trkpt>
      <trkpt lat="42.65234" lon="1.69073">
        <ele>2150.221</ele>
        <time>2021-07-19T12:20:05Z</time>
      </trkpt>
      <trkpt lat="42.65234" lon="1.69073">
        <ele>2150.222</ele>
        <time>2021-07-19T12:20:07Z</time>
      </trkpt>
      <trkpt lat="42.65234" lon="1.69073">
        <ele>2150.228</ele>
        <time>2021-07-19T12:20:09Z</time>
      </trkpt>
      <trkpt lat="42.65234" lon="1.69073">
        <ele>2150.227</ele>
        <time>2021-07-19T12:20:11Z</time>
      </trkpt>
      <trkpt lat="42.65234" lon="1.69073">
        <ele>2150.231</ele>
        <time>2021-07-19T12:20:13Z</time>
      </trkpt>
      <trkpt lat="42.65234" lon="1.69073">
        <ele>2150.233</ele>
        <time>2021-07-19T12:20:15Z</time>
      </trkpt>
      <trkpt lat="42.65234" lon="1.69073">
        <ele>2150.235</ele>
        <time>2021-07-19T12:20:17Z</time>
      </trkpt>
      <trkpt lat="42.65234" lon="1.69073">
        <ele>2150.136</ele>
        <time>2021-07-19T12:20:19Z</time>
      </trkpt>
      <trkpt lat="42.65235" lon="1.69074">
        <ele>2150.028</ele>
        <time>2021-07-19T12:20:21Z</time>
      </trkpt>
      <trkpt lat="42.65235" lon="1.69074">
        <ele>2150.788</ele>
        <time>2021-07-19T12:20:23Z</time>
      </trkpt>
      <trkpt lat="42.65235" lon="1.69074">
        <ele>2150.789</ele>
        <time>2021-07-19T12:20:25Z</time>
      </trkpt>
      <trkpt lat="42.65235" lon="1.69074">
        <ele>2150.787</ele>
        <time>2021-07-19T12:20:27Z</time>
      </trkpt>
      <trkpt lat="42.65235" lon="1.69074">
        <ele>2150.786</ele>
        <time>2021-07-19T12:20:29Z</time>
      </trkpt>
      <trkpt lat="42.65235" lon="1.69075">
        <ele>2150.752</ele>
        <time>2021-07-19T12:20:31Z</time>
      </trkpt>
      <trkpt lat="42.65235" lon="1.69076">
        <ele>2150.244</ele>
        <time>2021-07-19T12:20:33Z</time>
      </trkpt>
      <trkpt lat="42.65236" lon="1.69077">
        <ele>2149.983</ele>
        <time>2021-07-19T12:20:35Z</time>
      </trkpt>
      <trkpt lat="42.65236" lon="1.69077">
        <ele>2149.488</ele>
        <time>2021-07-19T12:20:37Z</time>
      </trkpt>
      <trkpt lat="42.65236" lon="1.69076">
        <ele>2149.489</ele>
        <time>2021-07-19T12:20:39Z</time>
      </trkpt>
      <trkpt lat="42.65236" lon="1.69077">
        <ele>2149.221</ele>
        <time>2021-07-19T12:20:41Z</time>
      </trkpt>
      <trkpt lat="42.65237" lon="1.69078">
        <ele>2149.449</ele>
        <time>2021-07-19T12:20:43Z</time>
      </trkpt>
      <trkpt lat="42.65239" lon="1.6908">
        <ele>2149.271</ele>
        <time>2021-07-19T12:20:45Z</time>
      </trkpt>
      <trkpt lat="42.6524" lon="1.69081">
        <ele>2148.151</ele>
        <time>2021-07-19T12:20:47Z</time>
      </trkpt>
      <trkpt lat="42.6524" lon="1.69083">
        <ele>2147.604</ele>
        <time>2021-07-19T12:20:49Z</time>
      </trkpt>
      <trkpt lat="42.65241" lon="1.69084">
        <ele>2147.394</ele>
        <time>2021-07-19T12:20:51Z</time>
      </trkpt>
      <trkpt lat="42.65242" lon="1.69086">
        <ele>2147.965</ele>
        <time>2021-07-19T12:20:53Z</time>
      </trkpt>
      <trkpt lat="42.65242" lon="1.69088">
        <ele>2147.897</ele>
        <time>2021-07-19T12:20:55Z</time>
      </trkpt>
      <trkpt lat="42.65242" lon="1.69089">
        <ele>2147.35</ele>
        <time>2021-07-19T12:20:57Z</time>
      </trkpt>
      <trkpt lat="42.65243" lon="1.69092">
        <ele>2147.045</ele>
        <time>2021-07-19T12:20:59Z</time>
      </trkpt>
      <trkpt lat="42.65245" lon="1.69092">
        <ele>2147.061</ele>
        <time>2021-07-19T12:21:01Z</time>
      </trkpt>
      <trkpt lat="42.65244" lon="1.69092">
        <ele>2146.75</ele>
        <time>2021-07-19T12:21:03Z</time>
      </trkpt>
      <trkpt lat="42.65245" lon="1.69094">
        <ele>2146.557</ele>
        <time>2021-07-19T12:21:05Z</time>
      </trkpt>
      <trkpt lat="42.65246" lon="1.69096">
        <ele>2146.445</ele>
        <time>2021-07-19T12:21:07Z</time>
      </trkpt>
      <trkpt lat="42.65246" lon="1.69098">
        <ele>2146.241</ele>
        <time>2021-07-19T12:21:09Z</time>
      </trkpt>
      <trkpt lat="42.65247" lon="1.691">
        <ele>2146.056</ele>
        <time>2021-07-19T12:21:11Z</time>
      </trkpt>
      <trkpt lat="42.65247" lon="1.69102">
        <ele>2145.997</ele>
        <time>2021-07-19T12:21:13Z</time>
      </trkpt>
      <trkpt lat="42.65247" lon="1.69104">
        <ele>2145.035</ele>
        <time>2021-07-19T12:21:15Z</time>
      </trkpt>
      <trkpt lat="42.65247" lon="1.69107">
        <ele>2144.508</ele>
        <time>2021-07-19T12:21:17Z</time>
      </trkpt>
      <trkpt lat="42.65247" lon="1.69109">
        <ele>2144.725</ele>
        <time>2021-07-19T12:21:19Z</time>
      </trkpt>
      <trkpt lat="42.65248" lon="1.69111">
        <ele>2144.244</ele>
        <time>2021-07-19T12:21:21Z</time>
      </trkpt>
      <trkpt lat="42.65248" lon="1.69113">
        <ele>2144.506</ele>
        <time>2021-07-19T12:21:23Z</time>
      </trkpt>
      <trkpt lat="42.65249" lon="1.69115">
        <ele>2145.021</ele>
        <time>2021-07-19T12:21:25Z</time>
      </trkpt>
      <trkpt lat="42.65249" lon="1.69117">
        <ele>2145.153</ele>
        <time>2021-07-19T12:21:27Z</time>
      </trkpt>
      <trkpt lat="42.65249" lon="1.6912">
        <ele>2146.056</ele>
        <time>2021-07-19T12:21:29Z</time>
      </trkpt>
      <trkpt lat="42.65249" lon="1.69122">
        <ele>2146.309</ele>
        <time>2021-07-19T12:21:31Z</time>
      </trkpt>
      <trkpt lat="42.65249" lon="1.69125">
        <ele>2146.657</ele>
        <time>2021-07-19T12:21:33Z</time>
      </trkpt>
      <trkpt lat="42.65249" lon="1.69127">
        <ele>2147.203</ele>
        <time>2021-07-19T12:21:35Z</time>
      </trkpt>
      <trkpt lat="42.65249" lon="1.69129">
        <ele>2146.901</ele>
        <time>2021-07-19T12:21:37Z</time>
      </trkpt>
      <trkpt lat="42.65248" lon="1.6913">
        <ele>2147.452</ele>
        <time>2021-07-19T12:21:39Z</time>
      </trkpt>
      <trkpt lat="42.65247" lon="1.69131">
        <ele>2147.829</ele>
        <time>2021-07-19T12:21:41Z</time>
      </trkpt>
      <trkpt lat="42.65247" lon="1.69131">
        <ele>2147.828</ele>
        <time>2021-07-19T12:21:43Z</time>
      </trkpt>
      <trkpt lat="42.65247" lon="1.69132">
        <ele>2147.815</ele>
        <time>2021-07-19T12:21:45Z</time>
      </trkpt>
      <trkpt lat="42.65246" lon="1.69135">
        <ele>2147.807</ele>
        <time>2021-07-19T12:21:47Z</time>
      </trkpt>
      <trkpt lat="42.65247" lon="1.69137">
        <ele>2148.018</ele>
        <time>2021-07-19T12:21:49Z</time>
      </trkpt>
      <trkpt lat="42.65247" lon="1.69139">
        <ele>2147.898</ele>
        <time>2021-07-19T12:21:51Z</time>
      </trkpt>
      <trkpt lat="42.65247" lon="1.69142">
        <ele>2148.292</ele>
        <time>2021-07-19T12:21:53Z</time>
      </trkpt>
      <trkpt lat="42.65247" lon="1.69145">
        <ele>2148.245</ele>
        <time>2021-07-19T12:21:55Z</time>
      </trkpt>
      <trkpt lat="42.65248" lon="1.69147">
        <ele>2148.085</ele>
        <time>2021-07-19T12:21:57Z</time>
      </trkpt>
      <trkpt lat="42.65248" lon="1.69149">
        <ele>2148.221</ele>
        <time>2021-07-19T12:21:59Z</time>
      </trkpt>
      <trkpt lat="42.65249" lon="1.69151">
        <ele>2148.269</ele>
        <time>2021-07-19T12:22:01Z</time>
      </trkpt>
      <trkpt lat="42.65249" lon="1.69154">
        <ele>2148.326</ele>
        <time>2021-07-19T12:22:03Z</time>
      </trkpt>
      <trkpt lat="42.65249" lon="1.69156">
        <ele>2147.908</ele>
        <time>2021-07-19T12:22:05Z</time>
      </trkpt>
      <trkpt lat="42.65249" lon="1.69159">
        <ele>2147.424</ele>
        <time>2021-07-19T12:22:07Z</time>
      </trkpt>
      <trkpt lat="42.65248" lon="1.69161">
        <ele>2147.933</ele>
        <time>2021-07-19T12:22:09Z</time>
      </trkpt>
      <trkpt lat="42.65247" lon="1.69164">
        <ele>2147.619</ele>
        <time>2021-07-19T12:22:11Z</time>
      </trkpt>
      <trkpt lat="42.65246" lon="1.69165">
        <ele>2148.221</ele>
        <time>2021-07-19T12:22:13Z</time>
      </trkpt>
      <trkpt lat="42.65245" lon="1.69167">
        <ele>2148.119</ele>
        <time>2021-07-19T12:22:15Z</time>
      </trkpt>
      <trkpt lat="42.65243" lon="1.69169">
        <ele>2148.222</ele>
        <time>2021-07-19T12:22:17Z</time>
      </trkpt>
      <trkpt lat="42.65242" lon="1.69171">
        <ele>2148.458</ele>
        <time>2021-07-19T12:22:19Z</time>
      </trkpt>
      <trkpt lat="42.65241" lon="1.69173">
        <ele>2148.925</ele>
        <time>2021-07-19T12:22:21Z</time>
      </trkpt>
      <trkpt lat="42.6524" lon="1.69176">
        <ele>2149.016</ele>
        <time>2021-07-19T12:22:23Z</time>
      </trkpt>
      <trkpt lat="42.65239" lon="1.69179">
        <ele>2148.883</ele>
        <time>2021-07-19T12:22:25Z</time>
      </trkpt>
      <trkpt lat="42.65238" lon="1.69182">
        <ele>2148.751</ele>
        <time>2021-07-19T12:22:27Z</time>
      </trkpt>
      <trkpt lat="42.65236" lon="1.69184">
        <ele>2148.108</ele>
        <time>2021-07-19T12:22:29Z</time>
      </trkpt>
      <trkpt lat="42.65236" lon="1.69187">
        <ele>2148.503</ele>
        <time>2021-07-19T12:22:31Z</time>
      </trkpt>
      <trkpt lat="42.65236" lon="1.6919">
        <ele>2148.06</ele>
        <time>2021-07-19T12:22:33Z</time>
      </trkpt>
      <trkpt lat="42.65237" lon="1.69192">
        <ele>2148.48</ele>
        <time>2021-07-19T12:22:35Z</time>
      </trkpt>
      <trkpt lat="42.65237" lon="1.69195">
        <ele>2148.781</ele>
        <time>2021-07-19T12:22:37Z</time>
      </trkpt>
      <trkpt lat="42.65238" lon="1.69197">
        <ele>2148.955</ele>
        <time>2021-07-19T12:22:39Z</time>
      </trkpt>
      <trkpt lat="42.65238" lon="1.69199">
        <ele>2148.993</ele>
        <time>2021-07-19T12:22:41Z</time>
      </trkpt>
      <trkpt lat="42.65238" lon="1.69201">
        <ele>2148.864</ele>
        <time>2021-07-19T12:22:43Z</time>
      </trkpt>
      <trkpt lat="42.65238" lon="1.69202">
        <ele>2148.465</ele>
        <time>2021-07-19T12:22:45Z</time>
      </trkpt>
      <trkpt lat="42.65237" lon="1.69203">
        <ele>2148.848</ele>
        <time>2021-07-19T12:22:47Z</time>
      </trkpt>
      <trkpt lat="42.65237" lon="1.69205">
        <ele>2148.878</ele>
        <time>2021-07-19T12:22:49Z</time>
      </trkpt>
      <trkpt lat="42.65237" lon="1.69207">
        <ele>2149.302</ele>
        <time>2021-07-19T12:22:51Z</time>
      </trkpt>
      <trkpt lat="42.65236" lon="1.69209">
        <ele>2148.988</ele>
        <time>2021-07-19T12:22:53Z</time>
      </trkpt>
      <trkpt lat="42.65236" lon="1.69211">
        <ele>2148.708</ele>
        <time>2021-07-19T12:22:55Z</time>
      </trkpt>
      <trkpt lat="42.65235" lon="1.69212">
        <ele>2148.926</ele>
        <time>2021-07-19T12:22:57Z</time>
      </trkpt>
      <trkpt lat="42.65234" lon="1.69214">
        <ele>2148.741</ele>
        <time>2021-07-19T12:22:59Z</time>
      </trkpt>
      <trkpt lat="42.65233" lon="1.69215">
        <ele>2148.973</ele>
        <time>2021-07-19T12:23:01Z</time>
      </trkpt>
      <trkpt lat="42.65232" lon="1.69216">
        <ele>2148.222</ele>
        <time>2021-07-19T12:23:03Z</time>
      </trkpt>
      <trkpt lat="42.65231" lon="1.69218">
        <ele>2147.899</ele>
        <time>2021-07-19T12:23:05Z</time>
      </trkpt>
      <trkpt lat="42.6523" lon="1.6922">
        <ele>2147.726</ele>
        <time>2021-07-19T12:23:07Z</time>
      </trkpt>
      <trkpt lat="42.6523" lon="1.69221">
        <ele>2148.354</ele>
        <time>2021-07-19T12:23:09Z</time>
      </trkpt>
      <trkpt lat="42.65228" lon="1.69223">
        <ele>2148.334</ele>
        <time>2021-07-19T12:23:11Z</time>
      </trkpt>
      <trkpt lat="42.65226" lon="1.69224">
        <ele>2148.078</ele>
        <time>2021-07-19T12:23:13Z</time>
      </trkpt>
      <trkpt lat="42.65224" lon="1.69225">
        <ele>2148.249</ele>
        <time>2021-07-19T12:23:15Z</time>
      </trkpt>
      <trkpt lat="42.65224" lon="1.69227">
        <ele>2148.378</ele>
        <time>2021-07-19T12:23:17Z</time>
      </trkpt>
      <trkpt lat="42.65223" lon="1.69229">
        <ele>2148.524</ele>
        <time>2021-07-19T12:23:19Z</time>
      </trkpt>
      <trkpt lat="42.65221" lon="1.69229">
        <ele>2148.609</ele>
        <time>2021-07-19T12:23:21Z</time>
      </trkpt>
      <trkpt lat="42.65221" lon="1.69229">
        <ele>2148.46</ele>
        <time>2021-07-19T12:23:23Z</time>
      </trkpt>
      <trkpt lat="42.65221" lon="1.69229">
        <ele>2148.458</ele>
        <time>2021-07-19T12:23:25Z</time>
      </trkpt>
      <trkpt lat="42.65221" lon="1.69229">
        <ele>2148.457</ele>
        <time>2021-07-19T12:23:27Z</time>
      </trkpt>
      <trkpt lat="42.65221" lon="1.69229">
        <ele>2148.767</ele>
        <time>2021-07-19T12:23:29Z</time>
      </trkpt>
      <trkpt lat="42.65221" lon="1.69229">
        <ele>2148.938</ele>
        <time>2021-07-19T12:23:31Z</time>
      </trkpt>
      <trkpt lat="42.65221" lon="1.69229">
        <ele>2148.954</ele>
        <time>2021-07-19T12:23:33Z</time>
      </trkpt>
      <trkpt lat="42.6522" lon="1.69228">
        <ele>2148.402</ele>
        <time>2021-07-19T12:23:35Z</time>
      </trkpt>
      <trkpt lat="42.65219" lon="1.69226">
        <ele>2147.744</ele>
        <time>2021-07-19T12:23:37Z</time>
      </trkpt>
      <trkpt lat="42.65219" lon="1.69224">
        <ele>2147.792</ele>
        <time>2021-07-19T12:23:39Z</time>
      </trkpt>
      <trkpt lat="42.65218" lon="1.69223">
        <ele>2148.659</ele>
        <time>2021-07-19T12:23:41Z</time>
      </trkpt>
      <trkpt lat="42.65218" lon="1.69222">
        <ele>2149.083</ele>
        <time>2021-07-19T12:23:43Z</time>
      </trkpt>
      <trkpt lat="42.65217" lon="1.69221">
        <ele>2149.253</ele>
        <time>2021-07-19T12:23:45Z</time>
      </trkpt>
      <trkpt lat="42.65216" lon="1.69219">
        <ele>2149.392</ele>
        <time>2021-07-19T12:23:47Z</time>
      </trkpt>
      <trkpt lat="42.65216" lon="1.69219">
        <ele>2148.851</ele>
        <time>2021-07-19T12:23:49Z</time>
      </trkpt>
      <trkpt lat="42.65216" lon="1.69219">
        <ele>2148.824</ele>
        <time>2021-07-19T12:23:51Z</time>
      </trkpt>
      <trkpt lat="42.65216" lon="1.69219">
        <ele>2148.813</ele>
        <time>2021-07-19T12:23:53Z</time>
      </trkpt>
      <trkpt lat="42.65216" lon="1.6922">
        <ele>2148.409</ele>
        <time>2021-07-19T12:23:55Z</time>
      </trkpt>
      <trkpt lat="42.65216" lon="1.6922">
        <ele>2148.409</ele>
        <time>2021-07-19T12:23:57Z</time>
      </trkpt>
      <trkpt lat="42.65217" lon="1.6922">
        <ele>2148.056</ele>
        <time>2021-07-19T12:23:59Z</time>
      </trkpt>
      <trkpt lat="42.65217" lon="1.69221">
        <ele>2147.812</ele>
        <time>2021-07-19T12:24:01Z</time>
      </trkpt>
      <trkpt lat="42.65217" lon="1.69221">
        <ele>2147.802</ele>
        <time>2021-07-19T12:24:03Z</time>
      </trkpt>
      <trkpt lat="42.65217" lon="1.69221">
        <ele>2147.638</ele>
        <time>2021-07-19T12:24:05Z</time>
      </trkpt>
      <trkpt lat="42.65217" lon="1.69222">
        <ele>2147.659</ele>
        <time>2021-07-19T12:24:07Z</time>
      </trkpt>
      <trkpt lat="42.65217" lon="1.69222">
        <ele>2147.668</ele>
        <time>2021-07-19T12:24:09Z</time>
      </trkpt>
      <trkpt lat="42.65217" lon="1.69222">
        <ele>2147.68</ele>
        <time>2021-07-19T12:24:11Z</time>
      </trkpt>
      <trkpt lat="42.65217" lon="1.69222">
        <ele>2147.674</ele>
        <time>2021-07-19T12:24:13Z</time>
      </trkpt>
      <trkpt lat="42.65217" lon="1.69222">
        <ele>2147.671</ele>
        <time>2021-07-19T12:24:15Z</time>
      </trkpt>
      <trkpt lat="42.65217" lon="1.69222">
        <ele>2147.666</ele>
        <time>2021-07-19T12:24:17Z</time>
      </trkpt>
      <trkpt lat="42.65217" lon="1.69221">
        <ele>2147.434</ele>
        <time>2021-07-19T12:24:19Z</time>
      </trkpt>
      <trkpt lat="42.65217" lon="1.69221">
        <ele>2147.185</ele>
        <time>2021-07-19T12:24:21Z</time>
      </trkpt>
      <trkpt lat="42.65217" lon="1.69222">
        <ele>2147.164</ele>
        <time>2021-07-19T12:24:23Z</time>
      </trkpt>
      <trkpt lat="42.65217" lon="1.69222">
        <ele>2147.156</ele>
        <time>2021-07-19T12:24:25Z</time>
      </trkpt>
      <trkpt lat="42.65217" lon="1.69222">
        <ele>2147.148</ele>
        <time>2021-07-19T12:24:27Z</time>
      </trkpt>
      <trkpt lat="42.65217" lon="1.69222">
        <ele>2147.145</ele>
        <time>2021-07-19T12:24:29Z</time>
      </trkpt>
      <trkpt lat="42.65216" lon="1.6922">
        <ele>2146.715</ele>
        <time>2021-07-19T12:24:31Z</time>
      </trkpt>
      <trkpt lat="42.65216" lon="1.69218">
        <ele>2146.853</ele>
        <time>2021-07-19T12:24:33Z</time>
      </trkpt>
      <trkpt lat="42.65216" lon="1.69216">
        <ele>2146.232</ele>
        <time>2021-07-19T12:24:35Z</time>
      </trkpt>
      <trkpt lat="42.65215" lon="1.69214">
        <ele>2145.977</ele>
        <time>2021-07-19T12:24:37Z</time>
      </trkpt>
      <trkpt lat="42.65213" lon="1.69213">
        <ele>2144.878</ele>
        <time>2021-07-19T12:24:39Z</time>
      </trkpt>
      <trkpt lat="42.65211" lon="1.69213">
        <ele>2144.267</ele>
        <time>2021-07-19T12:24:41Z</time>
      </trkpt>
      <trkpt lat="42.6521" lon="1.69211">
        <ele>2143.597</ele>
        <time>2021-07-19T12:24:43Z</time>
      </trkpt>
      <trkpt lat="42.65208" lon="1.69209">
        <ele>2143.652</ele>
        <time>2021-07-19T12:24:45Z</time>
      </trkpt>
      <trkpt lat="42.65207" lon="1.69209">
        <ele>2142.395</ele>
        <time>2021-07-19T12:24:47Z</time>
      </trkpt>
      <trkpt lat="42.65207" lon="1.69207">
        <ele>2142.043</ele>
        <time>2021-07-19T12:24:49Z</time>
      </trkpt>
      <trkpt lat="42.65206" lon="1.69204">
        <ele>2141.729</ele>
        <time>2021-07-19T12:24:51Z</time>
      </trkpt>
      <trkpt lat="42.65205" lon="1.69202">
        <ele>2140.58</ele>
        <time>2021-07-19T12:24:53Z</time>
      </trkpt>
      <trkpt lat="42.65205" lon="1.692">
        <ele>2139.71</ele>
        <time>2021-07-19T12:24:55Z</time>
      </trkpt>
      <trkpt lat="42.65204" lon="1.69198">
        <ele>2139.989</ele>
        <time>2021-07-19T12:24:57Z</time>
      </trkpt>
      <trkpt lat="42.65203" lon="1.69198">
        <ele>2138.955</ele>
        <time>2021-07-19T12:24:59Z</time>
      </trkpt>
      <trkpt lat="42.65201" lon="1.69199">
        <ele>2138.414</ele>
        <time>2021-07-19T12:25:01Z</time>
      </trkpt>
      <trkpt lat="42.652" lon="1.69198">
        <ele>2137.928</ele>
        <time>2021-07-19T12:25:03Z</time>
      </trkpt>
      <trkpt lat="42.65199" lon="1.69196">
        <ele>2137.725</ele>
        <time>2021-07-19T12:25:05Z</time>
      </trkpt>
      <trkpt lat="42.65197" lon="1.69197">
        <ele>2136.955</ele>
        <time>2021-07-19T12:25:07Z</time>
      </trkpt>
      <trkpt lat="42.65196" lon="1.69197">
        <ele>2135.847</ele>
        <time>2021-07-19T12:25:09Z</time>
      </trkpt>
      <trkpt lat="42.65195" lon="1.69196">
        <ele>2135.058</ele>
        <time>2021-07-19T12:25:11Z</time>
      </trkpt>
      <trkpt lat="42.65193" lon="1.69195">
        <ele>2134.175</ele>
        <time>2021-07-19T12:25:13Z</time>
      </trkpt>
      <trkpt lat="42.65192" lon="1.69195">
        <ele>2133.67</ele>
        <time>2021-07-19T12:25:15Z</time>
      </trkpt>
      <trkpt lat="42.65191" lon="1.69197">
        <ele>2132.885</ele>
        <time>2021-07-19T12:25:17Z</time>
      </trkpt>
      <trkpt lat="42.6519" lon="1.69196">
        <ele>2133.259</ele>
        <time>2021-07-19T12:25:19Z</time>
      </trkpt>
      <trkpt lat="42.65189" lon="1.69195">
        <ele>2133.023</ele>
        <time>2021-07-19T12:25:21Z</time>
      </trkpt>
      <trkpt lat="42.65188" lon="1.69193">
        <ele>2132.148</ele>
        <time>2021-07-19T12:25:23Z</time>
      </trkpt>
      <trkpt lat="42.65186" lon="1.69192">
        <ele>2131.649</ele>
        <time>2021-07-19T12:25:25Z</time>
      </trkpt>
      <trkpt lat="42.65184" lon="1.69192">
        <ele>2131.109</ele>
        <time>2021-07-19T12:25:27Z</time>
      </trkpt>
      <trkpt lat="42.65182" lon="1.69194">
        <ele>2131.19</ele>
        <time>2021-07-19T12:25:29Z</time>
      </trkpt>
      <trkpt lat="42.65181" lon="1.69196">
        <ele>2131.13</ele>
        <time>2021-07-19T12:25:31Z</time>
      </trkpt>
      <trkpt lat="42.65179" lon="1.69198">
        <ele>2131.203</ele>
        <time>2021-07-19T12:25:33Z</time>
      </trkpt>
      <trkpt lat="42.65178" lon="1.692">
        <ele>2130.989</ele>
        <time>2021-07-19T12:25:35Z</time>
      </trkpt>
      <trkpt lat="42.65177" lon="1.69203">
        <ele>2130.955</ele>
        <time>2021-07-19T12:25:37Z</time>
      </trkpt>
      <trkpt lat="42.65175" lon="1.69203">
        <ele>2131.039</ele>
        <time>2021-07-19T12:25:39Z</time>
      </trkpt>
      <trkpt lat="42.65173" lon="1.69204">
        <ele>2131.14</ele>
        <time>2021-07-19T12:25:41Z</time>
      </trkpt>
      <trkpt lat="42.65172" lon="1.69205">
        <ele>2131.083</ele>
        <time>2021-07-19T12:25:43Z</time>
      </trkpt>
      <trkpt lat="42.6517" lon="1.69206">
        <ele>2130.577</ele>
        <time>2021-07-19T12:25:45Z</time>
      </trkpt>
      <trkpt lat="42.65169" lon="1.69206">
        <ele>2130.249</ele>
        <time>2021-07-19T12:25:47Z</time>
      </trkpt>
      <trkpt lat="42.65167" lon="1.69207">
        <ele>2129.326</ele>
        <time>2021-07-19T12:25:49Z</time>
      </trkpt>
      <trkpt lat="42.65165" lon="1.69207">
        <ele>2128.863</ele>
        <time>2021-07-19T12:25:51Z</time>
      </trkpt>
      <trkpt lat="42.65163" lon="1.69207">
        <ele>2129.624</ele>
        <time>2021-07-19T12:25:53Z</time>
      </trkpt>
      <trkpt lat="42.65161" lon="1.69207">
        <ele>2129.794</ele>
        <time>2021-07-19T12:25:55Z</time>
      </trkpt>
      <trkpt lat="42.65159" lon="1.69208">
        <ele>2129.516</ele>
        <time>2021-07-19T12:25:57Z</time>
      </trkpt>
      <trkpt lat="42.65158" lon="1.69208">
        <ele>2128.553</ele>
        <time>2021-07-19T12:25:59Z</time>
      </trkpt>
      <trkpt lat="42.65157" lon="1.69209">
        <ele>2127.814</ele>
        <time>2021-07-19T12:26:01Z</time>
      </trkpt>
      <trkpt lat="42.65155" lon="1.6921">
        <ele>2127.821</ele>
        <time>2021-07-19T12:26:03Z</time>
      </trkpt>
      <trkpt lat="42.65154" lon="1.69212">
        <ele>2127.918</ele>
        <time>2021-07-19T12:26:05Z</time>
      </trkpt>
      <trkpt lat="42.65153" lon="1.69212">
        <ele>2126.952</ele>
        <time>2021-07-19T12:26:07Z</time>
      </trkpt>
      <trkpt lat="42.65152" lon="1.69211">
        <ele>2126.138</ele>
        <time>2021-07-19T12:26:09Z</time>
      </trkpt>
      <trkpt lat="42.6515" lon="1.69211">
        <ele>2125.324</ele>
        <time>2021-07-19T12:26:11Z</time>
      </trkpt>
      <trkpt lat="42.65149" lon="1.69211">
        <ele>2125.401</ele>
        <time>2021-07-19T12:26:13Z</time>
      </trkpt>
      <trkpt lat="42.65147" lon="1.69211">
        <ele>2124.239</ele>
        <time>2021-07-19T12:26:15Z</time>
      </trkpt>
      <trkpt lat="42.65145" lon="1.69211">
        <ele>2123.955</ele>
        <time>2021-07-19T12:26:17Z</time>
      </trkpt>
      <trkpt lat="42.65143" lon="1.69211">
        <ele>2123.207</ele>
        <time>2021-07-19T12:26:19Z</time>
      </trkpt>
      <trkpt lat="42.65141" lon="1.69212">
        <ele>2122.24</ele>
        <time>2021-07-19T12:26:21Z</time>
      </trkpt>
      <trkpt lat="42.6514" lon="1.69214">
        <ele>2122.071</ele>
        <time>2021-07-19T12:26:23Z</time>
      </trkpt>
      <trkpt lat="42.65138" lon="1.69216">
        <ele>2122.244</ele>
        <time>2021-07-19T12:26:25Z</time>
      </trkpt>
      <trkpt lat="42.65138" lon="1.69217">
        <ele>2121.098</ele>
        <time>2021-07-19T12:26:27Z</time>
      </trkpt>
      <trkpt lat="42.65136" lon="1.69219">
        <ele>2122.396</ele>
        <time>2021-07-19T12:26:29Z</time>
      </trkpt>
      <trkpt lat="42.65135" lon="1.69221">
        <ele>2122.364</ele>
        <time>2021-07-19T12:26:31Z</time>
      </trkpt>
      <trkpt lat="42.65134" lon="1.69222">
        <ele>2121.974</ele>
        <time>2021-07-19T12:26:33Z</time>
      </trkpt>
      <trkpt lat="42.65133" lon="1.69224">
        <ele>2121.428</ele>
        <time>2021-07-19T12:26:35Z</time>
      </trkpt>
      <trkpt lat="42.65132" lon="1.69226">
        <ele>2121.066</ele>
        <time>2021-07-19T12:26:37Z</time>
      </trkpt>
      <trkpt lat="42.65131" lon="1.69228">
        <ele>2120.454</ele>
        <time>2021-07-19T12:26:39Z</time>
      </trkpt>
      <trkpt lat="42.6513" lon="1.69229">
        <ele>2120.032</ele>
        <time>2021-07-19T12:26:41Z</time>
      </trkpt>
      <trkpt lat="42.65129" lon="1.69231">
        <ele>2119.436</ele>
        <time>2021-07-19T12:26:43Z</time>
      </trkpt>
      <trkpt lat="42.65128" lon="1.69232">
        <ele>2118.955</ele>
        <time>2021-07-19T12:26:45Z</time>
      </trkpt>
      <trkpt lat="42.65128" lon="1.69234">
        <ele>2118.304</ele>
        <time>2021-07-19T12:26:47Z</time>
      </trkpt>
      <trkpt lat="42.65126" lon="1.69236">
        <ele>2118.2</ele>
        <time>2021-07-19T12:26:49Z</time>
      </trkpt>
      <trkpt lat="42.65125" lon="1.69237">
        <ele>2117.736</ele>
        <time>2021-07-19T12:26:51Z</time>
      </trkpt>
      <trkpt lat="42.65123" lon="1.69239">
        <ele>2116.265</ele>
        <time>2021-07-19T12:26:53Z</time>
      </trkpt>
      <trkpt lat="42.65123" lon="1.69242">
        <ele>2116.575</ele>
        <time>2021-07-19T12:26:55Z</time>
      </trkpt>
      <trkpt lat="42.65121" lon="1.69243">
        <ele>2116.028</ele>
        <time>2021-07-19T12:26:57Z</time>
      </trkpt>
      <trkpt lat="42.6512" lon="1.69243">
        <ele>2114.674</ele>
        <time>2021-07-19T12:26:59Z</time>
      </trkpt>
      <trkpt lat="42.65118" lon="1.69244">
        <ele>2114.083</ele>
        <time>2021-07-19T12:27:01Z</time>
      </trkpt>
      <trkpt lat="42.65117" lon="1.69246">
        <ele>2113.751</ele>
        <time>2021-07-19T12:27:03Z</time>
      </trkpt>
      <trkpt lat="42.65115" lon="1.69247">
        <ele>2112.93</ele>
        <time>2021-07-19T12:27:05Z</time>
      </trkpt>
      <trkpt lat="42.65113" lon="1.69249">
        <ele>2112.13</ele>
        <time>2021-07-19T12:27:07Z</time>
      </trkpt>
      <trkpt lat="42.65111" lon="1.69251">
        <ele>2111.97</ele>
        <time>2021-07-19T12:27:09Z</time>
      </trkpt>
      <trkpt lat="42.65109" lon="1.69252">
        <ele>2111.571</ele>
        <time>2021-07-19T12:27:11Z</time>
      </trkpt>
      <trkpt lat="42.65107" lon="1.69253">
        <ele>2110.691</ele>
        <time>2021-07-19T12:27:13Z</time>
      </trkpt>
      <trkpt lat="42.65106" lon="1.69254">
        <ele>2110.748</ele>
        <time>2021-07-19T12:27:15Z</time>
      </trkpt>
      <trkpt lat="42.65104" lon="1.69256">
        <ele>2110.598</ele>
        <time>2021-07-19T12:27:17Z</time>
      </trkpt>
      <trkpt lat="42.65103" lon="1.69258">
        <ele>2109.689</ele>
        <time>2021-07-19T12:27:19Z</time>
      </trkpt>
      <trkpt lat="42.65101" lon="1.69259">
        <ele>2109.381</ele>
        <time>2021-07-19T12:27:21Z</time>
      </trkpt>
      <trkpt lat="42.65099" lon="1.69259">
        <ele>2108.518</ele>
        <time>2021-07-19T12:27:23Z</time>
      </trkpt>
      <trkpt lat="42.65097" lon="1.6926">
        <ele>2107.91</ele>
        <time>2021-07-19T12:27:25Z</time>
      </trkpt>
      <trkpt lat="42.65096" lon="1.69262">
        <ele>2107.923</ele>
        <time>2021-07-19T12:27:27Z</time>
      </trkpt>
      <trkpt lat="42.65094" lon="1.69264">
        <ele>2107.903</ele>
        <time>2021-07-19T12:27:29Z</time>
      </trkpt>
      <trkpt lat="42.65092" lon="1.69265">
        <ele>2107.544</ele>
        <time>2021-07-19T12:27:31Z</time>
      </trkpt>
      <trkpt lat="42.6509" lon="1.69266">
        <ele>2106.506</ele>
        <time>2021-07-19T12:27:33Z</time>
      </trkpt>
      <trkpt lat="42.65089" lon="1.69266">
        <ele>2105.688</ele>
        <time>2021-07-19T12:27:35Z</time>
      </trkpt>
      <trkpt lat="42.65087" lon="1.69267">
        <ele>2105.085</ele>
        <time>2021-07-19T12:27:37Z</time>
      </trkpt>
      <trkpt lat="42.65085" lon="1.69267">
        <ele>2104.563</ele>
        <time>2021-07-19T12:27:39Z</time>
      </trkpt>
      <trkpt lat="42.65083" lon="1.69268">
        <ele>2104.286</ele>
        <time>2021-07-19T12:27:41Z</time>
      </trkpt>
      <trkpt lat="42.65081" lon="1.69269">
        <ele>2103.581</ele>
        <time>2021-07-19T12:27:43Z</time>
      </trkpt>
      <trkpt lat="42.65079" lon="1.6927">
        <ele>2104.174</ele>
        <time>2021-07-19T12:27:45Z</time>
      </trkpt>
      <trkpt lat="42.65078" lon="1.69271">
        <ele>2104.038</ele>
        <time>2021-07-19T12:27:47Z</time>
      </trkpt>
      <trkpt lat="42.65076" lon="1.69272">
        <ele>2104.659</ele>
        <time>2021-07-19T12:27:49Z</time>
      </trkpt>
      <trkpt lat="42.65075" lon="1.69273">
        <ele>2104.186</ele>
        <time>2021-07-19T12:27:51Z</time>
      </trkpt>
      <trkpt lat="42.65074" lon="1.69273">
        <ele>2103.154</ele>
        <time>2021-07-19T12:27:53Z</time>
      </trkpt>
      <trkpt lat="42.65073" lon="1.69272">
        <ele>2102.968</ele>
        <time>2021-07-19T12:27:55Z</time>
      </trkpt>
      <trkpt lat="42.65072" lon="1.69271">
        <ele>2101.891</ele>
        <time>2021-07-19T12:27:57Z</time>
      </trkpt>
      <trkpt lat="42.6507" lon="1.69271">
        <ele>2101.369</ele>
        <time>2021-07-19T12:27:59Z</time>
      </trkpt>
      <trkpt lat="42.65069" lon="1.69271">
        <ele>2100.684</ele>
        <time>2021-07-19T12:28:01Z</time>
      </trkpt>
      <trkpt lat="42.65067" lon="1.6927">
        <ele>2101.172</ele>
        <time>2021-07-19T12:28:03Z</time>
      </trkpt>
      <trkpt lat="42.65066" lon="1.6927">
        <ele>2103.242</ele>
        <time>2021-07-19T12:28:05Z</time>
      </trkpt>
      <trkpt lat="42.65065" lon="1.69268">
        <ele>2102.118</ele>
        <time>2021-07-19T12:28:07Z</time>
      </trkpt>
      <trkpt lat="42.65064" lon="1.69266">
        <ele>2101.015</ele>
        <time>2021-07-19T12:28:09Z</time>
      </trkpt>
      <trkpt lat="42.65062" lon="1.69265">
        <ele>2100.175</ele>
        <time>2021-07-19T12:28:11Z</time>
      </trkpt>
      <trkpt lat="42.6506" lon="1.69265">
        <ele>2099.275</ele>
        <time>2021-07-19T12:28:13Z</time>
      </trkpt>
      <trkpt lat="42.65059" lon="1.69264">
        <ele>2099.203</ele>
        <time>2021-07-19T12:28:15Z</time>
      </trkpt>
      <trkpt lat="42.65058" lon="1.69264">
        <ele>2098.003</ele>
        <time>2021-07-19T12:28:17Z</time>
      </trkpt>
      <trkpt lat="42.65056" lon="1.69263">
        <ele>2096.785</ele>
        <time>2021-07-19T12:28:19Z</time>
      </trkpt>
      <trkpt lat="42.65055" lon="1.69262">
        <ele>2095.571</ele>
        <time>2021-07-19T12:28:21Z</time>
      </trkpt>
      <trkpt lat="42.65053" lon="1.69261">
        <ele>2094.777</ele>
        <time>2021-07-19T12:28:23Z</time>
      </trkpt>
      <trkpt lat="42.65052" lon="1.6926">
        <ele>2094.176</ele>
        <time>2021-07-19T12:28:25Z</time>
      </trkpt>
      <trkpt lat="42.65051" lon="1.6926">
        <ele>2092.755</ele>
        <time>2021-07-19T12:28:27Z</time>
      </trkpt>
      <trkpt lat="42.65049" lon="1.69259">
        <ele>2091.755</ele>
        <time>2021-07-19T12:28:29Z</time>
      </trkpt>
      <trkpt lat="42.65047" lon="1.69259">
        <ele>2090.835</ele>
        <time>2021-07-19T12:28:31Z</time>
      </trkpt>
      <trkpt lat="42.65045" lon="1.69259">
        <ele>2090.795</ele>
        <time>2021-07-19T12:28:33Z</time>
      </trkpt>
      <trkpt lat="42.65044" lon="1.69259">
        <ele>2090.141</ele>
        <time>2021-07-19T12:28:35Z</time>
      </trkpt>
      <trkpt lat="42.65042" lon="1.69259">
        <ele>2089.564</ele>
        <time>2021-07-19T12:28:37Z</time>
      </trkpt>
      <trkpt lat="42.6504" lon="1.69259">
        <ele>2089.191</ele>
        <time>2021-07-19T12:28:39Z</time>
      </trkpt>
      <trkpt lat="42.65038" lon="1.69259">
        <ele>2088.645</ele>
        <time>2021-07-19T12:28:41Z</time>
      </trkpt>
      <trkpt lat="42.65037" lon="1.69259">
        <ele>2087.639</ele>
        <time>2021-07-19T12:28:43Z</time>
      </trkpt>
      <trkpt lat="42.65035" lon="1.69259">
        <ele>2087.725</ele>
        <time>2021-07-19T12:28:45Z</time>
      </trkpt>
      <trkpt lat="42.65033" lon="1.69259">
        <ele>2085.311</ele>
        <time>2021-07-19T12:28:47Z</time>
      </trkpt>
      <trkpt lat="42.65031" lon="1.69259">
        <ele>2084.337</ele>
        <time>2021-07-19T12:28:49Z</time>
      </trkpt>
      <trkpt lat="42.65028" lon="1.69259">
        <ele>2083.887</ele>
        <time>2021-07-19T12:28:51Z</time>
      </trkpt>
      <trkpt lat="42.65026" lon="1.69259">
        <ele>2083.228</ele>
        <time>2021-07-19T12:28:53Z</time>
      </trkpt>
      <trkpt lat="42.65024" lon="1.69258">
        <ele>2082.867</ele>
        <time>2021-07-19T12:28:55Z</time>
      </trkpt>
      <trkpt lat="42.65022" lon="1.69258">
        <ele>2082.34</ele>
        <time>2021-07-19T12:28:57Z</time>
      </trkpt>
      <trkpt lat="42.6502" lon="1.69258">
        <ele>2081.271</ele>
        <time>2021-07-19T12:28:59Z</time>
      </trkpt>
      <trkpt lat="42.65018" lon="1.69259">
        <ele>2082.228</ele>
        <time>2021-07-19T12:29:01Z</time>
      </trkpt>
      <trkpt lat="42.65016" lon="1.69258">
        <ele>2081.901</ele>
        <time>2021-07-19T12:29:03Z</time>
      </trkpt>
      <trkpt lat="42.65013" lon="1.69258">
        <ele>2082.8</ele>
        <time>2021-07-19T12:29:05Z</time>
      </trkpt>
      <trkpt lat="42.65011" lon="1.69257">
        <ele>2082.423</ele>
        <time>2021-07-19T12:29:07Z</time>
      </trkpt>
      <trkpt lat="42.65009" lon="1.69256">
        <ele>2081.433</ele>
        <time>2021-07-19T12:29:09Z</time>
      </trkpt>
      <trkpt lat="42.65007" lon="1.69256">
        <ele>2080.765</ele>
        <time>2021-07-19T12:29:11Z</time>
      </trkpt>
      <trkpt lat="42.65005" lon="1.69255">
        <ele>2080.42</ele>
        <time>2021-07-19T12:29:13Z</time>
      </trkpt>
      <trkpt lat="42.65003" lon="1.69254">
        <ele>2079.704</ele>
        <time>2021-07-19T12:29:15Z</time>
      </trkpt>
      <trkpt lat="42.65002" lon="1.69252">
        <ele>2079.654</ele>
        <time>2021-07-19T12:29:17Z</time>
      </trkpt>
      <trkpt lat="42.64999" lon="1.69252">
        <ele>2078.791</ele>
        <time>2021-07-19T12:29:19Z</time>
      </trkpt>
      <trkpt lat="42.64997" lon="1.69251">
        <ele>2077.475</ele>
        <time>2021-07-19T12:29:21Z</time>
      </trkpt>
      <trkpt lat="42.64995" lon="1.6925">
        <ele>2077.462</ele>
        <time>2021-07-19T12:29:23Z</time>
      </trkpt>
      <trkpt lat="42.64993" lon="1.6925">
        <ele>2077.294</ele>
        <time>2021-07-19T12:29:25Z</time>
      </trkpt>
      <trkpt lat="42.64992" lon="1.69251">
        <ele>2077.228</ele>
        <time>2021-07-19T12:29:27Z</time>
      </trkpt>
      <trkpt lat="42.6499" lon="1.69251">
        <ele>2077.662</ele>
        <time>2021-07-19T12:29:29Z</time>
      </trkpt>
      <trkpt lat="42.64988" lon="1.69251">
        <ele>2078.068</ele>
        <time>2021-07-19T12:29:31Z</time>
      </trkpt>
      <trkpt lat="42.64987" lon="1.69252">
        <ele>2078.148</ele>
        <time>2021-07-19T12:29:33Z</time>
      </trkpt>
      <trkpt lat="42.64986" lon="1.69252">
        <ele>2077.603</ele>
        <time>2021-07-19T12:29:35Z</time>
      </trkpt>
      <trkpt lat="42.64984" lon="1.69251">
        <ele>2077.541</ele>
        <time>2021-07-19T12:29:37Z</time>
      </trkpt>
      <trkpt lat="42.64983" lon="1.6925">
        <ele>2077.045</ele>
        <time>2021-07-19T12:29:39Z</time>
      </trkpt>
      <trkpt lat="42.64982" lon="1.69249">
        <ele>2077.663</ele>
        <time>2021-07-19T12:29:41Z</time>
      </trkpt>
      <trkpt lat="42.64981" lon="1.69251">
        <ele>2077.337</ele>
        <time>2021-07-19T12:29:43Z</time>
      </trkpt>
      <trkpt lat="42.6498" lon="1.69252">
        <ele>2077.847</ele>
        <time>2021-07-19T12:29:45Z</time>
      </trkpt>
      <trkpt lat="42.64979" lon="1.6925">
        <ele>2079.032</ele>
        <time>2021-07-19T12:29:47Z</time>
      </trkpt>
      <trkpt lat="42.64978" lon="1.69249">
        <ele>2079.273</ele>
        <time>2021-07-19T12:29:49Z</time>
      </trkpt>
      <trkpt lat="42.64977" lon="1.69248">
        <ele>2078.475</ele>
        <time>2021-07-19T12:29:51Z</time>
      </trkpt>
      <trkpt lat="42.64976" lon="1.69248">
        <ele>2078.823</ele>
        <time>2021-07-19T12:29:53Z</time>
      </trkpt>
      <trkpt lat="42.64975" lon="1.69248">
        <ele>2078.698</ele>
        <time>2021-07-19T12:29:55Z</time>
      </trkpt>
      <trkpt lat="42.64973" lon="1.69247">
        <ele>2078.598</ele>
        <time>2021-07-19T12:29:57Z</time>
      </trkpt>
      <trkpt lat="42.64972" lon="1.69246">
        <ele>2078.422</ele>
        <time>2021-07-19T12:29:59Z</time>
      </trkpt>
      <trkpt lat="42.6497" lon="1.69247">
        <ele>2077.186</ele>
        <time>2021-07-19T12:30:01Z</time>
      </trkpt>
      <trkpt lat="42.64969" lon="1.69248">
        <ele>2077.049</ele>
        <time>2021-07-19T12:30:03Z</time>
      </trkpt>
      <trkpt lat="42.64967" lon="1.69247">
        <ele>2076.537</ele>
        <time>2021-07-19T12:30:05Z</time>
      </trkpt>
      <trkpt lat="42.64966" lon="1.69248">
        <ele>2075.736</ele>
        <time>2021-07-19T12:30:07Z</time>
      </trkpt>
      <trkpt lat="42.64964" lon="1.69248">
        <ele>2074.902</ele>
        <time>2021-07-19T12:30:09Z</time>
      </trkpt>
      <trkpt lat="42.64963" lon="1.69249">
        <ele>2075.256</ele>
        <time>2021-07-19T12:30:11Z</time>
      </trkpt>
      <trkpt lat="42.64961" lon="1.69248">
        <ele>2076.208</ele>
        <time>2021-07-19T12:30:13Z</time>
      </trkpt>
      <trkpt lat="42.6496" lon="1.69247">
        <ele>2077.138</ele>
        <time>2021-07-19T12:30:15Z</time>
      </trkpt>
      <trkpt lat="42.64959" lon="1.69246">
        <ele>2077.384</ele>
        <time>2021-07-19T12:30:17Z</time>
      </trkpt>
      <trkpt lat="42.64957" lon="1.69246">
        <ele>2077.809</ele>
        <time>2021-07-19T12:30:19Z</time>
      </trkpt>
      <trkpt lat="42.64956" lon="1.69245">
        <ele>2077.708</ele>
        <time>2021-07-19T12:30:21Z</time>
      </trkpt>
      <trkpt lat="42.64955" lon="1.69245">
        <ele>2077.356</ele>
        <time>2021-07-19T12:30:23Z</time>
      </trkpt>
      <trkpt lat="42.64953" lon="1.69246">
        <ele>2076.786</ele>
        <time>2021-07-19T12:30:25Z</time>
      </trkpt>
      <trkpt lat="42.64952" lon="1.69247">
        <ele>2073.748</ele>
        <time>2021-07-19T12:30:27Z</time>
      </trkpt>
      <trkpt lat="42.64951" lon="1.69247">
        <ele>2072.511</ele>
        <time>2021-07-19T12:30:29Z</time>
      </trkpt>
      <trkpt lat="42.6495" lon="1.69248">
        <ele>2071.142</ele>
        <time>2021-07-19T12:30:31Z</time>
      </trkpt>
      <trkpt lat="42.64948" lon="1.69249">
        <ele>2070.671</ele>
        <time>2021-07-19T12:30:33Z</time>
      </trkpt>
      <trkpt lat="42.64947" lon="1.69249">
        <ele>2069.472</ele>
        <time>2021-07-19T12:30:35Z</time>
      </trkpt>
      <trkpt lat="42.64946" lon="1.6925">
        <ele>2068.686</ele>
        <time>2021-07-19T12:30:37Z</time>
      </trkpt>
      <trkpt lat="42.64944" lon="1.6925">
        <ele>2067.051</ele>
        <time>2021-07-19T12:30:39Z</time>
      </trkpt>
      <trkpt lat="42.64943" lon="1.69251">
        <ele>2065.856</ele>
        <time>2021-07-19T12:30:41Z</time>
      </trkpt>
      <trkpt lat="42.64942" lon="1.69253">
        <ele>2065.78</ele>
        <time>2021-07-19T12:30:43Z</time>
      </trkpt>
      <trkpt lat="42.64942" lon="1.69256">
        <ele>2065.993</ele>
        <time>2021-07-19T12:30:45Z</time>
      </trkpt>
      <trkpt lat="42.6494" lon="1.69257">
        <ele>2065.824</ele>
        <time>2021-07-19T12:30:47Z</time>
      </trkpt>
      <trkpt lat="42.64939" lon="1.69259">
        <ele>2065.268</ele>
        <time>2021-07-19T12:30:49Z</time>
      </trkpt>
      <trkpt lat="42.64938" lon="1.69262">
        <ele>2065.13</ele>
        <time>2021-07-19T12:30:51Z</time>
      </trkpt>
      <trkpt lat="42.64938" lon="1.69264">
        <ele>2065.813</ele>
        <time>2021-07-19T12:30:53Z</time>
      </trkpt>
      <trkpt lat="42.64937" lon="1.69266">
        <ele>2065.707</ele>
        <time>2021-07-19T12:30:55Z</time>
      </trkpt>
      <trkpt lat="42.64936" lon="1.69268">
        <ele>2065.359</ele>
        <time>2021-07-19T12:30:57Z</time>
      </trkpt>
      <trkpt lat="42.64935" lon="1.69269">
        <ele>2065.362</ele>
        <time>2021-07-19T12:30:59Z</time>
      </trkpt>
      <trkpt lat="42.64933" lon="1.6927">
        <ele>2064.548</ele>
        <time>2021-07-19T12:31:01Z</time>
      </trkpt>
      <trkpt lat="42.64931" lon="1.6927">
        <ele>2064.595</ele>
        <time>2021-07-19T12:31:03Z</time>
      </trkpt>
      <trkpt lat="42.6493" lon="1.69269">
        <ele>2065.849</ele>
        <time>2021-07-19T12:31:05Z</time>
      </trkpt>
      <trkpt lat="42.6493" lon="1.69268">
        <ele>2066.379</ele>
        <time>2021-07-19T12:31:07Z</time>
      </trkpt>
      <trkpt lat="42.6493" lon="1.69268">
        <ele>2066.371</ele>
        <time>2021-07-19T12:31:09Z</time>
      </trkpt>
      <trkpt lat="42.6493" lon="1.69268">
        <ele>2066.6</ele>
        <time>2021-07-19T12:31:11Z</time>
      </trkpt>
      <trkpt lat="42.6493" lon="1.6927">
        <ele>2064.716</ele>
        <time>2021-07-19T12:31:13Z</time>
      </trkpt>
      <trkpt lat="42.64929" lon="1.6927">
        <ele>2064.42</ele>
        <time>2021-07-19T12:31:15Z</time>
      </trkpt>
      <trkpt lat="42.64927" lon="1.69269">
        <ele>2063.963</ele>
        <time>2021-07-19T12:31:17Z</time>
      </trkpt>
      <trkpt lat="42.64926" lon="1.69269">
        <ele>2062.369</ele>
        <time>2021-07-19T12:31:19Z</time>
      </trkpt>
      <trkpt lat="42.64925" lon="1.69269">
        <ele>2061.246</ele>
        <time>2021-07-19T12:31:21Z</time>
      </trkpt>
      <trkpt lat="42.64923" lon="1.6927">
        <ele>2062.031</ele>
        <time>2021-07-19T12:31:23Z</time>
      </trkpt>
      <trkpt lat="42.64922" lon="1.69272">
        <ele>2063.176</ele>
        <time>2021-07-19T12:31:25Z</time>
      </trkpt>
      <trkpt lat="42.64921" lon="1.69274">
        <ele>2063.712</ele>
        <time>2021-07-19T12:31:27Z</time>
      </trkpt>
      <trkpt lat="42.6492" lon="1.69275">
        <ele>2065.426</ele>
        <time>2021-07-19T12:31:29Z</time>
      </trkpt>
      <trkpt lat="42.64919" lon="1.69277">
        <ele>2065.949</ele>
        <time>2021-07-19T12:31:31Z</time>
      </trkpt>
      <trkpt lat="42.64918" lon="1.69278">
        <ele>2066.715</ele>
        <time>2021-07-19T12:31:33Z</time>
      </trkpt>
      <trkpt lat="42.64917" lon="1.69278">
        <ele>2067.349</ele>
        <time>2021-07-19T12:31:35Z</time>
      </trkpt>
      <trkpt lat="42.64915" lon="1.69278">
        <ele>2068.637</ele>
        <time>2021-07-19T12:31:37Z</time>
      </trkpt>
      <trkpt lat="42.64914" lon="1.69279">
        <ele>2069.216</ele>
        <time>2021-07-19T12:31:39Z</time>
      </trkpt>
      <trkpt lat="42.64913" lon="1.69279">
        <ele>2069.573</ele>
        <time>2021-07-19T12:31:41Z</time>
      </trkpt>
      <trkpt lat="42.64912" lon="1.69279">
        <ele>2069.558</ele>
        <time>2021-07-19T12:31:43Z</time>
      </trkpt>
      <trkpt lat="42.64911" lon="1.6928">
        <ele>2069.752</ele>
        <time>2021-07-19T12:31:45Z</time>
      </trkpt>
      <trkpt lat="42.6491" lon="1.6928">
        <ele>2070.459</ele>
        <time>2021-07-19T12:31:47Z</time>
      </trkpt>
      <trkpt lat="42.64908" lon="1.69281">
        <ele>2070.87</ele>
        <time>2021-07-19T12:31:49Z</time>
      </trkpt>
      <trkpt lat="42.64907" lon="1.69283">
        <ele>2070.686</ele>
        <time>2021-07-19T12:31:51Z</time>
      </trkpt>
      <trkpt lat="42.64906" lon="1.69284">
        <ele>2070.181</ele>
        <time>2021-07-19T12:31:53Z</time>
      </trkpt>
      <trkpt lat="42.64905" lon="1.69285">
        <ele>2071.152</ele>
        <time>2021-07-19T12:31:55Z</time>
      </trkpt>
      <trkpt lat="42.64903" lon="1.69287">
        <ele>2071.213</ele>
        <time>2021-07-19T12:31:57Z</time>
      </trkpt>
      <trkpt lat="42.64902" lon="1.69288">
        <ele>2071.535</ele>
        <time>2021-07-19T12:31:59Z</time>
      </trkpt>
      <trkpt lat="42.64901" lon="1.69289">
        <ele>2071.271</ele>
        <time>2021-07-19T12:32:01Z</time>
      </trkpt>
      <trkpt lat="42.649" lon="1.69291">
        <ele>2071.213</ele>
        <time>2021-07-19T12:32:03Z</time>
      </trkpt>
      <trkpt lat="42.64899" lon="1.69293">
        <ele>2071.305</ele>
        <time>2021-07-19T12:32:05Z</time>
      </trkpt>
      <trkpt lat="42.64898" lon="1.69294">
        <ele>2071.784</ele>
        <time>2021-07-19T12:32:07Z</time>
      </trkpt>
      <trkpt lat="42.64896" lon="1.69295">
        <ele>2071.388</ele>
        <time>2021-07-19T12:32:09Z</time>
      </trkpt>
      <trkpt lat="42.64895" lon="1.69294">
        <ele>2071.289</ele>
        <time>2021-07-19T12:32:11Z</time>
      </trkpt>
      <trkpt lat="42.64893" lon="1.69293">
        <ele>2071.985</ele>
        <time>2021-07-19T12:32:13Z</time>
      </trkpt>
      <trkpt lat="42.64892" lon="1.69294">
        <ele>2071.864</ele>
        <time>2021-07-19T12:32:15Z</time>
      </trkpt>
      <trkpt lat="42.6489" lon="1.69295">
        <ele>2071.306</ele>
        <time>2021-07-19T12:32:17Z</time>
      </trkpt>
      <trkpt lat="42.64888" lon="1.69295">
        <ele>2070.136</ele>
        <time>2021-07-19T12:32:19Z</time>
      </trkpt>
      <trkpt lat="42.64886" lon="1.69295">
        <ele>2069.403</ele>
        <time>2021-07-19T12:32:21Z</time>
      </trkpt>
      <trkpt lat="42.64884" lon="1.69296">
        <ele>2068.15</ele>
        <time>2021-07-19T12:32:23Z</time>
      </trkpt>
      <trkpt lat="42.64882" lon="1.69298">
        <ele>2067.79</ele>
        <time>2021-07-19T12:32:25Z</time>
      </trkpt>
      <trkpt lat="42.6488" lon="1.69299">
        <ele>2067.773</ele>
        <time>2021-07-19T12:32:27Z</time>
      </trkpt>
      <trkpt lat="42.64878" lon="1.693">
        <ele>2068.015</ele>
        <time>2021-07-19T12:32:29Z</time>
      </trkpt>
      <trkpt lat="42.64876" lon="1.69302">
        <ele>2068.469</ele>
        <time>2021-07-19T12:32:31Z</time>
      </trkpt>
      <trkpt lat="42.64875" lon="1.69304">
        <ele>2069.654</ele>
        <time>2021-07-19T12:32:33Z</time>
      </trkpt>
      <trkpt lat="42.64873" lon="1.69305">
        <ele>2069.34</ele>
        <time>2021-07-19T12:32:35Z</time>
      </trkpt>
      <trkpt lat="42.64872" lon="1.69307">
        <ele>2070.016</ele>
        <time>2021-07-19T12:32:37Z</time>
      </trkpt>
      <trkpt lat="42.6487" lon="1.69308">
        <ele>2069.847</ele>
        <time>2021-07-19T12:32:39Z</time>
      </trkpt>
      <trkpt lat="42.64869" lon="1.6931">
        <ele>2069.937</ele>
        <time>2021-07-19T12:32:41Z</time>
      </trkpt>
      <trkpt lat="42.64867" lon="1.69311">
        <ele>2069.536</ele>
        <time>2021-07-19T12:32:43Z</time>
      </trkpt>
      <trkpt lat="42.64865" lon="1.69311">
        <ele>2069.542</ele>
        <time>2021-07-19T12:32:45Z</time>
      </trkpt>
      <trkpt lat="42.64866" lon="1.69311">
        <ele>2069.329</ele>
        <time>2021-07-19T12:32:47Z</time>
      </trkpt>
      <trkpt lat="42.64866" lon="1.69311">
        <ele>2069.318</ele>
        <time>2021-07-19T12:32:49Z</time>
      </trkpt>
      <trkpt lat="42.64865" lon="1.69312">
        <ele>2068.98</ele>
        <time>2021-07-19T12:32:51Z</time>
      </trkpt>
      <trkpt lat="42.64864" lon="1.69313">
        <ele>2068.159</ele>
        <time>2021-07-19T12:32:53Z</time>
      </trkpt>
      <trkpt lat="42.64863" lon="1.69315">
        <ele>2068.801</ele>
        <time>2021-07-19T12:32:55Z</time>
      </trkpt>
      <trkpt lat="42.64862" lon="1.69316">
        <ele>2069.285</ele>
        <time>2021-07-19T12:32:57Z</time>
      </trkpt>
      <trkpt lat="42.64861" lon="1.69317">
        <ele>2068.794</ele>
        <time>2021-07-19T12:32:59Z</time>
      </trkpt>
      <trkpt lat="42.64859" lon="1.69318">
        <ele>2068.953</ele>
        <time>2021-07-19T12:33:01Z</time>
      </trkpt>
      <trkpt lat="42.6486" lon="1.69318">
        <ele>2067.94</ele>
        <time>2021-07-19T12:33:03Z</time>
      </trkpt>
      <trkpt lat="42.6486" lon="1.69317">
        <ele>2067.962</ele>
        <time>2021-07-19T12:33:05Z</time>
      </trkpt>
      <trkpt lat="42.6486" lon="1.69317">
        <ele>2067.959</ele>
        <time>2021-07-19T12:33:07Z</time>
      </trkpt>
      <trkpt lat="42.6486" lon="1.69317">
        <ele>2067.594</ele>
        <time>2021-07-19T12:33:09Z</time>
      </trkpt>
      <trkpt lat="42.6486" lon="1.69317">
        <ele>2067.567</ele>
        <time>2021-07-19T12:33:11Z</time>
      </trkpt>
      <trkpt lat="42.64859" lon="1.69318">
        <ele>2066.974</ele>
        <time>2021-07-19T12:33:13Z</time>
      </trkpt>
      <trkpt lat="42.64858" lon="1.6932">
        <ele>2067.219</ele>
        <time>2021-07-19T12:33:15Z</time>
      </trkpt>
      <trkpt lat="42.64858" lon="1.6932">
        <ele>2067.081</ele>
        <time>2021-07-19T12:33:17Z</time>
      </trkpt>
      <trkpt lat="42.64857" lon="1.69321">
        <ele>2066.678</ele>
        <time>2021-07-19T12:33:19Z</time>
      </trkpt>
      <trkpt lat="42.64857" lon="1.69322">
        <ele>2066.3</ele>
        <time>2021-07-19T12:33:21Z</time>
      </trkpt>
      <trkpt lat="42.64855" lon="1.69322">
        <ele>2065.119</ele>
        <time>2021-07-19T12:33:23Z</time>
      </trkpt>
      <trkpt lat="42.64853" lon="1.69323">
        <ele>2064.752</ele>
        <time>2021-07-19T12:33:25Z</time>
      </trkpt>
      <trkpt lat="42.64851" lon="1.69323">
        <ele>2064.597</ele>
        <time>2021-07-19T12:33:27Z</time>
      </trkpt>
      <trkpt lat="42.64849" lon="1.69323">
        <ele>2064.449</ele>
        <time>2021-07-19T12:33:29Z</time>
      </trkpt>
      <trkpt lat="42.64847" lon="1.69323">
        <ele>2064.641</ele>
        <time>2021-07-19T12:33:31Z</time>
      </trkpt>
      <trkpt lat="42.64846" lon="1.69322">
        <ele>2064.289</ele>
        <time>2021-07-19T12:33:33Z</time>
      </trkpt>
      <trkpt lat="42.64845" lon="1.69321">
        <ele>2064.295</ele>
        <time>2021-07-19T12:33:35Z</time>
      </trkpt>
      <trkpt lat="42.64843" lon="1.69322">
        <ele>2064.459</ele>
        <time>2021-07-19T12:33:37Z</time>
      </trkpt>
      <trkpt lat="42.64841" lon="1.69322">
        <ele>2064.273</ele>
        <time>2021-07-19T12:33:39Z</time>
      </trkpt>
      <trkpt lat="42.64839" lon="1.69321">
        <ele>2065.015</ele>
        <time>2021-07-19T12:33:41Z</time>
      </trkpt>
      <trkpt lat="42.64838" lon="1.69321">
        <ele>2064.872</ele>
        <time>2021-07-19T12:33:43Z</time>
      </trkpt>
      <trkpt lat="42.64837" lon="1.69321">
        <ele>2064.854</ele>
        <time>2021-07-19T12:33:45Z</time>
      </trkpt>
      <trkpt lat="42.64836" lon="1.69321">
        <ele>2065.085</ele>
        <time>2021-07-19T12:33:47Z</time>
      </trkpt>
      <trkpt lat="42.64834" lon="1.69321">
        <ele>2065.653</ele>
        <time>2021-07-19T12:33:49Z</time>
      </trkpt>
      <trkpt lat="42.64833" lon="1.69322">
        <ele>2066.513</ele>
        <time>2021-07-19T12:33:51Z</time>
      </trkpt>
      <trkpt lat="42.64832" lon="1.69322">
        <ele>2066.959</ele>
        <time>2021-07-19T12:33:53Z</time>
      </trkpt>
      <trkpt lat="42.64831" lon="1.69322">
        <ele>2068.055</ele>
        <time>2021-07-19T12:33:55Z</time>
      </trkpt>
      <trkpt lat="42.64831" lon="1.69322">
        <ele>2067.771</ele>
        <time>2021-07-19T12:33:57Z</time>
      </trkpt>
      <trkpt lat="42.64831" lon="1.69321">
        <ele>2067.622</ele>
        <time>2021-07-19T12:33:59Z</time>
      </trkpt>
      <trkpt lat="42.64831" lon="1.69322">
        <ele>2067.519</ele>
        <time>2021-07-19T12:34:01Z</time>
      </trkpt>
      <trkpt lat="42.64832" lon="1.69323">
        <ele>2067.555</ele>
        <time>2021-07-19T12:34:03Z</time>
      </trkpt>
      <trkpt lat="42.64833" lon="1.69323">
        <ele>2067.125</ele>
        <time>2021-07-19T12:34:05Z</time>
      </trkpt>
      <trkpt lat="42.64836" lon="1.69322">
        <ele>2066.156</ele>
        <time>2021-07-19T12:34:07Z</time>
      </trkpt>
      <trkpt lat="42.64839" lon="1.69324">
        <ele>2067.323</ele>
        <time>2021-07-19T12:34:09Z</time>
      </trkpt>
      <trkpt lat="42.64839" lon="1.69328">
        <ele>2065.288</ele>
        <time>2021-07-19T12:34:11Z</time>
      </trkpt>
      <trkpt lat="42.6484" lon="1.6933">
        <ele>2064.849</ele>
        <time>2021-07-19T12:34:13Z</time>
      </trkpt>
      <trkpt lat="42.6484" lon="1.69332">
        <ele>2064.693</ele>
        <time>2021-07-19T12:34:15Z</time>
      </trkpt>
      <trkpt lat="42.6484" lon="1.69334">
        <ele>2065.032</ele>
        <time>2021-07-19T12:34:17Z</time>
      </trkpt>
      <trkpt lat="42.64838" lon="1.69336">
        <ele>2064.879</ele>
        <time>2021-07-19T12:34:19Z</time>
      </trkpt>
      <trkpt lat="42.64837" lon="1.69337">
        <ele>2064.576</ele>
        <time>2021-07-19T12:34:21Z</time>
      </trkpt>
      <trkpt lat="42.64837" lon="1.69339">
        <ele>2065.364</ele>
        <time>2021-07-19T12:34:23Z</time>
      </trkpt>
      <trkpt lat="42.64836" lon="1.69339">
        <ele>2065.149</ele>
        <time>2021-07-19T12:34:25Z</time>
      </trkpt>
      <trkpt lat="42.64837" lon="1.69339">
        <ele>2064.952</ele>
        <time>2021-07-19T12:34:27Z</time>
      </trkpt>
      <trkpt lat="42.64836" lon="1.69339">
        <ele>2065.013</ele>
        <time>2021-07-19T12:34:29Z</time>
      </trkpt>
      <trkpt lat="42.64836" lon="1.6934">
        <ele>2064.659</ele>
        <time>2021-07-19T12:34:31Z</time>
      </trkpt>
      <trkpt lat="42.64835" lon="1.69341">
        <ele>2063.566</ele>
        <time>2021-07-19T12:34:33Z</time>
      </trkpt>
      <trkpt lat="42.64833" lon="1.6934">
        <ele>2062.964</ele>
        <time>2021-07-19T12:34:35Z</time>
      </trkpt>
      <trkpt lat="42.64832" lon="1.6934">
        <ele>2062.435</ele>
        <time>2021-07-19T12:34:37Z</time>
      </trkpt>
      <trkpt lat="42.64831" lon="1.6934">
        <ele>2061.907</ele>
        <time>2021-07-19T12:34:39Z</time>
      </trkpt>
      <trkpt lat="42.6483" lon="1.69341">
        <ele>2061.261</ele>
        <time>2021-07-19T12:34:41Z</time>
      </trkpt>
      <trkpt lat="42.64828" lon="1.6934">
        <ele>2061.539</ele>
        <time>2021-07-19T12:34:43Z</time>
      </trkpt>
      <trkpt lat="42.64827" lon="1.69339">
        <ele>2062.648</ele>
        <time>2021-07-19T12:34:45Z</time>
      </trkpt>
      <trkpt lat="42.64825" lon="1.69339">
        <ele>2062.733</ele>
        <time>2021-07-19T12:34:47Z</time>
      </trkpt>
      <trkpt lat="42.64824" lon="1.69339">
        <ele>2062.088</ele>
        <time>2021-07-19T12:34:49Z</time>
      </trkpt>
      <trkpt lat="42.64822" lon="1.69339">
        <ele>2062.285</ele>
        <time>2021-07-19T12:34:51Z</time>
      </trkpt>
      <trkpt lat="42.64821" lon="1.69338">
        <ele>2061.655</ele>
        <time>2021-07-19T12:34:53Z</time>
      </trkpt>
      <trkpt lat="42.64819" lon="1.69336">
        <ele>2060.852</ele>
        <time>2021-07-19T12:34:55Z</time>
      </trkpt>
      <trkpt lat="42.64819" lon="1.69335">
        <ele>2060.015</ele>
        <time>2021-07-19T12:34:57Z</time>
      </trkpt>
      <trkpt lat="42.64818" lon="1.69333">
        <ele>2061.1</ele>
        <time>2021-07-19T12:34:59Z</time>
      </trkpt>
      <trkpt lat="42.64817" lon="1.69332">
        <ele>2061.077</ele>
        <time>2021-07-19T12:35:01Z</time>
      </trkpt>
      <trkpt lat="42.64816" lon="1.69332">
        <ele>2061.614</ele>
        <time>2021-07-19T12:35:03Z</time>
      </trkpt>
      <trkpt lat="42.64815" lon="1.69332">
        <ele>2060.943</ele>
        <time>2021-07-19T12:35:05Z</time>
      </trkpt>
      <trkpt lat="42.64814" lon="1.6933">
        <ele>2060.973</ele>
        <time>2021-07-19T12:35:07Z</time>
      </trkpt>
      <trkpt lat="42.64812" lon="1.6933">
        <ele>2061.691</ele>
        <time>2021-07-19T12:35:09Z</time>
      </trkpt>
      <trkpt lat="42.64811" lon="1.6933">
        <ele>2061.993</ele>
        <time>2021-07-19T12:35:11Z</time>
      </trkpt>
      <trkpt lat="42.6481" lon="1.69329">
        <ele>2061.847</ele>
        <time>2021-07-19T12:35:13Z</time>
      </trkpt>
      <trkpt lat="42.64809" lon="1.69328">
        <ele>2061.929</ele>
        <time>2021-07-19T12:35:15Z</time>
      </trkpt>
      <trkpt lat="42.64808" lon="1.69327">
        <ele>2060.646</ele>
        <time>2021-07-19T12:35:17Z</time>
      </trkpt>
      <trkpt lat="42.64806" lon="1.69326">
        <ele>2059.991</ele>
        <time>2021-07-19T12:35:19Z</time>
      </trkpt>
      <trkpt lat="42.64805" lon="1.69327">
        <ele>2059.463</ele>
        <time>2021-07-19T12:35:21Z</time>
      </trkpt>
      <trkpt lat="42.64806" lon="1.69327">
        <ele>2060.401</ele>
        <time>2021-07-19T12:35:23Z</time>
      </trkpt>
      <trkpt lat="42.64805" lon="1.69328">
        <ele>2061.575</ele>
        <time>2021-07-19T12:35:25Z</time>
      </trkpt>
      <trkpt lat="42.64804" lon="1.69329">
        <ele>2061.365</ele>
        <time>2021-07-19T12:35:27Z</time>
      </trkpt>
      <trkpt lat="42.64802" lon="1.6933">
        <ele>2061.082</ele>
        <time>2021-07-19T12:35:29Z</time>
      </trkpt>
      <trkpt lat="42.64801" lon="1.6933">
        <ele>2060.665</ele>
        <time>2021-07-19T12:35:31Z</time>
      </trkpt>
      <trkpt lat="42.64799" lon="1.6933">
        <ele>2060.908</ele>
        <time>2021-07-19T12:35:33Z</time>
      </trkpt>
      <trkpt lat="42.64797" lon="1.6933">
        <ele>2060.542</ele>
        <time>2021-07-19T12:35:35Z</time>
      </trkpt>
      <trkpt lat="42.64795" lon="1.69331">
        <ele>2060.692</ele>
        <time>2021-07-19T12:35:37Z</time>
      </trkpt>
      <trkpt lat="42.64794" lon="1.69331">
        <ele>2060.068</ele>
        <time>2021-07-19T12:35:39Z</time>
      </trkpt>
      <trkpt lat="42.64791" lon="1.69331">
        <ele>2059.929</ele>
        <time>2021-07-19T12:35:41Z</time>
      </trkpt>
      <trkpt lat="42.64789" lon="1.69331">
        <ele>2059.521</ele>
        <time>2021-07-19T12:35:43Z</time>
      </trkpt>
      <trkpt lat="42.64787" lon="1.69332">
        <ele>2059.688</ele>
        <time>2021-07-19T12:35:45Z</time>
      </trkpt>
      <trkpt lat="42.64784" lon="1.69332">
        <ele>2060.804</ele>
        <time>2021-07-19T12:35:47Z</time>
      </trkpt>
      <trkpt lat="42.64783" lon="1.69333">
        <ele>2060.073</ele>
        <time>2021-07-19T12:35:49Z</time>
      </trkpt>
      <trkpt lat="42.64781" lon="1.69334">
        <ele>2059.916</ele>
        <time>2021-07-19T12:35:51Z</time>
      </trkpt>
      <trkpt lat="42.64779" lon="1.69334">
        <ele>2059.06</ele>
        <time>2021-07-19T12:35:53Z</time>
      </trkpt>
      <trkpt lat="42.64777" lon="1.69335">
        <ele>2059.13</ele>
        <time>2021-07-19T12:35:55Z</time>
      </trkpt>
      <trkpt lat="42.64775" lon="1.69335">
        <ele>2059.54</ele>
        <time>2021-07-19T12:35:57Z</time>
      </trkpt>
      <trkpt lat="42.64773" lon="1.69335">
        <ele>2060.551</ele>
        <time>2021-07-19T12:35:59Z</time>
      </trkpt>
      <trkpt lat="42.64771" lon="1.69336">
        <ele>2059.26</ele>
        <time>2021-07-19T12:36:01Z</time>
      </trkpt>
      <trkpt lat="42.64769" lon="1.69337">
        <ele>2058.455</ele>
        <time>2021-07-19T12:36:03Z</time>
      </trkpt>
      <trkpt lat="42.64767" lon="1.69337">
        <ele>2059.734</ele>
        <time>2021-07-19T12:36:05Z</time>
      </trkpt>
      <trkpt lat="42.64765" lon="1.69337">
        <ele>2061.298</ele>
        <time>2021-07-19T12:36:07Z</time>
      </trkpt>
      <trkpt lat="42.64763" lon="1.69337">
        <ele>2061.596</ele>
        <time>2021-07-19T12:36:09Z</time>
      </trkpt>
      <trkpt lat="42.64761" lon="1.69337">
        <ele>2060.873</ele>
        <time>2021-07-19T12:36:11Z</time>
      </trkpt>
      <trkpt lat="42.64758" lon="1.69338">
        <ele>2060.882</ele>
        <time>2021-07-19T12:36:13Z</time>
      </trkpt>
      <trkpt lat="42.64756" lon="1.69339">
        <ele>2060.949</ele>
        <time>2021-07-19T12:36:15Z</time>
      </trkpt>
      <trkpt lat="42.64754" lon="1.69339">
        <ele>2060.144</ele>
        <time>2021-07-19T12:36:17Z</time>
      </trkpt>
      <trkpt lat="42.64752" lon="1.69339">
        <ele>2060.314</ele>
        <time>2021-07-19T12:36:19Z</time>
      </trkpt>
      <trkpt lat="42.6475" lon="1.69338">
        <ele>2060.475</ele>
        <time>2021-07-19T12:36:21Z</time>
      </trkpt>
      <trkpt lat="42.64748" lon="1.69337">
        <ele>2061.23</ele>
        <time>2021-07-19T12:36:23Z</time>
      </trkpt>
      <trkpt lat="42.64746" lon="1.69338">
        <ele>2061.705</ele>
        <time>2021-07-19T12:36:25Z</time>
      </trkpt>
      <trkpt lat="42.64744" lon="1.69337">
        <ele>2062.348</ele>
        <time>2021-07-19T12:36:27Z</time>
      </trkpt>
      <trkpt lat="42.64744" lon="1.69337">
        <ele>2061.755</ele>
        <time>2021-07-19T12:36:29Z</time>
      </trkpt>
      <trkpt lat="42.64743" lon="1.69338">
        <ele>2061.224</ele>
        <time>2021-07-19T12:36:31Z</time>
      </trkpt>
      <trkpt lat="42.64742" lon="1.69339">
        <ele>2059.815</ele>
        <time>2021-07-19T12:36:33Z</time>
      </trkpt>
      <trkpt lat="42.6474" lon="1.6934">
        <ele>2060.247</ele>
        <time>2021-07-19T12:36:35Z</time>
      </trkpt>
      <trkpt lat="42.64739" lon="1.69342">
        <ele>2060.923</ele>
        <time>2021-07-19T12:36:37Z</time>
      </trkpt>
      <trkpt lat="42.64738" lon="1.69344">
        <ele>2060.471</ele>
        <time>2021-07-19T12:36:39Z</time>
      </trkpt>
      <trkpt lat="42.64737" lon="1.69346">
        <ele>2060.496</ele>
        <time>2021-07-19T12:36:41Z</time>
      </trkpt>
      <trkpt lat="42.64737" lon="1.69348">
        <ele>2060.368</ele>
        <time>2021-07-19T12:36:43Z</time>
      </trkpt>
      <trkpt lat="42.64736" lon="1.69349">
        <ele>2060.495</ele>
        <time>2021-07-19T12:36:45Z</time>
      </trkpt>
      <trkpt lat="42.64735" lon="1.6935">
        <ele>2059.837</ele>
        <time>2021-07-19T12:36:47Z</time>
      </trkpt>
      <trkpt lat="42.64733" lon="1.69352">
        <ele>2060.623</ele>
        <time>2021-07-19T12:36:49Z</time>
      </trkpt>
      <trkpt lat="42.64732" lon="1.69354">
        <ele>2060.779</ele>
        <time>2021-07-19T12:36:51Z</time>
      </trkpt>
      <trkpt lat="42.64731" lon="1.69355">
        <ele>2060.914</ele>
        <time>2021-07-19T12:36:53Z</time>
      </trkpt>
      <trkpt lat="42.64729" lon="1.69356">
        <ele>2060.534</ele>
        <time>2021-07-19T12:36:55Z</time>
      </trkpt>
      <trkpt lat="42.64728" lon="1.69358">
        <ele>2059.949</ele>
        <time>2021-07-19T12:36:57Z</time>
      </trkpt>
      <trkpt lat="42.64727" lon="1.69358">
        <ele>2059.891</ele>
        <time>2021-07-19T12:36:59Z</time>
      </trkpt>
      <trkpt lat="42.64725" lon="1.69359">
        <ele>2060.447</ele>
        <time>2021-07-19T12:37:01Z</time>
      </trkpt>
      <trkpt lat="42.64723" lon="1.6936">
        <ele>2060.176</ele>
        <time>2021-07-19T12:37:03Z</time>
      </trkpt>
      <trkpt lat="42.64722" lon="1.69362">
        <ele>2059.971</ele>
        <time>2021-07-19T12:37:05Z</time>
      </trkpt>
      <trkpt lat="42.6472" lon="1.69363">
        <ele>2059.703</ele>
        <time>2021-07-19T12:37:07Z</time>
      </trkpt>
      <trkpt lat="42.64719" lon="1.69365">
        <ele>2059.781</ele>
        <time>2021-07-19T12:37:09Z</time>
      </trkpt>
      <trkpt lat="42.64717" lon="1.69366">
        <ele>2059.444</ele>
        <time>2021-07-19T12:37:11Z</time>
      </trkpt>
      <trkpt lat="42.64715" lon="1.69368">
        <ele>2059.853</ele>
        <time>2021-07-19T12:37:13Z</time>
      </trkpt>
      <trkpt lat="42.64713" lon="1.69369">
        <ele>2059.773</ele>
        <time>2021-07-19T12:37:15Z</time>
      </trkpt>
      <trkpt lat="42.64711" lon="1.6937">
        <ele>2060.106</ele>
        <time>2021-07-19T12:37:17Z</time>
      </trkpt>
      <trkpt lat="42.64709" lon="1.69371">
        <ele>2059.725</ele>
        <time>2021-07-19T12:37:19Z</time>
      </trkpt>
      <trkpt lat="42.64708" lon="1.69373">
        <ele>2059.533</ele>
        <time>2021-07-19T12:37:21Z</time>
      </trkpt>
      <trkpt lat="42.64706" lon="1.69374">
        <ele>2059.661</ele>
        <time>2021-07-19T12:37:23Z</time>
      </trkpt>
      <trkpt lat="42.64703" lon="1.69375">
        <ele>2059.716</ele>
        <time>2021-07-19T12:37:25Z</time>
      </trkpt>
      <trkpt lat="42.64701" lon="1.69376">
        <ele>2059.836</ele>
        <time>2021-07-19T12:37:27Z</time>
      </trkpt>
      <trkpt lat="42.64699" lon="1.69379">
        <ele>2060.385</ele>
        <time>2021-07-19T12:37:29Z</time>
      </trkpt>
      <trkpt lat="42.64698" lon="1.69381">
        <ele>2060.955</ele>
        <time>2021-07-19T12:37:31Z</time>
      </trkpt>
      <trkpt lat="42.64696" lon="1.69382">
        <ele>2061.01</ele>
        <time>2021-07-19T12:37:33Z</time>
      </trkpt>
      <trkpt lat="42.64695" lon="1.69384">
        <ele>2061.694</ele>
        <time>2021-07-19T12:37:35Z</time>
      </trkpt>
      <trkpt lat="42.64693" lon="1.69385">
        <ele>2062.452</ele>
        <time>2021-07-19T12:37:37Z</time>
      </trkpt>
      <trkpt lat="42.64691" lon="1.69385">
        <ele>2063.01</ele>
        <time>2021-07-19T12:37:39Z</time>
      </trkpt>
      <trkpt lat="42.64689" lon="1.69386">
        <ele>2062.975</ele>
        <time>2021-07-19T12:37:41Z</time>
      </trkpt>
      <trkpt lat="42.64687" lon="1.69386">
        <ele>2063.65</ele>
        <time>2021-07-19T12:37:43Z</time>
      </trkpt>
      <trkpt lat="42.64685" lon="1.69387">
        <ele>2064.475</ele>
        <time>2021-07-19T12:37:45Z</time>
      </trkpt>
      <trkpt lat="42.64683" lon="1.69388">
        <ele>2065.341</ele>
        <time>2021-07-19T12:37:47Z</time>
      </trkpt>
      <trkpt lat="42.64682" lon="1.69389">
        <ele>2066.101</ele>
        <time>2021-07-19T12:37:49Z</time>
      </trkpt>
      <trkpt lat="42.64681" lon="1.69391">
        <ele>2067.668</ele>
        <time>2021-07-19T12:37:51Z</time>
      </trkpt>
      <trkpt lat="42.64681" lon="1.69393">
        <ele>2067.309</ele>
        <time>2021-07-19T12:37:53Z</time>
      </trkpt>
      <trkpt lat="42.6468" lon="1.69395">
        <ele>2067.122</ele>
        <time>2021-07-19T12:37:55Z</time>
      </trkpt>
      <trkpt lat="42.64678" lon="1.69395">
        <ele>2067.449</ele>
        <time>2021-07-19T12:37:57Z</time>
      </trkpt>
      <trkpt lat="42.64676" lon="1.69396">
        <ele>2067.48</ele>
        <time>2021-07-19T12:37:59Z</time>
      </trkpt>
      <trkpt lat="42.64674" lon="1.69396">
        <ele>2066.898</ele>
        <time>2021-07-19T12:38:01Z</time>
      </trkpt>
      <trkpt lat="42.64673" lon="1.69397">
        <ele>2066.57</ele>
        <time>2021-07-19T12:38:03Z</time>
      </trkpt>
      <trkpt lat="42.64671" lon="1.69398">
        <ele>2067.067</ele>
        <time>2021-07-19T12:38:05Z</time>
      </trkpt>
      <trkpt lat="42.64669" lon="1.69399">
        <ele>2067.092</ele>
        <time>2021-07-19T12:38:07Z</time>
      </trkpt>
      <trkpt lat="42.64668" lon="1.694">
        <ele>2067.485</ele>
        <time>2021-07-19T12:38:09Z</time>
      </trkpt>
      <trkpt lat="42.64666" lon="1.69402">
        <ele>2067.68</ele>
        <time>2021-07-19T12:38:11Z</time>
      </trkpt>
      <trkpt lat="42.64665" lon="1.69403">
        <ele>2068.83</ele>
        <time>2021-07-19T12:38:13Z</time>
      </trkpt>
      <trkpt lat="42.64664" lon="1.69405">
        <ele>2069.107</ele>
        <time>2021-07-19T12:38:15Z</time>
      </trkpt>
      <trkpt lat="42.64662" lon="1.69406">
        <ele>2069.317</ele>
        <time>2021-07-19T12:38:17Z</time>
      </trkpt>
      <trkpt lat="42.64661" lon="1.69407">
        <ele>2069.461</ele>
        <time>2021-07-19T12:38:19Z</time>
      </trkpt>
      <trkpt lat="42.6466" lon="1.69407">
        <ele>2069.717</ele>
        <time>2021-07-19T12:38:21Z</time>
      </trkpt>
      <trkpt lat="42.64658" lon="1.69408">
        <ele>2070.013</ele>
        <time>2021-07-19T12:38:23Z</time>
      </trkpt>
      <trkpt lat="42.64657" lon="1.69408">
        <ele>2069.949</ele>
        <time>2021-07-19T12:38:25Z</time>
      </trkpt>
      <trkpt lat="42.64656" lon="1.69409">
        <ele>2070.193</ele>
        <time>2021-07-19T12:38:27Z</time>
      </trkpt>
      <trkpt lat="42.64654" lon="1.6941">
        <ele>2070.15</ele>
        <time>2021-07-19T12:38:29Z</time>
      </trkpt>
      <trkpt lat="42.64653" lon="1.69411">
        <ele>2070.242</ele>
        <time>2021-07-19T12:38:31Z</time>
      </trkpt>
      <trkpt lat="42.64651" lon="1.69411">
        <ele>2070.545</ele>
        <time>2021-07-19T12:38:33Z</time>
      </trkpt>
      <trkpt lat="42.64649" lon="1.69412">
        <ele>2069.856</ele>
        <time>2021-07-19T12:38:35Z</time>
      </trkpt>
      <trkpt lat="42.64647" lon="1.69412">
        <ele>2069.239</ele>
        <time>2021-07-19T12:38:37Z</time>
      </trkpt>
      <trkpt lat="42.64645" lon="1.69414">
        <ele>2068.585</ele>
        <time>2021-07-19T12:38:39Z</time>
      </trkpt>
      <trkpt lat="42.64643" lon="1.69415">
        <ele>2067.967</ele>
        <time>2021-07-19T12:38:41Z</time>
      </trkpt>
      <trkpt lat="42.64642" lon="1.69417">
        <ele>2068.898</ele>
        <time>2021-07-19T12:38:43Z</time>
      </trkpt>
      <trkpt lat="42.6464" lon="1.69418">
        <ele>2069.193</ele>
        <time>2021-07-19T12:38:45Z</time>
      </trkpt>
      <trkpt lat="42.64638" lon="1.6942">
        <ele>2069.203</ele>
        <time>2021-07-19T12:38:47Z</time>
      </trkpt>
      <trkpt lat="42.64635" lon="1.69423">
        <ele>2070.411</ele>
        <time>2021-07-19T12:38:49Z</time>
      </trkpt>
      <trkpt lat="42.64632" lon="1.69424">
        <ele>2070.291</ele>
        <time>2021-07-19T12:38:51Z</time>
      </trkpt>
      <trkpt lat="42.64629" lon="1.69426">
        <ele>2070.146</ele>
        <time>2021-07-19T12:38:53Z</time>
      </trkpt>
      <trkpt lat="42.64628" lon="1.69427">
        <ele>2069.724</ele>
        <time>2021-07-19T12:38:55Z</time>
      </trkpt>
      <trkpt lat="42.64627" lon="1.69429">
        <ele>2070.5</ele>
        <time>2021-07-19T12:38:57Z</time>
      </trkpt>
      <trkpt lat="42.64626" lon="1.6943">
        <ele>2070.562</ele>
        <time>2021-07-19T12:38:59Z</time>
      </trkpt>
      <trkpt lat="42.64625" lon="1.69432">
        <ele>2070.951</ele>
        <time>2021-07-19T12:39:01Z</time>
      </trkpt>
      <trkpt lat="42.64624" lon="1.69434">
        <ele>2070.644</ele>
        <time>2021-07-19T12:39:03Z</time>
      </trkpt>
      <trkpt lat="42.64623" lon="1.69435">
        <ele>2070.405</ele>
        <time>2021-07-19T12:39:05Z</time>
      </trkpt>
      <trkpt lat="42.64622" lon="1.69436">
        <ele>2071.648</ele>
        <time>2021-07-19T12:39:07Z</time>
      </trkpt>
      <trkpt lat="42.64621" lon="1.69438">
        <ele>2072.47</ele>
        <time>2021-07-19T12:39:09Z</time>
      </trkpt>
      <trkpt lat="42.64619" lon="1.69439">
        <ele>2071.962</ele>
        <time>2021-07-19T12:39:11Z</time>
      </trkpt>
      <trkpt lat="42.64617" lon="1.69439">
        <ele>2072.601</ele>
        <time>2021-07-19T12:39:13Z</time>
      </trkpt>
      <trkpt lat="42.64616" lon="1.69439">
        <ele>2073.291</ele>
        <time>2021-07-19T12:39:15Z</time>
      </trkpt>
      <trkpt lat="42.64614" lon="1.69439">
        <ele>2074.304</ele>
        <time>2021-07-19T12:39:17Z</time>
      </trkpt>
      <trkpt lat="42.64612" lon="1.6944">
        <ele>2074.469</ele>
        <time>2021-07-19T12:39:19Z</time>
      </trkpt>
      <trkpt lat="42.64611" lon="1.69441">
        <ele>2075.473</ele>
        <time>2021-07-19T12:39:21Z</time>
      </trkpt>
      <trkpt lat="42.64609" lon="1.69441">
        <ele>2075.961</ele>
        <time>2021-07-19T12:39:23Z</time>
      </trkpt>
      <trkpt lat="42.64608" lon="1.69441">
        <ele>2075.851</ele>
        <time>2021-07-19T12:39:25Z</time>
      </trkpt>
      <trkpt lat="42.64607" lon="1.69441">
        <ele>2075.018</ele>
        <time>2021-07-19T12:39:27Z</time>
      </trkpt>
      <trkpt lat="42.64606" lon="1.69441">
        <ele>2074.392</ele>
        <time>2021-07-19T12:39:29Z</time>
      </trkpt>
      <trkpt lat="42.64605" lon="1.69442">
        <ele>2073.495</ele>
        <time>2021-07-19T12:39:31Z</time>
      </trkpt>
      <trkpt lat="42.64604" lon="1.69442">
        <ele>2073.289</ele>
        <time>2021-07-19T12:39:33Z</time>
      </trkpt>
      <trkpt lat="42.64604" lon="1.69443">
        <ele>2073.535</ele>
        <time>2021-07-19T12:39:35Z</time>
      </trkpt>
      <trkpt lat="42.64603" lon="1.69443">
        <ele>2071.436</ele>
        <time>2021-07-19T12:39:37Z</time>
      </trkpt>
      <trkpt lat="42.64602" lon="1.69444">
        <ele>2070.394</ele>
        <time>2021-07-19T12:39:39Z</time>
      </trkpt>
      <trkpt lat="42.64601" lon="1.69444">
        <ele>2070.306</ele>
        <time>2021-07-19T12:39:41Z</time>
      </trkpt>
      <trkpt lat="42.64599" lon="1.69444">
        <ele>2070.914</ele>
        <time>2021-07-19T12:39:43Z</time>
      </trkpt>
      <trkpt lat="42.64598" lon="1.69445">
        <ele>2070.266</ele>
        <time>2021-07-19T12:39:45Z</time>
      </trkpt>
      <trkpt lat="42.64597" lon="1.69446">
        <ele>2070.02</ele>
        <time>2021-07-19T12:39:47Z</time>
      </trkpt>
      <trkpt lat="42.64596" lon="1.69445">
        <ele>2069.024</ele>
        <time>2021-07-19T12:39:49Z</time>
      </trkpt>
      <trkpt lat="42.64595" lon="1.69445">
        <ele>2067.974</ele>
        <time>2021-07-19T12:39:51Z</time>
      </trkpt>
      <trkpt lat="42.64593" lon="1.69445">
        <ele>2067.167</ele>
        <time>2021-07-19T12:39:53Z</time>
      </trkpt>
      <trkpt lat="42.64592" lon="1.69445">
        <ele>2067.616</ele>
        <time>2021-07-19T12:39:55Z</time>
      </trkpt>
      <trkpt lat="42.6459" lon="1.69445">
        <ele>2067.727</ele>
        <time>2021-07-19T12:39:57Z</time>
      </trkpt>
      <trkpt lat="42.64589" lon="1.69446">
        <ele>2067.957</ele>
        <time>2021-07-19T12:39:59Z</time>
      </trkpt>
      <trkpt lat="42.64588" lon="1.69446">
        <ele>2067.808</ele>
        <time>2021-07-19T12:40:01Z</time>
      </trkpt>
      <trkpt lat="42.64586" lon="1.69446">
        <ele>2067.859</ele>
        <time>2021-07-19T12:40:03Z</time>
      </trkpt>
      <trkpt lat="42.64585" lon="1.69447">
        <ele>2067.376</ele>
        <time>2021-07-19T12:40:05Z</time>
      </trkpt>
      <trkpt lat="42.64584" lon="1.69447">
        <ele>2067.783</ele>
        <time>2021-07-19T12:40:07Z</time>
      </trkpt>
      <trkpt lat="42.64584" lon="1.69449">
        <ele>2067.753</ele>
        <time>2021-07-19T12:40:09Z</time>
      </trkpt>
      <trkpt lat="42.64584" lon="1.69449">
        <ele>2067.76</ele>
        <time>2021-07-19T12:40:11Z</time>
      </trkpt>
      <trkpt lat="42.64584" lon="1.6945">
        <ele>2067.766</ele>
        <time>2021-07-19T12:40:13Z</time>
      </trkpt>
      <trkpt lat="42.64583" lon="1.69451">
        <ele>2067.478</ele>
        <time>2021-07-19T12:40:15Z</time>
      </trkpt>
      <trkpt lat="42.64582" lon="1.69451">
        <ele>2066.322</ele>
        <time>2021-07-19T12:40:17Z</time>
      </trkpt>
      <trkpt lat="42.64581" lon="1.69451">
        <ele>2066.126</ele>
        <time>2021-07-19T12:40:19Z</time>
      </trkpt>
      <trkpt lat="42.64579" lon="1.69452">
        <ele>2065.553</ele>
        <time>2021-07-19T12:40:21Z</time>
      </trkpt>
      <trkpt lat="42.64578" lon="1.69452">
        <ele>2067.007</ele>
        <time>2021-07-19T12:40:23Z</time>
      </trkpt>
      <trkpt lat="42.64577" lon="1.69453">
        <ele>2066.859</ele>
        <time>2021-07-19T12:40:25Z</time>
      </trkpt>
      <trkpt lat="42.64575" lon="1.69454">
        <ele>2067.106</ele>
        <time>2021-07-19T12:40:27Z</time>
      </trkpt>
      <trkpt lat="42.64574" lon="1.69454">
        <ele>2066.758</ele>
        <time>2021-07-19T12:40:29Z</time>
      </trkpt>
      <trkpt lat="42.64572" lon="1.69455">
        <ele>2066.464</ele>
        <time>2021-07-19T12:40:31Z</time>
      </trkpt>
      <trkpt lat="42.6457" lon="1.69455">
        <ele>2066.224</ele>
        <time>2021-07-19T12:40:33Z</time>
      </trkpt>
      <trkpt lat="42.64569" lon="1.69456">
        <ele>2065.818</ele>
        <time>2021-07-19T12:40:35Z</time>
      </trkpt>
      <trkpt lat="42.64567" lon="1.69456">
        <ele>2065.588</ele>
        <time>2021-07-19T12:40:37Z</time>
      </trkpt>
      <trkpt lat="42.64566" lon="1.69457">
        <ele>2065.678</ele>
        <time>2021-07-19T12:40:39Z</time>
      </trkpt>
      <trkpt lat="42.64564" lon="1.69457">
        <ele>2065.609</ele>
        <time>2021-07-19T12:40:41Z</time>
      </trkpt>
      <trkpt lat="42.64562" lon="1.69458">
        <ele>2065.122</ele>
        <time>2021-07-19T12:40:43Z</time>
      </trkpt>
      <trkpt lat="42.6456" lon="1.69459">
        <ele>2065.83</ele>
        <time>2021-07-19T12:40:45Z</time>
      </trkpt>
      <trkpt lat="42.64558" lon="1.69459">
        <ele>2066.076</ele>
        <time>2021-07-19T12:40:47Z</time>
      </trkpt>
      <trkpt lat="42.64557" lon="1.69459">
        <ele>2065.806</ele>
        <time>2021-07-19T12:40:49Z</time>
      </trkpt>
      <trkpt lat="42.64555" lon="1.69459">
        <ele>2064.817</ele>
        <time>2021-07-19T12:40:51Z</time>
      </trkpt>
      <trkpt lat="42.64554" lon="1.6946">
        <ele>2064.504</ele>
        <time>2021-07-19T12:40:53Z</time>
      </trkpt>
      <trkpt lat="42.64552" lon="1.6946">
        <ele>2065.208</ele>
        <time>2021-07-19T12:40:55Z</time>
      </trkpt>
      <trkpt lat="42.6455" lon="1.69461">
        <ele>2065.015</ele>
        <time>2021-07-19T12:40:57Z</time>
      </trkpt>
      <trkpt lat="42.64549" lon="1.69461">
        <ele>2065.11</ele>
        <time>2021-07-19T12:40:59Z</time>
      </trkpt>
      <trkpt lat="42.64547" lon="1.69461">
        <ele>2065.953</ele>
        <time>2021-07-19T12:41:01Z</time>
      </trkpt>
      <trkpt lat="42.64545" lon="1.69461">
        <ele>2066.372</ele>
        <time>2021-07-19T12:41:03Z</time>
      </trkpt>
      <trkpt lat="42.64544" lon="1.6946">
        <ele>2067.009</ele>
        <time>2021-07-19T12:41:05Z</time>
      </trkpt>
      <trkpt lat="42.64542" lon="1.6946">
        <ele>2067.185</ele>
        <time>2021-07-19T12:41:07Z</time>
      </trkpt>
      <trkpt lat="42.6454" lon="1.69459">
        <ele>2067.6</ele>
        <time>2021-07-19T12:41:09Z</time>
      </trkpt>
      <trkpt lat="42.64539" lon="1.69459">
        <ele>2067.858</ele>
        <time>2021-07-19T12:41:11Z</time>
      </trkpt>
      <trkpt lat="42.64537" lon="1.69458">
        <ele>2067.784</ele>
        <time>2021-07-19T12:41:13Z</time>
      </trkpt>
      <trkpt lat="42.64535" lon="1.69458">
        <ele>2067.868</ele>
        <time>2021-07-19T12:41:15Z</time>
      </trkpt>
      <trkpt lat="42.64534" lon="1.69458">
        <ele>2067.17</ele>
        <time>2021-07-19T12:41:17Z</time>
      </trkpt>
      <trkpt lat="42.64532" lon="1.69458">
        <ele>2066.62</ele>
        <time>2021-07-19T12:41:19Z</time>
      </trkpt>
      <trkpt lat="42.64531" lon="1.69458">
        <ele>2066.855</ele>
        <time>2021-07-19T12:41:21Z</time>
      </trkpt>
      <trkpt lat="42.6453" lon="1.69459">
        <ele>2065.26</ele>
        <time>2021-07-19T12:41:23Z</time>
      </trkpt>
      <trkpt lat="42.64529" lon="1.6946">
        <ele>2065.444</ele>
        <time>2021-07-19T12:41:25Z</time>
      </trkpt>
      <trkpt lat="42.64527" lon="1.6946">
        <ele>2065.441</ele>
        <time>2021-07-19T12:41:27Z</time>
      </trkpt>
      <trkpt lat="42.64526" lon="1.6946">
        <ele>2065.591</ele>
        <time>2021-07-19T12:41:29Z</time>
      </trkpt>
      <trkpt lat="42.64525" lon="1.69461">
        <ele>2065.41</ele>
        <time>2021-07-19T12:41:31Z</time>
      </trkpt>
      <trkpt lat="42.64524" lon="1.69461">
        <ele>2064.882</ele>
        <time>2021-07-19T12:41:33Z</time>
      </trkpt>
      <trkpt lat="42.64522" lon="1.6946">
        <ele>2065.88</ele>
        <time>2021-07-19T12:41:35Z</time>
      </trkpt>
      <trkpt lat="42.64521" lon="1.69459">
        <ele>2065.866</ele>
        <time>2021-07-19T12:41:37Z</time>
      </trkpt>
      <trkpt lat="42.6452" lon="1.69459">
        <ele>2065.791</ele>
        <time>2021-07-19T12:41:39Z</time>
      </trkpt>
      <trkpt lat="42.64519" lon="1.69458">
        <ele>2065.663</ele>
        <time>2021-07-19T12:41:41Z</time>
      </trkpt>
      <trkpt lat="42.64518" lon="1.69458">
        <ele>2066.565</ele>
        <time>2021-07-19T12:41:43Z</time>
      </trkpt>
      <trkpt lat="42.64517" lon="1.69458">
        <ele>2067.038</ele>
        <time>2021-07-19T12:41:45Z</time>
      </trkpt>
      <trkpt lat="42.64516" lon="1.69459">
        <ele>2066.376</ele>
        <time>2021-07-19T12:41:47Z</time>
      </trkpt>
      <trkpt lat="42.64515" lon="1.69459">
        <ele>2065.876</ele>
        <time>2021-07-19T12:41:49Z</time>
      </trkpt>
      <trkpt lat="42.64514" lon="1.69459">
        <ele>2065.279</ele>
        <time>2021-07-19T12:41:51Z</time>
      </trkpt>
      <trkpt lat="42.64513" lon="1.69459">
        <ele>2064.712</ele>
        <time>2021-07-19T12:41:53Z</time>
      </trkpt>
      <trkpt lat="42.64511" lon="1.69459">
        <ele>2064.573</ele>
        <time>2021-07-19T12:41:55Z</time>
      </trkpt>
      <trkpt lat="42.6451" lon="1.6946">
        <ele>2064.597</ele>
        <time>2021-07-19T12:41:57Z</time>
      </trkpt>
      <trkpt lat="42.64509" lon="1.6946">
        <ele>2064.88</ele>
        <time>2021-07-19T12:41:59Z</time>
      </trkpt>
      <trkpt lat="42.64507" lon="1.6946">
        <ele>2064.938</ele>
        <time>2021-07-19T12:42:01Z</time>
      </trkpt>
      <trkpt lat="42.64506" lon="1.6946">
        <ele>2065.039</ele>
        <time>2021-07-19T12:42:03Z</time>
      </trkpt>
      <trkpt lat="42.64506" lon="1.6946">
        <ele>2064.357</ele>
        <time>2021-07-19T12:42:05Z</time>
      </trkpt>
      <trkpt lat="42.64506" lon="1.6946">
        <ele>2064.346</ele>
        <time>2021-07-19T12:42:07Z</time>
      </trkpt>
      <trkpt lat="42.64505" lon="1.6946">
        <ele>2064.108</ele>
        <time>2021-07-19T12:42:09Z</time>
      </trkpt>
      <trkpt lat="42.64504" lon="1.6946">
        <ele>2063.75</ele>
        <time>2021-07-19T12:42:11Z</time>
      </trkpt>
      <trkpt lat="42.64503" lon="1.6946">
        <ele>2063.605</ele>
        <time>2021-07-19T12:42:13Z</time>
      </trkpt>
      <trkpt lat="42.64501" lon="1.69461">
        <ele>2064.218</ele>
        <time>2021-07-19T12:42:15Z</time>
      </trkpt>
      <trkpt lat="42.645" lon="1.69461">
        <ele>2064.435</ele>
        <time>2021-07-19T12:42:17Z</time>
      </trkpt>
      <trkpt lat="42.64498" lon="1.69462">
        <ele>2064.481</ele>
        <time>2021-07-19T12:42:19Z</time>
      </trkpt>
      <trkpt lat="42.64497" lon="1.69462">
        <ele>2064.759</ele>
        <time>2021-07-19T12:42:21Z</time>
      </trkpt>
      <trkpt lat="42.64496" lon="1.69462">
        <ele>2064.065</ele>
        <time>2021-07-19T12:42:23Z</time>
      </trkpt>
      <trkpt lat="42.64495" lon="1.69462">
        <ele>2064.011</ele>
        <time>2021-07-19T12:42:25Z</time>
      </trkpt>
      <trkpt lat="42.64494" lon="1.69462">
        <ele>2063.094</ele>
        <time>2021-07-19T12:42:27Z</time>
      </trkpt>
      <trkpt lat="42.64493" lon="1.69463">
        <ele>2061.698</ele>
        <time>2021-07-19T12:42:29Z</time>
      </trkpt>
      <trkpt lat="42.64492" lon="1.69465">
        <ele>2062.047</ele>
        <time>2021-07-19T12:42:31Z</time>
      </trkpt>
      <trkpt lat="42.64491" lon="1.69465">
        <ele>2061.367</ele>
        <time>2021-07-19T12:42:33Z</time>
      </trkpt>
      <trkpt lat="42.6449" lon="1.69466">
        <ele>2061.154</ele>
        <time>2021-07-19T12:42:35Z</time>
      </trkpt>
      <trkpt lat="42.64489" lon="1.69466">
        <ele>2060.524</ele>
        <time>2021-07-19T12:42:37Z</time>
      </trkpt>
      <trkpt lat="42.64487" lon="1.69467">
        <ele>2060.226</ele>
        <time>2021-07-19T12:42:39Z</time>
      </trkpt>
      <trkpt lat="42.64486" lon="1.69467">
        <ele>2060.661</ele>
        <time>2021-07-19T12:42:41Z</time>
      </trkpt>
      <trkpt lat="42.64485" lon="1.69466">
        <ele>2061.447</ele>
        <time>2021-07-19T12:42:43Z</time>
      </trkpt>
      <trkpt lat="42.64484" lon="1.69466">
        <ele>2061.162</ele>
        <time>2021-07-19T12:42:45Z</time>
      </trkpt>
      <trkpt lat="42.64484" lon="1.69467">
        <ele>2061.182</ele>
        <time>2021-07-19T12:42:47Z</time>
      </trkpt>
      <trkpt lat="42.64483" lon="1.69466">
        <ele>2061.483</ele>
        <time>2021-07-19T12:42:49Z</time>
      </trkpt>
      <trkpt lat="42.64482" lon="1.69466">
        <ele>2061.867</ele>
        <time>2021-07-19T12:42:51Z</time>
      </trkpt>
      <trkpt lat="42.6448" lon="1.69466">
        <ele>2062.047</ele>
        <time>2021-07-19T12:42:53Z</time>
      </trkpt>
      <trkpt lat="42.6448" lon="1.69466">
        <ele>2062.419</ele>
        <time>2021-07-19T12:42:55Z</time>
      </trkpt>
      <trkpt lat="42.64479" lon="1.69466">
        <ele>2062.614</ele>
        <time>2021-07-19T12:42:57Z</time>
      </trkpt>
      <trkpt lat="42.64479" lon="1.69466">
        <ele>2061.404</ele>
        <time>2021-07-19T12:42:59Z</time>
      </trkpt>
      <trkpt lat="42.6448" lon="1.69467">
        <ele>2061.387</ele>
        <time>2021-07-19T12:43:01Z</time>
      </trkpt>
      <trkpt lat="42.6448" lon="1.69467">
        <ele>2061.385</ele>
        <time>2021-07-19T12:43:03Z</time>
      </trkpt>
      <trkpt lat="42.6448" lon="1.69467">
        <ele>2061.38</ele>
        <time>2021-07-19T12:43:05Z</time>
      </trkpt>
      <trkpt lat="42.6448" lon="1.69467">
        <ele>2061.367</ele>
        <time>2021-07-19T12:43:07Z</time>
      </trkpt>
      <trkpt lat="42.6448" lon="1.69467">
        <ele>2061.354</ele>
        <time>2021-07-19T12:43:09Z</time>
      </trkpt>
      <trkpt lat="42.6448" lon="1.69467">
        <ele>2061.35</ele>
        <time>2021-07-19T12:43:11Z</time>
      </trkpt>
      <trkpt lat="42.6448" lon="1.69467">
        <ele>2061.346</ele>
        <time>2021-07-19T12:43:13Z</time>
      </trkpt>
      <trkpt lat="42.6448" lon="1.69467">
        <ele>2061.344</ele>
        <time>2021-07-19T12:43:15Z</time>
      </trkpt>
      <trkpt lat="42.6448" lon="1.69467">
        <ele>2061.344</ele>
        <time>2021-07-19T12:43:17Z</time>
      </trkpt>
      <trkpt lat="42.64479" lon="1.69466">
        <ele>2060.826</ele>
        <time>2021-07-19T12:43:19Z</time>
      </trkpt>
      <trkpt lat="42.64479" lon="1.69466">
        <ele>2060.225</ele>
        <time>2021-07-19T12:43:21Z</time>
      </trkpt>
      <trkpt lat="42.64478" lon="1.69466">
        <ele>2060.112</ele>
        <time>2021-07-19T12:43:23Z</time>
      </trkpt>
      <trkpt lat="42.64477" lon="1.69466">
        <ele>2059.972</ele>
        <time>2021-07-19T12:43:25Z</time>
      </trkpt>
      <trkpt lat="42.64476" lon="1.69466">
        <ele>2060.214</ele>
        <time>2021-07-19T12:43:27Z</time>
      </trkpt>
      <trkpt lat="42.64475" lon="1.69466">
        <ele>2060.398</ele>
        <time>2021-07-19T12:43:29Z</time>
      </trkpt>
      <trkpt lat="42.64473" lon="1.69466">
        <ele>2060.084</ele>
        <time>2021-07-19T12:43:31Z</time>
      </trkpt>
      <trkpt lat="42.64472" lon="1.69465">
        <ele>2059.796</ele>
        <time>2021-07-19T12:43:33Z</time>
      </trkpt>
      <trkpt lat="42.64471" lon="1.69464">
        <ele>2056.651</ele>
        <time>2021-07-19T12:43:35Z</time>
      </trkpt>
      <trkpt lat="42.6447" lon="1.69464">
        <ele>2056.533</ele>
        <time>2021-07-19T12:43:37Z</time>
      </trkpt>
      <trkpt lat="42.64469" lon="1.69464">
        <ele>2056.166</ele>
        <time>2021-07-19T12:43:39Z</time>
      </trkpt>
      <trkpt lat="42.64467" lon="1.69464">
        <ele>2055.507</ele>
        <time>2021-07-19T12:43:41Z</time>
      </trkpt>
      <trkpt lat="42.64466" lon="1.69463">
        <ele>2055.281</ele>
        <time>2021-07-19T12:43:43Z</time>
      </trkpt>
      <trkpt lat="42.64465" lon="1.69462">
        <ele>2055.904</ele>
        <time>2021-07-19T12:43:45Z</time>
      </trkpt>
      <trkpt lat="42.64463" lon="1.69463">
        <ele>2056.375</ele>
        <time>2021-07-19T12:43:47Z</time>
      </trkpt>
      <trkpt lat="42.64462" lon="1.69463">
        <ele>2055.707</ele>
        <time>2021-07-19T12:43:49Z</time>
      </trkpt>
      <trkpt lat="42.6446" lon="1.69463">
        <ele>2055.277</ele>
        <time>2021-07-19T12:43:51Z</time>
      </trkpt>
      <trkpt lat="42.64458" lon="1.69463">
        <ele>2056.193</ele>
        <time>2021-07-19T12:43:53Z</time>
      </trkpt>
      <trkpt lat="42.64457" lon="1.69463">
        <ele>2056.668</ele>
        <time>2021-07-19T12:43:55Z</time>
      </trkpt>
      <trkpt lat="42.64457" lon="1.69464">
        <ele>2056.65</ele>
        <time>2021-07-19T12:43:57Z</time>
      </trkpt>
      <trkpt lat="42.64456" lon="1.69464">
        <ele>2056.055</ele>
        <time>2021-07-19T12:43:59Z</time>
      </trkpt>
      <trkpt lat="42.64455" lon="1.69464">
        <ele>2055.104</ele>
        <time>2021-07-19T12:44:01Z</time>
      </trkpt>
      <trkpt lat="42.64454" lon="1.69464">
        <ele>2054.089</ele>
        <time>2021-07-19T12:44:03Z</time>
      </trkpt>
      <trkpt lat="42.64453" lon="1.69463">
        <ele>2053</ele>
        <time>2021-07-19T12:44:05Z</time>
      </trkpt>
      <trkpt lat="42.64452" lon="1.69463">
        <ele>2052.079</ele>
        <time>2021-07-19T12:44:07Z</time>
      </trkpt>
      <trkpt lat="42.64451" lon="1.69462">
        <ele>2051.528</ele>
        <time>2021-07-19T12:44:09Z</time>
      </trkpt>
      <trkpt lat="42.6445" lon="1.69461">
        <ele>2051.846</ele>
        <time>2021-07-19T12:44:11Z</time>
      </trkpt>
      <trkpt lat="42.64449" lon="1.69461">
        <ele>2051.332</ele>
        <time>2021-07-19T12:44:13Z</time>
      </trkpt>
      <trkpt lat="42.64448" lon="1.6946">
        <ele>2049.987</ele>
        <time>2021-07-19T12:44:15Z</time>
      </trkpt>
      <trkpt lat="42.64447" lon="1.6946">
        <ele>2049.544</ele>
        <time>2021-07-19T12:44:17Z</time>
      </trkpt>
      <trkpt lat="42.64446" lon="1.69459">
        <ele>2049.606</ele>
        <time>2021-07-19T12:44:19Z</time>
      </trkpt>
      <trkpt lat="42.64445" lon="1.69459">
        <ele>2049.621</ele>
        <time>2021-07-19T12:44:21Z</time>
      </trkpt>
      <trkpt lat="42.64444" lon="1.6946">
        <ele>2049.74</ele>
        <time>2021-07-19T12:44:22Z</time>
      </trkpt>
      <trkpt lat="42.64444" lon="1.6946">
        <ele>2049.67</ele>
        <time>2021-07-19T12:44:25Z</time>
      </trkpt>
      <trkpt lat="42.64444" lon="1.69461">
        <ele>2049.522</ele>
        <time>2021-07-19T12:44:27Z</time>
      </trkpt>
      <trkpt lat="42.64444" lon="1.69461">
        <ele>2049.679</ele>
        <time>2021-07-19T12:44:29Z</time>
      </trkpt>
      <trkpt lat="42.64443" lon="1.6946">
        <ele>2048.965</ele>
        <time>2021-07-19T12:44:31Z</time>
      </trkpt>
      <trkpt lat="42.64442" lon="1.69459">
        <ele>2048.874</ele>
        <time>2021-07-19T12:44:33Z</time>
      </trkpt>
      <trkpt lat="42.6444" lon="1.69459">
        <ele>2048.508</ele>
        <time>2021-07-19T12:44:35Z</time>
      </trkpt>
      <trkpt lat="42.6444" lon="1.69459">
        <ele>2048.025</ele>
        <time>2021-07-19T12:44:37Z</time>
      </trkpt>
      <trkpt lat="42.6444" lon="1.69458">
        <ele>2048.277</ele>
        <time>2021-07-19T12:44:39Z</time>
      </trkpt>
      <trkpt lat="42.64438" lon="1.69458">
        <ele>2048.989</ele>
        <time>2021-07-19T12:44:41Z</time>
      </trkpt>
      <trkpt lat="42.64438" lon="1.69457">
        <ele>2048.423</ele>
        <time>2021-07-19T12:44:43Z</time>
      </trkpt>
      <trkpt lat="42.64438" lon="1.69457">
        <ele>2048.201</ele>
        <time>2021-07-19T12:44:45Z</time>
      </trkpt>
      <trkpt lat="42.64437" lon="1.69457">
        <ele>2048.159</ele>
        <time>2021-07-19T12:44:47Z</time>
      </trkpt>
      <trkpt lat="42.64437" lon="1.69457">
        <ele>2048.096</ele>
        <time>2021-07-19T12:44:49Z</time>
      </trkpt>
      <trkpt lat="42.64436" lon="1.69457">
        <ele>2048.286</ele>
        <time>2021-07-19T12:44:51Z</time>
      </trkpt>
      <trkpt lat="42.64436" lon="1.69457">
        <ele>2048.258</ele>
        <time>2021-07-19T12:44:53Z</time>
      </trkpt>
      <trkpt lat="42.64436" lon="1.69457">
        <ele>2047.546</ele>
        <time>2021-07-19T12:44:55Z</time>
      </trkpt>
      <trkpt lat="42.64436" lon="1.69456">
        <ele>2047.42</ele>
        <time>2021-07-19T12:44:57Z</time>
      </trkpt>
      <trkpt lat="42.64436" lon="1.69456">
        <ele>2047.134</ele>
        <time>2021-07-19T12:44:59Z</time>
      </trkpt>
      <trkpt lat="42.64435" lon="1.69455">
        <ele>2046.484</ele>
        <time>2021-07-19T12:45:01Z</time>
      </trkpt>
      <trkpt lat="42.64434" lon="1.69454">
        <ele>2045.061</ele>
        <time>2021-07-19T12:45:03Z</time>
      </trkpt>
      <trkpt lat="42.64434" lon="1.69452">
        <ele>2044.021</ele>
        <time>2021-07-19T12:45:05Z</time>
      </trkpt>
      <trkpt lat="42.64434" lon="1.69449">
        <ele>2044.055</ele>
        <time>2021-07-19T12:45:07Z</time>
      </trkpt>
      <trkpt lat="42.64433" lon="1.69448">
        <ele>2043.777</ele>
        <time>2021-07-19T12:45:09Z</time>
      </trkpt>
      <trkpt lat="42.64432" lon="1.69446">
        <ele>2043.27</ele>
        <time>2021-07-19T12:45:11Z</time>
      </trkpt>
      <trkpt lat="42.64431" lon="1.69444">
        <ele>2042.831</ele>
        <time>2021-07-19T12:45:13Z</time>
      </trkpt>
      <trkpt lat="42.6443" lon="1.69444">
        <ele>2041.452</ele>
        <time>2021-07-19T12:45:15Z</time>
      </trkpt>
      <trkpt lat="42.64429" lon="1.69442">
        <ele>2042.055</ele>
        <time>2021-07-19T12:45:17Z</time>
      </trkpt>
      <trkpt lat="42.64428" lon="1.6944">
        <ele>2041.404</ele>
        <time>2021-07-19T12:45:19Z</time>
      </trkpt>
      <trkpt lat="42.64427" lon="1.69439">
        <ele>2041.838</ele>
        <time>2021-07-19T12:45:21Z</time>
      </trkpt>
      <trkpt lat="42.64428" lon="1.6944">
        <ele>2041.256</ele>
        <time>2021-07-19T12:45:23Z</time>
      </trkpt>
      <trkpt lat="42.64427" lon="1.6944">
        <ele>2041.026</ele>
        <time>2021-07-19T12:45:25Z</time>
      </trkpt>
      <trkpt lat="42.64426" lon="1.69439">
        <ele>2041.696</ele>
        <time>2021-07-19T12:45:27Z</time>
      </trkpt>
      <trkpt lat="42.64424" lon="1.69439">
        <ele>2042.565</ele>
        <time>2021-07-19T12:45:29Z</time>
      </trkpt>
      <trkpt lat="42.64424" lon="1.69439">
        <ele>2041.958</ele>
        <time>2021-07-19T12:45:31Z</time>
      </trkpt>
      <trkpt lat="42.64423" lon="1.69439">
        <ele>2042.676</ele>
        <time>2021-07-19T12:45:33Z</time>
      </trkpt>
      <trkpt lat="42.64421" lon="1.69437">
        <ele>2042.99</ele>
        <time>2021-07-19T12:45:35Z</time>
      </trkpt>
      <trkpt lat="42.64419" lon="1.69435">
        <ele>2043.096</ele>
        <time>2021-07-19T12:45:37Z</time>
      </trkpt>
      <trkpt lat="42.64418" lon="1.69434">
        <ele>2043.535</ele>
        <time>2021-07-19T12:45:39Z</time>
      </trkpt>
      <trkpt lat="42.64416" lon="1.69433">
        <ele>2042.497</ele>
        <time>2021-07-19T12:45:41Z</time>
      </trkpt>
      <trkpt lat="42.64415" lon="1.69432">
        <ele>2042.302</ele>
        <time>2021-07-19T12:45:43Z</time>
      </trkpt>
      <trkpt lat="42.64414" lon="1.69431">
        <ele>2041.673</ele>
        <time>2021-07-19T12:45:45Z</time>
      </trkpt>
      <trkpt lat="42.64412" lon="1.69431">
        <ele>2041.827</ele>
        <time>2021-07-19T12:45:47Z</time>
      </trkpt>
      <trkpt lat="42.6441" lon="1.69429">
        <ele>2040.844</ele>
        <time>2021-07-19T12:45:49Z</time>
      </trkpt>
      <trkpt lat="42.64409" lon="1.69428">
        <ele>2040.377</ele>
        <time>2021-07-19T12:45:51Z</time>
      </trkpt>
      <trkpt lat="42.64407" lon="1.69428">
        <ele>2039.964</ele>
        <time>2021-07-19T12:45:53Z</time>
      </trkpt>
      <trkpt lat="42.64406" lon="1.69427">
        <ele>2039.567</ele>
        <time>2021-07-19T12:45:55Z</time>
      </trkpt>
      <trkpt lat="42.64405" lon="1.69426">
        <ele>2039.619</ele>
        <time>2021-07-19T12:45:57Z</time>
      </trkpt>
      <trkpt lat="42.64403" lon="1.69426">
        <ele>2040.602</ele>
        <time>2021-07-19T12:45:59Z</time>
      </trkpt>
      <trkpt lat="42.64403" lon="1.69427">
        <ele>2040.179</ele>
        <time>2021-07-19T12:46:01Z</time>
      </trkpt>
      <trkpt lat="42.64401" lon="1.69429">
        <ele>2039.695</ele>
        <time>2021-07-19T12:46:03Z</time>
      </trkpt>
      <trkpt lat="42.644" lon="1.69429">
        <ele>2039.645</ele>
        <time>2021-07-19T12:46:05Z</time>
      </trkpt>
      <trkpt lat="42.64399" lon="1.69427">
        <ele>2040.196</ele>
        <time>2021-07-19T12:46:07Z</time>
      </trkpt>
      <trkpt lat="42.64399" lon="1.69426">
        <ele>2039.708</ele>
        <time>2021-07-19T12:46:09Z</time>
      </trkpt>
      <trkpt lat="42.64398" lon="1.69425">
        <ele>2039.584</ele>
        <time>2021-07-19T12:46:11Z</time>
      </trkpt>
      <trkpt lat="42.64397" lon="1.69424">
        <ele>2039.403</ele>
        <time>2021-07-19T12:46:13Z</time>
      </trkpt>
      <trkpt lat="42.64397" lon="1.69423">
        <ele>2038.175</ele>
        <time>2021-07-19T12:46:15Z</time>
      </trkpt>
      <trkpt lat="42.64396" lon="1.69421">
        <ele>2037.731</ele>
        <time>2021-07-19T12:46:17Z</time>
      </trkpt>
      <trkpt lat="42.64395" lon="1.69421">
        <ele>2037.272</ele>
        <time>2021-07-19T12:46:19Z</time>
      </trkpt>
      <trkpt lat="42.64394" lon="1.69421">
        <ele>2037.206</ele>
        <time>2021-07-19T12:46:21Z</time>
      </trkpt>
      <trkpt lat="42.64393" lon="1.69422">
        <ele>2037.14</ele>
        <time>2021-07-19T12:46:23Z</time>
      </trkpt>
      <trkpt lat="42.64393" lon="1.69422">
        <ele>2037.252</ele>
        <time>2021-07-19T12:46:25Z</time>
      </trkpt>
      <trkpt lat="42.64392" lon="1.69422">
        <ele>2037.53</ele>
        <time>2021-07-19T12:46:27Z</time>
      </trkpt>
      <trkpt lat="42.64391" lon="1.69423">
        <ele>2036.51</ele>
        <time>2021-07-19T12:46:29Z</time>
      </trkpt>
      <trkpt lat="42.64391" lon="1.69424">
        <ele>2035.928</ele>
        <time>2021-07-19T12:46:31Z</time>
      </trkpt>
      <trkpt lat="42.64389" lon="1.69424">
        <ele>2035.428</ele>
        <time>2021-07-19T12:46:33Z</time>
      </trkpt>
      <trkpt lat="42.64388" lon="1.69423">
        <ele>2034.623</ele>
        <time>2021-07-19T12:46:35Z</time>
      </trkpt>
      <trkpt lat="42.64387" lon="1.69423">
        <ele>2033.972</ele>
        <time>2021-07-19T12:46:37Z</time>
      </trkpt>
      <trkpt lat="42.64385" lon="1.69422">
        <ele>2033.192</ele>
        <time>2021-07-19T12:46:39Z</time>
      </trkpt>
      <trkpt lat="42.64384" lon="1.69422">
        <ele>2032.766</ele>
        <time>2021-07-19T12:46:41Z</time>
      </trkpt>
      <trkpt lat="42.64383" lon="1.69422">
        <ele>2032.141</ele>
        <time>2021-07-19T12:46:43Z</time>
      </trkpt>
      <trkpt lat="42.64382" lon="1.69423">
        <ele>2031.434</ele>
        <time>2021-07-19T12:46:45Z</time>
      </trkpt>
      <trkpt lat="42.6438" lon="1.69422">
        <ele>2031.422</ele>
        <time>2021-07-19T12:46:47Z</time>
      </trkpt>
      <trkpt lat="42.64379" lon="1.69421">
        <ele>2031.379</ele>
        <time>2021-07-19T12:46:49Z</time>
      </trkpt>
      <trkpt lat="42.64378" lon="1.69421">
        <ele>2031.114</ele>
        <time>2021-07-19T12:46:51Z</time>
      </trkpt>
      <trkpt lat="42.64375" lon="1.6942">
        <ele>2032.115</ele>
        <time>2021-07-19T12:46:53Z</time>
      </trkpt>
      <trkpt lat="42.64373" lon="1.69419">
        <ele>2031.956</ele>
        <time>2021-07-19T12:46:55Z</time>
      </trkpt>
      <trkpt lat="42.64371" lon="1.6942">
        <ele>2031.439</ele>
        <time>2021-07-19T12:46:57Z</time>
      </trkpt>
      <trkpt lat="42.6437" lon="1.6942">
        <ele>2031.531</ele>
        <time>2021-07-19T12:46:59Z</time>
      </trkpt>
      <trkpt lat="42.64368" lon="1.6942">
        <ele>2031.166</ele>
        <time>2021-07-19T12:47:01Z</time>
      </trkpt>
      <trkpt lat="42.64367" lon="1.69421">
        <ele>2030.079</ele>
        <time>2021-07-19T12:47:03Z</time>
      </trkpt>
      <trkpt lat="42.64365" lon="1.6942">
        <ele>2030.094</ele>
        <time>2021-07-19T12:47:05Z</time>
      </trkpt>
      <trkpt lat="42.64364" lon="1.69419">
        <ele>2029.993</ele>
        <time>2021-07-19T12:47:07Z</time>
      </trkpt>
      <trkpt lat="42.64362" lon="1.69418">
        <ele>2029.593</ele>
        <time>2021-07-19T12:47:09Z</time>
      </trkpt>
      <trkpt lat="42.6436" lon="1.69418">
        <ele>2029.402</ele>
        <time>2021-07-19T12:47:11Z</time>
      </trkpt>
      <trkpt lat="42.64357" lon="1.69419">
        <ele>2029.734</ele>
        <time>2021-07-19T12:47:13Z</time>
      </trkpt>
      <trkpt lat="42.64356" lon="1.69419">
        <ele>2029.664</ele>
        <time>2021-07-19T12:47:15Z</time>
      </trkpt>
      <trkpt lat="42.64354" lon="1.69418">
        <ele>2029.29</ele>
        <time>2021-07-19T12:47:17Z</time>
      </trkpt>
      <trkpt lat="42.64352" lon="1.69418">
        <ele>2029.948</ele>
        <time>2021-07-19T12:47:19Z</time>
      </trkpt>
      <trkpt lat="42.64351" lon="1.69418">
        <ele>2029.708</ele>
        <time>2021-07-19T12:47:21Z</time>
      </trkpt>
      <trkpt lat="42.64349" lon="1.69417">
        <ele>2029.548</ele>
        <time>2021-07-19T12:47:23Z</time>
      </trkpt>
      <trkpt lat="42.64347" lon="1.69416">
        <ele>2028.799</ele>
        <time>2021-07-19T12:47:25Z</time>
      </trkpt>
      <trkpt lat="42.64346" lon="1.69415">
        <ele>2028.302</ele>
        <time>2021-07-19T12:47:27Z</time>
      </trkpt>
      <trkpt lat="42.64344" lon="1.69413">
        <ele>2028.495</ele>
        <time>2021-07-19T12:47:29Z</time>
      </trkpt>
      <trkpt lat="42.64342" lon="1.69412">
        <ele>2028.151</ele>
        <time>2021-07-19T12:47:31Z</time>
      </trkpt>
      <trkpt lat="42.6434" lon="1.69411">
        <ele>2027.956</ele>
        <time>2021-07-19T12:47:33Z</time>
      </trkpt>
      <trkpt lat="42.64339" lon="1.69408">
        <ele>2028.827</ele>
        <time>2021-07-19T12:47:35Z</time>
      </trkpt>
      <trkpt lat="42.64338" lon="1.69404">
        <ele>2029.517</ele>
        <time>2021-07-19T12:47:37Z</time>
      </trkpt>
      <trkpt lat="42.64336" lon="1.69401">
        <ele>2029.882</ele>
        <time>2021-07-19T12:47:39Z</time>
      </trkpt>
      <trkpt lat="42.64334" lon="1.69398">
        <ele>2031.113</ele>
        <time>2021-07-19T12:47:41Z</time>
      </trkpt>
      <trkpt lat="42.64332" lon="1.69397">
        <ele>2031.745</ele>
        <time>2021-07-19T12:47:43Z</time>
      </trkpt>
      <trkpt lat="42.64331" lon="1.69396">
        <ele>2031.687</ele>
        <time>2021-07-19T12:47:45Z</time>
      </trkpt>
      <trkpt lat="42.6433" lon="1.69395">
        <ele>2031.622</ele>
        <time>2021-07-19T12:47:47Z</time>
      </trkpt>
      <trkpt lat="42.64329" lon="1.69393">
        <ele>2029.377</ele>
        <time>2021-07-19T12:47:49Z</time>
      </trkpt>
      <trkpt lat="42.64329" lon="1.69392">
        <ele>2028.481</ele>
        <time>2021-07-19T12:47:51Z</time>
      </trkpt>
      <trkpt lat="42.64328" lon="1.6939">
        <ele>2029.394</ele>
        <time>2021-07-19T12:47:53Z</time>
      </trkpt>
      <trkpt lat="42.64327" lon="1.69389">
        <ele>2030.365</ele>
        <time>2021-07-19T12:47:55Z</time>
      </trkpt>
      <trkpt lat="42.64326" lon="1.69387">
        <ele>2030.897</ele>
        <time>2021-07-19T12:47:57Z</time>
      </trkpt>
      <trkpt lat="42.64325" lon="1.69385">
        <ele>2031.493</ele>
        <time>2021-07-19T12:47:59Z</time>
      </trkpt>
      <trkpt lat="42.64324" lon="1.69383">
        <ele>2031.115</ele>
        <time>2021-07-19T12:48:01Z</time>
      </trkpt>
      <trkpt lat="42.64323" lon="1.69382">
        <ele>2030.942</ele>
        <time>2021-07-19T12:48:03Z</time>
      </trkpt>
      <trkpt lat="42.64321" lon="1.6938">
        <ele>2030.767</ele>
        <time>2021-07-19T12:48:05Z</time>
      </trkpt>
      <trkpt lat="42.6432" lon="1.69378">
        <ele>2031.263</ele>
        <time>2021-07-19T12:48:07Z</time>
      </trkpt>
      <trkpt lat="42.64319" lon="1.69375">
        <ele>2032.253</ele>
        <time>2021-07-19T12:48:09Z</time>
      </trkpt>
      <trkpt lat="42.64318" lon="1.69373">
        <ele>2031.981</ele>
        <time>2021-07-19T12:48:11Z</time>
      </trkpt>
      <trkpt lat="42.64316" lon="1.69372">
        <ele>2031.657</ele>
        <time>2021-07-19T12:48:13Z</time>
      </trkpt>
      <trkpt lat="42.64314" lon="1.6937">
        <ele>2031.747</ele>
        <time>2021-07-19T12:48:15Z</time>
      </trkpt>
      <trkpt lat="42.64313" lon="1.69368">
        <ele>2032.769</ele>
        <time>2021-07-19T12:48:17Z</time>
      </trkpt>
      <trkpt lat="42.64312" lon="1.69366">
        <ele>2032.581</ele>
        <time>2021-07-19T12:48:19Z</time>
      </trkpt>
      <trkpt lat="42.6431" lon="1.69365">
        <ele>2032.862</ele>
        <time>2021-07-19T12:48:21Z</time>
      </trkpt>
      <trkpt lat="42.64309" lon="1.69363">
        <ele>2032.835</ele>
        <time>2021-07-19T12:48:23Z</time>
      </trkpt>
      <trkpt lat="42.64308" lon="1.69359">
        <ele>2034.088</ele>
        <time>2021-07-19T12:48:25Z</time>
      </trkpt>
      <trkpt lat="42.64306" lon="1.69356">
        <ele>2033.71</ele>
        <time>2021-07-19T12:48:27Z</time>
      </trkpt>
      <trkpt lat="42.64304" lon="1.69353">
        <ele>2035.152</ele>
        <time>2021-07-19T12:48:29Z</time>
      </trkpt>
      <trkpt lat="42.64302" lon="1.69351">
        <ele>2035.361</ele>
        <time>2021-07-19T12:48:31Z</time>
      </trkpt>
      <trkpt lat="42.643" lon="1.69348">
        <ele>2034.29</ele>
        <time>2021-07-19T12:48:33Z</time>
      </trkpt>
      <trkpt lat="42.64299" lon="1.69346">
        <ele>2033.748</ele>
        <time>2021-07-19T12:48:35Z</time>
      </trkpt>
      <trkpt lat="42.64298" lon="1.69344">
        <ele>2033.985</ele>
        <time>2021-07-19T12:48:37Z</time>
      </trkpt>
      <trkpt lat="42.64298" lon="1.69341">
        <ele>2033.542</ele>
        <time>2021-07-19T12:48:39Z</time>
      </trkpt>
      <trkpt lat="42.64297" lon="1.69339">
        <ele>2033.7</ele>
        <time>2021-07-19T12:48:41Z</time>
      </trkpt>
      <trkpt lat="42.64295" lon="1.69336">
        <ele>2036.039</ele>
        <time>2021-07-19T12:48:43Z</time>
      </trkpt>
      <trkpt lat="42.64294" lon="1.69336">
        <ele>2036.787</ele>
        <time>2021-07-19T12:48:45Z</time>
      </trkpt>
      <trkpt lat="42.64294" lon="1.69336">
        <ele>2036.782</ele>
        <time>2021-07-19T12:48:47Z</time>
      </trkpt>
      <trkpt lat="42.64294" lon="1.69336">
        <ele>2036.787</ele>
        <time>2021-07-19T12:48:49Z</time>
      </trkpt>
      <trkpt lat="42.64294" lon="1.69336">
        <ele>2036.782</ele>
        <time>2021-07-19T12:48:51Z</time>
      </trkpt>
      <trkpt lat="42.64294" lon="1.69336">
        <ele>2036.78</ele>
        <time>2021-07-19T12:48:53Z</time>
      </trkpt>
      <trkpt lat="42.64294" lon="1.69336">
        <ele>2036.614</ele>
        <time>2021-07-19T12:48:55Z</time>
      </trkpt>
      <trkpt lat="42.64293" lon="1.69335">
        <ele>2036.9</ele>
        <time>2021-07-19T12:48:57Z</time>
      </trkpt>
      <trkpt lat="42.64293" lon="1.69332">
        <ele>2035.905</ele>
        <time>2021-07-19T12:48:59Z</time>
      </trkpt>
      <trkpt lat="42.64292" lon="1.69329">
        <ele>2036.907</ele>
        <time>2021-07-19T12:49:01Z</time>
      </trkpt>
      <trkpt lat="42.64291" lon="1.69327">
        <ele>2037.109</ele>
        <time>2021-07-19T12:49:03Z</time>
      </trkpt>
      <trkpt lat="42.6429" lon="1.69325">
        <ele>2037.976</ele>
        <time>2021-07-19T12:49:05Z</time>
      </trkpt>
      <trkpt lat="42.6429" lon="1.69324">
        <ele>2037.791</ele>
        <time>2021-07-19T12:49:07Z</time>
      </trkpt>
      <trkpt lat="42.64288" lon="1.69321">
        <ele>2037.548</ele>
        <time>2021-07-19T12:49:09Z</time>
      </trkpt>
      <trkpt lat="42.64286" lon="1.6932">
        <ele>2037.935</ele>
        <time>2021-07-19T12:49:11Z</time>
      </trkpt>
      <trkpt lat="42.64285" lon="1.69319">
        <ele>2038.674</ele>
        <time>2021-07-19T12:49:13Z</time>
      </trkpt>
      <trkpt lat="42.64283" lon="1.69318">
        <ele>2038.609</ele>
        <time>2021-07-19T12:49:15Z</time>
      </trkpt>
      <trkpt lat="42.64282" lon="1.69317">
        <ele>2037.81</ele>
        <time>2021-07-19T12:49:17Z</time>
      </trkpt>
      <trkpt lat="42.64282" lon="1.69314">
        <ele>2038.518</ele>
        <time>2021-07-19T12:49:19Z</time>
      </trkpt>
      <trkpt lat="42.64281" lon="1.69312">
        <ele>2037.439</ele>
        <time>2021-07-19T12:49:21Z</time>
      </trkpt>
      <trkpt lat="42.64281" lon="1.6931">
        <ele>2037.688</ele>
        <time>2021-07-19T12:49:23Z</time>
      </trkpt>
      <trkpt lat="42.64281" lon="1.69307">
        <ele>2038.005</ele>
        <time>2021-07-19T12:49:25Z</time>
      </trkpt>
      <trkpt lat="42.64279" lon="1.69305">
        <ele>2038.54</ele>
        <time>2021-07-19T12:49:27Z</time>
      </trkpt>
      <trkpt lat="42.64277" lon="1.69305">
        <ele>2038.368</ele>
        <time>2021-07-19T12:49:29Z</time>
      </trkpt>
      <trkpt lat="42.64275" lon="1.69303">
        <ele>2037.998</ele>
        <time>2021-07-19T12:49:31Z</time>
      </trkpt>
      <trkpt lat="42.64275" lon="1.69301">
        <ele>2037.31</ele>
        <time>2021-07-19T12:49:33Z</time>
      </trkpt>
      <trkpt lat="42.64273" lon="1.693">
        <ele>2037.275</ele>
        <time>2021-07-19T12:49:35Z</time>
      </trkpt>
      <trkpt lat="42.64272" lon="1.69299">
        <ele>2036.659</ele>
        <time>2021-07-19T12:49:37Z</time>
      </trkpt>
      <trkpt lat="42.64271" lon="1.69296">
        <ele>2035.84</ele>
        <time>2021-07-19T12:49:39Z</time>
      </trkpt>
      <trkpt lat="42.6427" lon="1.69295">
        <ele>2035.436</ele>
        <time>2021-07-19T12:49:41Z</time>
      </trkpt>
      <trkpt lat="42.64269" lon="1.69293">
        <ele>2036.064</ele>
        <time>2021-07-19T12:49:43Z</time>
      </trkpt>
      <trkpt lat="42.64269" lon="1.69291">
        <ele>2035.752</ele>
        <time>2021-07-19T12:49:45Z</time>
      </trkpt>
      <trkpt lat="42.64267" lon="1.69289">
        <ele>2035.649</ele>
        <time>2021-07-19T12:49:47Z</time>
      </trkpt>
      <trkpt lat="42.64266" lon="1.69288">
        <ele>2035.224</ele>
        <time>2021-07-19T12:49:49Z</time>
      </trkpt>
      <trkpt lat="42.64265" lon="1.69287">
        <ele>2034.192</ele>
        <time>2021-07-19T12:49:51Z</time>
      </trkpt>
      <trkpt lat="42.64264" lon="1.69285">
        <ele>2033.744</ele>
        <time>2021-07-19T12:49:53Z</time>
      </trkpt>
      <trkpt lat="42.64263" lon="1.69284">
        <ele>2033.869</ele>
        <time>2021-07-19T12:49:55Z</time>
      </trkpt>
      <trkpt lat="42.64263" lon="1.69284">
        <ele>2033.733</ele>
        <time>2021-07-19T12:49:57Z</time>
      </trkpt>
      <trkpt lat="42.64263" lon="1.69284">
        <ele>2033.729</ele>
        <time>2021-07-19T12:49:59Z</time>
      </trkpt>
      <trkpt lat="42.64263" lon="1.69284">
        <ele>2033.734</ele>
        <time>2021-07-19T12:50:01Z</time>
      </trkpt>
      <trkpt lat="42.64263" lon="1.69284">
        <ele>2033.738</ele>
        <time>2021-07-19T12:50:03Z</time>
      </trkpt>
      <trkpt lat="42.64263" lon="1.69284">
        <ele>2033.736</ele>
        <time>2021-07-19T12:50:05Z</time>
      </trkpt>
      <trkpt lat="42.64263" lon="1.69284">
        <ele>2033.734</ele>
        <time>2021-07-19T12:50:07Z</time>
      </trkpt>
      <trkpt lat="42.64263" lon="1.69284">
        <ele>2033.738</ele>
        <time>2021-07-19T12:50:09Z</time>
      </trkpt>
      <trkpt lat="42.64263" lon="1.69284">
        <ele>2033.734</ele>
        <time>2021-07-19T12:50:11Z</time>
      </trkpt>
      <trkpt lat="42.64263" lon="1.69284">
        <ele>2033.732</ele>
        <time>2021-07-19T12:50:13Z</time>
      </trkpt>
      <trkpt lat="42.64263" lon="1.69284">
        <ele>2033.724</ele>
        <time>2021-07-19T12:50:15Z</time>
      </trkpt>
      <trkpt lat="42.64263" lon="1.69284">
        <ele>2033.725</ele>
        <time>2021-07-19T12:50:17Z</time>
      </trkpt>
      <trkpt lat="42.64263" lon="1.69284">
        <ele>2033.777</ele>
        <time>2021-07-19T12:50:19Z</time>
      </trkpt>
      <trkpt lat="42.64262" lon="1.69283">
        <ele>2033.629</ele>
        <time>2021-07-19T12:50:21Z</time>
      </trkpt>
      <trkpt lat="42.64261" lon="1.69282">
        <ele>2032.658</ele>
        <time>2021-07-19T12:50:23Z</time>
      </trkpt>
      <trkpt lat="42.6426" lon="1.69281">
        <ele>2032.91</ele>
        <time>2021-07-19T12:50:25Z</time>
      </trkpt>
      <trkpt lat="42.6426" lon="1.69279">
        <ele>2032.452</ele>
        <time>2021-07-19T12:50:27Z</time>
      </trkpt>
      <trkpt lat="42.64258" lon="1.69278">
        <ele>2031.691</ele>
        <time>2021-07-19T12:50:29Z</time>
      </trkpt>
      <trkpt lat="42.64257" lon="1.69277">
        <ele>2032.134</ele>
        <time>2021-07-19T12:50:31Z</time>
      </trkpt>
      <trkpt lat="42.64256" lon="1.69276">
        <ele>2033.247</ele>
        <time>2021-07-19T12:50:33Z</time>
      </trkpt>
      <trkpt lat="42.64256" lon="1.69276">
        <ele>2033.113</ele>
        <time>2021-07-19T12:50:35Z</time>
      </trkpt>
      <trkpt lat="42.64256" lon="1.69276">
        <ele>2033.114</ele>
        <time>2021-07-19T12:50:37Z</time>
      </trkpt>
      <trkpt lat="42.64256" lon="1.69277">
        <ele>2033.17</ele>
        <time>2021-07-19T12:50:39Z</time>
      </trkpt>
      <trkpt lat="42.64256" lon="1.69277">
        <ele>2033.173</ele>
        <time>2021-07-19T12:50:41Z</time>
      </trkpt>
      <trkpt lat="42.64256" lon="1.69277">
        <ele>2033.17</ele>
        <time>2021-07-19T12:50:43Z</time>
      </trkpt>
      <trkpt lat="42.64255" lon="1.69276">
        <ele>2033.322</ele>
        <time>2021-07-19T12:50:45Z</time>
      </trkpt>
      <trkpt lat="42.64254" lon="1.69278">
        <ele>2033.527</ele>
        <time>2021-07-19T12:50:47Z</time>
      </trkpt>
      <trkpt lat="42.64254" lon="1.69279">
        <ele>2033.535</ele>
        <time>2021-07-19T12:50:49Z</time>
      </trkpt>
      <trkpt lat="42.64254" lon="1.69279">
        <ele>2033.533</ele>
        <time>2021-07-19T12:50:51Z</time>
      </trkpt>
      <trkpt lat="42.64254" lon="1.69279">
        <ele>2033.534</ele>
        <time>2021-07-19T12:50:53Z</time>
      </trkpt>
      <trkpt lat="42.64254" lon="1.69279">
        <ele>2033.542</ele>
        <time>2021-07-19T12:50:55Z</time>
      </trkpt>
      <trkpt lat="42.64254" lon="1.69279">
        <ele>2033.547</ele>
        <time>2021-07-19T12:50:57Z</time>
      </trkpt>
      <trkpt lat="42.64254" lon="1.69279">
        <ele>2033.542</ele>
        <time>2021-07-19T12:50:59Z</time>
      </trkpt>
      <trkpt lat="42.64254" lon="1.69279">
        <ele>2033.529</ele>
        <time>2021-07-19T12:51:01Z</time>
      </trkpt>
      <trkpt lat="42.64255" lon="1.69279">
        <ele>2033.087</ele>
        <time>2021-07-19T12:51:03Z</time>
      </trkpt>
      <trkpt lat="42.64255" lon="1.69279">
        <ele>2033.497</ele>
        <time>2021-07-19T12:51:05Z</time>
      </trkpt>
      <trkpt lat="42.64255" lon="1.69279">
        <ele>2033.492</ele>
        <time>2021-07-19T12:51:07Z</time>
      </trkpt>
      <trkpt lat="42.64255" lon="1.69279">
        <ele>2033.487</ele>
        <time>2021-07-19T12:51:09Z</time>
      </trkpt>
      <trkpt lat="42.64255" lon="1.69279">
        <ele>2033.487</ele>
        <time>2021-07-19T12:51:11Z</time>
      </trkpt>
      <trkpt lat="42.64255" lon="1.69279">
        <ele>2033.489</ele>
        <time>2021-07-19T12:51:13Z</time>
      </trkpt>
      <trkpt lat="42.64255" lon="1.69279">
        <ele>2033.489</ele>
        <time>2021-07-19T12:51:15Z</time>
      </trkpt>
      <trkpt lat="42.64255" lon="1.69279">
        <ele>2033.488</ele>
        <time>2021-07-19T12:51:17Z</time>
      </trkpt>
      <trkpt lat="42.64255" lon="1.69279">
        <ele>2033.493</ele>
        <time>2021-07-19T12:51:19Z</time>
      </trkpt>
      <trkpt lat="42.64255" lon="1.69279">
        <ele>2033.494</ele>
        <time>2021-07-19T12:51:21Z</time>
      </trkpt>
      <trkpt lat="42.64255" lon="1.69279">
        <ele>2033.492</ele>
        <time>2021-07-19T12:51:23Z</time>
      </trkpt>
      <trkpt lat="42.64255" lon="1.69279">
        <ele>2033.486</ele>
        <time>2021-07-19T12:51:25Z</time>
      </trkpt>
      <trkpt lat="42.64255" lon="1.69279">
        <ele>2033.487</ele>
        <time>2021-07-19T12:51:27Z</time>
      </trkpt>
      <trkpt lat="42.64255" lon="1.69279">
        <ele>2033.488</ele>
        <time>2021-07-19T12:51:29Z</time>
      </trkpt>
      <trkpt lat="42.64255" lon="1.69279">
        <ele>2033.49</ele>
        <time>2021-07-19T12:51:31Z</time>
      </trkpt>
      <trkpt lat="42.64255" lon="1.69279">
        <ele>2033.687</ele>
        <time>2021-07-19T12:51:33Z</time>
      </trkpt>
      <trkpt lat="42.64255" lon="1.69279">
        <ele>2033.692</ele>
        <time>2021-07-19T12:51:35Z</time>
      </trkpt>
      <trkpt lat="42.64255" lon="1.69279">
        <ele>2033.689</ele>
        <time>2021-07-19T12:51:37Z</time>
      </trkpt>
      <trkpt lat="42.64255" lon="1.69279">
        <ele>2033.166</ele>
        <time>2021-07-19T12:51:39Z</time>
      </trkpt>
      <trkpt lat="42.64255" lon="1.69279">
        <ele>2033.169</ele>
        <time>2021-07-19T12:51:41Z</time>
      </trkpt>
      <trkpt lat="42.64255" lon="1.69279">
        <ele>2033.17</ele>
        <time>2021-07-19T12:51:43Z</time>
      </trkpt>
      <trkpt lat="42.64254" lon="1.69279">
        <ele>2033.165</ele>
        <time>2021-07-19T12:51:45Z</time>
      </trkpt>
      <trkpt lat="42.64254" lon="1.69279">
        <ele>2033.16</ele>
        <time>2021-07-19T12:51:47Z</time>
      </trkpt>
      <trkpt lat="42.64254" lon="1.69279">
        <ele>2033.167</ele>
        <time>2021-07-19T12:51:49Z</time>
      </trkpt>
      <trkpt lat="42.64255" lon="1.69279">
        <ele>2033.161</ele>
        <time>2021-07-19T12:51:51Z</time>
      </trkpt>
      <trkpt lat="42.64255" lon="1.69279">
        <ele>2033.152</ele>
        <time>2021-07-19T12:51:53Z</time>
      </trkpt>
      <trkpt lat="42.64255" lon="1.69279">
        <ele>2033.154</ele>
        <time>2021-07-19T12:51:55Z</time>
      </trkpt>
      <trkpt lat="42.64255" lon="1.69279">
        <ele>2033.153</ele>
        <time>2021-07-19T12:51:57Z</time>
      </trkpt>
      <trkpt lat="42.64255" lon="1.69279">
        <ele>2033.152</ele>
        <time>2021-07-19T12:51:59Z</time>
      </trkpt>
      <trkpt lat="42.64254" lon="1.69278">
        <ele>2032.602</ele>
        <time>2021-07-19T12:52:01Z</time>
      </trkpt>
      <trkpt lat="42.64254" lon="1.69277">
        <ele>2032.774</ele>
        <time>2021-07-19T12:52:03Z</time>
      </trkpt>
      <trkpt lat="42.64252" lon="1.69277">
        <ele>2033.514</ele>
        <time>2021-07-19T12:52:05Z</time>
      </trkpt>
      <trkpt lat="42.64251" lon="1.69275">
        <ele>2033.955</ele>
        <time>2021-07-19T12:52:07Z</time>
      </trkpt>
      <trkpt lat="42.64251" lon="1.69273">
        <ele>2034.403</ele>
        <time>2021-07-19T12:52:09Z</time>
      </trkpt>
      <trkpt lat="42.6425" lon="1.69271">
        <ele>2033.531</ele>
        <time>2021-07-19T12:52:11Z</time>
      </trkpt>
      <trkpt lat="42.6425" lon="1.6927">
        <ele>2033.848</ele>
        <time>2021-07-19T12:52:13Z</time>
      </trkpt>
      <trkpt lat="42.64249" lon="1.69269">
        <ele>2033.234</ele>
        <time>2021-07-19T12:52:15Z</time>
      </trkpt>
      <trkpt lat="42.64248" lon="1.69267">
        <ele>2032.496</ele>
        <time>2021-07-19T12:52:17Z</time>
      </trkpt>
      <trkpt lat="42.64247" lon="1.69266">
        <ele>2030.95</ele>
        <time>2021-07-19T12:52:19Z</time>
      </trkpt>
      <trkpt lat="42.64246" lon="1.69265">
        <ele>2029.863</ele>
        <time>2021-07-19T12:52:21Z</time>
      </trkpt>
      <trkpt lat="42.64246" lon="1.69264">
        <ele>2028.742</ele>
        <time>2021-07-19T12:52:23Z</time>
      </trkpt>
      <trkpt lat="42.64245" lon="1.69264">
        <ele>2028.489</ele>
        <time>2021-07-19T12:52:25Z</time>
      </trkpt>
      <trkpt lat="42.64245" lon="1.69264">
        <ele>2028.465</ele>
        <time>2021-07-19T12:52:27Z</time>
      </trkpt>
      <trkpt lat="42.64244" lon="1.69264">
        <ele>2028.103</ele>
        <time>2021-07-19T12:52:29Z</time>
      </trkpt>
      <trkpt lat="42.64243" lon="1.69263">
        <ele>2028.005</ele>
        <time>2021-07-19T12:52:31Z</time>
      </trkpt>
      <trkpt lat="42.64242" lon="1.69263">
        <ele>2026.961</ele>
        <time>2021-07-19T12:52:33Z</time>
      </trkpt>
      <trkpt lat="42.64241" lon="1.69263">
        <ele>2027.833</ele>
        <time>2021-07-19T12:52:35Z</time>
      </trkpt>
      <trkpt lat="42.6424" lon="1.69264">
        <ele>2028.168</ele>
        <time>2021-07-19T12:52:37Z</time>
      </trkpt>
      <trkpt lat="42.6424" lon="1.69265">
        <ele>2027.9</ele>
        <time>2021-07-19T12:52:39Z</time>
      </trkpt>
      <trkpt lat="42.6424" lon="1.69265">
        <ele>2027.348</ele>
        <time>2021-07-19T12:52:41Z</time>
      </trkpt>
      <trkpt lat="42.6424" lon="1.69266">
        <ele>2026.963</ele>
        <time>2021-07-19T12:52:43Z</time>
      </trkpt>
      <trkpt lat="42.64239" lon="1.69267">
        <ele>2026.651</ele>
        <time>2021-07-19T12:52:45Z</time>
      </trkpt>
      <trkpt lat="42.64239" lon="1.69268">
        <ele>2026.538</ele>
        <time>2021-07-19T12:52:47Z</time>
      </trkpt>
      <trkpt lat="42.64238" lon="1.69269">
        <ele>2026.476</ele>
        <time>2021-07-19T12:52:49Z</time>
      </trkpt>
      <trkpt lat="42.64237" lon="1.6927">
        <ele>2028.171</ele>
        <time>2021-07-19T12:52:51Z</time>
      </trkpt>
      <trkpt lat="42.64235" lon="1.69268">
        <ele>2029.663</ele>
        <time>2021-07-19T12:52:53Z</time>
      </trkpt>
      <trkpt lat="42.64235" lon="1.69267">
        <ele>2029.648</ele>
        <time>2021-07-19T12:52:55Z</time>
      </trkpt>
      <trkpt lat="42.64234" lon="1.69266">
        <ele>2030.954</ele>
        <time>2021-07-19T12:52:57Z</time>
      </trkpt>
      <trkpt lat="42.64233" lon="1.69266">
        <ele>2030.932</ele>
        <time>2021-07-19T12:52:59Z</time>
      </trkpt>
      <trkpt lat="42.64232" lon="1.69266">
        <ele>2031.637</ele>
        <time>2021-07-19T12:53:01Z</time>
      </trkpt>
      <trkpt lat="42.64232" lon="1.69265">
        <ele>2032.078</ele>
        <time>2021-07-19T12:53:03Z</time>
      </trkpt>
      <trkpt lat="42.64232" lon="1.69265">
        <ele>2032.058</ele>
        <time>2021-07-19T12:53:05Z</time>
      </trkpt>
      <trkpt lat="42.64232" lon="1.69265">
        <ele>2031.273</ele>
        <time>2021-07-19T12:53:07Z</time>
      </trkpt>
      <trkpt lat="42.64232" lon="1.69264">
        <ele>2031.154</ele>
        <time>2021-07-19T12:53:09Z</time>
      </trkpt>
      <trkpt lat="42.64232" lon="1.69264">
        <ele>2031.336</ele>
        <time>2021-07-19T12:53:11Z</time>
      </trkpt>
      <trkpt lat="42.64231" lon="1.69262">
        <ele>2031.119</ele>
        <time>2021-07-19T12:53:13Z</time>
      </trkpt>
      <trkpt lat="42.6423" lon="1.69261">
        <ele>2030.238</ele>
        <time>2021-07-19T12:53:15Z</time>
      </trkpt>
      <trkpt lat="42.64229" lon="1.69261">
        <ele>2029.454</ele>
        <time>2021-07-19T12:53:17Z</time>
      </trkpt>
      <trkpt lat="42.64228" lon="1.6926">
        <ele>2029.334</ele>
        <time>2021-07-19T12:53:19Z</time>
      </trkpt>
      <trkpt lat="42.64226" lon="1.69258">
        <ele>2028.892</ele>
        <time>2021-07-19T12:53:21Z</time>
      </trkpt>
      <trkpt lat="42.64225" lon="1.69258">
        <ele>2028.279</ele>
        <time>2021-07-19T12:53:23Z</time>
      </trkpt>
      <trkpt lat="42.64225" lon="1.69256">
        <ele>2028.102</ele>
        <time>2021-07-19T12:53:25Z</time>
      </trkpt>
      <trkpt lat="42.64224" lon="1.69255">
        <ele>2027.642</ele>
        <time>2021-07-19T12:53:27Z</time>
      </trkpt>
      <trkpt lat="42.64223" lon="1.69254">
        <ele>2027.057</ele>
        <time>2021-07-19T12:53:29Z</time>
      </trkpt>
      <trkpt lat="42.64222" lon="1.69253">
        <ele>2026.206</ele>
        <time>2021-07-19T12:53:31Z</time>
      </trkpt>
      <trkpt lat="42.64221" lon="1.69252">
        <ele>2026.622</ele>
        <time>2021-07-19T12:53:33Z</time>
      </trkpt>
      <trkpt lat="42.6422" lon="1.69251">
        <ele>2026.022</ele>
        <time>2021-07-19T12:53:35Z</time>
      </trkpt>
      <trkpt lat="42.64219" lon="1.6925">
        <ele>2026.352</ele>
        <time>2021-07-19T12:53:37Z</time>
      </trkpt>
      <trkpt lat="42.64218" lon="1.69249">
        <ele>2024.358</ele>
        <time>2021-07-19T12:53:39Z</time>
      </trkpt>
      <trkpt lat="42.64218" lon="1.69248">
        <ele>2023.034</ele>
        <time>2021-07-19T12:53:41Z</time>
      </trkpt>
      <trkpt lat="42.64216" lon="1.69247">
        <ele>2023.745</ele>
        <time>2021-07-19T12:53:43Z</time>
      </trkpt>
      <trkpt lat="42.64216" lon="1.69248">
        <ele>2023.279</ele>
        <time>2021-07-19T12:53:45Z</time>
      </trkpt>
      <trkpt lat="42.64216" lon="1.69248">
        <ele>2023.583</ele>
        <time>2021-07-19T12:53:47Z</time>
      </trkpt>
      <trkpt lat="42.64216" lon="1.69248">
        <ele>2023.135</ele>
        <time>2021-07-19T12:53:49Z</time>
      </trkpt>
      <trkpt lat="42.64216" lon="1.69248">
        <ele>2022.988</ele>
        <time>2021-07-19T12:53:51Z</time>
      </trkpt>
      <trkpt lat="42.64215" lon="1.69248">
        <ele>2023.205</ele>
        <time>2021-07-19T12:53:53Z</time>
      </trkpt>
      <trkpt lat="42.64215" lon="1.69248">
        <ele>2021.749</ele>
        <time>2021-07-19T12:53:55Z</time>
      </trkpt>
      <trkpt lat="42.64215" lon="1.69246">
        <ele>2020.8</ele>
        <time>2021-07-19T12:53:57Z</time>
      </trkpt>
      <trkpt lat="42.64214" lon="1.69245">
        <ele>2020.604</ele>
        <time>2021-07-19T12:53:59Z</time>
      </trkpt>
      <trkpt lat="42.64213" lon="1.69244">
        <ele>2020.746</ele>
        <time>2021-07-19T12:54:01Z</time>
      </trkpt>
      <trkpt lat="42.64212" lon="1.69242">
        <ele>2020.016</ele>
        <time>2021-07-19T12:54:03Z</time>
      </trkpt>
      <trkpt lat="42.64211" lon="1.6924">
        <ele>2019.433</ele>
        <time>2021-07-19T12:54:05Z</time>
      </trkpt>
      <trkpt lat="42.6421" lon="1.69239">
        <ele>2019.118</ele>
        <time>2021-07-19T12:54:07Z</time>
      </trkpt>
      <trkpt lat="42.64209" lon="1.69237">
        <ele>2018.059</ele>
        <time>2021-07-19T12:54:09Z</time>
      </trkpt>
      <trkpt lat="42.64208" lon="1.69236">
        <ele>2018.513</ele>
        <time>2021-07-19T12:54:11Z</time>
      </trkpt>
      <trkpt lat="42.64206" lon="1.69234">
        <ele>2018.302</ele>
        <time>2021-07-19T12:54:13Z</time>
      </trkpt>
      <trkpt lat="42.64204" lon="1.69232">
        <ele>2017.365</ele>
        <time>2021-07-19T12:54:15Z</time>
      </trkpt>
      <trkpt lat="42.64203" lon="1.69231">
        <ele>2017.741</ele>
        <time>2021-07-19T12:54:17Z</time>
      </trkpt>
      <trkpt lat="42.64201" lon="1.6923">
        <ele>2018.095</ele>
        <time>2021-07-19T12:54:19Z</time>
      </trkpt>
      <trkpt lat="42.642" lon="1.6923">
        <ele>2017.969</ele>
        <time>2021-07-19T12:54:21Z</time>
      </trkpt>
      <trkpt lat="42.64199" lon="1.69229">
        <ele>2017.035</ele>
        <time>2021-07-19T12:54:23Z</time>
      </trkpt>
      <trkpt lat="42.64198" lon="1.69228">
        <ele>2016.818</ele>
        <time>2021-07-19T12:54:25Z</time>
      </trkpt>
      <trkpt lat="42.64197" lon="1.69227">
        <ele>2015.55</ele>
        <time>2021-07-19T12:54:27Z</time>
      </trkpt>
      <trkpt lat="42.64196" lon="1.69225">
        <ele>2015.172</ele>
        <time>2021-07-19T12:54:29Z</time>
      </trkpt>
      <trkpt lat="42.64195" lon="1.69224">
        <ele>2014.348</ele>
        <time>2021-07-19T12:54:31Z</time>
      </trkpt>
      <trkpt lat="42.64194" lon="1.69222">
        <ele>2014.844</ele>
        <time>2021-07-19T12:54:33Z</time>
      </trkpt>
      <trkpt lat="42.64193" lon="1.69221">
        <ele>2015.49</ele>
        <time>2021-07-19T12:54:35Z</time>
      </trkpt>
      <trkpt lat="42.64192" lon="1.69219">
        <ele>2014.181</ele>
        <time>2021-07-19T12:54:37Z</time>
      </trkpt>
      <trkpt lat="42.64192" lon="1.69218">
        <ele>2013.853</ele>
        <time>2021-07-19T12:54:39Z</time>
      </trkpt>
      <trkpt lat="42.64191" lon="1.69217">
        <ele>2011.852</ele>
        <time>2021-07-19T12:54:41Z</time>
      </trkpt>
      <trkpt lat="42.6419" lon="1.69217">
        <ele>2011.467</ele>
        <time>2021-07-19T12:54:43Z</time>
      </trkpt>
      <trkpt lat="42.6419" lon="1.69217">
        <ele>2011.53</ele>
        <time>2021-07-19T12:54:45Z</time>
      </trkpt>
      <trkpt lat="42.64189" lon="1.69216">
        <ele>2011.175</ele>
        <time>2021-07-19T12:54:47Z</time>
      </trkpt>
      <trkpt lat="42.64188" lon="1.69215">
        <ele>2010.558</ele>
        <time>2021-07-19T12:54:49Z</time>
      </trkpt>
      <trkpt lat="42.64187" lon="1.69213">
        <ele>2010.393</ele>
        <time>2021-07-19T12:54:51Z</time>
      </trkpt>
      <trkpt lat="42.64186" lon="1.69212">
        <ele>2010.499</ele>
        <time>2021-07-19T12:54:53Z</time>
      </trkpt>
      <trkpt lat="42.64185" lon="1.6921">
        <ele>2009.901</ele>
        <time>2021-07-19T12:54:55Z</time>
      </trkpt>
      <trkpt lat="42.64184" lon="1.6921">
        <ele>2008.917</ele>
        <time>2021-07-19T12:54:57Z</time>
      </trkpt>
      <trkpt lat="42.64183" lon="1.69209">
        <ele>2008.921</ele>
        <time>2021-07-19T12:54:59Z</time>
      </trkpt>
      <trkpt lat="42.64182" lon="1.69208">
        <ele>2007.709</ele>
        <time>2021-07-19T12:55:01Z</time>
      </trkpt>
      <trkpt lat="42.64181" lon="1.69207">
        <ele>2006.966</ele>
        <time>2021-07-19T12:55:03Z</time>
      </trkpt>
      <trkpt lat="42.6418" lon="1.69206">
        <ele>2005.74</ele>
        <time>2021-07-19T12:55:05Z</time>
      </trkpt>
      <trkpt lat="42.64179" lon="1.69205">
        <ele>2004.15</ele>
        <time>2021-07-19T12:55:07Z</time>
      </trkpt>
      <trkpt lat="42.64178" lon="1.69204">
        <ele>2003.626</ele>
        <time>2021-07-19T12:55:09Z</time>
      </trkpt>
      <trkpt lat="42.64178" lon="1.69203">
        <ele>2003.875</ele>
        <time>2021-07-19T12:55:11Z</time>
      </trkpt>
      <trkpt lat="42.64176" lon="1.69202">
        <ele>2001.912</ele>
        <time>2021-07-19T12:55:13Z</time>
      </trkpt>
      <trkpt lat="42.64175" lon="1.69201">
        <ele>2000.716</ele>
        <time>2021-07-19T12:55:15Z</time>
      </trkpt>
      <trkpt lat="42.64174" lon="1.69199">
        <ele>2000.761</ele>
        <time>2021-07-19T12:55:17Z</time>
      </trkpt>
      <trkpt lat="42.64172" lon="1.69197">
        <ele>2000.529</ele>
        <time>2021-07-19T12:55:19Z</time>
      </trkpt>
      <trkpt lat="42.64171" lon="1.69195">
        <ele>2000.468</ele>
        <time>2021-07-19T12:55:21Z</time>
      </trkpt>
      <trkpt lat="42.6417" lon="1.69193">
        <ele>2000.283</ele>
        <time>2021-07-19T12:55:23Z</time>
      </trkpt>
      <trkpt lat="42.64168" lon="1.69191">
        <ele>1999.764</ele>
        <time>2021-07-19T12:55:25Z</time>
      </trkpt>
      <trkpt lat="42.64167" lon="1.69189">
        <ele>1999.9</ele>
        <time>2021-07-19T12:55:27Z</time>
      </trkpt>
      <trkpt lat="42.64165" lon="1.69188">
        <ele>2000.27</ele>
        <time>2021-07-19T12:55:29Z</time>
      </trkpt>
      <trkpt lat="42.64164" lon="1.69186">
        <ele>2001.623</ele>
        <time>2021-07-19T12:55:31Z</time>
      </trkpt>
      <trkpt lat="42.64163" lon="1.69183">
        <ele>2001.544</ele>
        <time>2021-07-19T12:55:33Z</time>
      </trkpt>
      <trkpt lat="42.64162" lon="1.69182">
        <ele>2001.139</ele>
        <time>2021-07-19T12:55:35Z</time>
      </trkpt>
      <trkpt lat="42.6416" lon="1.6918">
        <ele>2002.031</ele>
        <time>2021-07-19T12:55:37Z</time>
      </trkpt>
      <trkpt lat="42.64159" lon="1.69179">
        <ele>2001.507</ele>
        <time>2021-07-19T12:55:39Z</time>
      </trkpt>
      <trkpt lat="42.64157" lon="1.69178">
        <ele>2000.303</ele>
        <time>2021-07-19T12:55:41Z</time>
      </trkpt>
      <trkpt lat="42.64156" lon="1.69177">
        <ele>2000.16</ele>
        <time>2021-07-19T12:55:43Z</time>
      </trkpt>
      <trkpt lat="42.64155" lon="1.69175">
        <ele>1999.724</ele>
        <time>2021-07-19T12:55:45Z</time>
      </trkpt>
      <trkpt lat="42.64153" lon="1.69174">
        <ele>1999.333</ele>
        <time>2021-07-19T12:55:47Z</time>
      </trkpt>
      <trkpt lat="42.64151" lon="1.69172">
        <ele>1999.215</ele>
        <time>2021-07-19T12:55:49Z</time>
      </trkpt>
      <trkpt lat="42.6415" lon="1.6917">
        <ele>1999.272</ele>
        <time>2021-07-19T12:55:51Z</time>
      </trkpt>
      <trkpt lat="42.64148" lon="1.6917">
        <ele>1998.713</ele>
        <time>2021-07-19T12:55:53Z</time>
      </trkpt>
      <trkpt lat="42.64147" lon="1.6917">
        <ele>1998.229</ele>
        <time>2021-07-19T12:55:55Z</time>
      </trkpt>
      <trkpt lat="42.64145" lon="1.69169">
        <ele>1997.958</ele>
        <time>2021-07-19T12:55:57Z</time>
      </trkpt>
      <trkpt lat="42.64144" lon="1.69168">
        <ele>1998.44</ele>
        <time>2021-07-19T12:55:59Z</time>
      </trkpt>
      <trkpt lat="42.64143" lon="1.69167">
        <ele>1997.27</ele>
        <time>2021-07-19T12:56:01Z</time>
      </trkpt>
      <trkpt lat="42.64141" lon="1.69166">
        <ele>1996.046</ele>
        <time>2021-07-19T12:56:03Z</time>
      </trkpt>
      <trkpt lat="42.6414" lon="1.69165">
        <ele>1996.283</ele>
        <time>2021-07-19T12:56:05Z</time>
      </trkpt>
      <trkpt lat="42.64138" lon="1.69165">
        <ele>1996.52</ele>
        <time>2021-07-19T12:56:07Z</time>
      </trkpt>
      <trkpt lat="42.64137" lon="1.69164">
        <ele>1996.33</ele>
        <time>2021-07-19T12:56:09Z</time>
      </trkpt>
      <trkpt lat="42.64136" lon="1.69163">
        <ele>1995.817</ele>
        <time>2021-07-19T12:56:11Z</time>
      </trkpt>
      <trkpt lat="42.64134" lon="1.69162">
        <ele>1995.718</ele>
        <time>2021-07-19T12:56:13Z</time>
      </trkpt>
      <trkpt lat="42.64133" lon="1.6916">
        <ele>1996.897</ele>
        <time>2021-07-19T12:56:15Z</time>
      </trkpt>
      <trkpt lat="42.64132" lon="1.69158">
        <ele>1997.334</ele>
        <time>2021-07-19T12:56:17Z</time>
      </trkpt>
      <trkpt lat="42.64131" lon="1.69156">
        <ele>1995.776</ele>
        <time>2021-07-19T12:56:19Z</time>
      </trkpt>
      <trkpt lat="42.6413" lon="1.69155">
        <ele>1996.653</ele>
        <time>2021-07-19T12:56:21Z</time>
      </trkpt>
      <trkpt lat="42.64129" lon="1.69156">
        <ele>1997.48</ele>
        <time>2021-07-19T12:56:23Z</time>
      </trkpt>
      <trkpt lat="42.64129" lon="1.69156">
        <ele>1997.419</ele>
        <time>2021-07-19T12:56:25Z</time>
      </trkpt>
      <trkpt lat="42.64129" lon="1.69157">
        <ele>1997.434</ele>
        <time>2021-07-19T12:56:27Z</time>
      </trkpt>
      <trkpt lat="42.64129" lon="1.69157">
        <ele>1997.435</ele>
        <time>2021-07-19T12:56:29Z</time>
      </trkpt>
      <trkpt lat="42.64129" lon="1.69157">
        <ele>1997.429</ele>
        <time>2021-07-19T12:56:31Z</time>
      </trkpt>
      <trkpt lat="42.64128" lon="1.69156">
        <ele>1996.998</ele>
        <time>2021-07-19T12:56:33Z</time>
      </trkpt>
      <trkpt lat="42.64127" lon="1.69155">
        <ele>1997.125</ele>
        <time>2021-07-19T12:56:35Z</time>
      </trkpt>
      <trkpt lat="42.64126" lon="1.69154">
        <ele>1996.869</ele>
        <time>2021-07-19T12:56:37Z</time>
      </trkpt>
      <trkpt lat="42.64125" lon="1.69153">
        <ele>1996.179</ele>
        <time>2021-07-19T12:56:39Z</time>
      </trkpt>
      <trkpt lat="42.64124" lon="1.69152">
        <ele>1994.746</ele>
        <time>2021-07-19T12:56:41Z</time>
      </trkpt>
      <trkpt lat="42.64123" lon="1.69152">
        <ele>1994.86</ele>
        <time>2021-07-19T12:56:43Z</time>
      </trkpt>
      <trkpt lat="42.64123" lon="1.69151">
        <ele>1994.157</ele>
        <time>2021-07-19T12:56:45Z</time>
      </trkpt>
      <trkpt lat="42.64122" lon="1.69151">
        <ele>1993.337</ele>
        <time>2021-07-19T12:56:47Z</time>
      </trkpt>
      <trkpt lat="42.64121" lon="1.69151">
        <ele>1991.676</ele>
        <time>2021-07-19T12:56:49Z</time>
      </trkpt>
      <trkpt lat="42.6412" lon="1.69149">
        <ele>1990.976</ele>
        <time>2021-07-19T12:56:51Z</time>
      </trkpt>
      <trkpt lat="42.6412" lon="1.69148">
        <ele>1990.392</ele>
        <time>2021-07-19T12:56:53Z</time>
      </trkpt>
      <trkpt lat="42.64118" lon="1.69148">
        <ele>1990.653</ele>
        <time>2021-07-19T12:56:55Z</time>
      </trkpt>
      <trkpt lat="42.64118" lon="1.69148">
        <ele>1990.66</ele>
        <time>2021-07-19T12:56:57Z</time>
      </trkpt>
      <trkpt lat="42.64117" lon="1.69147">
        <ele>1988.926</ele>
        <time>2021-07-19T12:56:59Z</time>
      </trkpt>
      <trkpt lat="42.64116" lon="1.69146">
        <ele>1988.016</ele>
        <time>2021-07-19T12:57:01Z</time>
      </trkpt>
      <trkpt lat="42.64115" lon="1.69146">
        <ele>1987.796</ele>
        <time>2021-07-19T12:57:03Z</time>
      </trkpt>
      <trkpt lat="42.64114" lon="1.69145">
        <ele>1987.311</ele>
        <time>2021-07-19T12:57:05Z</time>
      </trkpt>
      <trkpt lat="42.64113" lon="1.69144">
        <ele>1987.662</ele>
        <time>2021-07-19T12:57:07Z</time>
      </trkpt>
      <trkpt lat="42.64112" lon="1.69144">
        <ele>1987.276</ele>
        <time>2021-07-19T12:57:09Z</time>
      </trkpt>
      <trkpt lat="42.64111" lon="1.69144">
        <ele>1987.567</ele>
        <time>2021-07-19T12:57:11Z</time>
      </trkpt>
      <trkpt lat="42.64109" lon="1.69145">
        <ele>1987.365</ele>
        <time>2021-07-19T12:57:13Z</time>
      </trkpt>
      <trkpt lat="42.64108" lon="1.69144">
        <ele>1986.519</ele>
        <time>2021-07-19T12:57:15Z</time>
      </trkpt>
      <trkpt lat="42.64106" lon="1.69143">
        <ele>1985.733</ele>
        <time>2021-07-19T12:57:17Z</time>
      </trkpt>
      <trkpt lat="42.64105" lon="1.69141">
        <ele>1985.534</ele>
        <time>2021-07-19T12:57:19Z</time>
      </trkpt>
      <trkpt lat="42.64103" lon="1.6914">
        <ele>1985.168</ele>
        <time>2021-07-19T12:57:21Z</time>
      </trkpt>
      <trkpt lat="42.64102" lon="1.69139">
        <ele>1983.939</ele>
        <time>2021-07-19T12:57:23Z</time>
      </trkpt>
      <trkpt lat="42.64101" lon="1.69138">
        <ele>1983.185</ele>
        <time>2021-07-19T12:57:25Z</time>
      </trkpt>
      <trkpt lat="42.641" lon="1.69137">
        <ele>1983.503</ele>
        <time>2021-07-19T12:57:27Z</time>
      </trkpt>
      <trkpt lat="42.64099" lon="1.69137">
        <ele>1983.196</ele>
        <time>2021-07-19T12:57:29Z</time>
      </trkpt>
      <trkpt lat="42.64097" lon="1.69136">
        <ele>1983.187</ele>
        <time>2021-07-19T12:57:31Z</time>
      </trkpt>
      <trkpt lat="42.64096" lon="1.69135">
        <ele>1983.875</ele>
        <time>2021-07-19T12:57:33Z</time>
      </trkpt>
      <trkpt lat="42.64095" lon="1.69134">
        <ele>1982.271</ele>
        <time>2021-07-19T12:57:35Z</time>
      </trkpt>
      <trkpt lat="42.64095" lon="1.69133">
        <ele>1981.299</ele>
        <time>2021-07-19T12:57:37Z</time>
      </trkpt>
      <trkpt lat="42.64094" lon="1.69132">
        <ele>1980.746</ele>
        <time>2021-07-19T12:57:39Z</time>
      </trkpt>
      <trkpt lat="42.64092" lon="1.69131">
        <ele>1980.083</ele>
        <time>2021-07-19T12:57:41Z</time>
      </trkpt>
      <trkpt lat="42.64091" lon="1.6913">
        <ele>1979.481</ele>
        <time>2021-07-19T12:57:43Z</time>
      </trkpt>
      <trkpt lat="42.6409" lon="1.6913">
        <ele>1978.808</ele>
        <time>2021-07-19T12:57:45Z</time>
      </trkpt>
      <trkpt lat="42.64089" lon="1.69129">
        <ele>1979.628</ele>
        <time>2021-07-19T12:57:47Z</time>
      </trkpt>
      <trkpt lat="42.64088" lon="1.69129">
        <ele>1978.498</ele>
        <time>2021-07-19T12:57:49Z</time>
      </trkpt>
      <trkpt lat="42.64086" lon="1.69128">
        <ele>1977.655</ele>
        <time>2021-07-19T12:57:51Z</time>
      </trkpt>
      <trkpt lat="42.64085" lon="1.69128">
        <ele>1977.517</ele>
        <time>2021-07-19T12:57:53Z</time>
      </trkpt>
      <trkpt lat="42.64084" lon="1.69127">
        <ele>1977.088</ele>
        <time>2021-07-19T12:57:55Z</time>
      </trkpt>
      <trkpt lat="42.64083" lon="1.69127">
        <ele>1977.064</ele>
        <time>2021-07-19T12:57:57Z</time>
      </trkpt>
      <trkpt lat="42.64083" lon="1.69128">
        <ele>1976.844</ele>
        <time>2021-07-19T12:57:59Z</time>
      </trkpt>
      <trkpt lat="42.64082" lon="1.69128">
        <ele>1976.263</ele>
        <time>2021-07-19T12:58:01Z</time>
      </trkpt>
      <trkpt lat="42.64081" lon="1.69129">
        <ele>1975.834</ele>
        <time>2021-07-19T12:58:03Z</time>
      </trkpt>
      <trkpt lat="42.64079" lon="1.69128">
        <ele>1975.418</ele>
        <time>2021-07-19T12:58:05Z</time>
      </trkpt>
      <trkpt lat="42.64078" lon="1.69128">
        <ele>1974.127</ele>
        <time>2021-07-19T12:58:07Z</time>
      </trkpt>
      <trkpt lat="42.64077" lon="1.69128">
        <ele>1973.574</ele>
        <time>2021-07-19T12:58:09Z</time>
      </trkpt>
      <trkpt lat="42.64075" lon="1.69127">
        <ele>1973.051</ele>
        <time>2021-07-19T12:58:11Z</time>
      </trkpt>
      <trkpt lat="42.64074" lon="1.69126">
        <ele>1971.167</ele>
        <time>2021-07-19T12:58:13Z</time>
      </trkpt>
      <trkpt lat="42.64073" lon="1.69124">
        <ele>1971.517</ele>
        <time>2021-07-19T12:58:15Z</time>
      </trkpt>
      <trkpt lat="42.64071" lon="1.69122">
        <ele>1970.506</ele>
        <time>2021-07-19T12:58:17Z</time>
      </trkpt>
      <trkpt lat="42.6407" lon="1.69121">
        <ele>1969.577</ele>
        <time>2021-07-19T12:58:19Z</time>
      </trkpt>
      <trkpt lat="42.64067" lon="1.6912">
        <ele>1968.454</ele>
        <time>2021-07-19T12:58:21Z</time>
      </trkpt>
      <trkpt lat="42.64066" lon="1.69119">
        <ele>1967.854</ele>
        <time>2021-07-19T12:58:23Z</time>
      </trkpt>
      <trkpt lat="42.64064" lon="1.69117">
        <ele>1967.82</ele>
        <time>2021-07-19T12:58:25Z</time>
      </trkpt>
      <trkpt lat="42.64063" lon="1.69116">
        <ele>1968.05</ele>
        <time>2021-07-19T12:58:27Z</time>
      </trkpt>
      <trkpt lat="42.64061" lon="1.69115">
        <ele>1967.347</ele>
        <time>2021-07-19T12:58:29Z</time>
      </trkpt>
      <trkpt lat="42.6406" lon="1.69115">
        <ele>1966.536</ele>
        <time>2021-07-19T12:58:31Z</time>
      </trkpt>
      <trkpt lat="42.6406" lon="1.69114">
        <ele>1966.563</ele>
        <time>2021-07-19T12:58:33Z</time>
      </trkpt>
      <trkpt lat="42.6406" lon="1.69114">
        <ele>1966.583</ele>
        <time>2021-07-19T12:58:35Z</time>
      </trkpt>
      <trkpt lat="42.6406" lon="1.69114">
        <ele>1966.581</ele>
        <time>2021-07-19T12:58:37Z</time>
      </trkpt>
      <trkpt lat="42.6406" lon="1.69114">
        <ele>1966.575</ele>
        <time>2021-07-19T12:58:39Z</time>
      </trkpt>
      <trkpt lat="42.6406" lon="1.69114">
        <ele>1966.575</ele>
        <time>2021-07-19T12:58:41Z</time>
      </trkpt>
      <trkpt lat="42.6406" lon="1.69114">
        <ele>1966.57</ele>
        <time>2021-07-19T12:58:43Z</time>
      </trkpt>
      <trkpt lat="42.6406" lon="1.69114">
        <ele>1966.55</ele>
        <time>2021-07-19T12:58:45Z</time>
      </trkpt>
      <trkpt lat="42.6406" lon="1.69114">
        <ele>1966.556</ele>
        <time>2021-07-19T12:58:47Z</time>
      </trkpt>
      <trkpt lat="42.6406" lon="1.69114">
        <ele>1966.376</ele>
        <time>2021-07-19T12:58:49Z</time>
      </trkpt>
      <trkpt lat="42.6406" lon="1.69115">
        <ele>1966.34</ele>
        <time>2021-07-19T12:58:51Z</time>
      </trkpt>
      <trkpt lat="42.6406" lon="1.69115">
        <ele>1966.314</ele>
        <time>2021-07-19T12:58:53Z</time>
      </trkpt>
      <trkpt lat="42.6406" lon="1.69115">
        <ele>1966.308</ele>
        <time>2021-07-19T12:58:55Z</time>
      </trkpt>
      <trkpt lat="42.6406" lon="1.69115">
        <ele>1966.297</ele>
        <time>2021-07-19T12:58:57Z</time>
      </trkpt>
      <trkpt lat="42.6406" lon="1.69115">
        <ele>1966.283</ele>
        <time>2021-07-19T12:58:59Z</time>
      </trkpt>
      <trkpt lat="42.6406" lon="1.69115">
        <ele>1966.281</ele>
        <time>2021-07-19T12:59:01Z</time>
      </trkpt>
      <trkpt lat="42.6406" lon="1.69115">
        <ele>1966.286</ele>
        <time>2021-07-19T12:59:03Z</time>
      </trkpt>
      <trkpt lat="42.6406" lon="1.69115">
        <ele>1966.195</ele>
        <time>2021-07-19T12:59:05Z</time>
      </trkpt>
      <trkpt lat="42.6406" lon="1.69115">
        <ele>1966.191</ele>
        <time>2021-07-19T12:59:07Z</time>
      </trkpt>
      <trkpt lat="42.6406" lon="1.69115">
        <ele>1966.173</ele>
        <time>2021-07-19T12:59:09Z</time>
      </trkpt>
      <trkpt lat="42.6406" lon="1.69115">
        <ele>1966.17</ele>
        <time>2021-07-19T12:59:11Z</time>
      </trkpt>
      <trkpt lat="42.6406" lon="1.69115">
        <ele>1966.165</ele>
        <time>2021-07-19T12:59:13Z</time>
      </trkpt>
      <trkpt lat="42.6406" lon="1.69115">
        <ele>1966.155</ele>
        <time>2021-07-19T12:59:15Z</time>
      </trkpt>
      <trkpt lat="42.6406" lon="1.69115">
        <ele>1966.147</ele>
        <time>2021-07-19T12:59:17Z</time>
      </trkpt>
      <trkpt lat="42.6406" lon="1.69115">
        <ele>1966.345</ele>
        <time>2021-07-19T12:59:19Z</time>
      </trkpt>
      <trkpt lat="42.6406" lon="1.69115">
        <ele>1966.096</ele>
        <time>2021-07-19T12:59:21Z</time>
      </trkpt>
      <trkpt lat="42.6406" lon="1.69115">
        <ele>1966.104</ele>
        <time>2021-07-19T12:59:23Z</time>
      </trkpt>
      <trkpt lat="42.6406" lon="1.69114">
        <ele>1965.973</ele>
        <time>2021-07-19T12:59:25Z</time>
      </trkpt>
      <trkpt lat="42.6406" lon="1.69114">
        <ele>1965.954</ele>
        <time>2021-07-19T12:59:27Z</time>
      </trkpt>
      <trkpt lat="42.64061" lon="1.69115">
        <ele>1966.618</ele>
        <time>2021-07-19T12:59:29Z</time>
      </trkpt>
      <trkpt lat="42.64061" lon="1.69115">
        <ele>1966.617</ele>
        <time>2021-07-19T12:59:31Z</time>
      </trkpt>
      <trkpt lat="42.64061" lon="1.69115">
        <ele>1966.61</ele>
        <time>2021-07-19T12:59:33Z</time>
      </trkpt>
      <trkpt lat="42.6406" lon="1.69115">
        <ele>1966.093</ele>
        <time>2021-07-19T12:59:35Z</time>
      </trkpt>
      <trkpt lat="42.64059" lon="1.69115">
        <ele>1966.256</ele>
        <time>2021-07-19T12:59:37Z</time>
      </trkpt>
      <trkpt lat="42.64058" lon="1.69116">
        <ele>1965.967</ele>
        <time>2021-07-19T12:59:39Z</time>
      </trkpt>
      <trkpt lat="42.64057" lon="1.69116">
        <ele>1965.644</ele>
        <time>2021-07-19T12:59:41Z</time>
      </trkpt>
      <trkpt lat="42.64056" lon="1.69116">
        <ele>1965.011</ele>
        <time>2021-07-19T12:59:43Z</time>
      </trkpt>
      <trkpt lat="42.64055" lon="1.69116">
        <ele>1964.699</ele>
        <time>2021-07-19T12:59:45Z</time>
      </trkpt>
      <trkpt lat="42.64053" lon="1.69116">
        <ele>1963.887</ele>
        <time>2021-07-19T12:59:47Z</time>
      </trkpt>
      <trkpt lat="42.64052" lon="1.69115">
        <ele>1963.679</ele>
        <time>2021-07-19T12:59:49Z</time>
      </trkpt>
      <trkpt lat="42.64051" lon="1.69114">
        <ele>1962.673</ele>
        <time>2021-07-19T12:59:51Z</time>
      </trkpt>
      <trkpt lat="42.64049" lon="1.69114">
        <ele>1962.531</ele>
        <time>2021-07-19T12:59:53Z</time>
      </trkpt>
      <trkpt lat="42.64048" lon="1.69113">
        <ele>1962.142</ele>
        <time>2021-07-19T12:59:55Z</time>
      </trkpt>
      <trkpt lat="42.64046" lon="1.69111">
        <ele>1961.81</ele>
        <time>2021-07-19T12:59:57Z</time>
      </trkpt>
      <trkpt lat="42.64044" lon="1.6911">
        <ele>1961.933</ele>
        <time>2021-07-19T12:59:59Z</time>
      </trkpt>
      <trkpt lat="42.64043" lon="1.69109">
        <ele>1960.963</ele>
        <time>2021-07-19T13:00:01Z</time>
      </trkpt>
      <trkpt lat="42.64042" lon="1.69107">
        <ele>1960.23</ele>
        <time>2021-07-19T13:00:03Z</time>
      </trkpt>
      <trkpt lat="42.64041" lon="1.69106">
        <ele>1960.007</ele>
        <time>2021-07-19T13:00:05Z</time>
      </trkpt>
      <trkpt lat="42.6404" lon="1.69106">
        <ele>1959.884</ele>
        <time>2021-07-19T13:00:07Z</time>
      </trkpt>
      <trkpt lat="42.64039" lon="1.69104">
        <ele>1959.968</ele>
        <time>2021-07-19T13:00:09Z</time>
      </trkpt>
      <trkpt lat="42.64038" lon="1.69103">
        <ele>1959.415</ele>
        <time>2021-07-19T13:00:11Z</time>
      </trkpt>
      <trkpt lat="42.64037" lon="1.69101">
        <ele>1959.318</ele>
        <time>2021-07-19T13:00:13Z</time>
      </trkpt>
      <trkpt lat="42.64036" lon="1.69099">
        <ele>1959.812</ele>
        <time>2021-07-19T13:00:15Z</time>
      </trkpt>
      <trkpt lat="42.64035" lon="1.69097">
        <ele>1959.362</ele>
        <time>2021-07-19T13:00:17Z</time>
      </trkpt>
      <trkpt lat="42.64034" lon="1.69096">
        <ele>1958.433</ele>
        <time>2021-07-19T13:00:19Z</time>
      </trkpt>
      <trkpt lat="42.64033" lon="1.69094">
        <ele>1957.877</ele>
        <time>2021-07-19T13:00:21Z</time>
      </trkpt>
      <trkpt lat="42.64032" lon="1.69092">
        <ele>1957.671</ele>
        <time>2021-07-19T13:00:23Z</time>
      </trkpt>
      <trkpt lat="42.64031" lon="1.69091">
        <ele>1957.15</ele>
        <time>2021-07-19T13:00:25Z</time>
      </trkpt>
      <trkpt lat="42.64029" lon="1.69089">
        <ele>1955.438</ele>
        <time>2021-07-19T13:00:27Z</time>
      </trkpt>
      <trkpt lat="42.64028" lon="1.69089">
        <ele>1953.722</ele>
        <time>2021-07-19T13:00:29Z</time>
      </trkpt>
      <trkpt lat="42.64026" lon="1.69088">
        <ele>1953.17</ele>
        <time>2021-07-19T13:00:31Z</time>
      </trkpt>
      <trkpt lat="42.64025" lon="1.69087">
        <ele>1951.269</ele>
        <time>2021-07-19T13:00:33Z</time>
      </trkpt>
      <trkpt lat="42.64023" lon="1.69085">
        <ele>1951.162</ele>
        <time>2021-07-19T13:00:35Z</time>
      </trkpt>
      <trkpt lat="42.64022" lon="1.69084">
        <ele>1949.641</ele>
        <time>2021-07-19T13:00:37Z</time>
      </trkpt>
      <trkpt lat="42.6402" lon="1.69083">
        <ele>1949.231</ele>
        <time>2021-07-19T13:00:39Z</time>
      </trkpt>
      <trkpt lat="42.64019" lon="1.69081">
        <ele>1948.658</ele>
        <time>2021-07-19T13:00:41Z</time>
      </trkpt>
      <trkpt lat="42.64018" lon="1.69079">
        <ele>1948.423</ele>
        <time>2021-07-19T13:00:43Z</time>
      </trkpt>
      <trkpt lat="42.64017" lon="1.69077">
        <ele>1948.695</ele>
        <time>2021-07-19T13:00:45Z</time>
      </trkpt>
      <trkpt lat="42.64016" lon="1.69076">
        <ele>1949.349</ele>
        <time>2021-07-19T13:00:47Z</time>
      </trkpt>
      <trkpt lat="42.64015" lon="1.69074">
        <ele>1947.359</ele>
        <time>2021-07-19T13:00:49Z</time>
      </trkpt>
      <trkpt lat="42.64013" lon="1.69073">
        <ele>1947.19</ele>
        <time>2021-07-19T13:00:51Z</time>
      </trkpt>
      <trkpt lat="42.64012" lon="1.69072">
        <ele>1946.351</ele>
        <time>2021-07-19T13:00:53Z</time>
      </trkpt>
      <trkpt lat="42.64011" lon="1.6907">
        <ele>1946.214</ele>
        <time>2021-07-19T13:00:55Z</time>
      </trkpt>
      <trkpt lat="42.6401" lon="1.69069">
        <ele>1945.957</ele>
        <time>2021-07-19T13:00:57Z</time>
      </trkpt>
      <trkpt lat="42.64008" lon="1.69069">
        <ele>1945.412</ele>
        <time>2021-07-19T13:00:59Z</time>
      </trkpt>
      <trkpt lat="42.64007" lon="1.69069">
        <ele>1946.026</ele>
        <time>2021-07-19T13:01:01Z</time>
      </trkpt>
      <trkpt lat="42.64006" lon="1.69068">
        <ele>1945.575</ele>
        <time>2021-07-19T13:01:03Z</time>
      </trkpt>
      <trkpt lat="42.64005" lon="1.69067">
        <ele>1944.209</ele>
        <time>2021-07-19T13:01:05Z</time>
      </trkpt>
      <trkpt lat="42.64003" lon="1.69067">
        <ele>1943.463</ele>
        <time>2021-07-19T13:01:07Z</time>
      </trkpt>
      <trkpt lat="42.64002" lon="1.69067">
        <ele>1943.409</ele>
        <time>2021-07-19T13:01:09Z</time>
      </trkpt>
      <trkpt lat="42.64001" lon="1.69066">
        <ele>1942.474</ele>
        <time>2021-07-19T13:01:11Z</time>
      </trkpt>
      <trkpt lat="42.64" lon="1.69065">
        <ele>1942.87</ele>
        <time>2021-07-19T13:01:13Z</time>
      </trkpt>
      <trkpt lat="42.63999" lon="1.69064">
        <ele>1943.056</ele>
        <time>2021-07-19T13:01:15Z</time>
      </trkpt>
      <trkpt lat="42.63998" lon="1.69063">
        <ele>1942.541</ele>
        <time>2021-07-19T13:01:17Z</time>
      </trkpt>
      <trkpt lat="42.63997" lon="1.69062">
        <ele>1941.791</ele>
        <time>2021-07-19T13:01:19Z</time>
      </trkpt>
      <trkpt lat="42.63995" lon="1.69062">
        <ele>1941.471</ele>
        <time>2021-07-19T13:01:21Z</time>
      </trkpt>
      <trkpt lat="42.63994" lon="1.69061">
        <ele>1940.788</ele>
        <time>2021-07-19T13:01:23Z</time>
      </trkpt>
      <trkpt lat="42.63992" lon="1.69061">
        <ele>1941.435</ele>
        <time>2021-07-19T13:01:25Z</time>
      </trkpt>
      <trkpt lat="42.63991" lon="1.6906">
        <ele>1941.248</ele>
        <time>2021-07-19T13:01:27Z</time>
      </trkpt>
      <trkpt lat="42.63989" lon="1.69059">
        <ele>1940.85</ele>
        <time>2021-07-19T13:01:29Z</time>
      </trkpt>
      <trkpt lat="42.63988" lon="1.69059">
        <ele>1940.069</ele>
        <time>2021-07-19T13:01:31Z</time>
      </trkpt>
      <trkpt lat="42.63986" lon="1.69058">
        <ele>1939.807</ele>
        <time>2021-07-19T13:01:33Z</time>
      </trkpt>
      <trkpt lat="42.63985" lon="1.69056">
        <ele>1938.672</ele>
        <time>2021-07-19T13:01:35Z</time>
      </trkpt>
      <trkpt lat="42.63984" lon="1.69054">
        <ele>1937.814</ele>
        <time>2021-07-19T13:01:37Z</time>
      </trkpt>
      <trkpt lat="42.63983" lon="1.69052">
        <ele>1937.609</ele>
        <time>2021-07-19T13:01:39Z</time>
      </trkpt>
      <trkpt lat="42.63982" lon="1.6905">
        <ele>1937.455</ele>
        <time>2021-07-19T13:01:41Z</time>
      </trkpt>
      <trkpt lat="42.63981" lon="1.69048">
        <ele>1937.186</ele>
        <time>2021-07-19T13:01:43Z</time>
      </trkpt>
      <trkpt lat="42.6398" lon="1.69047">
        <ele>1936.134</ele>
        <time>2021-07-19T13:01:45Z</time>
      </trkpt>
      <trkpt lat="42.63978" lon="1.69046">
        <ele>1935.62</ele>
        <time>2021-07-19T13:01:47Z</time>
      </trkpt>
      <trkpt lat="42.63977" lon="1.69046">
        <ele>1935.867</ele>
        <time>2021-07-19T13:01:49Z</time>
      </trkpt>
      <trkpt lat="42.63976" lon="1.69045">
        <ele>1936.299</ele>
        <time>2021-07-19T13:01:51Z</time>
      </trkpt>
      <trkpt lat="42.63975" lon="1.69044">
        <ele>1936.845</ele>
        <time>2021-07-19T13:01:53Z</time>
      </trkpt>
      <trkpt lat="42.63973" lon="1.69043">
        <ele>1938.383</ele>
        <time>2021-07-19T13:01:55Z</time>
      </trkpt>
      <trkpt lat="42.63972" lon="1.69043">
        <ele>1937.638</ele>
        <time>2021-07-19T13:01:57Z</time>
      </trkpt>
      <trkpt lat="42.6397" lon="1.69042">
        <ele>1937.347</ele>
        <time>2021-07-19T13:01:59Z</time>
      </trkpt>
      <trkpt lat="42.63969" lon="1.6904">
        <ele>1937.287</ele>
        <time>2021-07-19T13:02:01Z</time>
      </trkpt>
      <trkpt lat="42.63967" lon="1.69039">
        <ele>1937.095</ele>
        <time>2021-07-19T13:02:03Z</time>
      </trkpt>
      <trkpt lat="42.63966" lon="1.69038">
        <ele>1936.771</ele>
        <time>2021-07-19T13:02:05Z</time>
      </trkpt>
      <trkpt lat="42.63965" lon="1.69037">
        <ele>1935.535</ele>
        <time>2021-07-19T13:02:07Z</time>
      </trkpt>
      <trkpt lat="42.63963" lon="1.69036">
        <ele>1935.338</ele>
        <time>2021-07-19T13:02:09Z</time>
      </trkpt>
      <trkpt lat="42.63962" lon="1.69034">
        <ele>1935.146</ele>
        <time>2021-07-19T13:02:11Z</time>
      </trkpt>
      <trkpt lat="42.63961" lon="1.69033">
        <ele>1934.833</ele>
        <time>2021-07-19T13:02:13Z</time>
      </trkpt>
      <trkpt lat="42.63959" lon="1.69032">
        <ele>1934.59</ele>
        <time>2021-07-19T13:02:15Z</time>
      </trkpt>
      <trkpt lat="42.63958" lon="1.69032">
        <ele>1933.912</ele>
        <time>2021-07-19T13:02:17Z</time>
      </trkpt>
      <trkpt lat="42.63956" lon="1.69031">
        <ele>1933.08</ele>
        <time>2021-07-19T13:02:19Z</time>
      </trkpt>
      <trkpt lat="42.63954" lon="1.69032">
        <ele>1932.755</ele>
        <time>2021-07-19T13:02:21Z</time>
      </trkpt>
      <trkpt lat="42.63953" lon="1.69031">
        <ele>1931.694</ele>
        <time>2021-07-19T13:02:23Z</time>
      </trkpt>
      <trkpt lat="42.63951" lon="1.69029">
        <ele>1931.577</ele>
        <time>2021-07-19T13:02:25Z</time>
      </trkpt>
      <trkpt lat="42.63949" lon="1.69028">
        <ele>1932.433</ele>
        <time>2021-07-19T13:02:27Z</time>
      </trkpt>
      <trkpt lat="42.63948" lon="1.69028">
        <ele>1931.983</ele>
        <time>2021-07-19T13:02:29Z</time>
      </trkpt>
      <trkpt lat="42.63947" lon="1.69027">
        <ele>1932.475</ele>
        <time>2021-07-19T13:02:31Z</time>
      </trkpt>
      <trkpt lat="42.63946" lon="1.69026">
        <ele>1932.814</ele>
        <time>2021-07-19T13:02:33Z</time>
      </trkpt>
      <trkpt lat="42.63945" lon="1.69025">
        <ele>1931.981</ele>
        <time>2021-07-19T13:02:35Z</time>
      </trkpt>
      <trkpt lat="42.63944" lon="1.69027">
        <ele>1931.609</ele>
        <time>2021-07-19T13:02:37Z</time>
      </trkpt>
      <trkpt lat="42.63942" lon="1.69027">
        <ele>1931.485</ele>
        <time>2021-07-19T13:02:39Z</time>
      </trkpt>
      <trkpt lat="42.63941" lon="1.69026">
        <ele>1931.847</ele>
        <time>2021-07-19T13:02:41Z</time>
      </trkpt>
      <trkpt lat="42.63941" lon="1.69025">
        <ele>1931.643</ele>
        <time>2021-07-19T13:02:43Z</time>
      </trkpt>
      <trkpt lat="42.63941" lon="1.69025">
        <ele>1931.647</ele>
        <time>2021-07-19T13:02:45Z</time>
      </trkpt>
      <trkpt lat="42.6394" lon="1.69025">
        <ele>1931.57</ele>
        <time>2021-07-19T13:02:47Z</time>
      </trkpt>
      <trkpt lat="42.63939" lon="1.69024">
        <ele>1930.392</ele>
        <time>2021-07-19T13:02:49Z</time>
      </trkpt>
      <trkpt lat="42.63938" lon="1.69023">
        <ele>1929.089</ele>
        <time>2021-07-19T13:02:51Z</time>
      </trkpt>
      <trkpt lat="42.63937" lon="1.69021">
        <ele>1928.67</ele>
        <time>2021-07-19T13:02:53Z</time>
      </trkpt>
      <trkpt lat="42.63935" lon="1.6902">
        <ele>1928.067</ele>
        <time>2021-07-19T13:02:55Z</time>
      </trkpt>
      <trkpt lat="42.63934" lon="1.69019">
        <ele>1927.206</ele>
        <time>2021-07-19T13:02:57Z</time>
      </trkpt>
      <trkpt lat="42.63933" lon="1.69018">
        <ele>1926.296</ele>
        <time>2021-07-19T13:02:59Z</time>
      </trkpt>
      <trkpt lat="42.63933" lon="1.69016">
        <ele>1925.946</ele>
        <time>2021-07-19T13:03:01Z</time>
      </trkpt>
      <trkpt lat="42.63932" lon="1.69014">
        <ele>1925.635</ele>
        <time>2021-07-19T13:03:03Z</time>
      </trkpt>
      <trkpt lat="42.6393" lon="1.69013">
        <ele>1925.793</ele>
        <time>2021-07-19T13:03:05Z</time>
      </trkpt>
      <trkpt lat="42.63929" lon="1.69011">
        <ele>1925.371</ele>
        <time>2021-07-19T13:03:07Z</time>
      </trkpt>
      <trkpt lat="42.63928" lon="1.6901">
        <ele>1925.148</ele>
        <time>2021-07-19T13:03:09Z</time>
      </trkpt>
      <trkpt lat="42.63926" lon="1.69009">
        <ele>1924.383</ele>
        <time>2021-07-19T13:03:11Z</time>
      </trkpt>
      <trkpt lat="42.63925" lon="1.69008">
        <ele>1924.489</ele>
        <time>2021-07-19T13:03:13Z</time>
      </trkpt>
      <trkpt lat="42.63924" lon="1.69007">
        <ele>1924.795</ele>
        <time>2021-07-19T13:03:15Z</time>
      </trkpt>
      <trkpt lat="42.63924" lon="1.69006">
        <ele>1924.094</ele>
        <time>2021-07-19T13:03:17Z</time>
      </trkpt>
      <trkpt lat="42.63923" lon="1.69005">
        <ele>1924.382</ele>
        <time>2021-07-19T13:03:19Z</time>
      </trkpt>
      <trkpt lat="42.63922" lon="1.69004">
        <ele>1924.159</ele>
        <time>2021-07-19T13:03:21Z</time>
      </trkpt>
      <trkpt lat="42.63922" lon="1.69003">
        <ele>1923.573</ele>
        <time>2021-07-19T13:03:23Z</time>
      </trkpt>
      <trkpt lat="42.63921" lon="1.69001">
        <ele>1924.751</ele>
        <time>2021-07-19T13:03:25Z</time>
      </trkpt>
      <trkpt lat="42.63921" lon="1.69">
        <ele>1925.145</ele>
        <time>2021-07-19T13:03:26Z</time>
      </trkpt>
      <trkpt lat="42.6392" lon="1.68998">
        <ele>1924.977</ele>
        <time>2021-07-19T13:03:29Z</time>
      </trkpt>
      <trkpt lat="42.63919" lon="1.68997">
        <ele>1924.95</ele>
        <time>2021-07-19T13:03:31Z</time>
      </trkpt>
      <trkpt lat="42.63918" lon="1.68995">
        <ele>1923.935</ele>
        <time>2021-07-19T13:03:33Z</time>
      </trkpt>
      <trkpt lat="42.63917" lon="1.68994">
        <ele>1921.872</ele>
        <time>2021-07-19T13:03:35Z</time>
      </trkpt>
      <trkpt lat="42.63916" lon="1.68993">
        <ele>1920.997</ele>
        <time>2021-07-19T13:03:37Z</time>
      </trkpt>
      <trkpt lat="42.63915" lon="1.68993">
        <ele>1921.454</ele>
        <time>2021-07-19T13:03:39Z</time>
      </trkpt>
      <trkpt lat="42.63915" lon="1.68993">
        <ele>1921.448</ele>
        <time>2021-07-19T13:03:41Z</time>
      </trkpt>
      <trkpt lat="42.63915" lon="1.68993">
        <ele>1921.41</ele>
        <time>2021-07-19T13:03:43Z</time>
      </trkpt>
      <trkpt lat="42.63915" lon="1.68992">
        <ele>1921.127</ele>
        <time>2021-07-19T13:03:45Z</time>
      </trkpt>
      <trkpt lat="42.63914" lon="1.68991">
        <ele>1919.966</ele>
        <time>2021-07-19T13:03:47Z</time>
      </trkpt>
      <trkpt lat="42.63913" lon="1.6899">
        <ele>1919.962</ele>
        <time>2021-07-19T13:03:49Z</time>
      </trkpt>
      <trkpt lat="42.63912" lon="1.68987">
        <ele>1919.353</ele>
        <time>2021-07-19T13:03:51Z</time>
      </trkpt>
      <trkpt lat="42.63911" lon="1.68986">
        <ele>1917.913</ele>
        <time>2021-07-19T13:03:53Z</time>
      </trkpt>
      <trkpt lat="42.6391" lon="1.68984">
        <ele>1917.507</ele>
        <time>2021-07-19T13:03:55Z</time>
      </trkpt>
      <trkpt lat="42.63909" lon="1.68983">
        <ele>1916.674</ele>
        <time>2021-07-19T13:03:57Z</time>
      </trkpt>
      <trkpt lat="42.63907" lon="1.68982">
        <ele>1915.916</ele>
        <time>2021-07-19T13:03:59Z</time>
      </trkpt>
      <trkpt lat="42.63906" lon="1.68981">
        <ele>1915.396</ele>
        <time>2021-07-19T13:04:01Z</time>
      </trkpt>
      <trkpt lat="42.63905" lon="1.68979">
        <ele>1914.467</ele>
        <time>2021-07-19T13:04:03Z</time>
      </trkpt>
      <trkpt lat="42.63904" lon="1.68978">
        <ele>1914.01</ele>
        <time>2021-07-19T13:04:05Z</time>
      </trkpt>
      <trkpt lat="42.63903" lon="1.68978">
        <ele>1913.336</ele>
        <time>2021-07-19T13:04:07Z</time>
      </trkpt>
      <trkpt lat="42.63902" lon="1.68979">
        <ele>1912.748</ele>
        <time>2021-07-19T13:04:09Z</time>
      </trkpt>
      <trkpt lat="42.63901" lon="1.68978">
        <ele>1912.091</ele>
        <time>2021-07-19T13:04:11Z</time>
      </trkpt>
      <trkpt lat="42.63899" lon="1.68976">
        <ele>1911.676</ele>
        <time>2021-07-19T13:04:13Z</time>
      </trkpt>
      <trkpt lat="42.63897" lon="1.68975">
        <ele>1911.21</ele>
        <time>2021-07-19T13:04:15Z</time>
      </trkpt>
      <trkpt lat="42.63895" lon="1.68975">
        <ele>1911.033</ele>
        <time>2021-07-19T13:04:17Z</time>
      </trkpt>
      <trkpt lat="42.63894" lon="1.68975">
        <ele>1910.23</ele>
        <time>2021-07-19T13:04:19Z</time>
      </trkpt>
      <trkpt lat="42.63893" lon="1.68973">
        <ele>1909.722</ele>
        <time>2021-07-19T13:04:21Z</time>
      </trkpt>
      <trkpt lat="42.63891" lon="1.68972">
        <ele>1909.81</ele>
        <time>2021-07-19T13:04:23Z</time>
      </trkpt>
      <trkpt lat="42.6389" lon="1.68972">
        <ele>1908.956</ele>
        <time>2021-07-19T13:04:25Z</time>
      </trkpt>
      <trkpt lat="42.63888" lon="1.68971">
        <ele>1909.79</ele>
        <time>2021-07-19T13:04:27Z</time>
      </trkpt>
      <trkpt lat="42.63887" lon="1.68972">
        <ele>1909.919</ele>
        <time>2021-07-19T13:04:29Z</time>
      </trkpt>
      <trkpt lat="42.63886" lon="1.68972">
        <ele>1911.068</ele>
        <time>2021-07-19T13:04:31Z</time>
      </trkpt>
      <trkpt lat="42.63886" lon="1.68972">
        <ele>1910.535</ele>
        <time>2021-07-19T13:04:33Z</time>
      </trkpt>
      <trkpt lat="42.63886" lon="1.68972">
        <ele>1909.797</ele>
        <time>2021-07-19T13:04:35Z</time>
      </trkpt>
      <trkpt lat="42.63885" lon="1.68974">
        <ele>1909.198</ele>
        <time>2021-07-19T13:04:37Z</time>
      </trkpt>
      <trkpt lat="42.63885" lon="1.68975">
        <ele>1909.806</ele>
        <time>2021-07-19T13:04:39Z</time>
      </trkpt>
      <trkpt lat="42.63885" lon="1.68976">
        <ele>1908.943</ele>
        <time>2021-07-19T13:04:41Z</time>
      </trkpt>
      <trkpt lat="42.63885" lon="1.68977">
        <ele>1908.622</ele>
        <time>2021-07-19T13:04:43Z</time>
      </trkpt>
      <trkpt lat="42.63885" lon="1.68978">
        <ele>1907.899</ele>
        <time>2021-07-19T13:04:45Z</time>
      </trkpt>
      <trkpt lat="42.63884" lon="1.68979">
        <ele>1907.034</ele>
        <time>2021-07-19T13:04:47Z</time>
      </trkpt>
      <trkpt lat="42.63882" lon="1.68978">
        <ele>1906.145</ele>
        <time>2021-07-19T13:04:49Z</time>
      </trkpt>
      <trkpt lat="42.63882" lon="1.68979">
        <ele>1904.598</ele>
        <time>2021-07-19T13:04:51Z</time>
      </trkpt>
      <trkpt lat="42.63882" lon="1.68981">
        <ele>1903.794</ele>
        <time>2021-07-19T13:04:53Z</time>
      </trkpt>
      <trkpt lat="42.63882" lon="1.68982">
        <ele>1903.395</ele>
        <time>2021-07-19T13:04:55Z</time>
      </trkpt>
      <trkpt lat="42.63881" lon="1.68984">
        <ele>1903.101</ele>
        <time>2021-07-19T13:04:57Z</time>
      </trkpt>
      <trkpt lat="42.6388" lon="1.68984">
        <ele>1902.398</ele>
        <time>2021-07-19T13:04:59Z</time>
      </trkpt>
      <trkpt lat="42.63879" lon="1.68984">
        <ele>1902.848</ele>
        <time>2021-07-19T13:05:01Z</time>
      </trkpt>
      <trkpt lat="42.63879" lon="1.68985">
        <ele>1902.816</ele>
        <time>2021-07-19T13:05:03Z</time>
      </trkpt>
      <trkpt lat="42.63879" lon="1.68985">
        <ele>1902.667</ele>
        <time>2021-07-19T13:05:05Z</time>
      </trkpt>
      <trkpt lat="42.63878" lon="1.68986">
        <ele>1902.209</ele>
        <time>2021-07-19T13:05:07Z</time>
      </trkpt>
      <trkpt lat="42.63877" lon="1.68987">
        <ele>1901.89</ele>
        <time>2021-07-19T13:05:09Z</time>
      </trkpt>
      <trkpt lat="42.63877" lon="1.68988">
        <ele>1901.661</ele>
        <time>2021-07-19T13:05:11Z</time>
      </trkpt>
      <trkpt lat="42.63877" lon="1.6899">
        <ele>1900.541</ele>
        <time>2021-07-19T13:05:13Z</time>
      </trkpt>
      <trkpt lat="42.63876" lon="1.68991">
        <ele>1900.472</ele>
        <time>2021-07-19T13:05:15Z</time>
      </trkpt>
      <trkpt lat="42.63875" lon="1.68991">
        <ele>1899.822</ele>
        <time>2021-07-19T13:05:17Z</time>
      </trkpt>
      <trkpt lat="42.63874" lon="1.68992">
        <ele>1899.323</ele>
        <time>2021-07-19T13:05:19Z</time>
      </trkpt>
      <trkpt lat="42.63872" lon="1.68992">
        <ele>1899.263</ele>
        <time>2021-07-19T13:05:21Z</time>
      </trkpt>
      <trkpt lat="42.63872" lon="1.68993">
        <ele>1898.296</ele>
        <time>2021-07-19T13:05:23Z</time>
      </trkpt>
      <trkpt lat="42.6387" lon="1.68994">
        <ele>1897.266</ele>
        <time>2021-07-19T13:05:25Z</time>
      </trkpt>
      <trkpt lat="42.63869" lon="1.68995">
        <ele>1896.765</ele>
        <time>2021-07-19T13:05:27Z</time>
      </trkpt>
      <trkpt lat="42.63868" lon="1.68995">
        <ele>1896.422</ele>
        <time>2021-07-19T13:05:29Z</time>
      </trkpt>
      <trkpt lat="42.63867" lon="1.68996">
        <ele>1895.765</ele>
        <time>2021-07-19T13:05:31Z</time>
      </trkpt>
      <trkpt lat="42.63866" lon="1.68997">
        <ele>1894.473</ele>
        <time>2021-07-19T13:05:33Z</time>
      </trkpt>
      <trkpt lat="42.63865" lon="1.68998">
        <ele>1893.767</ele>
        <time>2021-07-19T13:05:35Z</time>
      </trkpt>
      <trkpt lat="42.63864" lon="1.68998">
        <ele>1892.223</ele>
        <time>2021-07-19T13:05:37Z</time>
      </trkpt>
      <trkpt lat="42.63863" lon="1.68999">
        <ele>1891.609</ele>
        <time>2021-07-19T13:05:39Z</time>
      </trkpt>
      <trkpt lat="42.63862" lon="1.69">
        <ele>1891.342</ele>
        <time>2021-07-19T13:05:41Z</time>
      </trkpt>
      <trkpt lat="42.63862" lon="1.69">
        <ele>1891.415</ele>
        <time>2021-07-19T13:05:43Z</time>
      </trkpt>
      <trkpt lat="42.63862" lon="1.69">
        <ele>1891.025</ele>
        <time>2021-07-19T13:05:45Z</time>
      </trkpt>
      <trkpt lat="42.6386" lon="1.69001">
        <ele>1890.132</ele>
        <time>2021-07-19T13:05:47Z</time>
      </trkpt>
      <trkpt lat="42.63859" lon="1.69001">
        <ele>1889.618</ele>
        <time>2021-07-19T13:05:49Z</time>
      </trkpt>
      <trkpt lat="42.63857" lon="1.69">
        <ele>1888.548</ele>
        <time>2021-07-19T13:05:51Z</time>
      </trkpt>
      <trkpt lat="42.63856" lon="1.69001">
        <ele>1887.873</ele>
        <time>2021-07-19T13:05:53Z</time>
      </trkpt>
      <trkpt lat="42.63855" lon="1.69">
        <ele>1887.377</ele>
        <time>2021-07-19T13:05:55Z</time>
      </trkpt>
      <trkpt lat="42.63854" lon="1.69">
        <ele>1887.187</ele>
        <time>2021-07-19T13:05:57Z</time>
      </trkpt>
      <trkpt lat="42.63852" lon="1.68999">
        <ele>1886.588</ele>
        <time>2021-07-19T13:05:59Z</time>
      </trkpt>
      <trkpt lat="42.6385" lon="1.68999">
        <ele>1886.161</ele>
        <time>2021-07-19T13:06:01Z</time>
      </trkpt>
      <trkpt lat="42.63848" lon="1.68997">
        <ele>1885.735</ele>
        <time>2021-07-19T13:06:03Z</time>
      </trkpt>
      <trkpt lat="42.63847" lon="1.68995">
        <ele>1884.793</ele>
        <time>2021-07-19T13:06:05Z</time>
      </trkpt>
      <trkpt lat="42.63845" lon="1.68993">
        <ele>1884.284</ele>
        <time>2021-07-19T13:06:07Z</time>
      </trkpt>
      <trkpt lat="42.63844" lon="1.68991">
        <ele>1883.782</ele>
        <time>2021-07-19T13:06:09Z</time>
      </trkpt>
      <trkpt lat="42.63843" lon="1.68989">
        <ele>1883.753</ele>
        <time>2021-07-19T13:06:11Z</time>
      </trkpt>
      <trkpt lat="42.63841" lon="1.68987">
        <ele>1883.178</ele>
        <time>2021-07-19T13:06:13Z</time>
      </trkpt>
      <trkpt lat="42.6384" lon="1.68985">
        <ele>1882.921</ele>
        <time>2021-07-19T13:06:15Z</time>
      </trkpt>
      <trkpt lat="42.63838" lon="1.68985">
        <ele>1882.985</ele>
        <time>2021-07-19T13:06:17Z</time>
      </trkpt>
      <trkpt lat="42.63837" lon="1.68984">
        <ele>1883.338</ele>
        <time>2021-07-19T13:06:19Z</time>
      </trkpt>
      <trkpt lat="42.63835" lon="1.68983">
        <ele>1882.709</ele>
        <time>2021-07-19T13:06:21Z</time>
      </trkpt>
      <trkpt lat="42.63833" lon="1.68983">
        <ele>1881.921</ele>
        <time>2021-07-19T13:06:23Z</time>
      </trkpt>
      <trkpt lat="42.63831" lon="1.68984">
        <ele>1881.459</ele>
        <time>2021-07-19T13:06:25Z</time>
      </trkpt>
      <trkpt lat="42.6383" lon="1.68986">
        <ele>1880.921</ele>
        <time>2021-07-19T13:06:27Z</time>
      </trkpt>
      <trkpt lat="42.6383" lon="1.68989">
        <ele>1880.745</ele>
        <time>2021-07-19T13:06:29Z</time>
      </trkpt>
      <trkpt lat="42.63829" lon="1.68992">
        <ele>1880.833</ele>
        <time>2021-07-19T13:06:31Z</time>
      </trkpt>
      <trkpt lat="42.63828" lon="1.68995">
        <ele>1881.259</ele>
        <time>2021-07-19T13:06:33Z</time>
      </trkpt>
      <trkpt lat="42.63829" lon="1.68997">
        <ele>1882.074</ele>
        <time>2021-07-19T13:06:35Z</time>
      </trkpt>
      <trkpt lat="42.6383" lon="1.69">
        <ele>1881.625</ele>
        <time>2021-07-19T13:06:37Z</time>
      </trkpt>
      <trkpt lat="42.63831" lon="1.69002">
        <ele>1882.322</ele>
        <time>2021-07-19T13:06:39Z</time>
      </trkpt>
      <trkpt lat="42.63832" lon="1.69005">
        <ele>1882.598</ele>
        <time>2021-07-19T13:06:41Z</time>
      </trkpt>
      <trkpt lat="42.63832" lon="1.69008">
        <ele>1882.314</ele>
        <time>2021-07-19T13:06:43Z</time>
      </trkpt>
      <trkpt lat="42.63832" lon="1.69011">
        <ele>1882.19</ele>
        <time>2021-07-19T13:06:45Z</time>
      </trkpt>
      <trkpt lat="42.63832" lon="1.69014">
        <ele>1881.883</ele>
        <time>2021-07-19T13:06:47Z</time>
      </trkpt>
      <trkpt lat="42.63831" lon="1.69016">
        <ele>1882.046</ele>
        <time>2021-07-19T13:06:49Z</time>
      </trkpt>
      <trkpt lat="42.63831" lon="1.69017">
        <ele>1882.361</ele>
        <time>2021-07-19T13:06:51Z</time>
      </trkpt>
      <trkpt lat="42.63831" lon="1.69019">
        <ele>1883.512</ele>
        <time>2021-07-19T13:06:53Z</time>
      </trkpt>
      <trkpt lat="42.6383" lon="1.69021">
        <ele>1883.331</ele>
        <time>2021-07-19T13:06:55Z</time>
      </trkpt>
      <trkpt lat="42.63829" lon="1.69023">
        <ele>1883.429</ele>
        <time>2021-07-19T13:06:57Z</time>
      </trkpt>
      <trkpt lat="42.63829" lon="1.69025">
        <ele>1883.335</ele>
        <time>2021-07-19T13:06:59Z</time>
      </trkpt>
      <trkpt lat="42.63828" lon="1.69027">
        <ele>1882.456</ele>
        <time>2021-07-19T13:07:01Z</time>
      </trkpt>
      <trkpt lat="42.63829" lon="1.6903">
        <ele>1882.617</ele>
        <time>2021-07-19T13:07:03Z</time>
      </trkpt>
      <trkpt lat="42.63828" lon="1.69032">
        <ele>1882.138</ele>
        <time>2021-07-19T13:07:05Z</time>
      </trkpt>
      <trkpt lat="42.63828" lon="1.69034">
        <ele>1881.272</ele>
        <time>2021-07-19T13:07:07Z</time>
      </trkpt>
      <trkpt lat="42.63828" lon="1.69037">
        <ele>1880.74</ele>
        <time>2021-07-19T13:07:09Z</time>
      </trkpt>
      <trkpt lat="42.63827" lon="1.69039">
        <ele>1880.339</ele>
        <time>2021-07-19T13:07:11Z</time>
      </trkpt>
      <trkpt lat="42.63827" lon="1.69042">
        <ele>1880.555</ele>
        <time>2021-07-19T13:07:13Z</time>
      </trkpt>
      <trkpt lat="42.63826" lon="1.69044">
        <ele>1880.222</ele>
        <time>2021-07-19T13:07:15Z</time>
      </trkpt>
      <trkpt lat="42.63826" lon="1.69046">
        <ele>1880.677</ele>
        <time>2021-07-19T13:07:17Z</time>
      </trkpt>
      <trkpt lat="42.63826" lon="1.69047">
        <ele>1881.177</ele>
        <time>2021-07-19T13:07:19Z</time>
      </trkpt>
      <trkpt lat="42.63826" lon="1.69047">
        <ele>1881.4</ele>
        <time>2021-07-19T13:07:21Z</time>
      </trkpt>
      <trkpt lat="42.63826" lon="1.69046">
        <ele>1880.996</ele>
        <time>2021-07-19T13:07:23Z</time>
      </trkpt>
      <trkpt lat="42.63826" lon="1.69046">
        <ele>1881.053</ele>
        <time>2021-07-19T13:07:25Z</time>
      </trkpt>
      <trkpt lat="42.63824" lon="1.69048">
        <ele>1881.145</ele>
        <time>2021-07-19T13:07:27Z</time>
      </trkpt>
      <trkpt lat="42.63823" lon="1.69049">
        <ele>1881.269</ele>
        <time>2021-07-19T13:07:29Z</time>
      </trkpt>
      <trkpt lat="42.63822" lon="1.6905">
        <ele>1881.499</ele>
        <time>2021-07-19T13:07:31Z</time>
      </trkpt>
      <trkpt lat="42.6382" lon="1.6905">
        <ele>1882.152</ele>
        <time>2021-07-19T13:07:33Z</time>
      </trkpt>
      <trkpt lat="42.63818" lon="1.6905">
        <ele>1881.999</ele>
        <time>2021-07-19T13:07:35Z</time>
      </trkpt>
      <trkpt lat="42.63817" lon="1.6905">
        <ele>1882.163</ele>
        <time>2021-07-19T13:07:37Z</time>
      </trkpt>
      <trkpt lat="42.63816" lon="1.69052">
        <ele>1881.184</ele>
        <time>2021-07-19T13:07:39Z</time>
      </trkpt>
      <trkpt lat="42.63815" lon="1.69054">
        <ele>1879.87</ele>
        <time>2021-07-19T13:07:41Z</time>
      </trkpt>
      <trkpt lat="42.63815" lon="1.69056">
        <ele>1878.746</ele>
        <time>2021-07-19T13:07:43Z</time>
      </trkpt>
      <trkpt lat="42.63815" lon="1.69058">
        <ele>1878.086</ele>
        <time>2021-07-19T13:07:45Z</time>
      </trkpt>
      <trkpt lat="42.63814" lon="1.6906">
        <ele>1877.517</ele>
        <time>2021-07-19T13:07:47Z</time>
      </trkpt>
      <trkpt lat="42.63814" lon="1.69061">
        <ele>1876.693</ele>
        <time>2021-07-19T13:07:49Z</time>
      </trkpt>
      <trkpt lat="42.63814" lon="1.69062">
        <ele>1875.799</ele>
        <time>2021-07-19T13:07:51Z</time>
      </trkpt>
      <trkpt lat="42.63813" lon="1.69063">
        <ele>1875.185</ele>
        <time>2021-07-19T13:07:53Z</time>
      </trkpt>
      <trkpt lat="42.63811" lon="1.69065">
        <ele>1874.821</ele>
        <time>2021-07-19T13:07:55Z</time>
      </trkpt>
      <trkpt lat="42.6381" lon="1.69066">
        <ele>1874.026</ele>
        <time>2021-07-19T13:07:57Z</time>
      </trkpt>
      <trkpt lat="42.63809" lon="1.69067">
        <ele>1873.645</ele>
        <time>2021-07-19T13:07:59Z</time>
      </trkpt>
      <trkpt lat="42.63808" lon="1.69069">
        <ele>1872.833</ele>
        <time>2021-07-19T13:08:01Z</time>
      </trkpt>
      <trkpt lat="42.63808" lon="1.69071">
        <ele>1872.507</ele>
        <time>2021-07-19T13:08:03Z</time>
      </trkpt>
      <trkpt lat="42.63806" lon="1.69072">
        <ele>1872.088</ele>
        <time>2021-07-19T13:08:05Z</time>
      </trkpt>
      <trkpt lat="42.63804" lon="1.69072">
        <ele>1872.532</ele>
        <time>2021-07-19T13:08:07Z</time>
      </trkpt>
      <trkpt lat="42.63802" lon="1.69074">
        <ele>1872.187</ele>
        <time>2021-07-19T13:08:09Z</time>
      </trkpt>
      <trkpt lat="42.63801" lon="1.69075">
        <ele>1871.819</ele>
        <time>2021-07-19T13:08:11Z</time>
      </trkpt>
      <trkpt lat="42.63801" lon="1.69075">
        <ele>1871.583</ele>
        <time>2021-07-19T13:08:13Z</time>
      </trkpt>
      <trkpt lat="42.63801" lon="1.69075">
        <ele>1871.567</ele>
        <time>2021-07-19T13:08:15Z</time>
      </trkpt>
      <trkpt lat="42.63801" lon="1.69075">
        <ele>1871.553</ele>
        <time>2021-07-19T13:08:17Z</time>
      </trkpt>
      <trkpt lat="42.63801" lon="1.69075">
        <ele>1871.53</ele>
        <time>2021-07-19T13:08:19Z</time>
      </trkpt>
      <trkpt lat="42.63801" lon="1.69075">
        <ele>1871.525</ele>
        <time>2021-07-19T13:08:21Z</time>
      </trkpt>
      <trkpt lat="42.63801" lon="1.69075">
        <ele>1871.509</ele>
        <time>2021-07-19T13:08:23Z</time>
      </trkpt>
      <trkpt lat="42.63801" lon="1.69075">
        <ele>1871.511</ele>
        <time>2021-07-19T13:08:25Z</time>
      </trkpt>
      <trkpt lat="42.63801" lon="1.69075">
        <ele>1871.475</ele>
        <time>2021-07-19T13:08:27Z</time>
      </trkpt>
      <trkpt lat="42.63801" lon="1.69075">
        <ele>1871.454</ele>
        <time>2021-07-19T13:08:29Z</time>
      </trkpt>
      <trkpt lat="42.63801" lon="1.69075">
        <ele>1871.435</ele>
        <time>2021-07-19T13:08:31Z</time>
      </trkpt>
      <trkpt lat="42.63801" lon="1.69076">
        <ele>1871.433</ele>
        <time>2021-07-19T13:08:33Z</time>
      </trkpt>
      <trkpt lat="42.63801" lon="1.69077">
        <ele>1871.311</ele>
        <time>2021-07-19T13:08:35Z</time>
      </trkpt>
      <trkpt lat="42.63803" lon="1.69078">
        <ele>1875.221</ele>
        <time>2021-07-19T13:08:37Z</time>
      </trkpt>
      <trkpt lat="42.63804" lon="1.69078">
        <ele>1874.767</ele>
        <time>2021-07-19T13:08:39Z</time>
      </trkpt>
      <trkpt lat="42.63804" lon="1.69078">
        <ele>1874.76</ele>
        <time>2021-07-19T13:08:41Z</time>
      </trkpt>
      <trkpt lat="42.63804" lon="1.69078">
        <ele>1874.759</ele>
        <time>2021-07-19T13:08:43Z</time>
      </trkpt>
      <trkpt lat="42.63803" lon="1.69078">
        <ele>1875.465</ele>
        <time>2021-07-19T13:08:45Z</time>
      </trkpt>
      <trkpt lat="42.63803" lon="1.69079">
        <ele>1875.156</ele>
        <time>2021-07-19T13:08:47Z</time>
      </trkpt>
      <trkpt lat="42.63802" lon="1.69079">
        <ele>1874.538</ele>
        <time>2021-07-19T13:08:49Z</time>
      </trkpt>
      <trkpt lat="42.63801" lon="1.69081">
        <ele>1874.124</ele>
        <time>2021-07-19T13:08:51Z</time>
      </trkpt>
      <trkpt lat="42.63801" lon="1.69082">
        <ele>1873.885</ele>
        <time>2021-07-19T13:08:53Z</time>
      </trkpt>
      <trkpt lat="42.63799" lon="1.69084">
        <ele>1871.524</ele>
        <time>2021-07-19T13:08:55Z</time>
      </trkpt>
      <trkpt lat="42.63798" lon="1.69085">
        <ele>1871.028</ele>
        <time>2021-07-19T13:08:57Z</time>
      </trkpt>
      <trkpt lat="42.63799" lon="1.69088">
        <ele>1870.606</ele>
        <time>2021-07-19T13:08:59Z</time>
      </trkpt>
      <trkpt lat="42.63799" lon="1.6909">
        <ele>1870.568</ele>
        <time>2021-07-19T13:09:01Z</time>
      </trkpt>
      <trkpt lat="42.63799" lon="1.69092">
        <ele>1870.667</ele>
        <time>2021-07-19T13:09:03Z</time>
      </trkpt>
      <trkpt lat="42.63799" lon="1.69095">
        <ele>1870.636</ele>
        <time>2021-07-19T13:09:05Z</time>
      </trkpt>
      <trkpt lat="42.63799" lon="1.69098">
        <ele>1870.236</ele>
        <time>2021-07-19T13:09:07Z</time>
      </trkpt>
      <trkpt lat="42.63799" lon="1.69101">
        <ele>1869.836</ele>
        <time>2021-07-19T13:09:09Z</time>
      </trkpt>
      <trkpt lat="42.63799" lon="1.69104">
        <ele>1869.978</ele>
        <time>2021-07-19T13:09:11Z</time>
      </trkpt>
      <trkpt lat="42.638" lon="1.69106">
        <ele>1869.441</ele>
        <time>2021-07-19T13:09:13Z</time>
      </trkpt>
      <trkpt lat="42.638" lon="1.69108">
        <ele>1868.252</ele>
        <time>2021-07-19T13:09:15Z</time>
      </trkpt>
      <trkpt lat="42.638" lon="1.6911">
        <ele>1867.859</ele>
        <time>2021-07-19T13:09:17Z</time>
      </trkpt>
      <trkpt lat="42.63802" lon="1.69113">
        <ele>1867.732</ele>
        <time>2021-07-19T13:09:19Z</time>
      </trkpt>
      <trkpt lat="42.63804" lon="1.69115">
        <ele>1867.37</ele>
        <time>2021-07-19T13:09:21Z</time>
      </trkpt>
      <trkpt lat="42.63805" lon="1.69117">
        <ele>1867.088</ele>
        <time>2021-07-19T13:09:23Z</time>
      </trkpt>
      <trkpt lat="42.63806" lon="1.6912">
        <ele>1866.726</ele>
        <time>2021-07-19T13:09:25Z</time>
      </trkpt>
      <trkpt lat="42.63807" lon="1.69123">
        <ele>1866.595</ele>
        <time>2021-07-19T13:09:27Z</time>
      </trkpt>
      <trkpt lat="42.63809" lon="1.69124">
        <ele>1865.988</ele>
        <time>2021-07-19T13:09:29Z</time>
      </trkpt>
      <trkpt lat="42.6381" lon="1.69127">
        <ele>1866.739</ele>
        <time>2021-07-19T13:09:31Z</time>
      </trkpt>
      <trkpt lat="42.6381" lon="1.6913">
        <ele>1867.001</ele>
        <time>2021-07-19T13:09:33Z</time>
      </trkpt>
      <trkpt lat="42.63812" lon="1.69131">
        <ele>1868.29</ele>
        <time>2021-07-19T13:09:35Z</time>
      </trkpt>
      <trkpt lat="42.63812" lon="1.6913">
        <ele>1868.108</ele>
        <time>2021-07-19T13:09:37Z</time>
      </trkpt>
      <trkpt lat="42.63812" lon="1.6913">
        <ele>1867.473</ele>
        <time>2021-07-19T13:09:39Z</time>
      </trkpt>
      <trkpt lat="42.63813" lon="1.69131">
        <ele>1867.057</ele>
        <time>2021-07-19T13:09:41Z</time>
      </trkpt>
      <trkpt lat="42.63815" lon="1.69131">
        <ele>1867.04</ele>
        <time>2021-07-19T13:09:43Z</time>
      </trkpt>
      <trkpt lat="42.63815" lon="1.6913">
        <ele>1867.039</ele>
        <time>2021-07-19T13:09:45Z</time>
      </trkpt>
      <trkpt lat="42.63815" lon="1.69131">
        <ele>1866.914</ele>
        <time>2021-07-19T13:09:47Z</time>
      </trkpt>
      <trkpt lat="42.63817" lon="1.69131">
        <ele>1867.785</ele>
        <time>2021-07-19T13:09:49Z</time>
      </trkpt>
      <trkpt lat="42.63818" lon="1.69134">
        <ele>1867.674</ele>
        <time>2021-07-19T13:09:51Z</time>
      </trkpt>
      <trkpt lat="42.63818" lon="1.69136">
        <ele>1868.343</ele>
        <time>2021-07-19T13:09:53Z</time>
      </trkpt>
      <trkpt lat="42.63819" lon="1.69137">
        <ele>1867.958</ele>
        <time>2021-07-19T13:09:55Z</time>
      </trkpt>
      <trkpt lat="42.6382" lon="1.69138">
        <ele>1867.732</ele>
        <time>2021-07-19T13:09:57Z</time>
      </trkpt>
      <trkpt lat="42.63822" lon="1.69139">
        <ele>1867.77</ele>
        <time>2021-07-19T13:09:59Z</time>
      </trkpt>
      <trkpt lat="42.63823" lon="1.69141">
        <ele>1867.036</ele>
        <time>2021-07-19T13:10:01Z</time>
      </trkpt>
      <trkpt lat="42.63823" lon="1.69143">
        <ele>1866.731</ele>
        <time>2021-07-19T13:10:03Z</time>
      </trkpt>
      <trkpt lat="42.63824" lon="1.69145">
        <ele>1866.416</ele>
        <time>2021-07-19T13:10:05Z</time>
      </trkpt>
      <trkpt lat="42.63824" lon="1.69147">
        <ele>1866.079</ele>
        <time>2021-07-19T13:10:07Z</time>
      </trkpt>
      <trkpt lat="42.63826" lon="1.69149">
        <ele>1865.604</ele>
        <time>2021-07-19T13:10:09Z</time>
      </trkpt>
      <trkpt lat="42.63827" lon="1.69151">
        <ele>1864.955</ele>
        <time>2021-07-19T13:10:11Z</time>
      </trkpt>
      <trkpt lat="42.63828" lon="1.69153">
        <ele>1864.349</ele>
        <time>2021-07-19T13:10:13Z</time>
      </trkpt>
      <trkpt lat="42.63829" lon="1.69155">
        <ele>1864.229</ele>
        <time>2021-07-19T13:10:15Z</time>
      </trkpt>
      <trkpt lat="42.6383" lon="1.69158">
        <ele>1864.458</ele>
        <time>2021-07-19T13:10:17Z</time>
      </trkpt>
      <trkpt lat="42.63831" lon="1.6916">
        <ele>1864.149</ele>
        <time>2021-07-19T13:10:19Z</time>
      </trkpt>
      <trkpt lat="42.63832" lon="1.69161">
        <ele>1865.649</ele>
        <time>2021-07-19T13:10:21Z</time>
      </trkpt>
      <trkpt lat="42.63832" lon="1.6916">
        <ele>1864.956</ele>
        <time>2021-07-19T13:10:23Z</time>
      </trkpt>
      <trkpt lat="42.63832" lon="1.6916">
        <ele>1864.952</ele>
        <time>2021-07-19T13:10:25Z</time>
      </trkpt>
      <trkpt lat="42.63832" lon="1.6916">
        <ele>1864.943</ele>
        <time>2021-07-19T13:10:27Z</time>
      </trkpt>
      <trkpt lat="42.63832" lon="1.6916">
        <ele>1864.636</ele>
        <time>2021-07-19T13:10:29Z</time>
      </trkpt>
      <trkpt lat="42.63832" lon="1.69162">
        <ele>1864.2</ele>
        <time>2021-07-19T13:10:31Z</time>
      </trkpt>
      <trkpt lat="42.63833" lon="1.69164">
        <ele>1864.222</ele>
        <time>2021-07-19T13:10:33Z</time>
      </trkpt>
      <trkpt lat="42.63833" lon="1.69166">
        <ele>1862.891</ele>
        <time>2021-07-19T13:10:35Z</time>
      </trkpt>
      <trkpt lat="42.63835" lon="1.69167">
        <ele>1862.874</ele>
        <time>2021-07-19T13:10:37Z</time>
      </trkpt>
      <trkpt lat="42.63836" lon="1.69168">
        <ele>1862.559</ele>
        <time>2021-07-19T13:10:39Z</time>
      </trkpt>
      <trkpt lat="42.63837" lon="1.6917">
        <ele>1862.648</ele>
        <time>2021-07-19T13:10:41Z</time>
      </trkpt>
      <trkpt lat="42.63838" lon="1.69172">
        <ele>1862.494</ele>
        <time>2021-07-19T13:10:43Z</time>
      </trkpt>
      <trkpt lat="42.63839" lon="1.69174">
        <ele>1862.523</ele>
        <time>2021-07-19T13:10:45Z</time>
      </trkpt>
      <trkpt lat="42.6384" lon="1.69176">
        <ele>1862.333</ele>
        <time>2021-07-19T13:10:47Z</time>
      </trkpt>
      <trkpt lat="42.63841" lon="1.69177">
        <ele>1862.803</ele>
        <time>2021-07-19T13:10:49Z</time>
      </trkpt>
      <trkpt lat="42.63841" lon="1.69178">
        <ele>1862.069</ele>
        <time>2021-07-19T13:10:51Z</time>
      </trkpt>
      <trkpt lat="42.63842" lon="1.6918">
        <ele>1861.957</ele>
        <time>2021-07-19T13:10:53Z</time>
      </trkpt>
      <trkpt lat="42.63843" lon="1.69181">
        <ele>1862.351</ele>
        <time>2021-07-19T13:10:55Z</time>
      </trkpt>
      <trkpt lat="42.63845" lon="1.69182">
        <ele>1862.83</ele>
        <time>2021-07-19T13:10:57Z</time>
      </trkpt>
      <trkpt lat="42.63846" lon="1.69181">
        <ele>1862.372</ele>
        <time>2021-07-19T13:10:59Z</time>
      </trkpt>
      <trkpt lat="42.63847" lon="1.69182">
        <ele>1863.14</ele>
        <time>2021-07-19T13:11:01Z</time>
      </trkpt>
      <trkpt lat="42.63848" lon="1.69181">
        <ele>1862.614</ele>
        <time>2021-07-19T13:11:03Z</time>
      </trkpt>
      <trkpt lat="42.63849" lon="1.69182">
        <ele>1862.245</ele>
        <time>2021-07-19T13:11:05Z</time>
      </trkpt>
      <trkpt lat="42.63849" lon="1.69183">
        <ele>1862.278</ele>
        <time>2021-07-19T13:11:07Z</time>
      </trkpt>
      <trkpt lat="42.6385" lon="1.69184">
        <ele>1861.896</ele>
        <time>2021-07-19T13:11:09Z</time>
      </trkpt>
      <trkpt lat="42.63852" lon="1.69186">
        <ele>1861.483</ele>
        <time>2021-07-19T13:11:11Z</time>
      </trkpt>
      <trkpt lat="42.63852" lon="1.69188">
        <ele>1860.549</ele>
        <time>2021-07-19T13:11:13Z</time>
      </trkpt>
      <trkpt lat="42.63853" lon="1.69191">
        <ele>1860.328</ele>
        <time>2021-07-19T13:11:15Z</time>
      </trkpt>
      <trkpt lat="42.63855" lon="1.69193">
        <ele>1859.901</ele>
        <time>2021-07-19T13:11:17Z</time>
      </trkpt>
      <trkpt lat="42.63856" lon="1.69194">
        <ele>1859.861</ele>
        <time>2021-07-19T13:11:19Z</time>
      </trkpt>
      <trkpt lat="42.63858" lon="1.69196">
        <ele>1859.237</ele>
        <time>2021-07-19T13:11:21Z</time>
      </trkpt>
      <trkpt lat="42.63859" lon="1.69197">
        <ele>1858.753</ele>
        <time>2021-07-19T13:11:23Z</time>
      </trkpt>
      <trkpt lat="42.6386" lon="1.69199">
        <ele>1859.391</ele>
        <time>2021-07-19T13:11:25Z</time>
      </trkpt>
      <trkpt lat="42.6386" lon="1.692">
        <ele>1859.508</ele>
        <time>2021-07-19T13:11:27Z</time>
      </trkpt>
      <trkpt lat="42.63861" lon="1.69202">
        <ele>1859.502</ele>
        <time>2021-07-19T13:11:29Z</time>
      </trkpt>
      <trkpt lat="42.63862" lon="1.69204">
        <ele>1858.931</ele>
        <time>2021-07-19T13:11:31Z</time>
      </trkpt>
      <trkpt lat="42.63863" lon="1.69205">
        <ele>1858.686</ele>
        <time>2021-07-19T13:11:33Z</time>
      </trkpt>
      <trkpt lat="42.63864" lon="1.69207">
        <ele>1858.679</ele>
        <time>2021-07-19T13:11:35Z</time>
      </trkpt>
      <trkpt lat="42.63865" lon="1.6921">
        <ele>1858.14</ele>
        <time>2021-07-19T13:11:37Z</time>
      </trkpt>
      <trkpt lat="42.63866" lon="1.69212">
        <ele>1858.24</ele>
        <time>2021-07-19T13:11:39Z</time>
      </trkpt>
      <trkpt lat="42.63866" lon="1.69215">
        <ele>1857.792</ele>
        <time>2021-07-19T13:11:41Z</time>
      </trkpt>
      <trkpt lat="42.63867" lon="1.69217">
        <ele>1857.612</ele>
        <time>2021-07-19T13:11:43Z</time>
      </trkpt>
      <trkpt lat="42.63866" lon="1.6922">
        <ele>1857.6</ele>
        <time>2021-07-19T13:11:45Z</time>
      </trkpt>
      <trkpt lat="42.63867" lon="1.69223">
        <ele>1857.349</ele>
        <time>2021-07-19T13:11:47Z</time>
      </trkpt>
      <trkpt lat="42.63866" lon="1.69226">
        <ele>1857.035</ele>
        <time>2021-07-19T13:11:49Z</time>
      </trkpt>
      <trkpt lat="42.63867" lon="1.69228">
        <ele>1856.519</ele>
        <time>2021-07-19T13:11:51Z</time>
      </trkpt>
      <trkpt lat="42.63868" lon="1.6923">
        <ele>1856.197</ele>
        <time>2021-07-19T13:11:53Z</time>
      </trkpt>
      <trkpt lat="42.63868" lon="1.69232">
        <ele>1855.902</ele>
        <time>2021-07-19T13:11:55Z</time>
      </trkpt>
      <trkpt lat="42.63868" lon="1.69234">
        <ele>1855.175</ele>
        <time>2021-07-19T13:11:57Z</time>
      </trkpt>
      <trkpt lat="42.63869" lon="1.69236">
        <ele>1855.389</ele>
        <time>2021-07-19T13:11:59Z</time>
      </trkpt>
      <trkpt lat="42.6387" lon="1.69238">
        <ele>1855.102</ele>
        <time>2021-07-19T13:12:01Z</time>
      </trkpt>
      <trkpt lat="42.6387" lon="1.69241">
        <ele>1854.981</ele>
        <time>2021-07-19T13:12:03Z</time>
      </trkpt>
      <trkpt lat="42.63871" lon="1.69243">
        <ele>1854.197</ele>
        <time>2021-07-19T13:12:05Z</time>
      </trkpt>
      <trkpt lat="42.63872" lon="1.69244">
        <ele>1853.878</ele>
        <time>2021-07-19T13:12:07Z</time>
      </trkpt>
      <trkpt lat="42.63873" lon="1.69247">
        <ele>1853.241</ele>
        <time>2021-07-19T13:12:09Z</time>
      </trkpt>
      <trkpt lat="42.63874" lon="1.69249">
        <ele>1852.375</ele>
        <time>2021-07-19T13:12:11Z</time>
      </trkpt>
      <trkpt lat="42.63874" lon="1.69251">
        <ele>1851.953</ele>
        <time>2021-07-19T13:12:13Z</time>
      </trkpt>
      <trkpt lat="42.63874" lon="1.69253">
        <ele>1850.357</ele>
        <time>2021-07-19T13:12:15Z</time>
      </trkpt>
      <trkpt lat="42.63875" lon="1.69255">
        <ele>1849.604</ele>
        <time>2021-07-19T13:12:17Z</time>
      </trkpt>
      <trkpt lat="42.63877" lon="1.69257">
        <ele>1848.044</ele>
        <time>2021-07-19T13:12:19Z</time>
      </trkpt>
      <trkpt lat="42.63878" lon="1.6926">
        <ele>1847.218</ele>
        <time>2021-07-19T13:12:21Z</time>
      </trkpt>
      <trkpt lat="42.63879" lon="1.69262">
        <ele>1846.94</ele>
        <time>2021-07-19T13:12:23Z</time>
      </trkpt>
      <trkpt lat="42.63881" lon="1.69265">
        <ele>1846.368</ele>
        <time>2021-07-19T13:12:25Z</time>
      </trkpt>
      <trkpt lat="42.63882" lon="1.69267">
        <ele>1846.149</ele>
        <time>2021-07-19T13:12:27Z</time>
      </trkpt>
      <trkpt lat="42.63884" lon="1.69268">
        <ele>1846.001</ele>
        <time>2021-07-19T13:12:29Z</time>
      </trkpt>
      <trkpt lat="42.63885" lon="1.69271">
        <ele>1845.647</ele>
        <time>2021-07-19T13:12:31Z</time>
      </trkpt>
      <trkpt lat="42.63885" lon="1.69273">
        <ele>1845.61</ele>
        <time>2021-07-19T13:12:33Z</time>
      </trkpt>
      <trkpt lat="42.63887" lon="1.69276">
        <ele>1845.573</ele>
        <time>2021-07-19T13:12:35Z</time>
      </trkpt>
      <trkpt lat="42.63888" lon="1.69278">
        <ele>1845.213</ele>
        <time>2021-07-19T13:12:37Z</time>
      </trkpt>
      <trkpt lat="42.6389" lon="1.6928">
        <ele>1844.656</ele>
        <time>2021-07-19T13:12:39Z</time>
      </trkpt>
      <trkpt lat="42.63891" lon="1.69282">
        <ele>1844.162</ele>
        <time>2021-07-19T13:12:41Z</time>
      </trkpt>
      <trkpt lat="42.63893" lon="1.69285">
        <ele>1844.318</ele>
        <time>2021-07-19T13:12:43Z</time>
      </trkpt>
      <trkpt lat="42.63894" lon="1.69288">
        <ele>1843.489</ele>
        <time>2021-07-19T13:12:45Z</time>
      </trkpt>
      <trkpt lat="42.63896" lon="1.6929">
        <ele>1843.25</ele>
        <time>2021-07-19T13:12:47Z</time>
      </trkpt>
      <trkpt lat="42.63897" lon="1.69293">
        <ele>1842.754</ele>
        <time>2021-07-19T13:12:49Z</time>
      </trkpt>
      <trkpt lat="42.63898" lon="1.69295">
        <ele>1843.028</ele>
        <time>2021-07-19T13:12:51Z</time>
      </trkpt>
      <trkpt lat="42.639" lon="1.69297">
        <ele>1843.181</ele>
        <time>2021-07-19T13:12:53Z</time>
      </trkpt>
      <trkpt lat="42.63901" lon="1.69299">
        <ele>1843.666</ele>
        <time>2021-07-19T13:12:55Z</time>
      </trkpt>
      <trkpt lat="42.63902" lon="1.69302">
        <ele>1843.856</ele>
        <time>2021-07-19T13:12:57Z</time>
      </trkpt>
      <trkpt lat="42.63903" lon="1.69304">
        <ele>1843.454</ele>
        <time>2021-07-19T13:12:59Z</time>
      </trkpt>
      <trkpt lat="42.63903" lon="1.69307">
        <ele>1843.691</ele>
        <time>2021-07-19T13:13:01Z</time>
      </trkpt>
      <trkpt lat="42.63903" lon="1.6931">
        <ele>1843.118</ele>
        <time>2021-07-19T13:13:03Z</time>
      </trkpt>
      <trkpt lat="42.63904" lon="1.69313">
        <ele>1842.861</ele>
        <time>2021-07-19T13:13:05Z</time>
      </trkpt>
      <trkpt lat="42.63905" lon="1.69315">
        <ele>1842.347</ele>
        <time>2021-07-19T13:13:07Z</time>
      </trkpt>
      <trkpt lat="42.63905" lon="1.69317">
        <ele>1842.073</ele>
        <time>2021-07-19T13:13:09Z</time>
      </trkpt>
      <trkpt lat="42.63906" lon="1.69319">
        <ele>1841.834</ele>
        <time>2021-07-19T13:13:11Z</time>
      </trkpt>
      <trkpt lat="42.63906" lon="1.69321">
        <ele>1841.911</ele>
        <time>2021-07-19T13:13:13Z</time>
      </trkpt>
      <trkpt lat="42.63907" lon="1.69324">
        <ele>1841.86</ele>
        <time>2021-07-19T13:13:15Z</time>
      </trkpt>
      <trkpt lat="42.63908" lon="1.69326">
        <ele>1841.545</ele>
        <time>2021-07-19T13:13:17Z</time>
      </trkpt>
      <trkpt lat="42.63909" lon="1.69328">
        <ele>1841.199</ele>
        <time>2021-07-19T13:13:19Z</time>
      </trkpt>
      <trkpt lat="42.6391" lon="1.6933">
        <ele>1840.86</ele>
        <time>2021-07-19T13:13:21Z</time>
      </trkpt>
      <trkpt lat="42.63913" lon="1.69331">
        <ele>1842.071</ele>
        <time>2021-07-19T13:13:23Z</time>
      </trkpt>
      <trkpt lat="42.63913" lon="1.69333">
        <ele>1841.74</ele>
        <time>2021-07-19T13:13:25Z</time>
      </trkpt>
      <trkpt lat="42.63914" lon="1.69335">
        <ele>1841.133</ele>
        <time>2021-07-19T13:13:27Z</time>
      </trkpt>
      <trkpt lat="42.63915" lon="1.69338">
        <ele>1840.51</ele>
        <time>2021-07-19T13:13:29Z</time>
      </trkpt>
      <trkpt lat="42.63916" lon="1.6934">
        <ele>1839.864</ele>
        <time>2021-07-19T13:13:31Z</time>
      </trkpt>
      <trkpt lat="42.63916" lon="1.69342">
        <ele>1839.919</ele>
        <time>2021-07-19T13:13:33Z</time>
      </trkpt>
      <trkpt lat="42.63917" lon="1.69344">
        <ele>1840.176</ele>
        <time>2021-07-19T13:13:35Z</time>
      </trkpt>
      <trkpt lat="42.63918" lon="1.69348">
        <ele>1840.282</ele>
        <time>2021-07-19T13:13:37Z</time>
      </trkpt>
      <trkpt lat="42.63918" lon="1.69351">
        <ele>1839.461</ele>
        <time>2021-07-19T13:13:39Z</time>
      </trkpt>
      <trkpt lat="42.63919" lon="1.69353">
        <ele>1839.093</ele>
        <time>2021-07-19T13:13:41Z</time>
      </trkpt>
      <trkpt lat="42.6392" lon="1.69356">
        <ele>1838.325</ele>
        <time>2021-07-19T13:13:43Z</time>
      </trkpt>
      <trkpt lat="42.63921" lon="1.69358">
        <ele>1837.176</ele>
        <time>2021-07-19T13:13:45Z</time>
      </trkpt>
      <trkpt lat="42.63921" lon="1.69361">
        <ele>1836.24</ele>
        <time>2021-07-19T13:13:47Z</time>
      </trkpt>
      <trkpt lat="42.63922" lon="1.69363">
        <ele>1836.163</ele>
        <time>2021-07-19T13:13:49Z</time>
      </trkpt>
      <trkpt lat="42.63923" lon="1.69365">
        <ele>1835.214</ele>
        <time>2021-07-19T13:13:51Z</time>
      </trkpt>
      <trkpt lat="42.63925" lon="1.69367">
        <ele>1834.147</ele>
        <time>2021-07-19T13:13:53Z</time>
      </trkpt>
      <trkpt lat="42.63926" lon="1.6937">
        <ele>1834.109</ele>
        <time>2021-07-19T13:13:55Z</time>
      </trkpt>
      <trkpt lat="42.63927" lon="1.69372">
        <ele>1834.005</ele>
        <time>2021-07-19T13:13:57Z</time>
      </trkpt>
      <trkpt lat="42.63928" lon="1.69374">
        <ele>1834.029</ele>
        <time>2021-07-19T13:13:59Z</time>
      </trkpt>
      <trkpt lat="42.63929" lon="1.69377">
        <ele>1833.765</ele>
        <time>2021-07-19T13:14:01Z</time>
      </trkpt>
      <trkpt lat="42.6393" lon="1.6938">
        <ele>1833.463</ele>
        <time>2021-07-19T13:14:03Z</time>
      </trkpt>
      <trkpt lat="42.63931" lon="1.69382">
        <ele>1832.508</ele>
        <time>2021-07-19T13:14:05Z</time>
      </trkpt>
      <trkpt lat="42.63932" lon="1.69385">
        <ele>1831.688</ele>
        <time>2021-07-19T13:14:07Z</time>
      </trkpt>
      <trkpt lat="42.63933" lon="1.69388">
        <ele>1831.637</ele>
        <time>2021-07-19T13:14:09Z</time>
      </trkpt>
      <trkpt lat="42.63933" lon="1.69391">
        <ele>1831.949</ele>
        <time>2021-07-19T13:14:11Z</time>
      </trkpt>
      <trkpt lat="42.63934" lon="1.69394">
        <ele>1832.4</ele>
        <time>2021-07-19T13:14:13Z</time>
      </trkpt>
      <trkpt lat="42.63934" lon="1.69398">
        <ele>1832.538</ele>
        <time>2021-07-19T13:14:15Z</time>
      </trkpt>
      <trkpt lat="42.63934" lon="1.69401">
        <ele>1832.559</ele>
        <time>2021-07-19T13:14:17Z</time>
      </trkpt>
      <trkpt lat="42.63935" lon="1.69404">
        <ele>1832.17</ele>
        <time>2021-07-19T13:14:19Z</time>
      </trkpt>
      <trkpt lat="42.63935" lon="1.69407">
        <ele>1832.317</ele>
        <time>2021-07-19T13:14:21Z</time>
      </trkpt>
      <trkpt lat="42.63936" lon="1.69409">
        <ele>1832.435</ele>
        <time>2021-07-19T13:14:23Z</time>
      </trkpt>
      <trkpt lat="42.63937" lon="1.69412">
        <ele>1832.004</ele>
        <time>2021-07-19T13:14:25Z</time>
      </trkpt>
      <trkpt lat="42.63937" lon="1.69415">
        <ele>1832.176</ele>
        <time>2021-07-19T13:14:27Z</time>
      </trkpt>
      <trkpt lat="42.63938" lon="1.69417">
        <ele>1832.396</ele>
        <time>2021-07-19T13:14:29Z</time>
      </trkpt>
      <trkpt lat="42.63938" lon="1.6942">
        <ele>1831.62</ele>
        <time>2021-07-19T13:14:31Z</time>
      </trkpt>
      <trkpt lat="42.63939" lon="1.69422">
        <ele>1831.562</ele>
        <time>2021-07-19T13:14:33Z</time>
      </trkpt>
      <trkpt lat="42.63939" lon="1.69426">
        <ele>1831.646</ele>
        <time>2021-07-19T13:14:35Z</time>
      </trkpt>
      <trkpt lat="42.6394" lon="1.69428">
        <ele>1831.483</ele>
        <time>2021-07-19T13:14:37Z</time>
      </trkpt>
      <trkpt lat="42.63941" lon="1.69431">
        <ele>1830.724</ele>
        <time>2021-07-19T13:14:39Z</time>
      </trkpt>
      <trkpt lat="42.63941" lon="1.69434">
        <ele>1830.662</ele>
        <time>2021-07-19T13:14:41Z</time>
      </trkpt>
      <trkpt lat="42.63942" lon="1.69437">
        <ele>1830.657</ele>
        <time>2021-07-19T13:14:43Z</time>
      </trkpt>
      <trkpt lat="42.63943" lon="1.69439">
        <ele>1829.888</ele>
        <time>2021-07-19T13:14:45Z</time>
      </trkpt>
      <trkpt lat="42.63945" lon="1.69441">
        <ele>1829.435</ele>
        <time>2021-07-19T13:14:47Z</time>
      </trkpt>
      <trkpt lat="42.63946" lon="1.69444">
        <ele>1829.287</ele>
        <time>2021-07-19T13:14:49Z</time>
      </trkpt>
      <trkpt lat="42.63947" lon="1.69446">
        <ele>1828.51</ele>
        <time>2021-07-19T13:14:51Z</time>
      </trkpt>
      <trkpt lat="42.63948" lon="1.69449">
        <ele>1828.262</ele>
        <time>2021-07-19T13:14:53Z</time>
      </trkpt>
      <trkpt lat="42.63949" lon="1.69451">
        <ele>1827.691</ele>
        <time>2021-07-19T13:14:55Z</time>
      </trkpt>
      <trkpt lat="42.6395" lon="1.69453">
        <ele>1827.04</ele>
        <time>2021-07-19T13:14:57Z</time>
      </trkpt>
      <trkpt lat="42.63951" lon="1.69456">
        <ele>1826.572</ele>
        <time>2021-07-19T13:14:59Z</time>
      </trkpt>
      <trkpt lat="42.63952" lon="1.69459">
        <ele>1825.828</ele>
        <time>2021-07-19T13:15:01Z</time>
      </trkpt>
      <trkpt lat="42.63953" lon="1.69462">
        <ele>1825.316</ele>
        <time>2021-07-19T13:15:03Z</time>
      </trkpt>
      <trkpt lat="42.63955" lon="1.69463">
        <ele>1825.757</ele>
        <time>2021-07-19T13:15:05Z</time>
      </trkpt>
      <trkpt lat="42.63956" lon="1.69464">
        <ele>1825.659</ele>
        <time>2021-07-19T13:15:07Z</time>
      </trkpt>
      <trkpt lat="42.63958" lon="1.69467">
        <ele>1825.097</ele>
        <time>2021-07-19T13:15:09Z</time>
      </trkpt>
      <trkpt lat="42.63959" lon="1.69469">
        <ele>1824.216</ele>
        <time>2021-07-19T13:15:11Z</time>
      </trkpt>
      <trkpt lat="42.6396" lon="1.69471">
        <ele>1823.787</ele>
        <time>2021-07-19T13:15:13Z</time>
      </trkpt>
      <trkpt lat="42.63962" lon="1.69474">
        <ele>1822.67</ele>
        <time>2021-07-19T13:15:15Z</time>
      </trkpt>
      <trkpt lat="42.63963" lon="1.69475">
        <ele>1821.788</ele>
        <time>2021-07-19T13:15:17Z</time>
      </trkpt>
      <trkpt lat="42.63965" lon="1.69478">
        <ele>1821.338</ele>
        <time>2021-07-19T13:15:19Z</time>
      </trkpt>
      <trkpt lat="42.63967" lon="1.69479">
        <ele>1821.276</ele>
        <time>2021-07-19T13:15:21Z</time>
      </trkpt>
      <trkpt lat="42.63968" lon="1.69481">
        <ele>1821.681</ele>
        <time>2021-07-19T13:15:23Z</time>
      </trkpt>
      <trkpt lat="42.6397" lon="1.69482">
        <ele>1822.091</ele>
        <time>2021-07-19T13:15:25Z</time>
      </trkpt>
      <trkpt lat="42.63972" lon="1.69482">
        <ele>1822.033</ele>
        <time>2021-07-19T13:15:27Z</time>
      </trkpt>
      <trkpt lat="42.63973" lon="1.69485">
        <ele>1822.009</ele>
        <time>2021-07-19T13:15:29Z</time>
      </trkpt>
      <trkpt lat="42.63975" lon="1.69487">
        <ele>1821.191</ele>
        <time>2021-07-19T13:15:31Z</time>
      </trkpt>
      <trkpt lat="42.63976" lon="1.69488">
        <ele>1820.487</ele>
        <time>2021-07-19T13:15:33Z</time>
      </trkpt>
      <trkpt lat="42.63977" lon="1.6949">
        <ele>1820.37</ele>
        <time>2021-07-19T13:15:35Z</time>
      </trkpt>
      <trkpt lat="42.63979" lon="1.69493">
        <ele>1820.207</ele>
        <time>2021-07-19T13:15:37Z</time>
      </trkpt>
      <trkpt lat="42.63981" lon="1.69495">
        <ele>1820.343</ele>
        <time>2021-07-19T13:15:39Z</time>
      </trkpt>
      <trkpt lat="42.63983" lon="1.69495">
        <ele>1820.086</ele>
        <time>2021-07-19T13:15:41Z</time>
      </trkpt>
      <trkpt lat="42.63985" lon="1.69495">
        <ele>1820.189</ele>
        <time>2021-07-19T13:15:43Z</time>
      </trkpt>
      <trkpt lat="42.63987" lon="1.69495">
        <ele>1821.027</ele>
        <time>2021-07-19T13:15:45Z</time>
      </trkpt>
      <trkpt lat="42.63989" lon="1.69496">
        <ele>1822.557</ele>
        <time>2021-07-19T13:15:47Z</time>
      </trkpt>
      <trkpt lat="42.63989" lon="1.69499">
        <ele>1822.826</ele>
        <time>2021-07-19T13:15:49Z</time>
      </trkpt>
      <trkpt lat="42.63991" lon="1.69501">
        <ele>1822.422</ele>
        <time>2021-07-19T13:15:51Z</time>
      </trkpt>
      <trkpt lat="42.63992" lon="1.69502">
        <ele>1822.164</ele>
        <time>2021-07-19T13:15:53Z</time>
      </trkpt>
      <trkpt lat="42.63994" lon="1.69503">
        <ele>1821.742</ele>
        <time>2021-07-19T13:15:55Z</time>
      </trkpt>
      <trkpt lat="42.63996" lon="1.69504">
        <ele>1821.463</ele>
        <time>2021-07-19T13:15:57Z</time>
      </trkpt>
      <trkpt lat="42.63996" lon="1.69507">
        <ele>1821.372</ele>
        <time>2021-07-19T13:15:59Z</time>
      </trkpt>
      <trkpt lat="42.63996" lon="1.69509">
        <ele>1820.73</ele>
        <time>2021-07-19T13:16:01Z</time>
      </trkpt>
      <trkpt lat="42.63996" lon="1.69511">
        <ele>1819.959</ele>
        <time>2021-07-19T13:16:03Z</time>
      </trkpt>
      <trkpt lat="42.63995" lon="1.69514">
        <ele>1820.637</ele>
        <time>2021-07-19T13:16:05Z</time>
      </trkpt>
      <trkpt lat="42.63997" lon="1.69516">
        <ele>1821.633</ele>
        <time>2021-07-19T13:16:07Z</time>
      </trkpt>
      <trkpt lat="42.63998" lon="1.69518">
        <ele>1822.334</ele>
        <time>2021-07-19T13:16:09Z</time>
      </trkpt>
      <trkpt lat="42.63998" lon="1.69521">
        <ele>1823.132</ele>
        <time>2021-07-19T13:16:11Z</time>
      </trkpt>
      <trkpt lat="42.63999" lon="1.69523">
        <ele>1822.711</ele>
        <time>2021-07-19T13:16:13Z</time>
      </trkpt>
      <trkpt lat="42.63999" lon="1.69526">
        <ele>1822.437</ele>
        <time>2021-07-19T13:16:15Z</time>
      </trkpt>
      <trkpt lat="42.63998" lon="1.69527">
        <ele>1821.441</ele>
        <time>2021-07-19T13:16:17Z</time>
      </trkpt>
      <trkpt lat="42.63998" lon="1.69529">
        <ele>1821.458</ele>
        <time>2021-07-19T13:16:19Z</time>
      </trkpt>
      <trkpt lat="42.63999" lon="1.69531">
        <ele>1820.638</ele>
        <time>2021-07-19T13:16:21Z</time>
      </trkpt>
      <trkpt lat="42.64" lon="1.69533">
        <ele>1820.208</ele>
        <time>2021-07-19T13:16:23Z</time>
      </trkpt>
      <trkpt lat="42.64001" lon="1.69535">
        <ele>1821.113</ele>
        <time>2021-07-19T13:16:25Z</time>
      </trkpt>
      <trkpt lat="42.64002" lon="1.69537">
        <ele>1821.178</ele>
        <time>2021-07-19T13:16:27Z</time>
      </trkpt>
      <trkpt lat="42.64003" lon="1.69539">
        <ele>1821.604</ele>
        <time>2021-07-19T13:16:29Z</time>
      </trkpt>
      <trkpt lat="42.64003" lon="1.69542">
        <ele>1822.025</ele>
        <time>2021-07-19T13:16:31Z</time>
      </trkpt>
      <trkpt lat="42.64004" lon="1.69544">
        <ele>1822.174</ele>
        <time>2021-07-19T13:16:33Z</time>
      </trkpt>
      <trkpt lat="42.64005" lon="1.69545">
        <ele>1822.248</ele>
        <time>2021-07-19T13:16:35Z</time>
      </trkpt>
      <trkpt lat="42.64004" lon="1.69547">
        <ele>1823.19</ele>
        <time>2021-07-19T13:16:37Z</time>
      </trkpt>
      <trkpt lat="42.64004" lon="1.69548">
        <ele>1821.973</ele>
        <time>2021-07-19T13:16:39Z</time>
      </trkpt>
      <trkpt lat="42.64003" lon="1.69549">
        <ele>1822.221</ele>
        <time>2021-07-19T13:16:41Z</time>
      </trkpt>
      <trkpt lat="42.64003" lon="1.69551">
        <ele>1821.625</ele>
        <time>2021-07-19T13:16:43Z</time>
      </trkpt>
      <trkpt lat="42.64003" lon="1.69553">
        <ele>1820.7</ele>
        <time>2021-07-19T13:16:45Z</time>
      </trkpt>
      <trkpt lat="42.64004" lon="1.69555">
        <ele>1819.433</ele>
        <time>2021-07-19T13:16:47Z</time>
      </trkpt>
      <trkpt lat="42.64004" lon="1.69557">
        <ele>1818.725</ele>
        <time>2021-07-19T13:16:49Z</time>
      </trkpt>
      <trkpt lat="42.64006" lon="1.69558">
        <ele>1818.527</ele>
        <time>2021-07-19T13:16:51Z</time>
      </trkpt>
      <trkpt lat="42.64007" lon="1.6956">
        <ele>1817.897</ele>
        <time>2021-07-19T13:16:53Z</time>
      </trkpt>
      <trkpt lat="42.64008" lon="1.69561">
        <ele>1818.394</ele>
        <time>2021-07-19T13:16:55Z</time>
      </trkpt>
      <trkpt lat="42.6401" lon="1.69562">
        <ele>1819.027</ele>
        <time>2021-07-19T13:16:57Z</time>
      </trkpt>
      <trkpt lat="42.64011" lon="1.69564">
        <ele>1819.387</ele>
        <time>2021-07-19T13:16:59Z</time>
      </trkpt>
      <trkpt lat="42.64011" lon="1.69566">
        <ele>1818.296</ele>
        <time>2021-07-19T13:17:01Z</time>
      </trkpt>
      <trkpt lat="42.64011" lon="1.69568">
        <ele>1818.57</ele>
        <time>2021-07-19T13:17:03Z</time>
      </trkpt>
      <trkpt lat="42.64011" lon="1.6957">
        <ele>1818.158</ele>
        <time>2021-07-19T13:17:05Z</time>
      </trkpt>
      <trkpt lat="42.64011" lon="1.69572">
        <ele>1817.236</ele>
        <time>2021-07-19T13:17:07Z</time>
      </trkpt>
      <trkpt lat="42.64012" lon="1.69574">
        <ele>1817.236</ele>
        <time>2021-07-19T13:17:09Z</time>
      </trkpt>
      <trkpt lat="42.64012" lon="1.69576">
        <ele>1816.89</ele>
        <time>2021-07-19T13:17:11Z</time>
      </trkpt>
      <trkpt lat="42.64013" lon="1.69578">
        <ele>1816.159</ele>
        <time>2021-07-19T13:17:13Z</time>
      </trkpt>
      <trkpt lat="42.64014" lon="1.6958">
        <ele>1816.006</ele>
        <time>2021-07-19T13:17:15Z</time>
      </trkpt>
      <trkpt lat="42.64015" lon="1.69582">
        <ele>1816.068</ele>
        <time>2021-07-19T13:17:17Z</time>
      </trkpt>
      <trkpt lat="42.64015" lon="1.69584">
        <ele>1815.81</ele>
        <time>2021-07-19T13:17:19Z</time>
      </trkpt>
      <trkpt lat="42.64015" lon="1.69586">
        <ele>1814.883</ele>
        <time>2021-07-19T13:17:21Z</time>
      </trkpt>
      <trkpt lat="42.64016" lon="1.69588">
        <ele>1815.096</ele>
        <time>2021-07-19T13:17:23Z</time>
      </trkpt>
      <trkpt lat="42.64016" lon="1.6959">
        <ele>1815.291</ele>
        <time>2021-07-19T13:17:25Z</time>
      </trkpt>
      <trkpt lat="42.64016" lon="1.69593">
        <ele>1814.416</ele>
        <time>2021-07-19T13:17:27Z</time>
      </trkpt>
      <trkpt lat="42.64017" lon="1.69594">
        <ele>1814.468</ele>
        <time>2021-07-19T13:17:29Z</time>
      </trkpt>
      <trkpt lat="42.64019" lon="1.69595">
        <ele>1815.62</ele>
        <time>2021-07-19T13:17:31Z</time>
      </trkpt>
      <trkpt lat="42.6402" lon="1.69597">
        <ele>1815.782</ele>
        <time>2021-07-19T13:17:33Z</time>
      </trkpt>
      <trkpt lat="42.64022" lon="1.696">
        <ele>1817.289</ele>
        <time>2021-07-19T13:17:35Z</time>
      </trkpt>
      <trkpt lat="42.64025" lon="1.69601">
        <ele>1821.84</ele>
        <time>2021-07-19T13:17:37Z</time>
      </trkpt>
      <trkpt lat="42.64028" lon="1.69603">
        <ele>1824.279</ele>
        <time>2021-07-19T13:17:39Z</time>
      </trkpt>
      <trkpt lat="42.6403" lon="1.69606">
        <ele>1825.355</ele>
        <time>2021-07-19T13:17:41Z</time>
      </trkpt>
      <trkpt lat="42.6403" lon="1.6961">
        <ele>1826.546</ele>
        <time>2021-07-19T13:17:43Z</time>
      </trkpt>
      <trkpt lat="42.6403" lon="1.6961">
        <ele>1825.826</ele>
        <time>2021-07-19T13:17:45Z</time>
      </trkpt>
      <trkpt lat="42.64032" lon="1.6961">
        <ele>1824.713</ele>
        <time>2021-07-19T13:17:47Z</time>
      </trkpt>
      <trkpt lat="42.64033" lon="1.6961">
        <ele>1825.077</ele>
        <time>2021-07-19T13:17:49Z</time>
      </trkpt>
      <trkpt lat="42.64034" lon="1.69611">
        <ele>1824.145</ele>
        <time>2021-07-19T13:17:51Z</time>
      </trkpt>
      <trkpt lat="42.64035" lon="1.69612">
        <ele>1823.495</ele>
        <time>2021-07-19T13:17:53Z</time>
      </trkpt>
      <trkpt lat="42.64036" lon="1.69613">
        <ele>1822.375</ele>
        <time>2021-07-19T13:17:55Z</time>
      </trkpt>
      <trkpt lat="42.64036" lon="1.69615">
        <ele>1822.113</ele>
        <time>2021-07-19T13:17:57Z</time>
      </trkpt>
      <trkpt lat="42.64036" lon="1.69615">
        <ele>1821.31</ele>
        <time>2021-07-19T13:17:59Z</time>
      </trkpt>
      <trkpt lat="42.64036" lon="1.69616">
        <ele>1820.902</ele>
        <time>2021-07-19T13:18:01Z</time>
      </trkpt>
      <trkpt lat="42.64036" lon="1.69617">
        <ele>1821.286</ele>
        <time>2021-07-19T13:18:03Z</time>
      </trkpt>
      <trkpt lat="42.64037" lon="1.69618">
        <ele>1821.332</ele>
        <time>2021-07-19T13:18:05Z</time>
      </trkpt>
      <trkpt lat="42.64038" lon="1.6962">
        <ele>1821.176</ele>
        <time>2021-07-19T13:18:07Z</time>
      </trkpt>
      <trkpt lat="42.64038" lon="1.69621">
        <ele>1821.159</ele>
        <time>2021-07-19T13:18:09Z</time>
      </trkpt>
      <trkpt lat="42.64038" lon="1.69623">
        <ele>1820.331</ele>
        <time>2021-07-19T13:18:11Z</time>
      </trkpt>
      <trkpt lat="42.64038" lon="1.69623">
        <ele>1818.969</ele>
        <time>2021-07-19T13:18:13Z</time>
      </trkpt>
      <trkpt lat="42.64038" lon="1.69624">
        <ele>1816.986</ele>
        <time>2021-07-19T13:18:15Z</time>
      </trkpt>
      <trkpt lat="42.64039" lon="1.69625">
        <ele>1815.856</ele>
        <time>2021-07-19T13:18:17Z</time>
      </trkpt>
      <trkpt lat="42.64039" lon="1.69626">
        <ele>1815.137</ele>
        <time>2021-07-19T13:18:19Z</time>
      </trkpt>
      <trkpt lat="42.64041" lon="1.69628">
        <ele>1815.447</ele>
        <time>2021-07-19T13:18:21Z</time>
      </trkpt>
      <trkpt lat="42.64042" lon="1.69629">
        <ele>1813.114</ele>
        <time>2021-07-19T13:18:23Z</time>
      </trkpt>
      <trkpt lat="42.64042" lon="1.69631">
        <ele>1812.079</ele>
        <time>2021-07-19T13:18:25Z</time>
      </trkpt>
      <trkpt lat="42.64043" lon="1.69634">
        <ele>1810.864</ele>
        <time>2021-07-19T13:18:27Z</time>
      </trkpt>
      <trkpt lat="42.64043" lon="1.69635">
        <ele>1809.541</ele>
        <time>2021-07-19T13:18:29Z</time>
      </trkpt>
      <trkpt lat="42.64043" lon="1.69638">
        <ele>1807.96</ele>
        <time>2021-07-19T13:18:31Z</time>
      </trkpt>
      <trkpt lat="42.64044" lon="1.6964">
        <ele>1806.461</ele>
        <time>2021-07-19T13:18:33Z</time>
      </trkpt>
      <trkpt lat="42.64045" lon="1.69643">
        <ele>1804.992</ele>
        <time>2021-07-19T13:18:35Z</time>
      </trkpt>
      <trkpt lat="42.64047" lon="1.69645">
        <ele>1805.054</ele>
        <time>2021-07-19T13:18:37Z</time>
      </trkpt>
      <trkpt lat="42.64049" lon="1.69649">
        <ele>1804.856</ele>
        <time>2021-07-19T13:18:39Z</time>
      </trkpt>
      <trkpt lat="42.64051" lon="1.69655">
        <ele>1803.652</ele>
        <time>2021-07-19T13:18:41Z</time>
      </trkpt>
      <trkpt lat="42.64051" lon="1.6966">
        <ele>1803.686</ele>
        <time>2021-07-19T13:18:43Z</time>
      </trkpt>
      <trkpt lat="42.6405" lon="1.69664">
        <ele>1802.368</ele>
        <time>2021-07-19T13:18:45Z</time>
      </trkpt>
      <trkpt lat="42.64051" lon="1.69666">
        <ele>1802.037</ele>
        <time>2021-07-19T13:18:47Z</time>
      </trkpt>
      <trkpt lat="42.64051" lon="1.69669">
        <ele>1801.396</ele>
        <time>2021-07-19T13:18:49Z</time>
      </trkpt>
      <trkpt lat="42.64052" lon="1.69673">
        <ele>1801.013</ele>
        <time>2021-07-19T13:18:51Z</time>
      </trkpt>
      <trkpt lat="42.64053" lon="1.69676">
        <ele>1801.273</ele>
        <time>2021-07-19T13:18:53Z</time>
      </trkpt>
      <trkpt lat="42.64054" lon="1.69679">
        <ele>1800.537</ele>
        <time>2021-07-19T13:18:55Z</time>
      </trkpt>
      <trkpt lat="42.64055" lon="1.69682">
        <ele>1800.373</ele>
        <time>2021-07-19T13:18:57Z</time>
      </trkpt>
      <trkpt lat="42.64057" lon="1.69684">
        <ele>1800.451</ele>
        <time>2021-07-19T13:18:59Z</time>
      </trkpt>
      <trkpt lat="42.64058" lon="1.69686">
        <ele>1800.145</ele>
        <time>2021-07-19T13:19:01Z</time>
      </trkpt>
      <trkpt lat="42.6406" lon="1.69687">
        <ele>1799.541</ele>
        <time>2021-07-19T13:19:03Z</time>
      </trkpt>
      <trkpt lat="42.64061" lon="1.6969">
        <ele>1798.52</ele>
        <time>2021-07-19T13:19:05Z</time>
      </trkpt>
      <trkpt lat="42.64061" lon="1.69692">
        <ele>1798.177</ele>
        <time>2021-07-19T13:19:07Z</time>
      </trkpt>
      <trkpt lat="42.64061" lon="1.69696">
        <ele>1797.204</ele>
        <time>2021-07-19T13:19:09Z</time>
      </trkpt>
      <trkpt lat="42.64063" lon="1.69698">
        <ele>1796.623</ele>
        <time>2021-07-19T13:19:11Z</time>
      </trkpt>
      <trkpt lat="42.64063" lon="1.69701">
        <ele>1795.85</ele>
        <time>2021-07-19T13:19:13Z</time>
      </trkpt>
      <trkpt lat="42.64064" lon="1.69704">
        <ele>1795.094</ele>
        <time>2021-07-19T13:19:15Z</time>
      </trkpt>
      <trkpt lat="42.64064" lon="1.69708">
        <ele>1794.041</ele>
        <time>2021-07-19T13:19:17Z</time>
      </trkpt>
      <trkpt lat="42.64065" lon="1.6971">
        <ele>1794.449</ele>
        <time>2021-07-19T13:19:19Z</time>
      </trkpt>
      <trkpt lat="42.64066" lon="1.69712">
        <ele>1794.128</ele>
        <time>2021-07-19T13:19:21Z</time>
      </trkpt>
      <trkpt lat="42.64069" lon="1.69714">
        <ele>1794.406</ele>
        <time>2021-07-19T13:19:23Z</time>
      </trkpt>
      <trkpt lat="42.6407" lon="1.69717">
        <ele>1794.727</ele>
        <time>2021-07-19T13:19:25Z</time>
      </trkpt>
      <trkpt lat="42.64072" lon="1.6972">
        <ele>1794.005</ele>
        <time>2021-07-19T13:19:27Z</time>
      </trkpt>
      <trkpt lat="42.64074" lon="1.69722">
        <ele>1793.058</ele>
        <time>2021-07-19T13:19:29Z</time>
      </trkpt>
      <trkpt lat="42.64075" lon="1.69725">
        <ele>1792.857</ele>
        <time>2021-07-19T13:19:31Z</time>
      </trkpt>
      <trkpt lat="42.64074" lon="1.69729">
        <ele>1792.07</ele>
        <time>2021-07-19T13:19:33Z</time>
      </trkpt>
      <trkpt lat="42.64077" lon="1.69731">
        <ele>1793.727</ele>
        <time>2021-07-19T13:19:35Z</time>
      </trkpt>
      <trkpt lat="42.6408" lon="1.69729">
        <ele>1795.164</ele>
        <time>2021-07-19T13:19:37Z</time>
      </trkpt>
      <trkpt lat="42.64081" lon="1.69729">
        <ele>1796.33</ele>
        <time>2021-07-19T13:19:39Z</time>
      </trkpt>
      <trkpt lat="42.64082" lon="1.69732">
        <ele>1796.542</ele>
        <time>2021-07-19T13:19:41Z</time>
      </trkpt>
      <trkpt lat="42.64083" lon="1.69733">
        <ele>1796.02</ele>
        <time>2021-07-19T13:19:43Z</time>
      </trkpt>
      <trkpt lat="42.64083" lon="1.69735">
        <ele>1795.543</ele>
        <time>2021-07-19T13:19:45Z</time>
      </trkpt>
      <trkpt lat="42.64084" lon="1.69737">
        <ele>1794.687</ele>
        <time>2021-07-19T13:19:47Z</time>
      </trkpt>
      <trkpt lat="42.64084" lon="1.6974">
        <ele>1793.91</ele>
        <time>2021-07-19T13:19:49Z</time>
      </trkpt>
      <trkpt lat="42.64086" lon="1.69742">
        <ele>1793.614</ele>
        <time>2021-07-19T13:19:51Z</time>
      </trkpt>
      <trkpt lat="42.64086" lon="1.69745">
        <ele>1793.297</ele>
        <time>2021-07-19T13:19:53Z</time>
      </trkpt>
      <trkpt lat="42.64088" lon="1.69747">
        <ele>1792.241</ele>
        <time>2021-07-19T13:19:55Z</time>
      </trkpt>
      <trkpt lat="42.64089" lon="1.69748">
        <ele>1791.186</ele>
        <time>2021-07-19T13:19:57Z</time>
      </trkpt>
      <trkpt lat="42.64089" lon="1.69751">
        <ele>1789.952</ele>
        <time>2021-07-19T13:19:59Z</time>
      </trkpt>
      <trkpt lat="42.64089" lon="1.69754">
        <ele>1788.863</ele>
        <time>2021-07-19T13:20:01Z</time>
      </trkpt>
      <trkpt lat="42.6409" lon="1.69756">
        <ele>1788.946</ele>
        <time>2021-07-19T13:20:03Z</time>
      </trkpt>
      <trkpt lat="42.64091" lon="1.69759">
        <ele>1787.853</ele>
        <time>2021-07-19T13:20:05Z</time>
      </trkpt>
      <trkpt lat="42.64092" lon="1.69761">
        <ele>1786.404</ele>
        <time>2021-07-19T13:20:07Z</time>
      </trkpt>
      <trkpt lat="42.64093" lon="1.69763">
        <ele>1786.278</ele>
        <time>2021-07-19T13:20:09Z</time>
      </trkpt>
      <trkpt lat="42.64094" lon="1.69765">
        <ele>1785.621</ele>
        <time>2021-07-19T13:20:11Z</time>
      </trkpt>
      <trkpt lat="42.64095" lon="1.69767">
        <ele>1784.213</ele>
        <time>2021-07-19T13:20:13Z</time>
      </trkpt>
      <trkpt lat="42.64096" lon="1.69769">
        <ele>1782.937</ele>
        <time>2021-07-19T13:20:15Z</time>
      </trkpt>
      <trkpt lat="42.64096" lon="1.69772">
        <ele>1782.043</ele>
        <time>2021-07-19T13:20:17Z</time>
      </trkpt>
      <trkpt lat="42.64096" lon="1.69775">
        <ele>1781.876</ele>
        <time>2021-07-19T13:20:19Z</time>
      </trkpt>
      <trkpt lat="42.64096" lon="1.69778">
        <ele>1780.562</ele>
        <time>2021-07-19T13:20:21Z</time>
      </trkpt>
      <trkpt lat="42.64098" lon="1.6978">
        <ele>1779.903</ele>
        <time>2021-07-19T13:20:23Z</time>
      </trkpt>
      <trkpt lat="42.641" lon="1.6978">
        <ele>1779.763</ele>
        <time>2021-07-19T13:20:25Z</time>
      </trkpt>
      <trkpt lat="42.64101" lon="1.69781">
        <ele>1778.93</ele>
        <time>2021-07-19T13:20:27Z</time>
      </trkpt>
      <trkpt lat="42.64103" lon="1.69782">
        <ele>1778.795</ele>
        <time>2021-07-19T13:20:29Z</time>
      </trkpt>
      <trkpt lat="42.64105" lon="1.69784">
        <ele>1777.904</ele>
        <time>2021-07-19T13:20:31Z</time>
      </trkpt>
      <trkpt lat="42.64106" lon="1.69786">
        <ele>1777.236</ele>
        <time>2021-07-19T13:20:33Z</time>
      </trkpt>
      <trkpt lat="42.64108" lon="1.69787">
        <ele>1777.404</ele>
        <time>2021-07-19T13:20:35Z</time>
      </trkpt>
      <trkpt lat="42.64109" lon="1.69789">
        <ele>1776.681</ele>
        <time>2021-07-19T13:20:37Z</time>
      </trkpt>
      <trkpt lat="42.64111" lon="1.6979">
        <ele>1776.159</ele>
        <time>2021-07-19T13:20:39Z</time>
      </trkpt>
      <trkpt lat="42.64112" lon="1.69791">
        <ele>1776.471</ele>
        <time>2021-07-19T13:20:41Z</time>
      </trkpt>
      <trkpt lat="42.64114" lon="1.69793">
        <ele>1776.92</ele>
        <time>2021-07-19T13:20:43Z</time>
      </trkpt>
      <trkpt lat="42.64115" lon="1.69795">
        <ele>1776.771</ele>
        <time>2021-07-19T13:20:45Z</time>
      </trkpt>
      <trkpt lat="42.64116" lon="1.69796">
        <ele>1776.358</ele>
        <time>2021-07-19T13:20:47Z</time>
      </trkpt>
      <trkpt lat="42.64118" lon="1.69798">
        <ele>1775.784</ele>
        <time>2021-07-19T13:20:49Z</time>
      </trkpt>
      <trkpt lat="42.6412" lon="1.69801">
        <ele>1775.534</ele>
        <time>2021-07-19T13:20:51Z</time>
      </trkpt>
      <trkpt lat="42.64122" lon="1.69802">
        <ele>1775.269</ele>
        <time>2021-07-19T13:20:53Z</time>
      </trkpt>
      <trkpt lat="42.64125" lon="1.69803">
        <ele>1775.319</ele>
        <time>2021-07-19T13:20:55Z</time>
      </trkpt>
      <trkpt lat="42.64127" lon="1.69805">
        <ele>1774.866</ele>
        <time>2021-07-19T13:20:57Z</time>
      </trkpt>
      <trkpt lat="42.64127" lon="1.69807">
        <ele>1773.165</ele>
        <time>2021-07-19T13:20:59Z</time>
      </trkpt>
      <trkpt lat="42.64129" lon="1.69809">
        <ele>1772.301</ele>
        <time>2021-07-19T13:21:01Z</time>
      </trkpt>
      <trkpt lat="42.64131" lon="1.6981">
        <ele>1771.608</ele>
        <time>2021-07-19T13:21:03Z</time>
      </trkpt>
      <trkpt lat="42.64134" lon="1.69811">
        <ele>1770.594</ele>
        <time>2021-07-19T13:21:05Z</time>
      </trkpt>
      <trkpt lat="42.64136" lon="1.69813">
        <ele>1769.728</ele>
        <time>2021-07-19T13:21:07Z</time>
      </trkpt>
      <trkpt lat="42.64139" lon="1.69814">
        <ele>1769.165</ele>
        <time>2021-07-19T13:21:09Z</time>
      </trkpt>
      <trkpt lat="42.64141" lon="1.69815">
        <ele>1769.095</ele>
        <time>2021-07-19T13:21:11Z</time>
      </trkpt>
      <trkpt lat="42.64144" lon="1.69816">
        <ele>1768.561</ele>
        <time>2021-07-19T13:21:13Z</time>
      </trkpt>
      <trkpt lat="42.64146" lon="1.69818">
        <ele>1768.263</ele>
        <time>2021-07-19T13:21:15Z</time>
      </trkpt>
      <trkpt lat="42.64148" lon="1.6982">
        <ele>1768.9</ele>
        <time>2021-07-19T13:21:17Z</time>
      </trkpt>
      <trkpt lat="42.6415" lon="1.69822">
        <ele>1769.641</ele>
        <time>2021-07-19T13:21:19Z</time>
      </trkpt>
      <trkpt lat="42.64151" lon="1.6982">
        <ele>1767.569</ele>
        <time>2021-07-19T13:21:21Z</time>
      </trkpt>
      <trkpt lat="42.64151" lon="1.69819">
        <ele>1767.331</ele>
        <time>2021-07-19T13:21:23Z</time>
      </trkpt>
      <trkpt lat="42.64151" lon="1.6982">
        <ele>1767.285</ele>
        <time>2021-07-19T13:21:25Z</time>
      </trkpt>
      <trkpt lat="42.64152" lon="1.69821">
        <ele>1767.221</ele>
        <time>2021-07-19T13:21:27Z</time>
      </trkpt>
      <trkpt lat="42.64153" lon="1.69823">
        <ele>1767.543</ele>
        <time>2021-07-19T13:21:29Z</time>
      </trkpt>
      <trkpt lat="42.64155" lon="1.69824">
        <ele>1767.927</ele>
        <time>2021-07-19T13:21:31Z</time>
      </trkpt>
      <trkpt lat="42.64156" lon="1.69826">
        <ele>1767.508</ele>
        <time>2021-07-19T13:21:33Z</time>
      </trkpt>
      <trkpt lat="42.64157" lon="1.69829">
        <ele>1767.948</ele>
        <time>2021-07-19T13:21:35Z</time>
      </trkpt>
      <trkpt lat="42.64159" lon="1.69832">
        <ele>1768.814</ele>
        <time>2021-07-19T13:21:37Z</time>
      </trkpt>
      <trkpt lat="42.64161" lon="1.69834">
        <ele>1769.894</ele>
        <time>2021-07-19T13:21:39Z</time>
      </trkpt>
      <trkpt lat="42.64162" lon="1.69837">
        <ele>1771.261</ele>
        <time>2021-07-19T13:21:41Z</time>
      </trkpt>
      <trkpt lat="42.64163" lon="1.69841">
        <ele>1771.077</ele>
        <time>2021-07-19T13:21:43Z</time>
      </trkpt>
      <trkpt lat="42.64164" lon="1.69843">
        <ele>1772.216</ele>
        <time>2021-07-19T13:21:45Z</time>
      </trkpt>
      <trkpt lat="42.64165" lon="1.69847">
        <ele>1772.747</ele>
        <time>2021-07-19T13:21:47Z</time>
      </trkpt>
      <trkpt lat="42.64166" lon="1.69851">
        <ele>1773.184</ele>
        <time>2021-07-19T13:21:49Z</time>
      </trkpt>
      <trkpt lat="42.64167" lon="1.69854">
        <ele>1773.415</ele>
        <time>2021-07-19T13:21:51Z</time>
      </trkpt>
      <trkpt lat="42.64169" lon="1.69856">
        <ele>1773.179</ele>
        <time>2021-07-19T13:21:53Z</time>
      </trkpt>
      <trkpt lat="42.64171" lon="1.69856">
        <ele>1773.604</ele>
        <time>2021-07-19T13:21:55Z</time>
      </trkpt>
      <trkpt lat="42.64173" lon="1.69856">
        <ele>1773.329</ele>
        <time>2021-07-19T13:21:57Z</time>
      </trkpt>
      <trkpt lat="42.64174" lon="1.69857">
        <ele>1772.716</ele>
        <time>2021-07-19T13:21:59Z</time>
      </trkpt>
      <trkpt lat="42.64176" lon="1.69857">
        <ele>1772.134</ele>
        <time>2021-07-19T13:22:01Z</time>
      </trkpt>
      <trkpt lat="42.64177" lon="1.69857">
        <ele>1771.52</ele>
        <time>2021-07-19T13:22:03Z</time>
      </trkpt>
      <trkpt lat="42.64179" lon="1.69858">
        <ele>1770.584</ele>
        <time>2021-07-19T13:22:05Z</time>
      </trkpt>
      <trkpt lat="42.6418" lon="1.69858">
        <ele>1769.921</ele>
        <time>2021-07-19T13:22:07Z</time>
      </trkpt>
      <trkpt lat="42.64182" lon="1.69859">
        <ele>1769.134</ele>
        <time>2021-07-19T13:22:09Z</time>
      </trkpt>
      <trkpt lat="42.64183" lon="1.69859">
        <ele>1768.749</ele>
        <time>2021-07-19T13:22:11Z</time>
      </trkpt>
      <trkpt lat="42.64184" lon="1.6986">
        <ele>1768.026</ele>
        <time>2021-07-19T13:22:13Z</time>
      </trkpt>
      <trkpt lat="42.64186" lon="1.69861">
        <ele>1766.665</ele>
        <time>2021-07-19T13:22:15Z</time>
      </trkpt>
      <trkpt lat="42.64186" lon="1.69862">
        <ele>1767.518</ele>
        <time>2021-07-19T13:22:17Z</time>
      </trkpt>
      <trkpt lat="42.64188" lon="1.69864">
        <ele>1766.649</ele>
        <time>2021-07-19T13:22:19Z</time>
      </trkpt>
      <trkpt lat="42.64188" lon="1.69865">
        <ele>1765.445</ele>
        <time>2021-07-19T13:22:21Z</time>
      </trkpt>
      <trkpt lat="42.6419" lon="1.69867">
        <ele>1764.599</ele>
        <time>2021-07-19T13:22:23Z</time>
      </trkpt>
      <trkpt lat="42.6419" lon="1.69869">
        <ele>1762.747</ele>
        <time>2021-07-19T13:22:25Z</time>
      </trkpt>
      <trkpt lat="42.6419" lon="1.69872">
        <ele>1761.69</ele>
        <time>2021-07-19T13:22:27Z</time>
      </trkpt>
      <trkpt lat="42.64192" lon="1.69873">
        <ele>1760.78</ele>
        <time>2021-07-19T13:22:29Z</time>
      </trkpt>
      <trkpt lat="42.64194" lon="1.69874">
        <ele>1759.241</ele>
        <time>2021-07-19T13:22:31Z</time>
      </trkpt>
      <trkpt lat="42.64196" lon="1.69876">
        <ele>1758.484</ele>
        <time>2021-07-19T13:22:33Z</time>
      </trkpt>
      <trkpt lat="42.64198" lon="1.69877">
        <ele>1757.662</ele>
        <time>2021-07-19T13:22:35Z</time>
      </trkpt>
      <trkpt lat="42.642" lon="1.69878">
        <ele>1756.169</ele>
        <time>2021-07-19T13:22:37Z</time>
      </trkpt>
      <trkpt lat="42.64202" lon="1.6988">
        <ele>1755.671</ele>
        <time>2021-07-19T13:22:39Z</time>
      </trkpt>
      <trkpt lat="42.64204" lon="1.69881">
        <ele>1754.778</ele>
        <time>2021-07-19T13:22:41Z</time>
      </trkpt>
      <trkpt lat="42.64206" lon="1.69883">
        <ele>1754.565</ele>
        <time>2021-07-19T13:22:43Z</time>
      </trkpt>
      <trkpt lat="42.64208" lon="1.69884">
        <ele>1752.91</ele>
        <time>2021-07-19T13:22:45Z</time>
      </trkpt>
      <trkpt lat="42.6421" lon="1.69887">
        <ele>1752.001</ele>
        <time>2021-07-19T13:22:47Z</time>
      </trkpt>
      <trkpt lat="42.64213" lon="1.69889">
        <ele>1748.084</ele>
        <time>2021-07-19T13:22:49Z</time>
      </trkpt>
      <trkpt lat="42.64216" lon="1.6989">
        <ele>1746.825</ele>
        <time>2021-07-19T13:22:51Z</time>
      </trkpt>
      <trkpt lat="42.64219" lon="1.69891">
        <ele>1747.018</ele>
        <time>2021-07-19T13:22:53Z</time>
      </trkpt>
      <trkpt lat="42.64222" lon="1.69892">
        <ele>1746.862</ele>
        <time>2021-07-19T13:22:55Z</time>
      </trkpt>
      <trkpt lat="42.64224" lon="1.69893">
        <ele>1746.722</ele>
        <time>2021-07-19T13:22:57Z</time>
      </trkpt>
      <trkpt lat="42.64226" lon="1.69895">
        <ele>1746.468</ele>
        <time>2021-07-19T13:22:59Z</time>
      </trkpt>
      <trkpt lat="42.64227" lon="1.69897">
        <ele>1746.989</ele>
        <time>2021-07-19T13:23:01Z</time>
      </trkpt>
      <trkpt lat="42.64229" lon="1.69899">
        <ele>1746.565</ele>
        <time>2021-07-19T13:23:03Z</time>
      </trkpt>
      <trkpt lat="42.6423" lon="1.699">
        <ele>1745.957</ele>
        <time>2021-07-19T13:23:05Z</time>
      </trkpt>
      <trkpt lat="42.64231" lon="1.69903">
        <ele>1745.16</ele>
        <time>2021-07-19T13:23:07Z</time>
      </trkpt>
      <trkpt lat="42.64233" lon="1.69905">
        <ele>1744.132</ele>
        <time>2021-07-19T13:23:09Z</time>
      </trkpt>
      <trkpt lat="42.64235" lon="1.69906">
        <ele>1742.968</ele>
        <time>2021-07-19T13:23:11Z</time>
      </trkpt>
      <trkpt lat="42.64237" lon="1.69908">
        <ele>1742.262</ele>
        <time>2021-07-19T13:23:13Z</time>
      </trkpt>
      <trkpt lat="42.64239" lon="1.69909">
        <ele>1741.763</ele>
        <time>2021-07-19T13:23:15Z</time>
      </trkpt>
      <trkpt lat="42.64242" lon="1.69909">
        <ele>1741.423</ele>
        <time>2021-07-19T13:23:17Z</time>
      </trkpt>
      <trkpt lat="42.64244" lon="1.6991">
        <ele>1741.297</ele>
        <time>2021-07-19T13:23:19Z</time>
      </trkpt>
      <trkpt lat="42.64246" lon="1.6991">
        <ele>1741.522</ele>
        <time>2021-07-19T13:23:21Z</time>
      </trkpt>
      <trkpt lat="42.64248" lon="1.69911">
        <ele>1741.52</ele>
        <time>2021-07-19T13:23:23Z</time>
      </trkpt>
      <trkpt lat="42.64249" lon="1.69912">
        <ele>1741.724</ele>
        <time>2021-07-19T13:23:25Z</time>
      </trkpt>
      <trkpt lat="42.6425" lon="1.69914">
        <ele>1741.304</ele>
        <time>2021-07-19T13:23:27Z</time>
      </trkpt>
      <trkpt lat="42.64251" lon="1.69916">
        <ele>1740.578</ele>
        <time>2021-07-19T13:23:29Z</time>
      </trkpt>
      <trkpt lat="42.64253" lon="1.69917">
        <ele>1740.271</ele>
        <time>2021-07-19T13:23:31Z</time>
      </trkpt>
      <trkpt lat="42.64255" lon="1.69917">
        <ele>1739.8</ele>
        <time>2021-07-19T13:23:33Z</time>
      </trkpt>
      <trkpt lat="42.64256" lon="1.69918">
        <ele>1739.277</ele>
        <time>2021-07-19T13:23:35Z</time>
      </trkpt>
      <trkpt lat="42.64259" lon="1.69918">
        <ele>1738.19</ele>
        <time>2021-07-19T13:23:37Z</time>
      </trkpt>
      <trkpt lat="42.6426" lon="1.69919">
        <ele>1737.217</ele>
        <time>2021-07-19T13:23:39Z</time>
      </trkpt>
      <trkpt lat="42.64262" lon="1.6992">
        <ele>1737.421</ele>
        <time>2021-07-19T13:23:41Z</time>
      </trkpt>
      <trkpt lat="42.64264" lon="1.6992">
        <ele>1737.624</ele>
        <time>2021-07-19T13:23:43Z</time>
      </trkpt>
      <trkpt lat="42.64266" lon="1.69921">
        <ele>1737.357</ele>
        <time>2021-07-19T13:23:45Z</time>
      </trkpt>
      <trkpt lat="42.64267" lon="1.69922">
        <ele>1736.848</ele>
        <time>2021-07-19T13:23:47Z</time>
      </trkpt>
      <trkpt lat="42.64269" lon="1.69924">
        <ele>1735.979</ele>
        <time>2021-07-19T13:23:49Z</time>
      </trkpt>
      <trkpt lat="42.64271" lon="1.69925">
        <ele>1735.717</ele>
        <time>2021-07-19T13:23:51Z</time>
      </trkpt>
      <trkpt lat="42.64272" lon="1.69925">
        <ele>1735.18</ele>
        <time>2021-07-19T13:23:53Z</time>
      </trkpt>
      <trkpt lat="42.64274" lon="1.69925">
        <ele>1734.882</ele>
        <time>2021-07-19T13:23:55Z</time>
      </trkpt>
      <trkpt lat="42.64275" lon="1.69925">
        <ele>1735.195</ele>
        <time>2021-07-19T13:23:57Z</time>
      </trkpt>
      <trkpt lat="42.64277" lon="1.69926">
        <ele>1735.761</ele>
        <time>2021-07-19T13:23:59Z</time>
      </trkpt>
      <trkpt lat="42.64278" lon="1.69927">
        <ele>1736.01</ele>
        <time>2021-07-19T13:24:01Z</time>
      </trkpt>
      <trkpt lat="42.64279" lon="1.69928">
        <ele>1736.5</ele>
        <time>2021-07-19T13:24:03Z</time>
      </trkpt>
      <trkpt lat="42.6428" lon="1.69929">
        <ele>1736.73</ele>
        <time>2021-07-19T13:24:05Z</time>
      </trkpt>
      <trkpt lat="42.64282" lon="1.69929">
        <ele>1736.4</ele>
        <time>2021-07-19T13:24:07Z</time>
      </trkpt>
      <trkpt lat="42.64283" lon="1.6993">
        <ele>1736.791</ele>
        <time>2021-07-19T13:24:09Z</time>
      </trkpt>
      <trkpt lat="42.64285" lon="1.6993">
        <ele>1736.53</ele>
        <time>2021-07-19T13:24:11Z</time>
      </trkpt>
      <trkpt lat="42.64286" lon="1.6993">
        <ele>1735.888</ele>
        <time>2021-07-19T13:24:13Z</time>
      </trkpt>
      <trkpt lat="42.64289" lon="1.69931">
        <ele>1736.037</ele>
        <time>2021-07-19T13:24:15Z</time>
      </trkpt>
      <trkpt lat="42.6429" lon="1.69933">
        <ele>1736.598</ele>
        <time>2021-07-19T13:24:17Z</time>
      </trkpt>
      <trkpt lat="42.64292" lon="1.69934">
        <ele>1738.173</ele>
        <time>2021-07-19T13:24:19Z</time>
      </trkpt>
      <trkpt lat="42.64293" lon="1.69937">
        <ele>1738.881</ele>
        <time>2021-07-19T13:24:21Z</time>
      </trkpt>
      <trkpt lat="42.64296" lon="1.69937">
        <ele>1738.279</ele>
        <time>2021-07-19T13:24:23Z</time>
      </trkpt>
      <trkpt lat="42.64297" lon="1.69939">
        <ele>1738.459</ele>
        <time>2021-07-19T13:24:25Z</time>
      </trkpt>
      <trkpt lat="42.64297" lon="1.69939">
        <ele>1738.106</ele>
        <time>2021-07-19T13:24:27Z</time>
      </trkpt>
      <trkpt lat="42.64299" lon="1.69939">
        <ele>1738.033</ele>
        <time>2021-07-19T13:24:29Z</time>
      </trkpt>
      <trkpt lat="42.643" lon="1.6994">
        <ele>1737.797</ele>
        <time>2021-07-19T13:24:31Z</time>
      </trkpt>
      <trkpt lat="42.64301" lon="1.69941">
        <ele>1737.769</ele>
        <time>2021-07-19T13:24:33Z</time>
      </trkpt>
      <trkpt lat="42.64302" lon="1.69942">
        <ele>1737.703</ele>
        <time>2021-07-19T13:24:35Z</time>
      </trkpt>
      <trkpt lat="42.64304" lon="1.69943">
        <ele>1736.931</ele>
        <time>2021-07-19T13:24:37Z</time>
      </trkpt>
      <trkpt lat="42.64305" lon="1.69944">
        <ele>1736.111</ele>
        <time>2021-07-19T13:24:39Z</time>
      </trkpt>
      <trkpt lat="42.64306" lon="1.69945">
        <ele>1735.729</ele>
        <time>2021-07-19T13:24:41Z</time>
      </trkpt>
      <trkpt lat="42.64308" lon="1.69947">
        <ele>1734.821</ele>
        <time>2021-07-19T13:24:43Z</time>
      </trkpt>
      <trkpt lat="42.64307" lon="1.6995">
        <ele>1734.471</ele>
        <time>2021-07-19T13:24:45Z</time>
      </trkpt>
      <trkpt lat="42.64309" lon="1.69949">
        <ele>1734.506</ele>
        <time>2021-07-19T13:24:47Z</time>
      </trkpt>
      <trkpt lat="42.6431" lon="1.69951">
        <ele>1734.128</ele>
        <time>2021-07-19T13:24:49Z</time>
      </trkpt>
      <trkpt lat="42.64311" lon="1.69952">
        <ele>1733.995</ele>
        <time>2021-07-19T13:24:51Z</time>
      </trkpt>
      <trkpt lat="42.64313" lon="1.69954">
        <ele>1733.771</ele>
        <time>2021-07-19T13:24:53Z</time>
      </trkpt>
      <trkpt lat="42.64315" lon="1.69954">
        <ele>1733.28</ele>
        <time>2021-07-19T13:24:55Z</time>
      </trkpt>
      <trkpt lat="42.64316" lon="1.69955">
        <ele>1733.385</ele>
        <time>2021-07-19T13:24:57Z</time>
      </trkpt>
      <trkpt lat="42.64318" lon="1.69955">
        <ele>1733.065</ele>
        <time>2021-07-19T13:24:59Z</time>
      </trkpt>
      <trkpt lat="42.64321" lon="1.69956">
        <ele>1732.925</ele>
        <time>2021-07-19T13:25:01Z</time>
      </trkpt>
      <trkpt lat="42.64323" lon="1.69956">
        <ele>1732.439</ele>
        <time>2021-07-19T13:25:03Z</time>
      </trkpt>
      <trkpt lat="42.64325" lon="1.69956">
        <ele>1732.245</ele>
        <time>2021-07-19T13:25:05Z</time>
      </trkpt>
      <trkpt lat="42.64326" lon="1.69957">
        <ele>1731.823</ele>
        <time>2021-07-19T13:25:07Z</time>
      </trkpt>
      <trkpt lat="42.64328" lon="1.69957">
        <ele>1731.906</ele>
        <time>2021-07-19T13:25:09Z</time>
      </trkpt>
      <trkpt lat="42.6433" lon="1.69959">
        <ele>1731.774</ele>
        <time>2021-07-19T13:25:11Z</time>
      </trkpt>
      <trkpt lat="42.64332" lon="1.6996">
        <ele>1731.924</ele>
        <time>2021-07-19T13:25:13Z</time>
      </trkpt>
      <trkpt lat="42.64334" lon="1.69961">
        <ele>1731.585</ele>
        <time>2021-07-19T13:25:15Z</time>
      </trkpt>
      <trkpt lat="42.64337" lon="1.69962">
        <ele>1731.787</ele>
        <time>2021-07-19T13:25:17Z</time>
      </trkpt>
      <trkpt lat="42.64337" lon="1.69962">
        <ele>1732.129</ele>
        <time>2021-07-19T13:25:19Z</time>
      </trkpt>
      <trkpt lat="42.64337" lon="1.69962">
        <ele>1732.136</ele>
        <time>2021-07-19T13:25:21Z</time>
      </trkpt>
      <trkpt lat="42.64337" lon="1.69962">
        <ele>1732.132</ele>
        <time>2021-07-19T13:25:23Z</time>
      </trkpt>
      <trkpt lat="42.64337" lon="1.69962">
        <ele>1732.13</ele>
        <time>2021-07-19T13:25:25Z</time>
      </trkpt>
      <trkpt lat="42.64337" lon="1.69962">
        <ele>1732.129</ele>
        <time>2021-07-19T13:25:27Z</time>
      </trkpt>
      <trkpt lat="42.64337" lon="1.69962">
        <ele>1732.122</ele>
        <time>2021-07-19T13:25:29Z</time>
      </trkpt>
      <trkpt lat="42.64337" lon="1.69962">
        <ele>1732.113</ele>
        <time>2021-07-19T13:25:31Z</time>
      </trkpt>
      <trkpt lat="42.64337" lon="1.69962">
        <ele>1732.106</ele>
        <time>2021-07-19T13:25:33Z</time>
      </trkpt>
      <trkpt lat="42.64337" lon="1.69962">
        <ele>1732.103</ele>
        <time>2021-07-19T13:25:35Z</time>
      </trkpt>
      <trkpt lat="42.64337" lon="1.69962">
        <ele>1732.103</ele>
        <time>2021-07-19T13:25:37Z</time>
      </trkpt>
      <trkpt lat="42.64337" lon="1.69962">
        <ele>1732.109</ele>
        <time>2021-07-19T13:25:39Z</time>
      </trkpt>
      <trkpt lat="42.64337" lon="1.69962">
        <ele>1732.108</ele>
        <time>2021-07-19T13:25:41Z</time>
      </trkpt>
      <trkpt lat="42.64337" lon="1.69962">
        <ele>1732.103</ele>
        <time>2021-07-19T13:25:43Z</time>
      </trkpt>
      <trkpt lat="42.64337" lon="1.69962">
        <ele>1731.868</ele>
        <time>2021-07-19T13:25:45Z</time>
      </trkpt>
      <trkpt lat="42.64338" lon="1.69963">
        <ele>1731.912</ele>
        <time>2021-07-19T13:25:47Z</time>
      </trkpt>
      <trkpt lat="42.64338" lon="1.69963">
        <ele>1731.891</ele>
        <time>2021-07-19T13:25:49Z</time>
      </trkpt>
      <trkpt lat="42.64338" lon="1.69963">
        <ele>1731.888</ele>
        <time>2021-07-19T13:25:51Z</time>
      </trkpt>
      <trkpt lat="42.64338" lon="1.69963">
        <ele>1731.885</ele>
        <time>2021-07-19T13:25:53Z</time>
      </trkpt>
      <trkpt lat="42.64338" lon="1.69963">
        <ele>1731.88</ele>
        <time>2021-07-19T13:25:55Z</time>
      </trkpt>
      <trkpt lat="42.64338" lon="1.69963">
        <ele>1731.878</ele>
        <time>2021-07-19T13:25:57Z</time>
      </trkpt>
      <trkpt lat="42.64338" lon="1.69963">
        <ele>1731.702</ele>
        <time>2021-07-19T13:25:59Z</time>
      </trkpt>
      <trkpt lat="42.64339" lon="1.69963">
        <ele>1731.644</ele>
        <time>2021-07-19T13:26:01Z</time>
      </trkpt>
      <trkpt lat="42.64341" lon="1.69961">
        <ele>1730.572</ele>
        <time>2021-07-19T13:26:03Z</time>
      </trkpt>
      <trkpt lat="42.6434" lon="1.69961">
        <ele>1729.682</ele>
        <time>2021-07-19T13:26:05Z</time>
      </trkpt>
      <trkpt lat="42.6434" lon="1.69961">
        <ele>1729.692</ele>
        <time>2021-07-19T13:26:07Z</time>
      </trkpt>
      <trkpt lat="42.6434" lon="1.69961">
        <ele>1729.693</ele>
        <time>2021-07-19T13:26:09Z</time>
      </trkpt>
      <trkpt lat="42.64341" lon="1.69961">
        <ele>1729.823</ele>
        <time>2021-07-19T13:26:11Z</time>
      </trkpt>
      <trkpt lat="42.64343" lon="1.69959">
        <ele>1727.949</ele>
        <time>2021-07-19T13:26:13Z</time>
      </trkpt>
      <trkpt lat="42.64345" lon="1.69957">
        <ele>1726.217</ele>
        <time>2021-07-19T13:26:15Z</time>
      </trkpt>
      <trkpt lat="42.64347" lon="1.69958">
        <ele>1724.798</ele>
        <time>2021-07-19T13:26:17Z</time>
      </trkpt>
      <trkpt lat="42.64349" lon="1.69959">
        <ele>1724.645</ele>
        <time>2021-07-19T13:26:19Z</time>
      </trkpt>
      <trkpt lat="42.64351" lon="1.69961">
        <ele>1723.986</ele>
        <time>2021-07-19T13:26:21Z</time>
      </trkpt>
      <trkpt lat="42.64353" lon="1.69962">
        <ele>1723.907</ele>
        <time>2021-07-19T13:26:23Z</time>
      </trkpt>
      <trkpt lat="42.64355" lon="1.69963">
        <ele>1723.422</ele>
        <time>2021-07-19T13:26:25Z</time>
      </trkpt>
      <trkpt lat="42.64357" lon="1.69963">
        <ele>1723.333</ele>
        <time>2021-07-19T13:26:27Z</time>
      </trkpt>
      <trkpt lat="42.64358" lon="1.69964">
        <ele>1723.149</ele>
        <time>2021-07-19T13:26:29Z</time>
      </trkpt>
      <trkpt lat="42.6436" lon="1.69965">
        <ele>1723.242</ele>
        <time>2021-07-19T13:26:31Z</time>
      </trkpt>
      <trkpt lat="42.64362" lon="1.69966">
        <ele>1721.953</ele>
        <time>2021-07-19T13:26:33Z</time>
      </trkpt>
      <trkpt lat="42.64363" lon="1.69966">
        <ele>1720.597</ele>
        <time>2021-07-19T13:26:35Z</time>
      </trkpt>
      <trkpt lat="42.64365" lon="1.69966">
        <ele>1720.742</ele>
        <time>2021-07-19T13:26:37Z</time>
      </trkpt>
      <trkpt lat="42.64368" lon="1.69967">
        <ele>1721.443</ele>
        <time>2021-07-19T13:26:39Z</time>
      </trkpt>
      <trkpt lat="42.64371" lon="1.69967">
        <ele>1722.048</ele>
        <time>2021-07-19T13:26:41Z</time>
      </trkpt>
      <trkpt lat="42.64373" lon="1.69967">
        <ele>1722.073</ele>
        <time>2021-07-19T13:26:43Z</time>
      </trkpt>
      <trkpt lat="42.64377" lon="1.69968">
        <ele>1722.231</ele>
        <time>2021-07-19T13:26:46Z</time>
      </trkpt>
      <trkpt lat="42.64379" lon="1.69971">
        <ele>1721.869</ele>
        <time>2021-07-19T13:26:48Z</time>
      </trkpt>
      <trkpt lat="42.64381" lon="1.69973">
        <ele>1721.856</ele>
        <time>2021-07-19T13:26:50Z</time>
      </trkpt>
      <trkpt lat="42.64383" lon="1.69975">
        <ele>1721.12</ele>
        <time>2021-07-19T13:26:52Z</time>
      </trkpt>
      <trkpt lat="42.64386" lon="1.69978">
        <ele>1720.764</ele>
        <time>2021-07-19T13:26:54Z</time>
      </trkpt>
      <trkpt lat="42.64388" lon="1.6998">
        <ele>1720.409</ele>
        <time>2021-07-19T13:26:56Z</time>
      </trkpt>
      <trkpt lat="42.6439" lon="1.69983">
        <ele>1720.307</ele>
        <time>2021-07-19T13:26:58Z</time>
      </trkpt>
      <trkpt lat="42.64393" lon="1.69985">
        <ele>1719.66</ele>
        <time>2021-07-19T13:27:00Z</time>
      </trkpt>
      <trkpt lat="42.64396" lon="1.69987">
        <ele>1719.233</ele>
        <time>2021-07-19T13:27:02Z</time>
      </trkpt>
      <trkpt lat="42.64398" lon="1.69988">
        <ele>1719.06</ele>
        <time>2021-07-19T13:27:04Z</time>
      </trkpt>
      <trkpt lat="42.644" lon="1.6999">
        <ele>1718.993</ele>
        <time>2021-07-19T13:27:06Z</time>
      </trkpt>
      <trkpt lat="42.64402" lon="1.69991">
        <ele>1718.998</ele>
        <time>2021-07-19T13:27:08Z</time>
      </trkpt>
      <trkpt lat="42.64405" lon="1.69994">
        <ele>1718.561</ele>
        <time>2021-07-19T13:27:10Z</time>
      </trkpt>
      <trkpt lat="42.64408" lon="1.69996">
        <ele>1718.218</ele>
        <time>2021-07-19T13:27:12Z</time>
      </trkpt>
      <trkpt lat="42.6441" lon="1.69997">
        <ele>1717.236</ele>
        <time>2021-07-19T13:27:14Z</time>
      </trkpt>
      <trkpt lat="42.64413" lon="1.69998">
        <ele>1716.036</ele>
        <time>2021-07-19T13:27:16Z</time>
      </trkpt>
      <trkpt lat="42.64415" lon="1.7">
        <ele>1715.444</ele>
        <time>2021-07-19T13:27:18Z</time>
      </trkpt>
      <trkpt lat="42.64417" lon="1.70001">
        <ele>1714.711</ele>
        <time>2021-07-19T13:27:20Z</time>
      </trkpt>
      <trkpt lat="42.6442" lon="1.70003">
        <ele>1714.366</ele>
        <time>2021-07-19T13:27:22Z</time>
      </trkpt>
      <trkpt lat="42.64422" lon="1.70005">
        <ele>1713.883</ele>
        <time>2021-07-19T13:27:24Z</time>
      </trkpt>
      <trkpt lat="42.64425" lon="1.70006">
        <ele>1713.559</ele>
        <time>2021-07-19T13:27:26Z</time>
      </trkpt>
      <trkpt lat="42.64427" lon="1.70008">
        <ele>1713.386</ele>
        <time>2021-07-19T13:27:28Z</time>
      </trkpt>
      <trkpt lat="42.64429" lon="1.70009">
        <ele>1713.009</ele>
        <time>2021-07-19T13:27:30Z</time>
      </trkpt>
      <trkpt lat="42.64431" lon="1.7001">
        <ele>1713.112</ele>
        <time>2021-07-19T13:27:32Z</time>
      </trkpt>
      <trkpt lat="42.64433" lon="1.70013">
        <ele>1713.571</ele>
        <time>2021-07-19T13:27:34Z</time>
      </trkpt>
      <trkpt lat="42.64435" lon="1.70015">
        <ele>1713.535</ele>
        <time>2021-07-19T13:27:36Z</time>
      </trkpt>
      <trkpt lat="42.64437" lon="1.70017">
        <ele>1713.621</ele>
        <time>2021-07-19T13:27:38Z</time>
      </trkpt>
      <trkpt lat="42.64439" lon="1.70019">
        <ele>1713.292</ele>
        <time>2021-07-19T13:27:40Z</time>
      </trkpt>
      <trkpt lat="42.64442" lon="1.70021">
        <ele>1713.218</ele>
        <time>2021-07-19T13:27:42Z</time>
      </trkpt>
      <trkpt lat="42.64444" lon="1.70022">
        <ele>1713.009</ele>
        <time>2021-07-19T13:27:44Z</time>
      </trkpt>
      <trkpt lat="42.64446" lon="1.70023">
        <ele>1712.775</ele>
        <time>2021-07-19T13:27:46Z</time>
      </trkpt>
      <trkpt lat="42.64449" lon="1.70023">
        <ele>1712.257</ele>
        <time>2021-07-19T13:27:48Z</time>
      </trkpt>
      <trkpt lat="42.64451" lon="1.70024">
        <ele>1711.863</ele>
        <time>2021-07-19T13:27:50Z</time>
      </trkpt>
      <trkpt lat="42.64453" lon="1.70026">
        <ele>1712.255</ele>
        <time>2021-07-19T13:27:52Z</time>
      </trkpt>
      <trkpt lat="42.64456" lon="1.70028">
        <ele>1712.227</ele>
        <time>2021-07-19T13:27:54Z</time>
      </trkpt>
      <trkpt lat="42.64458" lon="1.70029">
        <ele>1711.802</ele>
        <time>2021-07-19T13:27:56Z</time>
      </trkpt>
      <trkpt lat="42.6446" lon="1.70029">
        <ele>1712.335</ele>
        <time>2021-07-19T13:27:58Z</time>
      </trkpt>
      <trkpt lat="42.64461" lon="1.70029">
        <ele>1712.147</ele>
        <time>2021-07-19T13:28:00Z</time>
      </trkpt>
      <trkpt lat="42.64464" lon="1.70028">
        <ele>1711.487</ele>
        <time>2021-07-19T13:28:02Z</time>
      </trkpt>
      <trkpt lat="42.64466" lon="1.70027">
        <ele>1711.571</ele>
        <time>2021-07-19T13:28:04Z</time>
      </trkpt>
      <trkpt lat="42.64467" lon="1.70027">
        <ele>1712.024</ele>
        <time>2021-07-19T13:28:06Z</time>
      </trkpt>
      <trkpt lat="42.64468" lon="1.70027">
        <ele>1711.539</ele>
        <time>2021-07-19T13:28:08Z</time>
      </trkpt>
      <trkpt lat="42.64469" lon="1.70025">
        <ele>1711.897</ele>
        <time>2021-07-19T13:28:10Z</time>
      </trkpt>
      <trkpt lat="42.64471" lon="1.70024">
        <ele>1711.143</ele>
        <time>2021-07-19T13:28:12Z</time>
      </trkpt>
      <trkpt lat="42.64473" lon="1.70026">
        <ele>1711.615</ele>
        <time>2021-07-19T13:28:14Z</time>
      </trkpt>
      <trkpt lat="42.64475" lon="1.70029">
        <ele>1712.278</ele>
        <time>2021-07-19T13:28:16Z</time>
      </trkpt>
      <trkpt lat="42.64475" lon="1.7003">
        <ele>1712.483</ele>
        <time>2021-07-19T13:28:18Z</time>
      </trkpt>
      <trkpt lat="42.64475" lon="1.7003">
        <ele>1712.494</ele>
        <time>2021-07-19T13:28:20Z</time>
      </trkpt>
      <trkpt lat="42.64476" lon="1.70031">
        <ele>1712.714</ele>
        <time>2021-07-19T13:28:22Z</time>
      </trkpt>
      <trkpt lat="42.64477" lon="1.70035">
        <ele>1712.869</ele>
        <time>2021-07-19T13:28:24Z</time>
      </trkpt>
      <trkpt lat="42.64479" lon="1.70035">
        <ele>1715.321</ele>
        <time>2021-07-19T13:28:26Z</time>
      </trkpt>
      <trkpt lat="42.64481" lon="1.70036">
        <ele>1715.17</ele>
        <time>2021-07-19T13:28:28Z</time>
      </trkpt>
      <trkpt lat="42.64483" lon="1.70038">
        <ele>1714.778</ele>
        <time>2021-07-19T13:28:30Z</time>
      </trkpt>
      <trkpt lat="42.64485" lon="1.7004">
        <ele>1714.543</ele>
        <time>2021-07-19T13:28:32Z</time>
      </trkpt>
      <trkpt lat="42.64488" lon="1.7004">
        <ele>1714.901</ele>
        <time>2021-07-19T13:28:34Z</time>
      </trkpt>
      <trkpt lat="42.6449" lon="1.7004">
        <ele>1715.102</ele>
        <time>2021-07-19T13:28:36Z</time>
      </trkpt>
      <trkpt lat="42.64492" lon="1.70039">
        <ele>1715.232</ele>
        <time>2021-07-19T13:28:38Z</time>
      </trkpt>
      <trkpt lat="42.64495" lon="1.7004">
        <ele>1714.884</ele>
        <time>2021-07-19T13:28:40Z</time>
      </trkpt>
      <trkpt lat="42.64497" lon="1.70041">
        <ele>1715.276</ele>
        <time>2021-07-19T13:28:42Z</time>
      </trkpt>
      <trkpt lat="42.645" lon="1.7004">
        <ele>1715.191</ele>
        <time>2021-07-19T13:28:44Z</time>
      </trkpt>
      <trkpt lat="42.64502" lon="1.7004">
        <ele>1715.091</ele>
        <time>2021-07-19T13:28:46Z</time>
      </trkpt>
      <trkpt lat="42.64504" lon="1.70039">
        <ele>1715.06</ele>
        <time>2021-07-19T13:28:48Z</time>
      </trkpt>
      <trkpt lat="42.64506" lon="1.70039">
        <ele>1715.042</ele>
        <time>2021-07-19T13:28:50Z</time>
      </trkpt>
      <trkpt lat="42.64506" lon="1.70042">
        <ele>1716.92</ele>
        <time>2021-07-19T13:28:52Z</time>
      </trkpt>
      <trkpt lat="42.64504" lon="1.70043">
        <ele>1716.974</ele>
        <time>2021-07-19T13:28:54Z</time>
      </trkpt>
      <trkpt lat="42.64505" lon="1.70045">
        <ele>1717.136</ele>
        <time>2021-07-19T13:28:56Z</time>
      </trkpt>
      <trkpt lat="42.64507" lon="1.70047">
        <ele>1716.114</ele>
        <time>2021-07-19T13:28:58Z</time>
      </trkpt>
      <trkpt lat="42.64509" lon="1.70048">
        <ele>1716.192</ele>
        <time>2021-07-19T13:29:00Z</time>
      </trkpt>
      <trkpt lat="42.64511" lon="1.70048">
        <ele>1716.092</ele>
        <time>2021-07-19T13:29:02Z</time>
      </trkpt>
      <trkpt lat="42.64513" lon="1.70048">
        <ele>1715.863</ele>
        <time>2021-07-19T13:29:04Z</time>
      </trkpt>
      <trkpt lat="42.64515" lon="1.7005">
        <ele>1715.475</ele>
        <time>2021-07-19T13:29:06Z</time>
      </trkpt>
      <trkpt lat="42.64518" lon="1.7005">
        <ele>1715.349</ele>
        <time>2021-07-19T13:29:08Z</time>
      </trkpt>
      <trkpt lat="42.6452" lon="1.70051">
        <ele>1714.533</ele>
        <time>2021-07-19T13:29:10Z</time>
      </trkpt>
      <trkpt lat="42.64522" lon="1.70051">
        <ele>1714.425</ele>
        <time>2021-07-19T13:29:12Z</time>
      </trkpt>
      <trkpt lat="42.64524" lon="1.70052">
        <ele>1713.692</ele>
        <time>2021-07-19T13:29:14Z</time>
      </trkpt>
      <trkpt lat="42.64526" lon="1.70054">
        <ele>1712.848</ele>
        <time>2021-07-19T13:29:16Z</time>
      </trkpt>
      <trkpt lat="42.64528" lon="1.70055">
        <ele>1712.536</ele>
        <time>2021-07-19T13:29:18Z</time>
      </trkpt>
      <trkpt lat="42.6453" lon="1.70055">
        <ele>1712.469</ele>
        <time>2021-07-19T13:29:20Z</time>
      </trkpt>
      <trkpt lat="42.64532" lon="1.70055">
        <ele>1712.252</ele>
        <time>2021-07-19T13:29:22Z</time>
      </trkpt>
      <trkpt lat="42.64535" lon="1.70056">
        <ele>1712.629</ele>
        <time>2021-07-19T13:29:24Z</time>
      </trkpt>
      <trkpt lat="42.64537" lon="1.70056">
        <ele>1711.758</ele>
        <time>2021-07-19T13:29:26Z</time>
      </trkpt>
      <trkpt lat="42.6454" lon="1.70056">
        <ele>1711.636</ele>
        <time>2021-07-19T13:29:28Z</time>
      </trkpt>
      <trkpt lat="42.64542" lon="1.70057">
        <ele>1711.405</ele>
        <time>2021-07-19T13:29:30Z</time>
      </trkpt>
      <trkpt lat="42.64545" lon="1.70057">
        <ele>1711.997</ele>
        <time>2021-07-19T13:29:32Z</time>
      </trkpt>
      <trkpt lat="42.64547" lon="1.70058">
        <ele>1711.586</ele>
        <time>2021-07-19T13:29:34Z</time>
      </trkpt>
      <trkpt lat="42.64549" lon="1.70058">
        <ele>1712.089</ele>
        <time>2021-07-19T13:29:36Z</time>
      </trkpt>
      <trkpt lat="42.64552" lon="1.70058">
        <ele>1712.732</ele>
        <time>2021-07-19T13:29:38Z</time>
      </trkpt>
      <trkpt lat="42.64554" lon="1.70059">
        <ele>1713.034</ele>
        <time>2021-07-19T13:29:40Z</time>
      </trkpt>
      <trkpt lat="42.64556" lon="1.70058">
        <ele>1713.548</ele>
        <time>2021-07-19T13:29:42Z</time>
      </trkpt>
      <trkpt lat="42.64557" lon="1.70058">
        <ele>1712.402</ele>
        <time>2021-07-19T13:29:44Z</time>
      </trkpt>
      <trkpt lat="42.64557" lon="1.70058">
        <ele>1712.35</ele>
        <time>2021-07-19T13:29:46Z</time>
      </trkpt>
      <trkpt lat="42.64558" lon="1.70059">
        <ele>1713.351</ele>
        <time>2021-07-19T13:29:48Z</time>
      </trkpt>
      <trkpt lat="42.64559" lon="1.7006">
        <ele>1714.028</ele>
        <time>2021-07-19T13:29:50Z</time>
      </trkpt>
      <trkpt lat="42.6456" lon="1.70061">
        <ele>1713.458</ele>
        <time>2021-07-19T13:29:52Z</time>
      </trkpt>
      <trkpt lat="42.6456" lon="1.70062">
        <ele>1713.463</ele>
        <time>2021-07-19T13:29:54Z</time>
      </trkpt>
      <trkpt lat="42.64562" lon="1.70062">
        <ele>1713.447</ele>
        <time>2021-07-19T13:29:56Z</time>
      </trkpt>
      <trkpt lat="42.64564" lon="1.70062">
        <ele>1713.68</ele>
        <time>2021-07-19T13:29:58Z</time>
      </trkpt>
      <trkpt lat="42.64565" lon="1.7006">
        <ele>1713.955</ele>
        <time>2021-07-19T13:30:00Z</time>
      </trkpt>
      <trkpt lat="42.64567" lon="1.70059">
        <ele>1713.326</ele>
        <time>2021-07-19T13:30:02Z</time>
      </trkpt>
      <trkpt lat="42.64569" lon="1.70058">
        <ele>1714.036</ele>
        <time>2021-07-19T13:30:04Z</time>
      </trkpt>
      <trkpt lat="42.64571" lon="1.70056">
        <ele>1714.398</ele>
        <time>2021-07-19T13:30:06Z</time>
      </trkpt>
      <trkpt lat="42.64573" lon="1.70056">
        <ele>1714.918</ele>
        <time>2021-07-19T13:30:08Z</time>
      </trkpt>
      <trkpt lat="42.64575" lon="1.70055">
        <ele>1714.472</ele>
        <time>2021-07-19T13:30:10Z</time>
      </trkpt>
      <trkpt lat="42.64576" lon="1.70056">
        <ele>1713.653</ele>
        <time>2021-07-19T13:30:12Z</time>
      </trkpt>
      <trkpt lat="42.64579" lon="1.70056">
        <ele>1713.574</ele>
        <time>2021-07-19T13:30:14Z</time>
      </trkpt>
      <trkpt lat="42.64581" lon="1.70056">
        <ele>1713.288</ele>
        <time>2021-07-19T13:30:16Z</time>
      </trkpt>
      <trkpt lat="42.64583" lon="1.70056">
        <ele>1712.377</ele>
        <time>2021-07-19T13:30:18Z</time>
      </trkpt>
      <trkpt lat="42.64585" lon="1.70056">
        <ele>1711.951</ele>
        <time>2021-07-19T13:30:20Z</time>
      </trkpt>
      <trkpt lat="42.64587" lon="1.70055">
        <ele>1712.668</ele>
        <time>2021-07-19T13:30:22Z</time>
      </trkpt>
      <trkpt lat="42.64589" lon="1.70054">
        <ele>1712.51</ele>
        <time>2021-07-19T13:30:24Z</time>
      </trkpt>
      <trkpt lat="42.64591" lon="1.70054">
        <ele>1712.22</ele>
        <time>2021-07-19T13:30:26Z</time>
      </trkpt>
      <trkpt lat="42.64593" lon="1.70054">
        <ele>1711.988</ele>
        <time>2021-07-19T13:30:28Z</time>
      </trkpt>
      <trkpt lat="42.64595" lon="1.70054">
        <ele>1712.52</ele>
        <time>2021-07-19T13:30:30Z</time>
      </trkpt>
      <trkpt lat="42.64593" lon="1.70054">
        <ele>1710.114</ele>
        <time>2021-07-19T13:30:32Z</time>
      </trkpt>
      <trkpt lat="42.64595" lon="1.70054">
        <ele>1709.773</ele>
        <time>2021-07-19T13:30:34Z</time>
      </trkpt>
      <trkpt lat="42.64597" lon="1.70055">
        <ele>1709.315</ele>
        <time>2021-07-19T13:30:36Z</time>
      </trkpt>
      <trkpt lat="42.64599" lon="1.70057">
        <ele>1709.243</ele>
        <time>2021-07-19T13:30:38Z</time>
      </trkpt>
      <trkpt lat="42.646" lon="1.70058">
        <ele>1709.043</ele>
        <time>2021-07-19T13:30:40Z</time>
      </trkpt>
      <trkpt lat="42.64601" lon="1.70057">
        <ele>1709.807</ele>
        <time>2021-07-19T13:30:42Z</time>
      </trkpt>
      <trkpt lat="42.64601" lon="1.70057">
        <ele>1709.793</ele>
        <time>2021-07-19T13:30:44Z</time>
      </trkpt>
      <trkpt lat="42.64601" lon="1.70058">
        <ele>1710.407</ele>
        <time>2021-07-19T13:30:46Z</time>
      </trkpt>
      <trkpt lat="42.64604" lon="1.70059">
        <ele>1712.58</ele>
        <time>2021-07-19T13:30:48Z</time>
      </trkpt>
      <trkpt lat="42.64605" lon="1.70056">
        <ele>1712.677</ele>
        <time>2021-07-19T13:30:50Z</time>
      </trkpt>
      <trkpt lat="42.64608" lon="1.70059">
        <ele>1715.532</ele>
        <time>2021-07-19T13:30:52Z</time>
      </trkpt>
      <trkpt lat="42.64609" lon="1.70059">
        <ele>1716.502</ele>
        <time>2021-07-19T13:30:54Z</time>
      </trkpt>
      <trkpt lat="42.64611" lon="1.70058">
        <ele>1715.863</ele>
        <time>2021-07-19T13:30:56Z</time>
      </trkpt>
      <trkpt lat="42.64613" lon="1.70058">
        <ele>1715.572</ele>
        <time>2021-07-19T13:30:58Z</time>
      </trkpt>
      <trkpt lat="42.64615" lon="1.70058">
        <ele>1715.639</ele>
        <time>2021-07-19T13:31:00Z</time>
      </trkpt>
      <trkpt lat="42.64616" lon="1.70058">
        <ele>1715.797</ele>
        <time>2021-07-19T13:31:02Z</time>
      </trkpt>
      <trkpt lat="42.64618" lon="1.70057">
        <ele>1715.333</ele>
        <time>2021-07-19T13:31:04Z</time>
      </trkpt>
      <trkpt lat="42.64619" lon="1.70058">
        <ele>1715.256</ele>
        <time>2021-07-19T13:31:06Z</time>
      </trkpt>
      <trkpt lat="42.6462" lon="1.7006">
        <ele>1715.218</ele>
        <time>2021-07-19T13:31:08Z</time>
      </trkpt>
      <trkpt lat="42.64621" lon="1.70061">
        <ele>1715.121</ele>
        <time>2021-07-19T13:31:10Z</time>
      </trkpt>
      <trkpt lat="42.64622" lon="1.70059">
        <ele>1715.332</ele>
        <time>2021-07-19T13:31:12Z</time>
      </trkpt>
      <trkpt lat="42.64624" lon="1.70058">
        <ele>1714.614</ele>
        <time>2021-07-19T13:31:14Z</time>
      </trkpt>
      <trkpt lat="42.64625" lon="1.70056">
        <ele>1714.892</ele>
        <time>2021-07-19T13:31:16Z</time>
      </trkpt>
      <trkpt lat="42.64626" lon="1.70054">
        <ele>1714.88</ele>
        <time>2021-07-19T13:31:18Z</time>
      </trkpt>
      <trkpt lat="42.64628" lon="1.70052">
        <ele>1714.652</ele>
        <time>2021-07-19T13:31:20Z</time>
      </trkpt>
      <trkpt lat="42.6463" lon="1.70051">
        <ele>1713.952</ele>
        <time>2021-07-19T13:31:22Z</time>
      </trkpt>
      <trkpt lat="42.64633" lon="1.70052">
        <ele>1712.858</ele>
        <time>2021-07-19T13:31:24Z</time>
      </trkpt>
      <trkpt lat="42.64634" lon="1.70052">
        <ele>1712.772</ele>
        <time>2021-07-19T13:31:26Z</time>
      </trkpt>
      <trkpt lat="42.64637" lon="1.70051">
        <ele>1712.559</ele>
        <time>2021-07-19T13:31:28Z</time>
      </trkpt>
      <trkpt lat="42.64639" lon="1.70052">
        <ele>1712.434</ele>
        <time>2021-07-19T13:31:30Z</time>
      </trkpt>
      <trkpt lat="42.64641" lon="1.70053">
        <ele>1711.321</ele>
        <time>2021-07-19T13:31:32Z</time>
      </trkpt>
      <trkpt lat="42.64642" lon="1.70055">
        <ele>1710.051</ele>
        <time>2021-07-19T13:31:34Z</time>
      </trkpt>
      <trkpt lat="42.64644" lon="1.70055">
        <ele>1708.951</ele>
        <time>2021-07-19T13:31:36Z</time>
      </trkpt>
      <trkpt lat="42.64645" lon="1.70056">
        <ele>1708.171</ele>
        <time>2021-07-19T13:31:38Z</time>
      </trkpt>
      <trkpt lat="42.64648" lon="1.70057">
        <ele>1708.343</ele>
        <time>2021-07-19T13:31:40Z</time>
      </trkpt>
      <trkpt lat="42.6465" lon="1.70058">
        <ele>1707.328</ele>
        <time>2021-07-19T13:31:42Z</time>
      </trkpt>
      <trkpt lat="42.64652" lon="1.70059">
        <ele>1707.239</ele>
        <time>2021-07-19T13:31:44Z</time>
      </trkpt>
      <trkpt lat="42.64655" lon="1.70059">
        <ele>1706.393</ele>
        <time>2021-07-19T13:31:46Z</time>
      </trkpt>
      <trkpt lat="42.64657" lon="1.70059">
        <ele>1706.325</ele>
        <time>2021-07-19T13:31:48Z</time>
      </trkpt>
      <trkpt lat="42.6466" lon="1.7006">
        <ele>1706.196</ele>
        <time>2021-07-19T13:31:50Z</time>
      </trkpt>
      <trkpt lat="42.64663" lon="1.7006">
        <ele>1705.328</ele>
        <time>2021-07-19T13:31:52Z</time>
      </trkpt>
      <trkpt lat="42.64665" lon="1.7006">
        <ele>1704.954</ele>
        <time>2021-07-19T13:31:54Z</time>
      </trkpt>
      <trkpt lat="42.64668" lon="1.70059">
        <ele>1704.272</ele>
        <time>2021-07-19T13:31:56Z</time>
      </trkpt>
      <trkpt lat="42.6467" lon="1.70059">
        <ele>1704.355</ele>
        <time>2021-07-19T13:31:58Z</time>
      </trkpt>
      <trkpt lat="42.64672" lon="1.70059">
        <ele>1703.768</ele>
        <time>2021-07-19T13:32:00Z</time>
      </trkpt>
      <trkpt lat="42.64675" lon="1.70059">
        <ele>1703.685</ele>
        <time>2021-07-19T13:32:02Z</time>
      </trkpt>
      <trkpt lat="42.64677" lon="1.70056">
        <ele>1704.126</ele>
        <time>2021-07-19T13:32:04Z</time>
      </trkpt>
      <trkpt lat="42.64678" lon="1.70054">
        <ele>1703.648</ele>
        <time>2021-07-19T13:32:06Z</time>
      </trkpt>
      <trkpt lat="42.6468" lon="1.70051">
        <ele>1704.213</ele>
        <time>2021-07-19T13:32:08Z</time>
      </trkpt>
      <trkpt lat="42.64682" lon="1.70049">
        <ele>1704.883</ele>
        <time>2021-07-19T13:32:10Z</time>
      </trkpt>
      <trkpt lat="42.64684" lon="1.70047">
        <ele>1705.271</ele>
        <time>2021-07-19T13:32:12Z</time>
      </trkpt>
      <trkpt lat="42.64686" lon="1.70046">
        <ele>1704.621</ele>
        <time>2021-07-19T13:32:14Z</time>
      </trkpt>
      <trkpt lat="42.64689" lon="1.70046">
        <ele>1703.908</ele>
        <time>2021-07-19T13:32:16Z</time>
      </trkpt>
      <trkpt lat="42.64692" lon="1.70047">
        <ele>1703.804</ele>
        <time>2021-07-19T13:32:18Z</time>
      </trkpt>
      <trkpt lat="42.64695" lon="1.70047">
        <ele>1703.614</ele>
        <time>2021-07-19T13:32:20Z</time>
      </trkpt>
      <trkpt lat="42.64698" lon="1.70047">
        <ele>1702.853</ele>
        <time>2021-07-19T13:32:22Z</time>
      </trkpt>
      <trkpt lat="42.647" lon="1.70048">
        <ele>1702.911</ele>
        <time>2021-07-19T13:32:24Z</time>
      </trkpt>
      <trkpt lat="42.64703" lon="1.70048">
        <ele>1702.208</ele>
        <time>2021-07-19T13:32:26Z</time>
      </trkpt>
      <trkpt lat="42.64706" lon="1.70049">
        <ele>1702.677</ele>
        <time>2021-07-19T13:32:28Z</time>
      </trkpt>
      <trkpt lat="42.64708" lon="1.70049">
        <ele>1701.235</ele>
        <time>2021-07-19T13:32:30Z</time>
      </trkpt>
      <trkpt lat="42.64711" lon="1.70049">
        <ele>1702.069</ele>
        <time>2021-07-19T13:32:32Z</time>
      </trkpt>
      <trkpt lat="42.64714" lon="1.7005">
        <ele>1702.209</ele>
        <time>2021-07-19T13:32:34Z</time>
      </trkpt>
      <trkpt lat="42.64717" lon="1.70051">
        <ele>1703.181</ele>
        <time>2021-07-19T13:32:36Z</time>
      </trkpt>
      <trkpt lat="42.6472" lon="1.70052">
        <ele>1703.889</ele>
        <time>2021-07-19T13:32:38Z</time>
      </trkpt>
      <trkpt lat="42.64723" lon="1.70053">
        <ele>1704.189</ele>
        <time>2021-07-19T13:32:40Z</time>
      </trkpt>
      <trkpt lat="42.64725" lon="1.70053">
        <ele>1704.408</ele>
        <time>2021-07-19T13:32:42Z</time>
      </trkpt>
      <trkpt lat="42.64728" lon="1.70054">
        <ele>1704.223</ele>
        <time>2021-07-19T13:32:44Z</time>
      </trkpt>
      <trkpt lat="42.64731" lon="1.70055">
        <ele>1704.363</ele>
        <time>2021-07-19T13:32:46Z</time>
      </trkpt>
      <trkpt lat="42.64733" lon="1.70057">
        <ele>1704.221</ele>
        <time>2021-07-19T13:32:48Z</time>
      </trkpt>
      <trkpt lat="42.64735" lon="1.70059">
        <ele>1703.842</ele>
        <time>2021-07-19T13:32:50Z</time>
      </trkpt>
      <trkpt lat="42.64737" lon="1.7006">
        <ele>1704.48</ele>
        <time>2021-07-19T13:32:52Z</time>
      </trkpt>
      <trkpt lat="42.6474" lon="1.7006">
        <ele>1704.29</ele>
        <time>2021-07-19T13:32:54Z</time>
      </trkpt>
      <trkpt lat="42.64742" lon="1.70061">
        <ele>1702.827</ele>
        <time>2021-07-19T13:32:56Z</time>
      </trkpt>
      <trkpt lat="42.64745" lon="1.70062">
        <ele>1701.903</ele>
        <time>2021-07-19T13:32:58Z</time>
      </trkpt>
      <trkpt lat="42.64748" lon="1.70062">
        <ele>1701.239</ele>
        <time>2021-07-19T13:33:00Z</time>
      </trkpt>
      <trkpt lat="42.64751" lon="1.70062">
        <ele>1700.319</ele>
        <time>2021-07-19T13:33:02Z</time>
      </trkpt>
      <trkpt lat="42.64754" lon="1.70062">
        <ele>1700.424</ele>
        <time>2021-07-19T13:33:04Z</time>
      </trkpt>
      <trkpt lat="42.64756" lon="1.70062">
        <ele>1700.955</ele>
        <time>2021-07-19T13:33:06Z</time>
      </trkpt>
      <trkpt lat="42.64759" lon="1.70062">
        <ele>1701.605</ele>
        <time>2021-07-19T13:33:08Z</time>
      </trkpt>
      <trkpt lat="42.64761" lon="1.70062">
        <ele>1701.847</ele>
        <time>2021-07-19T13:33:10Z</time>
      </trkpt>
      <trkpt lat="42.64764" lon="1.70061">
        <ele>1701.419</ele>
        <time>2021-07-19T13:33:12Z</time>
      </trkpt>
      <trkpt lat="42.64766" lon="1.7006">
        <ele>1700.864</ele>
        <time>2021-07-19T13:33:14Z</time>
      </trkpt>
      <trkpt lat="42.64769" lon="1.7006">
        <ele>1701.456</ele>
        <time>2021-07-19T13:33:16Z</time>
      </trkpt>
      <trkpt lat="42.64772" lon="1.70059">
        <ele>1701.607</ele>
        <time>2021-07-19T13:33:18Z</time>
      </trkpt>
      <trkpt lat="42.64774" lon="1.70059">
        <ele>1702.078</ele>
        <time>2021-07-19T13:33:20Z</time>
      </trkpt>
      <trkpt lat="42.64777" lon="1.70061">
        <ele>1702.903</ele>
        <time>2021-07-19T13:33:22Z</time>
      </trkpt>
      <trkpt lat="42.64779" lon="1.70064">
        <ele>1703.762</ele>
        <time>2021-07-19T13:33:24Z</time>
      </trkpt>
      <trkpt lat="42.64781" lon="1.70065">
        <ele>1703.711</ele>
        <time>2021-07-19T13:33:26Z</time>
      </trkpt>
      <trkpt lat="42.64783" lon="1.70065">
        <ele>1703.583</ele>
        <time>2021-07-19T13:33:28Z</time>
      </trkpt>
      <trkpt lat="42.64785" lon="1.70064">
        <ele>1704.078</ele>
        <time>2021-07-19T13:33:30Z</time>
      </trkpt>
      <trkpt lat="42.64787" lon="1.70063">
        <ele>1704.017</ele>
        <time>2021-07-19T13:33:32Z</time>
      </trkpt>
      <trkpt lat="42.64789" lon="1.70063">
        <ele>1704.996</ele>
        <time>2021-07-19T13:33:34Z</time>
      </trkpt>
      <trkpt lat="42.64791" lon="1.70065">
        <ele>1704.952</ele>
        <time>2021-07-19T13:33:36Z</time>
      </trkpt>
      <trkpt lat="42.64792" lon="1.70067">
        <ele>1703.96</ele>
        <time>2021-07-19T13:33:38Z</time>
      </trkpt>
      <trkpt lat="42.64794" lon="1.70069">
        <ele>1704.655</ele>
        <time>2021-07-19T13:33:40Z</time>
      </trkpt>
      <trkpt lat="42.64797" lon="1.70068">
        <ele>1704.761</ele>
        <time>2021-07-19T13:33:42Z</time>
      </trkpt>
      <trkpt lat="42.64799" lon="1.70068">
        <ele>1705.17</ele>
        <time>2021-07-19T13:33:44Z</time>
      </trkpt>
      <trkpt lat="42.648" lon="1.70069">
        <ele>1705.068</ele>
        <time>2021-07-19T13:33:46Z</time>
      </trkpt>
      <trkpt lat="42.64802" lon="1.7007">
        <ele>1705.265</ele>
        <time>2021-07-19T13:33:48Z</time>
      </trkpt>
      <trkpt lat="42.64804" lon="1.7007">
        <ele>1705.516</ele>
        <time>2021-07-19T13:33:50Z</time>
      </trkpt>
      <trkpt lat="42.64806" lon="1.70069">
        <ele>1705.489</ele>
        <time>2021-07-19T13:33:52Z</time>
      </trkpt>
      <trkpt lat="42.64808" lon="1.7007">
        <ele>1705.014</ele>
        <time>2021-07-19T13:33:54Z</time>
      </trkpt>
      <trkpt lat="42.6481" lon="1.7007">
        <ele>1705.242</ele>
        <time>2021-07-19T13:33:56Z</time>
      </trkpt>
      <trkpt lat="42.64812" lon="1.70069">
        <ele>1704.78</ele>
        <time>2021-07-19T13:33:58Z</time>
      </trkpt>
      <trkpt lat="42.64814" lon="1.7007">
        <ele>1704.979</ele>
        <time>2021-07-19T13:34:00Z</time>
      </trkpt>
      <trkpt lat="42.64816" lon="1.70071">
        <ele>1705.183</ele>
        <time>2021-07-19T13:34:02Z</time>
      </trkpt>
      <trkpt lat="42.64818" lon="1.70071">
        <ele>1705.644</ele>
        <time>2021-07-19T13:34:04Z</time>
      </trkpt>
      <trkpt lat="42.64819" lon="1.70072">
        <ele>1706.699</ele>
        <time>2021-07-19T13:34:06Z</time>
      </trkpt>
      <trkpt lat="42.6482" lon="1.70073">
        <ele>1708.025</ele>
        <time>2021-07-19T13:34:08Z</time>
      </trkpt>
      <trkpt lat="42.64822" lon="1.70074">
        <ele>1708.478</ele>
        <time>2021-07-19T13:34:10Z</time>
      </trkpt>
      <trkpt lat="42.64823" lon="1.70075">
        <ele>1709.257</ele>
        <time>2021-07-19T13:34:12Z</time>
      </trkpt>
      <trkpt lat="42.64823" lon="1.70076">
        <ele>1708.676</ele>
        <time>2021-07-19T13:34:14Z</time>
      </trkpt>
      <trkpt lat="42.64824" lon="1.70077">
        <ele>1707.917</ele>
        <time>2021-07-19T13:34:16Z</time>
      </trkpt>
      <trkpt lat="42.64825" lon="1.70077">
        <ele>1707.319</ele>
        <time>2021-07-19T13:34:18Z</time>
      </trkpt>
      <trkpt lat="42.64825" lon="1.70079">
        <ele>1706.193</ele>
        <time>2021-07-19T13:34:20Z</time>
      </trkpt>
      <trkpt lat="42.64827" lon="1.70081">
        <ele>1704.828</ele>
        <time>2021-07-19T13:34:22Z</time>
      </trkpt>
      <trkpt lat="42.64828" lon="1.70081">
        <ele>1704.268</ele>
        <time>2021-07-19T13:34:24Z</time>
      </trkpt>
      <trkpt lat="42.6483" lon="1.70083">
        <ele>1704.529</ele>
        <time>2021-07-19T13:34:26Z</time>
      </trkpt>
      <trkpt lat="42.64832" lon="1.70085">
        <ele>1705.347</ele>
        <time>2021-07-19T13:34:28Z</time>
      </trkpt>
      <trkpt lat="42.64834" lon="1.70086">
        <ele>1705.168</ele>
        <time>2021-07-19T13:34:30Z</time>
      </trkpt>
      <trkpt lat="42.64835" lon="1.70086">
        <ele>1706.23</ele>
        <time>2021-07-19T13:34:32Z</time>
      </trkpt>
      <trkpt lat="42.64836" lon="1.70087">
        <ele>1705.803</ele>
        <time>2021-07-19T13:34:34Z</time>
      </trkpt>
      <trkpt lat="42.64838" lon="1.70088">
        <ele>1705.999</ele>
        <time>2021-07-19T13:34:36Z</time>
      </trkpt>
      <trkpt lat="42.64839" lon="1.7009">
        <ele>1706.331</ele>
        <time>2021-07-19T13:34:38Z</time>
      </trkpt>
      <trkpt lat="42.6484" lon="1.70091">
        <ele>1706.134</ele>
        <time>2021-07-19T13:34:40Z</time>
      </trkpt>
      <trkpt lat="42.64841" lon="1.70091">
        <ele>1705.75</ele>
        <time>2021-07-19T13:34:42Z</time>
      </trkpt>
      <trkpt lat="42.64842" lon="1.70093">
        <ele>1705.039</ele>
        <time>2021-07-19T13:34:44Z</time>
      </trkpt>
      <trkpt lat="42.64844" lon="1.70095">
        <ele>1705.481</ele>
        <time>2021-07-19T13:34:46Z</time>
      </trkpt>
      <trkpt lat="42.64845" lon="1.701">
        <ele>1706.165</ele>
        <time>2021-07-19T13:34:48Z</time>
      </trkpt>
      <trkpt lat="42.64845" lon="1.70106">
        <ele>1706.562</ele>
        <time>2021-07-19T13:34:50Z</time>
      </trkpt>
      <trkpt lat="42.64845" lon="1.70111">
        <ele>1706.612</ele>
        <time>2021-07-19T13:34:52Z</time>
      </trkpt>
      <trkpt lat="42.64845" lon="1.70116">
        <ele>1706.192</ele>
        <time>2021-07-19T13:34:54Z</time>
      </trkpt>
      <trkpt lat="42.64846" lon="1.70118">
        <ele>1705.806</ele>
        <time>2021-07-19T13:34:56Z</time>
      </trkpt>
      <trkpt lat="42.64848" lon="1.70119">
        <ele>1706.905</ele>
        <time>2021-07-19T13:34:58Z</time>
      </trkpt>
      <trkpt lat="42.64849" lon="1.70121">
        <ele>1706.761</ele>
        <time>2021-07-19T13:35:00Z</time>
      </trkpt>
      <trkpt lat="42.64849" lon="1.70123">
        <ele>1706.514</ele>
        <time>2021-07-19T13:35:02Z</time>
      </trkpt>
      <trkpt lat="42.6485" lon="1.70124">
        <ele>1707.015</ele>
        <time>2021-07-19T13:35:04Z</time>
      </trkpt>
      <trkpt lat="42.64851" lon="1.70126">
        <ele>1706.727</ele>
        <time>2021-07-19T13:35:06Z</time>
      </trkpt>
      <trkpt lat="42.64851" lon="1.70128">
        <ele>1706.003</ele>
        <time>2021-07-19T13:35:08Z</time>
      </trkpt>
      <trkpt lat="42.64852" lon="1.7013">
        <ele>1705.469</ele>
        <time>2021-07-19T13:35:10Z</time>
      </trkpt>
      <trkpt lat="42.64852" lon="1.70133">
        <ele>1705.074</ele>
        <time>2021-07-19T13:35:12Z</time>
      </trkpt>
      <trkpt lat="42.64853" lon="1.70135">
        <ele>1703.783</ele>
        <time>2021-07-19T13:35:14Z</time>
      </trkpt>
      <trkpt lat="42.64854" lon="1.70138">
        <ele>1703.332</ele>
        <time>2021-07-19T13:35:16Z</time>
      </trkpt>
      <trkpt lat="42.64855" lon="1.7014">
        <ele>1702.17</ele>
        <time>2021-07-19T13:35:18Z</time>
      </trkpt>
      <trkpt lat="42.64856" lon="1.70143">
        <ele>1701.359</ele>
        <time>2021-07-19T13:35:20Z</time>
      </trkpt>
      <trkpt lat="42.64856" lon="1.70145">
        <ele>1701.429</ele>
        <time>2021-07-19T13:35:22Z</time>
      </trkpt>
      <trkpt lat="42.64857" lon="1.70148">
        <ele>1701.947</ele>
        <time>2021-07-19T13:35:24Z</time>
      </trkpt>
      <trkpt lat="42.64859" lon="1.70151">
        <ele>1701.468</ele>
        <time>2021-07-19T13:35:26Z</time>
      </trkpt>
      <trkpt lat="42.6486" lon="1.70153">
        <ele>1701.41</ele>
        <time>2021-07-19T13:35:28Z</time>
      </trkpt>
      <trkpt lat="42.64861" lon="1.70156">
        <ele>1701.14</ele>
        <time>2021-07-19T13:35:30Z</time>
      </trkpt>
      <trkpt lat="42.64861" lon="1.70159">
        <ele>1700.728</ele>
        <time>2021-07-19T13:35:32Z</time>
      </trkpt>
      <trkpt lat="42.64862" lon="1.70161">
        <ele>1700.863</ele>
        <time>2021-07-19T13:35:34Z</time>
      </trkpt>
      <trkpt lat="42.64863" lon="1.70164">
        <ele>1700.743</ele>
        <time>2021-07-19T13:35:36Z</time>
      </trkpt>
      <trkpt lat="42.64864" lon="1.70167">
        <ele>1700.63</ele>
        <time>2021-07-19T13:35:38Z</time>
      </trkpt>
      <trkpt lat="42.64864" lon="1.70171">
        <ele>1700.685</ele>
        <time>2021-07-19T13:35:40Z</time>
      </trkpt>
      <trkpt lat="42.64865" lon="1.70174">
        <ele>1700.176</ele>
        <time>2021-07-19T13:35:42Z</time>
      </trkpt>
      <trkpt lat="42.64866" lon="1.70176">
        <ele>1699.574</ele>
        <time>2021-07-19T13:35:44Z</time>
      </trkpt>
      <trkpt lat="42.64867" lon="1.70178">
        <ele>1698.905</ele>
        <time>2021-07-19T13:35:46Z</time>
      </trkpt>
      <trkpt lat="42.64868" lon="1.70181">
        <ele>1699.253</ele>
        <time>2021-07-19T13:35:48Z</time>
      </trkpt>
      <trkpt lat="42.6487" lon="1.70183">
        <ele>1699.296</ele>
        <time>2021-07-19T13:35:50Z</time>
      </trkpt>
      <trkpt lat="42.64871" lon="1.70185">
        <ele>1698.939</ele>
        <time>2021-07-19T13:35:52Z</time>
      </trkpt>
      <trkpt lat="42.64873" lon="1.70187">
        <ele>1698.441</ele>
        <time>2021-07-19T13:35:54Z</time>
      </trkpt>
      <trkpt lat="42.64874" lon="1.70189">
        <ele>1697.765</ele>
        <time>2021-07-19T13:35:56Z</time>
      </trkpt>
      <trkpt lat="42.64876" lon="1.70191">
        <ele>1697.047</ele>
        <time>2021-07-19T13:35:58Z</time>
      </trkpt>
      <trkpt lat="42.64878" lon="1.70193">
        <ele>1696.434</ele>
        <time>2021-07-19T13:36:00Z</time>
      </trkpt>
      <trkpt lat="42.6488" lon="1.70196">
        <ele>1695.637</ele>
        <time>2021-07-19T13:36:02Z</time>
      </trkpt>
      <trkpt lat="42.64881" lon="1.70199">
        <ele>1695.301</ele>
        <time>2021-07-19T13:36:04Z</time>
      </trkpt>
      <trkpt lat="42.64883" lon="1.70201">
        <ele>1694.679</ele>
        <time>2021-07-19T13:36:06Z</time>
      </trkpt>
      <trkpt lat="42.64884" lon="1.70204">
        <ele>1694.426</ele>
        <time>2021-07-19T13:36:08Z</time>
      </trkpt>
      <trkpt lat="42.64885" lon="1.70207">
        <ele>1694.156</ele>
        <time>2021-07-19T13:36:10Z</time>
      </trkpt>
      <trkpt lat="42.64887" lon="1.70209">
        <ele>1693.419</ele>
        <time>2021-07-19T13:36:12Z</time>
      </trkpt>
      <trkpt lat="42.64888" lon="1.70212">
        <ele>1693.631</ele>
        <time>2021-07-19T13:36:14Z</time>
      </trkpt>
      <trkpt lat="42.6489" lon="1.70214">
        <ele>1693.405</ele>
        <time>2021-07-19T13:36:16Z</time>
      </trkpt>
      <trkpt lat="42.64889" lon="1.70217">
        <ele>1693.279</ele>
        <time>2021-07-19T13:36:18Z</time>
      </trkpt>
      <trkpt lat="42.64889" lon="1.70217">
        <ele>1693.09</ele>
        <time>2021-07-19T13:36:20Z</time>
      </trkpt>
      <trkpt lat="42.64889" lon="1.70218">
        <ele>1692.959</ele>
        <time>2021-07-19T13:36:22Z</time>
      </trkpt>
      <trkpt lat="42.64891" lon="1.7022">
        <ele>1693.051</ele>
        <time>2021-07-19T13:36:24Z</time>
      </trkpt>
      <trkpt lat="42.64892" lon="1.70223">
        <ele>1692.919</ele>
        <time>2021-07-19T13:36:26Z</time>
      </trkpt>
      <trkpt lat="42.64894" lon="1.70225">
        <ele>1692.534</ele>
        <time>2021-07-19T13:36:28Z</time>
      </trkpt>
      <trkpt lat="42.64895" lon="1.70228">
        <ele>1692.471</ele>
        <time>2021-07-19T13:36:30Z</time>
      </trkpt>
      <trkpt lat="42.64896" lon="1.7023">
        <ele>1692.624</ele>
        <time>2021-07-19T13:36:32Z</time>
      </trkpt>
      <trkpt lat="42.64897" lon="1.70233">
        <ele>1692.458</ele>
        <time>2021-07-19T13:36:34Z</time>
      </trkpt>
      <trkpt lat="42.64899" lon="1.70235">
        <ele>1691.851</ele>
        <time>2021-07-19T13:36:36Z</time>
      </trkpt>
      <trkpt lat="42.649" lon="1.70237">
        <ele>1691.996</ele>
        <time>2021-07-19T13:36:38Z</time>
      </trkpt>
      <trkpt lat="42.64901" lon="1.70239">
        <ele>1691.851</ele>
        <time>2021-07-19T13:36:40Z</time>
      </trkpt>
      <trkpt lat="42.64902" lon="1.70242">
        <ele>1691.496</ele>
        <time>2021-07-19T13:36:42Z</time>
      </trkpt>
      <trkpt lat="42.64903" lon="1.70245">
        <ele>1691.444</ele>
        <time>2021-07-19T13:36:44Z</time>
      </trkpt>
      <trkpt lat="42.64905" lon="1.70248">
        <ele>1691.864</ele>
        <time>2021-07-19T13:36:46Z</time>
      </trkpt>
      <trkpt lat="42.64907" lon="1.7025">
        <ele>1691.135</ele>
        <time>2021-07-19T13:36:48Z</time>
      </trkpt>
      <trkpt lat="42.64908" lon="1.70252">
        <ele>1691.52</ele>
        <time>2021-07-19T13:36:50Z</time>
      </trkpt>
      <trkpt lat="42.6491" lon="1.70254">
        <ele>1691.084</ele>
        <time>2021-07-19T13:36:52Z</time>
      </trkpt>
      <trkpt lat="42.64911" lon="1.70257">
        <ele>1690.668</ele>
        <time>2021-07-19T13:36:54Z</time>
      </trkpt>
      <trkpt lat="42.64913" lon="1.70259">
        <ele>1690.337</ele>
        <time>2021-07-19T13:36:56Z</time>
      </trkpt>
      <trkpt lat="42.64915" lon="1.70261">
        <ele>1689.828</ele>
        <time>2021-07-19T13:36:58Z</time>
      </trkpt>
      <trkpt lat="42.64917" lon="1.70263">
        <ele>1689.56</ele>
        <time>2021-07-19T13:37:00Z</time>
      </trkpt>
      <trkpt lat="42.64919" lon="1.70265">
        <ele>1690.103</ele>
        <time>2021-07-19T13:37:02Z</time>
      </trkpt>
      <trkpt lat="42.64921" lon="1.70267">
        <ele>1690.608</ele>
        <time>2021-07-19T13:37:04Z</time>
      </trkpt>
      <trkpt lat="42.64923" lon="1.7027">
        <ele>1690.705</ele>
        <time>2021-07-19T13:37:06Z</time>
      </trkpt>
      <trkpt lat="42.64925" lon="1.70273">
        <ele>1690.82</ele>
        <time>2021-07-19T13:37:08Z</time>
      </trkpt>
      <trkpt lat="42.64926" lon="1.70275">
        <ele>1690.481</ele>
        <time>2021-07-19T13:37:10Z</time>
      </trkpt>
      <trkpt lat="42.64928" lon="1.70277">
        <ele>1690.528</ele>
        <time>2021-07-19T13:37:12Z</time>
      </trkpt>
      <trkpt lat="42.64929" lon="1.7028">
        <ele>1689.835</ele>
        <time>2021-07-19T13:37:14Z</time>
      </trkpt>
      <trkpt lat="42.6493" lon="1.70282">
        <ele>1690.36</ele>
        <time>2021-07-19T13:37:16Z</time>
      </trkpt>
      <trkpt lat="42.64931" lon="1.70284">
        <ele>1689.871</ele>
        <time>2021-07-19T13:37:18Z</time>
      </trkpt>
      <trkpt lat="42.64933" lon="1.70286">
        <ele>1690.773</ele>
        <time>2021-07-19T13:37:20Z</time>
      </trkpt>
      <trkpt lat="42.64935" lon="1.70285">
        <ele>1691.127</ele>
        <time>2021-07-19T13:37:22Z</time>
      </trkpt>
      <trkpt lat="42.64937" lon="1.70285">
        <ele>1691.394</ele>
        <time>2021-07-19T13:37:24Z</time>
      </trkpt>
      <trkpt lat="42.64939" lon="1.70285">
        <ele>1691.034</ele>
        <time>2021-07-19T13:37:26Z</time>
      </trkpt>
      <trkpt lat="42.64941" lon="1.70286">
        <ele>1691.133</ele>
        <time>2021-07-19T13:37:28Z</time>
      </trkpt>
      <trkpt lat="42.64942" lon="1.70288">
        <ele>1691.756</ele>
        <time>2021-07-19T13:37:30Z</time>
      </trkpt>
      <trkpt lat="42.64944" lon="1.7029">
        <ele>1691.703</ele>
        <time>2021-07-19T13:37:32Z</time>
      </trkpt>
      <trkpt lat="42.64946" lon="1.70291">
        <ele>1691.128</ele>
        <time>2021-07-19T13:37:34Z</time>
      </trkpt>
      <trkpt lat="42.64948" lon="1.70293">
        <ele>1690.616</ele>
        <time>2021-07-19T13:37:36Z</time>
      </trkpt>
      <trkpt lat="42.64949" lon="1.70295">
        <ele>1691.114</ele>
        <time>2021-07-19T13:37:38Z</time>
      </trkpt>
      <trkpt lat="42.64952" lon="1.70297">
        <ele>1691.216</ele>
        <time>2021-07-19T13:37:40Z</time>
      </trkpt>
      <trkpt lat="42.64953" lon="1.703">
        <ele>1691.54</ele>
        <time>2021-07-19T13:37:42Z</time>
      </trkpt>
      <trkpt lat="42.64954" lon="1.70303">
        <ele>1692.56</ele>
        <time>2021-07-19T13:37:44Z</time>
      </trkpt>
      <trkpt lat="42.64954" lon="1.70306">
        <ele>1694.132</ele>
        <time>2021-07-19T13:37:46Z</time>
      </trkpt>
      <trkpt lat="42.64953" lon="1.70308">
        <ele>1693.499</ele>
        <time>2021-07-19T13:37:48Z</time>
      </trkpt>
      <trkpt lat="42.64952" lon="1.7031">
        <ele>1694.258</ele>
        <time>2021-07-19T13:37:50Z</time>
      </trkpt>
      <trkpt lat="42.64952" lon="1.70313">
        <ele>1695.273</ele>
        <time>2021-07-19T13:37:52Z</time>
      </trkpt>
      <trkpt lat="42.64951" lon="1.70315">
        <ele>1694.769</ele>
        <time>2021-07-19T13:37:54Z</time>
      </trkpt>
      <trkpt lat="42.6495" lon="1.70318">
        <ele>1694.44</ele>
        <time>2021-07-19T13:37:56Z</time>
      </trkpt>
      <trkpt lat="42.64948" lon="1.7032">
        <ele>1695.31</ele>
        <time>2021-07-19T13:37:58Z</time>
      </trkpt>
      <trkpt lat="42.64947" lon="1.70321">
        <ele>1695.87</ele>
        <time>2021-07-19T13:38:00Z</time>
      </trkpt>
      <trkpt lat="42.64946" lon="1.70324">
        <ele>1697.137</ele>
        <time>2021-07-19T13:38:02Z</time>
      </trkpt>
      <trkpt lat="42.64945" lon="1.70327">
        <ele>1696.91</ele>
        <time>2021-07-19T13:38:04Z</time>
      </trkpt>
      <trkpt lat="42.64944" lon="1.70329">
        <ele>1697.435</ele>
        <time>2021-07-19T13:38:06Z</time>
      </trkpt>
      <trkpt lat="42.64943" lon="1.70331">
        <ele>1697.186</ele>
        <time>2021-07-19T13:38:08Z</time>
      </trkpt>
      <trkpt lat="42.64942" lon="1.70333">
        <ele>1698.254</ele>
        <time>2021-07-19T13:38:10Z</time>
      </trkpt>
      <trkpt lat="42.64941" lon="1.70335">
        <ele>1698.836</ele>
        <time>2021-07-19T13:38:12Z</time>
      </trkpt>
      <trkpt lat="42.64942" lon="1.70338">
        <ele>1698.535</ele>
        <time>2021-07-19T13:38:14Z</time>
      </trkpt>
      <trkpt lat="42.64944" lon="1.70339">
        <ele>1700.012</ele>
        <time>2021-07-19T13:38:16Z</time>
      </trkpt>
      <trkpt lat="42.64946" lon="1.70338">
        <ele>1699.883</ele>
        <time>2021-07-19T13:38:18Z</time>
      </trkpt>
      <trkpt lat="42.64948" lon="1.70337">
        <ele>1699.101</ele>
        <time>2021-07-19T13:38:20Z</time>
      </trkpt>
      <trkpt lat="42.64949" lon="1.70336">
        <ele>1699.897</ele>
        <time>2021-07-19T13:38:22Z</time>
      </trkpt>
      <trkpt lat="42.64949" lon="1.70336">
        <ele>1700.07</ele>
        <time>2021-07-19T13:38:24Z</time>
      </trkpt>
      <trkpt lat="42.64949" lon="1.70336">
        <ele>1700.018</ele>
        <time>2021-07-19T13:38:26Z</time>
      </trkpt>
      <trkpt lat="42.64949" lon="1.70336">
        <ele>1700.009</ele>
        <time>2021-07-19T13:38:28Z</time>
      </trkpt>
      <trkpt lat="42.64949" lon="1.70336">
        <ele>1700.012</ele>
        <time>2021-07-19T13:38:30Z</time>
      </trkpt>
      <trkpt lat="42.64949" lon="1.70336">
        <ele>1700.005</ele>
        <time>2021-07-19T13:38:32Z</time>
      </trkpt>
      <trkpt lat="42.64949" lon="1.70336">
        <ele>1700.009</ele>
        <time>2021-07-19T13:38:34Z</time>
      </trkpt>
      <trkpt lat="42.64949" lon="1.70336">
        <ele>1699.982</ele>
        <time>2021-07-19T13:38:36Z</time>
      </trkpt>
      <trkpt lat="42.64949" lon="1.70336">
        <ele>1699.967</ele>
        <time>2021-07-19T13:38:38Z</time>
      </trkpt>
      <trkpt lat="42.64949" lon="1.70336">
        <ele>1699.973</ele>
        <time>2021-07-19T13:38:40Z</time>
      </trkpt>
      <trkpt lat="42.64949" lon="1.70336">
        <ele>1699.952</ele>
        <time>2021-07-19T13:38:42Z</time>
      </trkpt>
      <trkpt lat="42.64949" lon="1.70336">
        <ele>1699.953</ele>
        <time>2021-07-19T13:38:44Z</time>
      </trkpt>
      <trkpt lat="42.64949" lon="1.70336">
        <ele>1699.951</ele>
        <time>2021-07-19T13:38:46Z</time>
      </trkpt>
      <trkpt lat="42.64949" lon="1.70336">
        <ele>1699.949</ele>
        <time>2021-07-19T13:38:48Z</time>
      </trkpt>
      <trkpt lat="42.64949" lon="1.70336">
        <ele>1699.929</ele>
        <time>2021-07-19T13:38:50Z</time>
      </trkpt>
      <trkpt lat="42.64949" lon="1.70336">
        <ele>1699.916</ele>
        <time>2021-07-19T13:38:52Z</time>
      </trkpt>
      <trkpt lat="42.64949" lon="1.70336">
        <ele>1699.92</ele>
        <time>2021-07-19T13:38:54Z</time>
      </trkpt>
      <trkpt lat="42.64949" lon="1.70336">
        <ele>1699.911</ele>
        <time>2021-07-19T13:38:56Z</time>
      </trkpt>
      <trkpt lat="42.64949" lon="1.70336">
        <ele>1699.897</ele>
        <time>2021-07-19T13:38:58Z</time>
      </trkpt>
      <trkpt lat="42.64949" lon="1.70336">
        <ele>1700.264</ele>
        <time>2021-07-19T13:39:00Z</time>
      </trkpt>
      <trkpt lat="42.64949" lon="1.70336">
        <ele>1700.255</ele>
        <time>2021-07-19T13:39:02Z</time>
      </trkpt>
      <trkpt lat="42.64949" lon="1.70336">
        <ele>1700.242</ele>
        <time>2021-07-19T13:39:04Z</time>
      </trkpt>
      <trkpt lat="42.64949" lon="1.70336">
        <ele>1700.217</ele>
        <time>2021-07-19T13:39:06Z</time>
      </trkpt>
      <trkpt lat="42.64949" lon="1.70336">
        <ele>1700.204</ele>
        <time>2021-07-19T13:39:08Z</time>
      </trkpt>
      <trkpt lat="42.64949" lon="1.70336">
        <ele>1700.198</ele>
        <time>2021-07-19T13:39:10Z</time>
      </trkpt>
      <trkpt lat="42.64949" lon="1.70336">
        <ele>1700.207</ele>
        <time>2021-07-19T13:39:12Z</time>
      </trkpt>
      <trkpt lat="42.64949" lon="1.70336">
        <ele>1700.207</ele>
        <time>2021-07-19T13:39:14Z</time>
      </trkpt>
      <trkpt lat="42.64949" lon="1.70336">
        <ele>1699.208</ele>
        <time>2021-07-19T13:39:16Z</time>
      </trkpt>
      <trkpt lat="42.64949" lon="1.70336">
        <ele>1699.191</ele>
        <time>2021-07-19T13:39:18Z</time>
      </trkpt>
      <trkpt lat="42.64949" lon="1.70336">
        <ele>1699.166</ele>
        <time>2021-07-19T13:39:20Z</time>
      </trkpt>
      <trkpt lat="42.64949" lon="1.70336">
        <ele>1699.137</ele>
        <time>2021-07-19T13:39:22Z</time>
      </trkpt>
      <trkpt lat="42.64949" lon="1.70336">
        <ele>1699.122</ele>
        <time>2021-07-19T13:39:24Z</time>
      </trkpt>
      <trkpt lat="42.64949" lon="1.70336">
        <ele>1699.119</ele>
        <time>2021-07-19T13:39:26Z</time>
      </trkpt>
      <trkpt lat="42.64949" lon="1.70336">
        <ele>1699.106</ele>
        <time>2021-07-19T13:39:28Z</time>
      </trkpt>
      <trkpt lat="42.64949" lon="1.70336">
        <ele>1699.102</ele>
        <time>2021-07-19T13:39:30Z</time>
      </trkpt>
      <trkpt lat="42.64949" lon="1.70336">
        <ele>1699.061</ele>
        <time>2021-07-19T13:39:32Z</time>
      </trkpt>
      <trkpt lat="42.64949" lon="1.70336">
        <ele>1699.052</ele>
        <time>2021-07-19T13:39:34Z</time>
      </trkpt>
      <trkpt lat="42.64949" lon="1.70336">
        <ele>1699.032</ele>
        <time>2021-07-19T13:39:36Z</time>
      </trkpt>
      <trkpt lat="42.64949" lon="1.70336">
        <ele>1699.029</ele>
        <time>2021-07-19T13:39:38Z</time>
      </trkpt>
      <trkpt lat="42.64949" lon="1.70336">
        <ele>1699.038</ele>
        <time>2021-07-19T13:39:40Z</time>
      </trkpt>
      <trkpt lat="42.64949" lon="1.70337">
        <ele>1699.052</ele>
        <time>2021-07-19T13:39:42Z</time>
      </trkpt>
      <trkpt lat="42.64949" lon="1.70337">
        <ele>1699.051</ele>
        <time>2021-07-19T13:39:44Z</time>
      </trkpt>
      <trkpt lat="42.64949" lon="1.70336">
        <ele>1698.334</ele>
        <time>2021-07-19T13:39:46Z</time>
      </trkpt>
      <trkpt lat="42.64949" lon="1.70336">
        <ele>1698.095</ele>
        <time>2021-07-19T13:39:48Z</time>
      </trkpt>
      <trkpt lat="42.64949" lon="1.70336">
        <ele>1698.093</ele>
        <time>2021-07-19T13:39:50Z</time>
      </trkpt>
      <trkpt lat="42.64949" lon="1.70336">
        <ele>1698.08</ele>
        <time>2021-07-19T13:39:52Z</time>
      </trkpt>
      <trkpt lat="42.64949" lon="1.70336">
        <ele>1698.079</ele>
        <time>2021-07-19T13:39:54Z</time>
      </trkpt>
      <trkpt lat="42.64949" lon="1.70336">
        <ele>1698.129</ele>
        <time>2021-07-19T13:39:56Z</time>
      </trkpt>
      <trkpt lat="42.64949" lon="1.70336">
        <ele>1698.123</ele>
        <time>2021-07-19T13:39:58Z</time>
      </trkpt>
      <trkpt lat="42.64949" lon="1.70336">
        <ele>1698.129</ele>
        <time>2021-07-19T13:40:00Z</time>
      </trkpt>
      <trkpt lat="42.64949" lon="1.70336">
        <ele>1698.131</ele>
        <time>2021-07-19T13:40:02Z</time>
      </trkpt>
      <trkpt lat="42.64949" lon="1.70336">
        <ele>1698.122</ele>
        <time>2021-07-19T13:40:04Z</time>
      </trkpt>
      <trkpt lat="42.64949" lon="1.70336">
        <ele>1698.119</ele>
        <time>2021-07-19T13:40:06Z</time>
      </trkpt>
      <trkpt lat="42.64949" lon="1.70336">
        <ele>1698.116</ele>
        <time>2021-07-19T13:40:08Z</time>
      </trkpt>
      <trkpt lat="42.64949" lon="1.70336">
        <ele>1698.112</ele>
        <time>2021-07-19T13:40:10Z</time>
      </trkpt>
      <trkpt lat="42.64949" lon="1.70336">
        <ele>1698.101</ele>
        <time>2021-07-19T13:40:12Z</time>
      </trkpt>
      <trkpt lat="42.64949" lon="1.70336">
        <ele>1698.347</ele>
        <time>2021-07-19T13:40:14Z</time>
      </trkpt>
      <trkpt lat="42.64949" lon="1.70335">
        <ele>1698.258</ele>
        <time>2021-07-19T13:40:16Z</time>
      </trkpt>
      <trkpt lat="42.64949" lon="1.70335">
        <ele>1698.392</ele>
        <time>2021-07-19T13:40:18Z</time>
      </trkpt>
      <trkpt lat="42.64949" lon="1.70335">
        <ele>1698.889</ele>
        <time>2021-07-19T13:40:20Z</time>
      </trkpt>
      <trkpt lat="42.64949" lon="1.70335">
        <ele>1699.25</ele>
        <time>2021-07-19T13:40:22Z</time>
      </trkpt>
      <trkpt lat="42.64949" lon="1.70335">
        <ele>1699.246</ele>
        <time>2021-07-19T13:40:24Z</time>
      </trkpt>
      <trkpt lat="42.64949" lon="1.70335">
        <ele>1699.245</ele>
        <time>2021-07-19T13:40:26Z</time>
      </trkpt>
      <trkpt lat="42.64949" lon="1.70335">
        <ele>1699.244</ele>
        <time>2021-07-19T13:40:28Z</time>
      </trkpt>
      <trkpt lat="42.64949" lon="1.70335">
        <ele>1699.245</ele>
        <time>2021-07-19T13:40:30Z</time>
      </trkpt>
      <trkpt lat="42.64949" lon="1.70335">
        <ele>1699.247</ele>
        <time>2021-07-19T13:40:32Z</time>
      </trkpt>
      <trkpt lat="42.64949" lon="1.70335">
        <ele>1699.246</ele>
        <time>2021-07-19T13:40:34Z</time>
      </trkpt>
      <trkpt lat="42.64949" lon="1.70335">
        <ele>1699.245</ele>
        <time>2021-07-19T13:40:36Z</time>
      </trkpt>
      <trkpt lat="42.64949" lon="1.70334">
        <ele>1699.065</ele>
        <time>2021-07-19T13:40:38Z</time>
      </trkpt>
      <trkpt lat="42.64949" lon="1.70334">
        <ele>1699.063</ele>
        <time>2021-07-19T13:40:40Z</time>
      </trkpt>
      <trkpt lat="42.64949" lon="1.70334">
        <ele>1699.06</ele>
        <time>2021-07-19T13:40:42Z</time>
      </trkpt>
      <trkpt lat="42.64949" lon="1.70334">
        <ele>1699.052</ele>
        <time>2021-07-19T13:40:44Z</time>
      </trkpt>
      <trkpt lat="42.64949" lon="1.70334">
        <ele>1699.053</ele>
        <time>2021-07-19T13:40:46Z</time>
      </trkpt>
      <trkpt lat="42.64949" lon="1.70334">
        <ele>1699.051</ele>
        <time>2021-07-19T13:40:48Z</time>
      </trkpt>
      <trkpt lat="42.64949" lon="1.70334">
        <ele>1699.043</ele>
        <time>2021-07-19T13:40:50Z</time>
      </trkpt>
      <trkpt lat="42.64949" lon="1.70334">
        <ele>1699.045</ele>
        <time>2021-07-19T13:40:52Z</time>
      </trkpt>
      <trkpt lat="42.64949" lon="1.70334">
        <ele>1699.045</ele>
        <time>2021-07-19T13:40:54Z</time>
      </trkpt>
      <trkpt lat="42.64949" lon="1.70334">
        <ele>1699.049</ele>
        <time>2021-07-19T13:40:56Z</time>
      </trkpt>
      <trkpt lat="42.64949" lon="1.70334">
        <ele>1699.049</ele>
        <time>2021-07-19T13:40:58Z</time>
      </trkpt>
      <trkpt lat="42.64949" lon="1.70335">
        <ele>1698.859</ele>
        <time>2021-07-19T13:41:00Z</time>
      </trkpt>
      <trkpt lat="42.64948" lon="1.70335">
        <ele>1698.672</ele>
        <time>2021-07-19T13:41:02Z</time>
      </trkpt>
      <trkpt lat="42.64948" lon="1.70335">
        <ele>1698.539</ele>
        <time>2021-07-19T13:41:04Z</time>
      </trkpt>
      <trkpt lat="42.64948" lon="1.70335">
        <ele>1697.595</ele>
        <time>2021-07-19T13:41:06Z</time>
      </trkpt>
      <trkpt lat="42.64948" lon="1.70335">
        <ele>1697.59</ele>
        <time>2021-07-19T13:41:08Z</time>
      </trkpt>
      <trkpt lat="42.64948" lon="1.70335">
        <ele>1697.583</ele>
        <time>2021-07-19T13:41:10Z</time>
      </trkpt>
      <trkpt lat="42.64948" lon="1.70335">
        <ele>1697.58</ele>
        <time>2021-07-19T13:41:12Z</time>
      </trkpt>
      <trkpt lat="42.64948" lon="1.70336">
        <ele>1698.003</ele>
        <time>2021-07-19T13:41:14Z</time>
      </trkpt>
      <trkpt lat="42.64947" lon="1.70336">
        <ele>1697.96</ele>
        <time>2021-07-19T13:41:16Z</time>
      </trkpt>
      <trkpt lat="42.64947" lon="1.70336">
        <ele>1697.952</ele>
        <time>2021-07-19T13:41:18Z</time>
      </trkpt>
      <trkpt lat="42.64947" lon="1.70336">
        <ele>1697.951</ele>
        <time>2021-07-19T13:41:20Z</time>
      </trkpt>
      <trkpt lat="42.64947" lon="1.70336">
        <ele>1697.95</ele>
        <time>2021-07-19T13:41:22Z</time>
      </trkpt>
      <trkpt lat="42.64947" lon="1.70336">
        <ele>1697.949</ele>
        <time>2021-07-19T13:41:24Z</time>
      </trkpt>
      <trkpt lat="42.64947" lon="1.70336">
        <ele>1697.949</ele>
        <time>2021-07-19T13:41:26Z</time>
      </trkpt>
      <trkpt lat="42.64947" lon="1.70336">
        <ele>1697.95</ele>
        <time>2021-07-19T13:41:28Z</time>
      </trkpt>
      <trkpt lat="42.64947" lon="1.70336">
        <ele>1697.951</ele>
        <time>2021-07-19T13:41:30Z</time>
      </trkpt>
      <trkpt lat="42.64947" lon="1.70336">
        <ele>1697.943</ele>
        <time>2021-07-19T13:41:32Z</time>
      </trkpt>
      <trkpt lat="42.64947" lon="1.70336">
        <ele>1697.94</ele>
        <time>2021-07-19T13:41:34Z</time>
      </trkpt>
      <trkpt lat="42.64947" lon="1.70336">
        <ele>1698.235</ele>
        <time>2021-07-19T13:41:36Z</time>
      </trkpt>
      <trkpt lat="42.64947" lon="1.70336">
        <ele>1698.208</ele>
        <time>2021-07-19T13:41:38Z</time>
      </trkpt>
      <trkpt lat="42.64947" lon="1.70336">
        <ele>1697.838</ele>
        <time>2021-07-19T13:41:40Z</time>
      </trkpt>
      <trkpt lat="42.64947" lon="1.70336">
        <ele>1697.83</ele>
        <time>2021-07-19T13:41:42Z</time>
      </trkpt>
      <trkpt lat="42.64947" lon="1.70336">
        <ele>1696.669</ele>
        <time>2021-07-19T13:41:44Z</time>
      </trkpt>
      <trkpt lat="42.64947" lon="1.70337">
        <ele>1696.307</ele>
        <time>2021-07-19T13:41:46Z</time>
      </trkpt>
      <trkpt lat="42.64947" lon="1.70337">
        <ele>1696.306</ele>
        <time>2021-07-19T13:41:48Z</time>
      </trkpt>
      <trkpt lat="42.64947" lon="1.70337">
        <ele>1696.266</ele>
        <time>2021-07-19T13:41:50Z</time>
      </trkpt>
      <trkpt lat="42.64947" lon="1.70337">
        <ele>1696.265</ele>
        <time>2021-07-19T13:41:52Z</time>
      </trkpt>
      <trkpt lat="42.64947" lon="1.70337">
        <ele>1696.242</ele>
        <time>2021-07-19T13:41:54Z</time>
      </trkpt>
      <trkpt lat="42.64947" lon="1.70337">
        <ele>1696.219</ele>
        <time>2021-07-19T13:41:56Z</time>
      </trkpt>
      <trkpt lat="42.64947" lon="1.70337">
        <ele>1696.216</ele>
        <time>2021-07-19T13:41:58Z</time>
      </trkpt>
      <trkpt lat="42.64947" lon="1.70337">
        <ele>1696.219</ele>
        <time>2021-07-19T13:42:00Z</time>
      </trkpt>
      <trkpt lat="42.64947" lon="1.70337">
        <ele>1696.21</ele>
        <time>2021-07-19T13:42:02Z</time>
      </trkpt>
    </trkseg>
  </trk>
</gpx>